<?xml version='1.0' encoding='UTF-8'?><gpx version="1.1" creator="JPX - https://github.com/jenetics/jpx" xmlns="http://www.topografix.com/GPX/1/1"><trk><trkseg><trkpt lat="39.459550430102674" lon="8.744512978862216"><ele>215.0</ele><time>2026-04-08T09:15:22Z</time></trkpt><trkpt lat="39.4595817278062" lon="8.744604005437761"><ele>215.0</ele><time>2026-04-08T09:15:23Z</time></trkpt><trkpt lat="39.4596120751284" lon="8.74469226767536"><ele>215.0</ele><time>2026-04-08T09:15:24Z</time></trkpt><trkpt lat="39.459641617095414" lon="8.744778186458756"><ele>215.0</ele><time>2026-04-08T09:15:25Z</time></trkpt><trkpt lat="39.45967195352427" lon="8.74486498336979"><ele>215.0</ele><time>2026-04-08T09:15:26Z</time></trkpt><trkpt lat="39.45970207473706" lon="8.744951911291153"><ele>215.0</ele><time>2026-04-08T09:15:27Z</time></trkpt><trkpt lat="39.45973321588457" lon="8.745041782635376"><ele>215.0</ele><time>2026-04-08T09:15:28Z</time></trkpt><trkpt lat="39.45976479225055" lon="8.7451330942198"><ele>214.28571428571428</ele><time>2026-04-08T09:15:29Z</time></trkpt><trkpt lat="39.459795455889456" lon="8.745221996776044"><ele>213.57142857142858</ele><time>2026-04-08T09:15:30Z</time></trkpt><trkpt lat="39.45982413571999" lon="8.745304521413393"><ele>212.85714285714286</ele><time>2026-04-08T09:15:31Z</time></trkpt><trkpt lat="39.45985033308563" lon="8.745379902620561"><ele>212.14285714285714</ele><time>2026-04-08T09:15:32Z</time></trkpt><trkpt lat="39.459877098752585" lon="8.745456919264573"><ele>211.42857142857144</ele><time>2026-04-08T09:15:33Z</time></trkpt><trkpt lat="39.45991617232332" lon="8.745568254714806"><ele>210.71428571428572</ele><time>2026-04-08T09:15:35Z</time></trkpt><trkpt lat="39.45995878344321" lon="8.745646485311868"><ele>210.0</ele><time>2026-04-08T09:15:42Z</time></trkpt><trkpt lat="39.459978439137764" lon="8.745744558241114"><ele>210.0</ele><time>2026-04-08T09:15:43Z</time></trkpt><trkpt lat="39.460028673854744" lon="8.745886601157292"><ele>210.0</ele><time>2026-04-08T09:15:44Z</time></trkpt><trkpt lat="39.46007519580441" lon="8.74601802658549"><ele>210.0</ele><time>2026-04-08T09:15:45Z</time></trkpt><trkpt lat="39.46012725765805" lon="8.746165102368401"><ele>210.0</ele><time>2026-04-08T09:15:46Z</time></trkpt><trkpt lat="39.4601812730047" lon="8.746320769184251"><ele>209.0</ele><time>2026-04-08T09:15:47Z</time></trkpt><trkpt lat="39.46024037560792" lon="8.746464317014379"><ele>208.0</ele><time>2026-04-08T09:15:48Z</time></trkpt><trkpt lat="39.46028892889632" lon="8.746604296567691"><ele>207.0</ele><time>2026-04-08T09:15:49Z</time></trkpt><trkpt lat="39.46033688607641" lon="8.746732522148355"><ele>206.0</ele><time>2026-04-08T09:15:50Z</time></trkpt><trkpt lat="39.46038537649829" lon="8.746858420585058"><ele>205.8</ele><time>2026-04-08T09:15:51Z</time></trkpt><trkpt lat="39.46043059979819" lon="8.746992536292941"><ele>205.60000000000002</ele><time>2026-04-08T09:15:52Z</time></trkpt><trkpt lat="39.46047280405044" lon="8.747127253049515"><ele>205.4</ele><time>2026-04-08T09:15:53Z</time></trkpt><trkpt lat="39.46051369497972" lon="8.747250629235795"><ele>205.2</ele><time>2026-04-08T09:15:54Z</time></trkpt><trkpt lat="39.46055596512572" lon="8.747372588135862"><ele>205.0</ele><time>2026-04-08T09:15:55Z</time></trkpt><trkpt lat="39.460596309739095" lon="8.747486292874232"><ele>204.8</ele><time>2026-04-08T09:15:56Z</time></trkpt><trkpt lat="39.460633524922" lon="8.747592771007461"><ele>204.6</ele><time>2026-04-08T09:15:57Z</time></trkpt><trkpt lat="39.46066334744242" lon="8.747686150387464"><ele>204.39999999999998</ele><time>2026-04-08T09:15:58Z</time></trkpt><trkpt lat="39.46067861113248" lon="8.747798537992466"><ele>204.2</ele><time>2026-04-08T09:16:00Z</time></trkpt><trkpt lat="39.46057302821701" lon="8.747887168196227"><ele>204.0</ele><time>2026-04-08T09:16:03Z</time></trkpt><trkpt lat="39.460488995838475" lon="8.747936469208497"><ele>203.79999999999998</ele><time>2026-04-08T09:16:04Z</time></trkpt><trkpt lat="39.460403593375574" lon="8.748001871700783"><ele>203.6</ele><time>2026-04-08T09:16:05Z</time></trkpt><trkpt lat="39.46030334227028" lon="8.748057028260979"><ele>203.4</ele><time>2026-04-08T09:16:06Z</time></trkpt><trkpt lat="39.460200084614904" lon="8.748116588413595"><ele>203.2</ele><time>2026-04-08T09:16:06.999Z</time></trkpt><trkpt lat="39.460104769795194" lon="8.7481709565299"><ele>203.0</ele><time>2026-04-08T09:16:07.999Z</time></trkpt><trkpt lat="39.460011417833634" lon="8.748227238669974"><ele>203.0</ele><time>2026-04-08T09:16:08.999Z</time></trkpt><trkpt lat="39.459922621591915" lon="8.748276581137763"><ele>203.0</ele><time>2026-04-08T09:16:09.999Z</time></trkpt><trkpt lat="39.4598333597733" lon="8.748315154998135"><ele>203.0</ele><time>2026-04-08T09:16:10.999Z</time></trkpt><trkpt lat="39.45974099462609" lon="8.748337941192517"><ele>203.0</ele><time>2026-04-08T09:16:11.999Z</time></trkpt><trkpt lat="39.45964412314706" lon="8.748334316345959"><ele>203.0</ele><time>2026-04-08T09:16:12.999Z</time></trkpt><trkpt lat="39.4595445346278" lon="8.74831492131893"><ele>203.0</ele><time>2026-04-08T09:16:13.999Z</time></trkpt><trkpt lat="39.45944839037813" lon="8.748303604591642"><ele>203.0</ele><time>2026-04-08T09:16:14.999Z</time></trkpt><trkpt lat="39.459351345327136" lon="8.74829858901811"><ele>203.0</ele><time>2026-04-08T09:16:15.999Z</time></trkpt><trkpt lat="39.45925375980306" lon="8.748300937274902"><ele>203.0</ele><time>2026-04-08T09:16:16.999Z</time></trkpt><trkpt lat="39.45915525427092" lon="8.748290284045838"><ele>203.0</ele><time>2026-04-08T09:16:17.999Z</time></trkpt><trkpt lat="39.459051301637274" lon="8.748263520292248"><ele>203.0</ele><time>2026-04-08T09:16:18.999Z</time></trkpt><trkpt lat="39.45894698576664" lon="8.748223462214819"><ele>203.0</ele><time>2026-04-08T09:16:19.999Z</time></trkpt><trkpt lat="39.45884133886989" lon="8.748188516081324"><ele>203.0</ele><time>2026-04-08T09:16:20.999Z</time></trkpt><trkpt lat="39.45872655777229" lon="8.748170328734016"><ele>203.0</ele><time>2026-04-08T09:16:21.999Z</time></trkpt><trkpt lat="39.45861585097832" lon="8.748126431396878"><ele>203.0</ele><time>2026-04-08T09:16:22.999Z</time></trkpt><trkpt lat="39.45850917932345" lon="8.74810959126122"><ele>202.60000000000002</ele><time>2026-04-08T09:16:23.999Z</time></trkpt><trkpt lat="39.458407089464785" lon="8.748119772452451"><ele>202.20000000000002</ele><time>2026-04-08T09:16:24.999Z</time></trkpt><trkpt lat="39.45830972020383" lon="8.748132459324376"><ele>201.8</ele><time>2026-04-08T09:16:25.999Z</time></trkpt><trkpt lat="39.45822110144984" lon="8.748148103919597"><ele>201.4</ele><time>2026-04-08T09:16:26.999Z</time></trkpt><trkpt lat="39.458135014642856" lon="8.748161440057727"><ele>201.0</ele><time>2026-04-08T09:16:27.999Z</time></trkpt><trkpt lat="39.45804870942222" lon="8.748175573552981"><ele>201.0</ele><time>2026-04-08T09:16:28.999Z</time></trkpt><trkpt lat="39.457967663259694" lon="8.748181269529828"><ele>201.0</ele><time>2026-04-08T09:16:29.999Z</time></trkpt><trkpt lat="39.4578919402486" lon="8.748168275300936"><ele>201.0</ele><time>2026-04-08T09:16:30.999Z</time></trkpt><trkpt lat="39.45782195946428" lon="8.748134543616224"><ele>201.0</ele><time>2026-04-08T09:16:31.999Z</time></trkpt><trkpt lat="39.45774697982786" lon="8.748072611329022"><ele>201.0</ele><time>2026-04-08T09:16:32.999Z</time></trkpt><trkpt lat="39.457679949027494" lon="8.748016138928628"><ele>201.0</ele><time>2026-04-08T09:16:33.999Z</time></trkpt><trkpt lat="39.45761470180165" lon="8.74798060599525"><ele>201.20000000000002</ele><time>2026-04-08T09:16:34.999Z</time></trkpt><trkpt lat="39.45746416245155" lon="8.747993652426596"><ele>201.4</ele><time>2026-04-08T09:16:36.999Z</time></trkpt><trkpt lat="39.457382468099155" lon="8.747996781961652"><ele>201.6</ele><time>2026-04-08T09:16:37.999Z</time></trkpt><trkpt lat="39.45730088723593" lon="8.748044161263538"><ele>201.8</ele><time>2026-04-08T09:16:38.999Z</time></trkpt><trkpt lat="39.45722039283787" lon="8.748063138870286"><ele>202.0</ele><time>2026-04-08T09:16:39.999Z</time></trkpt><trkpt lat="39.45715092032517" lon="8.748104989560238"><ele>202.0</ele><time>2026-04-08T09:16:40.999Z</time></trkpt><trkpt lat="39.45709360079345" lon="8.748189683346137"><ele>202.0</ele><time>2026-04-08T09:16:41.999Z</time></trkpt><trkpt lat="39.457038234580615" lon="8.74827851936794"><ele>202.0</ele><time>2026-04-08T09:16:42.999Z</time></trkpt><trkpt lat="39.456971680118365" lon="8.74837163823433"><ele>202.0</ele><time>2026-04-08T09:16:43.999Z</time></trkpt><trkpt lat="39.45691478204325" lon="8.748471320630221"><ele>202.0</ele><time>2026-04-08T09:16:44.999Z</time></trkpt><trkpt lat="39.45686909539297" lon="8.748587664412922"><ele>201.2</ele><time>2026-04-08T09:16:45.999Z</time></trkpt><trkpt lat="39.4568161217545" lon="8.748700621408547"><ele>200.39999999999998</ele><time>2026-04-08T09:16:46.999Z</time></trkpt><trkpt lat="39.456747864829616" lon="8.74880503977646"><ele>199.60000000000002</ele><time>2026-04-08T09:16:47.999Z</time></trkpt><trkpt lat="39.45669692474713" lon="8.7489232819932"><ele>198.8</ele><time>2026-04-08T09:16:48.999Z</time></trkpt><trkpt lat="39.456648750818616" lon="8.749048166794326"><ele>198.0</ele><time>2026-04-08T09:16:49.999Z</time></trkpt><trkpt lat="39.45660387712878" lon="8.749173442162364"><ele>198.0</ele><time>2026-04-08T09:16:50.998Z</time></trkpt><trkpt lat="39.45656206492429" lon="8.749297859050962"><ele>198.0</ele><time>2026-04-08T09:16:51.998Z</time></trkpt><trkpt lat="39.456522368389564" lon="8.749424978858444"><ele>198.0</ele><time>2026-04-08T09:16:52.998Z</time></trkpt><trkpt lat="39.45649717965401" lon="8.749556695353158"><ele>198.0</ele><time>2026-04-08T09:16:53.998Z</time></trkpt><trkpt lat="39.45647167205897" lon="8.749681772048953"><ele>198.0</ele><time>2026-04-08T09:16:54.998Z</time></trkpt><trkpt lat="39.45645824361226" lon="8.749808318181516"><ele>197.0</ele><time>2026-04-08T09:16:55.998Z</time></trkpt><trkpt lat="39.45642377426654" lon="8.749938166772216"><ele>196.0</ele><time>2026-04-08T09:16:56.998Z</time></trkpt><trkpt lat="39.45640361295122" lon="8.750077011034014"><ele>195.0</ele><time>2026-04-08T09:16:57.998Z</time></trkpt><trkpt lat="39.45639558036527" lon="8.750223691677194"><ele>194.0</ele><time>2026-04-08T09:16:58.998Z</time></trkpt><trkpt lat="39.456372437188364" lon="8.750366270450485"><ele>193.0</ele><time>2026-04-08T09:16:59.998Z</time></trkpt><trkpt lat="39.456352015487056" lon="8.750509369283641"><ele>192.60000000000002</ele><time>2026-04-08T09:17:00.998Z</time></trkpt><trkpt lat="39.456336776022795" lon="8.750650050880953"><ele>192.20000000000002</ele><time>2026-04-08T09:17:01.998Z</time></trkpt><trkpt lat="39.456328789303754" lon="8.750785958185086"><ele>191.8</ele><time>2026-04-08T09:17:02.998Z</time></trkpt><trkpt lat="39.4563329332419" lon="8.750919542344493"><ele>191.4</ele><time>2026-04-08T09:17:03.998Z</time></trkpt><trkpt lat="39.45634771605785" lon="8.75105290286316"><ele>191.0</ele><time>2026-04-08T09:17:04.998Z</time></trkpt><trkpt lat="39.456366910667235" lon="8.75118247759932"><ele>190.5</ele><time>2026-04-08T09:17:05.998Z</time></trkpt><trkpt lat="39.45638012991609" lon="8.751302247626683"><ele>190.0</ele><time>2026-04-08T09:17:06.998Z</time></trkpt><trkpt lat="39.45639178824732" lon="8.7514139364673"><ele>189.5</ele><time>2026-04-08T09:17:07.998Z</time></trkpt><trkpt lat="39.456385111564536" lon="8.751516774034963"><ele>189.0</ele><time>2026-04-08T09:17:08.998Z</time></trkpt><trkpt lat="39.45639132730745" lon="8.751607029687626"><ele>188.5</ele><time>2026-04-08T09:17:09.998Z</time></trkpt><trkpt lat="39.45638556693486" lon="8.751696263240385"><ele>188.0</ele><time>2026-04-08T09:17:11.998Z</time></trkpt><trkpt lat="39.45639596380427" lon="8.751801736899267"><ele>187.5</ele><time>2026-04-08T09:17:13.998Z</time></trkpt><trkpt lat="39.45641492995088" lon="8.751892948501258"><ele>187.0</ele><time>2026-04-08T09:17:14.998Z</time></trkpt><trkpt lat="39.45646190020279" lon="8.75197936438337"><ele>186.5</ele><time>2026-04-08T09:17:15.998Z</time></trkpt><trkpt lat="39.45651132510687" lon="8.752070293745067"><ele>186.0</ele><time>2026-04-08T09:17:16.998Z</time></trkpt><trkpt lat="39.45657838991764" lon="8.752156294804905"><ele>185.5</ele><time>2026-04-08T09:17:17.998Z</time></trkpt><trkpt lat="39.45664224347436" lon="8.75227056867921"><ele>185.0</ele><time>2026-04-08T09:17:19Z</time></trkpt><trkpt lat="39.45670868489792" lon="8.75238501804422"><ele>185.0</ele><time>2026-04-08T09:17:20Z</time></trkpt><trkpt lat="39.45678100976315" lon="8.752489422755325"><ele>185.0</ele><time>2026-04-08T09:17:21Z</time></trkpt><trkpt lat="39.45685567306115" lon="8.752586957262743"><ele>185.0</ele><time>2026-04-08T09:17:22Z</time></trkpt><trkpt lat="39.4569313771371" lon="8.75267976803228"><ele>185.0</ele><time>2026-04-08T09:17:23Z</time></trkpt><trkpt lat="39.457000026900936" lon="8.752761412524405"><ele>185.0</ele><time>2026-04-08T09:17:24Z</time></trkpt><trkpt lat="39.4570778623926" lon="8.75284033306484"><ele>184.2</ele><time>2026-04-08T09:17:25Z</time></trkpt><trkpt lat="39.45716325809656" lon="8.752922625033001"><ele>183.4</ele><time>2026-04-08T09:17:26Z</time></trkpt><trkpt lat="39.45725099693929" lon="8.753000194594392"><ele>182.60000000000002</ele><time>2026-04-08T09:17:27Z</time></trkpt><trkpt lat="39.45733920996069" lon="8.753077707553471"><ele>181.8</ele><time>2026-04-08T09:17:28Z</time></trkpt><trkpt lat="39.45742629097672" lon="8.753152441569245"><ele>181.0</ele><time>2026-04-08T09:17:29Z</time></trkpt><trkpt lat="39.457512492632546" lon="8.75322462084637"><ele>181.0</ele><time>2026-04-08T09:17:30Z</time></trkpt><trkpt lat="39.45759704990653" lon="8.753293961564019"><ele>181.0</ele><time>2026-04-08T09:17:31Z</time></trkpt><trkpt lat="39.457679701426414" lon="8.753362816679921"><ele>181.0</ele><time>2026-04-08T09:17:32Z</time></trkpt><trkpt lat="39.457761934338855" lon="8.75343286676582"><ele>181.0</ele><time>2026-04-08T09:17:33Z</time></trkpt><trkpt lat="39.45784251007072" lon="8.75350357060447"><ele>181.0</ele><time>2026-04-08T09:17:34Z</time></trkpt><trkpt lat="39.45792108930863" lon="8.75357484863596"><ele>181.0</ele><time>2026-04-08T09:17:35Z</time></trkpt><trkpt lat="39.45800903851143" lon="8.75364835729065"><ele>181.0</ele><time>2026-04-08T09:17:36Z</time></trkpt><trkpt lat="39.45810219042568" lon="8.75372713416745"><ele>181.0</ele><time>2026-04-08T09:17:37Z</time></trkpt><trkpt lat="39.4581926256795" lon="8.753814219468214"><ele>181.0</ele><time>2026-04-08T09:17:38Z</time></trkpt><trkpt lat="39.45826937788192" lon="8.753913876979121"><ele>181.0</ele><time>2026-04-08T09:17:39Z</time></trkpt><trkpt lat="39.458312659899086" lon="8.754046590092946"><ele>181.0</ele><time>2026-04-08T09:17:40Z</time></trkpt><trkpt lat="39.45835190182694" lon="8.754179276363566"><ele>181.0</ele><time>2026-04-08T09:17:41Z</time></trkpt><trkpt lat="39.458386822161884" lon="8.754323509135082"><ele>181.0</ele><time>2026-04-08T09:17:42Z</time></trkpt><trkpt lat="39.45843493999936" lon="8.754481216361059"><ele>181.0</ele><time>2026-04-08T09:17:43Z</time></trkpt><trkpt lat="39.45846318028088" lon="8.754651296992867"><ele>180.25</ele><time>2026-04-08T09:17:44Z</time></trkpt><trkpt lat="39.458483200840256" lon="8.754819742254249"><ele>179.5</ele><time>2026-04-08T09:17:45Z</time></trkpt><trkpt lat="39.45848814780718" lon="8.755005905159086"><ele>178.75</ele><time>2026-04-08T09:17:46Z</time></trkpt><trkpt lat="39.45847258747168" lon="8.755205022689264"><ele>178.0</ele><time>2026-04-08T09:17:47Z</time></trkpt><trkpt lat="39.45844694152231" lon="8.755411103946427"><ele>177.33333333333334</ele><time>2026-04-08T09:17:48Z</time></trkpt><trkpt lat="39.45841372656273" lon="8.755607771888577"><ele>176.66666666666666</ele><time>2026-04-08T09:17:49Z</time></trkpt><trkpt lat="39.458391877651266" lon="8.755795853980608"><ele>176.0</ele><time>2026-04-08T09:17:50Z</time></trkpt><trkpt lat="39.45839403598831" lon="8.755994903587291"><ele>175.0</ele><time>2026-04-08T09:17:51Z</time></trkpt><trkpt lat="39.4584186738059" lon="8.756204041786733"><ele>174.0</ele><time>2026-04-08T09:17:52Z</time></trkpt><trkpt lat="39.45845094642116" lon="8.756417083195144"><ele>173.0</ele><time>2026-04-08T09:17:53Z</time></trkpt><trkpt lat="39.458478908568054" lon="8.756628812591607"><ele>173.0</ele><time>2026-04-08T09:17:54Z</time></trkpt><trkpt lat="39.45850729458153" lon="8.756853264089498"><ele>173.0</ele><time>2026-04-08T09:17:55Z</time></trkpt><trkpt lat="39.45851988747087" lon="8.757082999632214"><ele>173.0</ele><time>2026-04-08T09:17:56Z</time></trkpt><trkpt lat="39.4585463446831" lon="8.757306591535304"><ele>172.66666666666666</ele><time>2026-04-08T09:17:57Z</time></trkpt><trkpt lat="39.45859097181535" lon="8.757533959725832"><ele>172.33333333333334</ele><time>2026-04-08T09:17:58Z</time></trkpt><trkpt lat="39.45861975718664" lon="8.7577494056884"><ele>172.0</ele><time>2026-04-08T09:17:59Z</time></trkpt><trkpt lat="39.45863951339851" lon="8.75794604617212"><ele>171.5</ele><time>2026-04-08T09:18:00Z</time></trkpt><trkpt lat="39.45867356969837" lon="8.758129650473725"><ele>171.0</ele><time>2026-04-08T09:18:01Z</time></trkpt><trkpt lat="39.45872761917867" lon="8.758303133213214"><ele>170.5</ele><time>2026-04-08T09:18:02Z</time></trkpt><trkpt lat="39.45884750004124" lon="8.758425257347255"><ele>170.0</ele><time>2026-04-08T09:18:03Z</time></trkpt><trkpt lat="39.45897872610812" lon="8.758528130527989"><ele>168.75</ele><time>2026-04-08T09:18:04Z</time></trkpt><trkpt lat="39.45910780883423" lon="8.75863449885306"><ele>167.5</ele><time>2026-04-08T09:18:05Z</time></trkpt><trkpt lat="39.459213697472904" lon="8.758736757398331"><ele>166.25</ele><time>2026-04-08T09:18:06Z</time></trkpt><trkpt lat="39.45930660368178" lon="8.758868820082288"><ele>165.0</ele><time>2026-04-08T09:18:07Z</time></trkpt><trkpt lat="39.4593410018973" lon="8.759019861139683"><ele>165.0</ele><time>2026-04-08T09:18:08Z</time></trkpt><trkpt lat="39.45936171828676" lon="8.759200958760049"><ele>165.0</ele><time>2026-04-08T09:18:08.999Z</time></trkpt><trkpt lat="39.45936639891646" lon="8.759419912870523"><ele>165.0</ele><time>2026-04-08T09:18:09.999Z</time></trkpt><trkpt lat="39.45937221945626" lon="8.75966749127053"><ele>164.33333333333334</ele><time>2026-04-08T09:18:10.999Z</time></trkpt><trkpt lat="39.459378442083825" lon="8.759932172655287"><ele>163.66666666666669</ele><time>2026-04-08T09:18:11.999Z</time></trkpt><trkpt lat="39.459398885574295" lon="8.760205891996497"><ele>163.0</ele><time>2026-04-08T09:18:12.999Z</time></trkpt><trkpt lat="39.45940296091436" lon="8.76047050498407"><ele>162.66666666666669</ele><time>2026-04-08T09:18:13.999Z</time></trkpt><trkpt lat="39.459408682914116" lon="8.760725366764973"><ele>162.33333333333334</ele><time>2026-04-08T09:18:14.999Z</time></trkpt><trkpt lat="39.45942217283271" lon="8.760984970945568"><ele>162.0</ele><time>2026-04-08T09:18:15.999Z</time></trkpt><trkpt lat="39.45944711909368" lon="8.761243570473269"><ele>161.33333333333334</ele><time>2026-04-08T09:18:16.999Z</time></trkpt><trkpt lat="39.4595139488743" lon="8.761500756127752"><ele>160.66666666666669</ele><time>2026-04-08T09:18:17.999Z</time></trkpt><trkpt lat="39.459580453685405" lon="8.7617591112188"><ele>160.0</ele><time>2026-04-08T09:18:18.999Z</time></trkpt><trkpt lat="39.45964132739413" lon="8.762018386162717"><ele>158.66666666666669</ele><time>2026-04-08T09:18:19.999Z</time></trkpt><trkpt lat="39.459700867133876" lon="8.762273516635274"><ele>157.33333333333334</ele><time>2026-04-08T09:18:20.999Z</time></trkpt><trkpt lat="39.45975364024295" lon="8.762530369193016"><ele>156.0</ele><time>2026-04-08T09:18:21.999Z</time></trkpt><trkpt lat="39.45981835475513" lon="8.76278090735554"><ele>156.0</ele><time>2026-04-08T09:18:22.999Z</time></trkpt><trkpt lat="39.459890013416455" lon="8.76302539100454"><ele>156.0</ele><time>2026-04-08T09:18:23.999Z</time></trkpt><trkpt lat="39.45996131964384" lon="8.76327274873127"><ele>156.0</ele><time>2026-04-08T09:18:24.999Z</time></trkpt><trkpt lat="39.46003231635556" lon="8.76352009215825"><ele>155.0</ele><time>2026-04-08T09:18:25.999Z</time></trkpt><trkpt lat="39.4600981726977" lon="8.763766082536169"><ele>154.0</ele><time>2026-04-08T09:18:26.999Z</time></trkpt><trkpt lat="39.46016742320717" lon="8.764009941044199"><ele>153.0</ele><time>2026-04-08T09:18:27.999Z</time></trkpt><trkpt lat="39.460235143594936" lon="8.764253582322603"><ele>152.33333333333334</ele><time>2026-04-08T09:18:28.999Z</time></trkpt><trkpt lat="39.460304937336566" lon="8.764508717446963"><ele>151.66666666666669</ele><time>2026-04-08T09:18:29.999Z</time></trkpt><trkpt lat="39.46036737412345" lon="8.764760017867538"><ele>151.0</ele><time>2026-04-08T09:18:30.999Z</time></trkpt><trkpt lat="39.4604263163161" lon="8.765010661163005"><ele>150.33333333333334</ele><time>2026-04-08T09:18:31.999Z</time></trkpt><trkpt lat="39.46049339616242" lon="8.765257672374483"><ele>149.66666666666666</ele><time>2026-04-08T09:18:32.999Z</time></trkpt><trkpt lat="39.46057054529179" lon="8.765507055677851"><ele>149.0</ele><time>2026-04-08T09:18:33.999Z</time></trkpt><trkpt lat="39.46063970552925" lon="8.765754843770745"><ele>149.0</ele><time>2026-04-08T09:18:34.999Z</time></trkpt><trkpt lat="39.4606987622207" lon="8.766012116605301"><ele>149.0</ele><time>2026-04-08T09:18:35.999Z</time></trkpt><trkpt lat="39.46076298411716" lon="8.766266389385464"><ele>149.0</ele><time>2026-04-08T09:18:36.999Z</time></trkpt><trkpt lat="39.460834084874826" lon="8.76651323511768"><ele>148.0</ele><time>2026-04-08T09:18:37.999Z</time></trkpt><trkpt lat="39.4609049347211" lon="8.766759613189084"><ele>147.0</ele><time>2026-04-08T09:18:38.999Z</time></trkpt><trkpt lat="39.460935819219614" lon="8.76701028728771"><ele>146.0</ele><time>2026-04-08T09:18:39.999Z</time></trkpt><trkpt lat="39.46096739812162" lon="8.767213031124491"><ele>145.75</ele><time>2026-04-08T09:18:40.999Z</time></trkpt><trkpt lat="39.46096403613029" lon="8.7674130959914"><ele>145.5</ele><time>2026-04-08T09:18:41.999Z</time></trkpt><trkpt lat="39.46093414346595" lon="8.767600164198024"><ele>145.25</ele><time>2026-04-08T09:18:42.999Z</time></trkpt><trkpt lat="39.46090370293926" lon="8.767765458037045"><ele>145.0</ele><time>2026-04-08T09:18:43.999Z</time></trkpt><trkpt lat="39.46086067666358" lon="8.767911285622537"><ele>144.5</ele><time>2026-04-08T09:18:44.999Z</time></trkpt><trkpt lat="39.46088374778542" lon="8.768122270791517"><ele>144.0</ele><time>2026-04-08T09:18:45.999Z</time></trkpt><trkpt lat="39.46084805780369" lon="8.768254664863523"><ele>143.5</ele><time>2026-04-08T09:18:46.999Z</time></trkpt><trkpt lat="39.46079189194639" lon="8.768366105060736"><ele>143.0</ele><time>2026-04-08T09:18:47.999Z</time></trkpt><trkpt lat="39.46071493056836" lon="8.768458721769187"><ele>142.66666666666666</ele><time>2026-04-08T09:18:48.999Z</time></trkpt><trkpt lat="39.46061816728515" lon="8.768565558589478"><ele>142.33333333333334</ele><time>2026-04-08T09:18:49.999Z</time></trkpt><trkpt lat="39.460506767621055" lon="8.768699387790111"><ele>142.0</ele><time>2026-04-08T09:18:50.999Z</time></trkpt><trkpt lat="39.460355880070814" lon="8.768848032098292"><ele>142.0</ele><time>2026-04-08T09:18:51.999Z</time></trkpt><trkpt lat="39.4601887319226" lon="8.769032600690556"><ele>142.0</ele><time>2026-04-08T09:18:52.999Z</time></trkpt><trkpt lat="39.46001939378334" lon="8.76923451906198"><ele>141.0</ele><time>2026-04-08T09:18:53.998Z</time></trkpt><trkpt lat="39.45983975467164" lon="8.769430723499266"><ele>140.0</ele><time>2026-04-08T09:18:54.998Z</time></trkpt><trkpt lat="39.45965379300967" lon="8.7696395543975"><ele>140.0</ele><time>2026-04-08T09:18:55.998Z</time></trkpt><trkpt lat="39.45945108095466" lon="8.769836173720655"><ele>140.0</ele><time>2026-04-08T09:18:56.998Z</time></trkpt><trkpt lat="39.459253738271386" lon="8.770051786891953"><ele>139.0</ele><time>2026-04-08T09:18:57.998Z</time></trkpt><trkpt lat="39.45904580944029" lon="8.770278966256013"><ele>138.0</ele><time>2026-04-08T09:18:58.998Z</time></trkpt><trkpt lat="39.45883741931426" lon="8.770506649606391"><ele>139.0</ele><time>2026-04-08T09:18:59.998Z</time></trkpt><trkpt lat="39.458648627684596" lon="8.77073390443835"><ele>140.0</ele><time>2026-04-08T09:19:00.998Z</time></trkpt><trkpt lat="39.458459843196536" lon="8.770944752448006"><ele>138.5</ele><time>2026-04-08T09:19:01.998Z</time></trkpt><trkpt lat="39.45824483624069" lon="8.7711504918173"><ele>137.0</ele><time>2026-04-08T09:19:02.998Z</time></trkpt><trkpt lat="39.458027382004424" lon="8.771386567174854"><ele>137.0</ele><time>2026-04-08T09:19:03.998Z</time></trkpt><trkpt lat="39.457808701717454" lon="8.771625638727986"><ele>137.0</ele><time>2026-04-08T09:19:04.998Z</time></trkpt><trkpt lat="39.45758743427143" lon="8.771867832091873"><ele>137.0</ele><time>2026-04-08T09:19:05.998Z</time></trkpt><trkpt lat="39.457353945079205" lon="8.772122572628238"><ele>137.0</ele><time>2026-04-08T09:19:06.998Z</time></trkpt><trkpt lat="39.45710438622791" lon="8.772394250390857"><ele>136.5</ele><time>2026-04-08T09:19:07.998Z</time></trkpt><trkpt lat="39.45683994620066" lon="8.772682128246066"><ele>136.0</ele><time>2026-04-08T09:19:08.998Z</time></trkpt><trkpt lat="39.45657745141618" lon="8.772985645655401"><ele>135.0</ele><time>2026-04-08T09:19:09.998Z</time></trkpt><trkpt lat="39.456304820850015" lon="8.77328231624379"><ele>134.0</ele><time>2026-04-08T09:19:10.998Z</time></trkpt><trkpt lat="39.45604420013026" lon="8.773564649285346"><ele>134.0</ele><time>2026-04-08T09:19:11.998Z</time></trkpt><trkpt lat="39.45578269058937" lon="8.77385412359275"><ele>134.0</ele><time>2026-04-08T09:19:12.998Z</time></trkpt><trkpt lat="39.45550677982764" lon="8.7741334560242"><ele>133.0</ele><time>2026-04-08T09:19:13.998Z</time></trkpt><trkpt lat="39.45523852372753" lon="8.774425634662506"><ele>132.0</ele><time>2026-04-08T09:19:14.998Z</time></trkpt><trkpt lat="39.45498334773764" lon="8.774729253700404"><ele>132.0</ele><time>2026-04-08T09:19:15.998Z</time></trkpt><trkpt lat="39.454726867080204" lon="8.77500390762441"><ele>132.0</ele><time>2026-04-08T09:19:16.998Z</time></trkpt><trkpt lat="39.45447158725897" lon="8.775274787981914"><ele>132.0</ele><time>2026-04-08T09:19:17.998Z</time></trkpt><trkpt lat="39.454218298958395" lon="8.775551316762565"><ele>132.0</ele><time>2026-04-08T09:19:18.998Z</time></trkpt><trkpt lat="39.45396284132273" lon="8.775834462654974"><ele>131.0</ele><time>2026-04-08T09:19:19.998Z</time></trkpt><trkpt lat="39.45371141843631" lon="8.776112530776226"><ele>130.0</ele><time>2026-04-08T09:19:20.998Z</time></trkpt><trkpt lat="39.45345759001941" lon="8.776386132590826"><ele>130.0</ele><time>2026-04-08T09:19:21.998Z</time></trkpt><trkpt lat="39.453207892093864" lon="8.776658977303434"><ele>130.0</ele><time>2026-04-08T09:19:22.998Z</time></trkpt><trkpt lat="39.452958583750764" lon="8.776928002334893"><ele>129.0</ele><time>2026-04-08T09:19:23.998Z</time></trkpt><trkpt lat="39.45271130972381" lon="8.777194815071805"><ele>128.0</ele><time>2026-04-08T09:19:25Z</time></trkpt><trkpt lat="39.45247277708015" lon="8.777465216976154"><ele>127.5</ele><time>2026-04-08T09:19:26Z</time></trkpt><trkpt lat="39.45223276641501" lon="8.777726678002102"><ele>127.0</ele><time>2026-04-08T09:19:27Z</time></trkpt><trkpt lat="39.45199378997629" lon="8.777982041373436"><ele>128.0</ele><time>2026-04-08T09:19:28Z</time></trkpt><trkpt lat="39.45175949481588" lon="8.778233484811322"><ele>129.0</ele><time>2026-04-08T09:19:29Z</time></trkpt><trkpt lat="39.451525278679156" lon="8.778492207248322"><ele>129.0</ele><time>2026-04-08T09:19:30Z</time></trkpt><trkpt lat="39.45129233490138" lon="8.778748959103492"><ele>129.0</ele><time>2026-04-08T09:19:31Z</time></trkpt><trkpt lat="39.451058593420974" lon="8.77900394492548"><ele>128.5</ele><time>2026-04-08T09:19:32Z</time></trkpt><trkpt lat="39.45082262913982" lon="8.779256158871924"><ele>128.0</ele><time>2026-04-08T09:19:33Z</time></trkpt><trkpt lat="39.45058138812965" lon="8.779503411313282"><ele>127.5</ele><time>2026-04-08T09:19:34Z</time></trkpt><trkpt lat="39.450333539438525" lon="8.77973984860502"><ele>127.0</ele><time>2026-04-08T09:19:35Z</time></trkpt><trkpt lat="39.45007877547424" lon="8.77996499763626"><ele>127.0</ele><time>2026-04-08T09:19:36Z</time></trkpt><trkpt lat="39.4498215478484" lon="8.780180845247342"><ele>127.0</ele><time>2026-04-08T09:19:37Z</time></trkpt><trkpt lat="39.44956112110008" lon="8.780383152214611"><ele>126.5</ele><time>2026-04-08T09:19:38Z</time></trkpt><trkpt lat="39.44930802317431" lon="8.780554397299632"><ele>126.0</ele><time>2026-04-08T09:19:39Z</time></trkpt><trkpt lat="39.449078755324265" lon="8.780706619168429"><ele>126.0</ele><time>2026-04-08T09:19:40Z</time></trkpt><trkpt lat="39.44886636148569" lon="8.780848729400368"><ele>126.0</ele><time>2026-04-08T09:19:41Z</time></trkpt><trkpt lat="39.4486470791219" lon="8.780974871600828"><ele>126.0</ele><time>2026-04-08T09:19:42Z</time></trkpt><trkpt lat="39.448419750097806" lon="8.781088085788616"><ele>126.0</ele><time>2026-04-08T09:19:43Z</time></trkpt><trkpt lat="39.44820449589546" lon="8.78119541851906"><ele>126.0</ele><time>2026-04-08T09:19:44Z</time></trkpt><trkpt lat="39.447990816658816" lon="8.781300639064433"><ele>126.0</ele><time>2026-04-08T09:19:45Z</time></trkpt><trkpt lat="39.44776217513529" lon="8.781397231248114"><ele>125.0</ele><time>2026-04-08T09:19:46Z</time></trkpt><trkpt lat="39.44754365917754" lon="8.781480566753496"><ele>124.0</ele><time>2026-04-08T09:19:47Z</time></trkpt><trkpt lat="39.44732825237252" lon="8.781554853906162"><ele>124.0</ele><time>2026-04-08T09:19:48Z</time></trkpt><trkpt lat="39.447112886239616" lon="8.781626747883895"><ele>124.0</ele><time>2026-04-08T09:19:49Z</time></trkpt><trkpt lat="39.44689345692729" lon="8.781693516221193"><ele>124.0</ele><time>2026-04-08T09:19:50Z</time></trkpt><trkpt lat="39.44666350234933" lon="8.7817519591264"><ele>124.0</ele><time>2026-04-08T09:19:51Z</time></trkpt><trkpt lat="39.44643239216397" lon="8.781803052662479"><ele>124.0</ele><time>2026-04-08T09:19:52Z</time></trkpt><trkpt lat="39.446170749679695" lon="8.781869588890483"><ele>123.5</ele><time>2026-04-08T09:19:53Z</time></trkpt><trkpt lat="39.44587147135417" lon="8.781956295406243"><ele>123.0</ele><time>2026-04-08T09:19:54Z</time></trkpt><trkpt lat="39.44556664194387" lon="8.782028037959858"><ele>123.0</ele><time>2026-04-08T09:19:55Z</time></trkpt><trkpt lat="39.44525231498991" lon="8.782083656144197"><ele>123.0</ele><time>2026-04-08T09:19:56Z</time></trkpt><trkpt lat="39.44492120677424" lon="8.782141480192204"><ele>123.0</ele><time>2026-04-08T09:19:57Z</time></trkpt><trkpt lat="39.44458614773121" lon="8.782213697141929"><ele>123.0</ele><time>2026-04-08T09:19:58Z</time></trkpt><trkpt lat="39.4442496193035" lon="8.782296496754489"><ele>123.0</ele><time>2026-04-08T09:19:59Z</time></trkpt><trkpt lat="39.44391487325613" lon="8.782372151474451"><ele>123.0</ele><time>2026-04-08T09:20:00Z</time></trkpt><trkpt lat="39.443583086351694" lon="8.782446009941838"><ele>123.0</ele><time>2026-04-08T09:20:01Z</time></trkpt><trkpt lat="39.44325432238813" lon="8.782520206174654"><ele>123.0</ele><time>2026-04-08T09:20:02Z</time></trkpt><trkpt lat="39.44293816172808" lon="8.78259655111684"><ele>122.5</ele><time>2026-04-08T09:20:03Z</time></trkpt><trkpt lat="39.44261813299976" lon="8.782675823845867"><ele>122.0</ele><time>2026-04-08T09:20:04Z</time></trkpt><trkpt lat="39.442302955008856" lon="8.782750522938514"><ele>121.5</ele><time>2026-04-08T09:20:05Z</time></trkpt><trkpt lat="39.4419830252081" lon="8.782827643112126"><ele>121.0</ele><time>2026-04-08T09:20:06Z</time></trkpt><trkpt lat="39.44165881355145" lon="8.782916370699104"><ele>121.0</ele><time>2026-04-08T09:20:07Z</time></trkpt><trkpt lat="39.44133146215745" lon="8.783000047768915"><ele>121.0</ele><time>2026-04-08T09:20:08Z</time></trkpt><trkpt lat="39.44100533360963" lon="8.783065113836374"><ele>119.5</ele><time>2026-04-08T09:20:09Z</time></trkpt><trkpt lat="39.44067967758175" lon="8.783125387470088"><ele>118.0</ele><time>2026-04-08T09:20:10Z</time></trkpt><trkpt lat="39.44035851662781" lon="8.78319201332992"><ele>117.0</ele><time>2026-04-08T09:20:11Z</time></trkpt><trkpt lat="39.44003512165937" lon="8.783266653570186"><ele>116.0</ele><time>2026-04-08T09:20:12Z</time></trkpt><trkpt lat="39.43971411520652" lon="8.78334117056995"><ele>118.0</ele><time>2026-04-08T09:20:13Z</time></trkpt><trkpt lat="39.43938656099583" lon="8.783414020578933"><ele>120.0</ele><time>2026-04-08T09:20:14Z</time></trkpt><trkpt lat="39.43905892659118" lon="8.783490405222192"><ele>120.5</ele><time>2026-04-08T09:20:15Z</time></trkpt><trkpt lat="39.43872735028061" lon="8.78357384975644"><ele>121.0</ele><time>2026-04-08T09:20:16Z</time></trkpt><trkpt lat="39.438393791473416" lon="8.783663763796433"><ele>121.0</ele><time>2026-04-08T09:20:17Z</time></trkpt><trkpt lat="39.438054046709446" lon="8.783744089938844"><ele>121.0</ele><time>2026-04-08T09:20:18Z</time></trkpt><trkpt lat="39.437711421092686" lon="8.783819422498528"><ele>120.5</ele><time>2026-04-08T09:20:18.999Z</time></trkpt><trkpt lat="39.43736253613665" lon="8.783894886089561"><ele>120.0</ele><time>2026-04-08T09:20:19.999Z</time></trkpt><trkpt lat="39.437007559350036" lon="8.783971237893892"><ele>120.0</ele><time>2026-04-08T09:20:20.999Z</time></trkpt><trkpt lat="39.43665341774383" lon="8.784051032365545"><ele>120.0</ele><time>2026-04-08T09:20:21.999Z</time></trkpt><trkpt lat="39.43629484217207" lon="8.784136391080228"><ele>119.5</ele><time>2026-04-08T09:20:22.999Z</time></trkpt><trkpt lat="39.43593671314984" lon="8.784226414493585"><ele>119.0</ele><time>2026-04-08T09:20:23.999Z</time></trkpt><trkpt lat="39.43557622834808" lon="8.784312096656905"><ele>118.5</ele><time>2026-04-08T09:20:24.999Z</time></trkpt><trkpt lat="39.43521481094462" lon="8.784394192600756"><ele>118.0</ele><time>2026-04-08T09:20:25.999Z</time></trkpt><trkpt lat="39.43485540631457" lon="8.784476843847434"><ele>117.5</ele><time>2026-04-08T09:20:26.999Z</time></trkpt><trkpt lat="39.43449654033068" lon="8.784555530375393"><ele>117.0</ele><time>2026-04-08T09:20:27.999Z</time></trkpt><trkpt lat="39.43413774485139" lon="8.784634801505863"><ele>117.0</ele><time>2026-04-08T09:20:28.999Z</time></trkpt><trkpt lat="39.43378306365923" lon="8.784716024015925"><ele>117.0</ele><time>2026-04-08T09:20:29.999Z</time></trkpt><trkpt lat="39.43343091179924" lon="8.78479952558493"><ele>117.0</ele><time>2026-04-08T09:20:30.999Z</time></trkpt><trkpt lat="39.43310331248318" lon="8.78487753027693"><ele>117.0</ele><time>2026-04-08T09:20:31.999Z</time></trkpt><trkpt lat="39.432812295690674" lon="8.784948994257624"><ele>117.0</ele><time>2026-04-08T09:20:32.999Z</time></trkpt><trkpt lat="39.432525158956956" lon="8.785014375337267"><ele>117.0</ele><time>2026-04-08T09:20:33.999Z</time></trkpt><trkpt lat="39.43224685113324" lon="8.785074189111777"><ele>117.0</ele><time>2026-04-08T09:20:34.999Z</time></trkpt><trkpt lat="39.43196785472625" lon="8.785145956444136"><ele>117.0</ele><time>2026-04-08T09:20:35.999Z</time></trkpt><trkpt lat="39.43168482986423" lon="8.785242953916296"><ele>116.0</ele><time>2026-04-08T09:20:36.999Z</time></trkpt><trkpt lat="39.431401580044465" lon="8.78536943741781"><ele>115.0</ele><time>2026-04-08T09:20:37.999Z</time></trkpt><trkpt lat="39.431118396910826" lon="8.785516652375307"><ele>115.0</ele><time>2026-04-08T09:20:38.999Z</time></trkpt><trkpt lat="39.43084147796289" lon="8.785672108643478"><ele>115.0</ele><time>2026-04-08T09:20:39.999Z</time></trkpt><trkpt lat="39.430572609748815" lon="8.785840238597501"><ele>114.5</ele><time>2026-04-08T09:20:40.999Z</time></trkpt><trkpt lat="39.43027922985345" lon="8.786033347708099"><ele>114.0</ele><time>2026-04-08T09:20:41.999Z</time></trkpt><trkpt lat="39.429985521374675" lon="8.786221218078412"><ele>114.0</ele><time>2026-04-08T09:20:42.999Z</time></trkpt><trkpt lat="39.429712866107515" lon="8.786399258353514"><ele>114.0</ele><time>2026-04-08T09:20:43.999Z</time></trkpt><trkpt lat="39.429445843489816" lon="8.786606982611886"><ele>113.5</ele><time>2026-04-08T09:20:44.999Z</time></trkpt><trkpt lat="39.429184107162975" lon="8.78684883987735"><ele>113.0</ele><time>2026-04-08T09:20:45.999Z</time></trkpt><trkpt lat="39.42893079821571" lon="8.787114842170812"><ele>113.0</ele><time>2026-04-08T09:20:46.999Z</time></trkpt><trkpt lat="39.4286875522493" lon="8.787396669053779"><ele>113.0</ele><time>2026-04-08T09:20:47.999Z</time></trkpt><trkpt lat="39.42845345493272" lon="8.787692402890418"><ele>113.0</ele><time>2026-04-08T09:20:48.999Z</time></trkpt><trkpt lat="39.42823569313371" lon="8.788001861464258"><ele>113.0</ele><time>2026-04-08T09:20:49.999Z</time></trkpt><trkpt lat="39.42803193158199" lon="8.788323776739523"><ele>112.0</ele><time>2026-04-08T09:20:50.999Z</time></trkpt><trkpt lat="39.42784289884978" lon="8.788661872733092"><ele>111.0</ele><time>2026-04-08T09:20:51.999Z</time></trkpt><trkpt lat="39.42766192248616" lon="8.78900793487871"><ele>111.0</ele><time>2026-04-08T09:20:52.999Z</time></trkpt><trkpt lat="39.42749134233084" lon="8.789372127319192"><ele>111.0</ele><time>2026-04-08T09:20:53.999Z</time></trkpt><trkpt lat="39.42731802898765" lon="8.789749506388914"><ele>109.5</ele><time>2026-04-08T09:20:54.999Z</time></trkpt><trkpt lat="39.42712361372903" lon="8.790127802264845"><ele>108.0</ele><time>2026-04-08T09:20:55.999Z</time></trkpt><trkpt lat="39.42694949530144" lon="8.790524987413539"><ele>107.5</ele><time>2026-04-08T09:20:56.999Z</time></trkpt><trkpt lat="39.42675324714966" lon="8.790923267966642"><ele>107.0</ele><time>2026-04-08T09:20:57.999Z</time></trkpt><trkpt lat="39.42655811373395" lon="8.79133034609894"><ele>107.0</ele><time>2026-04-08T09:20:58.999Z</time></trkpt><trkpt lat="39.42635797388657" lon="8.791736019064155"><ele>107.0</ele><time>2026-04-08T09:20:59.999Z</time></trkpt><trkpt lat="39.426161743247945" lon="8.792140303296362"><ele>107.0</ele><time>2026-04-08T09:21:00.999Z</time></trkpt><trkpt lat="39.425965696044585" lon="8.792550108540565"><ele>107.0</ele><time>2026-04-08T09:21:01.999Z</time></trkpt><trkpt lat="39.425768581092704" lon="8.79295421786813"><ele>107.0</ele><time>2026-04-08T09:21:02.998Z</time></trkpt><trkpt lat="39.42557147527121" lon="8.793355597334976"><ele>107.0</ele><time>2026-04-08T09:21:03.998Z</time></trkpt><trkpt lat="39.42538056489228" lon="8.793748985003134"><ele>107.0</ele><time>2026-04-08T09:21:04.998Z</time></trkpt><trkpt lat="39.425204844418516" lon="8.794115117107808"><ele>107.0</ele><time>2026-04-08T09:21:05.998Z</time></trkpt><trkpt lat="39.425047844987404" lon="8.794436557401387"><ele>106.0</ele><time>2026-04-08T09:21:06.998Z</time></trkpt><trkpt lat="39.42489315955478" lon="8.79475567983035"><ele>105.0</ele><time>2026-04-08T09:21:07.998Z</time></trkpt><trkpt lat="39.4247434478075" lon="8.79507458502894"><ele>104.5</ele><time>2026-04-08T09:21:08.998Z</time></trkpt><trkpt lat="39.42459878465637" lon="8.795387647911179"><ele>104.0</ele><time>2026-04-08T09:21:09.998Z</time></trkpt><trkpt lat="39.42444004299681" lon="8.795674815662213"><ele>104.0</ele><time>2026-04-08T09:21:10.998Z</time></trkpt><trkpt lat="39.424295196900985" lon="8.795973559299673"><ele>104.0</ele><time>2026-04-08T09:21:11.998Z</time></trkpt><trkpt lat="39.424156678687936" lon="8.796288513760503"><ele>103.0</ele><time>2026-04-08T09:21:12.998Z</time></trkpt><trkpt lat="39.424001616690155" lon="8.79659283070423"><ele>102.0</ele><time>2026-04-08T09:21:13.998Z</time></trkpt><trkpt lat="39.423844808126304" lon="8.796914184013314"><ele>101.5</ele><time>2026-04-08T09:21:14.998Z</time></trkpt><trkpt lat="39.42368533608621" lon="8.797247902123763"><ele>101.0</ele><time>2026-04-08T09:21:15.998Z</time></trkpt><trkpt lat="39.423526030476395" lon="8.797579911808814"><ele>100.0</ele><time>2026-04-08T09:21:16.998Z</time></trkpt><trkpt lat="39.42337234283146" lon="8.797897120486837"><ele>99.0</ele><time>2026-04-08T09:21:17.998Z</time></trkpt><trkpt lat="39.42323183516682" lon="8.798187031099745"><ele>99.0</ele><time>2026-04-08T09:21:18.998Z</time></trkpt><trkpt lat="39.423102551589125" lon="8.798451160713292"><ele>99.0</ele><time>2026-04-08T09:21:19.998Z</time></trkpt><trkpt lat="39.422975415568395" lon="8.798716282138878"><ele>98.5</ele><time>2026-04-08T09:21:20.998Z</time></trkpt><trkpt lat="39.42284447920482" lon="8.798990581928933"><ele>98.0</ele><time>2026-04-08T09:21:21.998Z</time></trkpt><trkpt lat="39.42271236882719" lon="8.79927044803674"><ele>98.5</ele><time>2026-04-08T09:21:22.998Z</time></trkpt><trkpt lat="39.42257950154807" lon="8.799547910655342"><ele>99.0</ele><time>2026-04-08T09:21:23.998Z</time></trkpt><trkpt lat="39.42245112434818" lon="8.799811031783952"><ele>99.0</ele><time>2026-04-08T09:21:24.998Z</time></trkpt><trkpt lat="39.42231782912604" lon="8.800088298232854"><ele>99.0</ele><time>2026-04-08T09:21:25.998Z</time></trkpt><trkpt lat="39.42218281465102" lon="8.800365979939542"><ele>98.0</ele><time>2026-04-08T09:21:26.998Z</time></trkpt><trkpt lat="39.42204656324453" lon="8.800644026432705"><ele>97.0</ele><time>2026-04-08T09:21:27.998Z</time></trkpt><trkpt lat="39.42191016889273" lon="8.80092693878735"><ele>96.5</ele><time>2026-04-08T09:21:28.998Z</time></trkpt><trkpt lat="39.421774029222064" lon="8.801206672289695"><ele>96.0</ele><time>2026-04-08T09:21:29.998Z</time></trkpt><trkpt lat="39.421639940757395" lon="8.801479901609873"><ele>96.0</ele><time>2026-04-08T09:21:31.001Z</time></trkpt><trkpt lat="39.421506983011994" lon="8.801751862840671"><ele>96.0</ele><time>2026-04-08T09:21:32.001Z</time></trkpt><trkpt lat="39.42137782785318" lon="8.802021048711232"><ele>96.0</ele><time>2026-04-08T09:21:33.001Z</time></trkpt><trkpt lat="39.42124613518133" lon="8.80228970948116"><ele>96.0</ele><time>2026-04-08T09:21:34.001Z</time></trkpt><trkpt lat="39.42111436055771" lon="8.802558888389678"><ele>95.0</ele><time>2026-04-08T09:21:35.001Z</time></trkpt><trkpt lat="39.42098442039892" lon="8.802827777645835"><ele>94.0</ele><time>2026-04-08T09:21:36.001Z</time></trkpt><trkpt lat="39.42085272018811" lon="8.803103081799646"><ele>94.0</ele><time>2026-04-08T09:21:37.001Z</time></trkpt><trkpt lat="39.42072027072256" lon="8.80337914863663"><ele>94.0</ele><time>2026-04-08T09:21:38.001Z</time></trkpt><trkpt lat="39.420584462920424" lon="8.80365662500656"><ele>92.5</ele><time>2026-04-08T09:21:39.001Z</time></trkpt><trkpt lat="39.420449184558485" lon="8.803934848726906"><ele>91.0</ele><time>2026-04-08T09:21:40.001Z</time></trkpt><trkpt lat="39.420312764487015" lon="8.804215046807812"><ele>91.0</ele><time>2026-04-08T09:21:41.001Z</time></trkpt><trkpt lat="39.42017481382772" lon="8.804495272222868"><ele>91.0</ele><time>2026-04-08T09:21:42.001Z</time></trkpt><trkpt lat="39.42004010440741" lon="8.804773082747111"><ele>91.0</ele><time>2026-04-08T09:21:43.001Z</time></trkpt><trkpt lat="39.41990679490979" lon="8.805051429139809"><ele>91.0</ele><time>2026-04-08T09:21:44.001Z</time></trkpt><trkpt lat="39.41977138289025" lon="8.805330127734575"><ele>91.0</ele><time>2026-04-08T09:21:45.001Z</time></trkpt><trkpt lat="39.41963448170001" lon="8.805608558510274"><ele>91.0</ele><time>2026-04-08T09:21:46.001Z</time></trkpt><trkpt lat="39.41949818639368" lon="8.805891286590592"><ele>91.0</ele><time>2026-04-08T09:21:47.001Z</time></trkpt><trkpt lat="39.419361991364575" lon="8.8061771439919"><ele>91.0</ele><time>2026-04-08T09:21:48.001Z</time></trkpt><trkpt lat="39.419224160156446" lon="8.806462785889979"><ele>91.0</ele><time>2026-04-08T09:21:49Z</time></trkpt><trkpt lat="39.419084060156315" lon="8.80674951034312"><ele>91.0</ele><time>2026-04-08T09:21:50Z</time></trkpt><trkpt lat="39.41894316653749" lon="8.807038248030219"><ele>90.0</ele><time>2026-04-08T09:21:51Z</time></trkpt><trkpt lat="39.41880414181614" lon="8.80732567839452"><ele>89.0</ele><time>2026-04-08T09:21:52Z</time></trkpt><trkpt lat="39.41866400303086" lon="8.80761636807526"><ele>89.0</ele><time>2026-04-08T09:21:53Z</time></trkpt><trkpt lat="39.41852314490066" lon="8.807906452271288"><ele>89.0</ele><time>2026-04-08T09:21:54Z</time></trkpt><trkpt lat="39.418383874662496" lon="8.80819524795527"><ele>89.0</ele><time>2026-04-08T09:21:55Z</time></trkpt><trkpt lat="39.41824348636149" lon="8.808483848133603"><ele>89.0</ele><time>2026-04-08T09:21:56Z</time></trkpt><trkpt lat="39.418101696890005" lon="8.808771695609208"><ele>88.5</ele><time>2026-04-08T09:21:57Z</time></trkpt><trkpt lat="39.417959481814975" lon="8.809062979072257"><ele>88.0</ele><time>2026-04-08T09:21:58Z</time></trkpt><trkpt lat="39.417818703409296" lon="8.809353466416901"><ele>87.5</ele><time>2026-04-08T09:21:59Z</time></trkpt><trkpt lat="39.417678889807284" lon="8.809644044260418"><ele>87.0</ele><time>2026-04-08T09:22:00Z</time></trkpt><trkpt lat="39.41753879967371" lon="8.809931652279603"><ele>87.0</ele><time>2026-04-08T09:22:01Z</time></trkpt><trkpt lat="39.41740000314012" lon="8.81021772003883"><ele>87.0</ele><time>2026-04-08T09:22:02Z</time></trkpt><trkpt lat="39.417266721790426" lon="8.810505337434865"><ele>87.0</ele><time>2026-04-08T09:22:03Z</time></trkpt><trkpt lat="39.41715770811782" lon="8.810805118703486"><ele>87.0</ele><time>2026-04-08T09:22:04Z</time></trkpt><trkpt lat="39.41705794693856" lon="8.811128347090408"><ele>86.0</ele><time>2026-04-08T09:22:05Z</time></trkpt><trkpt lat="39.41696121866802" lon="8.811452923955466"><ele>85.0</ele><time>2026-04-08T09:22:06Z</time></trkpt><trkpt lat="39.41686808605051" lon="8.811776722196983"><ele>84.5</ele><time>2026-04-08T09:22:07Z</time></trkpt><trkpt lat="39.41677614109251" lon="8.812091940955906"><ele>84.0</ele><time>2026-04-08T09:22:08Z</time></trkpt><trkpt lat="39.41668696809916" lon="8.812400755687325"><ele>84.5</ele><time>2026-04-08T09:22:09Z</time></trkpt><trkpt lat="39.41659912296074" lon="8.81271072687474"><ele>85.0</ele><time>2026-04-08T09:22:10Z</time></trkpt><trkpt lat="39.416516004814355" lon="8.813019323028682"><ele>85.0</ele><time>2026-04-08T09:22:11Z</time></trkpt><trkpt lat="39.41643532732004" lon="8.813316753138926"><ele>85.0</ele><time>2026-04-08T09:22:12Z</time></trkpt><trkpt lat="39.41635611492188" lon="8.813604903884796"><ele>84.5</ele><time>2026-04-08T09:22:13Z</time></trkpt><trkpt lat="39.416275010470784" lon="8.81388485082283"><ele>84.0</ele><time>2026-04-08T09:22:14Z</time></trkpt><trkpt lat="39.416196820613344" lon="8.814158124145923"><ele>83.0</ele><time>2026-04-08T09:22:15Z</time></trkpt><trkpt lat="39.41612059887943" lon="8.814433179520702"><ele>82.0</ele><time>2026-04-08T09:22:16Z</time></trkpt><trkpt lat="39.416043383503435" lon="8.814706482865178"><ele>82.0</ele><time>2026-04-08T09:22:17Z</time></trkpt><trkpt lat="39.41596116096873" lon="8.814980120961692"><ele>82.0</ele><time>2026-04-08T09:22:18Z</time></trkpt><trkpt lat="39.41588381980794" lon="8.815257759945343"><ele>82.0</ele><time>2026-04-08T09:22:19Z</time></trkpt><trkpt lat="39.41580823083652" lon="8.815532877501736"><ele>82.0</ele><time>2026-04-08T09:22:20Z</time></trkpt><trkpt lat="39.415732919486445" lon="8.815792379110269"><ele>82.0</ele><time>2026-04-08T09:22:21Z</time></trkpt><trkpt lat="39.41566634833819" lon="8.816030162146879"><ele>82.0</ele><time>2026-04-08T09:22:22Z</time></trkpt><trkpt lat="39.41560354040775" lon="8.816252332627672"><ele>82.0</ele><time>2026-04-08T09:22:23Z</time></trkpt><trkpt lat="39.415544450586935" lon="8.816452539209893"><ele>82.0</ele><time>2026-04-08T09:22:24Z</time></trkpt><trkpt lat="39.41549180285729" lon="8.816638509833009"><ele>82.0</ele><time>2026-04-08T09:22:25Z</time></trkpt><trkpt lat="39.415435835771916" lon="8.816788808430172"><ele>82.0</ele><time>2026-04-08T09:22:26Z</time></trkpt><trkpt lat="39.415374477141384" lon="8.816910649473268"><ele>82.0</ele><time>2026-04-08T09:22:27Z</time></trkpt><trkpt lat="39.415304013234376" lon="8.817009764149175"><ele>82.0</ele><time>2026-04-08T09:22:27.999Z</time></trkpt><trkpt lat="39.41523490504702" lon="8.81709076933174"><ele>82.0</ele><time>2026-04-08T09:22:28.999Z</time></trkpt><trkpt lat="39.41519576531667" lon="8.817196239964842"><ele>82.0</ele><time>2026-04-08T09:22:29.999Z</time></trkpt><trkpt lat="39.415194254185536" lon="8.817316309732295"><ele>82.0</ele><time>2026-04-08T09:22:30.999Z</time></trkpt><trkpt lat="39.415209800731056" lon="8.817445626985885"><ele>82.0</ele><time>2026-04-08T09:22:31.999Z</time></trkpt><trkpt lat="39.41521477700097" lon="8.817591167156207"><ele>82.0</ele><time>2026-04-08T09:22:32.999Z</time></trkpt><trkpt lat="39.41518805034614" lon="8.817752121924388"><ele>82.0</ele><time>2026-04-08T09:22:33.999Z</time></trkpt><trkpt lat="39.41514098656009" lon="8.817919364579119"><ele>81.66666666666666</ele><time>2026-04-08T09:22:34.999Z</time></trkpt><trkpt lat="39.41508638354791" lon="8.818087306124314"><ele>81.33333333333333</ele><time>2026-04-08T09:22:35.999Z</time></trkpt><trkpt lat="39.41503319239505" lon="8.818277143142414"><ele>81.0</ele><time>2026-04-08T09:22:36.999Z</time></trkpt><trkpt lat="39.41498199011536" lon="8.818474519147582"><ele>80.66666666666667</ele><time>2026-04-08T09:22:37.999Z</time></trkpt><trkpt lat="39.4149265556067" lon="8.818664347338466"><ele>80.33333333333334</ele><time>2026-04-08T09:22:38.999Z</time></trkpt><trkpt lat="39.41486900141774" lon="8.818850005747345"><ele>80.0</ele><time>2026-04-08T09:22:39.999Z</time></trkpt><trkpt lat="39.41481626900928" lon="8.81904053891138"><ele>80.0</ele><time>2026-04-08T09:22:40.999Z</time></trkpt><trkpt lat="39.414757745092174" lon="8.81925844000085"><ele>80.0</ele><time>2026-04-08T09:22:41.999Z</time></trkpt><trkpt lat="39.414685886960804" lon="8.819503381823994"><ele>80.0</ele><time>2026-04-08T09:22:42.999Z</time></trkpt><trkpt lat="39.41461437365621" lon="8.819747676407216"><ele>79.66666666666667</ele><time>2026-04-08T09:22:43.999Z</time></trkpt><trkpt lat="39.41455526069742" lon="8.819966216399818"><ele>79.33333333333333</ele><time>2026-04-08T09:22:44.999Z</time></trkpt><trkpt lat="39.41450004385072" lon="8.820164687671562"><ele>79.0</ele><time>2026-04-08T09:22:45.999Z</time></trkpt><trkpt lat="39.41444240787584" lon="8.820358617518849"><ele>79.0</ele><time>2026-04-08T09:22:46.999Z</time></trkpt><trkpt lat="39.414387103295915" lon="8.820557235096167"><ele>79.0</ele><time>2026-04-08T09:22:47.999Z</time></trkpt><trkpt lat="39.4143293458857" lon="8.820762371261033"><ele>79.0</ele><time>2026-04-08T09:22:48.999Z</time></trkpt><trkpt lat="39.414268337667885" lon="8.820973795481853"><ele>78.66666666666666</ele><time>2026-04-08T09:22:49.999Z</time></trkpt><trkpt lat="39.41421070926041" lon="8.821194156823035"><ele>78.33333333333333</ele><time>2026-04-08T09:22:50.999Z</time></trkpt><trkpt lat="39.41415176130732" lon="8.82140908492612"><ele>78.0</ele><time>2026-04-08T09:22:51.999Z</time></trkpt><trkpt lat="39.41408923812573" lon="8.82161581684096"><ele>78.0</ele><time>2026-04-08T09:22:52.999Z</time></trkpt><trkpt lat="39.41403240733558" lon="8.821808229517346"><ele>78.0</ele><time>2026-04-08T09:22:53.999Z</time></trkpt><trkpt lat="39.41397640767254" lon="8.822003487797891"><ele>78.0</ele><time>2026-04-08T09:22:54.999Z</time></trkpt><trkpt lat="39.41392342823249" lon="8.822205192447015"><ele>77.66666666666667</ele><time>2026-04-08T09:22:55.999Z</time></trkpt><trkpt lat="39.413870314750746" lon="8.822393843170765"><ele>77.33333333333334</ele><time>2026-04-08T09:22:56.999Z</time></trkpt><trkpt lat="39.41381758458142" lon="8.822577755837983"><ele>77.0</ele><time>2026-04-08T09:22:57.999Z</time></trkpt><trkpt lat="39.41376448590545" lon="8.822759830671886"><ele>76.25</ele><time>2026-04-08T09:22:58.999Z</time></trkpt><trkpt lat="39.413716530965694" lon="8.822929441122442"><ele>75.5</ele><time>2026-04-08T09:22:59.999Z</time></trkpt><trkpt lat="39.413670295113015" lon="8.823092623491052"><ele>74.75</ele><time>2026-04-08T09:23:00.999Z</time></trkpt><trkpt lat="39.41362742647754" lon="8.823253304059367"><ele>74.0</ele><time>2026-04-08T09:23:01.999Z</time></trkpt><trkpt lat="39.41358403653585" lon="8.8234050566518"><ele>74.2</ele><time>2026-04-08T09:23:02.999Z</time></trkpt><trkpt lat="39.413543224050144" lon="8.823549629752168"><ele>74.4</ele><time>2026-04-08T09:23:03.999Z</time></trkpt><trkpt lat="39.41351137395946" lon="8.823665848719775"><ele>74.6</ele><time>2026-04-08T09:23:04.999Z</time></trkpt><trkpt lat="39.41348302401697" lon="8.823748349222818"><ele>74.8</ele><time>2026-04-08T09:23:05.999Z</time></trkpt><trkpt lat="39.41341074067838" lon="8.823863748989464"><ele>75.0</ele><time>2026-04-08T09:23:07.999Z</time></trkpt><trkpt lat="39.413348151242936" lon="8.823911631928912"><ele>75.0</ele><time>2026-04-08T09:23:08.999Z</time></trkpt><trkpt lat="39.41326649613917" lon="8.823937956077941"><ele>75.0</ele><time>2026-04-08T09:23:09.999Z</time></trkpt><trkpt lat="39.41317360097454" lon="8.823935892426409"><ele>75.0</ele><time>2026-04-08T09:23:10.998Z</time></trkpt><trkpt lat="39.413056047588064" lon="8.82389368498949"><ele>75.0</ele><time>2026-04-08T09:23:11.998Z</time></trkpt><trkpt lat="39.41291171290703" lon="8.823816071235068"><ele>74.66666666666667</ele><time>2026-04-08T09:23:12.998Z</time></trkpt><trkpt lat="39.41275701631074" lon="8.823733042292057"><ele>74.33333333333334</ele><time>2026-04-08T09:23:13.998Z</time></trkpt><trkpt lat="39.412604465299985" lon="8.82365188379799"><ele>74.0</ele><time>2026-04-08T09:23:14.998Z</time></trkpt><trkpt lat="39.412458117086224" lon="8.8235680908996"><ele>74.0</ele><time>2026-04-08T09:23:15.998Z</time></trkpt><trkpt lat="39.412296858569334" lon="8.823460613317316"><ele>74.0</ele><time>2026-04-08T09:23:16.998Z</time></trkpt><trkpt lat="39.412099253343264" lon="8.823347310903717"><ele>74.0</ele><time>2026-04-08T09:23:17.998Z</time></trkpt><trkpt lat="39.41188175556699" lon="8.823222602552017"><ele>74.5</ele><time>2026-04-08T09:23:18.998Z</time></trkpt><trkpt lat="39.41163930699702" lon="8.8231048232854"><ele>75.0</ele><time>2026-04-08T09:23:19.998Z</time></trkpt><trkpt lat="39.411393848035935" lon="8.822959580712675"><ele>74.5</ele><time>2026-04-08T09:23:20.998Z</time></trkpt><trkpt lat="39.41113702850101" lon="8.822814863528636"><ele>74.0</ele><time>2026-04-08T09:23:21.998Z</time></trkpt><trkpt lat="39.41086528085273" lon="8.822659905198796"><ele>74.0</ele><time>2026-04-08T09:23:22.998Z</time></trkpt><trkpt lat="39.410583861834965" lon="8.822498537784815"><ele>74.0</ele><time>2026-04-08T09:23:23.998Z</time></trkpt><trkpt lat="39.410301371416594" lon="8.822330505326095"><ele>74.0</ele><time>2026-04-08T09:23:24.998Z</time></trkpt><trkpt lat="39.4100167491626" lon="8.822163245995029"><ele>74.0</ele><time>2026-04-08T09:23:25.998Z</time></trkpt><trkpt lat="39.40972539863646" lon="8.82200101463083"><ele>73.5</ele><time>2026-04-08T09:23:26.998Z</time></trkpt><trkpt lat="39.40943242429953" lon="8.821837377574145"><ele>73.0</ele><time>2026-04-08T09:23:27.998Z</time></trkpt><trkpt lat="39.409142516279346" lon="8.821670195180731"><ele>74.0</ele><time>2026-04-08T09:23:28.998Z</time></trkpt><trkpt lat="39.408855062809764" lon="8.821504894990706"><ele>75.0</ele><time>2026-04-08T09:23:29.998Z</time></trkpt><trkpt lat="39.40856788270595" lon="8.821337600919916"><ele>75.0</ele><time>2026-04-08T09:23:30.998Z</time></trkpt><trkpt lat="39.40827730122237" lon="8.821169708473168"><ele>75.0</ele><time>2026-04-08T09:23:31.998Z</time></trkpt><trkpt lat="39.407988016108376" lon="8.82100489000049"><ele>75.0</ele><time>2026-04-08T09:23:32.998Z</time></trkpt><trkpt lat="39.40768572965278" lon="8.820833063759121"><ele>75.0</ele><time>2026-04-08T09:23:33.998Z</time></trkpt><trkpt lat="39.40737348808989" lon="8.820632701471402"><ele>74.5</ele><time>2026-04-08T09:23:34.998Z</time></trkpt><trkpt lat="39.40703858483041" lon="8.820441675158662"><ele>74.0</ele><time>2026-04-08T09:23:35.998Z</time></trkpt><trkpt lat="39.406770756115954" lon="8.82030707349006"><ele>74.5</ele><time>2026-04-08T09:23:37.001Z</time></trkpt><trkpt lat="39.406455672918" lon="8.82012142317909"><ele>75.0</ele><time>2026-04-08T09:23:38.001Z</time></trkpt><trkpt lat="39.4061407492537" lon="8.819939104169158"><ele>74.0</ele><time>2026-04-08T09:23:39.001Z</time></trkpt><trkpt lat="39.40582316509031" lon="8.81976238452384"><ele>73.0</ele><time>2026-04-08T09:23:40.001Z</time></trkpt><trkpt lat="39.40550617533909" lon="8.819574327313752"><ele>72.5</ele><time>2026-04-08T09:23:41.001Z</time></trkpt><trkpt lat="39.4051944377309" lon="8.8193959830699"><ele>72.0</ele><time>2026-04-08T09:23:42.001Z</time></trkpt><trkpt lat="39.40487515334301" lon="8.81921619734649"><ele>73.0</ele><time>2026-04-08T09:23:43.001Z</time></trkpt><trkpt lat="39.40457564601787" lon="8.81904556047457"><ele>74.0</ele><time>2026-04-08T09:23:44.001Z</time></trkpt><trkpt lat="39.40431340664751" lon="8.818888662623472"><ele>74.0</ele><time>2026-04-08T09:23:45.001Z</time></trkpt><trkpt lat="39.40404814742776" lon="8.818750794303877"><ele>74.0</ele><time>2026-04-08T09:23:46.001Z</time></trkpt><trkpt lat="39.40374710098832" lon="8.818629591692549"><ele>74.0</ele><time>2026-04-08T09:23:47.001Z</time></trkpt><trkpt lat="39.403425092103184" lon="8.818516993152834"><ele>74.0</ele><time>2026-04-08T09:23:48.001Z</time></trkpt><trkpt lat="39.403100508437504" lon="8.8184110789324"><ele>72.0</ele><time>2026-04-08T09:23:49.001Z</time></trkpt><trkpt lat="39.402784342268966" lon="8.818299753271171"><ele>70.0</ele><time>2026-04-08T09:23:50.001Z</time></trkpt><trkpt lat="39.40246808812184" lon="8.818184078294118"><ele>70.0</ele><time>2026-04-08T09:23:51.001Z</time></trkpt><trkpt lat="39.40214954931045" lon="8.818061855635666"><ele>70.0</ele><time>2026-04-08T09:23:52.001Z</time></trkpt><trkpt lat="39.401833022607825" lon="8.817946350248501"><ele>70.0</ele><time>2026-04-08T09:23:53.001Z</time></trkpt><trkpt lat="39.40151577864723" lon="8.817833613872438"><ele>70.0</ele><time>2026-04-08T09:23:54.001Z</time></trkpt><trkpt lat="39.40120240878558" lon="8.817715115471795"><ele>69.5</ele><time>2026-04-08T09:23:55.001Z</time></trkpt><trkpt lat="39.40088893739739" lon="8.817602913848525"><ele>69.0</ele><time>2026-04-08T09:23:56.001Z</time></trkpt><trkpt lat="39.40058042070438" lon="8.817496321973572"><ele>70.5</ele><time>2026-04-08T09:23:57.001Z</time></trkpt><trkpt lat="39.40027602096638" lon="8.81738537854953"><ele>72.0</ele><time>2026-04-08T09:23:58Z</time></trkpt><trkpt lat="39.39997387118005" lon="8.817272496084875"><ele>72.0</ele><time>2026-04-08T09:23:59Z</time></trkpt><trkpt lat="39.399679058347715" lon="8.817167693478892"><ele>72.0</ele><time>2026-04-08T09:24:00Z</time></trkpt><trkpt lat="39.399382246099776" lon="8.817065195032944"><ele>73.0</ele><time>2026-04-08T09:24:01Z</time></trkpt><trkpt lat="39.399091547427474" lon="8.816957911350553"><ele>74.0</ele><time>2026-04-08T09:24:02Z</time></trkpt><trkpt lat="39.39880696150687" lon="8.816848887691926"><ele>74.0</ele><time>2026-04-08T09:24:03Z</time></trkpt><trkpt lat="39.39855422633631" lon="8.816751961182966"><ele>74.0</ele><time>2026-04-08T09:24:04Z</time></trkpt><trkpt lat="39.39832089590661" lon="8.816672642328898"><ele>74.0</ele><time>2026-04-08T09:24:05Z</time></trkpt><trkpt lat="39.39806303353321" lon="8.816632315273996"><ele>74.0</ele><time>2026-04-08T09:24:06Z</time></trkpt><trkpt lat="39.39778218424932" lon="8.81662285334038"><ele>73.5</ele><time>2026-04-08T09:24:07Z</time></trkpt><trkpt lat="39.3974841565333" lon="8.816616125422762"><ele>73.0</ele><time>2026-04-08T09:24:08Z</time></trkpt><trkpt lat="39.397170844396136" lon="8.81660315232748"><ele>72.5</ele><time>2026-04-08T09:24:09Z</time></trkpt><trkpt lat="39.39684334926313" lon="8.816588739345915"><ele>72.0</ele><time>2026-04-08T09:24:10Z</time></trkpt><trkpt lat="39.39651920071072" lon="8.816572885920898"><ele>71.5</ele><time>2026-04-08T09:24:11Z</time></trkpt><trkpt lat="39.3961867358525" lon="8.816555829016481"><ele>71.0</ele><time>2026-04-08T09:24:12Z</time></trkpt><trkpt lat="39.39586470952874" lon="8.816533086723375"><ele>71.0</ele><time>2026-04-08T09:24:13Z</time></trkpt><trkpt lat="39.395555540484494" lon="8.816514520616792"><ele>71.0</ele><time>2026-04-08T09:24:14Z</time></trkpt><trkpt lat="39.39525866268196" lon="8.816502493998915"><ele>72.0</ele><time>2026-04-08T09:24:15Z</time></trkpt><trkpt lat="39.394951179853415" lon="8.816487322554805"><ele>73.0</ele><time>2026-04-08T09:24:16Z</time></trkpt><trkpt lat="39.39464533423801" lon="8.816469655989303"><ele>74.0</ele><time>2026-04-08T09:24:17Z</time></trkpt><trkpt lat="39.3943411139985" lon="8.816452456429104"><ele>75.0</ele><time>2026-04-08T09:24:18Z</time></trkpt><trkpt lat="39.39403694236868" lon="8.816434424893027"><ele>73.0</ele><time>2026-04-08T09:24:19Z</time></trkpt><trkpt lat="39.39373371366748" lon="8.816416297780753"><ele>71.0</ele><time>2026-04-08T09:24:20Z</time></trkpt><trkpt lat="39.393447034196726" lon="8.816398315514894"><ele>71.0</ele><time>2026-04-08T09:24:21Z</time></trkpt><trkpt lat="39.39318754669297" lon="8.816381680256688"><ele>71.0</ele><time>2026-04-08T09:24:22Z</time></trkpt><trkpt lat="39.3929476656621" lon="8.81636852084247"><ele>71.33333333333334</ele><time>2026-04-08T09:24:23Z</time></trkpt><trkpt lat="39.39272868639462" lon="8.816359780825831"><ele>71.66666666666667</ele><time>2026-04-08T09:24:24Z</time></trkpt><trkpt lat="39.392516552923375" lon="8.816343381976187"><ele>72.0</ele><time>2026-04-08T09:24:25Z</time></trkpt><trkpt lat="39.392295339616716" lon="8.816286843980103"><ele>71.5</ele><time>2026-04-08T09:24:26Z</time></trkpt><trkpt lat="39.39204883057005" lon="8.816197018350126"><ele>71.0</ele><time>2026-04-08T09:24:27Z</time></trkpt><trkpt lat="39.39177162061617" lon="8.816091085678968"><ele>71.0</ele><time>2026-04-08T09:24:28Z</time></trkpt><trkpt lat="39.39148248582297" lon="8.815986896774536"><ele>71.0</ele><time>2026-04-08T09:24:29Z</time></trkpt><trkpt lat="39.39118884736693" lon="8.815865071024135"><ele>68.0</ele><time>2026-04-08T09:24:30Z</time></trkpt><trkpt lat="39.390892759297564" lon="8.815734507597288"><ele>65.0</ele><time>2026-04-08T09:24:31Z</time></trkpt><trkpt lat="39.390619812880686" lon="8.815624405656987"><ele>65.0</ele><time>2026-04-08T09:24:32Z</time></trkpt><trkpt lat="39.390355371249065" lon="8.815526128195492"><ele>65.0</ele><time>2026-04-08T09:24:33Z</time></trkpt><trkpt lat="39.39010239487303" lon="8.81543138682866"><ele>65.0</ele><time>2026-04-08T09:24:34Z</time></trkpt><trkpt lat="39.38987570875746" lon="8.815340126849431"><ele>65.0</ele><time>2026-04-08T09:24:35Z</time></trkpt><trkpt lat="39.38966927456288" lon="8.815261124126165"><ele>67.66666666666667</ele><time>2026-04-08T09:24:35.999Z</time></trkpt><trkpt lat="39.38947817759015" lon="8.815194039380149"><ele>70.33333333333333</ele><time>2026-04-08T09:24:36.999Z</time></trkpt><trkpt lat="39.38933457343954" lon="8.815124450826303"><ele>73.0</ele><time>2026-04-08T09:24:37.999Z</time></trkpt><trkpt lat="39.38921455757254" lon="8.815011580482686"><ele>73.0</ele><time>2026-04-08T09:24:38.999Z</time></trkpt><trkpt lat="39.3891362471201" lon="8.814856562965458"><ele>73.0</ele><time>2026-04-08T09:24:39.999Z</time></trkpt><trkpt lat="39.389089000642784" lon="8.814651156666272"><ele>73.0</ele><time>2026-04-08T09:24:40.999Z</time></trkpt><trkpt lat="39.38906274956449" lon="8.814417250776321"><ele>72.33333333333333</ele><time>2026-04-08T09:24:41.999Z</time></trkpt><trkpt lat="39.38901911541606" lon="8.814182528742961"><ele>71.66666666666667</ele><time>2026-04-08T09:24:42.999Z</time></trkpt><trkpt lat="39.38893981452342" lon="8.813977263325297"><ele>71.0</ele><time>2026-04-08T09:24:43.999Z</time></trkpt><trkpt lat="39.38885663440558" lon="8.813805321024473"><ele>74.0</ele><time>2026-04-08T09:24:44.999Z</time></trkpt><trkpt lat="39.38876603186134" lon="8.813664415620645"><ele>77.0</ele><time>2026-04-08T09:24:45.999Z</time></trkpt><trkpt lat="39.38864269429402" lon="8.813584252953575"><ele>80.0</ele><time>2026-04-08T09:24:46.999Z</time></trkpt><trkpt lat="39.388500088432345" lon="8.81356735133602"><ele>83.0</ele><time>2026-04-08T09:24:47.999Z</time></trkpt><trkpt lat="39.38834969710867" lon="8.81361445760334"><ele>83.0</ele><time>2026-04-08T09:24:48.999Z</time></trkpt><trkpt lat="39.38819839232015" lon="8.81372916635201"><ele>83.0</ele><time>2026-04-08T09:24:49.999Z</time></trkpt><trkpt lat="39.3880509258605" lon="8.813870993832953"><ele>83.0</ele><time>2026-04-08T09:24:50.999Z</time></trkpt><trkpt lat="39.38790191919264" lon="8.813962123907897"><ele>84.0</ele><time>2026-04-08T09:24:51.999Z</time></trkpt><trkpt lat="39.38773397713178" lon="8.813953513937369"><ele>85.0</ele><time>2026-04-08T09:24:52.999Z</time></trkpt><trkpt lat="39.3875597975281" lon="8.813892860435274"><ele>86.0</ele><time>2026-04-08T09:24:53.999Z</time></trkpt><trkpt lat="39.38738940070601" lon="8.81378135710174"><ele>86.0</ele><time>2026-04-08T09:24:54.999Z</time></trkpt><trkpt lat="39.387215437819" lon="8.813606677513912"><ele>86.0</ele><time>2026-04-08T09:24:55.999Z</time></trkpt><trkpt lat="39.38702744672725" lon="8.813428460717786"><ele>87.5</ele><time>2026-04-08T09:24:56.999Z</time></trkpt><trkpt lat="39.386827360381886" lon="8.813232439546656"><ele>89.0</ele><time>2026-04-08T09:24:57.999Z</time></trkpt><trkpt lat="39.38662794212027" lon="8.813022814345583"><ele>89.0</ele><time>2026-04-08T09:24:58.999Z</time></trkpt><trkpt lat="39.38644691313526" lon="8.812840914938699"><ele>89.0</ele><time>2026-04-08T09:24:59.999Z</time></trkpt><trkpt lat="39.38628192879888" lon="8.812682396877458"><ele>89.0</ele><time>2026-04-08T09:25:00.999Z</time></trkpt><trkpt lat="39.38613183004346" lon="8.81253424566382"><ele>89.33333333333334</ele><time>2026-04-08T09:25:01.999Z</time></trkpt><trkpt lat="39.38599403783694" lon="8.812392288929535"><ele>89.66666666666667</ele><time>2026-04-08T09:25:02.999Z</time></trkpt><trkpt lat="39.38586652087366" lon="8.812262398909816"><ele>90.0</ele><time>2026-04-08T09:25:03.999Z</time></trkpt><trkpt lat="39.38574435567635" lon="8.812142781146708"><ele>90.0</ele><time>2026-04-08T09:25:04.999Z</time></trkpt><trkpt lat="39.385628229356136" lon="8.812026158235886"><ele>90.0</ele><time>2026-04-08T09:25:05.999Z</time></trkpt><trkpt lat="39.38551807629567" lon="8.81191553838346"><ele>90.0</ele><time>2026-04-08T09:25:06.999Z</time></trkpt><trkpt lat="39.385412157211015" lon="8.811807459026907"><ele>90.0</ele><time>2026-04-08T09:25:07.999Z</time></trkpt><trkpt lat="39.38530942153458" lon="8.811696979918525"><ele>89.75</ele><time>2026-04-08T09:25:08.999Z</time></trkpt><trkpt lat="39.38519679709682" lon="8.811578046367112"><ele>89.5</ele><time>2026-04-08T09:25:09.999Z</time></trkpt><trkpt lat="39.38508499253275" lon="8.811463454474202"><ele>89.25</ele><time>2026-04-08T09:25:10.999Z</time></trkpt><trkpt lat="39.38497510995144" lon="8.811355543452372"><ele>89.0</ele><time>2026-04-08T09:25:11.999Z</time></trkpt><trkpt lat="39.38485983042086" lon="8.811248116075086"><ele>89.0</ele><time>2026-04-08T09:25:12.999Z</time></trkpt><trkpt lat="39.38473659473978" lon="8.811131005565016"><ele>89.0</ele><time>2026-04-08T09:25:13.999Z</time></trkpt><trkpt lat="39.38461305715535" lon="8.811002546180653"><ele>89.0</ele><time>2026-04-08T09:25:14.999Z</time></trkpt><trkpt lat="39.38449217296138" lon="8.810875087237296"><ele>87.33333333333334</ele><time>2026-04-08T09:25:15.999Z</time></trkpt><trkpt lat="39.38437013583149" lon="8.810748055266318"><ele>85.66666666666667</ele><time>2026-04-08T09:25:16.998Z</time></trkpt><trkpt lat="39.38425165937065" lon="8.810625856188167"><ele>84.0</ele><time>2026-04-08T09:25:17.998Z</time></trkpt><trkpt lat="39.384125110610505" lon="8.810507571310282"><ele>84.0</ele><time>2026-04-08T09:25:18.998Z</time></trkpt><trkpt lat="39.3839899478642" lon="8.810404658699248"><ele>84.0</ele><time>2026-04-08T09:25:19.998Z</time></trkpt><trkpt lat="39.383847591315245" lon="8.810321351001297"><ele>84.0</ele><time>2026-04-08T09:25:20.998Z</time></trkpt><trkpt lat="39.3837018419629" lon="8.810258004432512"><ele>84.66666666666667</ele><time>2026-04-08T09:25:21.998Z</time></trkpt><trkpt lat="39.3835523013499" lon="8.810206933613005"><ele>85.33333333333334</ele><time>2026-04-08T09:25:22.998Z</time></trkpt><trkpt lat="39.383404352801435" lon="8.810174920181396"><ele>86.0</ele><time>2026-04-08T09:25:23.998Z</time></trkpt><trkpt lat="39.38325901264183" lon="8.810143703213157"><ele>86.25</ele><time>2026-04-08T09:25:24.998Z</time></trkpt><trkpt lat="39.38311341565288" lon="8.81010890070446"><ele>86.5</ele><time>2026-04-08T09:25:25.998Z</time></trkpt><trkpt lat="39.38297141052395" lon="8.81007524612956"><ele>86.75</ele><time>2026-04-08T09:25:26.998Z</time></trkpt><trkpt lat="39.38282923977639" lon="8.810036511628748"><ele>87.0</ele><time>2026-04-08T09:25:27.998Z</time></trkpt><trkpt lat="39.3826894996965" lon="8.810000385205178"><ele>87.25</ele><time>2026-04-08T09:25:28.998Z</time></trkpt><trkpt lat="39.38255167015879" lon="8.809961128385979"><ele>87.5</ele><time>2026-04-08T09:25:29.998Z</time></trkpt><trkpt lat="39.38240575348123" lon="8.809925731329793"><ele>87.75</ele><time>2026-04-08T09:25:30.998Z</time></trkpt><trkpt lat="39.382262362503276" lon="8.809891421235164"><ele>88.0</ele><time>2026-04-08T09:25:31.998Z</time></trkpt><trkpt lat="39.382124070097255" lon="8.809855792086953"><ele>87.5</ele><time>2026-04-08T09:25:32.998Z</time></trkpt><trkpt lat="39.38198368910489" lon="8.809816234269713"><ele>87.0</ele><time>2026-04-08T09:25:33.998Z</time></trkpt><trkpt lat="39.381844728025186" lon="8.80978100516909"><ele>86.5</ele><time>2026-04-08T09:25:34.998Z</time></trkpt><trkpt lat="39.3817063224426" lon="8.809747129263613"><ele>86.0</ele><time>2026-04-08T09:25:35.998Z</time></trkpt><trkpt lat="39.3815691432457" lon="8.809706088929733"><ele>86.0</ele><time>2026-04-08T09:25:36.998Z</time></trkpt><trkpt lat="39.38142584128939" lon="8.809668924664154"><ele>86.0</ele><time>2026-04-08T09:25:37.998Z</time></trkpt><trkpt lat="39.381281983273354" lon="8.809637306074466"><ele>86.0</ele><time>2026-04-08T09:25:38.998Z</time></trkpt><trkpt lat="39.381138687077396" lon="8.809603187002804"><ele>86.0</ele><time>2026-04-08T09:25:39.998Z</time></trkpt><trkpt lat="39.38099178228797" lon="8.809564181362807"><ele>85.5</ele><time>2026-04-08T09:25:40.998Z</time></trkpt><trkpt lat="39.38085535181393" lon="8.809530653067501"><ele>85.0</ele><time>2026-04-08T09:25:41.998Z</time></trkpt><trkpt lat="39.38071609813524" lon="8.80949512335365"><ele>84.5</ele><time>2026-04-08T09:25:43.001Z</time></trkpt><trkpt lat="39.38057771505695" lon="8.809453878531269"><ele>84.0</ele><time>2026-04-08T09:25:44.001Z</time></trkpt><trkpt lat="39.38043875292448" lon="8.80940677494321"><ele>84.0</ele><time>2026-04-08T09:25:45.001Z</time></trkpt><trkpt lat="39.38030480263237" lon="8.809351783259133"><ele>84.0</ele><time>2026-04-08T09:25:46.001Z</time></trkpt><trkpt lat="39.38018108626836" lon="8.809276043244845"><ele>84.0</ele><time>2026-04-08T09:25:47.001Z</time></trkpt><trkpt lat="39.380060638005915" lon="8.809170449283993"><ele>84.0</ele><time>2026-04-08T09:25:48.001Z</time></trkpt><trkpt lat="39.37995536729274" lon="8.809040634131625"><ele>83.5</ele><time>2026-04-08T09:25:49.001Z</time></trkpt><trkpt lat="39.37985934908051" lon="8.80889594271924"><ele>83.0</ele><time>2026-04-08T09:25:50.001Z</time></trkpt><trkpt lat="39.37977435859955" lon="8.808748532465561"><ele>82.5</ele><time>2026-04-08T09:25:51.001Z</time></trkpt><trkpt lat="39.379680487383325" lon="8.808616361173286"><ele>82.0</ele><time>2026-04-08T09:25:52.001Z</time></trkpt><trkpt lat="39.379568318748554" lon="8.808491545838299"><ele>79.33333333333333</ele><time>2026-04-08T09:25:53.001Z</time></trkpt><trkpt lat="39.37943415208646" lon="8.808376014653119"><ele>76.66666666666667</ele><time>2026-04-08T09:25:54.001Z</time></trkpt><trkpt lat="39.37928872180475" lon="8.808274840406536"><ele>74.0</ele><time>2026-04-08T09:25:55.001Z</time></trkpt><trkpt lat="39.37913516073525" lon="8.808185583029497"><ele>74.0</ele><time>2026-04-08T09:25:56.001Z</time></trkpt><trkpt lat="39.378988862515214" lon="8.808096666998228"><ele>74.0</ele><time>2026-04-08T09:25:57.001Z</time></trkpt><trkpt lat="39.37885631949779" lon="8.80801020783006"><ele>74.0</ele><time>2026-04-08T09:25:58.001Z</time></trkpt><trkpt lat="39.37872733198488" lon="8.807925826998297"><ele>73.75</ele><time>2026-04-08T09:25:59.001Z</time></trkpt><trkpt lat="39.378592778447256" lon="8.807842767248827"><ele>73.5</ele><time>2026-04-08T09:26:00.001Z</time></trkpt><trkpt lat="39.378457672521975" lon="8.807757307906806"><ele>73.25</ele><time>2026-04-08T09:26:01.001Z</time></trkpt><trkpt lat="39.3783242332336" lon="8.807670917005003"><ele>73.0</ele><time>2026-04-08T09:26:02.001Z</time></trkpt><trkpt lat="39.37820363797118" lon="8.807594927070141"><ele>73.5</ele><time>2026-04-08T09:26:03.001Z</time></trkpt><trkpt lat="39.37808792773636" lon="8.807523595031203"><ele>74.0</ele><time>2026-04-08T09:26:04Z</time></trkpt><trkpt lat="39.37795734813301" lon="8.80744103490191"><ele>74.5</ele><time>2026-04-08T09:26:05Z</time></trkpt><trkpt lat="39.37782608773334" lon="8.807352211117838"><ele>75.0</ele><time>2026-04-08T09:26:06Z</time></trkpt><trkpt lat="39.37769713340043" lon="8.807269667795492"><ele>75.33333333333333</ele><time>2026-04-08T09:26:07Z</time></trkpt><trkpt lat="39.37755036817343" lon="8.807166301621649"><ele>75.66666666666666</ele><time>2026-04-08T09:26:08Z</time></trkpt><trkpt lat="39.37736443967439" lon="8.807046430719335"><ele>76.0</ele><time>2026-04-08T09:26:09Z</time></trkpt><trkpt lat="39.37716503394383" lon="8.806917671625216"><ele>76.5</ele><time>2026-04-08T09:26:10Z</time></trkpt><trkpt lat="39.376946512151356" lon="8.806782881437869"><ele>77.0</ele><time>2026-04-08T09:26:11Z</time></trkpt><trkpt lat="39.37674360143967" lon="8.806653812595712"><ele>77.0</ele><time>2026-04-08T09:26:12Z</time></trkpt><trkpt lat="39.37654889136054" lon="8.806535550139596"><ele>77.0</ele><time>2026-04-08T09:26:13Z</time></trkpt><trkpt lat="39.37635266555273" lon="8.806412667723832"><ele>77.0</ele><time>2026-04-08T09:26:14Z</time></trkpt><trkpt lat="39.37615501070655" lon="8.80628148700522"><ele>77.0</ele><time>2026-04-08T09:26:15Z</time></trkpt><trkpt lat="39.37596611335747" lon="8.806155136777388"><ele>77.0</ele><time>2026-04-08T09:26:16Z</time></trkpt><trkpt lat="39.37577369737652" lon="8.80603018447324"><ele>77.0</ele><time>2026-04-08T09:26:17Z</time></trkpt><trkpt lat="39.3755749921057" lon="8.805901368726232"><ele>77.0</ele><time>2026-04-08T09:26:18Z</time></trkpt><trkpt lat="39.37538440058325" lon="8.805778723214239"><ele>77.0</ele><time>2026-04-08T09:26:19Z</time></trkpt><trkpt lat="39.37520976803225" lon="8.8056669495924"><ele>77.0</ele><time>2026-04-08T09:26:20Z</time></trkpt><trkpt lat="39.37503685749356" lon="8.805556244262508"><ele>77.0</ele><time>2026-04-08T09:26:21Z</time></trkpt><trkpt lat="39.37486875632064" lon="8.805447835525332"><ele>77.0</ele><time>2026-04-08T09:26:22Z</time></trkpt><trkpt lat="39.37469852152833" lon="8.80533786500212"><ele>77.0</ele><time>2026-04-08T09:26:23Z</time></trkpt><trkpt lat="39.37453225138977" lon="8.805230559836511"><ele>78.0</ele><time>2026-04-08T09:26:24Z</time></trkpt><trkpt lat="39.37436696233552" lon="8.805122214920212"><ele>79.0</ele><time>2026-04-08T09:26:25Z</time></trkpt><trkpt lat="39.37420628323226" lon="8.805020598246298"><ele>80.0</ele><time>2026-04-08T09:26:26Z</time></trkpt><trkpt lat="39.3740516932043" lon="8.804925519193809"><ele>80.0</ele><time>2026-04-08T09:26:27Z</time></trkpt><trkpt lat="39.373908018946075" lon="8.804836458767559"><ele>80.0</ele><time>2026-04-08T09:26:28Z</time></trkpt><trkpt lat="39.373766148267755" lon="8.804740579373004"><ele>80.0</ele><time>2026-04-08T09:26:29Z</time></trkpt><trkpt lat="39.37362906797055" lon="8.80464886028941"><ele>79.33333333333334</ele><time>2026-04-08T09:26:30Z</time></trkpt><trkpt lat="39.37349228945245" lon="8.804561614785952"><ele>78.66666666666667</ele><time>2026-04-08T09:26:31Z</time></trkpt><trkpt lat="39.37334215252235" lon="8.804467033053886"><ele>78.0</ele><time>2026-04-08T09:26:32Z</time></trkpt><trkpt lat="39.37318369115" lon="8.804368057655704"><ele>77.66666666666667</ele><time>2026-04-08T09:26:33Z</time></trkpt><trkpt lat="39.373013636815024" lon="8.804253004140888"><ele>77.33333333333334</ele><time>2026-04-08T09:26:34Z</time></trkpt><trkpt lat="39.37283983070612" lon="8.804142370714048"><ele>77.0</ele><time>2026-04-08T09:26:35Z</time></trkpt><trkpt lat="39.3726749576941" lon="8.804041496613296"><ele>77.0</ele><time>2026-04-08T09:26:36Z</time></trkpt><trkpt lat="39.372528021897644" lon="8.803948054084936"><ele>77.0</ele><time>2026-04-08T09:26:37Z</time></trkpt><trkpt lat="39.3723838257042" lon="8.803851435457268"><ele>77.0</ele><time>2026-04-08T09:26:38Z</time></trkpt><trkpt lat="39.372227571618374" lon="8.803749594611897"><ele>76.66666666666667</ele><time>2026-04-08T09:26:39Z</time></trkpt><trkpt lat="39.37207595769937" lon="8.803651629510627"><ele>76.33333333333333</ele><time>2026-04-08T09:26:39.999Z</time></trkpt><trkpt lat="39.37192522367033" lon="8.803555539921422"><ele>76.0</ele><time>2026-04-08T09:26:40.999Z</time></trkpt><trkpt lat="39.37178039114894" lon="8.80346681922534"><ele>76.0</ele><time>2026-04-08T09:26:41.999Z</time></trkpt><trkpt lat="39.37163546787308" lon="8.803377064416013"><ele>76.0</ele><time>2026-04-08T09:26:42.999Z</time></trkpt><trkpt lat="39.37149193303146" lon="8.80328296147098"><ele>76.0</ele><time>2026-04-08T09:26:43.999Z</time></trkpt><trkpt lat="39.371356036334326" lon="8.80319347289669"><ele>76.25</ele><time>2026-04-08T09:26:44.999Z</time></trkpt><trkpt lat="39.371223544017546" lon="8.803106791474905"><ele>76.5</ele><time>2026-04-08T09:26:45.999Z</time></trkpt><trkpt lat="39.37109206173168" lon="8.803027389767855"><ele>76.75</ele><time>2026-04-08T09:26:46.999Z</time></trkpt><trkpt lat="39.370966023898866" lon="8.802941792612154"><ele>77.0</ele><time>2026-04-08T09:26:47.999Z</time></trkpt><trkpt lat="39.37083255887157" lon="8.802854818061789"><ele>77.0</ele><time>2026-04-08T09:26:48.999Z</time></trkpt><trkpt lat="39.370698122120864" lon="8.802773827447744"><ele>77.0</ele><time>2026-04-08T09:26:49.999Z</time></trkpt><trkpt lat="39.370562039798806" lon="8.80270231221976"><ele>77.0</ele><time>2026-04-08T09:26:50.999Z</time></trkpt><trkpt lat="39.370426956810086" lon="8.80263328613843"><ele>77.0</ele><time>2026-04-08T09:26:51.999Z</time></trkpt><trkpt lat="39.37029045246568" lon="8.80256470438301"><ele>76.75</ele><time>2026-04-08T09:26:52.999Z</time></trkpt><trkpt lat="39.37015280020769" lon="8.80250439399005"><ele>76.5</ele><time>2026-04-08T09:26:53.999Z</time></trkpt><trkpt lat="39.370016068082855" lon="8.802440143645713"><ele>76.25</ele><time>2026-04-08T09:26:54.999Z</time></trkpt><trkpt lat="39.36989839990702" lon="8.802365709391719"><ele>76.0</ele><time>2026-04-08T09:26:55.999Z</time></trkpt><trkpt lat="39.3697829508705" lon="8.802315721019525"><ele>75.75</ele><time>2026-04-08T09:26:56.999Z</time></trkpt><trkpt lat="39.36964949028439" lon="8.802259361879077"><ele>75.5</ele><time>2026-04-08T09:26:57.999Z</time></trkpt><trkpt lat="39.3695182595759" lon="8.80219608768481"><ele>75.25</ele><time>2026-04-08T09:26:58.999Z</time></trkpt><trkpt lat="39.36940048266413" lon="8.802127360184581"><ele>75.0</ele><time>2026-04-08T09:26:59.999Z</time></trkpt><trkpt lat="39.36929153177583" lon="8.802082340339723"><ele>75.0</ele><time>2026-04-08T09:27:00.999Z</time></trkpt><trkpt lat="39.36917398811186" lon="8.802028490576175"><ele>75.0</ele><time>2026-04-08T09:27:01.999Z</time></trkpt><trkpt lat="39.3690454830575" lon="8.801961588784268"><ele>75.0</ele><time>2026-04-08T09:27:02.999Z</time></trkpt><trkpt lat="39.3689244517266" lon="8.801899927197972"><ele>75.0</ele><time>2026-04-08T09:27:03.999Z</time></trkpt><trkpt lat="39.368804371440916" lon="8.80184128563755"><ele>75.0</ele><time>2026-04-08T09:27:04.999Z</time></trkpt><trkpt lat="39.36867622223434" lon="8.801784811003243"><ele>75.0</ele><time>2026-04-08T09:27:05.999Z</time></trkpt><trkpt lat="39.36855049568225" lon="8.801720095179668"><ele>75.0</ele><time>2026-04-08T09:27:06.999Z</time></trkpt><trkpt lat="39.36842330164658" lon="8.801657343735629"><ele>75.0</ele><time>2026-04-08T09:27:07.999Z</time></trkpt><trkpt lat="39.36829460456978" lon="8.801595877304049"><ele>75.0</ele><time>2026-04-08T09:27:08.999Z</time></trkpt><trkpt lat="39.36816795118811" lon="8.801533319437961"><ele>75.0</ele><time>2026-04-08T09:27:09.999Z</time></trkpt><trkpt lat="39.36804652554854" lon="8.80147415704027"><ele>75.0</ele><time>2026-04-08T09:27:10.999Z</time></trkpt><trkpt lat="39.36792440564838" lon="8.801418010326111"><ele>75.0</ele><time>2026-04-08T09:27:11.999Z</time></trkpt><trkpt lat="39.367803182198436" lon="8.801361974941141"><ele>74.5</ele><time>2026-04-08T09:27:12.999Z</time></trkpt><trkpt lat="39.367686567094395" lon="8.801303279102115"><ele>74.0</ele><time>2026-04-08T09:27:13.999Z</time></trkpt><trkpt lat="39.36757261436731" lon="8.801248788358665"><ele>73.5</ele><time>2026-04-08T09:27:14.999Z</time></trkpt><trkpt lat="39.367465427332775" lon="8.801198340834242"><ele>73.0</ele><time>2026-04-08T09:27:15.999Z</time></trkpt><trkpt lat="39.36736299060936" lon="8.801151673741726"><ele>73.0</ele><time>2026-04-08T09:27:16.999Z</time></trkpt><trkpt lat="39.36727471236891" lon="8.80110709184139"><ele>73.0</ele><time>2026-04-08T09:27:17.999Z</time></trkpt><trkpt lat="39.367189835951805" lon="8.801066515593618"><ele>73.0</ele><time>2026-04-08T09:27:18.999Z</time></trkpt><trkpt lat="39.367110909097924" lon="8.801027014854261"><ele>73.0</ele><time>2026-04-08T09:27:19.998Z</time></trkpt><trkpt lat="39.367029619567425" lon="8.800988065261194"><ele>73.0</ele><time>2026-04-08T09:27:20.998Z</time></trkpt><trkpt lat="39.36692642065155" lon="8.800938251293601"><ele>73.2</ele><time>2026-04-08T09:27:21.998Z</time></trkpt><trkpt lat="39.3668254292624" lon="8.800885580960013"><ele>73.4</ele><time>2026-04-08T09:27:22.998Z</time></trkpt><trkpt lat="39.36672273727961" lon="8.800831905683552"><ele>73.60000000000001</ele><time>2026-04-08T09:27:23.998Z</time></trkpt><trkpt lat="39.36662486744708" lon="8.800788917682189"><ele>73.8</ele><time>2026-04-08T09:27:24.998Z</time></trkpt><trkpt lat="39.366525971578106" lon="8.800740880198815"><ele>74.0</ele><time>2026-04-08T09:27:25.998Z</time></trkpt><trkpt lat="39.36642579780165" lon="8.80069269284194"><ele>73.8</ele><time>2026-04-08T09:27:26.998Z</time></trkpt><trkpt lat="39.36631903535287" lon="8.80064403022057"><ele>73.60000000000001</ele><time>2026-04-08T09:27:27.998Z</time></trkpt><trkpt lat="39.3662178222655" lon="8.800598977125562"><ele>73.4</ele><time>2026-04-08T09:27:28.998Z</time></trkpt><trkpt lat="39.36611909222661" lon="8.800548029869592"><ele>73.2</ele><time>2026-04-08T09:27:29.998Z</time></trkpt><trkpt lat="39.366027136296466" lon="8.800502858481439"><ele>73.0</ele><time>2026-04-08T09:27:30.998Z</time></trkpt><trkpt lat="39.36593790023295" lon="8.800460578459125"><ele>73.0</ele><time>2026-04-08T09:27:31.998Z</time></trkpt><trkpt lat="39.36585557489596" lon="8.800420478611494"><ele>73.0</ele><time>2026-04-08T09:27:32.998Z</time></trkpt><trkpt lat="39.365771341952396" lon="8.80038154348037"><ele>73.0</ele><time>2026-04-08T09:27:33.998Z</time></trkpt><trkpt lat="39.36568079109515" lon="8.800332331193992"><ele>73.0</ele><time>2026-04-08T09:27:34.998Z</time></trkpt><trkpt lat="39.36558013049718" lon="8.800280763068681"><ele>73.0</ele><time>2026-04-08T09:27:35.998Z</time></trkpt><trkpt lat="39.36547497582466" lon="8.80023090811529"><ele>73.0</ele><time>2026-04-08T09:27:36.998Z</time></trkpt><trkpt lat="39.365370169149585" lon="8.800180831515288"><ele>73.0</ele><time>2026-04-08T09:27:37.998Z</time></trkpt><trkpt lat="39.36526728599049" lon="8.80013201553812"><ele>73.0</ele><time>2026-04-08T09:27:38.998Z</time></trkpt><trkpt lat="39.36516901734993" lon="8.800085304598971"><ele>73.0</ele><time>2026-04-08T09:27:39.998Z</time></trkpt><trkpt lat="39.36507347581673" lon="8.800039784592599"><ele>73.0</ele><time>2026-04-08T09:27:40.998Z</time></trkpt><trkpt lat="39.36497492570729" lon="8.7999907802096"><ele>73.0</ele><time>2026-04-08T09:27:41.998Z</time></trkpt><trkpt lat="39.364877484186835" lon="8.799940645022174"><ele>73.0</ele><time>2026-04-08T09:27:42.998Z</time></trkpt><trkpt lat="39.36478038371546" lon="8.799894436147275"><ele>73.0</ele><time>2026-04-08T09:27:43.998Z</time></trkpt><trkpt lat="39.364681307214454" lon="8.79984795292932"><ele>73.0</ele><time>2026-04-08T09:27:44.998Z</time></trkpt><trkpt lat="39.364581817084556" lon="8.799806576049795"><ele>73.0</ele><time>2026-04-08T09:27:45.998Z</time></trkpt><trkpt lat="39.364482329455356" lon="8.799761072040758"><ele>72.8</ele><time>2026-04-08T09:27:46.998Z</time></trkpt><trkpt lat="39.36438423133422" lon="8.79971154802316"><ele>72.6</ele><time>2026-04-08T09:27:47.998Z</time></trkpt><trkpt lat="39.364292888823634" lon="8.799661853750388"><ele>72.4</ele><time>2026-04-08T09:27:49.001Z</time></trkpt><trkpt lat="39.364208239198334" lon="8.799603990520367"><ele>72.2</ele><time>2026-04-08T09:27:50.001Z</time></trkpt><trkpt lat="39.364126456797706" lon="8.79952669165817"><ele>72.0</ele><time>2026-04-08T09:27:51.001Z</time></trkpt><trkpt lat="39.364048909019196" lon="8.799439595312215"><ele>72.0</ele><time>2026-04-08T09:27:52.001Z</time></trkpt><trkpt lat="39.36397859282848" lon="8.799339721867236"><ele>72.0</ele><time>2026-04-08T09:27:53.001Z</time></trkpt><trkpt lat="39.36391729922742" lon="8.799216003537785"><ele>72.0</ele><time>2026-04-08T09:27:54.001Z</time></trkpt><trkpt lat="39.36384334038619" lon="8.799100537874041"><ele>72.0</ele><time>2026-04-08T09:27:55.001Z</time></trkpt><trkpt lat="39.36376832561971" lon="8.798987449327612"><ele>72.0</ele><time>2026-04-08T09:27:56.001Z</time></trkpt><trkpt lat="39.36369502595557" lon="8.798876947213015"><ele>71.6</ele><time>2026-04-08T09:27:57.001Z</time></trkpt><trkpt lat="39.3636227969057" lon="8.798769432018386"><ele>71.2</ele><time>2026-04-08T09:27:58.001Z</time></trkpt><trkpt lat="39.363549084357935" lon="8.798689821631081"><ele>70.8</ele><time>2026-04-08T09:27:59.001Z</time></trkpt><trkpt lat="39.36349317610677" lon="8.798593510851381"><ele>70.4</ele><time>2026-04-08T09:28:00.001Z</time></trkpt><trkpt lat="39.363443068860015" lon="8.798516134470086"><ele>70.0</ele><time>2026-04-08T09:28:01.001Z</time></trkpt><trkpt lat="39.3633787099913" lon="8.79841240648527"><ele>70.0</ele><time>2026-04-08T09:28:03.001Z</time></trkpt><trkpt lat="39.36332135144425" lon="8.798306723991107"><ele>70.0</ele><time>2026-04-08T09:28:05.001Z</time></trkpt><trkpt lat="39.36326434588788" lon="8.798200981024873"><ele>70.0</ele><time>2026-04-08T09:28:07Z</time></trkpt><trkpt lat="39.363208147980814" lon="8.79809487310301"><ele>70.0</ele><time>2026-04-08T09:28:09Z</time></trkpt><trkpt lat="39.36314743183378" lon="8.797971191185022"><ele>70.0</ele><time>2026-04-08T09:28:11Z</time></trkpt><trkpt lat="39.363104544635505" lon="8.797883688762417"><ele>70.0</ele><time>2026-04-08T09:28:12Z</time></trkpt><trkpt lat="39.36306547030175" lon="8.797803554474669"><ele>70.0</ele><time>2026-04-08T09:28:13Z</time></trkpt><trkpt lat="39.36300979081971" lon="8.797678675421398"><ele>70.0</ele><time>2026-04-08T09:28:15Z</time></trkpt><trkpt lat="39.3629462428605" lon="8.797550328819923"><ele>70.0</ele><time>2026-04-08T09:28:17Z</time></trkpt><trkpt lat="39.36291476504759" lon="8.797475791013712"><ele>70.0</ele><time>2026-04-08T09:28:18Z</time></trkpt><trkpt lat="39.36286151392596" lon="8.797358666640541"><ele>70.0</ele><time>2026-04-08T09:28:20Z</time></trkpt><trkpt lat="39.36280966573321" lon="8.797244107583072"><ele>70.0</ele><time>2026-04-08T09:28:22Z</time></trkpt><trkpt lat="39.36276055117238" lon="8.797141336043646"><ele>70.0</ele><time>2026-04-08T09:28:24Z</time></trkpt><trkpt lat="39.36271941818047" lon="8.79706618147435"><ele>70.0</ele><time>2026-04-08T09:28:26Z</time></trkpt><trkpt lat="39.36267692026708" lon="8.796963413774106"><ele>70.0</ele><time>2026-04-08T09:28:29Z</time></trkpt><trkpt lat="39.36261718302002" lon="8.796865779921571"><ele>70.0</ele><time>2026-04-08T09:28:32Z</time></trkpt><trkpt lat="39.362573179206464" lon="8.7967874449473"><ele>70.0</ele><time>2026-04-08T09:28:34Z</time></trkpt><trkpt lat="39.36251990986713" lon="8.796721671204825"><ele>70.0</ele><time>2026-04-08T09:28:36Z</time></trkpt><trkpt lat="39.362462962564145" lon="8.79666703580533"><ele>70.0</ele><time>2026-04-08T09:28:38Z</time></trkpt><trkpt lat="39.36239842028782" lon="8.796615128798258"><ele>70.0</ele><time>2026-04-08T09:28:40Z</time></trkpt><trkpt lat="39.3623157037997" lon="8.796560031913991"><ele>70.0</ele><time>2026-04-08T09:28:42Z</time></trkpt><trkpt lat="39.36220462772715" lon="8.796494199732667"><ele>70.0</ele><time>2026-04-08T09:28:43.999Z</time></trkpt><trkpt lat="39.36213520358628" lon="8.796455049086584"><ele>70.0</ele><time>2026-04-08T09:28:44.999Z</time></trkpt><trkpt lat="39.36205977201653" lon="8.796420112030027"><ele>70.0</ele><time>2026-04-08T09:28:45.999Z</time></trkpt><trkpt lat="39.361986071279965" lon="8.796375371189594"><ele>70.0</ele><time>2026-04-08T09:28:46.999Z</time></trkpt><trkpt lat="39.361911613223576" lon="8.796334487313363"><ele>70.0</ele><time>2026-04-08T09:28:47.999Z</time></trkpt><trkpt lat="39.36182755764147" lon="8.796293340057334"><ele>70.0</ele><time>2026-04-08T09:28:48.999Z</time></trkpt><trkpt lat="39.36174576009236" lon="8.79625332101172"><ele>70.0</ele><time>2026-04-08T09:28:49.999Z</time></trkpt><trkpt lat="39.36166663551027" lon="8.796206076819143"><ele>70.0</ele><time>2026-04-08T09:28:50.999Z</time></trkpt><trkpt lat="39.361583515634955" lon="8.79616720004982"><ele>70.0</ele><time>2026-04-08T09:28:51.999Z</time></trkpt><trkpt lat="39.36149997417323" lon="8.796127904588555"><ele>70.0</ele><time>2026-04-08T09:28:52.999Z</time></trkpt><trkpt lat="39.36141418687602" lon="8.796094193503302"><ele>70.0</ele><time>2026-04-08T09:28:53.999Z</time></trkpt><trkpt lat="39.361322074291834" lon="8.796065316437733"><ele>70.0</ele><time>2026-04-08T09:28:54.999Z</time></trkpt><trkpt lat="39.36122987559034" lon="8.796048245596584"><ele>69.6</ele><time>2026-04-08T09:28:55.999Z</time></trkpt><trkpt lat="39.36113681913319" lon="8.79603154798411"><ele>69.2</ele><time>2026-04-08T09:28:56.999Z</time></trkpt><trkpt lat="39.36104920638176" lon="8.796013963580126"><ele>68.8</ele><time>2026-04-08T09:28:57.999Z</time></trkpt><trkpt lat="39.36095476896996" lon="8.795992333569307"><ele>68.4</ele><time>2026-04-08T09:28:58.999Z</time></trkpt><trkpt lat="39.36085029480157" lon="8.795971938752652"><ele>68.0</ele><time>2026-04-08T09:28:59.999Z</time></trkpt><trkpt lat="39.360733468926576" lon="8.79594846148837"><ele>68.0</ele><time>2026-04-08T09:29:00.999Z</time></trkpt><trkpt lat="39.36061778296736" lon="8.795926077843232"><ele>68.0</ele><time>2026-04-08T09:29:01.999Z</time></trkpt><trkpt lat="39.36051465907826" lon="8.795909300218275"><ele>68.0</ele><time>2026-04-08T09:29:02.999Z</time></trkpt><trkpt lat="39.360420089525434" lon="8.79589230559549"><ele>68.0</ele><time>2026-04-08T09:29:03.999Z</time></trkpt><trkpt lat="39.36032897856382" lon="8.79587341358638"><ele>68.0</ele><time>2026-04-08T09:29:04.999Z</time></trkpt><trkpt lat="39.3602291113776" lon="8.795850128000984"><ele>67.8</ele><time>2026-04-08T09:29:05.999Z</time></trkpt><trkpt lat="39.36013202507161" lon="8.795827639758043"><ele>67.6</ele><time>2026-04-08T09:29:06.999Z</time></trkpt><trkpt lat="39.3600249805949" lon="8.795809178114464"><ele>67.4</ele><time>2026-04-08T09:29:07.999Z</time></trkpt><trkpt lat="39.35990965679614" lon="8.795792491475916"><ele>67.2</ele><time>2026-04-08T09:29:08.999Z</time></trkpt><trkpt lat="39.35979322266937" lon="8.795772214423193"><ele>67.0</ele><time>2026-04-08T09:29:09.999Z</time></trkpt><trkpt lat="39.35967253429426" lon="8.795745240615584"><ele>67.0</ele><time>2026-04-08T09:29:10.999Z</time></trkpt><trkpt lat="39.35955898398205" lon="8.795722500693998"><ele>67.0</ele><time>2026-04-08T09:29:11.999Z</time></trkpt><trkpt lat="39.359447897280965" lon="8.795701319768236"><ele>67.0</ele><time>2026-04-08T09:29:12.999Z</time></trkpt><trkpt lat="39.359336046742236" lon="8.795683452224479"><ele>67.0</ele><time>2026-04-08T09:29:13.999Z</time></trkpt><trkpt lat="39.35922509924019" lon="8.795677053686214"><ele>67.0</ele><time>2026-04-08T09:29:14.999Z</time></trkpt><trkpt lat="39.359111885061985" lon="8.795685896807454"><ele>67.0</ele><time>2026-04-08T09:29:15.999Z</time></trkpt><trkpt lat="39.35899760410809" lon="8.795722225331911"><ele>67.0</ele><time>2026-04-08T09:29:16.999Z</time></trkpt><trkpt lat="39.358884959604765" lon="8.795785081649585"><ele>67.0</ele><time>2026-04-08T09:29:17.999Z</time></trkpt><trkpt lat="39.35876885609999" lon="8.795873601120107"><ele>67.0</ele><time>2026-04-08T09:29:18.999Z</time></trkpt><trkpt lat="39.35864934005714" lon="8.795963054899197"><ele>67.0</ele><time>2026-04-08T09:29:19.999Z</time></trkpt><trkpt lat="39.35852749845244" lon="8.796050192440271"><ele>67.0</ele><time>2026-04-08T09:29:20.999Z</time></trkpt><trkpt lat="39.358401010411384" lon="8.796135929638158"><ele>67.0</ele><time>2026-04-08T09:29:21.999Z</time></trkpt><trkpt lat="39.35828020823127" lon="8.796224485438314"><ele>67.0</ele><time>2026-04-08T09:29:22.998Z</time></trkpt><trkpt lat="39.358159661060625" lon="8.796315838644581"><ele>67.0</ele><time>2026-04-08T09:29:23.998Z</time></trkpt><trkpt lat="39.35804099078879" lon="8.796406883101481"><ele>67.0</ele><time>2026-04-08T09:29:24.998Z</time></trkpt><trkpt lat="39.357923520554436" lon="8.796498060135875"><ele>67.0</ele><time>2026-04-08T09:29:25.998Z</time></trkpt><trkpt lat="39.357799720212604" lon="8.796585156866769"><ele>67.5</ele><time>2026-04-08T09:29:26.998Z</time></trkpt><trkpt lat="39.357672964803506" lon="8.796664353697697"><ele>68.0</ele><time>2026-04-08T09:29:27.998Z</time></trkpt><trkpt lat="39.35753785681404" lon="8.796727994562383"><ele>68.5</ele><time>2026-04-08T09:29:28.998Z</time></trkpt><trkpt lat="39.35739502033606" lon="8.79678300333509"><ele>69.0</ele><time>2026-04-08T09:29:29.998Z</time></trkpt><trkpt lat="39.357251365148485" lon="8.796841528897318"><ele>69.5</ele><time>2026-04-08T09:29:30.998Z</time></trkpt><trkpt lat="39.35710298101977" lon="8.796899766312023"><ele>70.0</ele><time>2026-04-08T09:29:31.998Z</time></trkpt><trkpt lat="39.35695950799349" lon="8.796947799883235"><ele>70.5</ele><time>2026-04-08T09:29:32.998Z</time></trkpt><trkpt lat="39.35683060674722" lon="8.796988514000317"><ele>71.0</ele><time>2026-04-08T09:29:33.998Z</time></trkpt><trkpt lat="39.35671385937051" lon="8.797027592454498"><ele>71.0</ele><time>2026-04-08T09:29:34.998Z</time></trkpt><trkpt lat="39.356606307957" lon="8.797064281505506"><ele>71.0</ele><time>2026-04-08T09:29:35.998Z</time></trkpt><trkpt lat="39.356506085488" lon="8.797097442255712"><ele>71.0</ele><time>2026-04-08T09:29:36.998Z</time></trkpt><trkpt lat="39.356416687853546" lon="8.797120844776162"><ele>71.0</ele><time>2026-04-08T09:29:37.998Z</time></trkpt><trkpt lat="39.35633705518317" lon="8.797140582280997"><ele>71.0</ele><time>2026-04-08T09:29:38.998Z</time></trkpt><trkpt lat="39.35625949107656" lon="8.797153076963975"><ele>71.39999999999999</ele><time>2026-04-08T09:29:39.998Z</time></trkpt><trkpt lat="39.356176767881664" lon="8.79715092048377"><ele>71.8</ele><time>2026-04-08T09:29:40.998Z</time></trkpt><trkpt lat="39.35609175549615" lon="8.797133720400707"><ele>72.19999999999999</ele><time>2026-04-08T09:29:41.998Z</time></trkpt><trkpt lat="39.35600646411514" lon="8.79709380242356"><ele>72.6</ele><time>2026-04-08T09:29:42.998Z</time></trkpt><trkpt lat="39.3559158123445" lon="8.797038843436688"><ele>73.0</ele><time>2026-04-08T09:29:43.998Z</time></trkpt><trkpt lat="39.35583151370381" lon="8.796970815359519"><ele>73.0</ele><time>2026-04-08T09:29:44.998Z</time></trkpt><trkpt lat="39.35571605940788" lon="8.796887117949627"><ele>73.0</ele><time>2026-04-08T09:29:45.998Z</time></trkpt><trkpt lat="39.355592762852005" lon="8.796792755256769"><ele>73.0</ele><time>2026-04-08T09:29:46.998Z</time></trkpt><trkpt lat="39.35545321360446" lon="8.796685855925501"><ele>73.0</ele><time>2026-04-08T09:29:47.998Z</time></trkpt><trkpt lat="39.35530817665323" lon="8.796556797580655"><ele>71.0</ele><time>2026-04-08T09:29:48.998Z</time></trkpt><trkpt lat="39.3551735134734" lon="8.796443291719957"><ele>69.0</ele><time>2026-04-08T09:29:49.998Z</time></trkpt><trkpt lat="39.35501889977392" lon="8.796324475713458"><ele>67.0</ele><time>2026-04-08T09:29:50.998Z</time></trkpt><trkpt lat="39.35482684631397" lon="8.796188279767202"><ele>67.0</ele><time>2026-04-08T09:29:51.998Z</time></trkpt><trkpt lat="39.35462270341524" lon="8.79598932246502"><ele>67.0</ele><time>2026-04-08T09:29:52.998Z</time></trkpt><trkpt lat="39.35437815644314" lon="8.795795775647873"><ele>67.0</ele><time>2026-04-08T09:29:53.998Z</time></trkpt><trkpt lat="39.354109991132106" lon="8.795581699026163"><ele>67.0</ele><time>2026-04-08T09:29:55Z</time></trkpt><trkpt lat="39.35383078691378" lon="8.79535872110762"><ele>68.0</ele><time>2026-04-08T09:29:56.001Z</time></trkpt><trkpt lat="39.35360527534495" lon="8.795181099059354"><ele>69.0</ele><time>2026-04-08T09:29:57Z</time></trkpt><trkpt lat="39.35331325856092" lon="8.794960487206895"><ele>72.0</ele><time>2026-04-08T09:29:58Z</time></trkpt><trkpt lat="39.3530210754605" lon="8.794723578438138"><ele>75.0</ele><time>2026-04-08T09:29:59Z</time></trkpt><trkpt lat="39.35272437363159" lon="8.794497375681827"><ele>75.0</ele><time>2026-04-08T09:30:00Z</time></trkpt><trkpt lat="39.352455060538176" lon="8.794262820451209"><ele>75.0</ele><time>2026-04-08T09:30:01Z</time></trkpt><trkpt lat="39.35217432292765" lon="8.794022127007338"><ele>77.5</ele><time>2026-04-08T09:30:02Z</time></trkpt><trkpt lat="39.35188160615882" lon="8.793781178184764"><ele>80.0</ele><time>2026-04-08T09:30:03Z</time></trkpt><trkpt lat="39.351608191751744" lon="8.793500077739719"><ele>80.0</ele><time>2026-04-08T09:30:04Z</time></trkpt><trkpt lat="39.351335250119746" lon="8.793209466623413"><ele>80.0</ele><time>2026-04-08T09:30:05Z</time></trkpt><trkpt lat="39.3510861931935" lon="8.792890435531545"><ele>80.5</ele><time>2026-04-08T09:30:06Z</time></trkpt><trkpt lat="39.35084256565916" lon="8.792619573978714"><ele>81.0</ele><time>2026-04-08T09:30:07Z</time></trkpt><trkpt lat="39.3505967163778" lon="8.792313177728836"><ele>80.0</ele><time>2026-04-08T09:30:08Z</time></trkpt><trkpt lat="39.35034338363137" lon="8.792007991751055"><ele>79.0</ele><time>2026-04-08T09:30:09Z</time></trkpt><trkpt lat="39.35009981175362" lon="8.791681682384707"><ele>78.0</ele><time>2026-04-08T09:30:10Z</time></trkpt><trkpt lat="39.34983588693428" lon="8.791382608151398"><ele>77.0</ele><time>2026-04-08T09:30:11Z</time></trkpt><trkpt lat="39.349588181708775" lon="8.79107124994974"><ele>77.5</ele><time>2026-04-08T09:30:12Z</time></trkpt><trkpt lat="39.34934544032559" lon="8.790778215297774"><ele>78.0</ele><time>2026-04-08T09:30:13Z</time></trkpt><trkpt lat="39.349109389841814" lon="8.790465852640128"><ele>78.5</ele><time>2026-04-08T09:30:14Z</time></trkpt><trkpt lat="39.34886333683737" lon="8.790163999055768"><ele>79.0</ele><time>2026-04-08T09:30:15Z</time></trkpt><trkpt lat="39.34861284141952" lon="8.789856695503218"><ele>79.0</ele><time>2026-04-08T09:30:16Z</time></trkpt><trkpt lat="39.34836568868911" lon="8.789553492675479"><ele>79.0</ele><time>2026-04-08T09:30:17Z</time></trkpt><trkpt lat="39.34811994457643" lon="8.789252019291444"><ele>81.0</ele><time>2026-04-08T09:30:18Z</time></trkpt><trkpt lat="39.34786859308824" lon="8.78896803264712"><ele>83.0</ele><time>2026-04-08T09:30:19Z</time></trkpt><trkpt lat="39.3476333937391" lon="8.788660560313057"><ele>84.0</ele><time>2026-04-08T09:30:20Z</time></trkpt><trkpt lat="39.34738602709353" lon="8.788354350062054"><ele>85.0</ele><time>2026-04-08T09:30:21Z</time></trkpt><trkpt lat="39.347136973450034" lon="8.788048227560747"><ele>85.0</ele><time>2026-04-08T09:30:22Z</time></trkpt><trkpt lat="39.34688732532027" lon="8.787748311319222"><ele>85.0</ele><time>2026-04-08T09:30:23Z</time></trkpt><trkpt lat="39.346638848638705" lon="8.787446283547606"><ele>85.5</ele><time>2026-04-08T09:30:24Z</time></trkpt><trkpt lat="39.34638671010912" lon="8.78713934023288"><ele>86.0</ele><time>2026-04-08T09:30:25Z</time></trkpt><trkpt lat="39.3461330103715" lon="8.786825155253336"><ele>85.0</ele><time>2026-04-08T09:30:26Z</time></trkpt><trkpt lat="39.34587801615412" lon="8.786513772044815"><ele>84.0</ele><time>2026-04-08T09:30:27Z</time></trkpt><trkpt lat="39.345626006385096" lon="8.786205865921767"><ele>84.0</ele><time>2026-04-08T09:30:28Z</time></trkpt><trkpt lat="39.345389579747206" lon="8.785914696614656"><ele>84.0</ele><time>2026-04-08T09:30:29Z</time></trkpt><trkpt lat="39.345176087766994" lon="8.785653226123973"><ele>84.0</ele><time>2026-04-08T09:30:30Z</time></trkpt><trkpt lat="39.34496486275694" lon="8.785392878355523"><ele>84.0</ele><time>2026-04-08T09:30:31Z</time></trkpt><trkpt lat="39.34476891483521" lon="8.785160937667492"><ele>84.5</ele><time>2026-04-08T09:30:32Z</time></trkpt><trkpt lat="39.34457023248726" lon="8.784957108360956"><ele>85.0</ele><time>2026-04-08T09:30:33Z</time></trkpt><trkpt lat="39.344379008285934" lon="8.784780882434228"><ele>85.0</ele><time>2026-04-08T09:30:34Z</time></trkpt><trkpt lat="39.344193032671996" lon="8.78462598714548"><ele>85.0</ele><time>2026-04-08T09:30:35Z</time></trkpt><trkpt lat="39.34400773310916" lon="8.78448734750736"><ele>85.0</ele><time>2026-04-08T09:30:36Z</time></trkpt><trkpt lat="39.34380909993374" lon="8.784348472870912"><ele>85.0</ele><time>2026-04-08T09:30:37Z</time></trkpt><trkpt lat="39.34361211544951" lon="8.784183279979732"><ele>85.0</ele><time>2026-04-08T09:30:38Z</time></trkpt><trkpt lat="39.34340848430466" lon="8.784031159062586"><ele>85.0</ele><time>2026-04-08T09:30:39Z</time></trkpt><trkpt lat="39.34314593363798" lon="8.78397165447294"><ele>85.0</ele><time>2026-04-08T09:30:40Z</time></trkpt><trkpt lat="39.34287877767114" lon="8.78384329788249"><ele>85.5</ele><time>2026-04-08T09:30:41Z</time></trkpt><trkpt lat="39.342600220522826" lon="8.783685816782397"><ele>86.0</ele><time>2026-04-08T09:30:42Z</time></trkpt><trkpt lat="39.34230729912056" lon="8.783512852211139"><ele>86.5</ele><time>2026-04-08T09:30:43Z</time></trkpt><trkpt lat="39.34201316748324" lon="8.783342450925897"><ele>87.0</ele><time>2026-04-08T09:30:44Z</time></trkpt><trkpt lat="39.34170898499708" lon="8.783173439934776"><ele>87.0</ele><time>2026-04-08T09:30:44.999Z</time></trkpt><trkpt lat="39.3413927887321" lon="8.782996028852187"><ele>87.0</ele><time>2026-04-08T09:30:45.999Z</time></trkpt><trkpt lat="39.34107864980633" lon="8.782819617003963"><ele>88.0</ele><time>2026-04-08T09:30:46.999Z</time></trkpt><trkpt lat="39.34077490336509" lon="8.782639637763296"><ele>89.0</ele><time>2026-04-08T09:30:47.999Z</time></trkpt><trkpt lat="39.34049105356525" lon="8.782440970827352"><ele>89.0</ele><time>2026-04-08T09:30:48.999Z</time></trkpt><trkpt lat="39.340220969221214" lon="8.782216612775278"><ele>89.0</ele><time>2026-04-08T09:30:49.999Z</time></trkpt><trkpt lat="39.33996703930592" lon="8.781965945027691"><ele>90.0</ele><time>2026-04-08T09:30:50.999Z</time></trkpt><trkpt lat="39.33972823700876" lon="8.781684729559181"><ele>91.0</ele><time>2026-04-08T09:30:51.999Z</time></trkpt><trkpt lat="39.33950772942137" lon="8.781388948217609"><ele>91.0</ele><time>2026-04-08T09:30:52.999Z</time></trkpt><trkpt lat="39.33929217451727" lon="8.78106607858668"><ele>91.0</ele><time>2026-04-08T09:30:53.999Z</time></trkpt><trkpt lat="39.33909977371535" lon="8.780720545251716"><ele>92.0</ele><time>2026-04-08T09:30:54.999Z</time></trkpt><trkpt lat="39.338924200557436" lon="8.780350617293536"><ele>93.0</ele><time>2026-04-08T09:30:55.999Z</time></trkpt><trkpt lat="39.33876779447514" lon="8.779958395142277"><ele>93.0</ele><time>2026-04-08T09:30:56.999Z</time></trkpt><trkpt lat="39.33862991587259" lon="8.779551417867221"><ele>93.0</ele><time>2026-04-08T09:30:57.999Z</time></trkpt><trkpt lat="39.33851619247902" lon="8.779125621129774"><ele>95.5</ele><time>2026-04-08T09:30:58.999Z</time></trkpt><trkpt lat="39.338428927238525" lon="8.778692948825242"><ele>98.0</ele><time>2026-04-08T09:30:59.999Z</time></trkpt><trkpt lat="39.33837318929135" lon="8.778262487699736"><ele>99.0</ele><time>2026-04-08T09:31:00.999Z</time></trkpt><trkpt lat="39.33834225598392" lon="8.777817599221809"><ele>100.0</ele><time>2026-04-08T09:31:01.999Z</time></trkpt><trkpt lat="39.338331451855026" lon="8.777365009085674"><ele>101.0</ele><time>2026-04-08T09:31:02.999Z</time></trkpt><trkpt lat="39.33831970125774" lon="8.776908665325177"><ele>102.0</ele><time>2026-04-08T09:31:03.999Z</time></trkpt><trkpt lat="39.33830295204722" lon="8.77645089568624"><ele>102.0</ele><time>2026-04-08T09:31:04.999Z</time></trkpt><trkpt lat="39.33828058758296" lon="8.775992273986347"><ele>102.0</ele><time>2026-04-08T09:31:05.999Z</time></trkpt><trkpt lat="39.33826332858591" lon="8.7755377837503"><ele>102.0</ele><time>2026-04-08T09:31:06.999Z</time></trkpt><trkpt lat="39.33824720672623" lon="8.775086252973727"><ele>102.0</ele><time>2026-04-08T09:31:07.999Z</time></trkpt><trkpt lat="39.338232934851355" lon="8.774636471396693"><ele>101.0</ele><time>2026-04-08T09:31:08.999Z</time></trkpt><trkpt lat="39.33821853835038" lon="8.77418975567124"><ele>100.0</ele><time>2026-04-08T09:31:09.999Z</time></trkpt><trkpt lat="39.33819980243108" lon="8.77374396272251"><ele>100.5</ele><time>2026-04-08T09:31:10.999Z</time></trkpt><trkpt lat="39.33817378528546" lon="8.77330786735455"><ele>101.0</ele><time>2026-04-08T09:31:11.999Z</time></trkpt><trkpt lat="39.338139270951714" lon="8.772876573883364"><ele>102.0</ele><time>2026-04-08T09:31:12.999Z</time></trkpt><trkpt lat="39.33810007420672" lon="8.772445452732379"><ele>103.0</ele><time>2026-04-08T09:31:13.999Z</time></trkpt><trkpt lat="39.33805741359424" lon="8.772007685011953"><ele>102.5</ele><time>2026-04-08T09:31:14.999Z</time></trkpt><trkpt lat="39.33799946014369" lon="8.771553451047064"><ele>102.0</ele><time>2026-04-08T09:31:15.999Z</time></trkpt><trkpt lat="39.33792834517178" lon="8.771082137490293"><ele>103.0</ele><time>2026-04-08T09:31:16.999Z</time></trkpt><trkpt lat="39.337851952642424" lon="8.770588396747488"><ele>104.0</ele><time>2026-04-08T09:31:17.999Z</time></trkpt><trkpt lat="39.337772550473474" lon="8.770076670690866"><ele>104.5</ele><time>2026-04-08T09:31:18.999Z</time></trkpt><trkpt lat="39.337685827015186" lon="8.76955357000755"><ele>105.0</ele><time>2026-04-08T09:31:19.999Z</time></trkpt><trkpt lat="39.337594181838945" lon="8.769040558253515"><ele>106.5</ele><time>2026-04-08T09:31:20.999Z</time></trkpt><trkpt lat="39.33751023688282" lon="8.768540726233763"><ele>108.0</ele><time>2026-04-08T09:31:21.999Z</time></trkpt><trkpt lat="39.33742911411061" lon="8.768045037177679"><ele>110.0</ele><time>2026-04-08T09:31:22.999Z</time></trkpt><trkpt lat="39.33734297495666" lon="8.767529387937053"><ele>112.0</ele><time>2026-04-08T09:31:23.998Z</time></trkpt><trkpt lat="39.337257703256455" lon="8.76698914322584"><ele>111.5</ele><time>2026-04-08T09:31:24.998Z</time></trkpt><trkpt lat="39.337173842579446" lon="8.766433534252096"><ele>111.0</ele><time>2026-04-08T09:31:25.998Z</time></trkpt><trkpt lat="39.33709187499189" lon="8.765906299512588"><ele>111.0</ele><time>2026-04-08T09:31:26.998Z</time></trkpt><trkpt lat="39.337013961384386" lon="8.765433451304157"><ele>111.0</ele><time>2026-04-08T09:31:27.998Z</time></trkpt><trkpt lat="39.33693589428008" lon="8.764971689632436"><ele>112.5</ele><time>2026-04-08T09:31:28.998Z</time></trkpt><trkpt lat="39.336864172481626" lon="8.764499533142416"><ele>114.0</ele><time>2026-04-08T09:31:29.998Z</time></trkpt><trkpt lat="39.33680309265238" lon="8.764028769039783"><ele>114.0</ele><time>2026-04-08T09:31:30.998Z</time></trkpt><trkpt lat="39.33675733523163" lon="8.763562018084215"><ele>114.0</ele><time>2026-04-08T09:31:31.998Z</time></trkpt><trkpt lat="39.33672426411073" lon="8.763100942767506"><ele>114.0</ele><time>2026-04-08T09:31:32.998Z</time></trkpt><trkpt lat="39.336704991917" lon="8.762643163273763"><ele>114.0</ele><time>2026-04-08T09:31:33.998Z</time></trkpt><trkpt lat="39.3366940226279" lon="8.762192323053114"><ele>114.5</ele><time>2026-04-08T09:31:34.998Z</time></trkpt><trkpt lat="39.336698085758016" lon="8.761775998051895"><ele>115.0</ele><time>2026-04-08T09:31:35.998Z</time></trkpt><trkpt lat="39.33670480024325" lon="8.761391713923617"><ele>116.0</ele><time>2026-04-08T09:31:36.998Z</time></trkpt><trkpt lat="39.33672267604854" lon="8.761000932768123"><ele>117.0</ele><time>2026-04-08T09:31:37.998Z</time></trkpt><trkpt lat="39.336754348204614" lon="8.76059604752088"><ele>118.5</ele><time>2026-04-08T09:31:38.998Z</time></trkpt><trkpt lat="39.33679618811544" lon="8.760192864192266"><ele>120.0</ele><time>2026-04-08T09:31:39.998Z</time></trkpt><trkpt lat="39.33683730579989" lon="8.759790480471494"><ele>120.0</ele><time>2026-04-08T09:31:40.998Z</time></trkpt><trkpt lat="39.33687613181123" lon="8.759372641807492"><ele>120.0</ele><time>2026-04-08T09:31:41.998Z</time></trkpt><trkpt lat="39.3369136133401" lon="8.758939380944303"><ele>121.5</ele><time>2026-04-08T09:31:42.998Z</time></trkpt><trkpt lat="39.33695131829366" lon="8.758527982690175"><ele>123.0</ele><time>2026-04-08T09:31:43.998Z</time></trkpt><trkpt lat="39.336984246771166" lon="8.758157765820501"><ele>123.0</ele><time>2026-04-08T09:31:44.998Z</time></trkpt><trkpt lat="39.3370146711756" lon="8.757811959619533"><ele>123.0</ele><time>2026-04-08T09:31:45.998Z</time></trkpt><trkpt lat="39.33704502815679" lon="8.757463986578456"><ele>125.5</ele><time>2026-04-08T09:31:46.998Z</time></trkpt><trkpt lat="39.33707320739902" lon="8.7571144031689"><ele>128.0</ele><time>2026-04-08T09:31:47.998Z</time></trkpt><trkpt lat="39.337102495008466" lon="8.756765848894142"><ele>129.5</ele><time>2026-04-08T09:31:48.998Z</time></trkpt><trkpt lat="39.33713491153446" lon="8.756422280966847"><ele>131.0</ele><time>2026-04-08T09:31:49.998Z</time></trkpt><trkpt lat="39.337168411788085" lon="8.756074806330723"><ele>132.0</ele><time>2026-04-08T09:31:50.998Z</time></trkpt><trkpt lat="39.33720066139214" lon="8.755743051787501"><ele>133.0</ele><time>2026-04-08T09:31:51.998Z</time></trkpt><trkpt lat="39.337229814581185" lon="8.755426466522815"><ele>131.5</ele><time>2026-04-08T09:31:52.998Z</time></trkpt><trkpt lat="39.337255409613086" lon="8.755093369366739"><ele>130.0</ele><time>2026-04-08T09:31:53.998Z</time></trkpt><trkpt lat="39.33728051591482" lon="8.754745035386163"><ele>130.0</ele><time>2026-04-08T09:31:54.998Z</time></trkpt><trkpt lat="39.337312155132445" lon="8.754394283023787"><ele>130.0</ele><time>2026-04-08T09:31:55.998Z</time></trkpt><trkpt lat="39.337348009796955" lon="8.754043674661212"><ele>130.0</ele><time>2026-04-08T09:31:56.998Z</time></trkpt><trkpt lat="39.33737920529964" lon="8.753692379145184"><ele>130.0</ele><time>2026-04-08T09:31:57.998Z</time></trkpt><trkpt lat="39.337406365920984" lon="8.753345427383271"><ele>131.5</ele><time>2026-04-08T09:31:58.998Z</time></trkpt><trkpt lat="39.33743752545791" lon="8.752997216596812"><ele>133.0</ele><time>2026-04-08T09:32:00Z</time></trkpt><trkpt lat="39.337470888950705" lon="8.75264793213818"><ele>136.0</ele><time>2026-04-08T09:32:01Z</time></trkpt><trkpt lat="39.33750318952052" lon="8.75230297253135"><ele>139.0</ele><time>2026-04-08T09:32:02Z</time></trkpt><trkpt lat="39.337531123871855" lon="8.751988769253321"><ele>141.5</ele><time>2026-04-08T09:32:03Z</time></trkpt><trkpt lat="39.33755830739442" lon="8.751708357733548"><ele>144.0</ele><time>2026-04-08T09:32:04Z</time></trkpt><trkpt lat="39.33757503093528" lon="8.751403405592246"><ele>144.0</ele><time>2026-04-08T09:32:05Z</time></trkpt><trkpt lat="39.337559542634985" lon="8.751081477167515"><ele>144.0</ele><time>2026-04-08T09:32:06Z</time></trkpt><trkpt lat="39.33752199422254" lon="8.750752927122964"><ele>146.0</ele><time>2026-04-08T09:32:07Z</time></trkpt><trkpt lat="39.337450310821836" lon="8.750425072371739"><ele>148.0</ele><time>2026-04-08T09:32:08Z</time></trkpt><trkpt lat="39.33736725798476" lon="8.75013001824081"><ele>149.0</ele><time>2026-04-08T09:32:09Z</time></trkpt><trkpt lat="39.33726161771266" lon="8.749852021754183"><ele>150.0</ele><time>2026-04-08T09:32:10Z</time></trkpt><trkpt lat="39.33712776198603" lon="8.749565275197961"><ele>144.5</ele><time>2026-04-08T09:32:11Z</time></trkpt><trkpt lat="39.33697294718155" lon="8.749279083003206"><ele>139.0</ele><time>2026-04-08T09:32:12Z</time></trkpt><trkpt lat="39.33680449523692" lon="8.748991209910491"><ele>139.0</ele><time>2026-04-08T09:32:13Z</time></trkpt><trkpt lat="39.33664743266574" lon="8.74872277320197"><ele>139.0</ele><time>2026-04-08T09:32:14Z</time></trkpt><trkpt lat="39.33651270637689" lon="8.748480249785068"><ele>137.0</ele><time>2026-04-08T09:32:15Z</time></trkpt><trkpt lat="39.33638490102772" lon="8.748253625079839"><ele>135.0</ele><time>2026-04-08T09:32:16Z</time></trkpt><trkpt lat="39.33626288602291" lon="8.748045358540143"><ele>133.0</ele><time>2026-04-08T09:32:17Z</time></trkpt><trkpt lat="39.336162084628675" lon="8.747833895741689"><ele>133.0</ele><time>2026-04-08T09:32:18Z</time></trkpt><trkpt lat="39.336030196445044" lon="8.747632791506604"><ele>133.0</ele><time>2026-04-08T09:32:19Z</time></trkpt><trkpt lat="39.33591031177501" lon="8.747410228065945"><ele>133.0</ele><time>2026-04-08T09:32:20Z</time></trkpt><trkpt lat="39.335792920030926" lon="8.747184649775537"><ele>133.0</ele><time>2026-04-08T09:32:21Z</time></trkpt><trkpt lat="39.335672406784" lon="8.74695784134802"><ele>133.0</ele><time>2026-04-08T09:32:22Z</time></trkpt><trkpt lat="39.33555200437371" lon="8.746739173402881"><ele>133.0</ele><time>2026-04-08T09:32:23Z</time></trkpt><trkpt lat="39.33542512690542" lon="8.746521150074658"><ele>130.66666666666669</ele><time>2026-04-08T09:32:24Z</time></trkpt><trkpt lat="39.335294932797076" lon="8.746299459410274"><ele>128.33333333333334</ele><time>2026-04-08T09:32:25Z</time></trkpt><trkpt lat="39.33516801053694" lon="8.74607632531802"><ele>126.0</ele><time>2026-04-08T09:32:26Z</time></trkpt><trkpt lat="39.33503952523778" lon="8.745840561484224"><ele>126.0</ele><time>2026-04-08T09:32:27Z</time></trkpt><trkpt lat="39.33491633753348" lon="8.745605366679568"><ele>126.0</ele><time>2026-04-08T09:32:28Z</time></trkpt><trkpt lat="39.33480090081007" lon="8.745369213770932"><ele>126.0</ele><time>2026-04-08T09:32:29Z</time></trkpt><trkpt lat="39.33469538020027" lon="8.745124002779459"><ele>126.0</ele><time>2026-04-08T09:32:30Z</time></trkpt><trkpt lat="39.33460091121725" lon="8.744874917441868"><ele>126.0</ele><time>2026-04-08T09:32:31Z</time></trkpt><trkpt lat="39.33451308278604" lon="8.744627851392602"><ele>126.0</ele><time>2026-04-08T09:32:32Z</time></trkpt><trkpt lat="39.33443333139759" lon="8.744385314842555"><ele>126.0</ele><time>2026-04-08T09:32:33Z</time></trkpt><trkpt lat="39.33436495000122" lon="8.744134458691951"><ele>126.0</ele><time>2026-04-08T09:32:34Z</time></trkpt><trkpt lat="39.33431524022518" lon="8.743880085340772"><ele>126.0</ele><time>2026-04-08T09:32:35Z</time></trkpt><trkpt lat="39.334275276265856" lon="8.74362800301239"><ele>126.0</ele><time>2026-04-08T09:32:36Z</time></trkpt><trkpt lat="39.33423552874687" lon="8.743375108559349"><ele>126.0</ele><time>2026-04-08T09:32:37Z</time></trkpt><trkpt lat="39.33419861340501" lon="8.743118781200376"><ele>126.0</ele><time>2026-04-08T09:32:38Z</time></trkpt><trkpt lat="39.33415504031299" lon="8.742820827792821"><ele>127.5</ele><time>2026-04-08T09:32:39Z</time></trkpt><trkpt lat="39.33411614361484" lon="8.742498162000329"><ele>129.0</ele><time>2026-04-08T09:32:40Z</time></trkpt><trkpt lat="39.33407771852589" lon="8.742171222298"><ele>130.0</ele><time>2026-04-08T09:32:41Z</time></trkpt><trkpt lat="39.334034373029446" lon="8.741852973498185"><ele>131.0</ele><time>2026-04-08T09:32:42Z</time></trkpt><trkpt lat="39.33398969469125" lon="8.741539635169556"><ele>131.0</ele><time>2026-04-08T09:32:43Z</time></trkpt><trkpt lat="39.333949310714196" lon="8.741231530928243"><ele>131.0</ele><time>2026-04-08T09:32:44Z</time></trkpt><trkpt lat="39.33390995589215" lon="8.740928091407905"><ele>130.0</ele><time>2026-04-08T09:32:45Z</time></trkpt><trkpt lat="39.33386888371416" lon="8.740627512420737"><ele>129.0</ele><time>2026-04-08T09:32:46Z</time></trkpt><trkpt lat="39.33382860342212" lon="8.7403246732736"><ele>130.0</ele><time>2026-04-08T09:32:47Z</time></trkpt><trkpt lat="39.33379189014569" lon="8.74003241606718"><ele>131.0</ele><time>2026-04-08T09:32:47.999Z</time></trkpt><trkpt lat="39.333759904942575" lon="8.739765252626471"><ele>132.0</ele><time>2026-04-08T09:32:48.999Z</time></trkpt><trkpt lat="39.33373012608431" lon="8.739522255847518"><ele>132.0</ele><time>2026-04-08T09:32:49.999Z</time></trkpt><trkpt lat="39.3337000119353" lon="8.73929506933833"><ele>132.0</ele><time>2026-04-08T09:32:50.999Z</time></trkpt><trkpt lat="39.33367198003327" lon="8.739082518786944"><ele>132.0</ele><time>2026-04-08T09:32:51.999Z</time></trkpt><trkpt lat="39.33365186902323" lon="8.738889446246374"><ele>132.0</ele><time>2026-04-08T09:32:52.999Z</time></trkpt><trkpt lat="39.333632993690244" lon="8.738725812174113"><ele>132.0</ele><time>2026-04-08T09:32:53.999Z</time></trkpt><trkpt lat="39.33361222712189" lon="8.738581341831756"><ele>132.0</ele><time>2026-04-08T09:32:54.999Z</time></trkpt><trkpt lat="39.3335998818721" lon="8.738451094966202"><ele>132.0</ele><time>2026-04-08T09:32:55.999Z</time></trkpt><trkpt lat="39.33357448637677" lon="8.738343435034755"><ele>132.0</ele><time>2026-04-08T09:32:56.999Z</time></trkpt><trkpt lat="39.33356892711679" lon="8.738247532411947"><ele>132.0</ele><time>2026-04-08T09:32:57.999Z</time></trkpt><trkpt lat="39.33343496793219" lon="8.738186609669418"><ele>132.0</ele><time>2026-04-08T09:32:58.999Z</time></trkpt><trkpt lat="39.33334475712298" lon="8.738137832352074"><ele>132.0</ele><time>2026-04-08T09:32:59.999Z</time></trkpt><trkpt lat="39.33325022469416" lon="8.738119311872032"><ele>132.0</ele><time>2026-04-08T09:33:00.999Z</time></trkpt><trkpt lat="39.33315947669465" lon="8.738135527309764"><ele>132.0</ele><time>2026-04-08T09:33:01.999Z</time></trkpt><trkpt lat="39.333071880888625" lon="8.738182572513361"><ele>130.75</ele><time>2026-04-08T09:33:02.999Z</time></trkpt><trkpt lat="39.33298313381186" lon="8.738247929733008"><ele>129.5</ele><time>2026-04-08T09:33:03.999Z</time></trkpt><trkpt lat="39.332885953371516" lon="8.738321533121344"><ele>128.25</ele><time>2026-04-08T09:33:04.999Z</time></trkpt><trkpt lat="39.332782611681424" lon="8.73839155909661"><ele>127.0</ele><time>2026-04-08T09:33:05.999Z</time></trkpt><trkpt lat="39.33268464603891" lon="8.73848504134069"><ele>127.0</ele><time>2026-04-08T09:33:06.999Z</time></trkpt><trkpt lat="39.332538613719365" lon="8.738512421268767"><ele>127.0</ele><time>2026-04-08T09:33:07.999Z</time></trkpt><trkpt lat="39.332402843587815" lon="8.738567514891972"><ele>127.0</ele><time>2026-04-08T09:33:08.999Z</time></trkpt><trkpt lat="39.3322544363457" lon="8.738610168434331"><ele>127.0</ele><time>2026-04-08T09:33:09.999Z</time></trkpt><trkpt lat="39.332071748358544" lon="8.738654207142796"><ele>126.0</ele><time>2026-04-08T09:33:10.999Z</time></trkpt><trkpt lat="39.33186936502081" lon="8.738706873802327"><ele>125.0</ele><time>2026-04-08T09:33:11.999Z</time></trkpt><trkpt lat="39.33164250555844" lon="8.738772705835464"><ele>124.0</ele><time>2026-04-08T09:33:12.999Z</time></trkpt><trkpt lat="39.33141749862818" lon="8.738822084352494"><ele>122.0</ele><time>2026-04-08T09:33:13.999Z</time></trkpt><trkpt lat="39.3311885306643" lon="8.738867725148072"><ele>120.0</ele><time>2026-04-08T09:33:14.999Z</time></trkpt><trkpt lat="39.33089464482304" lon="8.738967557992751"><ele>120.0</ele><time>2026-04-08T09:33:15.999Z</time></trkpt><trkpt lat="39.33062331000939" lon="8.739039936555134"><ele>120.0</ele><time>2026-04-08T09:33:16.999Z</time></trkpt><trkpt lat="39.33034977689867" lon="8.739117082367082"><ele>118.5</ele><time>2026-04-08T09:33:17.999Z</time></trkpt><trkpt lat="39.33007456423434" lon="8.739188665630149"><ele>117.0</ele><time>2026-04-08T09:33:18.999Z</time></trkpt><trkpt lat="39.329807025251434" lon="8.739258882610333"><ele>116.0</ele><time>2026-04-08T09:33:19.999Z</time></trkpt><trkpt lat="39.32953936897745" lon="8.739327803563311"><ele>115.0</ele><time>2026-04-08T09:33:20.999Z</time></trkpt><trkpt lat="39.32926796809664" lon="8.739399649964339"><ele>115.0</ele><time>2026-04-08T09:33:21.999Z</time></trkpt><trkpt lat="39.328996899143284" lon="8.739466715892442"><ele>115.0</ele><time>2026-04-08T09:33:22.999Z</time></trkpt><trkpt lat="39.32872878696238" lon="8.739539483186597"><ele>113.5</ele><time>2026-04-08T09:33:23.999Z</time></trkpt><trkpt lat="39.32845954842746" lon="8.73961604475527"><ele>112.0</ele><time>2026-04-08T09:33:24.999Z</time></trkpt><trkpt lat="39.328198220271375" lon="8.739689047548357"><ele>111.0</ele><time>2026-04-08T09:33:25.999Z</time></trkpt><trkpt lat="39.32793187553135" lon="8.739765948669888"><ele>110.0</ele><time>2026-04-08T09:33:26.998Z</time></trkpt><trkpt lat="39.32766707102179" lon="8.739838045330574"><ele>110.0</ele><time>2026-04-08T09:33:27.998Z</time></trkpt><trkpt lat="39.327407040798455" lon="8.73990891874923"><ele>110.0</ele><time>2026-04-08T09:33:28.998Z</time></trkpt><trkpt lat="39.327143771964" lon="8.73997947581357"><ele>109.0</ele><time>2026-04-08T09:33:29.998Z</time></trkpt><trkpt lat="39.32688185154923" lon="8.740048554730091"><ele>108.0</ele><time>2026-04-08T09:33:30.998Z</time></trkpt><trkpt lat="39.326611366838826" lon="8.740120276584507"><ele>107.5</ele><time>2026-04-08T09:33:31.998Z</time></trkpt><trkpt lat="39.326329047733296" lon="8.740196923767405"><ele>107.0</ele><time>2026-04-08T09:33:32.998Z</time></trkpt><trkpt lat="39.326025019951544" lon="8.74027930097587"><ele>107.0</ele><time>2026-04-08T09:33:33.998Z</time></trkpt><trkpt lat="39.32570857779849" lon="8.740359866931568"><ele>107.0</ele><time>2026-04-08T09:33:34.998Z</time></trkpt><trkpt lat="39.32538975085442" lon="8.740446756650782"><ele>104.5</ele><time>2026-04-08T09:33:35.998Z</time></trkpt><trkpt lat="39.32506710491038" lon="8.74053378029184"><ele>102.0</ele><time>2026-04-08T09:33:36.998Z</time></trkpt><trkpt lat="39.324744020453714" lon="8.740616947470663"><ele>101.0</ele><time>2026-04-08T09:33:37.998Z</time></trkpt><trkpt lat="39.32442269877627" lon="8.74070388415089"><ele>100.0</ele><time>2026-04-08T09:33:38.998Z</time></trkpt><trkpt lat="39.32410631392849" lon="8.740791809228439"><ele>99.5</ele><time>2026-04-08T09:33:39.998Z</time></trkpt><trkpt lat="39.323780869493945" lon="8.740882626375539"><ele>99.0</ele><time>2026-04-08T09:33:40.998Z</time></trkpt><trkpt lat="39.323453936397925" lon="8.74096952677459"><ele>98.0</ele><time>2026-04-08T09:33:41.998Z</time></trkpt><trkpt lat="39.32312691213401" lon="8.741055888317561"><ele>97.0</ele><time>2026-04-08T09:33:42.998Z</time></trkpt><trkpt lat="39.32280519118766" lon="8.741137777210678"><ele>96.5</ele><time>2026-04-08T09:33:43.998Z</time></trkpt><trkpt lat="39.32248688452752" lon="8.741220492380315"><ele>96.0</ele><time>2026-04-08T09:33:44.998Z</time></trkpt><trkpt lat="39.322174703904814" lon="8.741306696497876"><ele>95.0</ele><time>2026-04-08T09:33:45.998Z</time></trkpt><trkpt lat="39.32186803724649" lon="8.741389075333949"><ele>94.0</ele><time>2026-04-08T09:33:46.998Z</time></trkpt><trkpt lat="39.32156886455339" lon="8.74147121345838"><ele>92.5</ele><time>2026-04-08T09:33:47.998Z</time></trkpt><trkpt lat="39.32127513095795" lon="8.74154807722149"><ele>91.0</ele><time>2026-04-08T09:33:48.998Z</time></trkpt><trkpt lat="39.320985367034595" lon="8.741628599789408"><ele>91.0</ele><time>2026-04-08T09:33:49.998Z</time></trkpt><trkpt lat="39.320699308251825" lon="8.741710750799417"><ele>91.0</ele><time>2026-04-08T09:33:50.998Z</time></trkpt><trkpt lat="39.320422871252276" lon="8.741784417233346"><ele>90.5</ele><time>2026-04-08T09:33:51.998Z</time></trkpt><trkpt lat="39.320152632757434" lon="8.741858903810071"><ele>90.0</ele><time>2026-04-08T09:33:52.998Z</time></trkpt><trkpt lat="39.31985757449983" lon="8.741951973860639"><ele>88.5</ele><time>2026-04-08T09:33:53.998Z</time></trkpt><trkpt lat="39.31954452242937" lon="8.74204231513742"><ele>87.0</ele><time>2026-04-08T09:33:54.998Z</time></trkpt><trkpt lat="39.31924022994501" lon="8.742115261008815"><ele>87.0</ele><time>2026-04-08T09:33:55.998Z</time></trkpt><trkpt lat="39.3189454632826" lon="8.742178125256997"><ele>87.0</ele><time>2026-04-08T09:33:56.998Z</time></trkpt><trkpt lat="39.31865202933332" lon="8.742248577854603"><ele>86.5</ele><time>2026-04-08T09:33:57.998Z</time></trkpt><trkpt lat="39.31837499049128" lon="8.742320837964664"><ele>86.0</ele><time>2026-04-08T09:33:58.998Z</time></trkpt><trkpt lat="39.31811718738638" lon="8.742381423230547"><ele>86.0</ele><time>2026-04-08T09:33:59.998Z</time></trkpt><trkpt lat="39.31787029091393" lon="8.742437214987994"><ele>86.0</ele><time>2026-04-08T09:34:00.998Z</time></trkpt><trkpt lat="39.317622686457796" lon="8.742491345523476"><ele>86.0</ele><time>2026-04-08T09:34:01.998Z</time></trkpt><trkpt lat="39.3173740647339" lon="8.742545904885134"><ele>86.0</ele><time>2026-04-08T09:34:02.998Z</time></trkpt><trkpt lat="39.31711982268989" lon="8.742601454393805"><ele>86.0</ele><time>2026-04-08T09:34:03.998Z</time></trkpt><trkpt lat="39.3168658283171" lon="8.742656415080877"><ele>86.0</ele><time>2026-04-08T09:34:04.998Z</time></trkpt><trkpt lat="39.31662971625597" lon="8.74269735867573"><ele>85.0</ele><time>2026-04-08T09:34:06Z</time></trkpt><trkpt lat="39.31640232897434" lon="8.742732334195603"><ele>84.0</ele><time>2026-04-08T09:34:07Z</time></trkpt><trkpt lat="39.31616870923341" lon="8.74277556542651"><ele>84.0</ele><time>2026-04-08T09:34:08Z</time></trkpt><trkpt lat="39.31592107211979" lon="8.742827492107033"><ele>84.0</ele><time>2026-04-08T09:34:09Z</time></trkpt><trkpt lat="39.31564600555546" lon="8.742890099540821"><ele>84.0</ele><time>2026-04-08T09:34:10Z</time></trkpt><trkpt lat="39.31534857463537" lon="8.742923543421819"><ele>84.0</ele><time>2026-04-08T09:34:11Z</time></trkpt><trkpt lat="39.31504899265135" lon="8.742979513641616"><ele>84.0</ele><time>2026-04-08T09:34:12Z</time></trkpt><trkpt lat="39.314749184397684" lon="8.743035526132203"><ele>84.0</ele><time>2026-04-08T09:34:13Z</time></trkpt><trkpt lat="39.31445043647913" lon="8.743098970423434"><ele>84.0</ele><time>2026-04-08T09:34:14Z</time></trkpt><trkpt lat="39.31414077081422" lon="8.74314576180478"><ele>84.0</ele><time>2026-04-08T09:34:15Z</time></trkpt><trkpt lat="39.313837830885774" lon="8.743199896283478"><ele>84.0</ele><time>2026-04-08T09:34:16Z</time></trkpt><trkpt lat="39.31352127356295" lon="8.743262193181057"><ele>84.0</ele><time>2026-04-08T09:34:17Z</time></trkpt><trkpt lat="39.31320354499516" lon="8.743326086733962"><ele>84.0</ele><time>2026-04-08T09:34:18Z</time></trkpt><trkpt lat="39.312876509590815" lon="8.743387872453763"><ele>84.0</ele><time>2026-04-08T09:34:19Z</time></trkpt><trkpt lat="39.31254474730734" lon="8.743443303504586"><ele>84.0</ele><time>2026-04-08T09:34:20Z</time></trkpt><trkpt lat="39.31221707984512" lon="8.74350171216525"><ele>84.0</ele><time>2026-04-08T09:34:21Z</time></trkpt><trkpt lat="39.31188316560707" lon="8.743562886063467"><ele>83.5</ele><time>2026-04-08T09:34:22Z</time></trkpt><trkpt lat="39.31155350020905" lon="8.743629580539439"><ele>83.0</ele><time>2026-04-08T09:34:23Z</time></trkpt><trkpt lat="39.31125974404608" lon="8.743689825479466"><ele>82.0</ele><time>2026-04-08T09:34:24Z</time></trkpt><trkpt lat="39.31098770780503" lon="8.743746122435898"><ele>81.0</ele><time>2026-04-08T09:34:25Z</time></trkpt><trkpt lat="39.310735645973615" lon="8.7437894069583"><ele>81.0</ele><time>2026-04-08T09:34:26Z</time></trkpt><trkpt lat="39.310477661672685" lon="8.743831182290153"><ele>81.0</ele><time>2026-04-08T09:34:27Z</time></trkpt><trkpt lat="39.31020822513403" lon="8.743881119683907"><ele>81.0</ele><time>2026-04-08T09:34:28Z</time></trkpt><trkpt lat="39.30993015065652" lon="8.743934947871576"><ele>81.0</ele><time>2026-04-08T09:34:29Z</time></trkpt><trkpt lat="39.309649429382105" lon="8.743983542170108"><ele>80.0</ele><time>2026-04-08T09:34:30Z</time></trkpt><trkpt lat="39.30936701659327" lon="8.744014861948012"><ele>79.0</ele><time>2026-04-08T09:34:31Z</time></trkpt><trkpt lat="39.309079413080006" lon="8.744017927423833"><ele>79.5</ele><time>2026-04-08T09:34:32Z</time></trkpt><trkpt lat="39.3087928692225" lon="8.744005711315603"><ele>80.0</ele><time>2026-04-08T09:34:33Z</time></trkpt><trkpt lat="39.30849902832669" lon="8.743979546731019"><ele>80.0</ele><time>2026-04-08T09:34:34Z</time></trkpt><trkpt lat="39.30820846196027" lon="8.743936881378382"><ele>80.0</ele><time>2026-04-08T09:34:35Z</time></trkpt><trkpt lat="39.30791551757779" lon="8.743875773426419"><ele>80.0</ele><time>2026-04-08T09:34:36Z</time></trkpt><trkpt lat="39.30762827990533" lon="8.743792306571166"><ele>80.0</ele><time>2026-04-08T09:34:37Z</time></trkpt><trkpt lat="39.30734617313" lon="8.743690769194203"><ele>79.5</ele><time>2026-04-08T09:34:38Z</time></trkpt><trkpt lat="39.30706578594756" lon="8.743580794278225"><ele>79.0</ele><time>2026-04-08T09:34:39Z</time></trkpt><trkpt lat="39.306789505873574" lon="8.743457526888665"><ele>80.0</ele><time>2026-04-08T09:34:40Z</time></trkpt><trkpt lat="39.306543217093754" lon="8.743325507697016"><ele>81.0</ele><time>2026-04-08T09:34:41Z</time></trkpt><trkpt lat="39.30631314948608" lon="8.74319041031101"><ele>81.0</ele><time>2026-04-08T09:34:42Z</time></trkpt><trkpt lat="39.30610058580738" lon="8.743063804003613"><ele>81.0</ele><time>2026-04-08T09:34:43Z</time></trkpt><trkpt lat="39.305908589281316" lon="8.742933174726808"><ele>81.0</ele><time>2026-04-08T09:34:44Z</time></trkpt><trkpt lat="39.30573410929967" lon="8.742793594790761"><ele>81.0</ele><time>2026-04-08T09:34:45Z</time></trkpt><trkpt lat="39.30556950039439" lon="8.742662419629093"><ele>81.0</ele><time>2026-04-08T09:34:46Z</time></trkpt><trkpt lat="39.30542043390363" lon="8.742547786108393"><ele>80.33333333333333</ele><time>2026-04-08T09:34:47Z</time></trkpt><trkpt lat="39.30528825383203" lon="8.742411954103735"><ele>79.66666666666666</ele><time>2026-04-08T09:34:48Z</time></trkpt><trkpt lat="39.30516100060493" lon="8.742255900424391"><ele>79.0</ele><time>2026-04-08T09:34:49Z</time></trkpt><trkpt lat="39.30504272977618" lon="8.742085064514153"><ele>79.0</ele><time>2026-04-08T09:34:50Z</time></trkpt><trkpt lat="39.30493896979416" lon="8.74190516239584"><ele>79.0</ele><time>2026-04-08T09:34:51Z</time></trkpt><trkpt lat="39.30485031398835" lon="8.741715117712575"><ele>79.0</ele><time>2026-04-08T09:34:52Z</time></trkpt><trkpt lat="39.30477262466361" lon="8.741510839694314"><ele>79.66666666666666</ele><time>2026-04-08T09:34:53Z</time></trkpt><trkpt lat="39.30471214209736" lon="8.741301108311918"><ele>80.33333333333333</ele><time>2026-04-08T09:34:53.999Z</time></trkpt><trkpt lat="39.304665832163" lon="8.741093301643543"><ele>81.0</ele><time>2026-04-08T09:34:54.999Z</time></trkpt><trkpt lat="39.304642625515044" lon="8.740879977010742"><ele>81.0</ele><time>2026-04-08T09:34:55.999Z</time></trkpt><trkpt lat="39.30463669146887" lon="8.7406500744492"><ele>81.0</ele><time>2026-04-08T09:34:56.999Z</time></trkpt><trkpt lat="39.30464595005495" lon="8.740403784235047"><ele>81.0</ele><time>2026-04-08T09:34:57.999Z</time></trkpt><trkpt lat="39.304662019453566" lon="8.740148932884727"><ele>80.66666666666667</ele><time>2026-04-08T09:34:58.999Z</time></trkpt><trkpt lat="39.3046623645256" lon="8.739874913104558"><ele>80.33333333333334</ele><time>2026-04-08T09:34:59.999Z</time></trkpt><trkpt lat="39.3046606268633" lon="8.739580632129329"><ele>80.0</ele><time>2026-04-08T09:35:00.999Z</time></trkpt><trkpt lat="39.30467603065039" lon="8.739243241677967"><ele>81.0</ele><time>2026-04-08T09:35:01.999Z</time></trkpt><trkpt lat="39.30469919801896" lon="8.73887019454264"><ele>82.0</ele><time>2026-04-08T09:35:02.999Z</time></trkpt><trkpt lat="39.30472761266225" lon="8.738469253619893"><ele>82.5</ele><time>2026-04-08T09:35:03.999Z</time></trkpt><trkpt lat="39.30475155503901" lon="8.738067022677749"><ele>83.0</ele><time>2026-04-08T09:35:04.999Z</time></trkpt><trkpt lat="39.30477235703087" lon="8.737685138414793"><ele>84.0</ele><time>2026-04-08T09:35:05.999Z</time></trkpt><trkpt lat="39.304791055445115" lon="8.737315567147915"><ele>85.0</ele><time>2026-04-08T09:35:06.999Z</time></trkpt><trkpt lat="39.304808810372705" lon="8.73695174456231"><ele>86.0</ele><time>2026-04-08T09:35:07.999Z</time></trkpt><trkpt lat="39.304830477175685" lon="8.736595385962007"><ele>87.0</ele><time>2026-04-08T09:35:08.999Z</time></trkpt><trkpt lat="39.30485306374577" lon="8.736237893242034"><ele>87.5</ele><time>2026-04-08T09:35:09.999Z</time></trkpt><trkpt lat="39.30486973254589" lon="8.735882845325856"><ele>88.0</ele><time>2026-04-08T09:35:10.999Z</time></trkpt><trkpt lat="39.304888319217625" lon="8.735516938876547"><ele>87.0</ele><time>2026-04-08T09:35:11.999Z</time></trkpt><trkpt lat="39.304909997790716" lon="8.73515191434529"><ele>86.0</ele><time>2026-04-08T09:35:12.999Z</time></trkpt><trkpt lat="39.304932305216035" lon="8.734787350120508"><ele>86.0</ele><time>2026-04-08T09:35:13.999Z</time></trkpt><trkpt lat="39.30495054933156" lon="8.734426001518663"><ele>86.0</ele><time>2026-04-08T09:35:14.999Z</time></trkpt><trkpt lat="39.30496623387511" lon="8.734065391224664"><ele>85.5</ele><time>2026-04-08T09:35:15.999Z</time></trkpt><trkpt lat="39.304985485239726" lon="8.733708708874305"><ele>85.0</ele><time>2026-04-08T09:35:16.999Z</time></trkpt><trkpt lat="39.30500611561838" lon="8.733352494899894"><ele>85.0</ele><time>2026-04-08T09:35:17.999Z</time></trkpt><trkpt lat="39.30502910048971" lon="8.733003107096083"><ele>85.0</ele><time>2026-04-08T09:35:18.999Z</time></trkpt><trkpt lat="39.305049056471866" lon="8.732657299149114"><ele>86.0</ele><time>2026-04-08T09:35:19.999Z</time></trkpt><trkpt lat="39.30506918942884" lon="8.732306194616214"><ele>87.0</ele><time>2026-04-08T09:35:20.999Z</time></trkpt><trkpt lat="39.305086053521464" lon="8.731949705211628"><ele>88.0</ele><time>2026-04-08T09:35:21.999Z</time></trkpt><trkpt lat="39.30510430163995" lon="8.731592073040513"><ele>89.0</ele><time>2026-04-08T09:35:22.999Z</time></trkpt><trkpt lat="39.30512278828157" lon="8.731237569551697"><ele>90.5</ele><time>2026-04-08T09:35:23.999Z</time></trkpt><trkpt lat="39.30514635732032" lon="8.730874674012393"><ele>92.0</ele><time>2026-04-08T09:35:24.999Z</time></trkpt><trkpt lat="39.30516423078709" lon="8.73051431301507"><ele>93.0</ele><time>2026-04-08T09:35:25.999Z</time></trkpt><trkpt lat="39.30518316095355" lon="8.730151443505385"><ele>94.0</ele><time>2026-04-08T09:35:26.999Z</time></trkpt><trkpt lat="39.30521063990847" lon="8.729787461439185"><ele>94.0</ele><time>2026-04-08T09:35:27.999Z</time></trkpt><trkpt lat="39.30523391966352" lon="8.729424000673541"><ele>94.0</ele><time>2026-04-08T09:35:28.999Z</time></trkpt><trkpt lat="39.30524736850521" lon="8.72905231238652"><ele>94.0</ele><time>2026-04-08T09:35:29.999Z</time></trkpt><trkpt lat="39.30526313061722" lon="8.72867613056808"><ele>94.0</ele><time>2026-04-08T09:35:30.999Z</time></trkpt><trkpt lat="39.305285127094955" lon="8.728299420956043"><ele>94.5</ele><time>2026-04-08T09:35:31.999Z</time></trkpt><trkpt lat="39.30530954291726" lon="8.72791940126533"><ele>95.0</ele><time>2026-04-08T09:35:32.998Z</time></trkpt><trkpt lat="39.30533128053809" lon="8.72753733184032"><ele>95.0</ele><time>2026-04-08T09:35:33.998Z</time></trkpt><trkpt lat="39.30535702343392" lon="8.727154778497747"><ele>95.0</ele><time>2026-04-08T09:35:34.998Z</time></trkpt><trkpt lat="39.30537858194725" lon="8.726774680745109"><ele>95.0</ele><time>2026-04-08T09:35:35.998Z</time></trkpt><trkpt lat="39.30539692243859" lon="8.726392844440282"><ele>95.0</ele><time>2026-04-08T09:35:36.998Z</time></trkpt><trkpt lat="39.30541480663631" lon="8.72600876065134"><ele>95.0</ele><time>2026-04-08T09:35:37.998Z</time></trkpt><trkpt lat="39.30543552837826" lon="8.72562326596837"><ele>95.0</ele><time>2026-04-08T09:35:38.998Z</time></trkpt><trkpt lat="39.30545980928579" lon="8.72523798672979"><ele>96.0</ele><time>2026-04-08T09:35:39.998Z</time></trkpt><trkpt lat="39.30548348836639" lon="8.724850635656402"><ele>97.0</ele><time>2026-04-08T09:35:40.998Z</time></trkpt><trkpt lat="39.30550159835482" lon="8.724460707669351"><ele>97.5</ele><time>2026-04-08T09:35:41.998Z</time></trkpt><trkpt lat="39.305517022539355" lon="8.724072095338707"><ele>98.0</ele><time>2026-04-08T09:35:42.998Z</time></trkpt><trkpt lat="39.305532170040856" lon="8.723653247092047"><ele>98.5</ele><time>2026-04-08T09:35:43.998Z</time></trkpt><trkpt lat="39.305548916275605" lon="8.723195858094638"><ele>99.0</ele><time>2026-04-08T09:35:44.998Z</time></trkpt><trkpt lat="39.30557398135324" lon="8.72273095525656"><ele>99.5</ele><time>2026-04-08T09:35:45.998Z</time></trkpt><trkpt lat="39.305604547853946" lon="8.722262560047305"><ele>100.0</ele><time>2026-04-08T09:35:46.998Z</time></trkpt><trkpt lat="39.30563087971296" lon="8.72178917773044"><ele>100.0</ele><time>2026-04-08T09:35:47.998Z</time></trkpt><trkpt lat="39.30565738571683" lon="8.721322468117528"><ele>100.0</ele><time>2026-04-08T09:35:48.998Z</time></trkpt><trkpt lat="39.30568200324729" lon="8.720861776910931"><ele>99.5</ele><time>2026-04-08T09:35:49.998Z</time></trkpt><trkpt lat="39.30570759276616" lon="8.72040229375785"><ele>99.0</ele><time>2026-04-08T09:35:50.998Z</time></trkpt><trkpt lat="39.305734737390125" lon="8.71994666284731"><ele>99.0</ele><time>2026-04-08T09:35:51.998Z</time></trkpt><trkpt lat="39.30575860466632" lon="8.719495046836593"><ele>99.0</ele><time>2026-04-08T09:35:52.998Z</time></trkpt><trkpt lat="39.3057810075884" lon="8.719048781823428"><ele>99.0</ele><time>2026-04-08T09:35:53.998Z</time></trkpt><trkpt lat="39.30580407157937" lon="8.71860634612618"><ele>99.0</ele><time>2026-04-08T09:35:54.998Z</time></trkpt><trkpt lat="39.3058291280848" lon="8.71816420063003"><ele>96.0</ele><time>2026-04-08T09:35:55.998Z</time></trkpt><trkpt lat="39.30585533418252" lon="8.717727729252825"><ele>93.0</ele><time>2026-04-08T09:35:56.998Z</time></trkpt><trkpt lat="39.30588258744323" lon="8.717295087102634"><ele>92.0</ele><time>2026-04-08T09:35:57.998Z</time></trkpt><trkpt lat="39.30591106002965" lon="8.71686549338616"><ele>91.0</ele><time>2026-04-08T09:35:58.998Z</time></trkpt><trkpt lat="39.3059400912843" lon="8.71644551746427"><ele>92.0</ele><time>2026-04-08T09:35:59.998Z</time></trkpt><trkpt lat="39.30596794147643" lon="8.716034167529337"><ele>93.0</ele><time>2026-04-08T09:36:00.998Z</time></trkpt><trkpt lat="39.305987734656455" lon="8.715617413023825"><ele>93.5</ele><time>2026-04-08T09:36:01.998Z</time></trkpt><trkpt lat="39.30600711682355" lon="8.715197443826668"><ele>94.0</ele><time>2026-04-08T09:36:02.998Z</time></trkpt><trkpt lat="39.30603517690533" lon="8.714780636895068"><ele>95.5</ele><time>2026-04-08T09:36:03.998Z</time></trkpt><trkpt lat="39.30605952003087" lon="8.714356987478002"><ele>97.0</ele><time>2026-04-08T09:36:04.998Z</time></trkpt><trkpt lat="39.306081974801806" lon="8.713932928514913"><ele>97.0</ele><time>2026-04-08T09:36:05.998Z</time></trkpt><trkpt lat="39.30610090555474" lon="8.713502262934394"><ele>97.0</ele><time>2026-04-08T09:36:06.998Z</time></trkpt><trkpt lat="39.30612460474886" lon="8.713063596202183"><ele>96.5</ele><time>2026-04-08T09:36:07.998Z</time></trkpt><trkpt lat="39.30615104366381" lon="8.712618667393745"><ele>96.0</ele><time>2026-04-08T09:36:08.998Z</time></trkpt><trkpt lat="39.306177957092565" lon="8.712171274529055"><ele>96.0</ele><time>2026-04-08T09:36:09.998Z</time></trkpt><trkpt lat="39.30620164360666" lon="8.711716870948157"><ele>96.0</ele><time>2026-04-08T09:36:11Z</time></trkpt><trkpt lat="39.30622676884606" lon="8.711269587877677"><ele>96.5</ele><time>2026-04-08T09:36:12Z</time></trkpt><trkpt lat="39.30624797667997" lon="8.71083279464491"><ele>97.0</ele><time>2026-04-08T09:36:13Z</time></trkpt><trkpt lat="39.30626456084021" lon="8.71039980180116"><ele>101.5</ele><time>2026-04-08T09:36:14Z</time></trkpt><trkpt lat="39.30628582152242" lon="8.709981771028485"><ele>106.0</ele><time>2026-04-08T09:36:15Z</time></trkpt><trkpt lat="39.30630712768486" lon="8.709567812109032"><ele>108.0</ele><time>2026-04-08T09:36:16Z</time></trkpt><trkpt lat="39.30633624094008" lon="8.70914314100967"><ele>110.0</ele><time>2026-04-08T09:36:17Z</time></trkpt><trkpt lat="39.30636712487968" lon="8.70871684943573"><ele>110.0</ele><time>2026-04-08T09:36:18Z</time></trkpt><trkpt lat="39.30639640952723" lon="8.708290611465829"><ele>110.0</ele><time>2026-04-08T09:36:19Z</time></trkpt><trkpt lat="39.30642221452135" lon="8.707861396609669"><ele>110.5</ele><time>2026-04-08T09:36:20Z</time></trkpt><trkpt lat="39.30644508012606" lon="8.707430797558626"><ele>111.0</ele><time>2026-04-08T09:36:21Z</time></trkpt><trkpt lat="39.30646765229581" lon="8.70700933256209"><ele>112.0</ele><time>2026-04-08T09:36:22Z</time></trkpt><trkpt lat="39.3064905236374" lon="8.706582913058357"><ele>113.0</ele><time>2026-04-08T09:36:23Z</time></trkpt><trkpt lat="39.30651317011422" lon="8.706153243543376"><ele>112.5</ele><time>2026-04-08T09:36:24Z</time></trkpt><trkpt lat="39.30653490665784" lon="8.705721769374561"><ele>112.0</ele><time>2026-04-08T09:36:25Z</time></trkpt><trkpt lat="39.3065581647016" lon="8.70529193289973"><ele>112.5</ele><time>2026-04-08T09:36:26Z</time></trkpt><trkpt lat="39.30658250449895" lon="8.704864461646403"><ele>113.0</ele><time>2026-04-08T09:36:27Z</time></trkpt><trkpt lat="39.30660924409439" lon="8.704439012058321"><ele>112.0</ele><time>2026-04-08T09:36:28Z</time></trkpt><trkpt lat="39.30663629578782" lon="8.703997264060785"><ele>111.0</ele><time>2026-04-08T09:36:29Z</time></trkpt><trkpt lat="39.30665897748879" lon="8.703566661830855"><ele>111.0</ele><time>2026-04-08T09:36:30Z</time></trkpt><trkpt lat="39.30668010847885" lon="8.703135328879021"><ele>111.0</ele><time>2026-04-08T09:36:31Z</time></trkpt><trkpt lat="39.30670405404305" lon="8.702705444837195"><ele>110.0</ele><time>2026-04-08T09:36:32Z</time></trkpt><trkpt lat="39.30672391017158" lon="8.702281851697178"><ele>109.0</ele><time>2026-04-08T09:36:33Z</time></trkpt><trkpt lat="39.306745752454454" lon="8.701850931144"><ele>109.0</ele><time>2026-04-08T09:36:34Z</time></trkpt><trkpt lat="39.30677080059878" lon="8.701423584065138"><ele>109.0</ele><time>2026-04-08T09:36:35Z</time></trkpt><trkpt lat="39.30679175237601" lon="8.70100137583877"><ele>106.5</ele><time>2026-04-08T09:36:36Z</time></trkpt><trkpt lat="39.30681429675804" lon="8.700579992783064"><ele>104.0</ele><time>2026-04-08T09:36:37Z</time></trkpt><trkpt lat="39.30684061114668" lon="8.700167604191996"><ele>103.0</ele><time>2026-04-08T09:36:38Z</time></trkpt><trkpt lat="39.306863740762786" lon="8.699760116834215"><ele>102.0</ele><time>2026-04-08T09:36:39Z</time></trkpt><trkpt lat="39.306889087443835" lon="8.699346394037843"><ele>102.0</ele><time>2026-04-08T09:36:40Z</time></trkpt><trkpt lat="39.30691397840683" lon="8.698932588619371"><ele>102.0</ele><time>2026-04-08T09:36:41Z</time></trkpt><trkpt lat="39.30694051774928" lon="8.698496465522327"><ele>102.0</ele><time>2026-04-08T09:36:42Z</time></trkpt><trkpt lat="39.306963082381195" lon="8.698061063146685"><ele>102.0</ele><time>2026-04-08T09:36:43Z</time></trkpt><trkpt lat="39.30698361708428" lon="8.697633376250746"><ele>102.5</ele><time>2026-04-08T09:36:44Z</time></trkpt><trkpt lat="39.30700267677966" lon="8.697209115385192"><ele>103.0</ele><time>2026-04-08T09:36:45Z</time></trkpt><trkpt lat="39.307024773118926" lon="8.696788650826791"><ele>103.5</ele><time>2026-04-08T09:36:46Z</time></trkpt><trkpt lat="39.307050730855394" lon="8.696376664714366"><ele>104.0</ele><time>2026-04-08T09:36:47Z</time></trkpt><trkpt lat="39.30707521370094" lon="8.69597723021055"><ele>104.5</ele><time>2026-04-08T09:36:48Z</time></trkpt><trkpt lat="39.30709926560083" lon="8.69560192662075"><ele>105.0</ele><time>2026-04-08T09:36:49Z</time></trkpt><trkpt lat="39.307118609407" lon="8.695262996642429"><ele>105.0</ele><time>2026-04-08T09:36:50Z</time></trkpt><trkpt lat="39.30711822384107" lon="8.694912272448654"><ele>105.0</ele><time>2026-04-08T09:36:51Z</time></trkpt><trkpt lat="39.3071298895007" lon="8.694518324527946"><ele>106.0</ele><time>2026-04-08T09:36:52Z</time></trkpt><trkpt lat="39.30715487767514" lon="8.694106453016303"><ele>107.0</ele><time>2026-04-08T09:36:53Z</time></trkpt><trkpt lat="39.307189602050705" lon="8.693691436448535"><ele>108.0</ele><time>2026-04-08T09:36:54Z</time></trkpt><trkpt lat="39.307227009853655" lon="8.693272343541011"><ele>109.0</ele><time>2026-04-08T09:36:55Z</time></trkpt><trkpt lat="39.30725377922157" lon="8.692839550272318"><ele>111.0</ele><time>2026-04-08T09:36:56Z</time></trkpt><trkpt lat="39.30727251595912" lon="8.6923910757159"><ele>113.0</ele><time>2026-04-08T09:36:57Z</time></trkpt><trkpt lat="39.30729253094463" lon="8.691938076883835"><ele>110.5</ele><time>2026-04-08T09:36:58Z</time></trkpt><trkpt lat="39.307319124070894" lon="8.691487442559941"><ele>108.0</ele><time>2026-04-08T09:36:59Z</time></trkpt><trkpt lat="39.307345271038145" lon="8.691036122606144"><ele>107.0</ele><time>2026-04-08T09:37:00Z</time></trkpt><trkpt lat="39.30736792171847" lon="8.690578907092076"><ele>106.0</ele><time>2026-04-08T09:37:00.999Z</time></trkpt><trkpt lat="39.307395532343214" lon="8.690120380883524"><ele>105.5</ele><time>2026-04-08T09:37:01.999Z</time></trkpt><trkpt lat="39.30742380164209" lon="8.689666757377788"><ele>105.0</ele><time>2026-04-08T09:37:02.999Z</time></trkpt><trkpt lat="39.30744912793523" lon="8.689216482657852"><ele>105.0</ele><time>2026-04-08T09:37:03.999Z</time></trkpt><trkpt lat="39.30747078334726" lon="8.688765292742515"><ele>105.0</ele><time>2026-04-08T09:37:04.999Z</time></trkpt><trkpt lat="39.30749462653025" lon="8.688319547454165"><ele>105.5</ele><time>2026-04-08T09:37:05.999Z</time></trkpt><trkpt lat="39.30751862495204" lon="8.6878752033661"><ele>106.0</ele><time>2026-04-08T09:37:06.999Z</time></trkpt><trkpt lat="39.307542170741364" lon="8.687435187953957"><ele>106.0</ele><time>2026-04-08T09:37:07.999Z</time></trkpt><trkpt lat="39.30756767416032" lon="8.686988900061907"><ele>106.0</ele><time>2026-04-08T09:37:08.999Z</time></trkpt><trkpt lat="39.30759174623126" lon="8.686555768346265"><ele>106.5</ele><time>2026-04-08T09:37:09.999Z</time></trkpt><trkpt lat="39.3076163081488" lon="8.68613977994791"><ele>107.0</ele><time>2026-04-08T09:37:10.999Z</time></trkpt><trkpt lat="39.30763971638299" lon="8.685730108619003"><ele>107.5</ele><time>2026-04-08T09:37:11.999Z</time></trkpt><trkpt lat="39.30766039963804" lon="8.685320418093571"><ele>108.0</ele><time>2026-04-08T09:37:12.999Z</time></trkpt><trkpt lat="39.3076821695869" lon="8.684892393942947"><ele>108.0</ele><time>2026-04-08T09:37:13.999Z</time></trkpt><trkpt lat="39.30770611031631" lon="8.684459534111047"><ele>108.0</ele><time>2026-04-08T09:37:14.999Z</time></trkpt><trkpt lat="39.307729942770095" lon="8.684037044126264"><ele>109.0</ele><time>2026-04-08T09:37:15.999Z</time></trkpt><trkpt lat="39.30775676427532" lon="8.683621567209848"><ele>110.0</ele><time>2026-04-08T09:37:16.999Z</time></trkpt><trkpt lat="39.307782176826194" lon="8.683221115745994"><ele>111.5</ele><time>2026-04-08T09:37:17.999Z</time></trkpt><trkpt lat="39.30780646477069" lon="8.68282997855522"><ele>113.0</ele><time>2026-04-08T09:37:18.999Z</time></trkpt><trkpt lat="39.30782743271425" lon="8.682445324797026"><ele>114.0</ele><time>2026-04-08T09:37:19.999Z</time></trkpt><trkpt lat="39.307847497297324" lon="8.682059164845183"><ele>115.0</ele><time>2026-04-08T09:37:20.999Z</time></trkpt><trkpt lat="39.30786504328503" lon="8.68166650905419"><ele>112.0</ele><time>2026-04-08T09:37:21.999Z</time></trkpt><trkpt lat="39.30788365641437" lon="8.681268642084536"><ele>109.0</ele><time>2026-04-08T09:37:22.999Z</time></trkpt><trkpt lat="39.30790732757799" lon="8.680872838847986"><ele>106.5</ele><time>2026-04-08T09:37:23.999Z</time></trkpt><trkpt lat="39.3079330717938" lon="8.680475851942017"><ele>104.0</ele><time>2026-04-08T09:37:24.999Z</time></trkpt><trkpt lat="39.307956286631764" lon="8.680085116526739"><ele>103.5</ele><time>2026-04-08T09:37:25.999Z</time></trkpt><trkpt lat="39.30797801210432" lon="8.67969215360471"><ele>103.0</ele><time>2026-04-08T09:37:26.999Z</time></trkpt><trkpt lat="39.307997676236" lon="8.679298831203711"><ele>104.0</ele><time>2026-04-08T09:37:27.999Z</time></trkpt><trkpt lat="39.308020037794066" lon="8.678905620027608"><ele>105.0</ele><time>2026-04-08T09:37:28.999Z</time></trkpt><trkpt lat="39.30804375989852" lon="8.678504676732112"><ele>106.5</ele><time>2026-04-08T09:37:29.999Z</time></trkpt><trkpt lat="39.30806753801476" lon="8.678113451643634"><ele>108.0</ele><time>2026-04-08T09:37:30.999Z</time></trkpt><trkpt lat="39.30808863275671" lon="8.677718342311312"><ele>108.5</ele><time>2026-04-08T09:37:31.999Z</time></trkpt><trkpt lat="39.30810961259082" lon="8.677322398141172"><ele>109.0</ele><time>2026-04-08T09:37:32.999Z</time></trkpt><trkpt lat="39.30813056712963" lon="8.676926961271498"><ele>109.5</ele><time>2026-04-08T09:37:33.999Z</time></trkpt><trkpt lat="39.30815295282103" lon="8.676531238173128"><ele>110.0</ele><time>2026-04-08T09:37:34.999Z</time></trkpt><trkpt lat="39.30817548054028" lon="8.676137075445707"><ele>111.0</ele><time>2026-04-08T09:37:35.999Z</time></trkpt><trkpt lat="39.30819760544119" lon="8.675744249867362"><ele>112.0</ele><time>2026-04-08T09:37:36.999Z</time></trkpt><trkpt lat="39.30821679047896" lon="8.675353576997347"><ele>112.0</ele><time>2026-04-08T09:37:37.999Z</time></trkpt><trkpt lat="39.30823982396788" lon="8.674964993374067"><ele>112.0</ele><time>2026-04-08T09:37:38.999Z</time></trkpt><trkpt lat="39.30826195103552" lon="8.674577407289473"><ele>112.5</ele><time>2026-04-08T09:37:39.998Z</time></trkpt><trkpt lat="39.30828005376922" lon="8.674189146396547"><ele>113.0</ele><time>2026-04-08T09:37:40.998Z</time></trkpt><trkpt lat="39.30829958023696" lon="8.673811018920905"><ele>112.0</ele><time>2026-04-08T09:37:41.998Z</time></trkpt><trkpt lat="39.30831683873498" lon="8.673421845941267"><ele>111.0</ele><time>2026-04-08T09:37:42.998Z</time></trkpt><trkpt lat="39.30833415211479" lon="8.673020408089958"><ele>111.5</ele><time>2026-04-08T09:37:43.998Z</time></trkpt><trkpt lat="39.308357459446675" lon="8.67260885057653"><ele>112.0</ele><time>2026-04-08T09:37:44.998Z</time></trkpt><trkpt lat="39.30838469634923" lon="8.672235112114361"><ele>113.0</ele><time>2026-04-08T09:37:45.998Z</time></trkpt><trkpt lat="39.308412321093165" lon="8.671912979788173"><ele>114.0</ele><time>2026-04-08T09:37:46.998Z</time></trkpt><trkpt lat="39.308445410241696" lon="8.671595460145612"><ele>114.0</ele><time>2026-04-08T09:37:47.998Z</time></trkpt><trkpt lat="39.308479154474334" lon="8.67127687970848"><ele>114.0</ele><time>2026-04-08T09:37:48.998Z</time></trkpt><trkpt lat="39.30851006535625" lon="8.67095834741941"><ele>116.0</ele><time>2026-04-08T09:37:49.998Z</time></trkpt><trkpt lat="39.308540784796655" lon="8.670645462731851"><ele>118.0</ele><time>2026-04-08T09:37:50.998Z</time></trkpt><trkpt lat="39.30857366022765" lon="8.67034215536661"><ele>119.5</ele><time>2026-04-08T09:37:51.998Z</time></trkpt><trkpt lat="39.30861090901095" lon="8.67003893399919"><ele>121.0</ele><time>2026-04-08T09:37:52.998Z</time></trkpt><trkpt lat="39.30865390848233" lon="8.669738587942307"><ele>122.0</ele><time>2026-04-08T09:37:53.998Z</time></trkpt><trkpt lat="39.30870299456775" lon="8.669426881064984"><ele>123.0</ele><time>2026-04-08T09:37:54.998Z</time></trkpt><trkpt lat="39.30875567238554" lon="8.66908834556377"><ele>123.0</ele><time>2026-04-08T09:37:55.998Z</time></trkpt><trkpt lat="39.30881048723722" lon="8.668744049304097"><ele>123.0</ele><time>2026-04-08T09:37:56.998Z</time></trkpt><trkpt lat="39.30885943165808" lon="8.66840984242287"><ele>124.0</ele><time>2026-04-08T09:37:57.998Z</time></trkpt><trkpt lat="39.308905589788345" lon="8.668081685453206"><ele>125.0</ele><time>2026-04-08T09:37:58.998Z</time></trkpt><trkpt lat="39.308949525468364" lon="8.667765174408643"><ele>125.0</ele><time>2026-04-08T09:37:59.998Z</time></trkpt><trkpt lat="39.308993379504585" lon="8.667452654007917"><ele>125.0</ele><time>2026-04-08T09:38:00.998Z</time></trkpt><trkpt lat="39.30903895677543" lon="8.667140252766528"><ele>121.5</ele><time>2026-04-08T09:38:01.998Z</time></trkpt><trkpt lat="39.30908790835282" lon="8.6668196517362"><ele>118.0</ele><time>2026-04-08T09:38:02.998Z</time></trkpt><trkpt lat="39.309140003748055" lon="8.666490021851333"><ele>118.0</ele><time>2026-04-08T09:38:03.998Z</time></trkpt><trkpt lat="39.30919296705887" lon="8.666155781402896"><ele>118.0</ele><time>2026-04-08T09:38:04.998Z</time></trkpt><trkpt lat="39.30924344766739" lon="8.665819896939905"><ele>115.5</ele><time>2026-04-08T09:38:05.998Z</time></trkpt><trkpt lat="39.30929379702447" lon="8.665482960243638"><ele>113.0</ele><time>2026-04-08T09:38:06.998Z</time></trkpt><trkpt lat="39.30934499885418" lon="8.665145037724862"><ele>112.5</ele><time>2026-04-08T09:38:07.998Z</time></trkpt><trkpt lat="39.30939415367478" lon="8.664804291583652"><ele>112.0</ele><time>2026-04-08T09:38:08.998Z</time></trkpt><trkpt lat="39.30944152387121" lon="8.66446176714698"><ele>112.5</ele><time>2026-04-08T09:38:09.998Z</time></trkpt><trkpt lat="39.30948841021631" lon="8.664114834240134"><ele>113.0</ele><time>2026-04-08T09:38:10.998Z</time></trkpt><trkpt lat="39.309541194194395" lon="8.663765571153785"><ele>115.5</ele><time>2026-04-08T09:38:11.998Z</time></trkpt><trkpt lat="39.309596712689654" lon="8.663413997000776"><ele>118.0</ele><time>2026-04-08T09:38:12.998Z</time></trkpt><trkpt lat="39.309650413702705" lon="8.663064763478713"><ele>120.0</ele><time>2026-04-08T09:38:13.998Z</time></trkpt><trkpt lat="39.30970292443656" lon="8.662714892904523"><ele>122.0</ele><time>2026-04-08T09:38:14.998Z</time></trkpt><trkpt lat="39.309755341244696" lon="8.662365382121695"><ele>122.5</ele><time>2026-04-08T09:38:15.998Z</time></trkpt><trkpt lat="39.30980705284724" lon="8.662016552513185"><ele>123.0</ele><time>2026-04-08T09:38:17Z</time></trkpt><trkpt lat="39.30985895991286" lon="8.661671251023487"><ele>124.0</ele><time>2026-04-08T09:38:18Z</time></trkpt><trkpt lat="39.309911288977844" lon="8.661328352425583"><ele>125.0</ele><time>2026-04-08T09:38:19Z</time></trkpt><trkpt lat="39.30996100953702" lon="8.660986312649518"><ele>125.5</ele><time>2026-04-08T09:38:20Z</time></trkpt><trkpt lat="39.310010006207825" lon="8.660645240910535"><ele>126.0</ele><time>2026-04-08T09:38:21Z</time></trkpt><trkpt lat="39.310059151682914" lon="8.660304911795428"><ele>125.5</ele><time>2026-04-08T09:38:22Z</time></trkpt><trkpt lat="39.31010466778511" lon="8.659974491998902"><ele>125.0</ele><time>2026-04-08T09:38:23Z</time></trkpt><trkpt lat="39.31016283885127" lon="8.659615035672"><ele>124.5</ele><time>2026-04-08T09:38:24Z</time></trkpt><trkpt lat="39.310215079196745" lon="8.65924501820952"><ele>124.0</ele><time>2026-04-08T09:38:25Z</time></trkpt><trkpt lat="39.31027727178869" lon="8.65886899964734"><ele>125.0</ele><time>2026-04-08T09:38:26Z</time></trkpt><trkpt lat="39.31033690192519" lon="8.658481461850073"><ele>126.0</ele><time>2026-04-08T09:38:27Z</time></trkpt><trkpt lat="39.310394619553115" lon="8.65808695404629"><ele>126.0</ele><time>2026-04-08T09:38:28Z</time></trkpt><trkpt lat="39.31045291854673" lon="8.657680481773045"><ele>126.0</ele><time>2026-04-08T09:38:29Z</time></trkpt><trkpt lat="39.31051631475095" lon="8.657271380062177"><ele>126.5</ele><time>2026-04-08T09:38:30Z</time></trkpt><trkpt lat="39.310581556881225" lon="8.656864109591144"><ele>127.0</ele><time>2026-04-08T09:38:31Z</time></trkpt><trkpt lat="39.31064332415017" lon="8.656451961347486"><ele>127.5</ele><time>2026-04-08T09:38:32Z</time></trkpt><trkpt lat="39.310702268649734" lon="8.656030160479006"><ele>128.0</ele><time>2026-04-08T09:38:33Z</time></trkpt><trkpt lat="39.31076055194339" lon="8.65560880872269"><ele>127.5</ele><time>2026-04-08T09:38:34Z</time></trkpt><trkpt lat="39.310822627536815" lon="8.655187196757614"><ele>127.0</ele><time>2026-04-08T09:38:35Z</time></trkpt><trkpt lat="39.3108871650841" lon="8.654765474285186"><ele>126.0</ele><time>2026-04-08T09:38:36Z</time></trkpt><trkpt lat="39.31095270734538" lon="8.654343360182995"><ele>125.0</ele><time>2026-04-08T09:38:37Z</time></trkpt><trkpt lat="39.31101503767002" lon="8.653925761169683"><ele>125.0</ele><time>2026-04-08T09:38:38Z</time></trkpt><trkpt lat="39.31107538423949" lon="8.653505690766218"><ele>125.0</ele><time>2026-04-08T09:38:39Z</time></trkpt><trkpt lat="39.31113798606308" lon="8.653087134130507"><ele>125.0</ele><time>2026-04-08T09:38:40Z</time></trkpt><trkpt lat="39.311203288029915" lon="8.65266935136182"><ele>125.0</ele><time>2026-04-08T09:38:41Z</time></trkpt><trkpt lat="39.31126860855712" lon="8.652250658343824"><ele>125.0</ele><time>2026-04-08T09:38:42Z</time></trkpt><trkpt lat="39.31133164699099" lon="8.651830450737538"><ele>125.0</ele><time>2026-04-08T09:38:43Z</time></trkpt><trkpt lat="39.31139469415309" lon="8.651404444057444"><ele>126.0</ele><time>2026-04-08T09:38:44Z</time></trkpt><trkpt lat="39.31145758142056" lon="8.650969977734905"><ele>127.0</ele><time>2026-04-08T09:38:45Z</time></trkpt><trkpt lat="39.31152049045694" lon="8.650537424749917"><ele>126.5</ele><time>2026-04-08T09:38:46Z</time></trkpt><trkpt lat="39.31158649825202" lon="8.650110338406307"><ele>126.0</ele><time>2026-04-08T09:38:47Z</time></trkpt><trkpt lat="39.311653373308964" lon="8.649689752653202"><ele>125.0</ele><time>2026-04-08T09:38:48Z</time></trkpt><trkpt lat="39.31171649281982" lon="8.649264719241353"><ele>124.0</ele><time>2026-04-08T09:38:49Z</time></trkpt><trkpt lat="39.311778862630455" lon="8.648848008274975"><ele>124.5</ele><time>2026-04-08T09:38:50Z</time></trkpt><trkpt lat="39.311841430031684" lon="8.648428200372562"><ele>125.0</ele><time>2026-04-08T09:38:51Z</time></trkpt><trkpt lat="39.31190598030816" lon="8.648006118079868"><ele>125.5</ele><time>2026-04-08T09:38:52Z</time></trkpt><trkpt lat="39.311969041044144" lon="8.64758432116586"><ele>126.0</ele><time>2026-04-08T09:38:53Z</time></trkpt><trkpt lat="39.31203026404683" lon="8.6471641825885"><ele>126.0</ele><time>2026-04-08T09:38:54Z</time></trkpt><trkpt lat="39.312090965942225" lon="8.646746099253196"><ele>126.0</ele><time>2026-04-08T09:38:55Z</time></trkpt><trkpt lat="39.312154434136005" lon="8.646330173283037"><ele>126.0</ele><time>2026-04-08T09:38:56Z</time></trkpt><trkpt lat="39.31221997717773" lon="8.645916397132634"><ele>126.0</ele><time>2026-04-08T09:38:57Z</time></trkpt><trkpt lat="39.31228504053303" lon="8.645506159462268"><ele>126.0</ele><time>2026-04-08T09:38:58Z</time></trkpt><trkpt lat="39.31234620819136" lon="8.645094812174646"><ele>126.0</ele><time>2026-04-08T09:38:59Z</time></trkpt><trkpt lat="39.31240776834115" lon="8.644680643267574"><ele>127.0</ele><time>2026-04-08T09:39:00Z</time></trkpt><trkpt lat="39.31246888843104" lon="8.6442691583512"><ele>128.0</ele><time>2026-04-08T09:39:01Z</time></trkpt><trkpt lat="39.312525670506886" lon="8.643859042756617"><ele>127.0</ele><time>2026-04-08T09:39:02Z</time></trkpt><trkpt lat="39.3125891274491" lon="8.643439571547804"><ele>126.0</ele><time>2026-04-08T09:39:03Z</time></trkpt><trkpt lat="39.312655661254055" lon="8.643004574121399"><ele>125.5</ele><time>2026-04-08T09:39:04Z</time></trkpt><trkpt lat="39.31271134275438" lon="8.642627195732862"><ele>125.0</ele><time>2026-04-08T09:39:04.999Z</time></trkpt><trkpt lat="39.31277118899232" lon="8.64221473873223"><ele>125.0</ele><time>2026-04-08T09:39:05.999Z</time></trkpt><trkpt lat="39.312831041767396" lon="8.641796429272684"><ele>125.0</ele><time>2026-04-08T09:39:06.999Z</time></trkpt><trkpt lat="39.312894160057" lon="8.641368612083063"><ele>124.0</ele><time>2026-04-08T09:39:07.999Z</time></trkpt><trkpt lat="39.31296193794227" lon="8.640944302333274"><ele>123.0</ele><time>2026-04-08T09:39:08.999Z</time></trkpt><trkpt lat="39.313028867680586" lon="8.640519238975767"><ele>123.5</ele><time>2026-04-08T09:39:09.999Z</time></trkpt><trkpt lat="39.313089568031295" lon="8.640094362921216"><ele>124.0</ele><time>2026-04-08T09:39:10.999Z</time></trkpt><trkpt lat="39.31314971909089" lon="8.639669407390462"><ele>125.0</ele><time>2026-04-08T09:39:11.999Z</time></trkpt><trkpt lat="39.3132173702065" lon="8.639251065141499"><ele>126.0</ele><time>2026-04-08T09:39:12.999Z</time></trkpt><trkpt lat="39.31328270922746" lon="8.638837153714695"><ele>125.5</ele><time>2026-04-08T09:39:13.999Z</time></trkpt><trkpt lat="39.31334218060843" lon="8.638422964208674"><ele>125.0</ele><time>2026-04-08T09:39:14.999Z</time></trkpt><trkpt lat="39.313402993024035" lon="8.638011872302314"><ele>125.0</ele><time>2026-04-08T09:39:15.999Z</time></trkpt><trkpt lat="39.313463946140544" lon="8.637607421350781"><ele>125.0</ele><time>2026-04-08T09:39:16.999Z</time></trkpt><trkpt lat="39.313525415684275" lon="8.637208538635402"><ele>124.5</ele><time>2026-04-08T09:39:17.999Z</time></trkpt><trkpt lat="39.313585362801106" lon="8.636814189566506"><ele>124.0</ele><time>2026-04-08T09:39:18.999Z</time></trkpt><trkpt lat="39.313642584820855" lon="8.63643374826443"><ele>123.5</ele><time>2026-04-08T09:39:19.999Z</time></trkpt><trkpt lat="39.3136986593144" lon="8.636052739722814"><ele>123.0</ele><time>2026-04-08T09:39:20.999Z</time></trkpt><trkpt lat="39.31375257766639" lon="8.63567268606633"><ele>123.5</ele><time>2026-04-08T09:39:21.999Z</time></trkpt><trkpt lat="39.313807433880044" lon="8.63529420219388"><ele>124.0</ele><time>2026-04-08T09:39:22.999Z</time></trkpt><trkpt lat="39.313866434596946" lon="8.634915471001227"><ele>125.5</ele><time>2026-04-08T09:39:23.999Z</time></trkpt><trkpt lat="39.313924168387196" lon="8.634543241813462"><ele>127.0</ele><time>2026-04-08T09:39:24.999Z</time></trkpt><trkpt lat="39.313977181832435" lon="8.634171070808428"><ele>127.0</ele><time>2026-04-08T09:39:25.999Z</time></trkpt><trkpt lat="39.31403124210705" lon="8.633802114045992"><ele>127.0</ele><time>2026-04-08T09:39:26.999Z</time></trkpt><trkpt lat="39.314084495851304" lon="8.633428175096068"><ele>126.5</ele><time>2026-04-08T09:39:27.999Z</time></trkpt><trkpt lat="39.314144170707564" lon="8.633055873595483"><ele>126.0</ele><time>2026-04-08T09:39:28.999Z</time></trkpt><trkpt lat="39.314204743861936" lon="8.632681692299103"><ele>127.5</ele><time>2026-04-08T09:39:29.999Z</time></trkpt><trkpt lat="39.31425900806138" lon="8.632312597593451"><ele>129.0</ele><time>2026-04-08T09:39:30.999Z</time></trkpt><trkpt lat="39.314307920578884" lon="8.631933566313803"><ele>129.5</ele><time>2026-04-08T09:39:31.999Z</time></trkpt><trkpt lat="39.314350400933925" lon="8.63154301587049"><ele>130.0</ele><time>2026-04-08T09:39:32.999Z</time></trkpt><trkpt lat="39.31439061391788" lon="8.63115420227228"><ele>131.0</ele><time>2026-04-08T09:39:33.999Z</time></trkpt><trkpt lat="39.31442674369857" lon="8.630769215839221"><ele>132.0</ele><time>2026-04-08T09:39:34.999Z</time></trkpt><trkpt lat="39.314458414346475" lon="8.63038200004966"><ele>130.0</ele><time>2026-04-08T09:39:35.999Z</time></trkpt><trkpt lat="39.314481982680924" lon="8.629987014618411"><ele>128.0</ele><time>2026-04-08T09:39:36.999Z</time></trkpt><trkpt lat="39.31449880730513" lon="8.629595092407419"><ele>128.0</ele><time>2026-04-08T09:39:37.999Z</time></trkpt><trkpt lat="39.31450813255609" lon="8.629198659349635"><ele>128.0</ele><time>2026-04-08T09:39:38.999Z</time></trkpt><trkpt lat="39.314518160029394" lon="8.628806701123738"><ele>128.5</ele><time>2026-04-08T09:39:39.999Z</time></trkpt><trkpt lat="39.314524987205914" lon="8.628418652990002"><ele>129.0</ele><time>2026-04-08T09:39:40.999Z</time></trkpt><trkpt lat="39.314527602237845" lon="8.628030699729035"><ele>129.5</ele><time>2026-04-08T09:39:41.999Z</time></trkpt><trkpt lat="39.31452178430643" lon="8.627641070026266"><ele>130.0</ele><time>2026-04-08T09:39:42.999Z</time></trkpt><trkpt lat="39.31450904439558" lon="8.627253513912246"><ele>129.5</ele><time>2026-04-08T09:39:43.998Z</time></trkpt><trkpt lat="39.31449026402249" lon="8.626866976678661"><ele>129.0</ele><time>2026-04-08T09:39:44.998Z</time></trkpt><trkpt lat="39.314465005414434" lon="8.626484708239404"><ele>130.0</ele><time>2026-04-08T09:39:45.998Z</time></trkpt><trkpt lat="39.314435508837825" lon="8.626110428978452"><ele>131.0</ele><time>2026-04-08T09:39:46.998Z</time></trkpt><trkpt lat="39.31440309507164" lon="8.62573833835909"><ele>131.0</ele><time>2026-04-08T09:39:47.998Z</time></trkpt><trkpt lat="39.314366326995994" lon="8.625345874355832"><ele>131.0</ele><time>2026-04-08T09:39:48.998Z</time></trkpt><trkpt lat="39.31431468038899" lon="8.624960772842464"><ele>131.5</ele><time>2026-04-08T09:39:49.998Z</time></trkpt><trkpt lat="39.31426604510358" lon="8.624572428920294"><ele>132.0</ele><time>2026-04-08T09:39:50.998Z</time></trkpt><trkpt lat="39.31421771147739" lon="8.624185992697841"><ele>133.0</ele><time>2026-04-08T09:39:51.998Z</time></trkpt><trkpt lat="39.3141649088947" lon="8.623798862007323"><ele>134.0</ele><time>2026-04-08T09:39:52.998Z</time></trkpt><trkpt lat="39.31410668866949" lon="8.623414429390316"><ele>135.0</ele><time>2026-04-08T09:39:53.998Z</time></trkpt><trkpt lat="39.31404319353401" lon="8.623033377290781"><ele>136.0</ele><time>2026-04-08T09:39:54.998Z</time></trkpt><trkpt lat="39.313977544202444" lon="8.622652976816427"><ele>136.0</ele><time>2026-04-08T09:39:55.998Z</time></trkpt><trkpt lat="39.313903502256224" lon="8.622274437322062"><ele>136.0</ele><time>2026-04-08T09:39:56.998Z</time></trkpt><trkpt lat="39.31381404937126" lon="8.62187142223789"><ele>136.0</ele><time>2026-04-08T09:39:57.998Z</time></trkpt><trkpt lat="39.31371307740934" lon="8.621443481654678"><ele>136.0</ele><time>2026-04-08T09:39:58.998Z</time></trkpt><trkpt lat="39.31359835515444" lon="8.620990989621891"><ele>136.0</ele><time>2026-04-08T09:39:59.998Z</time></trkpt><trkpt lat="39.313471108853314" lon="8.620525990911158"><ele>136.0</ele><time>2026-04-08T09:40:00.998Z</time></trkpt><trkpt lat="39.313344551228155" lon="8.620058892580373"><ele>136.0</ele><time>2026-04-08T09:40:01.998Z</time></trkpt><trkpt lat="39.3132174277904" lon="8.619581033132645"><ele>136.0</ele><time>2026-04-08T09:40:02.998Z</time></trkpt><trkpt lat="39.31309886804229" lon="8.619104543945662"><ele>135.0</ele><time>2026-04-08T09:40:03.998Z</time></trkpt><trkpt lat="39.312990049601936" lon="8.618678361658635"><ele>134.0</ele><time>2026-04-08T09:40:04.998Z</time></trkpt><trkpt lat="39.312886226408224" lon="8.618281024211067"><ele>133.5</ele><time>2026-04-08T09:40:05.998Z</time></trkpt><trkpt lat="39.312776037716034" lon="8.617867401664306"><ele>133.0</ele><time>2026-04-08T09:40:06.998Z</time></trkpt><trkpt lat="39.31266506797285" lon="8.617450431241009"><ele>133.0</ele><time>2026-04-08T09:40:07.998Z</time></trkpt><trkpt lat="39.31255734047724" lon="8.617042167547684"><ele>133.0</ele><time>2026-04-08T09:40:08.998Z</time></trkpt><trkpt lat="39.312451486191044" lon="8.616636604926345"><ele>132.0</ele><time>2026-04-08T09:40:09.998Z</time></trkpt><trkpt lat="39.312345211102325" lon="8.616233031256654"><ele>131.0</ele><time>2026-04-08T09:40:10.998Z</time></trkpt><trkpt lat="39.312239091916666" lon="8.615833541089472"><ele>130.5</ele><time>2026-04-08T09:40:11.998Z</time></trkpt><trkpt lat="39.3121338759515" lon="8.61544117912546"><ele>130.0</ele><time>2026-04-08T09:40:12.998Z</time></trkpt><trkpt lat="39.31203102610522" lon="8.615054491956908"><ele>131.5</ele><time>2026-04-08T09:40:13.998Z</time></trkpt><trkpt lat="39.31193201712887" lon="8.614671061010613"><ele>133.0</ele><time>2026-04-08T09:40:14.998Z</time></trkpt><trkpt lat="39.31183401398785" lon="8.61429057880278"><ele>134.0</ele><time>2026-04-08T09:40:15.998Z</time></trkpt><trkpt lat="39.311735016808186" lon="8.613918641240039"><ele>135.0</ele><time>2026-04-08T09:40:16.998Z</time></trkpt><trkpt lat="39.31163943589559" lon="8.613563870253785"><ele>136.0</ele><time>2026-04-08T09:40:17.998Z</time></trkpt><trkpt lat="39.31155372605637" lon="8.613242738226871"><ele>137.0</ele><time>2026-04-08T09:40:18.998Z</time></trkpt><trkpt lat="39.311474450782136" lon="8.612943249764731"><ele>139.0</ele><time>2026-04-08T09:40:19.998Z</time></trkpt><trkpt lat="39.3113967200894" lon="8.612653040068757"><ele>141.0</ele><time>2026-04-08T09:40:20.998Z</time></trkpt><trkpt lat="39.31131504447849" lon="8.61234408450604"><ele>141.0</ele><time>2026-04-08T09:40:22Z</time></trkpt><trkpt lat="39.31123435763625" lon="8.612033952117114"><ele>141.0</ele><time>2026-04-08T09:40:23Z</time></trkpt><trkpt lat="39.31115207706135" lon="8.611717969005776"><ele>139.5</ele><time>2026-04-08T09:40:24Z</time></trkpt><trkpt lat="39.311068882088286" lon="8.611403708291515"><ele>138.0</ele><time>2026-04-08T09:40:25Z</time></trkpt><trkpt lat="39.310983271644766" lon="8.611086718790439"><ele>137.5</ele><time>2026-04-08T09:40:26Z</time></trkpt><trkpt lat="39.31089525958412" lon="8.610765997603696"><ele>137.0</ele><time>2026-04-08T09:40:27Z</time></trkpt><trkpt lat="39.31081439340366" lon="8.610466332298161"><ele>137.0</ele><time>2026-04-08T09:40:28Z</time></trkpt><trkpt lat="39.310739650898135" lon="8.610184702707842"><ele>137.0</ele><time>2026-04-08T09:40:29Z</time></trkpt><trkpt lat="39.31065809748672" lon="8.609884459068034"><ele>136.5</ele><time>2026-04-08T09:40:30Z</time></trkpt><trkpt lat="39.31057118440435" lon="8.609565893213446"><ele>136.0</ele><time>2026-04-08T09:40:31Z</time></trkpt><trkpt lat="39.31048726905933" lon="8.609244434645708"><ele>136.0</ele><time>2026-04-08T09:40:32Z</time></trkpt><trkpt lat="39.310407232798774" lon="8.608921951941952"><ele>136.0</ele><time>2026-04-08T09:40:33Z</time></trkpt><trkpt lat="39.31032379248169" lon="8.608605375889619"><ele>136.0</ele><time>2026-04-08T09:40:34Z</time></trkpt><trkpt lat="39.310233201090966" lon="8.608283517953154"><ele>136.0</ele><time>2026-04-08T09:40:35Z</time></trkpt><trkpt lat="39.31013567747514" lon="8.607957526799373"><ele>136.0</ele><time>2026-04-08T09:40:36Z</time></trkpt><trkpt lat="39.310040806812495" lon="8.607631518872752"><ele>136.0</ele><time>2026-04-08T09:40:37Z</time></trkpt><trkpt lat="39.30995065503891" lon="8.607295292487365"><ele>138.0</ele><time>2026-04-08T09:40:38Z</time></trkpt><trkpt lat="39.309867952133466" lon="8.606947950530305"><ele>140.0</ele><time>2026-04-08T09:40:39Z</time></trkpt><trkpt lat="39.30978528593819" lon="8.606602348955395"><ele>139.5</ele><time>2026-04-08T09:40:40Z</time></trkpt><trkpt lat="39.30969689335534" lon="8.60625040836154"><ele>139.0</ele><time>2026-04-08T09:40:41Z</time></trkpt><trkpt lat="39.30960314397281" lon="8.605895259023914"><ele>139.0</ele><time>2026-04-08T09:40:42Z</time></trkpt><trkpt lat="39.30950998683768" lon="8.605537202702195"><ele>139.0</ele><time>2026-04-08T09:40:43Z</time></trkpt><trkpt lat="39.309414774383285" lon="8.605179438268188"><ele>139.0</ele><time>2026-04-08T09:40:44Z</time></trkpt><trkpt lat="39.309318664598266" lon="8.60481930040648"><ele>139.0</ele><time>2026-04-08T09:40:45Z</time></trkpt><trkpt lat="39.30922379514499" lon="8.60446137464046"><ele>139.5</ele><time>2026-04-08T09:40:46Z</time></trkpt><trkpt lat="39.30913042541291" lon="8.604101235904109"><ele>140.0</ele><time>2026-04-08T09:40:47Z</time></trkpt><trkpt lat="39.30903410952856" lon="8.603738747974301"><ele>140.0</ele><time>2026-04-08T09:40:48Z</time></trkpt><trkpt lat="39.30893486541152" lon="8.60337204989394"><ele>140.0</ele><time>2026-04-08T09:40:49Z</time></trkpt><trkpt lat="39.30883623532992" lon="8.60300296703476"><ele>139.0</ele><time>2026-04-08T09:40:50Z</time></trkpt><trkpt lat="39.30873816776423" lon="8.602630684341305"><ele>138.0</ele><time>2026-04-08T09:40:51Z</time></trkpt><trkpt lat="39.308640321330394" lon="8.602257889512495"><ele>139.0</ele><time>2026-04-08T09:40:52Z</time></trkpt><trkpt lat="39.30854111114135" lon="8.601883528952381"><ele>140.0</ele><time>2026-04-08T09:40:53Z</time></trkpt><trkpt lat="39.308443093745026" lon="8.601505816092052"><ele>140.5</ele><time>2026-04-08T09:40:54Z</time></trkpt><trkpt lat="39.308343793345315" lon="8.601129213504636"><ele>141.0</ele><time>2026-04-08T09:40:55Z</time></trkpt><trkpt lat="39.30824340015815" lon="8.600749523827453"><ele>141.0</ele><time>2026-04-08T09:40:56Z</time></trkpt><trkpt lat="39.308141094520046" lon="8.600365931901031"><ele>141.0</ele><time>2026-04-08T09:40:57Z</time></trkpt><trkpt lat="39.308037232175685" lon="8.599973168724539"><ele>140.5</ele><time>2026-04-08T09:40:58Z</time></trkpt><trkpt lat="39.30793174621614" lon="8.59956996488953"><ele>140.0</ele><time>2026-04-08T09:40:59Z</time></trkpt><trkpt lat="39.30782389356131" lon="8.599164800256549"><ele>140.0</ele><time>2026-04-08T09:41:00Z</time></trkpt><trkpt lat="39.307712797100976" lon="8.598746129631976"><ele>140.0</ele><time>2026-04-08T09:41:01Z</time></trkpt><trkpt lat="39.3075989187053" lon="8.598315987838257"><ele>140.5</ele><time>2026-04-08T09:41:02Z</time></trkpt><trkpt lat="39.30748889591964" lon="8.597886068981282"><ele>141.0</ele><time>2026-04-08T09:41:03Z</time></trkpt><trkpt lat="39.307377659884565" lon="8.597459532083905"><ele>140.5</ele><time>2026-04-08T09:41:04Z</time></trkpt><trkpt lat="39.30726088295993" lon="8.597039626224298"><ele>140.0</ele><time>2026-04-08T09:41:05Z</time></trkpt><trkpt lat="39.307136929252934" lon="8.596620930204171"><ele>140.0</ele><time>2026-04-08T09:41:06Z</time></trkpt><trkpt lat="39.307006446133784" lon="8.59620581710526"><ele>140.0</ele><time>2026-04-08T09:41:07Z</time></trkpt><trkpt lat="39.306876150592224" lon="8.595790907663508"><ele>141.0</ele><time>2026-04-08T09:41:07.999Z</time></trkpt><trkpt lat="39.30674671854286" lon="8.595377906590386"><ele>142.0</ele><time>2026-04-08T09:41:08.999Z</time></trkpt><trkpt lat="39.306619249675414" lon="8.594968307799052"><ele>142.0</ele><time>2026-04-08T09:41:09.999Z</time></trkpt><trkpt lat="39.30649469211087" lon="8.594557373297105"><ele>142.0</ele><time>2026-04-08T09:41:10.999Z</time></trkpt><trkpt lat="39.306376411230396" lon="8.594150768739008"><ele>142.5</ele><time>2026-04-08T09:41:11.999Z</time></trkpt><trkpt lat="39.30625945421318" lon="8.593743324686107"><ele>143.0</ele><time>2026-04-08T09:41:12.999Z</time></trkpt><trkpt lat="39.306146751387544" lon="8.5933364931911"><ele>143.0</ele><time>2026-04-08T09:41:13.999Z</time></trkpt><trkpt lat="39.306037089002764" lon="8.592929777667722"><ele>143.0</ele><time>2026-04-08T09:41:14.999Z</time></trkpt><trkpt lat="39.30592968987621" lon="8.59252353657648"><ele>143.5</ele><time>2026-04-08T09:41:15.999Z</time></trkpt><trkpt lat="39.30582113294288" lon="8.592118411547379"><ele>144.0</ele><time>2026-04-08T09:41:16.999Z</time></trkpt><trkpt lat="39.305708464229255" lon="8.591719219693422"><ele>144.5</ele><time>2026-04-08T09:41:17.999Z</time></trkpt><trkpt lat="39.3055936681867" lon="8.5913213361773"><ele>145.0</ele><time>2026-04-08T09:41:18.999Z</time></trkpt><trkpt lat="39.30548370172391" lon="8.590923428207853"><ele>144.5</ele><time>2026-04-08T09:41:19.999Z</time></trkpt><trkpt lat="39.30538014202857" lon="8.590527639955676"><ele>144.0</ele><time>2026-04-08T09:41:20.999Z</time></trkpt><trkpt lat="39.30528058146725" lon="8.590132560237937"><ele>144.0</ele><time>2026-04-08T09:41:21.999Z</time></trkpt><trkpt lat="39.305185124889995" lon="8.589726389691192"><ele>144.0</ele><time>2026-04-08T09:41:22.999Z</time></trkpt><trkpt lat="39.3050912723961" lon="8.58933080145628"><ele>144.0</ele><time>2026-04-08T09:41:23.999Z</time></trkpt><trkpt lat="39.304982587266" lon="8.588932076983815"><ele>144.0</ele><time>2026-04-08T09:41:24.999Z</time></trkpt><trkpt lat="39.30487021692676" lon="8.5885397223341"><ele>144.0</ele><time>2026-04-08T09:41:25.999Z</time></trkpt><trkpt lat="39.304763543163375" lon="8.588143666482996"><ele>144.0</ele><time>2026-04-08T09:41:26.999Z</time></trkpt><trkpt lat="39.30465888966962" lon="8.587753759313545"><ele>143.5</ele><time>2026-04-08T09:41:27.999Z</time></trkpt><trkpt lat="39.30455731987912" lon="8.587364919035494"><ele>143.0</ele><time>2026-04-08T09:41:28.999Z</time></trkpt><trkpt lat="39.30445648938856" lon="8.586981871134649"><ele>142.5</ele><time>2026-04-08T09:41:29.999Z</time></trkpt><trkpt lat="39.30435801176218" lon="8.586597895140196"><ele>142.0</ele><time>2026-04-08T09:41:30.999Z</time></trkpt><trkpt lat="39.30425809829381" lon="8.586215873522077"><ele>142.5</ele><time>2026-04-08T09:41:31.999Z</time></trkpt><trkpt lat="39.30415004238472" lon="8.585839802219498"><ele>143.0</ele><time>2026-04-08T09:41:32.999Z</time></trkpt><trkpt lat="39.30403898817295" lon="8.58546085669524"><ele>143.0</ele><time>2026-04-08T09:41:33.999Z</time></trkpt><trkpt lat="39.30393042675827" lon="8.585081993304808"><ele>143.0</ele><time>2026-04-08T09:41:34.999Z</time></trkpt><trkpt lat="39.30383267502435" lon="8.584702814349898"><ele>140.5</ele><time>2026-04-08T09:41:35.999Z</time></trkpt><trkpt lat="39.30374675159265" lon="8.584319526841915"><ele>138.0</ele><time>2026-04-08T09:41:36.999Z</time></trkpt><trkpt lat="39.303654174916154" lon="8.58394009516681"><ele>138.0</ele><time>2026-04-08T09:41:37.999Z</time></trkpt><trkpt lat="39.30355365367985" lon="8.583565315385252"><ele>138.0</ele><time>2026-04-08T09:41:38.999Z</time></trkpt><trkpt lat="39.30345189287297" lon="8.5831865931374"><ele>139.5</ele><time>2026-04-08T09:41:39.999Z</time></trkpt><trkpt lat="39.30335330980754" lon="8.582812939041066"><ele>141.0</ele><time>2026-04-08T09:41:40.999Z</time></trkpt><trkpt lat="39.30325678750163" lon="8.582441285475673"><ele>141.0</ele><time>2026-04-08T09:41:41.999Z</time></trkpt><trkpt lat="39.30315571691162" lon="8.582067225457944"><ele>141.0</ele><time>2026-04-08T09:41:42.999Z</time></trkpt><trkpt lat="39.303053775605875" lon="8.581692795771787"><ele>140.5</ele><time>2026-04-08T09:41:43.999Z</time></trkpt><trkpt lat="39.302953276340084" lon="8.58131653107223"><ele>140.0</ele><time>2026-04-08T09:41:44.999Z</time></trkpt><trkpt lat="39.302855038501875" lon="8.580940926705509"><ele>140.0</ele><time>2026-04-08T09:41:45.999Z</time></trkpt><trkpt lat="39.302756412906746" lon="8.580565368550289"><ele>140.0</ele><time>2026-04-08T09:41:46.999Z</time></trkpt><trkpt lat="39.30265458160814" lon="8.580190502057619"><ele>140.0</ele><time>2026-04-08T09:41:47.998Z</time></trkpt><trkpt lat="39.30255035029429" lon="8.579823469712663"><ele>140.0</ele><time>2026-04-08T09:41:48.998Z</time></trkpt><trkpt lat="39.30244017586088" lon="8.57943194258066"><ele>140.0</ele><time>2026-04-08T09:41:49.998Z</time></trkpt><trkpt lat="39.30232539783583" lon="8.579027108478225"><ele>140.0</ele><time>2026-04-08T09:41:50.998Z</time></trkpt><trkpt lat="39.30221481758805" lon="8.578624790077997"><ele>137.5</ele><time>2026-04-08T09:41:51.998Z</time></trkpt><trkpt lat="39.30210194984326" lon="8.578236996698756"><ele>135.0</ele><time>2026-04-08T09:41:52.998Z</time></trkpt><trkpt lat="39.30198658031579" lon="8.577870807346773"><ele>136.0</ele><time>2026-04-08T09:41:53.998Z</time></trkpt><trkpt lat="39.30186490806386" lon="8.57751988110022"><ele>137.0</ele><time>2026-04-08T09:41:54.998Z</time></trkpt><trkpt lat="39.30173203130274" lon="8.577179281035148"><ele>137.0</ele><time>2026-04-08T09:41:55.998Z</time></trkpt><trkpt lat="39.301580576765" lon="8.576852587480763"><ele>137.0</ele><time>2026-04-08T09:41:56.998Z</time></trkpt><trkpt lat="39.301406658328396" lon="8.576526868165848"><ele>137.0</ele><time>2026-04-08T09:41:57.998Z</time></trkpt><trkpt lat="39.301221754148656" lon="8.57620316827201"><ele>137.0</ele><time>2026-04-08T09:41:58.998Z</time></trkpt><trkpt lat="39.30103553762744" lon="8.575874719306425"><ele>137.5</ele><time>2026-04-08T09:41:59.998Z</time></trkpt><trkpt lat="39.300854020190826" lon="8.575540579554573"><ele>138.0</ele><time>2026-04-08T09:42:00.998Z</time></trkpt><trkpt lat="39.300685429061865" lon="8.575224985392651"><ele>137.0</ele><time>2026-04-08T09:42:01.998Z</time></trkpt><trkpt lat="39.30052289637611" lon="8.57492702656055"><ele>136.0</ele><time>2026-04-08T09:42:02.998Z</time></trkpt><trkpt lat="39.3003520912588" lon="8.574623146102118"><ele>136.0</ele><time>2026-04-08T09:42:03.998Z</time></trkpt><trkpt lat="39.30018372718205" lon="8.574314758820561"><ele>136.0</ele><time>2026-04-08T09:42:04.998Z</time></trkpt><trkpt lat="39.30002118833703" lon="8.573995460871222"><ele>137.0</ele><time>2026-04-08T09:42:05.998Z</time></trkpt><trkpt lat="39.29988180675236" lon="8.573679015892083"><ele>138.0</ele><time>2026-04-08T09:42:06.998Z</time></trkpt><trkpt lat="39.29976687849918" lon="8.5733743482314"><ele>138.0</ele><time>2026-04-08T09:42:07.998Z</time></trkpt><trkpt lat="39.29966133511878" lon="8.573066912011031"><ele>138.0</ele><time>2026-04-08T09:42:08.998Z</time></trkpt><trkpt lat="39.29956323188703" lon="8.57274702253131"><ele>138.0</ele><time>2026-04-08T09:42:09.998Z</time></trkpt><trkpt lat="39.29947354869231" lon="8.57240992003308"><ele>138.0</ele><time>2026-04-08T09:42:10.998Z</time></trkpt><trkpt lat="39.29941116213519" lon="8.572084784024478"><ele>140.0</ele><time>2026-04-08T09:42:11.998Z</time></trkpt><trkpt lat="39.29935405248801" lon="8.571763779650604"><ele>142.0</ele><time>2026-04-08T09:42:12.998Z</time></trkpt><trkpt lat="39.29928496835204" lon="8.571332275723952"><ele>142.5</ele><time>2026-04-08T09:42:13.998Z</time></trkpt><trkpt lat="39.29925936139475" lon="8.570952012922175"><ele>143.0</ele><time>2026-04-08T09:42:14.998Z</time></trkpt><trkpt lat="39.29925037705484" lon="8.570570474343567"><ele>142.0</ele><time>2026-04-08T09:42:15.998Z</time></trkpt><trkpt lat="39.29924083993545" lon="8.57018486213092"><ele>141.0</ele><time>2026-04-08T09:42:16.998Z</time></trkpt><trkpt lat="39.29924033042671" lon="8.569802387551796"><ele>141.5</ele><time>2026-04-08T09:42:17.998Z</time></trkpt><trkpt lat="39.29923020756449" lon="8.569426303262803"><ele>142.0</ele><time>2026-04-08T09:42:18.998Z</time></trkpt><trkpt lat="39.299219226793234" lon="8.569045055169246"><ele>141.0</ele><time>2026-04-08T09:42:19.998Z</time></trkpt><trkpt lat="39.29920536713319" lon="8.568669454627843"><ele>140.0</ele><time>2026-04-08T09:42:20.998Z</time></trkpt><trkpt lat="39.299191092911" lon="8.568297459204006"><ele>140.0</ele><time>2026-04-08T09:42:21.998Z</time></trkpt><trkpt lat="39.2991848132331" lon="8.56792992585952"><ele>140.0</ele><time>2026-04-08T09:42:22.998Z</time></trkpt><trkpt lat="39.29917265675185" lon="8.567562250295325"><ele>141.0</ele><time>2026-04-08T09:42:23.998Z</time></trkpt><trkpt lat="39.29915908724369" lon="8.567192496149909"><ele>142.0</ele><time>2026-04-08T09:42:24.998Z</time></trkpt><trkpt lat="39.29914340816584" lon="8.566829117959863"><ele>142.5</ele><time>2026-04-08T09:42:25.997Z</time></trkpt><trkpt lat="39.29914726833972" lon="8.566460952336147"><ele>143.0</ele><time>2026-04-08T09:42:26.997Z</time></trkpt><trkpt lat="39.299135747529846" lon="8.566092668053518"><ele>143.5</ele><time>2026-04-08T09:42:28Z</time></trkpt><trkpt lat="39.29912453053739" lon="8.565734095856525"><ele>144.0</ele><time>2026-04-08T09:42:29Z</time></trkpt><trkpt lat="39.29911333431509" lon="8.565376187655852"><ele>144.0</ele><time>2026-04-08T09:42:30Z</time></trkpt><trkpt lat="39.299102319956624" lon="8.565024093006253"><ele>144.0</ele><time>2026-04-08T09:42:31Z</time></trkpt><trkpt lat="39.29909158984465" lon="8.564666806148598"><ele>145.0</ele><time>2026-04-08T09:42:32Z</time></trkpt><trkpt lat="39.29906581685012" lon="8.564308568134539"><ele>146.0</ele><time>2026-04-08T09:42:33Z</time></trkpt><trkpt lat="39.29905587731725" lon="8.563951249708962"><ele>148.0</ele><time>2026-04-08T09:42:34Z</time></trkpt><trkpt lat="39.29904605232807" lon="8.563601203762747"><ele>150.0</ele><time>2026-04-08T09:42:35Z</time></trkpt><trkpt lat="39.29904812787052" lon="8.56324344351784"><ele>150.0</ele><time>2026-04-08T09:42:36Z</time></trkpt><trkpt lat="39.29902445129336" lon="8.56290088359772"><ele>150.0</ele><time>2026-04-08T09:42:37Z</time></trkpt><trkpt lat="39.29901506917447" lon="8.562546242463025"><ele>150.0</ele><time>2026-04-08T09:42:38Z</time></trkpt><trkpt lat="39.29900063151858" lon="8.562191582107868"><ele>150.0</ele><time>2026-04-08T09:42:39Z</time></trkpt><trkpt lat="39.29900456147446" lon="8.56184005478021"><ele>150.5</ele><time>2026-04-08T09:42:40Z</time></trkpt><trkpt lat="39.298993830357304" lon="8.561498542022926"><ele>151.0</ele><time>2026-04-08T09:42:41Z</time></trkpt><trkpt lat="39.29898315214951" lon="8.56115871306852"><ele>151.5</ele><time>2026-04-08T09:42:42Z</time></trkpt><trkpt lat="39.298971935492055" lon="8.56080174818942"><ele>152.0</ele><time>2026-04-08T09:42:43Z</time></trkpt><trkpt lat="39.29896001636165" lon="8.560432353203478"><ele>151.5</ele><time>2026-04-08T09:42:44Z</time></trkpt><trkpt lat="39.298948093324455" lon="8.560066131973207"><ele>151.0</ele><time>2026-04-08T09:42:45Z</time></trkpt><trkpt lat="39.29893585578496" lon="8.559694490506368"><ele>150.5</ele><time>2026-04-08T09:42:46Z</time></trkpt><trkpt lat="39.298911866888474" lon="8.559323970364582"><ele>150.0</ele><time>2026-04-08T09:42:47Z</time></trkpt><trkpt lat="39.29890497520463" lon="8.55894900614561"><ele>150.0</ele><time>2026-04-08T09:42:48Z</time></trkpt><trkpt lat="39.298893687722256" lon="8.558576060510285"><ele>150.0</ele><time>2026-04-08T09:42:49Z</time></trkpt><trkpt lat="39.29888060646539" lon="8.558209117528676"><ele>151.5</ele><time>2026-04-08T09:42:50Z</time></trkpt><trkpt lat="39.29887152308842" lon="8.55785945373317"><ele>153.0</ele><time>2026-04-08T09:42:51Z</time></trkpt><trkpt lat="39.29886579345467" lon="8.557552436269296"><ele>153.0</ele><time>2026-04-08T09:42:52Z</time></trkpt><trkpt lat="39.29885458669685" lon="8.557253688881698"><ele>153.0</ele><time>2026-04-08T09:42:53Z</time></trkpt><trkpt lat="39.298834586270246" lon="8.556962265483552"><ele>154.33333333333334</ele><time>2026-04-08T09:42:54Z</time></trkpt><trkpt lat="39.2988096156407" lon="8.556698771327842"><ele>155.66666666666669</ele><time>2026-04-08T09:42:55Z</time></trkpt><trkpt lat="39.298781813646144" lon="8.556460163452615"><ele>157.0</ele><time>2026-04-08T09:42:56Z</time></trkpt><trkpt lat="39.29875234998664" lon="8.556223233559678"><ele>158.33333333333334</ele><time>2026-04-08T09:42:57Z</time></trkpt><trkpt lat="39.298721533244056" lon="8.556001210501892"><ele>159.66666666666666</ele><time>2026-04-08T09:42:58Z</time></trkpt><trkpt lat="39.298691264112406" lon="8.555797870961182"><ele>161.0</ele><time>2026-04-08T09:42:59Z</time></trkpt><trkpt lat="39.29865300959878" lon="8.555585632769642"><ele>161.0</ele><time>2026-04-08T09:43:00Z</time></trkpt><trkpt lat="39.29861274053553" lon="8.555380853604895"><ele>161.0</ele><time>2026-04-08T09:43:01Z</time></trkpt><trkpt lat="39.29857363355809" lon="8.555186759732921"><ele>161.0</ele><time>2026-04-08T09:43:02Z</time></trkpt><trkpt lat="39.29852383687027" lon="8.554979494904801"><ele>162.66666666666666</ele><time>2026-04-08T09:43:03Z</time></trkpt><trkpt lat="39.29846683486238" lon="8.554783446986812"><ele>164.33333333333334</ele><time>2026-04-08T09:43:04Z</time></trkpt><trkpt lat="39.298407557188966" lon="8.554592051990452"><ele>166.0</ele><time>2026-04-08T09:43:05Z</time></trkpt><trkpt lat="39.29833652246908" lon="8.554358530326"><ele>168.0</ele><time>2026-04-08T09:43:06Z</time></trkpt><trkpt lat="39.298244297990124" lon="8.554084599312963"><ele>170.0</ele><time>2026-04-08T09:43:07Z</time></trkpt><trkpt lat="39.29814751847551" lon="8.553766530384644"><ele>171.5</ele><time>2026-04-08T09:43:08Z</time></trkpt><trkpt lat="39.298053069635465" lon="8.55343278407889"><ele>173.0</ele><time>2026-04-08T09:43:09Z</time></trkpt><trkpt lat="39.29795893605497" lon="8.553082700512691"><ele>176.0</ele><time>2026-04-08T09:43:10Z</time></trkpt><trkpt lat="39.29785524754881" lon="8.552722141710161"><ele>179.0</ele><time>2026-04-08T09:43:11Z</time></trkpt><trkpt lat="39.29774400037665" lon="8.552364365068852"><ele>180.5</ele><time>2026-04-08T09:43:12Z</time></trkpt><trkpt lat="39.29764031339909" lon="8.552027389591627"><ele>182.0</ele><time>2026-04-08T09:43:13Z</time></trkpt><trkpt lat="39.29754517525062" lon="8.551710063180815"><ele>182.0</ele><time>2026-04-08T09:43:13.999Z</time></trkpt><trkpt lat="39.297456879595565" lon="8.551410780349494"><ele>182.0</ele><time>2026-04-08T09:43:14.999Z</time></trkpt><trkpt lat="39.2973680215916" lon="8.551120119119288"><ele>183.5</ele><time>2026-04-08T09:43:15.999Z</time></trkpt><trkpt lat="39.29728028288141" lon="8.550833094245185"><ele>185.0</ele><time>2026-04-08T09:43:16.999Z</time></trkpt><trkpt lat="39.29719351153885" lon="8.550547536548025"><ele>189.5</ele><time>2026-04-08T09:43:17.999Z</time></trkpt><trkpt lat="39.297108835158845" lon="8.550270445691142"><ele>194.0</ele><time>2026-04-08T09:43:18.999Z</time></trkpt><trkpt lat="39.29702516630396" lon="8.550004399577004"><ele>194.0</ele><time>2026-04-08T09:43:19.999Z</time></trkpt><trkpt lat="39.296943400808495" lon="8.549743383232915"><ele>194.0</ele><time>2026-04-08T09:43:20.999Z</time></trkpt><trkpt lat="39.296863069494975" lon="8.549469475909653"><ele>194.0</ele><time>2026-04-08T09:43:21.999Z</time></trkpt><trkpt lat="39.29678243663531" lon="8.549191971017882"><ele>200.5</ele><time>2026-04-08T09:43:22.999Z</time></trkpt><trkpt lat="39.29669919714173" lon="8.548914867497508"><ele>207.0</ele><time>2026-04-08T09:43:23.999Z</time></trkpt><trkpt lat="39.296613264672864" lon="8.548627010407566"><ele>219.0</ele><time>2026-04-08T09:43:24.999Z</time></trkpt><trkpt lat="39.29652368139945" lon="8.548309938042859"><ele>231.0</ele><time>2026-04-08T09:43:25.999Z</time></trkpt><trkpt lat="39.29642683111809" lon="8.54798952969949"><ele>247.0</ele><time>2026-04-08T09:43:26.999Z</time></trkpt><trkpt lat="39.29633444706946" lon="8.547675570361505"><ele>263.0</ele><time>2026-04-08T09:43:27.999Z</time></trkpt><trkpt lat="39.29623410158113" lon="8.54734029690349"><ele>261.5</ele><time>2026-04-08T09:43:28.999Z</time></trkpt><trkpt lat="39.29612392599561" lon="8.546967739650867"><ele>260.0</ele><time>2026-04-08T09:43:30.072Z</time></trkpt><trkpt lat="39.29602742975744" lon="8.546630967566932"><ele>260.0</ele><time>2026-04-08T09:43:31.062Z</time></trkpt><trkpt lat="39.29593719597662" lon="8.54632639170335"><ele>260.0</ele><time>2026-04-08T09:43:32.063Z</time></trkpt><trkpt lat="39.29524976094215" lon="8.54422868067344"><ele>241.0</ele><time>2026-04-08T09:43:38.999Z</time></trkpt><trkpt lat="39.29515903670025" lon="8.543843631224835"><ele>222.0</ele><time>2026-04-08T09:43:39.999Z</time></trkpt><trkpt lat="39.29508565294605" lon="8.543589557875377"><ele>219.0</ele><time>2026-04-08T09:43:40.999Z</time></trkpt><trkpt lat="39.294992956972486" lon="8.543293422179136"><ele>216.0</ele><time>2026-04-08T09:43:41.999Z</time></trkpt><trkpt lat="39.29491057715358" lon="8.543005517679385"><ele>216.5</ele><time>2026-04-08T09:43:42.999Z</time></trkpt><trkpt lat="39.29482477858078" lon="8.542705120418463"><ele>217.0</ele><time>2026-04-08T09:43:43.999Z</time></trkpt><trkpt lat="39.29473576679374" lon="8.542404208280018"><ele>218.5</ele><time>2026-04-08T09:43:44.999Z</time></trkpt><trkpt lat="39.29464218294726" lon="8.54209989900646"><ele>220.0</ele><time>2026-04-08T09:43:45.999Z</time></trkpt><trkpt lat="39.29454545248865" lon="8.54179604604139"><ele>220.0</ele><time>2026-04-08T09:43:46.999Z</time></trkpt><trkpt lat="39.29444817217078" lon="8.541483413499042"><ele>220.0</ele><time>2026-04-08T09:43:47.999Z</time></trkpt><trkpt lat="39.294347712107786" lon="8.541176969298574"><ele>216.5</ele><time>2026-04-08T09:43:48.999Z</time></trkpt><trkpt lat="39.29426225032185" lon="8.540858465031588"><ele>213.0</ele><time>2026-04-08T09:43:49.999Z</time></trkpt><trkpt lat="39.294171550470274" lon="8.540551633654779"><ele>211.5</ele><time>2026-04-08T09:43:50.999Z</time></trkpt><trkpt lat="39.29408088808406" lon="8.540247465676199"><ele>210.0</ele><time>2026-04-08T09:43:51.999Z</time></trkpt><trkpt lat="39.293989664329025" lon="8.5399459812151"><ele>212.0</ele><time>2026-04-08T09:43:52.999Z</time></trkpt><trkpt lat="39.293894864414305" lon="8.539633738538841"><ele>214.0</ele><time>2026-04-08T09:43:53.998Z</time></trkpt><trkpt lat="39.29379696110205" lon="8.539318371952328"><ele>214.0</ele><time>2026-04-08T09:43:54.998Z</time></trkpt><trkpt lat="39.29370558059092" lon="8.53900487454859"><ele>214.0</ele><time>2026-04-08T09:43:55.998Z</time></trkpt><trkpt lat="39.29360983174604" lon="8.53869071435541"><ele>211.0</ele><time>2026-04-08T09:43:56.998Z</time></trkpt><trkpt lat="39.29352008646179" lon="8.538370780714166"><ele>208.0</ele><time>2026-04-08T09:43:57.998Z</time></trkpt><trkpt lat="39.29343838781872" lon="8.538051349809194"><ele>204.5</ele><time>2026-04-08T09:43:58.998Z</time></trkpt><trkpt lat="39.29336672164077" lon="8.537719160098884"><ele>201.0</ele><time>2026-04-08T09:43:59.998Z</time></trkpt><trkpt lat="39.2933014479729" lon="8.537386436716405"><ele>201.0</ele><time>2026-04-08T09:44:00.998Z</time></trkpt><trkpt lat="39.29324443441744" lon="8.537046574988617"><ele>201.0</ele><time>2026-04-08T09:44:01.998Z</time></trkpt><trkpt lat="39.29319588495209" lon="8.53670717036675"><ele>201.0</ele><time>2026-04-08T09:44:02.998Z</time></trkpt><trkpt lat="39.293159511438176" lon="8.536363054222827"><ele>201.0</ele><time>2026-04-08T09:44:03.998Z</time></trkpt><trkpt lat="39.29313379385815" lon="8.536011665854046"><ele>201.0</ele><time>2026-04-08T09:44:04.998Z</time></trkpt><trkpt lat="39.29310537662378" lon="8.535659161184759"><ele>201.0</ele><time>2026-04-08T09:44:05.998Z</time></trkpt><trkpt lat="39.29309273168972" lon="8.53530741953575"><ele>201.5</ele><time>2026-04-08T09:44:06.998Z</time></trkpt><trkpt lat="39.29309478407036" lon="8.534951106651787"><ele>202.0</ele><time>2026-04-08T09:44:07.998Z</time></trkpt><trkpt lat="39.29309660757509" lon="8.534597803385518"><ele>199.5</ele><time>2026-04-08T09:44:08.998Z</time></trkpt><trkpt lat="39.293114251492" lon="8.534270332765422"><ele>197.0</ele><time>2026-04-08T09:44:09.998Z</time></trkpt><trkpt lat="39.293135417949635" lon="8.533971425222648"><ele>195.66666666666669</ele><time>2026-04-08T09:44:10.998Z</time></trkpt><trkpt lat="39.2931617904926" lon="8.533688462573595"><ele>194.33333333333331</ele><time>2026-04-08T09:44:11.998Z</time></trkpt><trkpt lat="39.29319189331527" lon="8.533425523031953"><ele>193.0</ele><time>2026-04-08T09:44:12.998Z</time></trkpt><trkpt lat="39.29323300910801" lon="8.533166215188377"><ele>191.5</ele><time>2026-04-08T09:44:13.998Z</time></trkpt><trkpt lat="39.29328508933146" lon="8.532882467062274"><ele>190.0</ele><time>2026-04-08T09:44:14.998Z</time></trkpt><trkpt lat="39.293341182674624" lon="8.532591142189018"><ele>190.0</ele><time>2026-04-08T09:44:15.998Z</time></trkpt><trkpt lat="39.29339296420275" lon="8.532328414725376"><ele>190.0</ele><time>2026-04-08T09:44:16.998Z</time></trkpt><trkpt lat="39.293440649128534" lon="8.532085392421187"><ele>190.0</ele><time>2026-04-08T09:44:17.998Z</time></trkpt><trkpt lat="39.293492036885276" lon="8.531854842446533"><ele>187.66666666666669</ele><time>2026-04-08T09:44:18.998Z</time></trkpt><trkpt lat="39.293549179877424" lon="8.531643908022453"><ele>185.33333333333334</ele><time>2026-04-08T09:44:19.998Z</time></trkpt><trkpt lat="39.29361162299429" lon="8.531422706217667"><ele>183.0</ele><time>2026-04-08T09:44:20.998Z</time></trkpt><trkpt lat="39.293681560089176" lon="8.531177479618744"><ele>181.33333333333334</ele><time>2026-04-08T09:44:21.998Z</time></trkpt><trkpt lat="39.29375236080702" lon="8.530918995505289"><ele>179.66666666666669</ele><time>2026-04-08T09:44:22.998Z</time></trkpt><trkpt lat="39.29382685300002" lon="8.530636787586111"><ele>178.0</ele><time>2026-04-08T09:44:23.998Z</time></trkpt><trkpt lat="39.29390275676927" lon="8.530342018276754"><ele>173.5</ele><time>2026-04-08T09:44:24.998Z</time></trkpt><trkpt lat="39.293979345643955" lon="8.53002761442313"><ele>169.0</ele><time>2026-04-08T09:44:25.998Z</time></trkpt><trkpt lat="39.294063596922186" lon="8.52970717572438"><ele>166.5</ele><time>2026-04-08T09:44:26.998Z</time></trkpt><trkpt lat="39.29415436680781" lon="8.52937524616263"><ele>164.0</ele><time>2026-04-08T09:44:27.998Z</time></trkpt><trkpt lat="39.29424961069926" lon="8.529034416781538"><ele>160.0</ele><time>2026-04-08T09:44:28.998Z</time></trkpt><trkpt lat="39.29434591493841" lon="8.528685841641789"><ele>156.0</ele><time>2026-04-08T09:44:29.998Z</time></trkpt><trkpt lat="39.29444870926229" lon="8.528323086798537"><ele>156.0</ele><time>2026-04-08T09:44:30.998Z</time></trkpt><trkpt lat="39.29454841922423" lon="8.527947431896084"><ele>156.0</ele><time>2026-04-08T09:44:31.998Z</time></trkpt><trkpt lat="39.29464682834863" lon="8.527568329093235"><ele>154.0</ele><time>2026-04-08T09:44:32.997Z</time></trkpt><trkpt lat="39.29476411826668" lon="8.527193659259364"><ele>152.0</ele><time>2026-04-08T09:44:34Z</time></trkpt><trkpt lat="39.29486673782555" lon="8.526815448885005"><ele>150.0</ele><time>2026-04-08T09:44:35Z</time></trkpt><trkpt lat="39.29495597947259" lon="8.526426121463855"><ele>148.0</ele><time>2026-04-08T09:44:36Z</time></trkpt><trkpt lat="39.29506189053397" lon="8.526041975022308"><ele>147.0</ele><time>2026-04-08T09:44:37Z</time></trkpt><trkpt lat="39.29516826537626" lon="8.52565995791478"><ele>146.0</ele><time>2026-04-08T09:44:38Z</time></trkpt><trkpt lat="39.295274028759984" lon="8.525280683319055"><ele>146.0</ele><time>2026-04-08T09:44:39Z</time></trkpt><trkpt lat="39.29537595847746" lon="8.524897945726535"><ele>146.0</ele><time>2026-04-08T09:44:40Z</time></trkpt><trkpt lat="39.29547471784426" lon="8.524521289648835"><ele>145.0</ele><time>2026-04-08T09:44:41Z</time></trkpt><trkpt lat="39.29557462801822" lon="8.524154825544692"><ele>144.0</ele><time>2026-04-08T09:44:42Z</time></trkpt><trkpt lat="39.29567465612584" lon="8.52379148518658"><ele>140.0</ele><time>2026-04-08T09:44:43Z</time></trkpt><trkpt lat="39.29577144760518" lon="8.523426654778653"><ele>136.0</ele><time>2026-04-08T09:44:44Z</time></trkpt><trkpt lat="39.295864006293876" lon="8.523057938737514"><ele>135.0</ele><time>2026-04-08T09:44:45Z</time></trkpt><trkpt lat="39.29595070377771" lon="8.522685899842257"><ele>134.0</ele><time>2026-04-08T09:44:46Z</time></trkpt><trkpt lat="39.296029931052956" lon="8.522316377448947"><ele>134.0</ele><time>2026-04-08T09:44:47Z</time></trkpt><trkpt lat="39.296099483503625" lon="8.521942250747216"><ele>134.0</ele><time>2026-04-08T09:44:48Z</time></trkpt><trkpt lat="39.29615880344559" lon="8.521579166858867"><ele>134.0</ele><time>2026-04-08T09:44:49Z</time></trkpt><trkpt lat="39.29620950484663" lon="8.521241848603816"><ele>134.0</ele><time>2026-04-08T09:44:50Z</time></trkpt><trkpt lat="39.296251220153735" lon="8.520933825676199"><ele>136.33333333333331</ele><time>2026-04-08T09:44:51Z</time></trkpt><trkpt lat="39.2962899612767" lon="8.520663169101887"><ele>138.66666666666666</ele><time>2026-04-08T09:44:52Z</time></trkpt><trkpt lat="39.29631761663977" lon="8.520429464873615"><ele>141.0</ele><time>2026-04-08T09:44:53Z</time></trkpt><trkpt lat="39.2963394231907" lon="8.520220957716855"><ele>141.25</ele><time>2026-04-08T09:44:54Z</time></trkpt><trkpt lat="39.29636364055918" lon="8.520027814251463"><ele>141.5</ele><time>2026-04-08T09:44:55Z</time></trkpt><trkpt lat="39.296389747008945" lon="8.519850332301651"><ele>141.75</ele><time>2026-04-08T09:44:56Z</time></trkpt><trkpt lat="39.296412402664195" lon="8.51968642304989"><ele>142.0</ele><time>2026-04-08T09:44:57Z</time></trkpt><trkpt lat="39.29643459322689" lon="8.5195280611869"><ele>142.0</ele><time>2026-04-08T09:44:58Z</time></trkpt><trkpt lat="39.296455461514164" lon="8.519376346980414"><ele>142.0</ele><time>2026-04-08T09:44:59Z</time></trkpt><trkpt lat="39.29647506478115" lon="8.519225838389282"><ele>142.0</ele><time>2026-04-08T09:45:00Z</time></trkpt><trkpt lat="39.296494053916504" lon="8.519094282724"><ele>142.0</ele><time>2026-04-08T09:45:01Z</time></trkpt><trkpt lat="39.29651487467485" lon="8.518963340736681"><ele>142.0</ele><time>2026-04-08T09:45:02Z</time></trkpt><trkpt lat="39.29653504771762" lon="8.518831243214759"><ele>141.5</ele><time>2026-04-08T09:45:03Z</time></trkpt><trkpt lat="39.296551242715445" lon="8.518709434665942"><ele>141.0</ele><time>2026-04-08T09:45:04Z</time></trkpt><trkpt lat="39.29656699371052" lon="8.51859987383326"><ele>140.5</ele><time>2026-04-08T09:45:05Z</time></trkpt><trkpt lat="39.296577325914356" lon="8.518502317100566"><ele>140.0</ele><time>2026-04-08T09:45:06Z</time></trkpt><trkpt lat="39.29658636940603" lon="8.518392155580646"><ele>139.5</ele><time>2026-04-08T09:45:07Z</time></trkpt><trkpt lat="39.296616916803586" lon="8.518276939751166"><ele>139.0</ele><time>2026-04-08T09:45:08Z</time></trkpt><trkpt lat="39.296619293212785" lon="8.518143621578721"><ele>139.0</ele><time>2026-04-08T09:45:09Z</time></trkpt><trkpt lat="39.29664532375644" lon="8.518006294656125"><ele>139.0</ele><time>2026-04-08T09:45:10Z</time></trkpt><trkpt lat="39.29666439898833" lon="8.5178759593234"><ele>139.0</ele><time>2026-04-08T09:45:11Z</time></trkpt><trkpt lat="39.296685188941645" lon="8.517725934902993"><ele>139.0</ele><time>2026-04-08T09:45:12Z</time></trkpt><trkpt lat="39.2967062927137" lon="8.517565205222956"><ele>139.5</ele><time>2026-04-08T09:45:13Z</time></trkpt><trkpt lat="39.29672933504302" lon="8.517398183342006"><ele>140.0</ele><time>2026-04-08T09:45:14Z</time></trkpt><trkpt lat="39.29675036551606" lon="8.517238106369895"><ele>140.5</ele><time>2026-04-08T09:45:15Z</time></trkpt><trkpt lat="39.29676668178865" lon="8.51708982569286"><ele>141.0</ele><time>2026-04-08T09:45:16Z</time></trkpt><trkpt lat="39.29678489759712" lon="8.516943198817067"><ele>143.25</ele><time>2026-04-08T09:45:17Z</time></trkpt><trkpt lat="39.29680517874185" lon="8.51678087748968"><ele>145.5</ele><time>2026-04-08T09:45:18Z</time></trkpt><trkpt lat="39.29684674737006" lon="8.516594007885702"><ele>147.75</ele><time>2026-04-08T09:45:19Z</time></trkpt><trkpt lat="39.29687350214119" lon="8.516393736172692"><ele>150.0</ele><time>2026-04-08T09:45:19.999Z</time></trkpt><trkpt lat="39.29688838522541" lon="8.516195115951849"><ele>150.5</ele><time>2026-04-08T09:45:20.999Z</time></trkpt><trkpt lat="39.296916039580715" lon="8.516019498495123"><ele>151.0</ele><time>2026-04-08T09:45:21.999Z</time></trkpt><trkpt lat="39.29693960765094" lon="8.515843311258886"><ele>151.5</ele><time>2026-04-08T09:45:22.999Z</time></trkpt><trkpt lat="39.296963377904135" lon="8.515663199629019"><ele>152.0</ele><time>2026-04-08T09:45:23.999Z</time></trkpt><trkpt lat="39.29698815935806" lon="8.515480628471055"><ele>152.25</ele><time>2026-04-08T09:45:24.999Z</time></trkpt><trkpt lat="39.29701249406093" lon="8.51530507563843"><ele>152.5</ele><time>2026-04-08T09:45:25.999Z</time></trkpt><trkpt lat="39.29703777342383" lon="8.515136761151087"><ele>152.75</ele><time>2026-04-08T09:45:26.999Z</time></trkpt><trkpt lat="39.29706543203898" lon="8.514965231577305"><ele>153.0</ele><time>2026-04-08T09:45:27.999Z</time></trkpt><trkpt lat="39.297096065215605" lon="8.51479556400333"><ele>153.0</ele><time>2026-04-08T09:45:28.999Z</time></trkpt><trkpt lat="39.29712985127213" lon="8.514620578138043"><ele>153.0</ele><time>2026-04-08T09:45:29.999Z</time></trkpt><trkpt lat="39.297166085262404" lon="8.514465684620573"><ele>153.0</ele><time>2026-04-08T09:45:30.999Z</time></trkpt><trkpt lat="39.29720350502467" lon="8.514319428330097"><ele>153.0</ele><time>2026-04-08T09:45:31.999Z</time></trkpt><trkpt lat="39.297245862453146" lon="8.51417455016919"><ele>153.25</ele><time>2026-04-08T09:45:32.999Z</time></trkpt><trkpt lat="39.297293826504415" lon="8.514031357651765"><ele>153.5</ele><time>2026-04-08T09:45:33.999Z</time></trkpt><trkpt lat="39.29734680373432" lon="8.513885086015447"><ele>153.75</ele><time>2026-04-08T09:45:34.999Z</time></trkpt><trkpt lat="39.2974122972522" lon="8.51371505397814"><ele>154.0</ele><time>2026-04-08T09:45:35.999Z</time></trkpt><trkpt lat="39.29748975378138" lon="8.513534672708037"><ele>152.66666666666669</ele><time>2026-04-08T09:45:36.999Z</time></trkpt><trkpt lat="39.29757357167916" lon="8.513361526644792"><ele>151.33333333333334</ele><time>2026-04-08T09:45:37.999Z</time></trkpt><trkpt lat="39.29765956155242" lon="8.513196544890503"><ele>150.0</ele><time>2026-04-08T09:45:38.999Z</time></trkpt><trkpt lat="39.297739668324496" lon="8.513036256290302"><ele>149.25</ele><time>2026-04-08T09:45:39.999Z</time></trkpt><trkpt lat="39.297811654408875" lon="8.512882791114118"><ele>148.5</ele><time>2026-04-08T09:45:40.999Z</time></trkpt><trkpt lat="39.297878091336464" lon="8.512731366305198"><ele>147.75</ele><time>2026-04-08T09:45:41.999Z</time></trkpt><trkpt lat="39.29794255478384" lon="8.512581325521147"><ele>147.0</ele><time>2026-04-08T09:45:42.999Z</time></trkpt><trkpt lat="39.2980058255268" lon="8.512423010934995"><ele>147.0</ele><time>2026-04-08T09:45:43.999Z</time></trkpt><trkpt lat="39.29806635584103" lon="8.512258384612648"><ele>147.0</ele><time>2026-04-08T09:45:44.999Z</time></trkpt><trkpt lat="39.29812237416053" lon="8.512092495513008"><ele>147.0</ele><time>2026-04-08T09:45:45.999Z</time></trkpt><trkpt lat="39.29817570946493" lon="8.511929007639658"><ele>147.0</ele><time>2026-04-08T09:45:46.999Z</time></trkpt><trkpt lat="39.29822803352632" lon="8.511759390476405"><ele>146.66666666666666</ele><time>2026-04-08T09:45:47.999Z</time></trkpt><trkpt lat="39.29827867710993" lon="8.511581159648458"><ele>146.33333333333331</ele><time>2026-04-08T09:45:48.999Z</time></trkpt><trkpt lat="39.29832634880899" lon="8.511393406029862"><ele>146.0</ele><time>2026-04-08T09:45:49.999Z</time></trkpt><trkpt lat="39.29837176494201" lon="8.511195476137855"><ele>145.66666666666666</ele><time>2026-04-08T09:45:50.999Z</time></trkpt><trkpt lat="39.29841364297456" lon="8.510993452085064"><ele>145.33333333333334</ele><time>2026-04-08T09:45:51.999Z</time></trkpt><trkpt lat="39.29845281864532" lon="8.510807760392758"><ele>145.0</ele><time>2026-04-08T09:45:52.999Z</time></trkpt><trkpt lat="39.298487005395245" lon="8.51061674791744"><ele>145.0</ele><time>2026-04-08T09:45:53.999Z</time></trkpt><trkpt lat="39.29851393219669" lon="8.510436830203616"><ele>145.0</ele><time>2026-04-08T09:45:54.999Z</time></trkpt><trkpt lat="39.29853545816415" lon="8.51026622751695"><ele>145.0</ele><time>2026-04-08T09:45:55.999Z</time></trkpt><trkpt lat="39.298555499441385" lon="8.510100342844046"><ele>145.0</ele><time>2026-04-08T09:45:56.999Z</time></trkpt><trkpt lat="39.29857412839758" lon="8.509925148468865"><ele>143.25</ele><time>2026-04-08T09:45:57.999Z</time></trkpt><trkpt lat="39.29858933470795" lon="8.509749369185572"><ele>141.5</ele><time>2026-04-08T09:45:58.999Z</time></trkpt><trkpt lat="39.298602222876546" lon="8.509584257896542"><ele>139.75</ele><time>2026-04-08T09:45:59.998Z</time></trkpt><trkpt lat="39.29861096472121" lon="8.509425768636918"><ele>138.0</ele><time>2026-04-08T09:46:00.998Z</time></trkpt><trkpt lat="39.29861407047125" lon="8.509275068615406"><ele>137.8</ele><time>2026-04-08T09:46:01.998Z</time></trkpt><trkpt lat="39.29861491601849" lon="8.509132896382837"><ele>137.60000000000002</ele><time>2026-04-08T09:46:02.998Z</time></trkpt><trkpt lat="39.29862075066551" lon="8.509011012998007"><ele>137.39999999999998</ele><time>2026-04-08T09:46:03.998Z</time></trkpt><trkpt lat="39.29862586812031" lon="8.508909344533226"><ele>137.2</ele><time>2026-04-08T09:46:04.998Z</time></trkpt><trkpt lat="39.29862536222559" lon="8.508808746394582"><ele>137.0</ele><time>2026-04-08T09:46:05.998Z</time></trkpt><trkpt lat="39.298620193492944" lon="8.508685273083943"><ele>137.0</ele><time>2026-04-08T09:46:07.998Z</time></trkpt><trkpt lat="39.29861792698537" lon="8.50859105209359"><ele>137.0</ele><time>2026-04-08T09:46:08.998Z</time></trkpt><trkpt lat="39.29860383094438" lon="8.50848769664647"><ele>137.0</ele><time>2026-04-08T09:46:09.998Z</time></trkpt><trkpt lat="39.29859052321298" lon="8.508368674558795"><ele>137.0</ele><time>2026-04-08T09:46:10.998Z</time></trkpt><trkpt lat="39.2985792093482" lon="8.508189532881373"><ele>137.0</ele><time>2026-04-08T09:46:11.998Z</time></trkpt><trkpt lat="39.29856932857758" lon="8.507975715970108"><ele>136.0</ele><time>2026-04-08T09:46:12.998Z</time></trkpt><trkpt lat="39.29855947774767" lon="8.507743271749106"><ele>135.0</ele><time>2026-04-08T09:46:13.998Z</time></trkpt><trkpt lat="39.298531662455076" lon="8.507503236687846"><ele>134.0</ele><time>2026-04-08T09:46:14.998Z</time></trkpt><trkpt lat="39.29847421800607" lon="8.507251327638398"><ele>135.0</ele><time>2026-04-08T09:46:15.998Z</time></trkpt><trkpt lat="39.29838952894064" lon="8.50699420175433"><ele>136.0</ele><time>2026-04-08T09:46:16.998Z</time></trkpt><trkpt lat="39.29828163701529" lon="8.506731042574462"><ele>137.0</ele><time>2026-04-08T09:46:17.998Z</time></trkpt><trkpt lat="39.29815406039145" lon="8.50645687640987"><ele>130.0</ele><time>2026-04-08T09:46:18.998Z</time></trkpt><trkpt lat="39.29802139179454" lon="8.506181248982774"><ele>123.0</ele><time>2026-04-08T09:46:19.998Z</time></trkpt><trkpt lat="39.297902738752434" lon="8.505925709273832"><ele>123.0</ele><time>2026-04-08T09:46:20.998Z</time></trkpt><trkpt lat="39.29779461726668" lon="8.505673923216433"><ele>123.0</ele><time>2026-04-08T09:46:21.998Z</time></trkpt><trkpt lat="39.29769105332915" lon="8.50542197441717"><ele>123.0</ele><time>2026-04-08T09:46:22.998Z</time></trkpt><trkpt lat="39.29765507712659" lon="8.50528545612539"><ele>122.66666666666666</ele><time>2026-04-08T09:46:23.998Z</time></trkpt><trkpt lat="39.297620018024475" lon="8.505023704362632"><ele>122.33333333333333</ele><time>2026-04-08T09:46:24.998Z</time></trkpt><trkpt lat="39.297596242257455" lon="8.504738181954583"><ele>122.0</ele><time>2026-04-08T09:46:25.998Z</time></trkpt><trkpt lat="39.297576933117874" lon="8.504434469660321"><ele>122.0</ele><time>2026-04-08T09:46:26.998Z</time></trkpt><trkpt lat="39.29754331302935" lon="8.504119715703615"><ele>122.0</ele><time>2026-04-08T09:46:27.998Z</time></trkpt><trkpt lat="39.297536558412126" lon="8.503808891412593"><ele>123.5</ele><time>2026-04-08T09:46:28.998Z</time></trkpt><trkpt lat="39.297528345958696" lon="8.503506363602625"><ele>125.0</ele><time>2026-04-08T09:46:29.998Z</time></trkpt><trkpt lat="39.29750610270899" lon="8.503205592883837"><ele>126.0</ele><time>2026-04-08T09:46:30.998Z</time></trkpt><trkpt lat="39.29747972966968" lon="8.502903246906715"><ele>127.0</ele><time>2026-04-08T09:46:31.998Z</time></trkpt><trkpt lat="39.29745902700153" lon="8.502598144901702"><ele>127.0</ele><time>2026-04-08T09:46:32.998Z</time></trkpt><trkpt lat="39.2974386534347" lon="8.502290702707885"><ele>127.0</ele><time>2026-04-08T09:46:33.998Z</time></trkpt><trkpt lat="39.297419996934245" lon="8.501986715846032"><ele>123.5</ele><time>2026-04-08T09:46:34.998Z</time></trkpt><trkpt lat="39.29739682485623" lon="8.501680539627325"><ele>120.0</ele><time>2026-04-08T09:46:35.998Z</time></trkpt><trkpt lat="39.29737293617783" lon="8.501367117440186"><ele>118.0</ele><time>2026-04-08T09:46:36.998Z</time></trkpt><trkpt lat="39.29735153064109" lon="8.501057075939483"><ele>116.0</ele><time>2026-04-08T09:46:37.998Z</time></trkpt><trkpt lat="39.297328386937295" lon="8.50075082152774"><ele>116.0</ele><time>2026-04-08T09:46:38.998Z</time></trkpt><trkpt lat="39.297308119605674" lon="8.500445050442616"><ele>116.0</ele><time>2026-04-08T09:46:40Z</time></trkpt><trkpt lat="39.29728977134274" lon="8.500142078755122"><ele>114.0</ele><time>2026-04-08T09:46:41Z</time></trkpt><trkpt lat="39.297269664244276" lon="8.499843042847797"><ele>112.0</ele><time>2026-04-08T09:46:42Z</time></trkpt><trkpt lat="39.297252006028984" lon="8.499545960163049"><ele>109.0</ele><time>2026-04-08T09:46:43Z</time></trkpt><trkpt lat="39.297234590389905" lon="8.49924954203266"><ele>106.0</ele><time>2026-04-08T09:46:44Z</time></trkpt><trkpt lat="39.29720898279339" lon="8.49896749455511"><ele>104.0</ele><time>2026-04-08T09:46:45Z</time></trkpt><trkpt lat="39.297148017952345" lon="8.498683860219636"><ele>102.0</ele><time>2026-04-08T09:46:46Z</time></trkpt><trkpt lat="39.29706123569235" lon="8.49840645771998"><ele>102.0</ele><time>2026-04-08T09:46:47Z</time></trkpt><trkpt lat="39.29695383124417" lon="8.498147787020905"><ele>102.0</ele><time>2026-04-08T09:46:48Z</time></trkpt><trkpt lat="39.29682714550326" lon="8.497902663556832"><ele>101.0</ele><time>2026-04-08T09:46:49Z</time></trkpt><trkpt lat="39.29668677831647" lon="8.49767295935942"><ele>100.0</ele><time>2026-04-08T09:46:50Z</time></trkpt><trkpt lat="39.29654416156337" lon="8.49747995755904"><ele>99.0</ele><time>2026-04-08T09:46:51Z</time></trkpt><trkpt lat="39.29639666800137" lon="8.497315407156929"><ele>98.0</ele><time>2026-04-08T09:46:52Z</time></trkpt><trkpt lat="39.296266321902344" lon="8.49715557731525"><ele>97.0</ele><time>2026-04-08T09:46:53Z</time></trkpt><trkpt lat="39.2961371297301" lon="8.497000291637747"><ele>96.0</ele><time>2026-04-08T09:46:54Z</time></trkpt><trkpt lat="39.29601147777358" lon="8.496852546089153"><ele>94.66666666666667</ele><time>2026-04-08T09:46:55Z</time></trkpt><trkpt lat="39.29589390283624" lon="8.496707314573685"><ele>93.33333333333334</ele><time>2026-04-08T09:46:56Z</time></trkpt><trkpt lat="39.29578454206801" lon="8.49657222958821"><ele>92.0</ele><time>2026-04-08T09:46:57Z</time></trkpt><trkpt lat="39.295682973824555" lon="8.49644917134217"><ele>92.0</ele><time>2026-04-08T09:46:58Z</time></trkpt><trkpt lat="39.295586064983105" lon="8.496331040180166"><ele>92.0</ele><time>2026-04-08T09:46:59Z</time></trkpt><trkpt lat="39.295493503517" lon="8.496217388329699"><ele>92.0</ele><time>2026-04-08T09:47:00Z</time></trkpt><trkpt lat="39.295408143963634" lon="8.496112933516326"><ele>92.0</ele><time>2026-04-08T09:47:01Z</time></trkpt><trkpt lat="39.29532883607054" lon="8.496009737478051"><ele>91.5</ele><time>2026-04-08T09:47:02Z</time></trkpt><trkpt lat="39.29525303474633" lon="8.4959125146781"><ele>91.0</ele><time>2026-04-08T09:47:03Z</time></trkpt><trkpt lat="39.295184620184465" lon="8.495825811690441"><ele>90.5</ele><time>2026-04-08T09:47:04Z</time></trkpt><trkpt lat="39.295131746960536" lon="8.495749008764971"><ele>90.0</ele><time>2026-04-08T09:47:05Z</time></trkpt><trkpt lat="39.2951173195552" lon="8.495657891159414"><ele>89.5</ele><time>2026-04-08T09:47:07Z</time></trkpt><trkpt lat="39.29520422051722" lon="8.495625115516207"><ele>89.0</ele><time>2026-04-08T09:47:10Z</time></trkpt><trkpt lat="39.29528869217909" lon="8.495675975720635"><ele>89.0</ele><time>2026-04-08T09:47:14Z</time></trkpt><trkpt lat="39.295352083667126" lon="8.495736196703985"><ele>89.0</ele><time>2026-04-08T09:47:16Z</time></trkpt><trkpt lat="39.295273566065646" lon="8.49571723021337"><ele>89.0</ele><time>2026-04-08T09:47:23Z</time></trkpt></trkseg><trkseg><trkpt lat="39.29515737447493" lon="8.495671873585819"><ele>89.0</ele><time>2026-04-08T09:59:25Z</time></trkpt><trkpt lat="39.29509113155859" lon="8.495698561505161"><ele>89.0</ele><time>2026-04-08T09:59:29Z</time></trkpt><trkpt lat="39.295009052261015" lon="8.495636123134915"><ele>89.0</ele><time>2026-04-08T09:59:31Z</time></trkpt><trkpt lat="39.29493487239962" lon="8.495519657282339"><ele>89.0</ele><time>2026-04-08T09:59:32Z</time></trkpt><trkpt lat="39.29487458074181" lon="8.49544693316704"><ele>89.0</ele><time>2026-04-08T09:59:33Z</time></trkpt><trkpt lat="39.29482066709956" lon="8.495372624400629"><ele>89.0</ele><time>2026-04-08T09:59:34Z</time></trkpt><trkpt lat="39.294754547963116" lon="8.495290032635598"><ele>88.33333333333334</ele><time>2026-04-08T09:59:35Z</time></trkpt><trkpt lat="39.29469237937115" lon="8.495209700705333"><ele>87.66666666666667</ele><time>2026-04-08T09:59:36Z</time></trkpt><trkpt lat="39.2946284293749" lon="8.495137213460383"><ele>87.0</ele><time>2026-04-08T09:59:37Z</time></trkpt><trkpt lat="39.294563374889464" lon="8.495058096967702"><ele>86.33333333333333</ele><time>2026-04-08T09:59:38Z</time></trkpt><trkpt lat="39.294500204813076" lon="8.494977813228239"><ele>85.66666666666666</ele><time>2026-04-08T09:59:39Z</time></trkpt><trkpt lat="39.29443215770363" lon="8.494894956452102"><ele>85.0</ele><time>2026-04-08T09:59:40Z</time></trkpt><trkpt lat="39.29436542251943" lon="8.494809667670326"><ele>85.0</ele><time>2026-04-08T09:59:41Z</time></trkpt><trkpt lat="39.29429901371" lon="8.494728842846904"><ele>85.0</ele><time>2026-04-08T09:59:42Z</time></trkpt><trkpt lat="39.294231731895714" lon="8.49465020260259"><ele>85.0</ele><time>2026-04-08T09:59:43Z</time></trkpt><trkpt lat="39.29416971296565" lon="8.494571865223502"><ele>85.0</ele><time>2026-04-08T09:59:44Z</time></trkpt><trkpt lat="39.29410743947882" lon="8.494498499092078"><ele>85.0</ele><time>2026-04-08T09:59:45Z</time></trkpt><trkpt lat="39.294048410596304" lon="8.494421389486742"><ele>85.0</ele><time>2026-04-08T09:59:46Z</time></trkpt><trkpt lat="39.2939911741915" lon="8.49434774293011"><ele>85.16666666666666</ele><time>2026-04-08T09:59:47Z</time></trkpt><trkpt lat="39.29392972807341" lon="8.49427561969123"><ele>85.33333333333333</ele><time>2026-04-08T09:59:48Z</time></trkpt><trkpt lat="39.29387050244883" lon="8.49420057849541"><ele>85.5</ele><time>2026-04-08T09:59:49Z</time></trkpt><trkpt lat="39.293816070045956" lon="8.494132532997313"><ele>85.66666666666667</ele><time>2026-04-08T09:59:50Z</time></trkpt><trkpt lat="39.293760915668756" lon="8.494060099757618"><ele>85.83333333333334</ele><time>2026-04-08T09:59:51Z</time></trkpt><trkpt lat="39.29370296882886" lon="8.493992393500557"><ele>86.0</ele><time>2026-04-08T09:59:51.999Z</time></trkpt><trkpt lat="39.29364351210214" lon="8.493908302607027"><ele>85.6</ele><time>2026-04-08T09:59:52.999Z</time></trkpt><trkpt lat="39.29358204683178" lon="8.493817771694854"><ele>85.19999999999999</ele><time>2026-04-08T09:59:53.999Z</time></trkpt><trkpt lat="39.29351126595566" lon="8.493723771872284"><ele>84.80000000000001</ele><time>2026-04-08T09:59:54.999Z</time></trkpt><trkpt lat="39.29345110232305" lon="8.493624961938506"><ele>84.4</ele><time>2026-04-08T09:59:55.999Z</time></trkpt><trkpt lat="39.293398079181735" lon="8.493520795860952"><ele>84.0</ele><time>2026-04-08T09:59:56.999Z</time></trkpt><trkpt lat="39.293351416426674" lon="8.493411935560005"><ele>84.0</ele><time>2026-04-08T09:59:57.999Z</time></trkpt><trkpt lat="39.293298645494396" lon="8.493306125100547"><ele>84.0</ele><time>2026-04-08T09:59:58.999Z</time></trkpt><trkpt lat="39.29324872168675" lon="8.493196318158503"><ele>84.0</ele><time>2026-04-08T09:59:59.999Z</time></trkpt><trkpt lat="39.29319822431005" lon="8.493076260244234"><ele>84.0</ele><time>2026-04-08T10:00:00.999Z</time></trkpt><trkpt lat="39.29316031955104" lon="8.492954194756843"><ele>84.0</ele><time>2026-04-08T10:00:01.999Z</time></trkpt><trkpt lat="39.293127481066534" lon="8.492826930884487"><ele>83.75</ele><time>2026-04-08T10:00:02.999Z</time></trkpt><trkpt lat="39.2930915718258" lon="8.492687479246602"><ele>83.5</ele><time>2026-04-08T10:00:03.999Z</time></trkpt><trkpt lat="39.29305967236776" lon="8.492546498132516"><ele>83.25</ele><time>2026-04-08T10:00:04.999Z</time></trkpt><trkpt lat="39.29303512061176" lon="8.492402540305136"><ele>83.0</ele><time>2026-04-08T10:00:05.999Z</time></trkpt><trkpt lat="39.29300249498545" lon="8.492266961694265"><ele>83.5</ele><time>2026-04-08T10:00:06.999Z</time></trkpt><trkpt lat="39.292968333303826" lon="8.492124318883924"><ele>84.0</ele><time>2026-04-08T10:00:07.999Z</time></trkpt><trkpt lat="39.292941797416624" lon="8.491983577038075"><ele>84.5</ele><time>2026-04-08T10:00:08.999Z</time></trkpt><trkpt lat="39.29291474274461" lon="8.491839897588443"><ele>85.0</ele><time>2026-04-08T10:00:09.999Z</time></trkpt><trkpt lat="39.29288485622541" lon="8.491698469145895"><ele>85.0</ele><time>2026-04-08T10:00:10.999Z</time></trkpt><trkpt lat="39.29284914289248" lon="8.491558950812257"><ele>85.0</ele><time>2026-04-08T10:00:11.999Z</time></trkpt><trkpt lat="39.292820415010894" lon="8.491418186883672"><ele>85.0</ele><time>2026-04-08T10:00:12.999Z</time></trkpt><trkpt lat="39.292794309684226" lon="8.491276334603295"><ele>85.0</ele><time>2026-04-08T10:00:13.999Z</time></trkpt><trkpt lat="39.2927624168615" lon="8.491134176075612"><ele>83.5</ele><time>2026-04-08T10:00:14.999Z</time></trkpt><trkpt lat="39.29273186558155" lon="8.490996588612242"><ele>82.0</ele><time>2026-04-08T10:00:15.999Z</time></trkpt><trkpt lat="39.29270413347741" lon="8.490853354830598"><ele>80.5</ele><time>2026-04-08T10:00:16.999Z</time></trkpt><trkpt lat="39.292669688945594" lon="8.490712490851289"><ele>79.0</ele><time>2026-04-08T10:00:17.999Z</time></trkpt><trkpt lat="39.292640196500535" lon="8.49056795691174"><ele>79.0</ele><time>2026-04-08T10:00:18.999Z</time></trkpt><trkpt lat="39.292613219723684" lon="8.490425148354564"><ele>79.0</ele><time>2026-04-08T10:00:19.999Z</time></trkpt><trkpt lat="39.29257672751043" lon="8.490281649932875"><ele>79.0</ele><time>2026-04-08T10:00:20.999Z</time></trkpt><trkpt lat="39.29253832110385" lon="8.49011001843834"><ele>79.0</ele><time>2026-04-08T10:00:21.999Z</time></trkpt><trkpt lat="39.29250100738017" lon="8.489941452313248"><ele>79.25</ele><time>2026-04-08T10:00:22.999Z</time></trkpt><trkpt lat="39.292449886861476" lon="8.489769868579236"><ele>79.5</ele><time>2026-04-08T10:00:23.999Z</time></trkpt><trkpt lat="39.292399864700336" lon="8.489592526017994"><ele>79.75</ele><time>2026-04-08T10:00:24.999Z</time></trkpt><trkpt lat="39.292346475702686" lon="8.48942018064773"><ele>80.0</ele><time>2026-04-08T10:00:25.999Z</time></trkpt><trkpt lat="39.29229374867716" lon="8.489255300396415"><ele>82.33333333333334</ele><time>2026-04-08T10:00:26.999Z</time></trkpt><trkpt lat="39.29224058673583" lon="8.489084105275325"><ele>84.66666666666667</ele><time>2026-04-08T10:00:27.999Z</time></trkpt><trkpt lat="39.2921868110195" lon="8.488908317654907"><ele>87.0</ele><time>2026-04-08T10:00:28.999Z</time></trkpt><trkpt lat="39.29212112855317" lon="8.488701267875363"><ele>87.0</ele><time>2026-04-08T10:00:29.999Z</time></trkpt><trkpt lat="39.29204373341402" lon="8.48845971478297"><ele>87.0</ele><time>2026-04-08T10:00:30.998Z</time></trkpt><trkpt lat="39.291953366798595" lon="8.488188662851082"><ele>87.0</ele><time>2026-04-08T10:00:31.998Z</time></trkpt><trkpt lat="39.291858495372" lon="8.487895507039369"><ele>85.0</ele><time>2026-04-08T10:00:32.998Z</time></trkpt><trkpt lat="39.291764385533824" lon="8.487586811523943"><ele>83.0</ele><time>2026-04-08T10:00:33.998Z</time></trkpt><trkpt lat="39.29167687756992" lon="8.487274501181817"><ele>84.0</ele><time>2026-04-08T10:00:34.998Z</time></trkpt><trkpt lat="39.29159479488767" lon="8.486946237754466"><ele>85.0</ele><time>2026-04-08T10:00:35.998Z</time></trkpt><trkpt lat="39.29151410091032" lon="8.486602529119821"><ele>86.0</ele><time>2026-04-08T10:00:36.998Z</time></trkpt><trkpt lat="39.29143830701002" lon="8.486254974643792"><ele>87.0</ele><time>2026-04-08T10:00:37.998Z</time></trkpt><trkpt lat="39.291364464444726" lon="8.485880216363007"><ele>87.0</ele><time>2026-04-08T10:00:38.998Z</time></trkpt><trkpt lat="39.29129906267932" lon="8.48549280114173"><ele>87.0</ele><time>2026-04-08T10:00:39.998Z</time></trkpt><trkpt lat="39.291227961708785" lon="8.485103115192425"><ele>84.0</ele><time>2026-04-08T10:00:40.998Z</time></trkpt><trkpt lat="39.29115584003486" lon="8.484720602418752"><ele>81.0</ele><time>2026-04-08T10:00:41.998Z</time></trkpt><trkpt lat="39.29108582920157" lon="8.484335726505643"><ele>76.5</ele><time>2026-04-08T10:00:42.998Z</time></trkpt><trkpt lat="39.291018103588655" lon="8.483946538506483"><ele>72.0</ele><time>2026-04-08T10:00:43.998Z</time></trkpt><trkpt lat="39.29095536400509" lon="8.483560373697177"><ele>72.0</ele><time>2026-04-08T10:00:44.998Z</time></trkpt><trkpt lat="39.29090697050472" lon="8.48318179515559"><ele>72.0</ele><time>2026-04-08T10:00:45.998Z</time></trkpt><trkpt lat="39.290876277490334" lon="8.48280073625051"><ele>71.5</ele><time>2026-04-08T10:00:46.998Z</time></trkpt><trkpt lat="39.2908794633345" lon="8.482410244990167"><ele>71.0</ele><time>2026-04-08T10:00:47.998Z</time></trkpt><trkpt lat="39.29088168075828" lon="8.482001452717299"><ele>69.5</ele><time>2026-04-08T10:00:48.998Z</time></trkpt><trkpt lat="39.290883433624764" lon="8.481592333780297"><ele>68.0</ele><time>2026-04-08T10:00:49.998Z</time></trkpt><trkpt lat="39.29087552755952" lon="8.48118404016262"><ele>67.0</ele><time>2026-04-08T10:00:50.998Z</time></trkpt><trkpt lat="39.29088441076278" lon="8.480782929734222"><ele>66.0</ele><time>2026-04-08T10:00:51.998Z</time></trkpt><trkpt lat="39.290885927263496" lon="8.48039996302121"><ele>65.5</ele><time>2026-04-08T10:00:52.998Z</time></trkpt><trkpt lat="39.290879010686076" lon="8.48005855089554"><ele>65.0</ele><time>2026-04-08T10:00:53.998Z</time></trkpt><trkpt lat="39.290888241135036" lon="8.479735314738353"><ele>64.5</ele><time>2026-04-08T10:00:54.998Z</time></trkpt><trkpt lat="39.290882966970656" lon="8.479412051475471"><ele>64.0</ele><time>2026-04-08T10:00:55.998Z</time></trkpt><trkpt lat="39.29089187822791" lon="8.47911960615067"><ele>64.0</ele><time>2026-04-08T10:00:56.998Z</time></trkpt><trkpt lat="39.29088553290343" lon="8.478828557385985"><ele>64.0</ele><time>2026-04-08T10:00:57.998Z</time></trkpt><trkpt lat="39.29085852566396" lon="8.478538920630582"><ele>63.33333333333333</ele><time>2026-04-08T10:00:58.998Z</time></trkpt><trkpt lat="39.29080275818447" lon="8.478273320242184"><ele>62.66666666666667</ele><time>2026-04-08T10:00:59.998Z</time></trkpt><trkpt lat="39.29072988771446" lon="8.47802710589445"><ele>62.0</ele><time>2026-04-08T10:01:00.998Z</time></trkpt><trkpt lat="39.29063490831868" lon="8.477795324595043"><ele>60.66666666666667</ele><time>2026-04-08T10:01:01.998Z</time></trkpt><trkpt lat="39.29051533613995" lon="8.477574150276538"><ele>59.33333333333333</ele><time>2026-04-08T10:01:02.998Z</time></trkpt><trkpt lat="39.29037943864183" lon="8.477361811658904"><ele>58.0</ele><time>2026-04-08T10:01:03.998Z</time></trkpt><trkpt lat="39.29021562078758" lon="8.477171695780669"><ele>57.0</ele><time>2026-04-08T10:01:04.998Z</time></trkpt><trkpt lat="39.290038215472315" lon="8.477000094195315"><ele>56.0</ele><time>2026-04-08T10:01:05.998Z</time></trkpt><trkpt lat="39.289842222977924" lon="8.476853993956388"><ele>55.0</ele><time>2026-04-08T10:01:06.998Z</time></trkpt><trkpt lat="39.289631010303744" lon="8.476743085769304"><ele>55.0</ele><time>2026-04-08T10:01:07.998Z</time></trkpt><trkpt lat="39.28940295778228" lon="8.476653076978929"><ele>55.0</ele><time>2026-04-08T10:01:08.998Z</time></trkpt><trkpt lat="39.289162541223575" lon="8.476569708101918"><ele>55.0</ele><time>2026-04-08T10:01:09.997Z</time></trkpt><trkpt lat="39.28894723910385" lon="8.476490276465082"><ele>55.0</ele><time>2026-04-08T10:01:11Z</time></trkpt><trkpt lat="39.28874159077881" lon="8.476386930335046"><ele>55.0</ele><time>2026-04-08T10:01:12Z</time></trkpt><trkpt lat="39.28854575345242" lon="8.476269286349279"><ele>56.33333333333333</ele><time>2026-04-08T10:01:13Z</time></trkpt><trkpt lat="39.288364359286895" lon="8.476134311860147"><ele>57.66666666666667</ele><time>2026-04-08T10:01:14Z</time></trkpt><trkpt lat="39.28818977500954" lon="8.475947118615467"><ele>59.0</ele><time>2026-04-08T10:01:15Z</time></trkpt><trkpt lat="39.28802452190678" lon="8.47572798940873"><ele>59.5</ele><time>2026-04-08T10:01:16Z</time></trkpt><trkpt lat="39.287869941368804" lon="8.475486051241276"><ele>60.0</ele><time>2026-04-08T10:01:17Z</time></trkpt><trkpt lat="39.28773681211365" lon="8.475222199180285"><ele>57.5</ele><time>2026-04-08T10:01:18Z</time></trkpt><trkpt lat="39.287624526217435" lon="8.474932026573375"><ele>55.0</ele><time>2026-04-08T10:01:19Z</time></trkpt><trkpt lat="39.28751031415522" lon="8.474635296456647"><ele>58.0</ele><time>2026-04-08T10:01:20Z</time></trkpt><trkpt lat="39.28739293529999" lon="8.47433616260235"><ele>61.0</ele><time>2026-04-08T10:01:21Z</time></trkpt><trkpt lat="39.2872665129725" lon="8.474026466799032"><ele>56.0</ele><time>2026-04-08T10:01:22Z</time></trkpt><trkpt lat="39.28713570934171" lon="8.473716457311037"><ele>51.0</ele><time>2026-04-08T10:01:23Z</time></trkpt><trkpt lat="39.287004204219926" lon="8.473406122780077"><ele>51.0</ele><time>2026-04-08T10:01:24Z</time></trkpt><trkpt lat="39.28686905834669" lon="8.473078842247627"><ele>51.0</ele><time>2026-04-08T10:01:25Z</time></trkpt><trkpt lat="39.28673235690571" lon="8.472754925132124"><ele>47.0</ele><time>2026-04-08T10:01:26Z</time></trkpt><trkpt lat="39.28659821399385" lon="8.47243418888169"><ele>43.0</ele><time>2026-04-08T10:01:27Z</time></trkpt><trkpt lat="39.286468012441276" lon="8.472120382248553"><ele>42.0</ele><time>2026-04-08T10:01:28Z</time></trkpt><trkpt lat="39.28634332549312" lon="8.471810054744127"><ele>41.0</ele><time>2026-04-08T10:01:29Z</time></trkpt><trkpt lat="39.286217314802975" lon="8.471503250584641"><ele>42.5</ele><time>2026-04-08T10:01:30Z</time></trkpt><trkpt lat="39.28608443014855" lon="8.471180537466676"><ele>44.0</ele><time>2026-04-08T10:01:31Z</time></trkpt><trkpt lat="39.28596306174114" lon="8.470872751680345"><ele>44.0</ele><time>2026-04-08T10:01:32Z</time></trkpt><trkpt lat="39.28584983972247" lon="8.47060252155868"><ele>44.0</ele><time>2026-04-08T10:01:33Z</time></trkpt><trkpt lat="39.28574109685432" lon="8.470355489855196"><ele>44.0</ele><time>2026-04-08T10:01:34Z</time></trkpt><trkpt lat="39.28564396966121" lon="8.470139623116193"><ele>44.0</ele><time>2026-04-08T10:01:35Z</time></trkpt><trkpt lat="39.285550314851875" lon="8.46994511118147"><ele>44.0</ele><time>2026-04-08T10:01:36Z</time></trkpt><trkpt lat="39.28544254191082" lon="8.46975319049164"><ele>42.0</ele><time>2026-04-08T10:01:37Z</time></trkpt><trkpt lat="39.28530982134378" lon="8.469562830570384"><ele>40.0</ele><time>2026-04-08T10:01:38Z</time></trkpt><trkpt lat="39.285158847121664" lon="8.469373634486923"><ele>38.0</ele><time>2026-04-08T10:01:39Z</time></trkpt><trkpt lat="39.28500578369179" lon="8.469204308413303"><ele>38.0</ele><time>2026-04-08T10:01:40Z</time></trkpt><trkpt lat="39.28483319618307" lon="8.46906136244589"><ele>38.0</ele><time>2026-04-08T10:01:41Z</time></trkpt><trkpt lat="39.28464732255524" lon="8.468933989062476"><ele>38.0</ele><time>2026-04-08T10:01:42Z</time></trkpt><trkpt lat="39.28444168765222" lon="8.468821861680487"><ele>39.0</ele><time>2026-04-08T10:01:43Z</time></trkpt><trkpt lat="39.28422072737115" lon="8.468719619452113"><ele>40.0</ele><time>2026-04-08T10:01:44Z</time></trkpt><trkpt lat="39.283972184831384" lon="8.468607025970927"><ele>39.5</ele><time>2026-04-08T10:01:45Z</time></trkpt><trkpt lat="39.283714392275" lon="8.46847791405552"><ele>39.0</ele><time>2026-04-08T10:01:46Z</time></trkpt><trkpt lat="39.28344655193498" lon="8.468342487068012"><ele>39.0</ele><time>2026-04-08T10:01:47Z</time></trkpt><trkpt lat="39.28317902177107" lon="8.468207170349565"><ele>39.0</ele><time>2026-04-08T10:01:48Z</time></trkpt><trkpt lat="39.28292970356854" lon="8.468077962501043"><ele>36.5</ele><time>2026-04-08T10:01:49Z</time></trkpt><trkpt lat="39.282682043338305" lon="8.467954569753365"><ele>34.0</ele><time>2026-04-08T10:01:50Z</time></trkpt><trkpt lat="39.28244268560874" lon="8.467843124727494"><ele>35.66666666666667</ele><time>2026-04-08T10:01:51Z</time></trkpt><trkpt lat="39.28222880351668" lon="8.467738607309782"><ele>37.333333333333336</ele><time>2026-04-08T10:01:52Z</time></trkpt><trkpt lat="39.28203253814294" lon="8.467638649002142"><ele>39.0</ele><time>2026-04-08T10:01:52.999Z</time></trkpt><trkpt lat="39.281843461568215" lon="8.467543748895825"><ele>39.0</ele><time>2026-04-08T10:01:53.999Z</time></trkpt><trkpt lat="39.28164331175866" lon="8.467454417513219"><ele>39.0</ele><time>2026-04-08T10:01:54.999Z</time></trkpt><trkpt lat="39.281424150919996" lon="8.467392438614228"><ele>39.0</ele><time>2026-04-08T10:01:55.999Z</time></trkpt><trkpt lat="39.28120016256777" lon="8.46737163647895"><ele>37.666666666666664</ele><time>2026-04-08T10:01:56.999Z</time></trkpt><trkpt lat="39.280977662241405" lon="8.467372387199644"><ele>36.33333333333333</ele><time>2026-04-08T10:01:57.999Z</time></trkpt><trkpt lat="39.28075641402955" lon="8.467406790216968"><ele>35.0</ele><time>2026-04-08T10:01:58.999Z</time></trkpt><trkpt lat="39.28052595146071" lon="8.467456374893347"><ele>32.5</ele><time>2026-04-08T10:01:59.999Z</time></trkpt><trkpt lat="39.280295958367" lon="8.467528253681518"><ele>30.0</ele><time>2026-04-08T10:02:00.999Z</time></trkpt><trkpt lat="39.28006178442788" lon="8.46761227964384"><ele>30.0</ele><time>2026-04-08T10:02:01.999Z</time></trkpt><trkpt lat="39.27982234542546" lon="8.467687279178811"><ele>30.0</ele><time>2026-04-08T10:02:02.999Z</time></trkpt><trkpt lat="39.27957260968862" lon="8.467758337393041"><ele>30.0</ele><time>2026-04-08T10:02:03.999Z</time></trkpt><trkpt lat="39.279325724071626" lon="8.46782707352737"><ele>30.0</ele><time>2026-04-08T10:02:04.999Z</time></trkpt><trkpt lat="39.27910698326495" lon="8.46788654614447"><ele>31.0</ele><time>2026-04-08T10:02:05.999Z</time></trkpt><trkpt lat="39.27890448759336" lon="8.467940431207799"><ele>32.0</ele><time>2026-04-08T10:02:06.999Z</time></trkpt><trkpt lat="39.27871800466296" lon="8.4679890981652"><ele>33.0</ele><time>2026-04-08T10:02:07.999Z</time></trkpt><trkpt lat="39.27854447877941" lon="8.468024557327938"><ele>33.0</ele><time>2026-04-08T10:02:08.999Z</time></trkpt><trkpt lat="39.27839896114515" lon="8.468045547958614"><ele>33.0</ele><time>2026-04-08T10:02:09.999Z</time></trkpt><trkpt lat="39.278264262051195" lon="8.468063702656613"><ele>33.0</ele><time>2026-04-08T10:02:10.999Z</time></trkpt><trkpt lat="39.278125919395144" lon="8.468083715849895"><ele>33.0</ele><time>2026-04-08T10:02:11.999Z</time></trkpt><trkpt lat="39.27801787111662" lon="8.468091372577934"><ele>30.599999999999998</ele><time>2026-04-08T10:02:12.999Z</time></trkpt><trkpt lat="39.27792512535609" lon="8.46808868042036"><ele>28.199999999999996</ele><time>2026-04-08T10:02:13.999Z</time></trkpt><trkpt lat="39.27783459308289" lon="8.468069411034126"><ele>25.8</ele><time>2026-04-08T10:02:14.999Z</time></trkpt><trkpt lat="39.277741975566514" lon="8.46802756127838"><ele>23.4</ele><time>2026-04-08T10:02:15.999Z</time></trkpt><trkpt lat="39.27766260363869" lon="8.467960592153089"><ele>21.0</ele><time>2026-04-08T10:02:16.999Z</time></trkpt><trkpt lat="39.2775869750934" lon="8.467875657284612"><ele>20.6</ele><time>2026-04-08T10:02:17.999Z</time></trkpt><trkpt lat="39.2775191557758" lon="8.467760678528187"><ele>20.200000000000003</ele><time>2026-04-08T10:02:18.999Z</time></trkpt><trkpt lat="39.27747134561824" lon="8.467636107097531"><ele>19.799999999999997</ele><time>2026-04-08T10:02:19.999Z</time></trkpt><trkpt lat="39.2774461728371" lon="8.467497636450448"><ele>19.4</ele><time>2026-04-08T10:02:20.999Z</time></trkpt><trkpt lat="39.2774386289317" lon="8.467366204248062"><ele>19.0</ele><time>2026-04-08T10:02:21.999Z</time></trkpt><trkpt lat="39.27745219048202" lon="8.467245358378916"><ele>19.0</ele><time>2026-04-08T10:02:22.999Z</time></trkpt><trkpt lat="39.27748652719592" lon="8.467128036931362"><ele>19.0</ele><time>2026-04-08T10:02:23.999Z</time></trkpt><trkpt lat="39.27754748781622" lon="8.46702614528458"><ele>19.0</ele><time>2026-04-08T10:02:24.999Z</time></trkpt><trkpt lat="39.277625341260034" lon="8.466936571603696"><ele>19.0</ele><time>2026-04-08T10:02:25.999Z</time></trkpt><trkpt lat="39.27771757803652" lon="8.466854158677044"><ele>19.0</ele><time>2026-04-08T10:02:26.999Z</time></trkpt><trkpt lat="39.277815200233995" lon="8.466763989513602"><ele>19.0</ele><time>2026-04-08T10:02:27.999Z</time></trkpt><trkpt lat="39.27791282784409" lon="8.466666007173204"><ele>19.0</ele><time>2026-04-08T10:02:28.999Z</time></trkpt><trkpt lat="39.27801574552259" lon="8.466567474958469"><ele>19.0</ele><time>2026-04-08T10:02:29.999Z</time></trkpt><trkpt lat="39.27813742403977" lon="8.466452502644037"><ele>19.0</ele><time>2026-04-08T10:02:30.999Z</time></trkpt><trkpt lat="39.2782702908305" lon="8.466327106794685"><ele>18.0</ele><time>2026-04-08T10:02:31.999Z</time></trkpt><trkpt lat="39.27839156054325" lon="8.466206843574748"><ele>17.0</ele><time>2026-04-08T10:02:32.998Z</time></trkpt><trkpt lat="39.27850453663727" lon="8.466070295972491"><ele>16.0</ele><time>2026-04-08T10:02:33.998Z</time></trkpt><trkpt lat="39.27860504166778" lon="8.46593272237133"><ele>16.0</ele><time>2026-04-08T10:02:34.998Z</time></trkpt><trkpt lat="39.27869143323165" lon="8.465812688765887"><ele>16.0</ele><time>2026-04-08T10:02:35.998Z</time></trkpt><trkpt lat="39.27876499601381" lon="8.465769896447524"><ele>16.0</ele><time>2026-04-08T10:02:37.998Z</time></trkpt><trkpt lat="39.278813340525524" lon="8.465665946408981"><ele>16.0</ele><time>2026-04-08T10:02:39.998Z</time></trkpt><trkpt lat="39.27883505768375" lon="8.46556600149851"><ele>16.0</ele><time>2026-04-08T10:02:42.998Z</time></trkpt><trkpt lat="39.27886293428259" lon="8.465462697696374"><ele>16.0</ele><time>2026-04-08T10:02:43.998Z</time></trkpt><trkpt lat="39.27894220627186" lon="8.465312256185372"><ele>16.0</ele><time>2026-04-08T10:02:44.998Z</time></trkpt><trkpt lat="39.27900639288003" lon="8.465112409496337"><ele>16.0</ele><time>2026-04-08T10:02:45.998Z</time></trkpt><trkpt lat="39.27907198871948" lon="8.464946712550846"><ele>16.0</ele><time>2026-04-08T10:02:46.998Z</time></trkpt><trkpt lat="39.27912329804278" lon="8.4648060558449"><ele>16.0</ele><time>2026-04-08T10:02:47.998Z</time></trkpt><trkpt lat="39.27915841844489" lon="8.464659270706445"><ele>16.0</ele><time>2026-04-08T10:02:48.998Z</time></trkpt><trkpt lat="39.279184628205115" lon="8.464495999401692"><ele>16.0</ele><time>2026-04-08T10:02:49.998Z</time></trkpt><trkpt lat="39.27919745740322" lon="8.464317303577698"><ele>15.5</ele><time>2026-04-08T10:02:50.998Z</time></trkpt><trkpt lat="39.279202784136956" lon="8.4640662438308"><ele>15.0</ele><time>2026-04-08T10:02:51.998Z</time></trkpt><trkpt lat="39.27920640451159" lon="8.46369858404992"><ele>16.0</ele><time>2026-04-08T10:02:52.998Z</time></trkpt><trkpt lat="39.27921258920879" lon="8.463377155758822"><ele>17.0</ele><time>2026-04-08T10:02:53.998Z</time></trkpt><trkpt lat="39.279261463114835" lon="8.463108560805246"><ele>16.333333333333336</ele><time>2026-04-08T10:02:54.998Z</time></trkpt><trkpt lat="39.27931721762055" lon="8.462847288599047"><ele>15.666666666666668</ele><time>2026-04-08T10:02:55.998Z</time></trkpt><trkpt lat="39.279382426200875" lon="8.462606370741375"><ele>15.0</ele><time>2026-04-08T10:02:56.998Z</time></trkpt><trkpt lat="39.27947509888355" lon="8.462371044509359"><ele>15.0</ele><time>2026-04-08T10:02:57.998Z</time></trkpt><trkpt lat="39.279583933895644" lon="8.46214243856738"><ele>15.0</ele><time>2026-04-08T10:02:58.998Z</time></trkpt><trkpt lat="39.279687901530195" lon="8.461948830683417"><ele>15.0</ele><time>2026-04-08T10:02:59.998Z</time></trkpt><trkpt lat="39.27980463708951" lon="8.461754933169763"><ele>14.5</ele><time>2026-04-08T10:03:00.998Z</time></trkpt><trkpt lat="39.27995940785124" lon="8.46151414082298"><ele>14.0</ele><time>2026-04-08T10:03:01.998Z</time></trkpt><trkpt lat="39.280111468828245" lon="8.461240751330779"><ele>13.666666666666668</ele><time>2026-04-08T10:03:02.998Z</time></trkpt><trkpt lat="39.28025591010551" lon="8.461006548492731"><ele>13.333333333333332</ele><time>2026-04-08T10:03:03.998Z</time></trkpt><trkpt lat="39.28037964462239" lon="8.46080640425327"><ele>13.0</ele><time>2026-04-08T10:03:04.998Z</time></trkpt><trkpt lat="39.28050554360906" lon="8.460608170883468"><ele>13.666666666666666</ele><time>2026-04-08T10:03:05.998Z</time></trkpt><trkpt lat="39.280665648168025" lon="8.46041258156085"><ele>14.333333333333332</ele><time>2026-04-08T10:03:06.998Z</time></trkpt><trkpt lat="39.2808092298046" lon="8.460236536280684"><ele>15.0</ele><time>2026-04-08T10:03:07.998Z</time></trkpt><trkpt lat="39.280968899696106" lon="8.460087752391006"><ele>15.0</ele><time>2026-04-08T10:03:08.998Z</time></trkpt><trkpt lat="39.28114874817507" lon="8.459941124093925"><ele>15.0</ele><time>2026-04-08T10:03:09.998Z</time></trkpt><trkpt lat="39.28132675582737" lon="8.459809395409435"><ele>15.0</ele><time>2026-04-08T10:03:10.998Z</time></trkpt><trkpt lat="39.28146303650252" lon="8.459674054275224"><ele>14.0</ele><time>2026-04-08T10:03:11.998Z</time></trkpt><trkpt lat="39.28159478182448" lon="8.45955399378009"><ele>13.0</ele><time>2026-04-08T10:03:12.998Z</time></trkpt><trkpt lat="39.28170962379822" lon="8.459388082186065"><ele>12.0</ele><time>2026-04-08T10:03:13.997Z</time></trkpt><trkpt lat="39.281806762878276" lon="8.459195835471316"><ele>12.0</ele><time>2026-04-08T10:03:14.997Z</time></trkpt><trkpt lat="39.28189633249859" lon="8.45900708936872"><ele>12.0</ele><time>2026-04-08T10:03:15.997Z</time></trkpt><trkpt lat="39.2819581783947" lon="8.458805801355625"><ele>12.0</ele><time>2026-04-08T10:03:17Z</time></trkpt><trkpt lat="39.282005008248234" lon="8.458588701154358"><ele>12.0</ele><time>2026-04-08T10:03:18Z</time></trkpt><trkpt lat="39.282037039041796" lon="8.458346953885206"><ele>12.0</ele><time>2026-04-08T10:03:19Z</time></trkpt><trkpt lat="39.28206074909751" lon="8.458107046123642"><ele>12.0</ele><time>2026-04-08T10:03:20Z</time></trkpt><trkpt lat="39.28207214578554" lon="8.457894103408162"><ele>12.666666666666668</ele><time>2026-04-08T10:03:21Z</time></trkpt><trkpt lat="39.28207814602843" lon="8.457671501965633"><ele>13.333333333333334</ele><time>2026-04-08T10:03:22Z</time></trkpt><trkpt lat="39.282076178877496" lon="8.457439305131976"><ele>14.0</ele><time>2026-04-08T10:03:23Z</time></trkpt><trkpt lat="39.28207395042845" lon="8.457222234588427"><ele>14.5</ele><time>2026-04-08T10:03:24Z</time></trkpt><trkpt lat="39.282077715044636" lon="8.457031649523055"><ele>15.0</ele><time>2026-04-08T10:03:25Z</time></trkpt><trkpt lat="39.282085446633864" lon="8.4568563740676"><ele>15.5</ele><time>2026-04-08T10:03:26Z</time></trkpt><trkpt lat="39.28209015676266" lon="8.456685189328686"><ele>16.0</ele><time>2026-04-08T10:03:27Z</time></trkpt><trkpt lat="39.28208689570193" lon="8.456505240176373"><ele>16.0</ele><time>2026-04-08T10:03:28Z</time></trkpt><trkpt lat="39.28205959865004" lon="8.456306797970472"><ele>16.0</ele><time>2026-04-08T10:03:29Z</time></trkpt><trkpt lat="39.282014623662995" lon="8.456109718952959"><ele>16.0</ele><time>2026-04-08T10:03:30Z</time></trkpt><trkpt lat="39.281954719572205" lon="8.455907988513982"><ele>16.0</ele><time>2026-04-08T10:03:31Z</time></trkpt><trkpt lat="39.28189900065797" lon="8.455709243002538"><ele>16.0</ele><time>2026-04-08T10:03:32Z</time></trkpt><trkpt lat="39.2818513248589" lon="8.455512923523058"><ele>16.0</ele><time>2026-04-08T10:03:33Z</time></trkpt><trkpt lat="39.28180142912161" lon="8.455320134411227"><ele>16.5</ele><time>2026-04-08T10:03:34Z</time></trkpt><trkpt lat="39.281740717204826" lon="8.455130291966498"><ele>17.0</ele><time>2026-04-08T10:03:35Z</time></trkpt><trkpt lat="39.281684704833665" lon="8.454956974278135"><ele>17.5</ele><time>2026-04-08T10:03:36Z</time></trkpt><trkpt lat="39.28163752874191" lon="8.454786932264403"><ele>18.0</ele><time>2026-04-08T10:03:37Z</time></trkpt><trkpt lat="39.28159378067025" lon="8.454613016990857"><ele>18.333333333333332</ele><time>2026-04-08T10:03:38Z</time></trkpt><trkpt lat="39.28156205117451" lon="8.45442494079037"><ele>18.666666666666664</ele><time>2026-04-08T10:03:39Z</time></trkpt><trkpt lat="39.28157006047289" lon="8.45422727071037"><ele>19.0</ele><time>2026-04-08T10:03:40Z</time></trkpt><trkpt lat="39.281583395224374" lon="8.454023243920734"><ele>19.0</ele><time>2026-04-08T10:03:41Z</time></trkpt><trkpt lat="39.28161553996343" lon="8.453804608326843"><ele>19.0</ele><time>2026-04-08T10:03:42Z</time></trkpt><trkpt lat="39.28164489219564" lon="8.453556912265388"><ele>19.0</ele><time>2026-04-08T10:03:43Z</time></trkpt><trkpt lat="39.28170844754452" lon="8.453301750031047"><ele>18.0</ele><time>2026-04-08T10:03:44Z</time></trkpt><trkpt lat="39.28176219542776" lon="8.4530471673051"><ele>17.0</ele><time>2026-04-08T10:03:45Z</time></trkpt><trkpt lat="39.28181463407023" lon="8.452743518966567"><ele>16.0</ele><time>2026-04-08T10:03:46Z</time></trkpt><trkpt lat="39.281907747736575" lon="8.452371328342933"><ele>14.5</ele><time>2026-04-08T10:03:47Z</time></trkpt><trkpt lat="39.28199311630098" lon="8.451976876150134"><ele>13.0</ele><time>2026-04-08T10:03:48Z</time></trkpt><trkpt lat="39.28205365012528" lon="8.45161459655863"><ele>13.0</ele><time>2026-04-08T10:03:49Z</time></trkpt><trkpt lat="39.28212688489476" lon="8.451319710948594"><ele>13.0</ele><time>2026-04-08T10:03:50Z</time></trkpt><trkpt lat="39.28219582534544" lon="8.451043268662893"><ele>13.0</ele><time>2026-04-08T10:03:51Z</time></trkpt><trkpt lat="39.28228147157356" lon="8.45075489653048"><ele>13.0</ele><time>2026-04-08T10:03:52Z</time></trkpt><trkpt lat="39.282384553061114" lon="8.450443198694991"><ele>13.0</ele><time>2026-04-08T10:03:53Z</time></trkpt><trkpt lat="39.28248573699495" lon="8.45014184158549"><ele>13.0</ele><time>2026-04-08T10:03:54Z</time></trkpt><trkpt lat="39.282575981128396" lon="8.44984813481227"><ele>12.0</ele><time>2026-04-08T10:03:55Z</time></trkpt><trkpt lat="39.28266510110739" lon="8.449577110855353"><ele>11.0</ele><time>2026-04-08T10:03:56Z</time></trkpt><trkpt lat="39.28274773090749" lon="8.44933480056343"><ele>10.0</ele><time>2026-04-08T10:03:57Z</time></trkpt><trkpt lat="39.28282197456438" lon="8.449105729029178"><ele>10.0</ele><time>2026-04-08T10:03:58Z</time></trkpt><trkpt lat="39.282901320353446" lon="8.44887159613568"><ele>10.0</ele><time>2026-04-08T10:03:58.999Z</time></trkpt><trkpt lat="39.2829819412513" lon="8.448637326176952"><ele>10.0</ele><time>2026-04-08T10:03:59.999Z</time></trkpt><trkpt lat="39.283060035244965" lon="8.44840121171025"><ele>10.0</ele><time>2026-04-08T10:04:00.999Z</time></trkpt><trkpt lat="39.28315413064713" lon="8.448137378696115"><ele>10.0</ele><time>2026-04-08T10:04:01.999Z</time></trkpt><trkpt lat="39.283284824964" lon="8.447862873197424"><ele>9.5</ele><time>2026-04-08T10:04:02.999Z</time></trkpt><trkpt lat="39.283404328595786" lon="8.44757383704855"><ele>9.0</ele><time>2026-04-08T10:04:03.999Z</time></trkpt><trkpt lat="39.28352995319271" lon="8.447269125522075"><ele>9.5</ele><time>2026-04-08T10:04:04.999Z</time></trkpt><trkpt lat="39.28366181514459" lon="8.446952096865617"><ele>10.0</ele><time>2026-04-08T10:04:05.999Z</time></trkpt><trkpt lat="39.283791274873074" lon="8.44664196745977"><ele>10.0</ele><time>2026-04-08T10:04:06.999Z</time></trkpt><trkpt lat="39.28391583558715" lon="8.446314349006004"><ele>10.0</ele><time>2026-04-08T10:04:07.999Z</time></trkpt><trkpt lat="39.284049601025586" lon="8.445996709968504"><ele>10.5</ele><time>2026-04-08T10:04:08.999Z</time></trkpt><trkpt lat="39.2841793975769" lon="8.445671412542895"><ele>11.0</ele><time>2026-04-08T10:04:09.999Z</time></trkpt><trkpt lat="39.28431583945831" lon="8.445350653062974"><ele>11.0</ele><time>2026-04-08T10:04:10.999Z</time></trkpt><trkpt lat="39.284443711792036" lon="8.445038737630814"><ele>11.0</ele><time>2026-04-08T10:04:11.999Z</time></trkpt><trkpt lat="39.28456064812827" lon="8.444750732831695"><ele>10.5</ele><time>2026-04-08T10:04:12.999Z</time></trkpt><trkpt lat="39.28467395543112" lon="8.444482545752138"><ele>10.0</ele><time>2026-04-08T10:04:13.999Z</time></trkpt><trkpt lat="39.28478740398098" lon="8.444217557887887"><ele>12.0</ele><time>2026-04-08T10:04:14.999Z</time></trkpt><trkpt lat="39.28490607709979" lon="8.443959389489692"><ele>14.0</ele><time>2026-04-08T10:04:15.999Z</time></trkpt><trkpt lat="39.285041479281205" lon="8.443702179275046"><ele>14.0</ele><time>2026-04-08T10:04:16.999Z</time></trkpt><trkpt lat="39.285183892445765" lon="8.44345281346657"><ele>14.0</ele><time>2026-04-08T10:04:17.999Z</time></trkpt><trkpt lat="39.28532347882278" lon="8.443213136925364"><ele>14.0</ele><time>2026-04-08T10:04:18.999Z</time></trkpt><trkpt lat="39.28546446984289" lon="8.442974499193802"><ele>14.0</ele><time>2026-04-08T10:04:19.999Z</time></trkpt><trkpt lat="39.285599498263636" lon="8.442742598628252"><ele>14.333333333333334</ele><time>2026-04-08T10:04:20.999Z</time></trkpt><trkpt lat="39.28572344139943" lon="8.44253419089465"><ele>14.666666666666668</ele><time>2026-04-08T10:04:21.999Z</time></trkpt><trkpt lat="39.28586843063843" lon="8.442332930827778"><ele>15.0</ele><time>2026-04-08T10:04:22.999Z</time></trkpt><trkpt lat="39.28603703817827" lon="8.44213727620661"><ele>13.0</ele><time>2026-04-08T10:04:23.999Z</time></trkpt><trkpt lat="39.2862256484866" lon="8.441965795463473"><ele>11.0</ele><time>2026-04-08T10:04:24.999Z</time></trkpt><trkpt lat="39.2864262828839" lon="8.441757558117272"><ele>12.5</ele><time>2026-04-08T10:04:25.999Z</time></trkpt><trkpt lat="39.286638256227796" lon="8.441537552374518"><ele>14.0</ele><time>2026-04-08T10:04:26.999Z</time></trkpt><trkpt lat="39.286835710509706" lon="8.441332615698384"><ele>12.5</ele><time>2026-04-08T10:04:27.999Z</time></trkpt><trkpt lat="39.287026996756886" lon="8.441134209143936"><ele>11.0</ele><time>2026-04-08T10:04:28.999Z</time></trkpt><trkpt lat="39.28721426361202" lon="8.440919320304262"><ele>12.5</ele><time>2026-04-08T10:04:29.999Z</time></trkpt><trkpt lat="39.28740963906343" lon="8.440719037715363"><ele>14.0</ele><time>2026-04-08T10:04:30.999Z</time></trkpt><trkpt lat="39.28759723125081" lon="8.440520145383092"><ele>12.0</ele><time>2026-04-08T10:04:31.999Z</time></trkpt><trkpt lat="39.287785598766156" lon="8.440324881796261"><ele>10.0</ele><time>2026-04-08T10:04:32.999Z</time></trkpt><trkpt lat="39.28796540644237" lon="8.440142786493295"><ele>11.0</ele><time>2026-04-08T10:04:33.999Z</time></trkpt><trkpt lat="39.28813097214018" lon="8.439975292067277"><ele>12.0</ele><time>2026-04-08T10:04:34.999Z</time></trkpt><trkpt lat="39.28828397187115" lon="8.439827904722238"><ele>13.0</ele><time>2026-04-08T10:04:35.999Z</time></trkpt><trkpt lat="39.28842883695836" lon="8.43969810741375"><ele>11.333333333333332</ele><time>2026-04-08T10:04:36.999Z</time></trkpt><trkpt lat="39.28856504478" lon="8.43957702020795"><ele>9.666666666666666</ele><time>2026-04-08T10:04:37.999Z</time></trkpt><trkpt lat="39.288701708071414" lon="8.439436998642107"><ele>8.0</ele><time>2026-04-08T10:04:38.999Z</time></trkpt><trkpt lat="39.28883957574837" lon="8.439294001795286"><ele>9.333333333333332</ele><time>2026-04-08T10:04:39.998Z</time></trkpt><trkpt lat="39.28897958554189" lon="8.439168732297796"><ele>10.666666666666666</ele><time>2026-04-08T10:04:40.998Z</time></trkpt><trkpt lat="39.28912665861906" lon="8.43906390116944"><ele>12.0</ele><time>2026-04-08T10:04:41.998Z</time></trkpt><trkpt lat="39.289287612231625" lon="8.438977588595117"><ele>12.0</ele><time>2026-04-08T10:04:42.998Z</time></trkpt><trkpt lat="39.2894667488806" lon="8.438897002028778"><ele>12.0</ele><time>2026-04-08T10:04:43.998Z</time></trkpt><trkpt lat="39.289661358677286" lon="8.438815347154321"><ele>12.0</ele><time>2026-04-08T10:04:44.998Z</time></trkpt><trkpt lat="39.28985537636286" lon="8.438742962311846"><ele>11.666666666666666</ele><time>2026-04-08T10:04:45.998Z</time></trkpt><trkpt lat="39.29004677972187" lon="8.43867696950633"><ele>11.333333333333332</ele><time>2026-04-08T10:04:46.998Z</time></trkpt><trkpt lat="39.29024806818551" lon="8.43861893176392"><ele>11.0</ele><time>2026-04-08T10:04:47.998Z</time></trkpt><trkpt lat="39.29044286276475" lon="8.438572268219525"><ele>13.333333333333332</ele><time>2026-04-08T10:04:48.998Z</time></trkpt><trkpt lat="39.29062346885875" lon="8.438551209498204"><ele>15.666666666666666</ele><time>2026-04-08T10:04:49.998Z</time></trkpt><trkpt lat="39.290815179416555" lon="8.438563596805844"><ele>18.0</ele><time>2026-04-08T10:04:50.998Z</time></trkpt><trkpt lat="39.291020595650366" lon="8.438591803686446"><ele>18.0</ele><time>2026-04-08T10:04:51.998Z</time></trkpt><trkpt lat="39.29119801509128" lon="8.438585679553238"><ele>18.0</ele><time>2026-04-08T10:04:52.998Z</time></trkpt><trkpt lat="39.291347747868414" lon="8.438565108668822"><ele>18.0</ele><time>2026-04-08T10:04:53.998Z</time></trkpt><trkpt lat="39.291489074223186" lon="8.438519228092982"><ele>21.0</ele><time>2026-04-08T10:04:54.998Z</time></trkpt><trkpt lat="39.29164781852949" lon="8.438420122193495"><ele>24.0</ele><time>2026-04-08T10:04:55.998Z</time></trkpt><trkpt lat="39.29182063339146" lon="8.438273183972974"><ele>27.0</ele><time>2026-04-08T10:04:56.998Z</time></trkpt><trkpt lat="39.29200276513803" lon="8.438126793070877"><ele>27.0</ele><time>2026-04-08T10:04:57.998Z</time></trkpt><trkpt lat="39.2921732263171" lon="8.437999486624918"><ele>27.0</ele><time>2026-04-08T10:04:58.998Z</time></trkpt><trkpt lat="39.29231299882353" lon="8.437865561535046"><ele>27.0</ele><time>2026-04-08T10:04:59.998Z</time></trkpt><trkpt lat="39.29243743801821" lon="8.437701512931174"><ele>27.0</ele><time>2026-04-08T10:05:00.998Z</time></trkpt><trkpt lat="39.29256240496479" lon="8.437541399908962"><ele>27.0</ele><time>2026-04-08T10:05:01.998Z</time></trkpt><trkpt lat="39.2926915153663" lon="8.437428777718608"><ele>27.0</ele><time>2026-04-08T10:05:02.998Z</time></trkpt><trkpt lat="39.29283979351752" lon="8.437365794778115"><ele>27.0</ele><time>2026-04-08T10:05:03.998Z</time></trkpt><trkpt lat="39.293017415098966" lon="8.437353200542068"><ele>27.0</ele><time>2026-04-08T10:05:04.998Z</time></trkpt><trkpt lat="39.29320320484352" lon="8.437368339454192"><ele>27.0</ele><time>2026-04-08T10:05:05.998Z</time></trkpt><trkpt lat="39.2933715500845" lon="8.437382197006347"><ele>29.75</ele><time>2026-04-08T10:05:06.998Z</time></trkpt><trkpt lat="39.29351812843629" lon="8.437402150822702"><ele>32.5</ele><time>2026-04-08T10:05:07.998Z</time></trkpt><trkpt lat="39.29364386322341" lon="8.437446401870986"><ele>35.25</ele><time>2026-04-08T10:05:08.998Z</time></trkpt><trkpt lat="39.29376336350589" lon="8.43748996276442"><ele>38.0</ele><time>2026-04-08T10:05:09.998Z</time></trkpt><trkpt lat="39.293872592632894" lon="8.43749190246705"><ele>35.5</ele><time>2026-04-08T10:05:10.998Z</time></trkpt><trkpt lat="39.293984274027295" lon="8.437427248015998"><ele>33.0</ele><time>2026-04-08T10:05:11.998Z</time></trkpt><trkpt lat="39.29410547676543" lon="8.437305942666647"><ele>30.5</ele><time>2026-04-08T10:05:12.998Z</time></trkpt><trkpt lat="39.29422412813436" lon="8.437163640637984"><ele>28.0</ele><time>2026-04-08T10:05:13.998Z</time></trkpt><trkpt lat="39.294341459180295" lon="8.437025910452332"><ele>28.0</ele><time>2026-04-08T10:05:14.998Z</time></trkpt><trkpt lat="39.29446028975376" lon="8.436913914468006"><ele>28.0</ele><time>2026-04-08T10:05:15.998Z</time></trkpt><trkpt lat="39.294586625925305" lon="8.436825446900901"><ele>28.0</ele><time>2026-04-08T10:05:16.998Z</time></trkpt><trkpt lat="39.294750201865725" lon="8.436749452290504"><ele>34.333333333333336</ele><time>2026-04-08T10:05:17.998Z</time></trkpt><trkpt lat="39.2949473762636" lon="8.43667060472073"><ele>40.666666666666664</ele><time>2026-04-08T10:05:18.998Z</time></trkpt><trkpt lat="39.29513780674467" lon="8.436555076180696"><ele>47.0</ele><time>2026-04-08T10:05:19.998Z</time></trkpt><trkpt lat="39.29532383758251" lon="8.43641869037184"><ele>47.0</ele><time>2026-04-08T10:05:20.997Z</time></trkpt><trkpt lat="39.29553114240692" lon="8.436307797463108"><ele>47.0</ele><time>2026-04-08T10:05:22Z</time></trkpt><trkpt lat="39.295756289600426" lon="8.436214192887334"><ele>42.0</ele><time>2026-04-08T10:05:23Z</time></trkpt><trkpt lat="39.29598092179777" lon="8.436116452490543"><ele>37.0</ele><time>2026-04-08T10:05:24Z</time></trkpt><trkpt lat="39.29619815420299" lon="8.436015715414792"><ele>37.0</ele><time>2026-04-08T10:05:25Z</time></trkpt><trkpt lat="39.29640966048807" lon="8.435934174746222"><ele>37.0</ele><time>2026-04-08T10:05:26Z</time></trkpt><trkpt lat="39.29666100372283" lon="8.435865014021752"><ele>47.5</ele><time>2026-04-08T10:05:27Z</time></trkpt><trkpt lat="39.29693355553528" lon="8.435812386606363"><ele>58.0</ele><time>2026-04-08T10:05:28Z</time></trkpt><trkpt lat="39.29722375864226" lon="8.43576260166195"><ele>62.0</ele><time>2026-04-08T10:05:29Z</time></trkpt><trkpt lat="39.29751369161652" lon="8.435702142897846"><ele>66.0</ele><time>2026-04-08T10:05:30Z</time></trkpt><trkpt lat="39.29776327987936" lon="8.43565668402198"><ele>66.0</ele><time>2026-04-08T10:05:31Z</time></trkpt><trkpt lat="39.29799679733671" lon="8.435619321732368"><ele>66.0</ele><time>2026-04-08T10:05:32Z</time></trkpt><trkpt lat="39.298195952218926" lon="8.435587086722572"><ele>66.0</ele><time>2026-04-08T10:05:33Z</time></trkpt><trkpt lat="39.2983763208607" lon="8.435546381514193"><ele>70.0</ele><time>2026-04-08T10:05:34Z</time></trkpt><trkpt lat="39.298554558611734" lon="8.435524943021578"><ele>74.0</ele><time>2026-04-08T10:05:35Z</time></trkpt><trkpt lat="39.2987186744529" lon="8.435527188244459"><ele>78.0</ele><time>2026-04-08T10:05:36Z</time></trkpt><trkpt lat="39.298852201740964" lon="8.435541245260355"><ele>77.0</ele><time>2026-04-08T10:05:37Z</time></trkpt><trkpt lat="39.298976899215006" lon="8.435565283948726"><ele>76.0</ele><time>2026-04-08T10:05:38Z</time></trkpt><trkpt lat="39.299076223118206" lon="8.435582740179838"><ele>75.0</ele><time>2026-04-08T10:05:39Z</time></trkpt><trkpt lat="39.299161337347435" lon="8.43562215594867"><ele>74.0</ele><time>2026-04-08T10:05:40Z</time></trkpt><trkpt lat="39.29923629563641" lon="8.435713323225176"><ele>73.0</ele><time>2026-04-08T10:05:41Z</time></trkpt><trkpt lat="39.29929711072378" lon="8.435859342137908"><ele>73.0</ele><time>2026-04-08T10:05:42Z</time></trkpt><trkpt lat="39.29936831987793" lon="8.436004718958447"><ele>73.0</ele><time>2026-04-08T10:05:43Z</time></trkpt><trkpt lat="39.29948012863626" lon="8.4361079823538"><ele>73.0</ele><time>2026-04-08T10:05:44Z</time></trkpt><trkpt lat="39.29959641808978" lon="8.436172434051496"><ele>73.0</ele><time>2026-04-08T10:05:45Z</time></trkpt><trkpt lat="39.29972053427581" lon="8.436230869914151"><ele>71.8</ele><time>2026-04-08T10:05:46Z</time></trkpt><trkpt lat="39.29983268286475" lon="8.43628891799947"><ele>70.6</ele><time>2026-04-08T10:05:47Z</time></trkpt><trkpt lat="39.29992198328803" lon="8.436349940562712"><ele>69.4</ele><time>2026-04-08T10:05:48Z</time></trkpt><trkpt lat="39.30001000974603" lon="8.436372403936263"><ele>68.2</ele><time>2026-04-08T10:05:49Z</time></trkpt><trkpt lat="39.30009390928643" lon="8.436344170487256"><ele>67.0</ele><time>2026-04-08T10:05:50Z</time></trkpt><trkpt lat="39.300162527616386" lon="8.436244532284078"><ele>67.0</ele><time>2026-04-08T10:05:51Z</time></trkpt><trkpt lat="39.30021214656381" lon="8.43615660857203"><ele>67.0</ele><time>2026-04-08T10:05:52Z</time></trkpt><trkpt lat="39.30021141189146" lon="8.435992435916473"><ele>67.0</ele><time>2026-04-08T10:05:53Z</time></trkpt><trkpt lat="39.300208420013895" lon="8.435877721135265"><ele>67.0</ele><time>2026-04-08T10:05:54Z</time></trkpt><trkpt lat="39.30028454452536" lon="8.435854901964623"><ele>67.0</ele><time>2026-04-08T10:05:55Z</time></trkpt><trkpt lat="39.30036329094007" lon="8.435841727199708"><ele>67.0</ele><time>2026-04-08T10:05:56Z</time></trkpt><trkpt lat="39.30047337199473" lon="8.435808979916594"><ele>67.0</ele><time>2026-04-08T10:05:57Z</time></trkpt><trkpt lat="39.30060767104577" lon="8.43580464657787"><ele>67.0</ele><time>2026-04-08T10:05:58Z</time></trkpt><trkpt lat="39.30073741620775" lon="8.43581976628303"><ele>67.0</ele><time>2026-04-08T10:05:59Z</time></trkpt><trkpt lat="39.30085509025995" lon="8.43585287515549"><ele>69.0</ele><time>2026-04-08T10:06:00Z</time></trkpt><trkpt lat="39.30095727942868" lon="8.435882888271625"><ele>71.0</ele><time>2026-04-08T10:06:01Z</time></trkpt><trkpt lat="39.30108062431299" lon="8.435919114860818"><ele>73.0</ele><time>2026-04-08T10:06:02Z</time></trkpt><trkpt lat="39.301175713856125" lon="8.435947746054746"><ele>75.0</ele><time>2026-04-08T10:06:03Z</time></trkpt><trkpt lat="39.301259982262586" lon="8.435973158934248"><ele>77.0</ele><time>2026-04-08T10:06:04Z</time></trkpt><trkpt lat="39.301358417255194" lon="8.436005843280908"><ele>75.0</ele><time>2026-04-08T10:06:05Z</time></trkpt><trkpt lat="39.30146126018058" lon="8.436048838827404"><ele>73.0</ele><time>2026-04-08T10:06:06Z</time></trkpt><trkpt lat="39.301550087602564" lon="8.436118895296328"><ele>71.0</ele><time>2026-04-08T10:06:06.999Z</time></trkpt><trkpt lat="39.301637694620275" lon="8.436214358129428"><ele>69.0</ele><time>2026-04-08T10:06:07.999Z</time></trkpt><trkpt lat="39.30174375500419" lon="8.4363363900529"><ele>80.66666666666666</ele><time>2026-04-08T10:06:08.999Z</time></trkpt><trkpt lat="39.30183901768908" lon="8.436451292564813"><ele>92.33333333333333</ele><time>2026-04-08T10:06:09.999Z</time></trkpt><trkpt lat="39.30195571612261" lon="8.436597439598764"><ele>104.0</ele><time>2026-04-08T10:06:10.999Z</time></trkpt><trkpt lat="39.302099337621875" lon="8.43677822329722"><ele>104.0</ele><time>2026-04-08T10:06:11.999Z</time></trkpt><trkpt lat="39.30222548091581" lon="8.436925906003786"><ele>104.0</ele><time>2026-04-08T10:06:12.999Z</time></trkpt><trkpt lat="39.30231355299159" lon="8.437042845069604"><ele>104.0</ele><time>2026-04-08T10:06:13.999Z</time></trkpt><trkpt lat="39.30238997437558" lon="8.437096979692177"><ele>104.0</ele><time>2026-04-08T10:06:14.999Z</time></trkpt><trkpt lat="39.30247503115633" lon="8.437090951995808"><ele>99.25</ele><time>2026-04-08T10:06:15.999Z</time></trkpt><trkpt lat="39.302568793110595" lon="8.437018483729277"><ele>94.5</ele><time>2026-04-08T10:06:16.999Z</time></trkpt><trkpt lat="39.30266834919168" lon="8.43686401308055"><ele>89.75</ele><time>2026-04-08T10:06:17.999Z</time></trkpt><trkpt lat="39.30279529196472" lon="8.436725635987097"><ele>85.0</ele><time>2026-04-08T10:06:18.999Z</time></trkpt><trkpt lat="39.30291018779121" lon="8.43662503955275"><ele>85.0</ele><time>2026-04-08T10:06:19.999Z</time></trkpt><trkpt lat="39.30300993189783" lon="8.436597960783962"><ele>85.0</ele><time>2026-04-08T10:06:20.999Z</time></trkpt><trkpt lat="39.30316562566492" lon="8.43662871247821"><ele>85.0</ele><time>2026-04-08T10:06:21.999Z</time></trkpt><trkpt lat="39.30333502028403" lon="8.436625231534236"><ele>85.0</ele><time>2026-04-08T10:06:22.999Z</time></trkpt><trkpt lat="39.303463343964374" lon="8.436599122100706"><ele>90.0</ele><time>2026-04-08T10:06:23.999Z</time></trkpt><trkpt lat="39.303601638429186" lon="8.436560074358972"><ele>95.0</ele><time>2026-04-08T10:06:24.999Z</time></trkpt><trkpt lat="39.303870981231" lon="8.436406086835895"><ele>100.0</ele><time>2026-04-08T10:06:25.999Z</time></trkpt><trkpt lat="39.304125032473806" lon="8.436319225668107"><ele>87.0</ele><time>2026-04-08T10:06:26.999Z</time></trkpt><trkpt lat="39.304383957182644" lon="8.436229759487059"><ele>74.0</ele><time>2026-04-08T10:06:27.999Z</time></trkpt><trkpt lat="39.304615369100866" lon="8.43614979848861"><ele>81.33333333333334</ele><time>2026-04-08T10:06:28.999Z</time></trkpt><trkpt lat="39.30479310259142" lon="8.43608877829273"><ele>88.66666666666667</ele><time>2026-04-08T10:06:29.999Z</time></trkpt><trkpt lat="39.30496802789787" lon="8.436029937922346"><ele>96.0</ele><time>2026-04-08T10:06:30.999Z</time></trkpt><trkpt lat="39.3050956612918" lon="8.43599034649384"><ele>96.0</ele><time>2026-04-08T10:06:31.999Z</time></trkpt><trkpt lat="39.305181974540595" lon="8.435925772504529"><ele>96.0</ele><time>2026-04-08T10:06:32.999Z</time></trkpt><trkpt lat="39.30525506166049" lon="8.435781047914107"><ele>96.0</ele><time>2026-04-08T10:06:33.999Z</time></trkpt><trkpt lat="39.30537160125884" lon="8.43564922034391"><ele>96.0</ele><time>2026-04-08T10:06:34.999Z</time></trkpt><trkpt lat="39.30554447444821" lon="8.435554646722608"><ele>90.66666666666667</ele><time>2026-04-08T10:06:35.999Z</time></trkpt><trkpt lat="39.30572579013609" lon="8.435463309306126"><ele>85.33333333333334</ele><time>2026-04-08T10:06:36.999Z</time></trkpt><trkpt lat="39.30587802423424" lon="8.435429777996362"><ele>80.0</ele><time>2026-04-08T10:06:37.999Z</time></trkpt><trkpt lat="39.306006534166514" lon="8.435421796897355"><ele>80.0</ele><time>2026-04-08T10:06:38.999Z</time></trkpt><trkpt lat="39.30615008155089" lon="8.435448193517729"><ele>80.0</ele><time>2026-04-08T10:06:39.999Z</time></trkpt><trkpt lat="39.30625156053247" lon="8.43551420468626"><ele>80.0</ele><time>2026-04-08T10:06:40.999Z</time></trkpt><trkpt lat="39.306350741815926" lon="8.435618878350548"><ele>80.0</ele><time>2026-04-08T10:06:41.999Z</time></trkpt><trkpt lat="39.30650343569216" lon="8.435769110555581"><ele>84.75</ele><time>2026-04-08T10:06:42.999Z</time></trkpt><trkpt lat="39.30663928150276" lon="8.435888111535252"><ele>89.5</ele><time>2026-04-08T10:06:43.999Z</time></trkpt><trkpt lat="39.30675382953591" lon="8.435971912798575"><ele>94.25</ele><time>2026-04-08T10:06:44.999Z</time></trkpt><trkpt lat="39.306815185273756" lon="8.43605913326485"><ele>99.0</ele><time>2026-04-08T10:06:45.999Z</time></trkpt><trkpt lat="39.30682926700978" lon="8.4361395582635"><ele>99.0</ele><time>2026-04-08T10:06:46.999Z</time></trkpt><trkpt lat="39.30676527320583" lon="8.436213449589943"><ele>99.0</ele><time>2026-04-08T10:06:47.999Z</time></trkpt><trkpt lat="39.30671854619822" lon="8.436389777221738"><ele>99.0</ele><time>2026-04-08T10:06:48.998Z</time></trkpt><trkpt lat="39.306671169135576" lon="8.436534661423579"><ele>99.0</ele><time>2026-04-08T10:06:49.998Z</time></trkpt><trkpt lat="39.30670454236618" lon="8.436668154874193"><ele>101.25</ele><time>2026-04-08T10:06:50.998Z</time></trkpt><trkpt lat="39.306794944966136" lon="8.436835953736036"><ele>103.5</ele><time>2026-04-08T10:06:51.998Z</time></trkpt><trkpt lat="39.30689249329595" lon="8.437000807275721"><ele>105.75</ele><time>2026-04-08T10:06:52.998Z</time></trkpt><trkpt lat="39.30690630492288" lon="8.437163961281954"><ele>108.0</ele><time>2026-04-08T10:06:53.998Z</time></trkpt><trkpt lat="39.30691425311272" lon="8.437301168674376"><ele>108.0</ele><time>2026-04-08T10:06:54.998Z</time></trkpt><trkpt lat="39.30689583925347" lon="8.437396948048969"><ele>108.00000000000001</ele><time>2026-04-08T10:06:55.998Z</time></trkpt><trkpt lat="39.30682432280736" lon="8.437434502687475"><ele>108.00000000000001</ele><time>2026-04-08T10:06:56.998Z</time></trkpt><trkpt lat="39.30670873479831" lon="8.437463631349079"><ele>108.0</ele><time>2026-04-08T10:06:57.998Z</time></trkpt><trkpt lat="39.30656382233675" lon="8.437520965175333"><ele>108.0</ele><time>2026-04-08T10:06:58.998Z</time></trkpt><trkpt lat="39.30640511777795" lon="8.437551646898589"><ele>117.25</ele><time>2026-04-08T10:06:59.998Z</time></trkpt><trkpt lat="39.306295729980626" lon="8.437608541022426"><ele>126.5</ele><time>2026-04-08T10:07:00.998Z</time></trkpt><trkpt lat="39.30619123455992" lon="8.437716477912417"><ele>135.75</ele><time>2026-04-08T10:07:01.998Z</time></trkpt><trkpt lat="39.30608982671731" lon="8.437816465598441"><ele>145.0</ele><time>2026-04-08T10:07:02.998Z</time></trkpt><trkpt lat="39.306008296178256" lon="8.437946027952139"><ele>141.75</ele><time>2026-04-08T10:07:03.998Z</time></trkpt><trkpt lat="39.30593770426215" lon="8.438093582567456"><ele>138.5</ele><time>2026-04-08T10:07:04.998Z</time></trkpt><trkpt lat="39.3059106180374" lon="8.438271115552743"><ele>135.25</ele><time>2026-04-08T10:07:05.998Z</time></trkpt><trkpt lat="39.30588921158432" lon="8.438444257081512"><ele>132.0</ele><time>2026-04-08T10:07:06.998Z</time></trkpt><trkpt lat="39.30589499182772" lon="8.438620868087623"><ele>132.0</ele><time>2026-04-08T10:07:07.998Z</time></trkpt><trkpt lat="39.30591596042534" lon="8.438762153923719"><ele>132.0</ele><time>2026-04-08T10:07:08.998Z</time></trkpt><trkpt lat="39.30599375218129" lon="8.43891484316035"><ele>132.0</ele><time>2026-04-08T10:07:09.998Z</time></trkpt><trkpt lat="39.30609945767635" lon="8.439047882808772"><ele>132.0</ele><time>2026-04-08T10:07:10.998Z</time></trkpt><trkpt lat="39.30616069720335" lon="8.439192276690308"><ele>132.5</ele><time>2026-04-08T10:07:11.998Z</time></trkpt><trkpt lat="39.3061703070083" lon="8.439354129681275"><ele>133.0</ele><time>2026-04-08T10:07:12.998Z</time></trkpt><trkpt lat="39.30618551783605" lon="8.43955864953706"><ele>133.5</ele><time>2026-04-08T10:07:13.998Z</time></trkpt><trkpt lat="39.306154707219385" lon="8.439750952928451"><ele>134.0</ele><time>2026-04-08T10:07:14.998Z</time></trkpt><trkpt lat="39.30612501142534" lon="8.439929652928473"><ele>136.25</ele><time>2026-04-08T10:07:15.998Z</time></trkpt><trkpt lat="39.30611271007894" lon="8.440078864976998"><ele>138.5</ele><time>2026-04-08T10:07:16.998Z</time></trkpt><trkpt lat="39.306169423805045" lon="8.440251159105722"><ele>140.75</ele><time>2026-04-08T10:07:17.998Z</time></trkpt><trkpt lat="39.306252885334494" lon="8.440433713526124"><ele>143.0</ele><time>2026-04-08T10:07:18.998Z</time></trkpt><trkpt lat="39.306316769957526" lon="8.440573442282204"><ele>144.4</ele><time>2026-04-08T10:07:19.998Z</time></trkpt><trkpt lat="39.30637640519431" lon="8.440659313142527"><ele>145.8</ele><time>2026-04-08T10:07:20.998Z</time></trkpt><trkpt lat="39.30647437960924" lon="8.44068795479771"><ele>147.2</ele><time>2026-04-08T10:07:21.998Z</time></trkpt><trkpt lat="39.306586575688314" lon="8.440649260773478"><ele>148.6</ele><time>2026-04-08T10:07:22.998Z</time></trkpt><trkpt lat="39.30667761085476" lon="8.440538833157465"><ele>150.0</ele><time>2026-04-08T10:07:23.998Z</time></trkpt><trkpt lat="39.306699875187995" lon="8.440387877959525"><ele>141.33333333333334</ele><time>2026-04-08T10:07:24.998Z</time></trkpt><trkpt lat="39.306697117125864" lon="8.440199459821068"><ele>132.66666666666669</ele><time>2026-04-08T10:07:25.998Z</time></trkpt><trkpt lat="39.30668865377825" lon="8.439979880045682"><ele>124.0</ele><time>2026-04-08T10:07:26.998Z</time></trkpt><trkpt lat="39.306711624666974" lon="8.439748913369987"><ele>122.0</ele><time>2026-04-08T10:07:28Z</time></trkpt><trkpt lat="39.306754887803365" lon="8.439541902088372"><ele>120.0</ele><time>2026-04-08T10:07:29Z</time></trkpt><trkpt lat="39.306795494754475" lon="8.439394880014827"><ele>118.0</ele><time>2026-04-08T10:07:30Z</time></trkpt><trkpt lat="39.306859496048226" lon="8.43930212393798"><ele>116.0</ele><time>2026-04-08T10:07:31Z</time></trkpt><trkpt lat="39.306936896784514" lon="8.439238690594314"><ele>116.0</ele><time>2026-04-08T10:07:32Z</time></trkpt><trkpt lat="39.30704354986537" lon="8.43932277456112"><ele>116.0</ele><time>2026-04-08T10:07:33Z</time></trkpt><trkpt lat="39.3071486004069" lon="8.439434046786628"><ele>116.0</ele><time>2026-04-08T10:07:34Z</time></trkpt><trkpt lat="39.30730513013868" lon="8.439522719371228"><ele>116.0</ele><time>2026-04-08T10:07:35Z</time></trkpt><trkpt lat="39.307476360090114" lon="8.439636045605823"><ele>122.33333333333333</ele><time>2026-04-08T10:07:36Z</time></trkpt><trkpt lat="39.307660150068905" lon="8.439666976467544"><ele>128.66666666666666</ele><time>2026-04-08T10:07:37Z</time></trkpt><trkpt lat="39.307877447207034" lon="8.439689136786063"><ele>135.0</ele><time>2026-04-08T10:07:38Z</time></trkpt><trkpt lat="39.30806550874607" lon="8.439739285436218"><ele>134.75</ele><time>2026-04-08T10:07:39Z</time></trkpt><trkpt lat="39.308210402505004" lon="8.439760959787275"><ele>134.5</ele><time>2026-04-08T10:07:40Z</time></trkpt><trkpt lat="39.30833557762006" lon="8.439762229689249"><ele>134.25</ele><time>2026-04-08T10:07:41Z</time></trkpt><trkpt lat="39.30843990103641" lon="8.439743765773203"><ele>134.0</ele><time>2026-04-08T10:07:42Z</time></trkpt><trkpt lat="39.30855437778155" lon="8.43966403080796"><ele>132.0</ele><time>2026-04-08T10:07:43Z</time></trkpt><trkpt lat="39.30861800416786" lon="8.43953493472772"><ele>130.0</ele><time>2026-04-08T10:07:44Z</time></trkpt><trkpt lat="39.308641001643394" lon="8.439372315992653"><ele>128.0</ele><time>2026-04-08T10:07:45Z</time></trkpt><trkpt lat="39.308619985023306" lon="8.439197888073142"><ele>126.0</ele><time>2026-04-08T10:07:46Z</time></trkpt><trkpt lat="39.30856600809882" lon="8.438999392478552"><ele>126.33333333333334</ele><time>2026-04-08T10:07:47Z</time></trkpt><trkpt lat="39.30850400816614" lon="8.43879767198976"><ele>126.66666666666667</ele><time>2026-04-08T10:07:48Z</time></trkpt><trkpt lat="39.308409297431425" lon="8.438542779727252"><ele>127.0</ele><time>2026-04-08T10:07:49Z</time></trkpt><trkpt lat="39.30833435786964" lon="8.438326098994361"><ele>127.0</ele><time>2026-04-08T10:07:50Z</time></trkpt><trkpt lat="39.30832743495324" lon="8.438129671361757"><ele>127.0</ele><time>2026-04-08T10:07:51Z</time></trkpt><trkpt lat="39.308371625603485" lon="8.437998360581242"><ele>127.0</ele><time>2026-04-08T10:07:52Z</time></trkpt><trkpt lat="39.308421064245636" lon="8.437868394357825"><ele>127.0</ele><time>2026-04-08T10:07:53Z</time></trkpt><trkpt lat="39.30850857067587" lon="8.437650047736751"><ele>124.66666666666667</ele><time>2026-04-08T10:07:54Z</time></trkpt><trkpt lat="39.3086065010265" lon="8.437427204330174"><ele>122.33333333333334</ele><time>2026-04-08T10:07:55Z</time></trkpt><trkpt lat="39.30869846208185" lon="8.437238120963478"><ele>120.0</ele><time>2026-04-08T10:07:56Z</time></trkpt><trkpt lat="39.30878388597554" lon="8.437119306768347"><ele>118.0</ele><time>2026-04-08T10:07:57Z</time></trkpt><trkpt lat="39.308893811894094" lon="8.437088177511987"><ele>116.0</ele><time>2026-04-08T10:07:58Z</time></trkpt><trkpt lat="39.309016928251545" lon="8.437126460337309"><ele>114.0</ele><time>2026-04-08T10:07:59Z</time></trkpt><trkpt lat="39.309163951418924" lon="8.437160320144432"><ele>112.0</ele><time>2026-04-08T10:08:00Z</time></trkpt><trkpt lat="39.30927979108605" lon="8.43718627336415"><ele>118.0</ele><time>2026-04-08T10:08:01Z</time></trkpt><trkpt lat="39.30938761275217" lon="8.437210430286527"><ele>123.99999999999999</ele><time>2026-04-08T10:08:02Z</time></trkpt><trkpt lat="39.309486304174996" lon="8.4372317685066"><ele>130.0</ele><time>2026-04-08T10:08:03Z</time></trkpt><trkpt lat="39.309585123833536" lon="8.43725261099527"><ele>136.0</ele><time>2026-04-08T10:08:04Z</time></trkpt><trkpt lat="39.30968348020962" lon="8.43727324596776"><ele>142.0</ele><time>2026-04-08T10:08:05Z</time></trkpt><trkpt lat="39.30978456051985" lon="8.437294354097977"><ele>143.2</ele><time>2026-04-08T10:08:06Z</time></trkpt><trkpt lat="39.309890494754185" lon="8.43729167449759"><ele>144.39999999999998</ele><time>2026-04-08T10:08:07Z</time></trkpt><trkpt lat="39.30998990009565" lon="8.437283564604282"><ele>145.60000000000002</ele><time>2026-04-08T10:08:08Z</time></trkpt><trkpt lat="39.31008246730872" lon="8.43723936320636"><ele>146.8</ele><time>2026-04-08T10:08:09Z</time></trkpt><trkpt lat="39.310168013694444" lon="8.437184919072275"><ele>148.0</ele><time>2026-04-08T10:08:10Z</time></trkpt><trkpt lat="39.31026299328016" lon="8.437144673751781"><ele>148.0</ele><time>2026-04-08T10:08:11Z</time></trkpt><trkpt lat="39.31035565200038" lon="8.43712886495542"><ele>148.0</ele><time>2026-04-08T10:08:12Z</time></trkpt><trkpt lat="39.31044562658668" lon="8.43712690204411"><ele>148.0</ele><time>2026-04-08T10:08:13Z</time></trkpt><trkpt lat="39.31053068299002" lon="8.437138589565071"><ele>148.0</ele><time>2026-04-08T10:08:14Z</time></trkpt><trkpt lat="39.310615345041846" lon="8.437133457411349"><ele>148.0</ele><time>2026-04-08T10:08:15Z</time></trkpt><trkpt lat="39.31070657203082" lon="8.437115246004323"><ele>148.0</ele><time>2026-04-08T10:08:16Z</time></trkpt><trkpt lat="39.31078836145306" lon="8.43708319047923"><ele>148.33333333333334</ele><time>2026-04-08T10:08:16.999Z</time></trkpt><trkpt lat="39.310867720742735" lon="8.437043134144284"><ele>148.66666666666669</ele><time>2026-04-08T10:08:17.999Z</time></trkpt><trkpt lat="39.310953135433664" lon="8.437039139148181"><ele>149.0</ele><time>2026-04-08T10:08:18.999Z</time></trkpt><trkpt lat="39.31102943420595" lon="8.437044594522927"><ele>149.33333333333334</ele><time>2026-04-08T10:08:19.999Z</time></trkpt><trkpt lat="39.3111060878479" lon="8.437070312240968"><ele>149.66666666666666</ele><time>2026-04-08T10:08:20.999Z</time></trkpt><trkpt lat="39.31116101694824" lon="8.437164243319152"><ele>150.0</ele><time>2026-04-08T10:08:21.999Z</time></trkpt><trkpt lat="39.3112382478193" lon="8.43723674202961"><ele>150.0</ele><time>2026-04-08T10:08:22.999Z</time></trkpt><trkpt lat="39.31131278161832" lon="8.437317246168007"><ele>150.0</ele><time>2026-04-08T10:08:23.999Z</time></trkpt><trkpt lat="39.31140046913049" lon="8.437382870297334"><ele>150.0</ele><time>2026-04-08T10:08:24.999Z</time></trkpt><trkpt lat="39.311502508076586" lon="8.43742761492446"><ele>150.0</ele><time>2026-04-08T10:08:25.999Z</time></trkpt><trkpt lat="39.311609147161896" lon="8.437437658895059"><ele>150.0</ele><time>2026-04-08T10:08:26.999Z</time></trkpt><trkpt lat="39.31171364611176" lon="8.437411967889238"><ele>149.4</ele><time>2026-04-08T10:08:27.999Z</time></trkpt><trkpt lat="39.31180745482619" lon="8.437399877950478"><ele>148.8</ele><time>2026-04-08T10:08:28.999Z</time></trkpt><trkpt lat="39.311906507167464" lon="8.437336310172839"><ele>148.2</ele><time>2026-04-08T10:08:29.999Z</time></trkpt><trkpt lat="39.31196989400415" lon="8.437261579215775"><ele>147.6</ele><time>2026-04-08T10:08:30.999Z</time></trkpt><trkpt lat="39.312002670572916" lon="8.437149751606992"><ele>147.0</ele><time>2026-04-08T10:08:31.999Z</time></trkpt><trkpt lat="39.31204321218559" lon="8.437045559337454"><ele>146.5</ele><time>2026-04-08T10:08:32.999Z</time></trkpt><trkpt lat="39.31208278729973" lon="8.436947547654531"><ele>146.0</ele><time>2026-04-08T10:08:33.999Z</time></trkpt><trkpt lat="39.312130925271575" lon="8.436852965022494"><ele>145.5</ele><time>2026-04-08T10:08:34.999Z</time></trkpt><trkpt lat="39.31220852935736" lon="8.436795118634503"><ele>145.0</ele><time>2026-04-08T10:08:35.999Z</time></trkpt><trkpt lat="39.31226857612395" lon="8.436725740654428"><ele>144.5</ele><time>2026-04-08T10:08:36.999Z</time></trkpt><trkpt lat="39.312358967111415" lon="8.436690686672522"><ele>144.0</ele><time>2026-04-08T10:08:37.999Z</time></trkpt><trkpt lat="39.31245377414812" lon="8.436674094784877"><ele>144.0</ele><time>2026-04-08T10:08:38.999Z</time></trkpt><trkpt lat="39.31255170765827" lon="8.436691188832567"><ele>144.0</ele><time>2026-04-08T10:08:39.999Z</time></trkpt><trkpt lat="39.31263698704887" lon="8.436773563496395"><ele>144.0</ele><time>2026-04-08T10:08:40.999Z</time></trkpt><trkpt lat="39.31271881807107" lon="8.43681128517734"><ele>144.0</ele><time>2026-04-08T10:08:41.999Z</time></trkpt><trkpt lat="39.31280604908534" lon="8.436815973838963"><ele>144.0</ele><time>2026-04-08T10:08:42.999Z</time></trkpt><trkpt lat="39.31289192272121" lon="8.436759185875257"><ele>144.0</ele><time>2026-04-08T10:08:43.999Z</time></trkpt><trkpt lat="39.31297942815165" lon="8.436735443096786"><ele>144.0</ele><time>2026-04-08T10:08:44.999Z</time></trkpt><trkpt lat="39.3130564566527" lon="8.436668364450615"><ele>144.0</ele><time>2026-04-08T10:08:45.999Z</time></trkpt><trkpt lat="39.31312888860584" lon="8.436619608341482"><ele>144.0</ele><time>2026-04-08T10:08:46.999Z</time></trkpt><trkpt lat="39.313208291532334" lon="8.436577539607656"><ele>144.0</ele><time>2026-04-08T10:08:47.999Z</time></trkpt><trkpt lat="39.31327940360903" lon="8.436524904533846"><ele>144.0</ele><time>2026-04-08T10:08:48.999Z</time></trkpt><trkpt lat="39.313354760504446" lon="8.436484708820918"><ele>145.0</ele><time>2026-04-08T10:08:49.999Z</time></trkpt><trkpt lat="39.31342839869903" lon="8.436425208668947"><ele>146.0</ele><time>2026-04-08T10:08:50.999Z</time></trkpt><trkpt lat="39.31351590091936" lon="8.436419954087265"><ele>147.0</ele><time>2026-04-08T10:08:51.999Z</time></trkpt><trkpt lat="39.313601027134006" lon="8.436422729094799"><ele>148.0</ele><time>2026-04-08T10:08:52.999Z</time></trkpt><trkpt lat="39.313692129880664" lon="8.436432699074832"><ele>149.0</ele><time>2026-04-08T10:08:53.999Z</time></trkpt><trkpt lat="39.313770731328376" lon="8.436457609085863"><ele>150.0</ele><time>2026-04-08T10:08:54.999Z</time></trkpt><trkpt lat="39.313839885540425" lon="8.436547909133552"><ele>151.0</ele><time>2026-04-08T10:08:55.999Z</time></trkpt><trkpt lat="39.31390918052982" lon="8.436614953567126"><ele>152.0</ele><time>2026-04-08T10:08:56.999Z</time></trkpt><trkpt lat="39.31398840571307" lon="8.436669908512455"><ele>153.0</ele><time>2026-04-08T10:08:57.998Z</time></trkpt><trkpt lat="39.31407428405143" lon="8.436715679518088"><ele>154.0</ele><time>2026-04-08T10:08:58.998Z</time></trkpt><trkpt lat="39.31416634788896" lon="8.436744762694481"><ele>155.0</ele><time>2026-04-08T10:08:59.998Z</time></trkpt><trkpt lat="39.31425801049561" lon="8.43677384095057"><ele>155.0</ele><time>2026-04-08T10:09:00.998Z</time></trkpt><trkpt lat="39.314347987875436" lon="8.436789386839955"><ele>155.0</ele><time>2026-04-08T10:09:01.998Z</time></trkpt><trkpt lat="39.3144354343849" lon="8.436794043230481"><ele>155.0</ele><time>2026-04-08T10:09:02.998Z</time></trkpt><trkpt lat="39.31452466452786" lon="8.436758450734759"><ele>155.0</ele><time>2026-04-08T10:09:03.998Z</time></trkpt><trkpt lat="39.31458330042607" lon="8.43664071811113"><ele>155.0</ele><time>2026-04-08T10:09:04.998Z</time></trkpt><trkpt lat="39.314630233325246" lon="8.436540176176482"><ele>155.0</ele><time>2026-04-08T10:09:05.998Z</time></trkpt><trkpt lat="39.314690181131" lon="8.43645017800655"><ele>155.0</ele><time>2026-04-08T10:09:06.998Z</time></trkpt><trkpt lat="39.3147422922468" lon="8.436373935138434"><ele>155.0</ele><time>2026-04-08T10:09:07.998Z</time></trkpt><trkpt lat="39.31480204541479" lon="8.436306459954443"><ele>155.0</ele><time>2026-04-08T10:09:08.998Z</time></trkpt><trkpt lat="39.314879550103704" lon="8.436283874558356"><ele>155.0</ele><time>2026-04-08T10:09:09.998Z</time></trkpt><trkpt lat="39.31495916617639" lon="8.436264379094398"><ele>155.0</ele><time>2026-04-08T10:09:10.998Z</time></trkpt><trkpt lat="39.31504502674569" lon="8.436250240038733"><ele>154.4</ele><time>2026-04-08T10:09:11.998Z</time></trkpt><trkpt lat="39.31513158643656" lon="8.436231718474017"><ele>153.8</ele><time>2026-04-08T10:09:12.998Z</time></trkpt><trkpt lat="39.31522291164834" lon="8.436209686590614"><ele>153.2</ele><time>2026-04-08T10:09:13.998Z</time></trkpt><trkpt lat="39.31531775722705" lon="8.436186805439267"><ele>152.6</ele><time>2026-04-08T10:09:14.998Z</time></trkpt><trkpt lat="39.31541605000214" lon="8.436163092672226"><ele>152.0</ele><time>2026-04-08T10:09:15.998Z</time></trkpt><trkpt lat="39.3155119052973" lon="8.436143397547522"><ele>153.0</ele><time>2026-04-08T10:09:16.998Z</time></trkpt><trkpt lat="39.31561130176697" lon="8.436127571956776"><ele>154.0</ele><time>2026-04-08T10:09:17.998Z</time></trkpt><trkpt lat="39.315702715501025" lon="8.436128585860592"><ele>155.0</ele><time>2026-04-08T10:09:18.998Z</time></trkpt><trkpt lat="39.315788476020685" lon="8.43615986166603"><ele>156.0</ele><time>2026-04-08T10:09:19.998Z</time></trkpt><trkpt lat="39.31587574399819" lon="8.436212511050641"><ele>157.0</ele><time>2026-04-08T10:09:20.998Z</time></trkpt><trkpt lat="39.31592770771086" lon="8.43631879853214"><ele>157.0</ele><time>2026-04-08T10:09:21.998Z</time></trkpt><trkpt lat="39.31595033648084" lon="8.436453195288834"><ele>157.0</ele><time>2026-04-08T10:09:22.998Z</time></trkpt><trkpt lat="39.315928864639496" lon="8.4365657432518"><ele>157.0</ele><time>2026-04-08T10:09:23.998Z</time></trkpt><trkpt lat="39.31591978966171" lon="8.436692521735251"><ele>157.0</ele><time>2026-04-08T10:09:24.998Z</time></trkpt><trkpt lat="39.31587279985738" lon="8.43680323636314"><ele>157.0</ele><time>2026-04-08T10:09:25.998Z</time></trkpt><trkpt lat="39.315844331206264" lon="8.436911862091815"><ele>157.0</ele><time>2026-04-08T10:09:26.998Z</time></trkpt><trkpt lat="39.315821886943425" lon="8.437019780715442"><ele>157.0</ele><time>2026-04-08T10:09:27.998Z</time></trkpt><trkpt lat="39.31581916693105" lon="8.437122560657125"><ele>157.0</ele><time>2026-04-08T10:09:28.998Z</time></trkpt><trkpt lat="39.315836169046705" lon="8.437223460696062"><ele>157.0</ele><time>2026-04-08T10:09:29.998Z</time></trkpt><trkpt lat="39.31593083622539" lon="8.437293100733964"><ele>157.0</ele><time>2026-04-08T10:09:30.998Z</time></trkpt><trkpt lat="39.315984153081175" lon="8.437385142034474"><ele>157.0</ele><time>2026-04-08T10:09:31.998Z</time></trkpt><trkpt lat="39.31604912008844" lon="8.437458605697522"><ele>157.4</ele><time>2026-04-08T10:09:32.998Z</time></trkpt><trkpt lat="39.31611715311971" lon="8.437534277762607"><ele>157.79999999999998</ele><time>2026-04-08T10:09:34.001Z</time></trkpt><trkpt lat="39.31620973066676" lon="8.437567137270847"><ele>158.2</ele><time>2026-04-08T10:09:35.001Z</time></trkpt><trkpt lat="39.31629531941491" lon="8.43760870630232"><ele>158.6</ele><time>2026-04-08T10:09:36.001Z</time></trkpt><trkpt lat="39.31639098597122" lon="8.437644789630712"><ele>159.0</ele><time>2026-04-08T10:09:37.001Z</time></trkpt><trkpt lat="39.31648468596205" lon="8.437693516834589"><ele>159.0</ele><time>2026-04-08T10:09:38.001Z</time></trkpt><trkpt lat="39.31656686127297" lon="8.437765377777751"><ele>159.0</ele><time>2026-04-08T10:09:39.001Z</time></trkpt><trkpt lat="39.31665276379166" lon="8.437786066354963"><ele>159.0</ele><time>2026-04-08T10:09:40.001Z</time></trkpt><trkpt lat="39.31672758823906" lon="8.437813424256264"><ele>159.0</ele><time>2026-04-08T10:09:41.001Z</time></trkpt><trkpt lat="39.31679450417005" lon="8.437806632701445"><ele>159.0</ele><time>2026-04-08T10:09:42Z</time></trkpt><trkpt lat="39.31685650375772" lon="8.43779219250741"><ele>159.0</ele><time>2026-04-08T10:09:43.001Z</time></trkpt><trkpt lat="39.31691351738739" lon="8.437728970299604"><ele>159.0</ele><time>2026-04-08T10:09:44.001Z</time></trkpt><trkpt lat="39.31695550009384" lon="8.43764980391712"><ele>159.0</ele><time>2026-04-08T10:09:45Z</time></trkpt><trkpt lat="39.316952042074846" lon="8.437515174772662"><ele>159.0</ele><time>2026-04-08T10:09:46Z</time></trkpt><trkpt lat="39.31696568921407" lon="8.437401671492458"><ele>159.0</ele><time>2026-04-08T10:09:47.001Z</time></trkpt><trkpt lat="39.31697987223982" lon="8.437306875145337"><ele>159.0</ele><time>2026-04-08T10:09:48Z</time></trkpt><trkpt lat="39.31700096559857" lon="8.437199786663605"><ele>159.0</ele><time>2026-04-08T10:09:49Z</time></trkpt><trkpt lat="39.3170237923532" lon="8.43708773129035"><ele>157.0</ele><time>2026-04-08T10:09:50Z</time></trkpt><trkpt lat="39.317049800625746" lon="8.436978328131486"><ele>155.0</ele><time>2026-04-08T10:09:51Z</time></trkpt><trkpt lat="39.31707793654834" lon="8.436873323024292"><ele>153.0</ele><time>2026-04-08T10:09:52Z</time></trkpt><trkpt lat="39.31710015046285" lon="8.436765863068047"><ele>151.0</ele><time>2026-04-08T10:09:53Z</time></trkpt><trkpt lat="39.317130648191124" lon="8.436661425152074"><ele>149.0</ele><time>2026-04-08T10:09:54Z</time></trkpt><trkpt lat="39.31718085139876" lon="8.436569914364311"><ele>147.0</ele><time>2026-04-08T10:09:55Z</time></trkpt><trkpt lat="39.31722307925736" lon="8.436471166282683"><ele>147.5</ele><time>2026-04-08T10:09:56Z</time></trkpt><trkpt lat="39.31727507238054" lon="8.436379461942694"><ele>148.0</ele><time>2026-04-08T10:09:57Z</time></trkpt><trkpt lat="39.31734016084406" lon="8.436304666764821"><ele>148.5</ele><time>2026-04-08T10:09:58Z</time></trkpt><trkpt lat="39.317412727007905" lon="8.43626075341201"><ele>149.0</ele><time>2026-04-08T10:09:59Z</time></trkpt><trkpt lat="39.31748722149862" lon="8.436241282098754"><ele>149.5</ele><time>2026-04-08T10:10:00Z</time></trkpt><trkpt lat="39.31756235060869" lon="8.436255685447241"><ele>150.0</ele><time>2026-04-08T10:10:01Z</time></trkpt><trkpt lat="39.31763655382464" lon="8.436272288594303"><ele>150.0</ele><time>2026-04-08T10:10:02Z</time></trkpt><trkpt lat="39.317714514061805" lon="8.436300389840147"><ele>150.0</ele><time>2026-04-08T10:10:03Z</time></trkpt><trkpt lat="39.31779535341241" lon="8.436321245209392"><ele>150.0</ele><time>2026-04-08T10:10:04Z</time></trkpt><trkpt lat="39.31787402914263" lon="8.436336519488947"><ele>150.0</ele><time>2026-04-08T10:10:05Z</time></trkpt><trkpt lat="39.31795597652058" lon="8.436333240462217"><ele>150.0</ele><time>2026-04-08T10:10:06Z</time></trkpt><trkpt lat="39.31803497006746" lon="8.436318958248316"><ele>150.0</ele><time>2026-04-08T10:10:07Z</time></trkpt><trkpt lat="39.31811009497481" lon="8.436273921680536"><ele>150.33333333333334</ele><time>2026-04-08T10:10:08Z</time></trkpt><trkpt lat="39.318179627328334" lon="8.436230454403724"><ele>150.66666666666666</ele><time>2026-04-08T10:10:09Z</time></trkpt><trkpt lat="39.31824483537286" lon="8.43618186472521"><ele>151.0</ele><time>2026-04-08T10:10:10Z</time></trkpt><trkpt lat="39.318314892244544" lon="8.436141427106671"><ele>151.33333333333331</ele><time>2026-04-08T10:10:11Z</time></trkpt><trkpt lat="39.31838286822762" lon="8.436097757836873"><ele>151.66666666666666</ele><time>2026-04-08T10:10:12Z</time></trkpt><trkpt lat="39.31846041445754" lon="8.436125150735597"><ele>152.0</ele><time>2026-04-08T10:10:13Z</time></trkpt><trkpt lat="39.318538952188895" lon="8.436134211823498"><ele>152.0</ele><time>2026-04-08T10:10:14Z</time></trkpt><trkpt lat="39.31862059152216" lon="8.436146864958271"><ele>152.0</ele><time>2026-04-08T10:10:15Z</time></trkpt><trkpt lat="39.31870404894851" lon="8.436159275660295"><ele>152.0</ele><time>2026-04-08T10:10:16Z</time></trkpt><trkpt lat="39.318786520777344" lon="8.436171541265931"><ele>152.0</ele><time>2026-04-08T10:10:17Z</time></trkpt><trkpt lat="39.31887167666683" lon="8.43618395219869"><ele>152.0</ele><time>2026-04-08T10:10:18Z</time></trkpt><trkpt lat="39.31895376829355" lon="8.436195052392613"><ele>152.0</ele><time>2026-04-08T10:10:19Z</time></trkpt><trkpt lat="39.31904066078448" lon="8.436206801730277"><ele>152.0</ele><time>2026-04-08T10:10:20Z</time></trkpt><trkpt lat="39.31913314172572" lon="8.436218359457023"><ele>152.0</ele><time>2026-04-08T10:10:21Z</time></trkpt><trkpt lat="39.319229540226225" lon="8.436209009110417"><ele>152.0</ele><time>2026-04-08T10:10:22Z</time></trkpt><trkpt lat="39.3193225330803" lon="8.436222949767561"><ele>152.0</ele><time>2026-04-08T10:10:23Z</time></trkpt><trkpt lat="39.31940485217177" lon="8.436239851957188"><ele>152.0</ele><time>2026-04-08T10:10:24Z</time></trkpt><trkpt lat="39.31948163521412" lon="8.436255253101384"><ele>152.0</ele><time>2026-04-08T10:10:24.999Z</time></trkpt><trkpt lat="39.319556177416516" lon="8.436280752199742"><ele>152.0</ele><time>2026-04-08T10:10:25.999Z</time></trkpt><trkpt lat="39.31963110708628" lon="8.436262330157684"><ele>152.0</ele><time>2026-04-08T10:10:26.999Z</time></trkpt><trkpt lat="39.31970270716406" lon="8.436207610777519"><ele>152.0</ele><time>2026-04-08T10:10:27.999Z</time></trkpt><trkpt lat="39.319748193888174" lon="8.436122818574066"><ele>152.0</ele><time>2026-04-08T10:10:28.999Z</time></trkpt><trkpt lat="39.31980692242329" lon="8.436060825734268"><ele>152.0</ele><time>2026-04-08T10:10:29.999Z</time></trkpt><trkpt lat="39.31983323908409" lon="8.435956531691527"><ele>152.0</ele><time>2026-04-08T10:10:30.999Z</time></trkpt><trkpt lat="39.31986425457337" lon="8.435857108215153"><ele>153.83333333333331</ele><time>2026-04-08T10:10:31.999Z</time></trkpt><trkpt lat="39.31989537888877" lon="8.435758385627354"><ele>155.66666666666666</ele><time>2026-04-08T10:10:32.999Z</time></trkpt><trkpt lat="39.319931324217926" lon="8.435671695556033"><ele>157.5</ele><time>2026-04-08T10:10:33.999Z</time></trkpt><trkpt lat="39.31998565326331" lon="8.435606999057567"><ele>159.33333333333334</ele><time>2026-04-08T10:10:34.999Z</time></trkpt><trkpt lat="39.32006201217653" lon="8.435584045518638"><ele>161.16666666666669</ele><time>2026-04-08T10:10:35.999Z</time></trkpt><trkpt lat="39.32015336162475" lon="8.435639165367203"><ele>163.0</ele><time>2026-04-08T10:10:36.999Z</time></trkpt><trkpt lat="39.32027410753378" lon="8.435676801779865"><ele>163.0</ele><time>2026-04-08T10:10:37.999Z</time></trkpt><trkpt lat="39.32039135199248" lon="8.435740182331395"><ele>163.0</ele><time>2026-04-08T10:10:38.999Z</time></trkpt><trkpt lat="39.320506540357144" lon="8.435791880194987"><ele>163.0</ele><time>2026-04-08T10:10:39.999Z</time></trkpt><trkpt lat="39.320601700516306" lon="8.435877871469778"><ele>163.0</ele><time>2026-04-08T10:10:40.999Z</time></trkpt><trkpt lat="39.32066012790411" lon="8.435974263421514"><ele>163.8</ele><time>2026-04-08T10:10:41.999Z</time></trkpt><trkpt lat="39.3207215822559" lon="8.436058744419473"><ele>164.60000000000002</ele><time>2026-04-08T10:10:42.999Z</time></trkpt><trkpt lat="39.32079691342837" lon="8.436117209284767"><ele>165.39999999999998</ele><time>2026-04-08T10:10:43.999Z</time></trkpt><trkpt lat="39.32089473907671" lon="8.436088538433452"><ele>166.2</ele><time>2026-04-08T10:10:44.999Z</time></trkpt><trkpt lat="39.321033357715066" lon="8.436060376584607"><ele>167.0</ele><time>2026-04-08T10:10:45.999Z</time></trkpt><trkpt lat="39.321141241830205" lon="8.435986386368432"><ele>167.0</ele><time>2026-04-08T10:10:46.999Z</time></trkpt><trkpt lat="39.32127223256439" lon="8.43594591629304"><ele>167.0</ele><time>2026-04-08T10:10:47.999Z</time></trkpt><trkpt lat="39.32138569216517" lon="8.43593968323456"><ele>167.0</ele><time>2026-04-08T10:10:48.999Z</time></trkpt><trkpt lat="39.32151916390477" lon="8.435953962889585"><ele>167.0</ele><time>2026-04-08T10:10:49.999Z</time></trkpt><trkpt lat="39.321658205720425" lon="8.435972790826334"><ele>167.25</ele><time>2026-04-08T10:10:50.999Z</time></trkpt><trkpt lat="39.32180398720518" lon="8.435993189737811"><ele>167.5</ele><time>2026-04-08T10:10:51.999Z</time></trkpt><trkpt lat="39.32194982520831" lon="8.436015729675134"><ele>167.75</ele><time>2026-04-08T10:10:52.999Z</time></trkpt><trkpt lat="39.322091383509026" lon="8.436040033442636"><ele>168.0</ele><time>2026-04-08T10:10:53.999Z</time></trkpt><trkpt lat="39.322224374660045" lon="8.436055892420066"><ele>168.5</ele><time>2026-04-08T10:10:54.999Z</time></trkpt><trkpt lat="39.322347612483874" lon="8.436019487443561"><ele>169.0</ele><time>2026-04-08T10:10:55.999Z</time></trkpt><trkpt lat="39.32248077240806" lon="8.435947146893424"><ele>169.5</ele><time>2026-04-08T10:10:56.999Z</time></trkpt><trkpt lat="39.32259747114324" lon="8.435844562375028"><ele>170.0</ele><time>2026-04-08T10:10:57.999Z</time></trkpt><trkpt lat="39.322722514970174" lon="8.435816170426799"><ele>170.0</ele><time>2026-04-08T10:10:58.999Z</time></trkpt><trkpt lat="39.32283518020273" lon="8.435815447106275"><ele>170.0</ele><time>2026-04-08T10:10:59.999Z</time></trkpt><trkpt lat="39.32293448760383" lon="8.435865242004"><ele>170.0</ele><time>2026-04-08T10:11:00.999Z</time></trkpt><trkpt lat="39.323020716381514" lon="8.435959095650183"><ele>170.0</ele><time>2026-04-08T10:11:01.999Z</time></trkpt><trkpt lat="39.32312602306895" lon="8.436059037880842"><ele>169.25</ele><time>2026-04-08T10:11:02.999Z</time></trkpt><trkpt lat="39.323215557399294" lon="8.436172315116952"><ele>168.5</ele><time>2026-04-08T10:11:03.998Z</time></trkpt><trkpt lat="39.32329028260426" lon="8.43630698138941"><ele>167.75</ele><time>2026-04-08T10:11:04.998Z</time></trkpt><trkpt lat="39.32335616941022" lon="8.436446322653268"><ele>167.0</ele><time>2026-04-08T10:11:05.998Z</time></trkpt><trkpt lat="39.32343588107858" lon="8.436548902715257"><ele>170.6</ele><time>2026-04-08T10:11:06.998Z</time></trkpt><trkpt lat="39.32351476829533" lon="8.436600498819091"><ele>174.2</ele><time>2026-04-08T10:11:07.998Z</time></trkpt><trkpt lat="39.32358455309087" lon="8.436668299959443"><ele>177.8</ele><time>2026-04-08T10:11:08.998Z</time></trkpt><trkpt lat="39.32375232883191" lon="8.436585068670176"><ele>181.4</ele><time>2026-04-08T10:11:09.998Z</time></trkpt><trkpt lat="39.32383109685293" lon="8.436539730920249"><ele>185.0</ele><time>2026-04-08T10:11:10.998Z</time></trkpt><trkpt lat="39.32389923539744" lon="8.43646452344499"><ele>185.25</ele><time>2026-04-08T10:11:11.998Z</time></trkpt><trkpt lat="39.32395195017901" lon="8.436351515874776"><ele>185.5</ele><time>2026-04-08T10:11:12.998Z</time></trkpt><trkpt lat="39.32396731893739" lon="8.436206419513884"><ele>185.75</ele><time>2026-04-08T10:11:13.998Z</time></trkpt><trkpt lat="39.32394816584439" lon="8.436035578803805"><ele>186.0</ele><time>2026-04-08T10:11:14.998Z</time></trkpt><trkpt lat="39.323946512384175" lon="8.435863306386208"><ele>186.0</ele><time>2026-04-08T10:11:15.998Z</time></trkpt><trkpt lat="39.3239342536177" lon="8.435688157233281"><ele>186.0</ele><time>2026-04-08T10:11:16.998Z</time></trkpt><trkpt lat="39.32396816543336" lon="8.435519271766772"><ele>186.0</ele><time>2026-04-08T10:11:17.998Z</time></trkpt><trkpt lat="39.32400991324988" lon="8.435340054241573"><ele>186.0</ele><time>2026-04-08T10:11:18.998Z</time></trkpt><trkpt lat="39.32403513155431" lon="8.435162137608138"><ele>182.5</ele><time>2026-04-08T10:11:19.998Z</time></trkpt><trkpt lat="39.32409617007785" lon="8.435016396781297"><ele>179.0</ele><time>2026-04-08T10:11:20.998Z</time></trkpt><trkpt lat="39.32415702883053" lon="8.434880227107353"><ele>175.5</ele><time>2026-04-08T10:11:21.998Z</time></trkpt><trkpt lat="39.324249078403845" lon="8.434768758223164"><ele>172.0</ele><time>2026-04-08T10:11:22.998Z</time></trkpt><trkpt lat="39.324377743583995" lon="8.43467711354578"><ele>169.0</ele><time>2026-04-08T10:11:23.998Z</time></trkpt><trkpt lat="39.32448094803733" lon="8.434553445589293"><ele>166.0</ele><time>2026-04-08T10:11:24.998Z</time></trkpt><trkpt lat="39.324566253088186" lon="8.434407485953958"><ele>163.0</ele><time>2026-04-08T10:11:25.998Z</time></trkpt><trkpt lat="39.32462494871938" lon="8.434232595933228"><ele>160.0</ele><time>2026-04-08T10:11:26.998Z</time></trkpt><trkpt lat="39.32465969504397" lon="8.43405375745237"><ele>160.0</ele><time>2026-04-08T10:11:27.998Z</time></trkpt><trkpt lat="39.32467843133663" lon="8.4338856680467"><ele>160.0</ele><time>2026-04-08T10:11:28.998Z</time></trkpt><trkpt lat="39.32474039640617" lon="8.433769293131236"><ele>160.0</ele><time>2026-04-08T10:11:29.998Z</time></trkpt><trkpt lat="39.32480797913272" lon="8.433686194637628"><ele>160.0</ele><time>2026-04-08T10:11:30.998Z</time></trkpt><trkpt lat="39.32490666011786" lon="8.433684605799249"><ele>160.0</ele><time>2026-04-08T10:11:31.998Z</time></trkpt><trkpt lat="39.32503423661149" lon="8.433719571398495"><ele>158.5</ele><time>2026-04-08T10:11:32.998Z</time></trkpt><trkpt lat="39.32517112259579" lon="8.433691724062372"><ele>157.0</ele><time>2026-04-08T10:11:33.998Z</time></trkpt><trkpt lat="39.32528672219045" lon="8.433629056626534"><ele>155.5</ele><time>2026-04-08T10:11:34.998Z</time></trkpt><trkpt lat="39.32537980069923" lon="8.43350877517038"><ele>154.0</ele><time>2026-04-08T10:11:35.998Z</time></trkpt><trkpt lat="39.32544865833548" lon="8.433371006987088"><ele>154.0</ele><time>2026-04-08T10:11:36.998Z</time></trkpt><trkpt lat="39.32555408083897" lon="8.433331778675543"><ele>154.0</ele><time>2026-04-08T10:11:37.998Z</time></trkpt><trkpt lat="39.32567627580252" lon="8.43333521510471"><ele>154.0</ele><time>2026-04-08T10:11:39.001Z</time></trkpt><trkpt lat="39.32582878167051" lon="8.43336066686681"><ele>154.0</ele><time>2026-04-08T10:11:40.001Z</time></trkpt><trkpt lat="39.32598862199821" lon="8.433346644121437"><ele>155.33333333333334</ele><time>2026-04-08T10:11:41.001Z</time></trkpt><trkpt lat="39.32614557801002" lon="8.433330267547202"><ele>156.66666666666666</ele><time>2026-04-08T10:11:42.001Z</time></trkpt><trkpt lat="39.3263020250288" lon="8.433334535929392"><ele>158.0</ele><time>2026-04-08T10:11:43.001Z</time></trkpt><trkpt lat="39.326470576823965" lon="8.433380051489506"><ele>158.0</ele><time>2026-04-08T10:11:44.001Z</time></trkpt><trkpt lat="39.32660958828162" lon="8.433401701761632"><ele>158.0</ele><time>2026-04-08T10:11:45.001Z</time></trkpt><trkpt lat="39.32675263041897" lon="8.43337178394106"><ele>158.0</ele><time>2026-04-08T10:11:46.001Z</time></trkpt><trkpt lat="39.326888174906415" lon="8.433290211889531"><ele>158.0</ele><time>2026-04-08T10:11:47.001Z</time></trkpt><trkpt lat="39.32702292013315" lon="8.43325374544199"><ele>158.0</ele><time>2026-04-08T10:11:48.001Z</time></trkpt><trkpt lat="39.32716306467698" lon="8.433288236759626"><ele>158.0</ele><time>2026-04-08T10:11:49.001Z</time></trkpt><trkpt lat="39.32733162440912" lon="8.4333404980431"><ele>158.0</ele><time>2026-04-08T10:11:50Z</time></trkpt><trkpt lat="39.32752366833966" lon="8.433367304842445"><ele>156.66666666666666</ele><time>2026-04-08T10:11:51Z</time></trkpt><trkpt lat="39.327709183561545" lon="8.433375137904047"><ele>155.33333333333334</ele><time>2026-04-08T10:11:52.001Z</time></trkpt><trkpt lat="39.32789025972917" lon="8.433374247167158"><ele>154.0</ele><time>2026-04-08T10:11:53Z</time></trkpt><trkpt lat="39.32806367066658" lon="8.433367879082638"><ele>154.0</ele><time>2026-04-08T10:11:54Z</time></trkpt><trkpt lat="39.328211441943026" lon="8.433361932262288"><ele>154.0</ele><time>2026-04-08T10:11:55Z</time></trkpt><trkpt lat="39.32836108186109" lon="8.43334912270097"><ele>154.0</ele><time>2026-04-08T10:11:56Z</time></trkpt><trkpt lat="39.32850247164166" lon="8.433346021239828"><ele>154.0</ele><time>2026-04-08T10:11:57Z</time></trkpt><trkpt lat="39.3286370501722" lon="8.433324200502769"><ele>154.0</ele><time>2026-04-08T10:11:58Z</time></trkpt><trkpt lat="39.328755582264186" lon="8.433257444602459"><ele>154.0</ele><time>2026-04-08T10:11:59Z</time></trkpt><trkpt lat="39.32886067480227" lon="8.433112972354865"><ele>154.0</ele><time>2026-04-08T10:12:00Z</time></trkpt><trkpt lat="39.3289577685437" lon="8.432931996581706"><ele>150.25</ele><time>2026-04-08T10:12:01Z</time></trkpt><trkpt lat="39.32907513476102" lon="8.432778577842756"><ele>146.5</ele><time>2026-04-08T10:12:02Z</time></trkpt><trkpt lat="39.32918786166302" lon="8.43266570640634"><ele>142.75</ele><time>2026-04-08T10:12:03Z</time></trkpt><trkpt lat="39.329295764677994" lon="8.432621760445976"><ele>139.0</ele><time>2026-04-08T10:12:04Z</time></trkpt><trkpt lat="39.3294197150583" lon="8.432620390191557"><ele>139.0</ele><time>2026-04-08T10:12:05Z</time></trkpt><trkpt lat="39.32952855737955" lon="8.432675188598003"><ele>139.0</ele><time>2026-04-08T10:12:06Z</time></trkpt><trkpt lat="39.32964497961037" lon="8.432742581390276"><ele>139.0</ele><time>2026-04-08T10:12:07Z</time></trkpt><trkpt lat="39.32973464245113" lon="8.432817216682123"><ele>139.0</ele><time>2026-04-08T10:12:08Z</time></trkpt><trkpt lat="39.329768829963456" lon="8.432921621655286"><ele>139.0</ele><time>2026-04-08T10:12:09Z</time></trkpt><trkpt lat="39.329695263719856" lon="8.43304850132285"><ele>138.8</ele><time>2026-04-08T10:12:10Z</time></trkpt><trkpt lat="39.32969373330218" lon="8.433162732700746"><ele>138.60000000000002</ele><time>2026-04-08T10:12:11Z</time></trkpt><trkpt lat="39.32969219917882" lon="8.433268472184125"><ele>138.4</ele><time>2026-04-08T10:12:12Z</time></trkpt><trkpt lat="39.329767047996626" lon="8.433380927104494"><ele>138.20000000000002</ele><time>2026-04-08T10:12:13Z</time></trkpt><trkpt lat="39.32987387146788" lon="8.43346202563697"><ele>138.0</ele><time>2026-04-08T10:12:14Z</time></trkpt><trkpt lat="39.329991093100006" lon="8.433498034033358"><ele>138.0</ele><time>2026-04-08T10:12:15Z</time></trkpt><trkpt lat="39.33008648493246" lon="8.433548504532249"><ele>138.0</ele><time>2026-04-08T10:12:16Z</time></trkpt><trkpt lat="39.33017805007215" lon="8.433600910066199"><ele>138.0</ele><time>2026-04-08T10:12:17Z</time></trkpt><trkpt lat="39.33025661338426" lon="8.433647901684001"><ele>138.0</ele><time>2026-04-08T10:12:18Z</time></trkpt><trkpt lat="39.33031886375685" lon="8.433686009361944"><ele>138.0</ele><time>2026-04-08T10:12:19Z</time></trkpt><trkpt lat="39.33041005902615" lon="8.433740425685894"><ele>138.0</ele><time>2026-04-08T10:12:21Z</time></trkpt><trkpt lat="39.33049111348753" lon="8.433795665608562"><ele>138.0</ele><time>2026-04-08T10:12:23Z</time></trkpt><trkpt lat="39.330566112961854" lon="8.433903375988194"><ele>138.0</ele><time>2026-04-08T10:12:25Z</time></trkpt><trkpt lat="39.33060032744179" lon="8.43405435967934"><ele>138.0</ele><time>2026-04-08T10:12:27Z</time></trkpt><trkpt lat="39.330628102901635" lon="8.434189149444252"><ele>138.0</ele><time>2026-04-08T10:12:28.999Z</time></trkpt><trkpt lat="39.330695002814196" lon="8.43432109247135"><ele>136.33333333333334</ele><time>2026-04-08T10:12:30.999Z</time></trkpt><trkpt lat="39.33074070676432" lon="8.43437964946945"><ele>134.66666666666666</ele><time>2026-04-08T10:12:31.999Z</time></trkpt><trkpt lat="39.33084046066393" lon="8.434471229702856"><ele>133.0</ele><time>2026-04-08T10:12:33.999Z</time></trkpt><trkpt lat="39.330895509336855" lon="8.434517037126549"><ele>131.33333333333331</ele><time>2026-04-08T10:12:34.999Z</time></trkpt><trkpt lat="39.33095179261293" lon="8.434564801278972"><ele>129.66666666666666</ele><time>2026-04-08T10:12:35.999Z</time></trkpt><trkpt lat="39.33101897256405" lon="8.434598518233276"><ele>128.0</ele><time>2026-04-08T10:12:36.999Z</time></trkpt><trkpt lat="39.331073329531016" lon="8.434657886918773"><ele>129.6</ele><time>2026-04-08T10:12:37.999Z</time></trkpt><trkpt lat="39.33114126304586" lon="8.434687652951107"><ele>131.20000000000002</ele><time>2026-04-08T10:12:38.999Z</time></trkpt><trkpt lat="39.331197416964635" lon="8.434736130822873"><ele>132.8</ele><time>2026-04-08T10:12:39.999Z</time></trkpt><trkpt lat="39.33125471464958" lon="8.434777679536388"><ele>134.4</ele><time>2026-04-08T10:12:40.999Z</time></trkpt><trkpt lat="39.33130875043533" lon="8.434832868602244"><ele>136.0</ele><time>2026-04-08T10:12:41.999Z</time></trkpt><trkpt lat="39.3314539243935" lon="8.434973418860453"><ele>136.0</ele><time>2026-04-08T10:12:42.999Z</time></trkpt><trkpt lat="39.331626366939304" lon="8.435052860952412"><ele>136.0</ele><time>2026-04-08T10:12:43.999Z</time></trkpt><trkpt lat="39.331766056889734" lon="8.435100802606911"><ele>136.0</ele><time>2026-04-08T10:12:45.999Z</time></trkpt><trkpt lat="39.33184230800452" lon="8.435168447904207"><ele>136.0</ele><time>2026-04-08T10:12:46.999Z</time></trkpt><trkpt lat="39.33186341149129" lon="8.435258519638577"><ele>136.0</ele><time>2026-04-08T10:12:47.999Z</time></trkpt><trkpt lat="39.33186817441621" lon="8.435363205526226"><ele>136.0</ele><time>2026-04-08T10:12:48.999Z</time></trkpt><trkpt lat="39.33179734122027" lon="8.435501240349957"><ele>136.0</ele><time>2026-04-08T10:12:49.999Z</time></trkpt><trkpt lat="39.33176249370395" lon="8.435700603440198"><ele>136.0</ele><time>2026-04-08T10:12:50.999Z</time></trkpt><trkpt lat="39.33169640290293" lon="8.435949467975801"><ele>145.0</ele><time>2026-04-08T10:12:51.999Z</time></trkpt><trkpt lat="39.33160540023477" lon="8.436227219609654"><ele>154.0</ele><time>2026-04-08T10:12:52.999Z</time></trkpt><trkpt lat="39.33154409461231" lon="8.4365282800738"><ele>160.0</ele><time>2026-04-08T10:12:53.999Z</time></trkpt><trkpt lat="39.33146250694505" lon="8.436782729614865"><ele>166.0</ele><time>2026-04-08T10:12:54.999Z</time></trkpt><trkpt lat="39.33139896856419" lon="8.437052126100854"><ele>172.0</ele><time>2026-04-08T10:12:55.999Z</time></trkpt><trkpt lat="39.33135906627874" lon="8.43730694369043"><ele>190.33333333333334</ele><time>2026-04-08T10:12:56.999Z</time></trkpt><trkpt lat="39.33134793490234" lon="8.437550775220394"><ele>208.66666666666669</ele><time>2026-04-08T10:12:57.999Z</time></trkpt><trkpt lat="39.33135561296673" lon="8.437817280876434"><ele>227.0</ele><time>2026-04-08T10:12:58.999Z</time></trkpt><trkpt lat="39.3313846410359" lon="8.438086997690661"><ele>216.66666666666669</ele><time>2026-04-08T10:12:59.999Z</time></trkpt><trkpt lat="39.3314310708379" lon="8.43835076382511"><ele>206.33333333333331</ele><time>2026-04-08T10:13:00.999Z</time></trkpt><trkpt lat="39.3314876141507" lon="8.438610155892087"><ele>196.0</ele><time>2026-04-08T10:13:01.999Z</time></trkpt><trkpt lat="39.331540238531645" lon="8.438855930940218"><ele>194.0</ele><time>2026-04-08T10:13:02.999Z</time></trkpt><trkpt lat="39.331614429635216" lon="8.43908867646469"><ele>192.0</ele><time>2026-04-08T10:13:03.999Z</time></trkpt><trkpt lat="39.33171121407066" lon="8.439313505918292"><ele>190.0</ele><time>2026-04-08T10:13:04.999Z</time></trkpt><trkpt lat="39.33181775710383" lon="8.439512372147046"><ele>191.66666666666669</ele><time>2026-04-08T10:13:05.999Z</time></trkpt><trkpt lat="39.331932756233705" lon="8.439696743769495"><ele>193.33333333333334</ele><time>2026-04-08T10:13:06.999Z</time></trkpt><trkpt lat="39.33206535286069" lon="8.439861823306526"><ele>195.0</ele><time>2026-04-08T10:13:07.998Z</time></trkpt><trkpt lat="39.33215384233287" lon="8.44004809036276"><ele>195.0</ele><time>2026-04-08T10:13:08.998Z</time></trkpt><trkpt lat="39.332169438355315" lon="8.440223279571905"><ele>195.0</ele><time>2026-04-08T10:13:09.998Z</time></trkpt><trkpt lat="39.33212191776832" lon="8.44034828031584"><ele>195.0</ele><time>2026-04-08T10:13:10.998Z</time></trkpt><trkpt lat="39.332098850117646" lon="8.440470498837708"><ele>195.0</ele><time>2026-04-08T10:13:11.998Z</time></trkpt><trkpt lat="39.33201768151657" lon="8.440524908417848"><ele>195.0</ele><time>2026-04-08T10:13:12.998Z</time></trkpt><trkpt lat="39.33195884619441" lon="8.440643018280706"><ele>199.5</ele><time>2026-04-08T10:13:13.998Z</time></trkpt><trkpt lat="39.33192623462087" lon="8.440765522371864"><ele>204.0</ele><time>2026-04-08T10:13:14.998Z</time></trkpt><trkpt lat="39.33192363472766" lon="8.44091810267054"><ele>208.5</ele><time>2026-04-08T10:13:15.998Z</time></trkpt><trkpt lat="39.3319629571171" lon="8.44108175143922"><ele>213.0</ele><time>2026-04-08T10:13:16.998Z</time></trkpt><trkpt lat="39.332028865239906" lon="8.441242883575887"><ele>219.66666666666669</ele><time>2026-04-08T10:13:17.998Z</time></trkpt><trkpt lat="39.33211575182015" lon="8.441407793295639"><ele>226.33333333333334</ele><time>2026-04-08T10:13:18.998Z</time></trkpt><trkpt lat="39.332187507868426" lon="8.441597896111936"><ele>233.0</ele><time>2026-04-08T10:13:19.998Z</time></trkpt><trkpt lat="39.33222307235862" lon="8.441824351273237"><ele>236.66666666666669</ele><time>2026-04-08T10:13:20.998Z</time></trkpt><trkpt lat="39.33223690609063" lon="8.442065429670462"><ele>240.33333333333331</ele><time>2026-04-08T10:13:21.998Z</time></trkpt><trkpt lat="39.33221036899956" lon="8.442298496886185"><ele>244.0</ele><time>2026-04-08T10:13:22.998Z</time></trkpt><trkpt lat="39.33212639978239" lon="8.442535139714293"><ele>244.0</ele><time>2026-04-08T10:13:23.998Z</time></trkpt><trkpt lat="39.33207960691769" lon="8.442800071587106"><ele>244.0</ele><time>2026-04-08T10:13:24.998Z</time></trkpt><trkpt lat="39.332022660430404" lon="8.443028536125905"><ele>244.0</ele><time>2026-04-08T10:13:25.998Z</time></trkpt><trkpt lat="39.33198380483899" lon="8.443184830737259"><ele>244.33333333333331</ele><time>2026-04-08T10:13:26.998Z</time></trkpt><trkpt lat="39.331972480583566" lon="8.443297442369499"><ele>244.66666666666666</ele><time>2026-04-08T10:13:27.998Z</time></trkpt><trkpt lat="39.33200845622913" lon="8.443383105077178"><ele>245.0</ele><time>2026-04-08T10:13:28.998Z</time></trkpt><trkpt lat="39.33209314437288" lon="8.443437060969192"><ele>245.33333333333331</ele><time>2026-04-08T10:13:29.998Z</time></trkpt><trkpt lat="39.33218514675989" lon="8.443436768026334"><ele>245.66666666666666</ele><time>2026-04-08T10:13:30.998Z</time></trkpt><trkpt lat="39.332267675130396" lon="8.443368571653854"><ele>246.0</ele><time>2026-04-08T10:13:31.998Z</time></trkpt><trkpt lat="39.33234365357637" lon="8.443245601870073"><ele>244.5</ele><time>2026-04-08T10:13:32.998Z</time></trkpt><trkpt lat="39.33240146374851" lon="8.443073596044114"><ele>243.0</ele><time>2026-04-08T10:13:33.998Z</time></trkpt><trkpt lat="39.33246965702572" lon="8.442906534908214"><ele>241.5</ele><time>2026-04-08T10:13:34.998Z</time></trkpt><trkpt lat="39.3325542527814" lon="8.442735514368382"><ele>240.0</ele><time>2026-04-08T10:13:35.998Z</time></trkpt><trkpt lat="39.33263561038023" lon="8.442568461222264"><ele>235.2</ele><time>2026-04-08T10:13:36.998Z</time></trkpt><trkpt lat="39.33268989676652" lon="8.44240360444132"><ele>230.4</ele><time>2026-04-08T10:13:37.998Z</time></trkpt><trkpt lat="39.33275555387516" lon="8.442295657224324"><ele>225.60000000000002</ele><time>2026-04-08T10:13:38.998Z</time></trkpt><trkpt lat="39.33281184903292" lon="8.442210847952714"><ele>220.8</ele><time>2026-04-08T10:13:39.998Z</time></trkpt><trkpt lat="39.33291972691152" lon="8.442203588793362"><ele>216.0</ele><time>2026-04-08T10:13:40.998Z</time></trkpt><trkpt lat="39.33303059097258" lon="8.4422910738679"><ele>221.0</ele><time>2026-04-08T10:13:41.998Z</time></trkpt><trkpt lat="39.333150183040026" lon="8.442292772301684"><ele>226.0</ele><time>2026-04-08T10:13:42.998Z</time></trkpt><trkpt lat="39.333258015741706" lon="8.442262841200922"><ele>231.0</ele><time>2026-04-08T10:13:44Z</time></trkpt><trkpt lat="39.33332488601515" lon="8.442153156458462"><ele>236.0</ele><time>2026-04-08T10:13:45Z</time></trkpt><trkpt lat="39.33335851130747" lon="8.441994105287712"><ele>236.0</ele><time>2026-04-08T10:13:46Z</time></trkpt><trkpt lat="39.33335334652561" lon="8.441806164420466"><ele>236.0</ele><time>2026-04-08T10:13:47Z</time></trkpt><trkpt lat="39.33329289005996" lon="8.441659100043204"><ele>236.0</ele><time>2026-04-08T10:13:48Z</time></trkpt><trkpt lat="39.33320321705581" lon="8.441536602847089"><ele>236.0</ele><time>2026-04-08T10:13:49Z</time></trkpt><trkpt lat="39.33317097654267" lon="8.441396031616344"><ele>234.0</ele><time>2026-04-08T10:13:50Z</time></trkpt><trkpt lat="39.33317841725435" lon="8.441296215892939"><ele>232.00000000000003</ele><time>2026-04-08T10:13:51Z</time></trkpt><trkpt lat="39.333215675503624" lon="8.44117750137901"><ele>230.00000000000003</ele><time>2026-04-08T10:13:52Z</time></trkpt><trkpt lat="39.33334801517191" lon="8.441169165752076"><ele>228.0</ele><time>2026-04-08T10:13:53Z</time></trkpt><trkpt lat="39.33346644306422" lon="8.44112263996984"><ele>226.0</ele><time>2026-04-08T10:13:54Z</time></trkpt><trkpt lat="39.333625333897906" lon="8.44105981851237"><ele>226.0</ele><time>2026-04-08T10:13:55Z</time></trkpt><trkpt lat="39.33383217625065" lon="8.440962161423665"><ele>226.0</ele><time>2026-04-08T10:13:56Z</time></trkpt><trkpt lat="39.33404449152082" lon="8.440882501152425"><ele>226.0</ele><time>2026-04-08T10:13:57Z</time></trkpt><trkpt lat="39.33423321554291" lon="8.440829844687137"><ele>235.0</ele><time>2026-04-08T10:13:58Z</time></trkpt><trkpt lat="39.33440059757086" lon="8.440749930835135"><ele>244.0</ele><time>2026-04-08T10:13:59Z</time></trkpt><trkpt lat="39.33455168818939" lon="8.440693111912784"><ele>253.0</ele><time>2026-04-08T10:14:00Z</time></trkpt><trkpt lat="39.334676149234255" lon="8.440648852827689"><ele>259.25</ele><time>2026-04-08T10:14:01Z</time></trkpt><trkpt lat="39.33477408907649" lon="8.44058833460429"><ele>265.5</ele><time>2026-04-08T10:14:02Z</time></trkpt><trkpt lat="39.334846266794344" lon="8.44046711538034"><ele>271.75</ele><time>2026-04-08T10:14:03Z</time></trkpt><trkpt lat="39.33487832026445" lon="8.440306327614412"><ele>278.0</ele><time>2026-04-08T10:14:04Z</time></trkpt><trkpt lat="39.33485655595264" lon="8.440130509678085"><ele>278.0</ele><time>2026-04-08T10:14:05Z</time></trkpt><trkpt lat="39.3348660587636" lon="8.440003015613094"><ele>278.0</ele><time>2026-04-08T10:14:06Z</time></trkpt><trkpt lat="39.33491980022925" lon="8.439928709424944"><ele>278.0</ele><time>2026-04-08T10:14:07Z</time></trkpt><trkpt lat="39.335045384981704" lon="8.439905398113213"><ele>278.0</ele><time>2026-04-08T10:14:08Z</time></trkpt><trkpt lat="39.33515363665535" lon="8.439998109002914"><ele>278.0</ele><time>2026-04-08T10:14:09Z</time></trkpt><trkpt lat="39.33528852397805" lon="8.440048403712218"><ele>278.0</ele><time>2026-04-08T10:14:10Z</time></trkpt><trkpt lat="39.33543641695407" lon="8.440091767885955"><ele>278.0</ele><time>2026-04-08T10:14:11Z</time></trkpt><trkpt lat="39.33556979746778" lon="8.440163173131525"><ele>278.0</ele><time>2026-04-08T10:14:12Z</time></trkpt><trkpt lat="39.335674939058684" lon="8.440245026792969"><ele>278.0</ele><time>2026-04-08T10:14:13Z</time></trkpt><trkpt lat="39.33572731004493" lon="8.44033666397383"><ele>278.25</ele><time>2026-04-08T10:14:14Z</time></trkpt><trkpt lat="39.33571935162699" lon="8.440483852207842"><ele>278.5</ele><time>2026-04-08T10:14:15Z</time></trkpt><trkpt lat="39.33569163098116" lon="8.440640810884966"><ele>278.75</ele><time>2026-04-08T10:14:16Z</time></trkpt><trkpt lat="39.33557590408524" lon="8.440733361093985"><ele>279.0</ele><time>2026-04-08T10:14:17Z</time></trkpt><trkpt lat="39.335454830852505" lon="8.440798053663483"><ele>279.0</ele><time>2026-04-08T10:14:18Z</time></trkpt><trkpt lat="39.33532953825915" lon="8.440852755755081"><ele>279.0</ele><time>2026-04-08T10:14:19Z</time></trkpt><trkpt lat="39.33523325637736" lon="8.44089852528414"><ele>279.0</ele><time>2026-04-08T10:14:20Z</time></trkpt><trkpt lat="39.335221585009926" lon="8.440995472964788"><ele>279.0</ele><time>2026-04-08T10:14:21Z</time></trkpt><trkpt lat="39.33526057945752" lon="8.44110386273987"><ele>279.0</ele><time>2026-04-08T10:14:22Z</time></trkpt><trkpt lat="39.33532483466853" lon="8.441154067579555"><ele>279.0</ele><time>2026-04-08T10:14:23Z</time></trkpt><trkpt lat="39.335453222870996" lon="8.44112045891196"><ele>279.0</ele><time>2026-04-08T10:14:25Z</time></trkpt><trkpt lat="39.33554324620523" lon="8.441046544517679"><ele>279.0</ele><time>2026-04-08T10:14:26Z</time></trkpt><trkpt lat="39.335668584267864" lon="8.440968541732104"><ele>279.0</ele><time>2026-04-08T10:14:27Z</time></trkpt><trkpt lat="39.33581105236669" lon="8.440875290160415"><ele>284.5</ele><time>2026-04-08T10:14:28Z</time></trkpt><trkpt lat="39.335952476649126" lon="8.440786398812111"><ele>290.0</ele><time>2026-04-08T10:14:29Z</time></trkpt><trkpt lat="39.33607759294566" lon="8.440684447652304"><ele>295.5</ele><time>2026-04-08T10:14:30Z</time></trkpt><trkpt lat="39.33620404853477" lon="8.440601361902388"><ele>301.0</ele><time>2026-04-08T10:14:31Z</time></trkpt><trkpt lat="39.336314392636794" lon="8.440500100836204"><ele>305.25</ele><time>2026-04-08T10:14:32Z</time></trkpt><trkpt lat="39.33639960756744" lon="8.440331306641708"><ele>309.5</ele><time>2026-04-08T10:14:32.999Z</time></trkpt><trkpt lat="39.33645688455718" lon="8.440139637567572"><ele>313.75</ele><time>2026-04-08T10:14:33.999Z</time></trkpt><trkpt lat="39.336529235303196" lon="8.440007114391719"><ele>318.0</ele><time>2026-04-08T10:14:34.999Z</time></trkpt><trkpt lat="39.33662073346682" lon="8.439920731942204"><ele>318.0</ele><time>2026-04-08T10:14:35.999Z</time></trkpt><trkpt lat="39.336736897605384" lon="8.439879638783387"><ele>318.0</ele><time>2026-04-08T10:14:36.999Z</time></trkpt><trkpt lat="39.33686792356335" lon="8.439907337540559"><ele>318.0</ele><time>2026-04-08T10:14:37.999Z</time></trkpt><trkpt lat="39.33702285931798" lon="8.43996280532787"><ele>318.0</ele><time>2026-04-08T10:14:38.999Z</time></trkpt><trkpt lat="39.33720580978437" lon="8.44003387430546"><ele>323.6666666666667</ele><time>2026-04-08T10:14:39.999Z</time></trkpt><trkpt lat="39.3374080641613" lon="8.440112207976002"><ele>329.33333333333337</ele><time>2026-04-08T10:14:40.999Z</time></trkpt><trkpt lat="39.33761929730555" lon="8.440168805888236"><ele>335.0</ele><time>2026-04-08T10:14:41.999Z</time></trkpt><trkpt lat="39.33783591590377" lon="8.440188278016244"><ele>340.5</ele><time>2026-04-08T10:14:42.999Z</time></trkpt><trkpt lat="39.33807827487227" lon="8.440153511805427"><ele>346.0</ele><time>2026-04-08T10:14:43.999Z</time></trkpt><trkpt lat="39.338356824695325" lon="8.440131431468359"><ele>346.0</ele><time>2026-04-08T10:14:44.999Z</time></trkpt><trkpt lat="39.33866844868592" lon="8.440098729576068"><ele>346.0</ele><time>2026-04-08T10:14:45.999Z</time></trkpt><trkpt lat="39.339000845688034" lon="8.440064123414144"><ele>351.0</ele><time>2026-04-08T10:14:46.999Z</time></trkpt><trkpt lat="39.339334892936876" lon="8.440028953561276"><ele>356.0</ele><time>2026-04-08T10:14:47.999Z</time></trkpt><trkpt lat="39.339614769435954" lon="8.439997347459443"><ele>360.5</ele><time>2026-04-08T10:14:48.999Z</time></trkpt><trkpt lat="39.339909625393304" lon="8.439963834401166"><ele>365.0</ele><time>2026-04-08T10:14:49.999Z</time></trkpt><trkpt lat="39.34021308224401" lon="8.439916081558312"><ele>365.0</ele><time>2026-04-08T10:14:50.999Z</time></trkpt><trkpt lat="39.34052464566773" lon="8.439842589110526"><ele>365.0</ele><time>2026-04-08T10:14:51.999Z</time></trkpt><trkpt lat="39.34085194708057" lon="8.439761871203169"><ele>370.0</ele><time>2026-04-08T10:14:52.999Z</time></trkpt><trkpt lat="39.34117973001476" lon="8.439702180713827"><ele>375.0</ele><time>2026-04-08T10:14:53.999Z</time></trkpt><trkpt lat="39.341461474047364" lon="8.439667398480017"><ele>384.0</ele><time>2026-04-08T10:14:54.999Z</time></trkpt><trkpt lat="39.341706085566905" lon="8.439639297224934"><ele>393.0</ele><time>2026-04-08T10:14:55.999Z</time></trkpt><trkpt lat="39.34195052733055" lon="8.439611538350853"><ele>399.0</ele><time>2026-04-08T10:14:56.999Z</time></trkpt><trkpt lat="39.34219392981901" lon="8.439549819427718"><ele>405.0</ele><time>2026-04-08T10:14:57.999Z</time></trkpt><trkpt lat="39.34244261925032" lon="8.439465443044858"><ele>408.5</ele><time>2026-04-08T10:14:58.999Z</time></trkpt><trkpt lat="39.34267666108784" lon="8.43935060116504"><ele>412.0</ele><time>2026-04-08T10:14:59.999Z</time></trkpt><trkpt lat="39.34287960891916" lon="8.439271765373412"><ele>416.0</ele><time>2026-04-08T10:15:00.999Z</time></trkpt><trkpt lat="39.343070241788894" lon="8.43918784380622"><ele>420.0</ele><time>2026-04-08T10:15:01.999Z</time></trkpt><trkpt lat="39.34326301856376" lon="8.439113117766876"><ele>424.0</ele><time>2026-04-08T10:15:02.999Z</time></trkpt><trkpt lat="39.34344215298776" lon="8.43910092155548"><ele>424.0</ele><time>2026-04-08T10:15:03.999Z</time></trkpt><trkpt lat="39.34361502377705" lon="8.439115250578574"><ele>424.0</ele><time>2026-04-08T10:15:04.999Z</time></trkpt><trkpt lat="39.343794627618344" lon="8.439133591193064"><ele>424.0</ele><time>2026-04-08T10:15:05.999Z</time></trkpt><trkpt lat="39.34397605369994" lon="8.439113457721172"><ele>426.33333333333337</ele><time>2026-04-08T10:15:06.999Z</time></trkpt><trkpt lat="39.34416386634735" lon="8.4390681685253"><ele>428.66666666666663</ele><time>2026-04-08T10:15:07.999Z</time></trkpt><trkpt lat="39.344332990426295" lon="8.439031802198498"><ele>431.0</ele><time>2026-04-08T10:15:08.999Z</time></trkpt><trkpt lat="39.34449151079758" lon="8.439010301951114"><ele>431.0</ele><time>2026-04-08T10:15:09.999Z</time></trkpt><trkpt lat="39.34465785870518" lon="8.439011702743793"><ele>431.0</ele><time>2026-04-08T10:15:10.999Z</time></trkpt><trkpt lat="39.34483216951214" lon="8.439024825481562"><ele>431.0</ele><time>2026-04-08T10:15:11.998Z</time></trkpt><trkpt lat="39.34502978461218" lon="8.439015128901183"><ele>428.0</ele><time>2026-04-08T10:15:12.998Z</time></trkpt><trkpt lat="39.345232475089674" lon="8.438988344294629"><ele>425.0</ele><time>2026-04-08T10:15:13.998Z</time></trkpt><trkpt lat="39.34544735034955" lon="8.438952239703593"><ele>422.0</ele><time>2026-04-08T10:15:14.998Z</time></trkpt><trkpt lat="39.34567364301916" lon="8.438913420935616"><ele>418.66666666666663</ele><time>2026-04-08T10:15:15.998Z</time></trkpt><trkpt lat="39.34588986150929" lon="8.438876623588955"><ele>415.33333333333337</ele><time>2026-04-08T10:15:16.998Z</time></trkpt><trkpt lat="39.346092579808264" lon="8.438846882280952"><ele>412.0</ele><time>2026-04-08T10:15:17.998Z</time></trkpt><trkpt lat="39.346289272691656" lon="8.438823421906514"><ele>409.33333333333337</ele><time>2026-04-08T10:15:18.998Z</time></trkpt><trkpt lat="39.346484551074255" lon="8.438801203550021"><ele>406.66666666666663</ele><time>2026-04-08T10:15:19.998Z</time></trkpt><trkpt lat="39.346675593632185" lon="8.4387708645325"><ele>404.0</ele><time>2026-04-08T10:15:20.998Z</time></trkpt><trkpt lat="39.346865733734795" lon="8.438709686326746"><ele>404.0</ele><time>2026-04-08T10:15:21.998Z</time></trkpt><trkpt lat="39.34706386556043" lon="8.43857903781196"><ele>404.0</ele><time>2026-04-08T10:15:22.998Z</time></trkpt><trkpt lat="39.34726168071705" lon="8.438421907102011"><ele>393.0</ele><time>2026-04-08T10:15:23.998Z</time></trkpt><trkpt lat="39.34747186442467" lon="8.438289810407989"><ele>382.0</ele><time>2026-04-08T10:15:24.998Z</time></trkpt><trkpt lat="39.34771332001424" lon="8.438206222166407"><ele>382.0</ele><time>2026-04-08T10:15:25.998Z</time></trkpt><trkpt lat="39.34796654008432" lon="8.438126118123849"><ele>382.0</ele><time>2026-04-08T10:15:26.998Z</time></trkpt><trkpt lat="39.34820124060574" lon="8.438050245539076"><ele>382.0</ele><time>2026-04-08T10:15:27.998Z</time></trkpt><trkpt lat="39.34843260251197" lon="8.437931614044583"><ele>382.0</ele><time>2026-04-08T10:15:28.998Z</time></trkpt><trkpt lat="39.34864727530871" lon="8.437833813026389"><ele>382.0</ele><time>2026-04-08T10:15:29.998Z</time></trkpt><trkpt lat="39.34885221935466" lon="8.437749994308184"><ele>382.0</ele><time>2026-04-08T10:15:30.998Z</time></trkpt><trkpt lat="39.34905032103888" lon="8.437662921628677"><ele>382.0</ele><time>2026-04-08T10:15:31.998Z</time></trkpt><trkpt lat="39.349244131787984" lon="8.437580197126252"><ele>373.66666666666663</ele><time>2026-04-08T10:15:32.998Z</time></trkpt><trkpt lat="39.3494292738399" lon="8.437498977445646"><ele>365.3333333333333</ele><time>2026-04-08T10:15:33.998Z</time></trkpt><trkpt lat="39.34961155917388" lon="8.43743327353915"><ele>357.0</ele><time>2026-04-08T10:15:34.998Z</time></trkpt><trkpt lat="39.34979783497568" lon="8.43743688936979"><ele>356.3333333333333</ele><time>2026-04-08T10:15:35.998Z</time></trkpt><trkpt lat="39.34998564814317" lon="8.437516716821785"><ele>355.66666666666663</ele><time>2026-04-08T10:15:36.998Z</time></trkpt><trkpt lat="39.35017626960477" lon="8.437650890583454"><ele>355.0</ele><time>2026-04-08T10:15:37.998Z</time></trkpt><trkpt lat="39.35038525265704" lon="8.43779934870748"><ele>357.5</ele><time>2026-04-08T10:15:38.998Z</time></trkpt><trkpt lat="39.350609073890126" lon="8.437938871364654"><ele>360.0</ele><time>2026-04-08T10:15:39.998Z</time></trkpt><trkpt lat="39.35084157819544" lon="8.438061408213754"><ele>346.5</ele><time>2026-04-08T10:15:40.998Z</time></trkpt><trkpt lat="39.351098233235845" lon="8.438192563166327"><ele>333.0</ele><time>2026-04-08T10:15:41.998Z</time></trkpt><trkpt lat="39.351347483808915" lon="8.438332231227585"><ele>335.0</ele><time>2026-04-08T10:15:42.998Z</time></trkpt><trkpt lat="39.351571690170616" lon="8.438452170719263"><ele>337.0</ele><time>2026-04-08T10:15:43.998Z</time></trkpt><trkpt lat="39.351797199528725" lon="8.438551696546204"><ele>337.0</ele><time>2026-04-08T10:15:44.998Z</time></trkpt><trkpt lat="39.35203952426434" lon="8.438623370375307"><ele>337.0</ele><time>2026-04-08T10:15:45.998Z</time></trkpt><trkpt lat="39.3522929094244" lon="8.438678940876335"><ele>335.5</ele><time>2026-04-08T10:15:46.998Z</time></trkpt><trkpt lat="39.352534226140236" lon="8.438787026596472"><ele>334.0</ele><time>2026-04-08T10:15:47.998Z</time></trkpt><trkpt lat="39.35277032454403" lon="8.438953801601196"><ele>328.0</ele><time>2026-04-08T10:15:49Z</time></trkpt><trkpt lat="39.35300492748549" lon="8.439132743641222"><ele>322.0</ele><time>2026-04-08T10:15:50Z</time></trkpt><trkpt lat="39.35323914708717" lon="8.439321786679761"><ele>320.0</ele><time>2026-04-08T10:15:51Z</time></trkpt><trkpt lat="39.35347684071102" lon="8.439496707273896"><ele>318.0</ele><time>2026-04-08T10:15:52Z</time></trkpt><trkpt lat="39.35370849660378" lon="8.439676896750061"><ele>312.5</ele><time>2026-04-08T10:15:53Z</time></trkpt><trkpt lat="39.35393721201456" lon="8.439854575165697"><ele>307.0</ele><time>2026-04-08T10:15:54Z</time></trkpt><trkpt lat="39.354155077635454" lon="8.4400183142073"><ele>307.0</ele><time>2026-04-08T10:15:55Z</time></trkpt><trkpt lat="39.35435218698375" lon="8.440169214303372"><ele>307.0</ele><time>2026-04-08T10:15:56Z</time></trkpt><trkpt lat="39.354547092887394" lon="8.440310080964911"><ele>307.5</ele><time>2026-04-08T10:15:57Z</time></trkpt><trkpt lat="39.354742310256555" lon="8.440461131621358"><ele>308.0</ele><time>2026-04-08T10:15:58Z</time></trkpt><trkpt lat="39.354943506881234" lon="8.440602719343593"><ele>307.0</ele><time>2026-04-08T10:15:59Z</time></trkpt><trkpt lat="39.35513867299508" lon="8.440702396263035"><ele>306.0</ele><time>2026-04-08T10:16:00Z</time></trkpt><trkpt lat="39.35531845504506" lon="8.44078673657684"><ele>305.0</ele><time>2026-04-08T10:16:01Z</time></trkpt><trkpt lat="39.355496895609406" lon="8.440860591239097"><ele>303.0</ele><time>2026-04-08T10:16:02Z</time></trkpt><trkpt lat="39.35566308118193" lon="8.44090446102009"><ele>301.0</ele><time>2026-04-08T10:16:03Z</time></trkpt><trkpt lat="39.35583873630443" lon="8.440890300834386"><ele>299.0</ele><time>2026-04-08T10:16:04Z</time></trkpt><trkpt lat="39.356025710802456" lon="8.440821599206844"><ele>299.0</ele><time>2026-04-08T10:16:05Z</time></trkpt><trkpt lat="39.356203384450765" lon="8.440700251511574"><ele>299.0</ele><time>2026-04-08T10:16:06Z</time></trkpt><trkpt lat="39.356391613175816" lon="8.44054731337271"><ele>299.0</ele><time>2026-04-08T10:16:07Z</time></trkpt><trkpt lat="39.35659378770326" lon="8.44040179888156"><ele>302.6666666666667</ele><time>2026-04-08T10:16:08Z</time></trkpt><trkpt lat="39.35680349083381" lon="8.440302429323353"><ele>306.3333333333333</ele><time>2026-04-08T10:16:09Z</time></trkpt><trkpt lat="39.357013576590354" lon="8.440227063939536"><ele>310.0</ele><time>2026-04-08T10:16:10Z</time></trkpt><trkpt lat="39.357227997550496" lon="8.440166966220147"><ele>311.3333333333333</ele><time>2026-04-08T10:16:11Z</time></trkpt><trkpt lat="39.357448227005385" lon="8.440144117997482"><ele>312.6666666666667</ele><time>2026-04-08T10:16:12Z</time></trkpt><trkpt lat="39.35767399112858" lon="8.440168788989812"><ele>314.0</ele><time>2026-04-08T10:16:13Z</time></trkpt><trkpt lat="39.357893513965784" lon="8.440213778447418"><ele>316.33333333333337</ele><time>2026-04-08T10:16:14Z</time></trkpt><trkpt lat="39.35807876961666" lon="8.44026562429204"><ele>318.6666666666667</ele><time>2026-04-08T10:16:15Z</time></trkpt><trkpt lat="39.3582480162996" lon="8.44030726457817"><ele>321.0</ele><time>2026-04-08T10:16:16Z</time></trkpt><trkpt lat="39.35838498851449" lon="8.440347543296795"><ele>321.0</ele><time>2026-04-08T10:16:17Z</time></trkpt><trkpt lat="39.358507980836734" lon="8.440449921798898"><ele>321.0</ele><time>2026-04-08T10:16:18Z</time></trkpt><trkpt lat="39.35862815534117" lon="8.440584979719402"><ele>321.0</ele><time>2026-04-08T10:16:19Z</time></trkpt><trkpt lat="39.35875931469768" lon="8.440666211227809"><ele>312.0</ele><time>2026-04-08T10:16:20Z</time></trkpt><trkpt lat="39.358942675586924" lon="8.440674726943914"><ele>303.0</ele><time>2026-04-08T10:16:21Z</time></trkpt><trkpt lat="39.35916830976435" lon="8.440652620291013"><ele>294.0</ele><time>2026-04-08T10:16:22Z</time></trkpt><trkpt lat="39.35941849056848" lon="8.44063007990799"><ele>294.0</ele><time>2026-04-08T10:16:23Z</time></trkpt><trkpt lat="39.359651133752905" lon="8.440635923047866"><ele>294.0</ele><time>2026-04-08T10:16:24Z</time></trkpt><trkpt lat="39.35987343084448" lon="8.440652697822339"><ele>292.0</ele><time>2026-04-08T10:16:25Z</time></trkpt><trkpt lat="39.3601113036941" lon="8.440633877366674"><ele>290.0</ele><time>2026-04-08T10:16:26Z</time></trkpt><trkpt lat="39.36036241044963" lon="8.440575930886663"><ele>288.0</ele><time>2026-04-08T10:16:27Z</time></trkpt><trkpt lat="39.360611837617334" lon="8.440500747486313"><ele>286.0</ele><time>2026-04-08T10:16:28Z</time></trkpt><trkpt lat="39.36084523453078" lon="8.440412742197477"><ele>285.66666666666663</ele><time>2026-04-08T10:16:29Z</time></trkpt><trkpt lat="39.36105431050007" lon="8.440313090757106"><ele>285.3333333333333</ele><time>2026-04-08T10:16:30Z</time></trkpt><trkpt lat="39.36124449342031" lon="8.440214198524572"><ele>285.0</ele><time>2026-04-08T10:16:31Z</time></trkpt><trkpt lat="39.36143216280706" lon="8.440126655709628"><ele>285.0</ele><time>2026-04-08T10:16:32Z</time></trkpt><trkpt lat="39.36162078063467" lon="8.440018016210534"><ele>285.0</ele><time>2026-04-08T10:16:33Z</time></trkpt><trkpt lat="39.36178981949181" lon="8.439871534755783"><ele>285.0</ele><time>2026-04-08T10:16:34Z</time></trkpt><trkpt lat="39.36194647235437" lon="8.439708011635194"><ele>282.6666666666667</ele><time>2026-04-08T10:16:35Z</time></trkpt><trkpt lat="39.36209327744519" lon="8.439524512084509"><ele>280.33333333333337</ele><time>2026-04-08T10:16:35.999Z</time></trkpt><trkpt lat="39.36223078197591" lon="8.439332156688835"><ele>278.0</ele><time>2026-04-08T10:16:36.999Z</time></trkpt><trkpt lat="39.3623569343965" lon="8.439138182644573"><ele>278.0</ele><time>2026-04-08T10:16:37.999Z</time></trkpt><trkpt lat="39.36246689461253" lon="8.438953543543198"><ele>278.0</ele><time>2026-04-08T10:16:38.999Z</time></trkpt><trkpt lat="39.362578622256905" lon="8.438812352703266"><ele>278.0</ele><time>2026-04-08T10:16:39.999Z</time></trkpt><trkpt lat="39.36270258060269" lon="8.438730820135076"><ele>279.0</ele><time>2026-04-08T10:16:40.999Z</time></trkpt><trkpt lat="39.36282873006651" lon="8.438704545578409"><ele>280.0</ele><time>2026-04-08T10:16:41.999Z</time></trkpt><trkpt lat="39.362967210684154" lon="8.438727940990692"><ele>281.0</ele><time>2026-04-08T10:16:42.999Z</time></trkpt><trkpt lat="39.363122554718785" lon="8.43876110387148"><ele>282.0</ele><time>2026-04-08T10:16:43.999Z</time></trkpt><trkpt lat="39.36326408019955" lon="8.43878152356635"><ele>278.5</ele><time>2026-04-08T10:16:44.999Z</time></trkpt><trkpt lat="39.363384993284875" lon="8.43875001284363"><ele>275.0</ele><time>2026-04-08T10:16:45.999Z</time></trkpt><trkpt lat="39.363501691241375" lon="8.438667667317995"><ele>271.5</ele><time>2026-04-08T10:16:46.999Z</time></trkpt><trkpt lat="39.36359948085557" lon="8.438552503052465"><ele>268.0</ele><time>2026-04-08T10:16:47.999Z</time></trkpt><trkpt lat="39.36366888381438" lon="8.438408731526923"><ele>268.0</ele><time>2026-04-08T10:16:48.999Z</time></trkpt><trkpt lat="39.3637171502775" lon="8.438265487368415"><ele>268.0</ele><time>2026-04-08T10:16:49.999Z</time></trkpt><trkpt lat="39.36372604144517" lon="8.438108788958912"><ele>268.0</ele><time>2026-04-08T10:16:50.999Z</time></trkpt><trkpt lat="39.363699190273984" lon="8.43794065477642"><ele>268.0</ele><time>2026-04-08T10:16:51.999Z</time></trkpt><trkpt lat="39.36365287944604" lon="8.437768592568919"><ele>268.75</ele><time>2026-04-08T10:16:52.999Z</time></trkpt><trkpt lat="39.36359314050355" lon="8.437587883011053"><ele>269.5</ele><time>2026-04-08T10:16:53.999Z</time></trkpt><trkpt lat="39.363542130659866" lon="8.43740951920469"><ele>270.25</ele><time>2026-04-08T10:16:54.999Z</time></trkpt><trkpt lat="39.363516698292116" lon="8.437226465725093"><ele>271.0</ele><time>2026-04-08T10:16:55.999Z</time></trkpt><trkpt lat="39.36353300783539" lon="8.437031400436835"><ele>271.0</ele><time>2026-04-08T10:16:56.999Z</time></trkpt><trkpt lat="39.363573193420365" lon="8.436824916311297"><ele>271.0</ele><time>2026-04-08T10:16:57.999Z</time></trkpt><trkpt lat="39.363612451870594" lon="8.43660702450988"><ele>271.0</ele><time>2026-04-08T10:16:58.999Z</time></trkpt><trkpt lat="39.36362431646223" lon="8.436376985544134"><ele>269.0</ele><time>2026-04-08T10:16:59.999Z</time></trkpt><trkpt lat="39.36359306908485" lon="8.436111227278712"><ele>267.0</ele><time>2026-04-08T10:17:00.999Z</time></trkpt><trkpt lat="39.36354776407198" lon="8.435830417918252"><ele>265.0</ele><time>2026-04-08T10:17:01.999Z</time></trkpt><trkpt lat="39.3634999231255" lon="8.43557381409758"><ele>263.0</ele><time>2026-04-08T10:17:02.999Z</time></trkpt><trkpt lat="39.363459739547956" lon="8.435341032351024"><ele>261.0</ele><time>2026-04-08T10:17:03.999Z</time></trkpt><trkpt lat="39.36343651733261" lon="8.435102972226783"><ele>259.0</ele><time>2026-04-08T10:17:04.999Z</time></trkpt><trkpt lat="39.36345383184385" lon="8.4348377333707"><ele>256.5</ele><time>2026-04-08T10:17:05.999Z</time></trkpt><trkpt lat="39.36349960423283" lon="8.43454439757147"><ele>254.0</ele><time>2026-04-08T10:17:06.999Z</time></trkpt><trkpt lat="39.363545588669794" lon="8.434254708448488"><ele>254.0</ele><time>2026-04-08T10:17:07.999Z</time></trkpt><trkpt lat="39.36357872290006" lon="8.433953211030005"><ele>254.0</ele><time>2026-04-08T10:17:08.999Z</time></trkpt><trkpt lat="39.36358860190206" lon="8.433638917816504"><ele>252.5</ele><time>2026-04-08T10:17:09.999Z</time></trkpt><trkpt lat="39.36358246152868" lon="8.433312581897232"><ele>251.0</ele><time>2026-04-08T10:17:10.999Z</time></trkpt><trkpt lat="39.36357379475687" lon="8.433003745119178"><ele>249.0</ele><time>2026-04-08T10:17:11.999Z</time></trkpt><trkpt lat="39.36357130483866" lon="8.432734048255345"><ele>247.0</ele><time>2026-04-08T10:17:12.999Z</time></trkpt><trkpt lat="39.363568146814146" lon="8.432496404214058"><ele>245.0</ele><time>2026-04-08T10:17:13.999Z</time></trkpt><trkpt lat="39.363574528169735" lon="8.432273461158157"><ele>243.0</ele><time>2026-04-08T10:17:14.998Z</time></trkpt><trkpt lat="39.36362623888866" lon="8.432046814197607"><ele>241.0</ele><time>2026-04-08T10:17:15.998Z</time></trkpt><trkpt lat="39.36371295206789" lon="8.431814940514585"><ele>239.0</ele><time>2026-04-08T10:17:16.998Z</time></trkpt><trkpt lat="39.363809895664275" lon="8.431582901469168"><ele>242.33333333333334</ele><time>2026-04-08T10:17:17.998Z</time></trkpt><trkpt lat="39.363887726254575" lon="8.4313494340861"><ele>245.66666666666669</ele><time>2026-04-08T10:17:18.998Z</time></trkpt><trkpt lat="39.36392325115535" lon="8.431098765013083"><ele>249.0</ele><time>2026-04-08T10:17:19.998Z</time></trkpt><trkpt lat="39.36391935079916" lon="8.430824835014059"><ele>249.0</ele><time>2026-04-08T10:17:20.998Z</time></trkpt><trkpt lat="39.363883056434126" lon="8.430561672144334"><ele>249.0</ele><time>2026-04-08T10:17:21.998Z</time></trkpt><trkpt lat="39.363835302905514" lon="8.430322931796248"><ele>249.0</ele><time>2026-04-08T10:17:22.998Z</time></trkpt><trkpt lat="39.363814397379116" lon="8.430117031105304"><ele>248.66666666666669</ele><time>2026-04-08T10:17:23.998Z</time></trkpt><trkpt lat="39.36384625564945" lon="8.429941195824616"><ele>248.33333333333334</ele><time>2026-04-08T10:17:24.998Z</time></trkpt><trkpt lat="39.36392836352371" lon="8.429779895194146"><ele>248.0</ele><time>2026-04-08T10:17:25.998Z</time></trkpt><trkpt lat="39.364049091305944" lon="8.429618095278832"><ele>244.0</ele><time>2026-04-08T10:17:26.998Z</time></trkpt><trkpt lat="39.36417816361092" lon="8.429465819254872"><ele>240.0</ele><time>2026-04-08T10:17:27.998Z</time></trkpt><trkpt lat="39.36427686678361" lon="8.429312259721483"><ele>236.0</ele><time>2026-04-08T10:17:28.998Z</time></trkpt><trkpt lat="39.36432751537909" lon="8.429148568033838"><ele>236.0</ele><time>2026-04-08T10:17:29.998Z</time></trkpt><trkpt lat="39.36432493474744" lon="8.428970198477666"><ele>236.0</ele><time>2026-04-08T10:17:30.998Z</time></trkpt><trkpt lat="39.3642778639182" lon="8.428783739878261"><ele>236.0</ele><time>2026-04-08T10:17:31.998Z</time></trkpt><trkpt lat="39.364201807823314" lon="8.428621905385903"><ele>236.0</ele><time>2026-04-08T10:17:32.998Z</time></trkpt><trkpt lat="39.364129061587114" lon="8.428484123482498"><ele>234.5</ele><time>2026-04-08T10:17:33.998Z</time></trkpt><trkpt lat="39.36409959326013" lon="8.428342706264537"><ele>233.0</ele><time>2026-04-08T10:17:34.998Z</time></trkpt><trkpt lat="39.3641193481389" lon="8.428174963229946"><ele>231.5</ele><time>2026-04-08T10:17:35.998Z</time></trkpt><trkpt lat="39.364195089504186" lon="8.428006810857122"><ele>230.0</ele><time>2026-04-08T10:17:36.998Z</time></trkpt><trkpt lat="39.364305436748474" lon="8.427858141210105"><ele>229.25</ele><time>2026-04-08T10:17:37.998Z</time></trkpt><trkpt lat="39.36439981199533" lon="8.427730940767477"><ele>228.5</ele><time>2026-04-08T10:17:38.998Z</time></trkpt><trkpt lat="39.36444277341232" lon="8.427585484900414"><ele>227.75</ele><time>2026-04-08T10:17:39.998Z</time></trkpt><trkpt lat="39.36443701675606" lon="8.427414053066004"><ele>227.0</ele><time>2026-04-08T10:17:40.998Z</time></trkpt><trkpt lat="39.364376582960574" lon="8.427228621225046"><ele>227.5</ele><time>2026-04-08T10:17:41.998Z</time></trkpt><trkpt lat="39.36430417412033" lon="8.427058005392713"><ele>228.0</ele><time>2026-04-08T10:17:42.998Z</time></trkpt><trkpt lat="39.36430237475105" lon="8.426894079829571"><ele>228.5</ele><time>2026-04-08T10:17:43.998Z</time></trkpt><trkpt lat="39.36434892823847" lon="8.426732147313063"><ele>229.0</ele><time>2026-04-08T10:17:44.998Z</time></trkpt><trkpt lat="39.36440939659583" lon="8.426594470617129"><ele>229.0</ele><time>2026-04-08T10:17:45.998Z</time></trkpt><trkpt lat="39.36449947828281" lon="8.426452670494543"><ele>229.0</ele><time>2026-04-08T10:17:46.998Z</time></trkpt><trkpt lat="39.364610453666884" lon="8.426307884712346"><ele>229.0</ele><time>2026-04-08T10:17:47.998Z</time></trkpt><trkpt lat="39.36471535708177" lon="8.426174711511287"><ele>229.0</ele><time>2026-04-08T10:17:48.998Z</time></trkpt><trkpt lat="39.364808726875914" lon="8.426047344778326"><ele>228.25</ele><time>2026-04-08T10:17:49.998Z</time></trkpt><trkpt lat="39.364883491388944" lon="8.42592028806729"><ele>227.5</ele><time>2026-04-08T10:17:50.998Z</time></trkpt><trkpt lat="39.364933060216266" lon="8.425778771479559"><ele>226.75</ele><time>2026-04-08T10:17:51.998Z</time></trkpt><trkpt lat="39.364962444194475" lon="8.425623117141951"><ele>226.0</ele><time>2026-04-08T10:17:52.997Z</time></trkpt><trkpt lat="39.36497867735755" lon="8.425460977686816"><ele>224.75</ele><time>2026-04-08T10:17:54Z</time></trkpt><trkpt lat="39.36498827640803" lon="8.425287481458684"><ele>223.5</ele><time>2026-04-08T10:17:55Z</time></trkpt><trkpt lat="39.364988546686426" lon="8.425102167137972"><ele>222.25</ele><time>2026-04-08T10:17:56Z</time></trkpt><trkpt lat="39.36498591165729" lon="8.424916625568152"><ele>221.0</ele><time>2026-04-08T10:17:57Z</time></trkpt><trkpt lat="39.36498411287829" lon="8.424739078583766"><ele>221.75</ele><time>2026-04-08T10:17:58Z</time></trkpt><trkpt lat="39.36498207648317" lon="8.424571514223826"><ele>222.5</ele><time>2026-04-08T10:17:59Z</time></trkpt><trkpt lat="39.36495888852327" lon="8.42441395345365"><ele>223.25</ele><time>2026-04-08T10:18:00Z</time></trkpt><trkpt lat="39.3648877547452" lon="8.424258953241292"><ele>224.0</ele><time>2026-04-08T10:18:01Z</time></trkpt><trkpt lat="39.364788276863074" lon="8.424124278874876"><ele>225.25</ele><time>2026-04-08T10:18:02Z</time></trkpt><trkpt lat="39.36468020823709" lon="8.424022760574164"><ele>226.5</ele><time>2026-04-08T10:18:03Z</time></trkpt><trkpt lat="39.36461380483351" lon="8.423902173707985"><ele>227.75</ele><time>2026-04-08T10:18:04Z</time></trkpt><trkpt lat="39.364599258084006" lon="8.423755827404012"><ele>229.0</ele><time>2026-04-08T10:18:05Z</time></trkpt><trkpt lat="39.36464103148852" lon="8.423582980829435"><ele>224.0</ele><time>2026-04-08T10:18:06Z</time></trkpt><trkpt lat="39.36469041892972" lon="8.423404240915943"><ele>219.0</ele><time>2026-04-08T10:18:07Z</time></trkpt><trkpt lat="39.36466815533367" lon="8.423226876214796"><ele>214.0</ele><time>2026-04-08T10:18:08Z</time></trkpt><trkpt lat="39.36459541482628" lon="8.423034248440981"><ele>210.33333333333331</ele><time>2026-04-08T10:18:09Z</time></trkpt><trkpt lat="39.364525731981196" lon="8.422835955608276"><ele>206.66666666666669</ele><time>2026-04-08T10:18:10Z</time></trkpt><trkpt lat="39.3645124158681" lon="8.422612959441716"><ele>203.0</ele><time>2026-04-08T10:18:11Z</time></trkpt><trkpt lat="39.364532929977216" lon="8.42236896335127"><ele>200.0</ele><time>2026-04-08T10:18:12Z</time></trkpt><trkpt lat="39.364549486222785" lon="8.42211862299349"><ele>197.0</ele><time>2026-04-08T10:18:13Z</time></trkpt><trkpt lat="39.364520288550935" lon="8.42188671458652"><ele>194.0</ele><time>2026-04-08T10:18:14Z</time></trkpt><trkpt lat="39.364462751374525" lon="8.421650017138308"><ele>194.0</ele><time>2026-04-08T10:18:15Z</time></trkpt><trkpt lat="39.36439531423479" lon="8.421428244296402"><ele>194.0</ele><time>2026-04-08T10:18:16Z</time></trkpt><trkpt lat="39.36431258354092" lon="8.421223588904494"><ele>194.0</ele><time>2026-04-08T10:18:17Z</time></trkpt><trkpt lat="39.3642158042332" lon="8.421035071927832"><ele>193.0</ele><time>2026-04-08T10:18:18Z</time></trkpt><trkpt lat="39.3641082435774" lon="8.420850865569566"><ele>192.0</ele><time>2026-04-08T10:18:19Z</time></trkpt><trkpt lat="39.36400393749032" lon="8.420668396884214"><ele>191.0</ele><time>2026-04-08T10:18:20Z</time></trkpt><trkpt lat="39.36392969759446" lon="8.4204876609856"><ele>188.25</ele><time>2026-04-08T10:18:21Z</time></trkpt><trkpt lat="39.363897145821426" lon="8.420302459268314"><ele>185.5</ele><time>2026-04-08T10:18:22Z</time></trkpt><trkpt lat="39.36391306934012" lon="8.420116936569636"><ele>182.75</ele><time>2026-04-08T10:18:23Z</time></trkpt><trkpt lat="39.36397980448537" lon="8.419931359572052"><ele>180.0</ele><time>2026-04-08T10:18:24Z</time></trkpt><trkpt lat="39.36406628964392" lon="8.419739495064329"><ele>179.5</ele><time>2026-04-08T10:18:25Z</time></trkpt><trkpt lat="39.36413520380953" lon="8.419553985918187"><ele>179.0</ele><time>2026-04-08T10:18:26Z</time></trkpt><trkpt lat="39.3641423954836" lon="8.41937597503478"><ele>178.5</ele><time>2026-04-08T10:18:27Z</time></trkpt><trkpt lat="39.36409317804047" lon="8.419194012556108"><ele>178.0</ele><time>2026-04-08T10:18:28Z</time></trkpt><trkpt lat="39.3640075740208" lon="8.419027126258356"><ele>178.0</ele><time>2026-04-08T10:18:29Z</time></trkpt><trkpt lat="39.36388742088054" lon="8.418895322726282"><ele>178.0</ele><time>2026-04-08T10:18:30Z</time></trkpt><trkpt lat="39.36373379663628" lon="8.418797898981383"><ele>178.0</ele><time>2026-04-08T10:18:31Z</time></trkpt><trkpt lat="39.36357974235896" lon="8.418699686633916"><ele>174.33333333333334</ele><time>2026-04-08T10:18:32Z</time></trkpt><trkpt lat="39.363443464144716" lon="8.418555301518493"><ele>170.66666666666666</ele><time>2026-04-08T10:18:33Z</time></trkpt><trkpt lat="39.363327703454075" lon="8.418374788329308"><ele>167.0</ele><time>2026-04-08T10:18:34Z</time></trkpt><trkpt lat="39.36322577467147" lon="8.418184454431703"><ele>167.0</ele><time>2026-04-08T10:18:35Z</time></trkpt><trkpt lat="39.3631346359047" lon="8.4180079865237"><ele>167.0</ele><time>2026-04-08T10:18:36Z</time></trkpt><trkpt lat="39.36303617137337" lon="8.417884243030262"><ele>167.0</ele><time>2026-04-08T10:18:37Z</time></trkpt><trkpt lat="39.36288656104418" lon="8.417810311794343"><ele>166.66666666666666</ele><time>2026-04-08T10:18:38Z</time></trkpt><trkpt lat="39.36271356964673" lon="8.4177575583687"><ele>166.33333333333334</ele><time>2026-04-08T10:18:39Z</time></trkpt><trkpt lat="39.36254250594955" lon="8.417654753222205"><ele>166.0</ele><time>2026-04-08T10:18:40Z</time></trkpt><trkpt lat="39.36237716937952" lon="8.417500011193045"><ele>166.0</ele><time>2026-04-08T10:18:40.999Z</time></trkpt><trkpt lat="39.36220836130847" lon="8.417334716195297"><ele>166.0</ele><time>2026-04-08T10:18:41.999Z</time></trkpt><trkpt lat="39.3620453284464" lon="8.417173132511946"><ele>166.0</ele><time>2026-04-08T10:18:42.999Z</time></trkpt><trkpt lat="39.36188895127003" lon="8.417030275728818"><ele>163.0</ele><time>2026-04-08T10:18:43.999Z</time></trkpt><trkpt lat="39.36174094697219" lon="8.416899492772236"><ele>160.0</ele><time>2026-04-08T10:18:44.999Z</time></trkpt><trkpt lat="39.36160791527492" lon="8.41674532813918"><ele>157.0</ele><time>2026-04-08T10:18:45.999Z</time></trkpt><trkpt lat="39.361479220582815" lon="8.416555994476413"><ele>158.0</ele><time>2026-04-08T10:18:46.999Z</time></trkpt><trkpt lat="39.36136163474484" lon="8.416338701094608"><ele>159.0</ele><time>2026-04-08T10:18:47.999Z</time></trkpt><trkpt lat="39.361242807772136" lon="8.416114408513838"><ele>160.0</ele><time>2026-04-08T10:18:48.999Z</time></trkpt><trkpt lat="39.36111527360274" lon="8.415898377226226"><ele>157.66666666666669</ele><time>2026-04-08T10:18:49.999Z</time></trkpt><trkpt lat="39.36098392639233" lon="8.415704040831603"><ele>155.33333333333334</ele><time>2026-04-08T10:18:50.999Z</time></trkpt><trkpt lat="39.36085710158234" lon="8.41552405018862"><ele>153.0</ele><time>2026-04-08T10:18:51.999Z</time></trkpt><trkpt lat="39.360739008452576" lon="8.415353617782042"><ele>153.0</ele><time>2026-04-08T10:18:52.999Z</time></trkpt><trkpt lat="39.3606275470021" lon="8.415191327058222"><ele>153.0</ele><time>2026-04-08T10:18:53.999Z</time></trkpt><trkpt lat="39.3605254426337" lon="8.415032643498623"><ele>153.0</ele><time>2026-04-08T10:18:54.999Z</time></trkpt><trkpt lat="39.36043041964053" lon="8.414873953792325"><ele>151.0</ele><time>2026-04-08T10:18:55.999Z</time></trkpt><trkpt lat="39.36035074869451" lon="8.414689324388052"><ele>149.0</ele><time>2026-04-08T10:18:56.999Z</time></trkpt><trkpt lat="39.36028547766101" lon="8.414462302042676"><ele>147.0</ele><time>2026-04-08T10:18:57.999Z</time></trkpt><trkpt lat="39.360229429353375" lon="8.414225381561163"><ele>145.0</ele><time>2026-04-08T10:18:58.999Z</time></trkpt><trkpt lat="39.36016473820896" lon="8.413993713033463"><ele>143.0</ele><time>2026-04-08T10:18:59.999Z</time></trkpt><trkpt lat="39.36009429173553" lon="8.413770920128618"><ele>141.0</ele><time>2026-04-08T10:19:00.999Z</time></trkpt><trkpt lat="39.36002707273038" lon="8.413566874613394"><ele>140.66666666666666</ele><time>2026-04-08T10:19:01.999Z</time></trkpt><trkpt lat="39.35995636388354" lon="8.413373337706567"><ele>140.33333333333331</ele><time>2026-04-08T10:19:02.999Z</time></trkpt><trkpt lat="39.359889497057594" lon="8.413177160335442"><ele>140.0</ele><time>2026-04-08T10:19:03.999Z</time></trkpt><trkpt lat="39.35983060087978" lon="8.41297013940314"><ele>140.0</ele><time>2026-04-08T10:19:04.999Z</time></trkpt><trkpt lat="39.35978773231881" lon="8.412755690729268"><ele>140.0</ele><time>2026-04-08T10:19:05.999Z</time></trkpt><trkpt lat="39.35976639314882" lon="8.412528147084029"><ele>140.0</ele><time>2026-04-08T10:19:06.999Z</time></trkpt><trkpt lat="39.35975701375517" lon="8.412294055800068"><ele>140.0</ele><time>2026-04-08T10:19:07.999Z</time></trkpt><trkpt lat="39.359753670008544" lon="8.41205640906213"><ele>140.0</ele><time>2026-04-08T10:19:08.999Z</time></trkpt><trkpt lat="39.359747005920546" lon="8.411819459325185"><ele>140.0</ele><time>2026-04-08T10:19:09.999Z</time></trkpt><trkpt lat="39.35973634073657" lon="8.411583390562066"><ele>140.0</ele><time>2026-04-08T10:19:10.999Z</time></trkpt><trkpt lat="39.359724695825655" lon="8.411353131972152"><ele>140.0</ele><time>2026-04-08T10:19:11.999Z</time></trkpt><trkpt lat="39.35970745885329" lon="8.411136604068567"><ele>140.0</ele><time>2026-04-08T10:19:12.999Z</time></trkpt><trkpt lat="39.35968283579711" lon="8.41093381979832"><ele>137.66666666666666</ele><time>2026-04-08T10:19:13.999Z</time></trkpt><trkpt lat="39.35965132670855" lon="8.410718412991155"><ele>135.33333333333334</ele><time>2026-04-08T10:19:14.999Z</time></trkpt><trkpt lat="39.359608571588375" lon="8.410487233164913"><ele>133.0</ele><time>2026-04-08T10:19:15.999Z</time></trkpt><trkpt lat="39.35956016579551" lon="8.410268560548941"><ele>130.0</ele><time>2026-04-08T10:19:16.999Z</time></trkpt><trkpt lat="39.359509550671724" lon="8.410052326619116"><ele>127.0</ele><time>2026-04-08T10:19:17.999Z</time></trkpt><trkpt lat="39.359459232793434" lon="8.40984268865601"><ele>124.0</ele><time>2026-04-08T10:19:18.999Z</time></trkpt><trkpt lat="39.35943881879456" lon="8.409633611770094"><ele>121.66666666666667</ele><time>2026-04-08T10:19:19.998Z</time></trkpt><trkpt lat="39.35945346009319" lon="8.409420475601816"><ele>119.33333333333334</ele><time>2026-04-08T10:19:20.998Z</time></trkpt><trkpt lat="39.35950715367859" lon="8.409201735978845"><ele>117.0</ele><time>2026-04-08T10:19:21.998Z</time></trkpt><trkpt lat="39.35957890004907" lon="8.40897426557141"><ele>117.0</ele><time>2026-04-08T10:19:22.998Z</time></trkpt><trkpt lat="39.35966217859424" lon="8.408748062878757"><ele>117.0</ele><time>2026-04-08T10:19:23.998Z</time></trkpt><trkpt lat="39.3597506180566" lon="8.408533066629621"><ele>117.0</ele><time>2026-04-08T10:19:24.998Z</time></trkpt><trkpt lat="39.35983072199677" lon="8.408333387967554"><ele>117.0</ele><time>2026-04-08T10:19:25.998Z</time></trkpt><trkpt lat="39.35988559711852" lon="8.408107941421138"><ele>117.0</ele><time>2026-04-08T10:19:26.998Z</time></trkpt><trkpt lat="39.35990669707474" lon="8.407858329771537"><ele>117.0</ele><time>2026-04-08T10:19:27.998Z</time></trkpt><trkpt lat="39.35989748919348" lon="8.407623991259822"><ele>114.0</ele><time>2026-04-08T10:19:28.998Z</time></trkpt><trkpt lat="39.35988994458037" lon="8.407410067228621"><ele>111.0</ele><time>2026-04-08T10:19:29.998Z</time></trkpt><trkpt lat="39.359920692312926" lon="8.407214616239617"><ele>108.0</ele><time>2026-04-08T10:19:30.998Z</time></trkpt><trkpt lat="39.35999642200447" lon="8.407024409435355"><ele>106.66666666666666</ele><time>2026-04-08T10:19:31.998Z</time></trkpt><trkpt lat="39.36010142237723" lon="8.406852226895461"><ele>105.33333333333333</ele><time>2026-04-08T10:19:32.998Z</time></trkpt><trkpt lat="39.36021553795593" lon="8.406688151218313"><ele>104.0</ele><time>2026-04-08T10:19:33.998Z</time></trkpt><trkpt lat="39.36031202668387" lon="8.406500767864593"><ele>105.0</ele><time>2026-04-08T10:19:34.998Z</time></trkpt><trkpt lat="39.36039810289026" lon="8.406301884030405"><ele>106.0</ele><time>2026-04-08T10:19:35.998Z</time></trkpt><trkpt lat="39.36047842079303" lon="8.406112347963054"><ele>107.0</ele><time>2026-04-08T10:19:36.998Z</time></trkpt><trkpt lat="39.36055820815245" lon="8.405938284067885"><ele>107.0</ele><time>2026-04-08T10:19:37.998Z</time></trkpt><trkpt lat="39.36063016794179" lon="8.405766281720261"><ele>107.0</ele><time>2026-04-08T10:19:38.998Z</time></trkpt><trkpt lat="39.360682381710035" lon="8.405591322007039"><ele>107.0</ele><time>2026-04-08T10:19:39.998Z</time></trkpt><trkpt lat="39.36072554083846" lon="8.40542183858776"><ele>107.0</ele><time>2026-04-08T10:19:40.998Z</time></trkpt><trkpt lat="39.36076401340393" lon="8.405258693308696"><ele>103.25</ele><time>2026-04-08T10:19:41.998Z</time></trkpt><trkpt lat="39.36080581415525" lon="8.405113471423816"><ele>99.5</ele><time>2026-04-08T10:19:42.998Z</time></trkpt><trkpt lat="39.36087846045475" lon="8.404977235388866"><ele>95.75</ele><time>2026-04-08T10:19:43.998Z</time></trkpt><trkpt lat="39.36099332478003" lon="8.404857375880486"><ele>92.0</ele><time>2026-04-08T10:19:44.998Z</time></trkpt><trkpt lat="39.36115210435076" lon="8.404747540707323"><ele>92.0</ele><time>2026-04-08T10:19:45.998Z</time></trkpt><trkpt lat="39.361335758227135" lon="8.404622301871067"><ele>92.0</ele><time>2026-04-08T10:19:46.998Z</time></trkpt><trkpt lat="39.36152173704352" lon="8.404472923562285"><ele>92.0</ele><time>2026-04-08T10:19:47.998Z</time></trkpt><trkpt lat="39.361698715565765" lon="8.404324411981936"><ele>92.0</ele><time>2026-04-08T10:19:48.998Z</time></trkpt><trkpt lat="39.36190445821679" lon="8.404137416809771"><ele>92.0</ele><time>2026-04-08T10:19:49.998Z</time></trkpt><trkpt lat="39.36213279310194" lon="8.403941137343525"><ele>88.5</ele><time>2026-04-08T10:19:50.998Z</time></trkpt><trkpt lat="39.362356646197426" lon="8.403774861930806"><ele>85.0</ele><time>2026-04-08T10:19:51.998Z</time></trkpt><trkpt lat="39.36254878966825" lon="8.403613536118959"><ele>85.0</ele><time>2026-04-08T10:19:52.998Z</time></trkpt><trkpt lat="39.362705024533284" lon="8.403454969891747"><ele>85.0</ele><time>2026-04-08T10:19:53.998Z</time></trkpt><trkpt lat="39.362846750672546" lon="8.403330177796466"><ele>85.0</ele><time>2026-04-08T10:19:54.998Z</time></trkpt><trkpt lat="39.362944970719234" lon="8.403208924394608"><ele>83.66666666666666</ele><time>2026-04-08T10:19:55.998Z</time></trkpt><trkpt lat="39.363085007994734" lon="8.403026537697121"><ele>82.33333333333333</ele><time>2026-04-08T10:19:56.998Z</time></trkpt><trkpt lat="39.36312895693148" lon="8.402810407020983"><ele>81.0</ele><time>2026-04-08T10:19:57.998Z</time></trkpt><trkpt lat="39.36314412714577" lon="8.402599033497134"><ele>81.0</ele><time>2026-04-08T10:19:59Z</time></trkpt><trkpt lat="39.36319926757489" lon="8.402448910775224"><ele>81.0</ele><time>2026-04-08T10:20:00Z</time></trkpt><trkpt lat="39.363317640748406" lon="8.402345559585276"><ele>81.0</ele><time>2026-04-08T10:20:01Z</time></trkpt><trkpt lat="39.36348574762878" lon="8.402278000715928"><ele>81.0</ele><time>2026-04-08T10:20:02Z</time></trkpt><trkpt lat="39.36366087401206" lon="8.402234538715353"><ele>79.33333333333333</ele><time>2026-04-08T10:20:03Z</time></trkpt><trkpt lat="39.36378454556057" lon="8.402124234344836"><ele>77.66666666666666</ele><time>2026-04-08T10:20:04Z</time></trkpt><trkpt lat="39.363868104501506" lon="8.401932972053597"><ele>76.0</ele><time>2026-04-08T10:20:05Z</time></trkpt><trkpt lat="39.363900105454974" lon="8.40171191772067"><ele>76.0</ele><time>2026-04-08T10:20:06Z</time></trkpt><trkpt lat="39.36388443144085" lon="8.401493558175728"><ele>76.0</ele><time>2026-04-08T10:20:07Z</time></trkpt><trkpt lat="39.36388383047968" lon="8.40131736754883"><ele>76.0</ele><time>2026-04-08T10:20:08Z</time></trkpt><trkpt lat="39.3639380011352" lon="8.40120167900514"><ele>76.0</ele><time>2026-04-08T10:20:09Z</time></trkpt><trkpt lat="39.36404488836702" lon="8.40113377804663"><ele>74.66666666666666</ele><time>2026-04-08T10:20:10Z</time></trkpt><trkpt lat="39.36418501877458" lon="8.4011282127788"><ele>73.33333333333333</ele><time>2026-04-08T10:20:11Z</time></trkpt><trkpt lat="39.364339096918386" lon="8.401218763185884"><ele>72.0</ele><time>2026-04-08T10:20:12Z</time></trkpt><trkpt lat="39.364485523981536" lon="8.401314617733544"><ele>72.0</ele><time>2026-04-08T10:20:13Z</time></trkpt><trkpt lat="39.36463352644443" lon="8.401311173381107"><ele>72.0</ele><time>2026-04-08T10:20:14Z</time></trkpt><trkpt lat="39.36477603013254" lon="8.401219472251585"><ele>72.0</ele><time>2026-04-08T10:20:15Z</time></trkpt><trkpt lat="39.36487887285186" lon="8.401054307702974"><ele>69.33333333333333</ele><time>2026-04-08T10:20:16Z</time></trkpt><trkpt lat="39.364929193723135" lon="8.40084573702152"><ele>66.66666666666666</ele><time>2026-04-08T10:20:17Z</time></trkpt><trkpt lat="39.364942613390795" lon="8.40061153883437"><ele>64.0</ele><time>2026-04-08T10:20:18Z</time></trkpt><trkpt lat="39.36492864875765" lon="8.400382670947058"><ele>61.75</ele><time>2026-04-08T10:20:19Z</time></trkpt><trkpt lat="39.36493051798921" lon="8.400206250184725"><ele>59.5</ele><time>2026-04-08T10:20:20Z</time></trkpt><trkpt lat="39.36503497457465" lon="8.400094537542808"><ele>57.25</ele><time>2026-04-08T10:20:21Z</time></trkpt><trkpt lat="39.3651884478505" lon="8.39998990792676"><ele>55.0</ele><time>2026-04-08T10:20:22Z</time></trkpt><trkpt lat="39.365372962636506" lon="8.39994426638891"><ele>52.5</ele><time>2026-04-08T10:20:23Z</time></trkpt><trkpt lat="39.36559382354252" lon="8.399910964904455"><ele>50.0</ele><time>2026-04-08T10:20:24Z</time></trkpt><trkpt lat="39.36583435010775" lon="8.399846007641889"><ele>50.0</ele><time>2026-04-08T10:20:25Z</time></trkpt><trkpt lat="39.366081875654565" lon="8.399754986795315"><ele>50.0</ele><time>2026-04-08T10:20:26Z</time></trkpt><trkpt lat="39.36628950225592" lon="8.399675848688783"><ele>48.66666666666667</ele><time>2026-04-08T10:20:27Z</time></trkpt><trkpt lat="39.36646640513855" lon="8.399596693647046"><ele>47.333333333333336</ele><time>2026-04-08T10:20:28Z</time></trkpt><trkpt lat="39.366625095514536" lon="8.399493108157728"><ele>46.0</ele><time>2026-04-08T10:20:29Z</time></trkpt><trkpt lat="39.36676120686117" lon="8.399365126910629"><ele>46.0</ele><time>2026-04-08T10:20:30Z</time></trkpt><trkpt lat="39.36685629340244" lon="8.399198964891085"><ele>46.0</ele><time>2026-04-08T10:20:31Z</time></trkpt><trkpt lat="39.36691924978016" lon="8.398978408936358"><ele>46.0</ele><time>2026-04-08T10:20:32Z</time></trkpt><trkpt lat="39.36697196309278" lon="8.398688953182756"><ele>43.0</ele><time>2026-04-08T10:20:33Z</time></trkpt><trkpt lat="39.36704198714914" lon="8.398341995879308"><ele>40.0</ele><time>2026-04-08T10:20:34Z</time></trkpt><trkpt lat="39.36714343663312" lon="8.39795824430287"><ele>49.0</ele><time>2026-04-08T10:20:35Z</time></trkpt><trkpt lat="39.367258404110956" lon="8.39755426250824"><ele>58.0</ele><time>2026-04-08T10:20:36Z</time></trkpt><trkpt lat="39.36736107997897" lon="8.397174945946343"><ele>53.5</ele><time>2026-04-08T10:20:37Z</time></trkpt><trkpt lat="39.36743335447289" lon="8.396850948118326"><ele>49.0</ele><time>2026-04-08T10:20:38Z</time></trkpt><trkpt lat="39.3675023174034" lon="8.39655355368765"><ele>45.666666666666664</ele><time>2026-04-08T10:20:39Z</time></trkpt><trkpt lat="39.36757297597947" lon="8.396280049853369"><ele>42.33333333333333</ele><time>2026-04-08T10:20:40Z</time></trkpt><trkpt lat="39.36764479263681" lon="8.39602982110429"><ele>39.0</ele><time>2026-04-08T10:20:41Z</time></trkpt><trkpt lat="39.36769762161307" lon="8.39578427323795"><ele>39.0</ele><time>2026-04-08T10:20:42Z</time></trkpt><trkpt lat="39.36778654450633" lon="8.395548597424165"><ele>39.0</ele><time>2026-04-08T10:20:43Z</time></trkpt><trkpt lat="39.36792012110953" lon="8.395312945999464"><ele>39.0</ele><time>2026-04-08T10:20:44Z</time></trkpt><trkpt lat="39.36809098106795" lon="8.395100756221462"><ele>40.5</ele><time>2026-04-08T10:20:45Z</time></trkpt><trkpt lat="39.368277345619234" lon="8.39490933431101"><ele>42.0</ele><time>2026-04-08T10:20:45.999Z</time></trkpt><trkpt lat="39.368478887761064" lon="8.394750365427706"><ele>41.333333333333336</ele><time>2026-04-08T10:20:46.999Z</time></trkpt><trkpt lat="39.36867527551356" lon="8.394622998352729"><ele>40.66666666666667</ele><time>2026-04-08T10:20:47.999Z</time></trkpt><trkpt lat="39.3688560393046" lon="8.394549590806921"><ele>40.0</ele><time>2026-04-08T10:20:48.999Z</time></trkpt><trkpt lat="39.369045841565715" lon="8.39453782086093"><ele>37.333333333333336</ele><time>2026-04-08T10:20:49.999Z</time></trkpt><trkpt lat="39.3692497694502" lon="8.394592547458922"><ele>34.666666666666664</ele><time>2026-04-08T10:20:50.999Z</time></trkpt><trkpt lat="39.36943708876813" lon="8.39462904118817"><ele>32.0</ele><time>2026-04-08T10:20:51.999Z</time></trkpt><trkpt lat="39.36958600158092" lon="8.394588298782757"><ele>36.666666666666664</ele><time>2026-04-08T10:20:52.999Z</time></trkpt><trkpt lat="39.36976319264779" lon="8.394467671578637"><ele>41.333333333333336</ele><time>2026-04-08T10:20:53.999Z</time></trkpt><trkpt lat="39.369920279643864" lon="8.394306406174248"><ele>46.0</ele><time>2026-04-08T10:20:54.999Z</time></trkpt><trkpt lat="39.37004386943264" lon="8.394098789993425"><ele>46.0</ele><time>2026-04-08T10:20:55.999Z</time></trkpt><trkpt lat="39.370153999121925" lon="8.393876691364957"><ele>46.0</ele><time>2026-04-08T10:20:56.999Z</time></trkpt><trkpt lat="39.3702292775501" lon="8.393639709623974"><ele>46.0</ele><time>2026-04-08T10:20:57.999Z</time></trkpt><trkpt lat="39.37026311796907" lon="8.393412880894456"><ele>47.0</ele><time>2026-04-08T10:20:58.999Z</time></trkpt><trkpt lat="39.37028393324306" lon="8.393223938114827"><ele>48.0</ele><time>2026-04-08T10:20:59.999Z</time></trkpt><trkpt lat="39.37033495295791" lon="8.39308083815092"><ele>49.0</ele><time>2026-04-08T10:21:00.999Z</time></trkpt><trkpt lat="39.37043853529226" lon="8.393022158101358"><ele>50.0</ele><time>2026-04-08T10:21:01.999Z</time></trkpt><trkpt lat="39.37054402168915" lon="8.393050606112714"><ele>50.0</ele><time>2026-04-08T10:21:02.999Z</time></trkpt><trkpt lat="39.370644459431794" lon="8.393136443397855"><ele>50.0</ele><time>2026-04-08T10:21:03.999Z</time></trkpt><trkpt lat="39.370754004125985" lon="8.393283198929222"><ele>50.0</ele><time>2026-04-08T10:21:04.999Z</time></trkpt><trkpt lat="39.37091283351392" lon="8.393445764271473"><ele>50.0</ele><time>2026-04-08T10:21:05.999Z</time></trkpt><trkpt lat="39.371052315474046" lon="8.393621364860023"><ele>50.0</ele><time>2026-04-08T10:21:06.999Z</time></trkpt><trkpt lat="39.37118947622856" lon="8.39374431781301"><ele>50.0</ele><time>2026-04-08T10:21:07.999Z</time></trkpt><trkpt lat="39.37135967562261" lon="8.393813480890573"><ele>53.0</ele><time>2026-04-08T10:21:08.999Z</time></trkpt><trkpt lat="39.37158215334356" lon="8.39380669608325"><ele>56.0</ele><time>2026-04-08T10:21:09.999Z</time></trkpt><trkpt lat="39.3718081768398" lon="8.393839305038668"><ele>60.333333333333336</ele><time>2026-04-08T10:21:10.999Z</time></trkpt><trkpt lat="39.371995310363516" lon="8.393899474687924"><ele>64.66666666666667</ele><time>2026-04-08T10:21:11.999Z</time></trkpt><trkpt lat="39.37215083586549" lon="8.393968437116524"><ele>69.0</ele><time>2026-04-08T10:21:12.999Z</time></trkpt><trkpt lat="39.37226745033687" lon="8.394013520377124"><ele>69.0</ele><time>2026-04-08T10:21:13.999Z</time></trkpt><trkpt lat="39.37232526637077" lon="8.394128680459373"><ele>69.0</ele><time>2026-04-08T10:21:14.999Z</time></trkpt><trkpt lat="39.37233028774209" lon="8.394310813878416"><ele>69.0</ele><time>2026-04-08T10:21:15.999Z</time></trkpt><trkpt lat="39.37229878751413" lon="8.39451374292784"><ele>69.0</ele><time>2026-04-08T10:21:16.999Z</time></trkpt><trkpt lat="39.37228162386785" lon="8.39476992882111"><ele>74.5</ele><time>2026-04-08T10:21:17.999Z</time></trkpt><trkpt lat="39.37227711403675" lon="8.395064972627036"><ele>80.0</ele><time>2026-04-08T10:21:18.999Z</time></trkpt><trkpt lat="39.37227087078032" lon="8.395378192658889"><ele>83.66666666666667</ele><time>2026-04-08T10:21:19.999Z</time></trkpt><trkpt lat="39.37224402039785" lon="8.395664203917645"><ele>87.33333333333333</ele><time>2026-04-08T10:21:20.999Z</time></trkpt><trkpt lat="39.37223638598468" lon="8.395877654204757"><ele>91.0</ele><time>2026-04-08T10:21:21.999Z</time></trkpt><trkpt lat="39.37220791916099" lon="8.396058307273883"><ele>92.4</ele><time>2026-04-08T10:21:22.999Z</time></trkpt><trkpt lat="39.372141965161774" lon="8.396185746109794"><ele>93.8</ele><time>2026-04-08T10:21:23.999Z</time></trkpt><trkpt lat="39.37209236051446" lon="8.396290866875985"><ele>95.2</ele><time>2026-04-08T10:21:24.998Z</time></trkpt><trkpt lat="39.37212047481062" lon="8.39638525943122"><ele>96.60000000000001</ele><time>2026-04-08T10:21:25.998Z</time></trkpt><trkpt lat="39.37220961365868" lon="8.396439226009933"><ele>98.0</ele><time>2026-04-08T10:21:26.998Z</time></trkpt><trkpt lat="39.37232052524754" lon="8.396445703337646"><ele>98.0</ele><time>2026-04-08T10:21:27.998Z</time></trkpt><trkpt lat="39.37241702707701" lon="8.396380383855895"><ele>98.0</ele><time>2026-04-08T10:21:28.998Z</time></trkpt><trkpt lat="39.3724703344249" lon="8.39623907765633"><ele>98.0</ele><time>2026-04-08T10:21:29.998Z</time></trkpt><trkpt lat="39.37250561720133" lon="8.396048618920034"><ele>98.0</ele><time>2026-04-08T10:21:30.998Z</time></trkpt><trkpt lat="39.372566429882525" lon="8.395815663018583"><ele>94.5</ele><time>2026-04-08T10:21:31.998Z</time></trkpt><trkpt lat="39.37265192808567" lon="8.3955543765981"><ele>91.0</ele><time>2026-04-08T10:21:32.998Z</time></trkpt><trkpt lat="39.37276833041081" lon="8.395280754725103"><ele>85.5</ele><time>2026-04-08T10:21:33.998Z</time></trkpt><trkpt lat="39.37291349894122" lon="8.3949945271212"><ele>80.0</ele><time>2026-04-08T10:21:34.998Z</time></trkpt><trkpt lat="39.37305527374406" lon="8.394687687325675"><ele>86.5</ele><time>2026-04-08T10:21:35.998Z</time></trkpt><trkpt lat="39.37318324943728" lon="8.39441712637571"><ele>93.0</ele><time>2026-04-08T10:21:36.998Z</time></trkpt><trkpt lat="39.37330022871214" lon="8.394171764150455"><ele>93.0</ele><time>2026-04-08T10:21:37.998Z</time></trkpt><trkpt lat="39.37343825901874" lon="8.393940534386584"><ele>93.0</ele><time>2026-04-08T10:21:38.998Z</time></trkpt><trkpt lat="39.373613134324145" lon="8.393727829454516"><ele>93.33333333333333</ele><time>2026-04-08T10:21:39.998Z</time></trkpt><trkpt lat="39.373769898508044" lon="8.393529372768954"><ele>93.66666666666666</ele><time>2026-04-08T10:21:40.998Z</time></trkpt><trkpt lat="39.37388908824403" lon="8.393371380519147"><ele>94.0</ele><time>2026-04-08T10:21:41.998Z</time></trkpt><trkpt lat="39.37405189384783" lon="8.393259522565646"><ele>98.0</ele><time>2026-04-08T10:21:42.998Z</time></trkpt><trkpt lat="39.37422982136256" lon="8.39322111545446"><ele>102.0</ele><time>2026-04-08T10:21:43.998Z</time></trkpt><trkpt lat="39.3744170919712" lon="8.393248705688132"><ele>106.0</ele><time>2026-04-08T10:21:44.998Z</time></trkpt><trkpt lat="39.37460178816083" lon="8.3933395468151"><ele>107.33333333333334</ele><time>2026-04-08T10:21:45.998Z</time></trkpt><trkpt lat="39.374780301146" lon="8.393484901263031"><ele>108.66666666666666</ele><time>2026-04-08T10:21:46.998Z</time></trkpt><trkpt lat="39.37497867278618" lon="8.393630090192143"><ele>110.0</ele><time>2026-04-08T10:21:47.998Z</time></trkpt><trkpt lat="39.37518615783369" lon="8.393779862455345"><ele>110.5</ele><time>2026-04-08T10:21:48.998Z</time></trkpt><trkpt lat="39.3753966318591" lon="8.39397417393538"><ele>111.0</ele><time>2026-04-08T10:21:49.998Z</time></trkpt><trkpt lat="39.375610154608374" lon="8.39418795050669"><ele>111.0</ele><time>2026-04-08T10:21:50.998Z</time></trkpt><trkpt lat="39.37583878540303" lon="8.394394266819804"><ele>111.0</ele><time>2026-04-08T10:21:51.998Z</time></trkpt><trkpt lat="39.376066209205185" lon="8.394598339227402"><ele>112.5</ele><time>2026-04-08T10:21:52.998Z</time></trkpt><trkpt lat="39.37630373828483" lon="8.394818549070216"><ele>114.0</ele><time>2026-04-08T10:21:53.998Z</time></trkpt><trkpt lat="39.37652104752733" lon="8.395014468334752"><ele>114.0</ele><time>2026-04-08T10:21:54.998Z</time></trkpt><trkpt lat="39.37671650969274" lon="8.395179251322789"><ele>114.0</ele><time>2026-04-08T10:21:55.998Z</time></trkpt><trkpt lat="39.376905939868344" lon="8.395298366450554"><ele>114.0</ele><time>2026-04-08T10:21:56.998Z</time></trkpt><trkpt lat="39.37712991910293" lon="8.395375729664693"><ele>115.0</ele><time>2026-04-08T10:21:57.998Z</time></trkpt><trkpt lat="39.377352334172926" lon="8.395413217655758"><ele>116.0</ele><time>2026-04-08T10:21:58.998Z</time></trkpt><trkpt lat="39.3776051379324" lon="8.395437012843553"><ele>116.0</ele><time>2026-04-08T10:21:59.998Z</time></trkpt><trkpt lat="39.37787683428407" lon="8.395484456943938"><ele>116.0</ele><time>2026-04-08T10:22:00.998Z</time></trkpt><trkpt lat="39.3781322487003" lon="8.39556816930275"><ele>119.0</ele><time>2026-04-08T10:22:01.998Z</time></trkpt><trkpt lat="39.37834252785158" lon="8.395652059669123"><ele>122.0</ele><time>2026-04-08T10:22:02.997Z</time></trkpt><trkpt lat="39.378534327885426" lon="8.395715484071257"><ele>125.0</ele><time>2026-04-08T10:22:03.997Z</time></trkpt><trkpt lat="39.37870880291668" lon="8.3957492251727"><ele>124.33333333333333</ele><time>2026-04-08T10:22:05Z</time></trkpt><trkpt lat="39.37887701031432" lon="8.395730616816715"><ele>123.66666666666666</ele><time>2026-04-08T10:22:06Z</time></trkpt><trkpt lat="39.379025264810345" lon="8.395618145451303"><ele>123.0</ele><time>2026-04-08T10:22:07Z</time></trkpt><trkpt lat="39.37915560584711" lon="8.39543831318244"><ele>123.0</ele><time>2026-04-08T10:22:08Z</time></trkpt><trkpt lat="39.379262457408885" lon="8.395223066575923"><ele>123.0</ele><time>2026-04-08T10:22:09Z</time></trkpt><trkpt lat="39.37935659951092" lon="8.395030725834797"><ele>123.0</ele><time>2026-04-08T10:22:10Z</time></trkpt><trkpt lat="39.379531732545196" lon="8.394900426340438"><ele>128.5</ele><time>2026-04-08T10:22:11Z</time></trkpt><trkpt lat="39.37975416887949" lon="8.394824679537495"><ele>134.0</ele><time>2026-04-08T10:22:12Z</time></trkpt><trkpt lat="39.38001401528678" lon="8.394749336440576"><ele>130.5</ele><time>2026-04-08T10:22:13Z</time></trkpt><trkpt lat="39.380241168477134" lon="8.394665381107057"><ele>127.0</ele><time>2026-04-08T10:22:14Z</time></trkpt><trkpt lat="39.38046865445891" lon="8.39459259851841"><ele>128.33333333333334</ele><time>2026-04-08T10:22:15Z</time></trkpt><trkpt lat="39.38069626411917" lon="8.394559701190358"><ele>129.66666666666666</ele><time>2026-04-08T10:22:16Z</time></trkpt><trkpt lat="39.380895125023336" lon="8.39456528906224"><ele>131.0</ele><time>2026-04-08T10:22:17Z</time></trkpt><trkpt lat="39.38109518025261" lon="8.39450011568301"><ele>131.0</ele><time>2026-04-08T10:22:18Z</time></trkpt><trkpt lat="39.38130037209911" lon="8.39436662778667"><ele>131.0</ele><time>2026-04-08T10:22:19Z</time></trkpt><trkpt lat="39.38149671281386" lon="8.39416342609424"><ele>134.0</ele><time>2026-04-08T10:22:20Z</time></trkpt><trkpt lat="39.381699806838995" lon="8.393961514101928"><ele>137.0</ele><time>2026-04-08T10:22:21Z</time></trkpt><trkpt lat="39.381922020425776" lon="8.393851631175218"><ele>136.0</ele><time>2026-04-08T10:22:22Z</time></trkpt><trkpt lat="39.382152752789985" lon="8.393750891955387"><ele>135.0</ele><time>2026-04-08T10:22:23Z</time></trkpt><trkpt lat="39.382369893278" lon="8.39368293077437"><ele>135.0</ele><time>2026-04-08T10:22:24Z</time></trkpt><trkpt lat="39.38259595521077" lon="8.393654681066147"><ele>135.0</ele><time>2026-04-08T10:22:25Z</time></trkpt><trkpt lat="39.38283005774078" lon="8.393689309469979"><ele>135.0</ele><time>2026-04-08T10:22:26Z</time></trkpt><trkpt lat="39.383079480698356" lon="8.393776662246706"><ele>135.0</ele><time>2026-04-08T10:22:27Z</time></trkpt><trkpt lat="39.38336068962927" lon="8.39389976572324"><ele>138.5</ele><time>2026-04-08T10:22:28Z</time></trkpt><trkpt lat="39.38366020438643" lon="8.39400987597675"><ele>142.0</ele><time>2026-04-08T10:22:29Z</time></trkpt><trkpt lat="39.38393150474194" lon="8.394097977666144"><ele>142.0</ele><time>2026-04-08T10:22:30Z</time></trkpt><trkpt lat="39.384205600613555" lon="8.394192003917585"><ele>142.0</ele><time>2026-04-08T10:22:31Z</time></trkpt><trkpt lat="39.3844726389416" lon="8.39426110767844"><ele>141.5</ele><time>2026-04-08T10:22:32Z</time></trkpt><trkpt lat="39.38472873888449" lon="8.394293797185382"><ele>141.0</ele><time>2026-04-08T10:22:33Z</time></trkpt><trkpt lat="39.38495467889557" lon="8.394309454577485"><ele>141.0</ele><time>2026-04-08T10:22:34Z</time></trkpt><trkpt lat="39.38516416947136" lon="8.394313831479213"><ele>141.0</ele><time>2026-04-08T10:22:35Z</time></trkpt><trkpt lat="39.385349120762775" lon="8.394324703610206"><ele>141.0</ele><time>2026-04-08T10:22:36Z</time></trkpt><trkpt lat="39.385545900487955" lon="8.39438967261647"><ele>140.0</ele><time>2026-04-08T10:22:37Z</time></trkpt><trkpt lat="39.385773844368224" lon="8.394493881782804"><ele>139.0</ele><time>2026-04-08T10:22:38Z</time></trkpt><trkpt lat="39.386000729609854" lon="8.394623010717359"><ele>138.5</ele><time>2026-04-08T10:22:39Z</time></trkpt><trkpt lat="39.386232927694984" lon="8.39471256064047"><ele>138.0</ele><time>2026-04-08T10:22:40Z</time></trkpt><trkpt lat="39.38654397427804" lon="8.39480446002455"><ele>138.0</ele><time>2026-04-08T10:22:41Z</time></trkpt><trkpt lat="39.386828288042516" lon="8.39487716050625"><ele>138.0</ele><time>2026-04-08T10:22:42Z</time></trkpt><trkpt lat="39.38710656320288" lon="8.394957873235752"><ele>136.5</ele><time>2026-04-08T10:22:43Z</time></trkpt><trkpt lat="39.38738036098668" lon="8.395049071876114"><ele>135.0</ele><time>2026-04-08T10:22:44Z</time></trkpt><trkpt lat="39.38764921586925" lon="8.395141330144524"><ele>135.0</ele><time>2026-04-08T10:22:45Z</time></trkpt><trkpt lat="39.38787403738316" lon="8.395219195677683"><ele>135.0</ele><time>2026-04-08T10:22:46Z</time></trkpt><trkpt lat="39.38810025614075" lon="8.3952741829411"><ele>136.5</ele><time>2026-04-08T10:22:47Z</time></trkpt><trkpt lat="39.38835578739297" lon="8.39528001118691"><ele>138.0</ele><time>2026-04-08T10:22:48Z</time></trkpt><trkpt lat="39.38864231281897" lon="8.395246793335463"><ele>138.5</ele><time>2026-04-08T10:22:49Z</time></trkpt><trkpt lat="39.3889510616107" lon="8.395184155105797"><ele>139.0</ele><time>2026-04-08T10:22:50Z</time></trkpt><trkpt lat="39.38929033240093" lon="8.395125858228187"><ele>139.0</ele><time>2026-04-08T10:22:51Z</time></trkpt><trkpt lat="39.38964637989102" lon="8.395081886874726"><ele>139.0</ele><time>2026-04-08T10:22:51.999Z</time></trkpt><trkpt lat="39.3900161965229" lon="8.395052553779315"><ele>140.0</ele><time>2026-04-08T10:22:52.999Z</time></trkpt><trkpt lat="39.39040381689417" lon="8.39501308076735"><ele>141.0</ele><time>2026-04-08T10:22:53.999Z</time></trkpt><trkpt lat="39.390742935241754" lon="8.394976012343676"><ele>141.0</ele><time>2026-04-08T10:22:54.999Z</time></trkpt><trkpt lat="39.39103662667061" lon="8.394948811574235"><ele>141.0</ele><time>2026-04-08T10:22:55.999Z</time></trkpt><trkpt lat="39.39130365996252" lon="8.39491583447703"><ele>143.0</ele><time>2026-04-08T10:22:56.999Z</time></trkpt><trkpt lat="39.391555632664236" lon="8.394880542837683"><ele>145.0</ele><time>2026-04-08T10:22:57.999Z</time></trkpt><trkpt lat="39.39179946960178" lon="8.39485261351044"><ele>145.0</ele><time>2026-04-08T10:22:58.999Z</time></trkpt><trkpt lat="39.39204757218045" lon="8.394827135418668"><ele>145.0</ele><time>2026-04-08T10:22:59.999Z</time></trkpt><trkpt lat="39.39230444492777" lon="8.394799757794772"><ele>146.0</ele><time>2026-04-08T10:23:00.999Z</time></trkpt><trkpt lat="39.3925852486719" lon="8.394768474302278"><ele>147.0</ele><time>2026-04-08T10:23:01.999Z</time></trkpt><trkpt lat="39.39287776755662" lon="8.394756374171106"><ele>147.0</ele><time>2026-04-08T10:23:02.999Z</time></trkpt><trkpt lat="39.39316310871453" lon="8.394759357150823"><ele>147.0</ele><time>2026-04-08T10:23:03.999Z</time></trkpt><trkpt lat="39.3934126564593" lon="8.394770681783523"><ele>147.0</ele><time>2026-04-08T10:23:04.999Z</time></trkpt><trkpt lat="39.393639868469585" lon="8.394767676925913"><ele>147.0</ele><time>2026-04-08T10:23:05.999Z</time></trkpt><trkpt lat="39.39384005803107" lon="8.394770343929089"><ele>147.0</ele><time>2026-04-08T10:23:06.999Z</time></trkpt><trkpt lat="39.39403017461975" lon="8.394829442934782"><ele>145.0</ele><time>2026-04-08T10:23:07.999Z</time></trkpt><trkpt lat="39.39424513186121" lon="8.394964433298563"><ele>143.0</ele><time>2026-04-08T10:23:08.999Z</time></trkpt><trkpt lat="39.394450824022975" lon="8.395145764389643"><ele>143.0</ele><time>2026-04-08T10:23:09.999Z</time></trkpt><trkpt lat="39.394654803151774" lon="8.395352629945082"><ele>143.0</ele><time>2026-04-08T10:23:10.999Z</time></trkpt><trkpt lat="39.3948601046712" lon="8.395555279113394"><ele>147.0</ele><time>2026-04-08T10:23:11.999Z</time></trkpt><trkpt lat="39.39507231480218" lon="8.39574132362865"><ele>151.0</ele><time>2026-04-08T10:23:12.999Z</time></trkpt><trkpt lat="39.39524888851051" lon="8.395929659646608"><ele>151.0</ele><time>2026-04-08T10:23:13.999Z</time></trkpt><trkpt lat="39.39540455450327" lon="8.396082043853063"><ele>151.0</ele><time>2026-04-08T10:23:14.999Z</time></trkpt><trkpt lat="39.3955444698631" lon="8.396226406511394"><ele>151.0</ele><time>2026-04-08T10:23:15.999Z</time></trkpt><trkpt lat="39.39565173662773" lon="8.396393922319747"><ele>151.0</ele><time>2026-04-08T10:23:16.999Z</time></trkpt><trkpt lat="39.39573433442753" lon="8.396567855890444"><ele>151.0</ele><time>2026-04-08T10:23:17.999Z</time></trkpt><trkpt lat="39.39579989604515" lon="8.396739963833982"><ele>151.0</ele><time>2026-04-08T10:23:18.999Z</time></trkpt><trkpt lat="39.395853970717255" lon="8.396902746665774"><ele>151.0</ele><time>2026-04-08T10:23:19.999Z</time></trkpt><trkpt lat="39.39589386085454" lon="8.397053378634375"><ele>151.8</ele><time>2026-04-08T10:23:20.999Z</time></trkpt><trkpt lat="39.39591447284402" lon="8.397195426583371"><ele>152.6</ele><time>2026-04-08T10:23:21.999Z</time></trkpt><trkpt lat="39.39592279867465" lon="8.397319834582659"><ele>153.4</ele><time>2026-04-08T10:23:22.999Z</time></trkpt><trkpt lat="39.3959319190641" lon="8.397421623719758"><ele>154.2</ele><time>2026-04-08T10:23:23.999Z</time></trkpt><trkpt lat="39.3959311150668" lon="8.397550127796638"><ele>155.0</ele><time>2026-04-08T10:23:25.999Z</time></trkpt><trkpt lat="39.39609891035014" lon="8.397556117085653"><ele>155.0</ele><time>2026-04-08T10:23:29.999Z</time></trkpt><trkpt lat="39.39613177347176" lon="8.39746349353392"><ele>155.0</ele><time>2026-04-08T10:25:30.999Z</time></trkpt><trkpt lat="39.396048650834715" lon="8.397428270686728"><ele>155.0</ele><time>2026-04-08T10:25:33.999Z</time></trkpt><trkpt lat="39.395966153367205" lon="8.397442013731558"><ele>155.0</ele><time>2026-04-08T10:25:37.998Z</time></trkpt><trkpt lat="39.39592102161232" lon="8.397519189479244"><ele>155.0</ele><time>2026-04-08T10:25:41.998Z</time></trkpt><trkpt lat="39.395920194596584" lon="8.397608704356662"><ele>155.0</ele><time>2026-04-08T10:25:44.998Z</time></trkpt><trkpt lat="39.39591409855838" lon="8.3977136388366"><ele>155.0</ele><time>2026-04-08T10:25:48.998Z</time></trkpt><trkpt lat="39.39589664232734" lon="8.397850506365561"><ele>155.0</ele><time>2026-04-08T10:25:51.998Z</time></trkpt><trkpt lat="39.39587675423596" lon="8.397997495085022"><ele>155.0</ele><time>2026-04-08T10:25:53.998Z</time></trkpt><trkpt lat="39.39585577580967" lon="8.398084967082589"><ele>155.0</ele><time>2026-04-08T10:25:54.998Z</time></trkpt><trkpt lat="39.39582998985096" lon="8.398176084528252"><ele>155.0</ele><time>2026-04-08T10:25:55.998Z</time></trkpt><trkpt lat="39.39578080157808" lon="8.39834236039382"><ele>153.66666666666666</ele><time>2026-04-08T10:25:56.998Z</time></trkpt><trkpt lat="39.395732977364666" lon="8.39848042199988"><ele>152.33333333333334</ele><time>2026-04-08T10:25:57.998Z</time></trkpt><trkpt lat="39.39566310351174" lon="8.39866096038123"><ele>151.0</ele><time>2026-04-08T10:25:58.998Z</time></trkpt><trkpt lat="39.39556608935282" lon="8.398854715092295"><ele>157.0</ele><time>2026-04-08T10:25:59.998Z</time></trkpt><trkpt lat="39.39544571308666" lon="8.399050984472643"><ele>163.0</ele><time>2026-04-08T10:26:00.998Z</time></trkpt><trkpt lat="39.39531968819963" lon="8.399219696574093"><ele>169.0</ele><time>2026-04-08T10:26:01.998Z</time></trkpt><trkpt lat="39.39514235055206" lon="8.399417732029596"><ele>169.0</ele><time>2026-04-08T10:26:02.998Z</time></trkpt><trkpt lat="39.394945328468424" lon="8.399625048622937"><ele>169.0</ele><time>2026-04-08T10:26:03.998Z</time></trkpt><trkpt lat="39.394745908112114" lon="8.399840026348183"><ele>173.5</ele><time>2026-04-08T10:26:04.998Z</time></trkpt><trkpt lat="39.39454930665011" lon="8.400064512178123"><ele>178.0</ele><time>2026-04-08T10:26:05.998Z</time></trkpt><trkpt lat="39.39438461638852" lon="8.400282350805922"><ele>178.0</ele><time>2026-04-08T10:26:06.998Z</time></trkpt><trkpt lat="39.394221105683194" lon="8.400472496860505"><ele>178.0</ele><time>2026-04-08T10:26:07.998Z</time></trkpt><trkpt lat="39.39407516933633" lon="8.400640795686561"><ele>178.0</ele><time>2026-04-08T10:26:08.998Z</time></trkpt><trkpt lat="39.393942311132925" lon="8.400796821159327"><ele>177.0</ele><time>2026-04-08T10:26:09.998Z</time></trkpt><trkpt lat="39.39380603473505" lon="8.400925989589846"><ele>176.0</ele><time>2026-04-08T10:26:10.998Z</time></trkpt><trkpt lat="39.39367285960378" lon="8.401045160492497"><ele>175.0</ele><time>2026-04-08T10:26:11.998Z</time></trkpt><trkpt lat="39.39354226911583" lon="8.401155785129067"><ele>175.0</ele><time>2026-04-08T10:26:12.998Z</time></trkpt><trkpt lat="39.39341650367029" lon="8.40124711469872"><ele>175.0</ele><time>2026-04-08T10:26:13.997Z</time></trkpt><trkpt lat="39.39328823332787" lon="8.401322660274008"><ele>175.0</ele><time>2026-04-08T10:26:15Z</time></trkpt><trkpt lat="39.3931420328357" lon="8.401324203926276"><ele>175.0</ele><time>2026-04-08T10:26:16Z</time></trkpt><trkpt lat="39.392977598115465" lon="8.401371433543838"><ele>170.33333333333334</ele><time>2026-04-08T10:26:17Z</time></trkpt><trkpt lat="39.39283687262517" lon="8.401421591606416"><ele>165.66666666666666</ele><time>2026-04-08T10:26:18Z</time></trkpt><trkpt lat="39.392709640633655" lon="8.401521928034553"><ele>161.0</ele><time>2026-04-08T10:26:19Z</time></trkpt><trkpt lat="39.39258167651278" lon="8.40165974803972"><ele>161.0</ele><time>2026-04-08T10:26:20Z</time></trkpt><trkpt lat="39.3924587681239" lon="8.401817852334032"><ele>161.0</ele><time>2026-04-08T10:26:21Z</time></trkpt><trkpt lat="39.392334004593806" lon="8.401970696086462"><ele>161.0</ele><time>2026-04-08T10:26:22Z</time></trkpt><trkpt lat="39.39218095706178" lon="8.402092180791735"><ele>158.66666666666666</ele><time>2026-04-08T10:26:23Z</time></trkpt><trkpt lat="39.39201954345469" lon="8.402201982842199"><ele>156.33333333333334</ele><time>2026-04-08T10:26:24Z</time></trkpt><trkpt lat="39.39185788262935" lon="8.40229707323292"><ele>154.0</ele><time>2026-04-08T10:26:25Z</time></trkpt><trkpt lat="39.39171769084799" lon="8.402397392433725"><ele>154.0</ele><time>2026-04-08T10:26:26Z</time></trkpt><trkpt lat="39.39159052989198" lon="8.402510160544677"><ele>154.0</ele><time>2026-04-08T10:26:27Z</time></trkpt><trkpt lat="39.391482980045176" lon="8.40268436319922"><ele>154.0</ele><time>2026-04-08T10:26:28Z</time></trkpt><trkpt lat="39.39139382819142" lon="8.402888349373605"><ele>155.25</ele><time>2026-04-08T10:26:29Z</time></trkpt><trkpt lat="39.391330332712066" lon="8.403068323615306"><ele>156.5</ele><time>2026-04-08T10:26:30Z</time></trkpt><trkpt lat="39.39123018258836" lon="8.40320350301177"><ele>157.75</ele><time>2026-04-08T10:26:31Z</time></trkpt><trkpt lat="39.39114329239655" lon="8.403298199138565"><ele>159.0</ele><time>2026-04-08T10:26:32Z</time></trkpt><trkpt lat="39.39103884308913" lon="8.403369750203689"><ele>159.0</ele><time>2026-04-08T10:26:33Z</time></trkpt><trkpt lat="39.39089177935932" lon="8.4034414504304"><ele>159.0</ele><time>2026-04-08T10:26:34Z</time></trkpt><trkpt lat="39.390721276786174" lon="8.403517267134752"><ele>159.0</ele><time>2026-04-08T10:26:35Z</time></trkpt><trkpt lat="39.390539664059624" lon="8.403620172034103"><ele>156.33333333333334</ele><time>2026-04-08T10:26:36Z</time></trkpt><trkpt lat="39.39036897559989" lon="8.403727422596173"><ele>153.66666666666669</ele><time>2026-04-08T10:26:37Z</time></trkpt><trkpt lat="39.39021704213824" lon="8.403862109032808"><ele>151.0</ele><time>2026-04-08T10:26:38Z</time></trkpt><trkpt lat="39.39007333667997" lon="8.404002966022896"><ele>151.0</ele><time>2026-04-08T10:26:39Z</time></trkpt><trkpt lat="39.38990559865912" lon="8.404112479909577"><ele>151.0</ele><time>2026-04-08T10:26:40Z</time></trkpt><trkpt lat="39.38975530436871" lon="8.404204221276512"><ele>151.0</ele><time>2026-04-08T10:26:41Z</time></trkpt><trkpt lat="39.389617254172464" lon="8.40429932411934"><ele>158.0</ele><time>2026-04-08T10:26:42Z</time></trkpt><trkpt lat="39.38947455524977" lon="8.404381606305009"><ele>165.0</ele><time>2026-04-08T10:26:43Z</time></trkpt><trkpt lat="39.389330463399546" lon="8.404470936668888"><ele>172.0</ele><time>2026-04-08T10:26:44Z</time></trkpt><trkpt lat="39.38917800953642" lon="8.404544130984752"><ele>172.0</ele><time>2026-04-08T10:26:45Z</time></trkpt><trkpt lat="39.38901277661998" lon="8.404591216020792"><ele>172.0</ele><time>2026-04-08T10:26:46Z</time></trkpt><trkpt lat="39.38883021718227" lon="8.404622269972407"><ele>172.0</ele><time>2026-04-08T10:26:47Z</time></trkpt><trkpt lat="39.38863873472636" lon="8.404644216350686"><ele>174.33333333333334</ele><time>2026-04-08T10:26:48Z</time></trkpt><trkpt lat="39.388443796107474" lon="8.40466107863178"><ele>176.66666666666666</ele><time>2026-04-08T10:26:49Z</time></trkpt><trkpt lat="39.388246929321426" lon="8.40467251169626"><ele>179.0</ele><time>2026-04-08T10:26:50Z</time></trkpt><trkpt lat="39.388049646674574" lon="8.404680141308564"><ele>169.0</ele><time>2026-04-08T10:26:51Z</time></trkpt><trkpt lat="39.387849522088715" lon="8.40470680053396"><ele>159.0</ele><time>2026-04-08T10:26:52Z</time></trkpt><trkpt lat="39.38765711962344" lon="8.40475491161174"><ele>149.0</ele><time>2026-04-08T10:26:53Z</time></trkpt><trkpt lat="39.38747742450085" lon="8.404805687443561"><ele>149.0</ele><time>2026-04-08T10:26:54Z</time></trkpt><trkpt lat="39.38730725938569" lon="8.404858254856174"><ele>149.0</ele><time>2026-04-08T10:26:55Z</time></trkpt><trkpt lat="39.387140538265946" lon="8.404907739330245"><ele>149.0</ele><time>2026-04-08T10:26:56Z</time></trkpt><trkpt lat="39.386984846951655" lon="8.404949297625523"><ele>150.75</ele><time>2026-04-08T10:26:57Z</time></trkpt><trkpt lat="39.38685269514422" lon="8.405004744724122"><ele>152.5</ele><time>2026-04-08T10:26:58Z</time></trkpt><trkpt lat="39.38672877379051" lon="8.405075630637505"><ele>154.25</ele><time>2026-04-08T10:26:59Z</time></trkpt><trkpt lat="39.38660448863162" lon="8.405175464972299"><ele>156.0</ele><time>2026-04-08T10:26:59.999Z</time></trkpt><trkpt lat="39.38646961954982" lon="8.40532387948013"><ele>154.66666666666666</ele><time>2026-04-08T10:27:00.999Z</time></trkpt><trkpt lat="39.386338716762495" lon="8.405495579145125"><ele>153.33333333333331</ele><time>2026-04-08T10:27:01.999Z</time></trkpt><trkpt lat="39.38622870392328" lon="8.40567090225028"><ele>152.0</ele><time>2026-04-08T10:27:02.999Z</time></trkpt><trkpt lat="39.38612162196522" lon="8.405837016527085"><ele>152.0</ele><time>2026-04-08T10:27:03.999Z</time></trkpt><trkpt lat="39.38602306974486" lon="8.40599383742455"><ele>152.0</ele><time>2026-04-08T10:27:04.999Z</time></trkpt><trkpt lat="39.38594119472031" lon="8.406113356619539"><ele>152.0</ele><time>2026-04-08T10:27:05.999Z</time></trkpt><trkpt lat="39.38587423789187" lon="8.406208340045348"><ele>152.0</ele><time>2026-04-08T10:27:06.999Z</time></trkpt><trkpt lat="39.385819531112375" lon="8.406289426378263"><ele>149.16666666666666</ele><time>2026-04-08T10:27:07.999Z</time></trkpt><trkpt lat="39.38577045716083" lon="8.406370627275436"><ele>146.33333333333331</ele><time>2026-04-08T10:27:08.999Z</time></trkpt><trkpt lat="39.38574142933653" lon="8.406468127558314"><ele>143.5</ele><time>2026-04-08T10:27:09.999Z</time></trkpt><trkpt lat="39.385741647730335" lon="8.406576751605083"><ele>140.66666666666666</ele><time>2026-04-08T10:27:10.999Z</time></trkpt><trkpt lat="39.38576718345711" lon="8.406683209420027"><ele>137.83333333333334</ele><time>2026-04-08T10:27:11.999Z</time></trkpt><trkpt lat="39.385811201898306" lon="8.406771420274065"><ele>135.0</ele><time>2026-04-08T10:27:12.999Z</time></trkpt><trkpt lat="39.38587985006155" lon="8.40684092624382"><ele>135.0</ele><time>2026-04-08T10:27:13.999Z</time></trkpt><trkpt lat="39.38597036533083" lon="8.406880039683141"><ele>135.0</ele><time>2026-04-08T10:27:14.999Z</time></trkpt><trkpt lat="39.3860755741797" lon="8.406882753789423"><ele>135.0</ele><time>2026-04-08T10:27:15.999Z</time></trkpt><trkpt lat="39.38619477098128" lon="8.406843604101157"><ele>135.0</ele><time>2026-04-08T10:27:16.999Z</time></trkpt><trkpt lat="39.386335919936904" lon="8.406774271172473"><ele>130.66666666666666</ele><time>2026-04-08T10:27:17.999Z</time></trkpt><trkpt lat="39.38650845885357" lon="8.406689504585668"><ele>126.33333333333333</ele><time>2026-04-08T10:27:18.999Z</time></trkpt><trkpt lat="39.38669867498857" lon="8.406611746534377"><ele>122.0</ele><time>2026-04-08T10:27:19.999Z</time></trkpt><trkpt lat="39.38687381651578" lon="8.406551551684016"><ele>122.0</ele><time>2026-04-08T10:27:20.999Z</time></trkpt><trkpt lat="39.38703078470744" lon="8.40649575225042"><ele>122.0</ele><time>2026-04-08T10:27:21.999Z</time></trkpt><trkpt lat="39.38717844701036" lon="8.406435010428451"><ele>122.0</ele><time>2026-04-08T10:27:22.999Z</time></trkpt><trkpt lat="39.38733132366327" lon="8.4064075878551"><ele>118.66666666666666</ele><time>2026-04-08T10:27:23.999Z</time></trkpt><trkpt lat="39.387487065611325" lon="8.406398673994495"><ele>115.33333333333334</ele><time>2026-04-08T10:27:24.999Z</time></trkpt><trkpt lat="39.387647794421135" lon="8.406419924582867"><ele>112.0</ele><time>2026-04-08T10:27:25.999Z</time></trkpt><trkpt lat="39.387811080874165" lon="8.40645078209233"><ele>112.0</ele><time>2026-04-08T10:27:26.999Z</time></trkpt><trkpt lat="39.387965707379585" lon="8.406466421852238"><ele>112.0</ele><time>2026-04-08T10:27:27.999Z</time></trkpt><trkpt lat="39.3880975193244" lon="8.406499560853398"><ele>112.0</ele><time>2026-04-08T10:27:28.999Z</time></trkpt><trkpt lat="39.38822895278826" lon="8.406509704011356"><ele>112.0</ele><time>2026-04-08T10:27:29.999Z</time></trkpt><trkpt lat="39.388362358185454" lon="8.40647737255687"><ele>111.5</ele><time>2026-04-08T10:27:30.999Z</time></trkpt><trkpt lat="39.38848897712056" lon="8.40640630261"><ele>111.0</ele><time>2026-04-08T10:27:31.999Z</time></trkpt><trkpt lat="39.38860680924914" lon="8.406321877488217"><ele>110.5</ele><time>2026-04-08T10:27:32.999Z</time></trkpt><trkpt lat="39.38872822684516" lon="8.406225275189314"><ele>110.0</ele><time>2026-04-08T10:27:33.999Z</time></trkpt><trkpt lat="39.38885868692142" lon="8.406133830727402"><ele>108.5</ele><time>2026-04-08T10:27:34.999Z</time></trkpt><trkpt lat="39.38899985277696" lon="8.406065126246991"><ele>107.0</ele><time>2026-04-08T10:27:35.999Z</time></trkpt><trkpt lat="39.3891436155172" lon="8.40602304008362"><ele>105.5</ele><time>2026-04-08T10:27:36.999Z</time></trkpt><trkpt lat="39.389286586024156" lon="8.405992340787638"><ele>104.0</ele><time>2026-04-08T10:27:37.999Z</time></trkpt><trkpt lat="39.38942166460141" lon="8.405963736702919"><ele>104.0</ele><time>2026-04-08T10:27:38.998Z</time></trkpt><trkpt lat="39.38953797071179" lon="8.405940398505631"><ele>104.0</ele><time>2026-04-08T10:27:39.998Z</time></trkpt><trkpt lat="39.38964550494695" lon="8.405954576763685"><ele>104.0</ele><time>2026-04-08T10:27:40.998Z</time></trkpt><trkpt lat="39.38975248242966" lon="8.405957301473425"><ele>104.0</ele><time>2026-04-08T10:27:41.998Z</time></trkpt><trkpt lat="39.38985187132055" lon="8.406016228650634"><ele>104.0</ele><time>2026-04-08T10:27:42.998Z</time></trkpt><trkpt lat="39.38993340313537" lon="8.406071798194311"><ele>101.0</ele><time>2026-04-08T10:27:43.998Z</time></trkpt><trkpt lat="39.39001583325174" lon="8.406088447086672"><ele>98.0</ele><time>2026-04-08T10:27:44.998Z</time></trkpt><trkpt lat="39.39010251598755" lon="8.406054713549537"><ele>95.0</ele><time>2026-04-08T10:27:45.998Z</time></trkpt><trkpt lat="39.390183705674076" lon="8.406003182292565"><ele>92.0</ele><time>2026-04-08T10:27:46.998Z</time></trkpt><trkpt lat="39.39026498022604" lon="8.405943261509218"><ele>89.0</ele><time>2026-04-08T10:27:47.998Z</time></trkpt><trkpt lat="39.390342933998134" lon="8.405871093627182"><ele>89.0</ele><time>2026-04-08T10:27:48.998Z</time></trkpt><trkpt lat="39.39043068548388" lon="8.405799370944143"><ele>89.0</ele><time>2026-04-08T10:27:49.998Z</time></trkpt><trkpt lat="39.3905291939825" lon="8.405724488229422"><ele>89.0</ele><time>2026-04-08T10:27:50.998Z</time></trkpt><trkpt lat="39.390632555935845" lon="8.405638601677085"><ele>89.0</ele><time>2026-04-08T10:27:51.998Z</time></trkpt><trkpt lat="39.390739200243736" lon="8.40555652577594"><ele>87.75</ele><time>2026-04-08T10:27:52.998Z</time></trkpt><trkpt lat="39.39084711150405" lon="8.405472659850018"><ele>86.5</ele><time>2026-04-08T10:27:53.998Z</time></trkpt><trkpt lat="39.39095789005591" lon="8.40538378078502"><ele>85.25</ele><time>2026-04-08T10:27:54.998Z</time></trkpt><trkpt lat="39.39106798596395" lon="8.405298270767334"><ele>84.0</ele><time>2026-04-08T10:27:55.998Z</time></trkpt><trkpt lat="39.39118388621938" lon="8.405225781996805"><ele>84.0</ele><time>2026-04-08T10:27:56.998Z</time></trkpt><trkpt lat="39.3912993888017" lon="8.40518291157224"><ele>84.0</ele><time>2026-04-08T10:27:57.998Z</time></trkpt><trkpt lat="39.391418184619425" lon="8.405169407115318"><ele>84.0</ele><time>2026-04-08T10:27:58.998Z</time></trkpt><trkpt lat="39.39152662673011" lon="8.405177371870698"><ele>84.0</ele><time>2026-04-08T10:27:59.998Z</time></trkpt><trkpt lat="39.39163377998967" lon="8.405200879425564"><ele>80.60000000000001</ele><time>2026-04-08T10:28:00.998Z</time></trkpt><trkpt lat="39.3917319518196" lon="8.405229813664212"><ele>77.2</ele><time>2026-04-08T10:28:01.998Z</time></trkpt><trkpt lat="39.3918183327321" lon="8.405247479352383"><ele>73.80000000000001</ele><time>2026-04-08T10:28:02.998Z</time></trkpt><trkpt lat="39.3919101882164" lon="8.405228635804674"><ele>70.4</ele><time>2026-04-08T10:28:03.998Z</time></trkpt><trkpt lat="39.39201914498181" lon="8.405188450963502"><ele>67.0</ele><time>2026-04-08T10:28:04.998Z</time></trkpt><trkpt lat="39.392133504403986" lon="8.405133145218185"><ele>66.75</ele><time>2026-04-08T10:28:05.998Z</time></trkpt><trkpt lat="39.39225761875899" lon="8.405056638784819"><ele>66.5</ele><time>2026-04-08T10:28:06.998Z</time></trkpt><trkpt lat="39.39238460233374" lon="8.40498521632815"><ele>66.25</ele><time>2026-04-08T10:28:07.998Z</time></trkpt><trkpt lat="39.392509781865726" lon="8.404931443545955"><ele>66.0</ele><time>2026-04-08T10:28:08.998Z</time></trkpt><trkpt lat="39.392630532125956" lon="8.404902357701951"><ele>66.0</ele><time>2026-04-08T10:28:09.998Z</time></trkpt><trkpt lat="39.39275977272674" lon="8.404846158220185"><ele>66.0</ele><time>2026-04-08T10:28:10.998Z</time></trkpt><trkpt lat="39.39290446705653" lon="8.404784429238575"><ele>66.0</ele><time>2026-04-08T10:28:11.998Z</time></trkpt><trkpt lat="39.39306016799722" lon="8.40471693527303"><ele>62.33333333333333</ele><time>2026-04-08T10:28:12.998Z</time></trkpt><trkpt lat="39.39324193715814" lon="8.404627224806513"><ele>58.666666666666664</ele><time>2026-04-08T10:28:13.998Z</time></trkpt><trkpt lat="39.39340839377652" lon="8.404487349514788"><ele>55.0</ele><time>2026-04-08T10:28:14.998Z</time></trkpt><trkpt lat="39.393560384857025" lon="8.404363312787867"><ele>55.0</ele><time>2026-04-08T10:28:15.998Z</time></trkpt><trkpt lat="39.393688210383786" lon="8.404234258111385"><ele>55.0</ele><time>2026-04-08T10:28:16.998Z</time></trkpt><trkpt lat="39.39380500090481" lon="8.40410016338713"><ele>55.0</ele><time>2026-04-08T10:28:17.998Z</time></trkpt><trkpt lat="39.393930718319424" lon="8.403978226505728"><ele>57.5</ele><time>2026-04-08T10:28:18.997Z</time></trkpt><trkpt lat="39.39407413959007" lon="8.403924830089698"><ele>60.0</ele><time>2026-04-08T10:28:20Z</time></trkpt><trkpt lat="39.394207401627654" lon="8.403905048956421"><ele>62.5</ele><time>2026-04-08T10:28:21Z</time></trkpt><trkpt lat="39.39433543494819" lon="8.403902883117754"><ele>65.0</ele><time>2026-04-08T10:28:22Z</time></trkpt><trkpt lat="39.39446151107315" lon="8.403949852335359"><ele>65.0</ele><time>2026-04-08T10:28:23Z</time></trkpt><trkpt lat="39.39458294327498" lon="8.404009118382529"><ele>65.0</ele><time>2026-04-08T10:28:24Z</time></trkpt><trkpt lat="39.39470944115252" lon="8.404062768257598"><ele>65.0</ele><time>2026-04-08T10:28:25Z</time></trkpt><trkpt lat="39.394845498886475" lon="8.404116984252537"><ele>65.0</ele><time>2026-04-08T10:28:26Z</time></trkpt><trkpt lat="39.394993700172165" lon="8.404140525940116"><ele>67.25</ele><time>2026-04-08T10:28:27Z</time></trkpt><trkpt lat="39.395136960137584" lon="8.404132205862492"><ele>69.5</ele><time>2026-04-08T10:28:28Z</time></trkpt><trkpt lat="39.39527174755558" lon="8.404093964043868"><ele>71.75</ele><time>2026-04-08T10:28:29Z</time></trkpt><trkpt lat="39.395409658229404" lon="8.404023241078864"><ele>74.0</ele><time>2026-04-08T10:28:30Z</time></trkpt><trkpt lat="39.39554387625912" lon="8.40392758670287"><ele>72.33333333333334</ele><time>2026-04-08T10:28:31Z</time></trkpt><trkpt lat="39.3956761561899" lon="8.403807304279066"><ele>70.66666666666667</ele><time>2026-04-08T10:28:32Z</time></trkpt><trkpt lat="39.39581881407972" lon="8.40369435894031"><ele>69.0</ele><time>2026-04-08T10:28:33Z</time></trkpt><trkpt lat="39.39596927737547" lon="8.403593934706238"><ele>69.0</ele><time>2026-04-08T10:28:34Z</time></trkpt><trkpt lat="39.396125723900894" lon="8.40351840081214"><ele>69.0</ele><time>2026-04-08T10:28:35Z</time></trkpt><trkpt lat="39.396283579543734" lon="8.403479533881812"><ele>69.0</ele><time>2026-04-08T10:28:36Z</time></trkpt><trkpt lat="39.396443769444325" lon="8.403465932560012"><ele>70.33333333333333</ele><time>2026-04-08T10:28:37Z</time></trkpt><trkpt lat="39.39660650125049" lon="8.403473102838326"><ele>71.66666666666666</ele><time>2026-04-08T10:28:38Z</time></trkpt><trkpt lat="39.396776661906095" lon="8.403473519770616"><ele>73.0</ele><time>2026-04-08T10:28:39Z</time></trkpt><trkpt lat="39.396950875299375" lon="8.403473681543446"><ele>73.0</ele><time>2026-04-08T10:28:40Z</time></trkpt><trkpt lat="39.39713108060955" lon="8.403457343642458"><ele>73.0</ele><time>2026-04-08T10:28:41Z</time></trkpt><trkpt lat="39.39731447582603" lon="8.40340840999085"><ele>73.0</ele><time>2026-04-08T10:28:42Z</time></trkpt><trkpt lat="39.39749755860066" lon="8.403341252072435"><ele>72.0</ele><time>2026-04-08T10:28:43Z</time></trkpt><trkpt lat="39.39768119072831" lon="8.403273025395524"><ele>71.0</ele><time>2026-04-08T10:28:44Z</time></trkpt><trkpt lat="39.39786425117239" lon="8.403211125717776"><ele>70.0</ele><time>2026-04-08T10:28:45Z</time></trkpt><trkpt lat="39.39804192170186" lon="8.403164495241187"><ele>70.0</ele><time>2026-04-08T10:28:46Z</time></trkpt><trkpt lat="39.398209177715685" lon="8.40312807951488"><ele>70.0</ele><time>2026-04-08T10:28:47Z</time></trkpt><trkpt lat="39.39836761572091" lon="8.403082703142193"><ele>70.0</ele><time>2026-04-08T10:28:48Z</time></trkpt><trkpt lat="39.39852544376854" lon="8.403014888548748"><ele>64.66666666666666</ele><time>2026-04-08T10:28:49Z</time></trkpt><trkpt lat="39.398675423707125" lon="8.40293830039958"><ele>59.33333333333333</ele><time>2026-04-08T10:28:50Z</time></trkpt><trkpt lat="39.398814897909695" lon="8.402869362957647"><ele>54.0</ele><time>2026-04-08T10:28:51Z</time></trkpt><trkpt lat="39.39895872263211" lon="8.402809125148671"><ele>54.0</ele><time>2026-04-08T10:28:52Z</time></trkpt><trkpt lat="39.399108792882565" lon="8.402757197436388"><ele>54.0</ele><time>2026-04-08T10:28:53Z</time></trkpt><trkpt lat="39.39926280945384" lon="8.402712184443649"><ele>54.0</ele><time>2026-04-08T10:28:54Z</time></trkpt><trkpt lat="39.39941024589222" lon="8.40265064257981"><ele>54.0</ele><time>2026-04-08T10:28:55Z</time></trkpt><trkpt lat="39.39955051491262" lon="8.402571621643665"><ele>54.0</ele><time>2026-04-08T10:28:56Z</time></trkpt><trkpt lat="39.399680307144" lon="8.402487459498788"><ele>54.0</ele><time>2026-04-08T10:28:57Z</time></trkpt><trkpt lat="39.39979586283544" lon="8.402406627697113"><ele>54.0</ele><time>2026-04-08T10:28:58Z</time></trkpt><trkpt lat="39.399904409810944" lon="8.402338542968986"><ele>57.0</ele><time>2026-04-08T10:28:59Z</time></trkpt><trkpt lat="39.40002871691648" lon="8.402271797143774"><ele>60.0</ele><time>2026-04-08T10:29:00Z</time></trkpt><trkpt lat="39.400163915582375" lon="8.40220657178297"><ele>63.0</ele><time>2026-04-08T10:29:01Z</time></trkpt><trkpt lat="39.40029832526252" lon="8.402140939925443"><ele>66.0</ele><time>2026-04-08T10:29:02Z</time></trkpt><trkpt lat="39.40042550359047" lon="8.402100692660738"><ele>64.5</ele><time>2026-04-08T10:29:03Z</time></trkpt><trkpt lat="39.40053807565688" lon="8.402096241665431"><ele>63.0</ele><time>2026-04-08T10:29:03.999Z</time></trkpt><trkpt lat="39.400641881657236" lon="8.40215214785738"><ele>61.5</ele><time>2026-04-08T10:29:04.999Z</time></trkpt><trkpt lat="39.400754568676426" lon="8.402248870022047"><ele>60.0</ele><time>2026-04-08T10:29:05.999Z</time></trkpt><trkpt lat="39.400871011444785" lon="8.402372959847801"><ele>60.0</ele><time>2026-04-08T10:29:06.999Z</time></trkpt><trkpt lat="39.40096996604697" lon="8.402488659584797"><ele>60.0</ele><time>2026-04-08T10:29:07.999Z</time></trkpt><trkpt lat="39.4010754671579" lon="8.402567792024268"><ele>60.0</ele><time>2026-04-08T10:29:08.999Z</time></trkpt><trkpt lat="39.40120638066581" lon="8.402624560390871"><ele>60.0</ele><time>2026-04-08T10:29:09.999Z</time></trkpt><trkpt lat="39.401356901730004" lon="8.402640831108629"><ele>53.666666666666664</ele><time>2026-04-08T10:29:10.999Z</time></trkpt><trkpt lat="39.401535723326106" lon="8.402652708034843"><ele>47.33333333333333</ele><time>2026-04-08T10:29:11.999Z</time></trkpt><trkpt lat="39.401708375789646" lon="8.402690510110025"><ele>41.0</ele><time>2026-04-08T10:29:12.999Z</time></trkpt><trkpt lat="39.401876349337535" lon="8.402728299453768"><ele>41.0</ele><time>2026-04-08T10:29:13.999Z</time></trkpt><trkpt lat="39.40202991593702" lon="8.402757450060678"><ele>41.0</ele><time>2026-04-08T10:29:14.999Z</time></trkpt><trkpt lat="39.4021686756528" lon="8.402782838730138"><ele>41.0</ele><time>2026-04-08T10:29:15.999Z</time></trkpt><trkpt lat="39.40228676425122" lon="8.402805675609967"><ele>41.0</ele><time>2026-04-08T10:29:16.999Z</time></trkpt><trkpt lat="39.40239617379295" lon="8.402823633843834"><ele>38.199999999999996</ele><time>2026-04-08T10:29:17.999Z</time></trkpt><trkpt lat="39.402498568773346" lon="8.402857160762231"><ele>35.4</ele><time>2026-04-08T10:29:18.999Z</time></trkpt><trkpt lat="39.40258396168829" lon="8.402919620876897"><ele>32.6</ele><time>2026-04-08T10:29:19.999Z</time></trkpt><trkpt lat="39.40266709494814" lon="8.40301422154534"><ele>29.8</ele><time>2026-04-08T10:29:20.999Z</time></trkpt><trkpt lat="39.40274503630733" lon="8.40313638219276"><ele>27.0</ele><time>2026-04-08T10:29:21.999Z</time></trkpt><trkpt lat="39.40279245134058" lon="8.403255470288032"><ele>36.0</ele><time>2026-04-08T10:29:22.999Z</time></trkpt><trkpt lat="39.40281488375925" lon="8.403392374671208"><ele>45.0</ele><time>2026-04-08T10:29:23.999Z</time></trkpt><trkpt lat="39.402857381344994" lon="8.403538844254024"><ele>54.0</ele><time>2026-04-08T10:29:24.999Z</time></trkpt><trkpt lat="39.40292160196614" lon="8.403681066092208"><ele>63.0</ele><time>2026-04-08T10:29:25.999Z</time></trkpt><trkpt lat="39.402990295580885" lon="8.403813466516262"><ele>63.0</ele><time>2026-04-08T10:29:26.999Z</time></trkpt><trkpt lat="39.403056608983434" lon="8.403938578835612"><ele>63.0</ele><time>2026-04-08T10:29:27.999Z</time></trkpt><trkpt lat="39.40313795711792" lon="8.404038544299818"><ele>63.0</ele><time>2026-04-08T10:29:28.999Z</time></trkpt><trkpt lat="39.403238518612696" lon="8.404118055506753"><ele>63.0</ele><time>2026-04-08T10:29:29.999Z</time></trkpt><trkpt lat="39.40333541899499" lon="8.404170886461898"><ele>63.0</ele><time>2026-04-08T10:29:30.999Z</time></trkpt><trkpt lat="39.40346162503097" lon="8.404213070655572"><ele>63.0</ele><time>2026-04-08T10:29:31.999Z</time></trkpt><trkpt lat="39.40360602825748" lon="8.404278072841734"><ele>63.0</ele><time>2026-04-08T10:29:32.999Z</time></trkpt><trkpt lat="39.40377290319179" lon="8.404382571198559"><ele>59.66666666666667</ele><time>2026-04-08T10:29:33.999Z</time></trkpt><trkpt lat="39.40396220471346" lon="8.40450018417717"><ele>56.333333333333336</ele><time>2026-04-08T10:29:34.999Z</time></trkpt><trkpt lat="39.40417373170232" lon="8.404602806684284"><ele>53.0</ele><time>2026-04-08T10:29:35.999Z</time></trkpt><trkpt lat="39.40438785765009" lon="8.404690162956873"><ele>60.0</ele><time>2026-04-08T10:29:36.999Z</time></trkpt><trkpt lat="39.40456684198258" lon="8.404772392930058"><ele>67.0</ele><time>2026-04-08T10:29:37.999Z</time></trkpt><trkpt lat="39.404753568394526" lon="8.40485073053903"><ele>74.0</ele><time>2026-04-08T10:29:38.999Z</time></trkpt><trkpt lat="39.40494882978149" lon="8.404887057867551"><ele>74.0</ele><time>2026-04-08T10:29:39.999Z</time></trkpt><trkpt lat="39.40515602730239" lon="8.404879266855124"><ele>74.0</ele><time>2026-04-08T10:29:40.999Z</time></trkpt><trkpt lat="39.40537086656359" lon="8.404860565258444"><ele>74.0</ele><time>2026-04-08T10:29:41.999Z</time></trkpt><trkpt lat="39.40557517698102" lon="8.404849118542161"><ele>76.25</ele><time>2026-04-08T10:29:42.999Z</time></trkpt><trkpt lat="39.40575008032075" lon="8.404837283703413"><ele>78.5</ele><time>2026-04-08T10:29:43.998Z</time></trkpt><trkpt lat="39.40590008001589" lon="8.4048010472711"><ele>80.75</ele><time>2026-04-08T10:29:44.998Z</time></trkpt><trkpt lat="39.40601439473973" lon="8.404751159871171"><ele>83.0</ele><time>2026-04-08T10:29:45.998Z</time></trkpt><trkpt lat="39.406111918485536" lon="8.404703119039379"><ele>83.0</ele><time>2026-04-08T10:29:46.998Z</time></trkpt><trkpt lat="39.406233232543094" lon="8.404700680698937"><ele>83.0</ele><time>2026-04-08T10:29:47.998Z</time></trkpt><trkpt lat="39.406382648923255" lon="8.404743897717065"><ele>83.0</ele><time>2026-04-08T10:29:48.998Z</time></trkpt><trkpt lat="39.40655116046714" lon="8.404826664524268"><ele>79.0</ele><time>2026-04-08T10:29:49.998Z</time></trkpt><trkpt lat="39.40674515924944" lon="8.404936476826322"><ele>75.0</ele><time>2026-04-08T10:29:50.998Z</time></trkpt><trkpt lat="39.40696376105505" lon="8.405066836858925"><ele>69.5</ele><time>2026-04-08T10:29:51.998Z</time></trkpt><trkpt lat="39.40718525461618" lon="8.405196389605608"><ele>64.0</ele><time>2026-04-08T10:29:52.998Z</time></trkpt><trkpt lat="39.407381732521905" lon="8.405306823959604"><ele>64.0</ele><time>2026-04-08T10:29:53.998Z</time></trkpt><trkpt lat="39.40757043785664" lon="8.405433355221083"><ele>64.0</ele><time>2026-04-08T10:29:54.998Z</time></trkpt><trkpt lat="39.4077973543199" lon="8.405555676850314"><ele>67.66666666666666</ele><time>2026-04-08T10:29:55.998Z</time></trkpt><trkpt lat="39.407985573185556" lon="8.405666451192163"><ele>71.33333333333333</ele><time>2026-04-08T10:29:56.998Z</time></trkpt><trkpt lat="39.40816100018196" lon="8.405762694120499"><ele>75.0</ele><time>2026-04-08T10:29:57.998Z</time></trkpt><trkpt lat="39.408323293649836" lon="8.40585488420834"><ele>75.0</ele><time>2026-04-08T10:29:58.998Z</time></trkpt><trkpt lat="39.408473088416805" lon="8.405944459924957"><ele>75.0</ele><time>2026-04-08T10:29:59.998Z</time></trkpt><trkpt lat="39.40862293318598" lon="8.406037495752924"><ele>75.0</ele><time>2026-04-08T10:30:00.998Z</time></trkpt><trkpt lat="39.40878620899858" lon="8.406114230569699"><ele>72.33333333333333</ele><time>2026-04-08T10:30:01.998Z</time></trkpt><trkpt lat="39.40896673704896" lon="8.406155671005251"><ele>69.66666666666666</ele><time>2026-04-08T10:30:02.998Z</time></trkpt><trkpt lat="39.40916670994418" lon="8.406160925134612"><ele>67.0</ele><time>2026-04-08T10:30:03.998Z</time></trkpt><trkpt lat="39.40937783736262" lon="8.406148642409734"><ele>67.0</ele><time>2026-04-08T10:30:04.998Z</time></trkpt><trkpt lat="39.40959683864082" lon="8.406138099107835"><ele>67.0</ele><time>2026-04-08T10:30:05.998Z</time></trkpt><trkpt lat="39.40981378000172" lon="8.406138153136089"><ele>67.0</ele><time>2026-04-08T10:30:06.998Z</time></trkpt><trkpt lat="39.41000887279626" lon="8.406144199700591"><ele>67.33333333333333</ele><time>2026-04-08T10:30:07.998Z</time></trkpt><trkpt lat="39.410184955486" lon="8.406143215703036"><ele>67.66666666666667</ele><time>2026-04-08T10:30:08.998Z</time></trkpt><trkpt lat="39.410354400147064" lon="8.40613254207816"><ele>68.0</ele><time>2026-04-08T10:30:09.998Z</time></trkpt><trkpt lat="39.41051092517797" lon="8.406131625808264"><ele>66.66666666666667</ele><time>2026-04-08T10:30:10.998Z</time></trkpt><trkpt lat="39.41065387705503" lon="8.406193176572389"><ele>65.33333333333333</ele><time>2026-04-08T10:30:11.998Z</time></trkpt><trkpt lat="39.410797414847686" lon="8.406267092014632"><ele>64.0</ele><time>2026-04-08T10:30:12.998Z</time></trkpt><trkpt lat="39.41095555634343" lon="8.406334756473058"><ele>63.33333333333333</ele><time>2026-04-08T10:30:13.998Z</time></trkpt><trkpt lat="39.41110194308966" lon="8.40642030855649"><ele>62.66666666666667</ele><time>2026-04-08T10:30:14.998Z</time></trkpt><trkpt lat="39.411250210942235" lon="8.406505877071973"><ele>62.0</ele><time>2026-04-08T10:30:15.998Z</time></trkpt><trkpt lat="39.411391475227745" lon="8.40658229868092"><ele>62.0</ele><time>2026-04-08T10:30:16.998Z</time></trkpt><trkpt lat="39.411539680162946" lon="8.406655852888836"><ele>62.0</ele><time>2026-04-08T10:30:17.998Z</time></trkpt><trkpt lat="39.411672028453644" lon="8.406730636138718"><ele>62.0</ele><time>2026-04-08T10:30:18.998Z</time></trkpt><trkpt lat="39.411794172587875" lon="8.406799119183248"><ele>62.0</ele><time>2026-04-08T10:30:19.998Z</time></trkpt><trkpt lat="39.41190602615898" lon="8.40687011024859"><ele>62.0</ele><time>2026-04-08T10:30:20.998Z</time></trkpt><trkpt lat="39.41200422860775" lon="8.406970586604825"><ele>62.0</ele><time>2026-04-08T10:30:21.998Z</time></trkpt><trkpt lat="39.41208059978039" lon="8.407080607603364"><ele>62.0</ele><time>2026-04-08T10:30:22.998Z</time></trkpt><trkpt lat="39.412141859761014" lon="8.407178964130535"><ele>62.0</ele><time>2026-04-08T10:30:23.997Z</time></trkpt><trkpt lat="39.41220147637401" lon="8.407273692557565"><ele>62.0</ele><time>2026-04-08T10:30:25Z</time></trkpt><trkpt lat="39.412262072088495" lon="8.40736277583322"><ele>61.0</ele><time>2026-04-08T10:30:26Z</time></trkpt><trkpt lat="39.412324852624955" lon="8.407447945454052"><ele>60.0</ele><time>2026-04-08T10:30:27Z</time></trkpt><trkpt lat="39.41239093444216" lon="8.40753325618924"><ele>59.0</ele><time>2026-04-08T10:30:28Z</time></trkpt><trkpt lat="39.41245919764822" lon="8.40762975129542"><ele>58.0</ele><time>2026-04-08T10:30:29Z</time></trkpt><trkpt lat="39.4125337524251" lon="8.407744293456831"><ele>57.0</ele><time>2026-04-08T10:30:30Z</time></trkpt><trkpt lat="39.412612454668235" lon="8.407868145523405"><ele>58.25</ele><time>2026-04-08T10:30:31Z</time></trkpt><trkpt lat="39.41268750042278" lon="8.40799731425952"><ele>59.5</ele><time>2026-04-08T10:30:32Z</time></trkpt><trkpt lat="39.41274840388175" lon="8.408140429243764"><ele>60.75</ele><time>2026-04-08T10:30:33Z</time></trkpt><trkpt lat="39.41279021781361" lon="8.40831423709005"><ele>62.0</ele><time>2026-04-08T10:30:34Z</time></trkpt><trkpt lat="39.412818304812895" lon="8.408536094144797"><ele>62.0</ele><time>2026-04-08T10:30:35Z</time></trkpt><trkpt lat="39.41283778213392" lon="8.40880182165666"><ele>62.0</ele><time>2026-04-08T10:30:36Z</time></trkpt><trkpt lat="39.412851590939766" lon="8.409036883686957"><ele>62.0</ele><time>2026-04-08T10:30:37Z</time></trkpt><trkpt lat="39.412865006631556" lon="8.409198863180672"><ele>62.75</ele><time>2026-04-08T10:30:38Z</time></trkpt><trkpt lat="39.41288536482371" lon="8.409331684935113"><ele>63.5</ele><time>2026-04-08T10:30:39Z</time></trkpt><trkpt lat="39.41294294403331" lon="8.409454592853196"><ele>64.25</ele><time>2026-04-08T10:30:40Z</time></trkpt><trkpt lat="39.41304358337444" lon="8.409564299658692"><ele>65.0</ele><time>2026-04-08T10:30:41Z</time></trkpt><trkpt lat="39.41317612898636" lon="8.409638000650439"><ele>63.0</ele><time>2026-04-08T10:30:42Z</time></trkpt><trkpt lat="39.41335329670349" lon="8.409690629518886"><ele>61.0</ele><time>2026-04-08T10:30:43Z</time></trkpt><trkpt lat="39.41353380744495" lon="8.40973672964729"><ele>59.0</ele><time>2026-04-08T10:30:44Z</time></trkpt><trkpt lat="39.41366984545243" lon="8.409796230196614"><ele>59.0</ele><time>2026-04-08T10:30:45Z</time></trkpt><trkpt lat="39.41379429452228" lon="8.409854163189488"><ele>59.0</ele><time>2026-04-08T10:30:46Z</time></trkpt><trkpt lat="39.41392199527034" lon="8.40990687097385"><ele>59.0</ele><time>2026-04-08T10:30:47Z</time></trkpt><trkpt lat="39.414040646199155" lon="8.409977382360813"><ele>59.0</ele><time>2026-04-08T10:30:48Z</time></trkpt><trkpt lat="39.414145373476714" lon="8.410104534489193"><ele>59.0</ele><time>2026-04-08T10:30:49Z</time></trkpt><trkpt lat="39.41420920861223" lon="8.410277080517439"><ele>59.0</ele><time>2026-04-08T10:30:50Z</time></trkpt><trkpt lat="39.41428086014945" lon="8.410420543701074"><ele>59.0</ele><time>2026-04-08T10:30:51Z</time></trkpt><trkpt lat="39.4143247446395" lon="8.410565955704945"><ele>59.0</ele><time>2026-04-08T10:30:52Z</time></trkpt><trkpt lat="39.41438138431902" lon="8.41069089607436"><ele>59.0</ele><time>2026-04-08T10:30:53Z</time></trkpt><trkpt lat="39.41447302511664" lon="8.410789382509344"><ele>59.0</ele><time>2026-04-08T10:30:54Z</time></trkpt><trkpt lat="39.41459701857093" lon="8.410855654602916"><ele>59.0</ele><time>2026-04-08T10:30:55Z</time></trkpt><trkpt lat="39.41474596797228" lon="8.41088417892114"><ele>59.0</ele><time>2026-04-08T10:30:56Z</time></trkpt><trkpt lat="39.41491863352456" lon="8.410886726526812"><ele>54.66666666666667</ele><time>2026-04-08T10:30:57Z</time></trkpt><trkpt lat="39.415118487154714" lon="8.410898085847693"><ele>50.333333333333336</ele><time>2026-04-08T10:30:58Z</time></trkpt><trkpt lat="39.41533830831555" lon="8.410934993648457"><ele>46.0</ele><time>2026-04-08T10:30:59Z</time></trkpt><trkpt lat="39.41553978878593" lon="8.410983680284385"><ele>43.0</ele><time>2026-04-08T10:31:00Z</time></trkpt><trkpt lat="39.41572149254235" lon="8.411030263195443"><ele>40.0</ele><time>2026-04-08T10:31:01Z</time></trkpt><trkpt lat="39.415898349013304" lon="8.411079644767714"><ele>37.0</ele><time>2026-04-08T10:31:02Z</time></trkpt><trkpt lat="39.41608405922788" lon="8.411145475782073"><ele>37.0</ele><time>2026-04-08T10:31:03Z</time></trkpt><trkpt lat="39.41627735047107" lon="8.411216697275936"><ele>37.0</ele><time>2026-04-08T10:31:04Z</time></trkpt><trkpt lat="39.416460443085214" lon="8.411277233571996"><ele>37.0</ele><time>2026-04-08T10:31:05Z</time></trkpt><trkpt lat="39.4166548726004" lon="8.41133978609786"><ele>37.66666666666667</ele><time>2026-04-08T10:31:06Z</time></trkpt><trkpt lat="39.41685914971786" lon="8.411411050286363"><ele>38.333333333333336</ele><time>2026-04-08T10:31:07Z</time></trkpt><trkpt lat="39.41706421590104" lon="8.411490043624761"><ele>39.0</ele><time>2026-04-08T10:31:08Z</time></trkpt><trkpt lat="39.417273921232" lon="8.411572322116564"><ele>34.0</ele><time>2026-04-08T10:31:09Z</time></trkpt><trkpt lat="39.417505118389876" lon="8.411663411968718"><ele>29.0</ele><time>2026-04-08T10:31:10Z</time></trkpt><trkpt lat="39.41774700340443" lon="8.411761586243095"><ele>29.0</ele><time>2026-04-08T10:31:11Z</time></trkpt><trkpt lat="39.41797372467675" lon="8.411847101527368"><ele>29.0</ele><time>2026-04-08T10:31:11.999Z</time></trkpt><trkpt lat="39.418208256178985" lon="8.411909712264015"><ele>23.0</ele><time>2026-04-08T10:31:12.999Z</time></trkpt><trkpt lat="39.418498591296114" lon="8.411993257305424"><ele>17.0</ele><time>2026-04-08T10:31:13.999Z</time></trkpt><trkpt lat="39.41884930199533" lon="8.41207977775788"><ele>14.0</ele><time>2026-04-08T10:31:14.999Z</time></trkpt><trkpt lat="39.41923237670489" lon="8.412159283375797"><ele>11.0</ele><time>2026-04-08T10:31:15.999Z</time></trkpt><trkpt lat="39.41962816008704" lon="8.412270087190695"><ele>9.5</ele><time>2026-04-08T10:31:16.999Z</time></trkpt><trkpt lat="39.420005771299024" lon="8.412364581078634"><ele>8.0</ele><time>2026-04-08T10:31:17.999Z</time></trkpt><trkpt lat="39.420364607587324" lon="8.41244358011532"><ele>9.5</ele><time>2026-04-08T10:31:18.999Z</time></trkpt><trkpt lat="39.42071951145343" lon="8.412515496404232"><ele>11.0</ele><time>2026-04-08T10:31:19.999Z</time></trkpt><trkpt lat="39.421066178280526" lon="8.412574828986772"><ele>12.0</ele><time>2026-04-08T10:31:20.999Z</time></trkpt><trkpt lat="39.42138951439611" lon="8.412620276633618"><ele>13.0</ele><time>2026-04-08T10:31:21.999Z</time></trkpt><trkpt lat="39.42169985658937" lon="8.41264125337802"><ele>13.0</ele><time>2026-04-08T10:31:22.999Z</time></trkpt><trkpt lat="39.42201891827128" lon="8.412660321046719"><ele>13.0</ele><time>2026-04-08T10:31:23.999Z</time></trkpt><trkpt lat="39.42235874932304" lon="8.412705772693073"><ele>12.0</ele><time>2026-04-08T10:31:24.999Z</time></trkpt><trkpt lat="39.42272102398881" lon="8.412759829221324"><ele>11.0</ele><time>2026-04-08T10:31:25.999Z</time></trkpt><trkpt lat="39.42309095044498" lon="8.412816062068774"><ele>9.5</ele><time>2026-04-08T10:31:26.999Z</time></trkpt><trkpt lat="39.42347335707274" lon="8.412888974305751"><ele>8.0</ele><time>2026-04-08T10:31:27.999Z</time></trkpt><trkpt lat="39.42386724339469" lon="8.412964286167071"><ele>8.5</ele><time>2026-04-08T10:31:28.999Z</time></trkpt><trkpt lat="39.4242685096655" lon="8.413027735025231"><ele>9.0</ele><time>2026-04-08T10:31:29.999Z</time></trkpt><trkpt lat="39.42468438299285" lon="8.413080908287464"><ele>9.0</ele><time>2026-04-08T10:31:30.999Z</time></trkpt><trkpt lat="39.42509764524213" lon="8.41313980724305"><ele>9.0</ele><time>2026-04-08T10:31:31.999Z</time></trkpt><trkpt lat="39.42547445676692" lon="8.41319504634967"><ele>8.0</ele><time>2026-04-08T10:31:32.999Z</time></trkpt><trkpt lat="39.425839192649846" lon="8.413244449075286"><ele>7.0</ele><time>2026-04-08T10:31:33.999Z</time></trkpt><trkpt lat="39.42617727755629" lon="8.413277304433501"><ele>7.0</ele><time>2026-04-08T10:31:34.999Z</time></trkpt><trkpt lat="39.42648277719343" lon="8.41329930583618"><ele>7.0</ele><time>2026-04-08T10:31:35.999Z</time></trkpt><trkpt lat="39.42676641571046" lon="8.413315873512799"><ele>7.0</ele><time>2026-04-08T10:31:36.999Z</time></trkpt><trkpt lat="39.42703293648561" lon="8.413323308034991"><ele>7.0</ele><time>2026-04-08T10:31:37.999Z</time></trkpt><trkpt lat="39.42728118860861" lon="8.413324027487286"><ele>8.0</ele><time>2026-04-08T10:31:38.999Z</time></trkpt><trkpt lat="39.42751640937787" lon="8.413320997375811"><ele>9.0</ele><time>2026-04-08T10:31:39.999Z</time></trkpt><trkpt lat="39.4277363674119" lon="8.413321511883495"><ele>9.0</ele><time>2026-04-08T10:31:40.999Z</time></trkpt><trkpt lat="39.427941709506804" lon="8.413324548914652"><ele>9.0</ele><time>2026-04-08T10:31:41.999Z</time></trkpt><trkpt lat="39.428135405145014" lon="8.413327737459271"><ele>9.0</ele><time>2026-04-08T10:31:42.999Z</time></trkpt><trkpt lat="39.428334112704384" lon="8.413329134200612"><ele>9.333333333333334</ele><time>2026-04-08T10:31:43.999Z</time></trkpt><trkpt lat="39.42853926073359" lon="8.413341207481583"><ele>9.666666666666668</ele><time>2026-04-08T10:31:44.999Z</time></trkpt><trkpt lat="39.42874450860244" lon="8.413359390468568"><ele>10.0</ele><time>2026-04-08T10:31:45.999Z</time></trkpt><trkpt lat="39.42895106805675" lon="8.413373624652614"><ele>10.0</ele><time>2026-04-08T10:31:46.999Z</time></trkpt><trkpt lat="39.42916954431529" lon="8.41338903886974"><ele>10.0</ele><time>2026-04-08T10:31:47.999Z</time></trkpt><trkpt lat="39.42939478790387" lon="8.413403740567931"><ele>10.0</ele><time>2026-04-08T10:31:48.999Z</time></trkpt><trkpt lat="39.429623271230525" lon="8.413415383013024"><ele>10.0</ele><time>2026-04-08T10:31:49.999Z</time></trkpt><trkpt lat="39.42985874865938" lon="8.413428665799414"><ele>10.0</ele><time>2026-04-08T10:31:50.999Z</time></trkpt><trkpt lat="39.4301042214564" lon="8.41344748617229"><ele>10.0</ele><time>2026-04-08T10:31:51.998Z</time></trkpt><trkpt lat="39.43035700614938" lon="8.413467725007283"><ele>10.0</ele><time>2026-04-08T10:31:52.998Z</time></trkpt><trkpt lat="39.43061188204513" lon="8.41348782714283"><ele>10.0</ele><time>2026-04-08T10:31:53.998Z</time></trkpt><trkpt lat="39.43086807885269" lon="8.413506563453668"><ele>10.0</ele><time>2026-04-08T10:31:54.998Z</time></trkpt><trkpt lat="39.431125083272164" lon="8.413526535643197"><ele>8.5</ele><time>2026-04-08T10:31:55.998Z</time></trkpt><trkpt lat="39.431381121654255" lon="8.413544664635566"><ele>7.0</ele><time>2026-04-08T10:31:56.998Z</time></trkpt><trkpt lat="39.43164089154535" lon="8.413560516057776"><ele>7.0</ele><time>2026-04-08T10:31:57.998Z</time></trkpt><trkpt lat="39.43189386739787" lon="8.413577174375833"><ele>7.0</ele><time>2026-04-08T10:31:58.998Z</time></trkpt><trkpt lat="39.43214353624017" lon="8.413595415614385"><ele>6.5</ele><time>2026-04-08T10:31:59.998Z</time></trkpt><trkpt lat="39.43239060700753" lon="8.413614489080985"><ele>6.0</ele><time>2026-04-08T10:32:00.998Z</time></trkpt><trkpt lat="39.4326313116305" lon="8.413631318372758"><ele>6.0</ele><time>2026-04-08T10:32:01.998Z</time></trkpt><trkpt lat="39.432874518675455" lon="8.413644101091814"><ele>6.0</ele><time>2026-04-08T10:32:02.998Z</time></trkpt><trkpt lat="39.43311435248552" lon="8.413655327604394"><ele>6.0</ele><time>2026-04-08T10:32:03.998Z</time></trkpt><trkpt lat="39.43335099245197" lon="8.41366834116808"><ele>6.0</ele><time>2026-04-08T10:32:04.998Z</time></trkpt><trkpt lat="39.43358467854016" lon="8.413680094127967"><ele>4.5</ele><time>2026-04-08T10:32:05.998Z</time></trkpt><trkpt lat="39.43382081823477" lon="8.413687141094087"><ele>3.0</ele><time>2026-04-08T10:32:06.998Z</time></trkpt><trkpt lat="39.434055406363534" lon="8.41369375026458"><ele>3.0</ele><time>2026-04-08T10:32:07.998Z</time></trkpt><trkpt lat="39.43428715450199" lon="8.413699196198051"><ele>3.0</ele><time>2026-04-08T10:32:08.998Z</time></trkpt><trkpt lat="39.43452191803217" lon="8.413705643994037"><ele>2.5</ele><time>2026-04-08T10:32:09.998Z</time></trkpt><trkpt lat="39.43475376888724" lon="8.413715993485786"><ele>2.0</ele><time>2026-04-08T10:32:10.998Z</time></trkpt><trkpt lat="39.434983667416624" lon="8.413728834400073"><ele>2.0</ele><time>2026-04-08T10:32:11.998Z</time></trkpt><trkpt lat="39.43520552146124" lon="8.413745324194505"><ele>2.0</ele><time>2026-04-08T10:32:12.998Z</time></trkpt><trkpt lat="39.435421242554995" lon="8.413761638955096"><ele>2.0</ele><time>2026-04-08T10:32:13.998Z</time></trkpt><trkpt lat="39.43563658116178" lon="8.413775382408817"><ele>2.0</ele><time>2026-04-08T10:32:14.998Z</time></trkpt><trkpt lat="39.43585088143185" lon="8.413788237738348"><ele>2.0</ele><time>2026-04-08T10:32:15.998Z</time></trkpt><trkpt lat="39.43605273706467" lon="8.413800409691012"><ele>2.0</ele><time>2026-04-08T10:32:16.998Z</time></trkpt><trkpt lat="39.436231980912844" lon="8.413811986166655"><ele>2.6666666666666665</ele><time>2026-04-08T10:32:17.998Z</time></trkpt><trkpt lat="39.43639278516312" lon="8.413819977285051"><ele>3.333333333333333</ele><time>2026-04-08T10:32:18.998Z</time></trkpt><trkpt lat="39.43654355668809" lon="8.413830687640615"><ele>4.0</ele><time>2026-04-08T10:32:19.998Z</time></trkpt><trkpt lat="39.436684625960496" lon="8.413853821350974"><ele>5.5</ele><time>2026-04-08T10:32:20.998Z</time></trkpt><trkpt lat="39.436797951549806" lon="8.413909416665309"><ele>7.0</ele><time>2026-04-08T10:32:21.998Z</time></trkpt><trkpt lat="39.436883852877386" lon="8.414004826514521"><ele>8.5</ele><time>2026-04-08T10:32:22.998Z</time></trkpt><trkpt lat="39.43695211209754" lon="8.414125863527305"><ele>10.0</ele><time>2026-04-08T10:32:23.998Z</time></trkpt><trkpt lat="39.43700340446171" lon="8.414269302700095"><ele>10.0</ele><time>2026-04-08T10:32:24.998Z</time></trkpt><trkpt lat="39.437025520283186" lon="8.414430981749602"><ele>10.0</ele><time>2026-04-08T10:32:25.998Z</time></trkpt><trkpt lat="39.43701971225555" lon="8.414602447183842"><ele>10.0</ele><time>2026-04-08T10:32:26.998Z</time></trkpt><trkpt lat="39.43699482708965" lon="8.414772485372614"><ele>10.0</ele><time>2026-04-08T10:32:27.998Z</time></trkpt><trkpt lat="39.436966123885846" lon="8.414947937169497"><ele>10.0</ele><time>2026-04-08T10:32:28.998Z</time></trkpt><trkpt lat="39.4369480917421" lon="8.415132419686923"><ele>10.0</ele><time>2026-04-08T10:32:30Z</time></trkpt><trkpt lat="39.436929068612116" lon="8.41531985508836"><ele>10.0</ele><time>2026-04-08T10:32:31Z</time></trkpt><trkpt lat="39.43690880422324" lon="8.415493222576844"><ele>10.0</ele><time>2026-04-08T10:32:32Z</time></trkpt><trkpt lat="39.43689308808677" lon="8.415669956519313"><ele>10.25</ele><time>2026-04-08T10:32:33Z</time></trkpt><trkpt lat="39.43687949549942" lon="8.415839887576455"><ele>10.5</ele><time>2026-04-08T10:32:34Z</time></trkpt><trkpt lat="39.43688056127769" lon="8.416009694660605"><ele>10.75</ele><time>2026-04-08T10:32:35Z</time></trkpt><trkpt lat="39.436906998142014" lon="8.41618239296825"><ele>11.0</ele><time>2026-04-08T10:32:36Z</time></trkpt><trkpt lat="39.43695158076054" lon="8.416340543343862"><ele>11.0</ele><time>2026-04-08T10:32:37Z</time></trkpt><trkpt lat="39.43701977841323" lon="8.416487324837219"><ele>11.0</ele><time>2026-04-08T10:32:38Z</time></trkpt><trkpt lat="39.437106555710706" lon="8.416622028848034"><ele>11.0</ele><time>2026-04-08T10:32:39Z</time></trkpt><trkpt lat="39.43719965179115" lon="8.41675648613174"><ele>11.0</ele><time>2026-04-08T10:32:40Z</time></trkpt><trkpt lat="39.43729611983432" lon="8.41688123633774"><ele>9.25</ele><time>2026-04-08T10:32:41Z</time></trkpt><trkpt lat="39.43741201775447" lon="8.416965239300682"><ele>7.5</ele><time>2026-04-08T10:32:42Z</time></trkpt><trkpt lat="39.437551310698325" lon="8.417002314894741"><ele>5.75</ele><time>2026-04-08T10:32:43Z</time></trkpt><trkpt lat="39.43769411311552" lon="8.416996840234983"><ele>4.0</ele><time>2026-04-08T10:32:44Z</time></trkpt><trkpt lat="39.437833507569735" lon="8.416954435767355"><ele>4.0</ele><time>2026-04-08T10:32:45Z</time></trkpt><trkpt lat="39.4379626353234" lon="8.416879641991127"><ele>4.0</ele><time>2026-04-08T10:32:46Z</time></trkpt><trkpt lat="39.438083582910856" lon="8.416784674140201"><ele>4.0</ele><time>2026-04-08T10:32:47Z</time></trkpt><trkpt lat="39.438208291574696" lon="8.41669268041405"><ele>4.0</ele><time>2026-04-08T10:32:48Z</time></trkpt><trkpt lat="39.438330529282446" lon="8.416608688581329"><ele>4.25</ele><time>2026-04-08T10:32:49Z</time></trkpt><trkpt lat="39.438456784569524" lon="8.416547005112752"><ele>4.5</ele><time>2026-04-08T10:32:50Z</time></trkpt><trkpt lat="39.43857937322787" lon="8.416489367239192"><ele>4.75</ele><time>2026-04-08T10:32:51Z</time></trkpt><trkpt lat="39.43869885680045" lon="8.416514620409682"><ele>5.0</ele><time>2026-04-08T10:32:52Z</time></trkpt><trkpt lat="39.43881637832014" lon="8.416595514210751"><ele>4.6</ele><time>2026-04-08T10:32:53Z</time></trkpt><trkpt lat="39.43893207840654" lon="8.416716643885685"><ele>4.2</ele><time>2026-04-08T10:32:54Z</time></trkpt><trkpt lat="39.43902476174007" lon="8.416828882948233"><ele>3.8</ele><time>2026-04-08T10:32:55Z</time></trkpt><trkpt lat="39.43909665411426" lon="8.416926084420815"><ele>3.4</ele><time>2026-04-08T10:32:56Z</time></trkpt><trkpt lat="39.4391291669121" lon="8.416996293849321"><ele>3.0</ele><time>2026-04-08T10:32:57Z</time></trkpt><trkpt lat="39.439304770384815" lon="8.416922080944296"><ele>3.0</ele><time>2026-04-08T10:33:00Z</time></trkpt><trkpt lat="39.439361457000096" lon="8.416841057908915"><ele>3.0</ele><time>2026-04-08T10:33:01Z</time></trkpt><trkpt lat="39.43943469217119" lon="8.41674764798764"><ele>3.0</ele><time>2026-04-08T10:33:02Z</time></trkpt><trkpt lat="39.43952670021761" lon="8.416643008615907"><ele>3.0</ele><time>2026-04-08T10:33:03Z</time></trkpt><trkpt lat="39.4396218482911" lon="8.416533384633816"><ele>3.0</ele><time>2026-04-08T10:33:04Z</time></trkpt><trkpt lat="39.439717600366556" lon="8.416412640942163"><ele>3.5</ele><time>2026-04-08T10:33:05Z</time></trkpt><trkpt lat="39.439814205900845" lon="8.416290383833203"><ele>4.0</ele><time>2026-04-08T10:33:06Z</time></trkpt><trkpt lat="39.43991678784743" lon="8.41616394689748"><ele>4.5</ele><time>2026-04-08T10:33:07Z</time></trkpt><trkpt lat="39.44002238965814" lon="8.416034276323854"><ele>5.0</ele><time>2026-04-08T10:33:08Z</time></trkpt><trkpt lat="39.44012813065266" lon="8.415903177626138"><ele>5.0</ele><time>2026-04-08T10:33:09Z</time></trkpt><trkpt lat="39.44023575064886" lon="8.415770586021758"><ele>5.0</ele><time>2026-04-08T10:33:10Z</time></trkpt><trkpt lat="39.44034810476093" lon="8.415631678178638"><ele>5.0</ele><time>2026-04-08T10:33:11Z</time></trkpt><trkpt lat="39.44047315007405" lon="8.415483138585506"><ele>6.666666666666667</ele><time>2026-04-08T10:33:12Z</time></trkpt><trkpt lat="39.44060089625089" lon="8.41532670962484"><ele>8.333333333333334</ele><time>2026-04-08T10:33:13Z</time></trkpt><trkpt lat="39.44072929451413" lon="8.415168246268557"><ele>10.0</ele><time>2026-04-08T10:33:14Z</time></trkpt><trkpt lat="39.44085959988645" lon="8.415011885423832"><ele>10.0</ele><time>2026-04-08T10:33:15Z</time></trkpt><trkpt lat="39.44099048990143" lon="8.41485727524661"><ele>10.0</ele><time>2026-04-08T10:33:16Z</time></trkpt><trkpt lat="39.44111616659434" lon="8.41470846958498"><ele>10.0</ele><time>2026-04-08T10:33:17Z</time></trkpt><trkpt lat="39.44122835393519" lon="8.41457307325059"><ele>11.5</ele><time>2026-04-08T10:33:18Z</time></trkpt><trkpt lat="39.44133035424187" lon="8.414450257589307"><ele>13.0</ele><time>2026-04-08T10:33:19Z</time></trkpt><trkpt lat="39.4414244329144" lon="8.414338407984488"><ele>14.5</ele><time>2026-04-08T10:33:19.999Z</time></trkpt><trkpt lat="39.4415071717576" lon="8.414234853443556"><ele>16.0</ele><time>2026-04-08T10:33:20.999Z</time></trkpt><trkpt lat="39.4415867700613" lon="8.414140652879782"><ele>16.0</ele><time>2026-04-08T10:33:21.999Z</time></trkpt><trkpt lat="39.44166345968739" lon="8.414043735895202"><ele>16.0</ele><time>2026-04-08T10:33:22.999Z</time></trkpt><trkpt lat="39.441664621909865" lon="8.41385584662472"><ele>16.0</ele><time>2026-04-08T10:33:23.999Z</time></trkpt><trkpt lat="39.441704710052356" lon="8.413720368240927"><ele>16.0</ele><time>2026-04-08T10:33:24.999Z</time></trkpt><trkpt lat="39.441744958086616" lon="8.41358801692484"><ele>16.0</ele><time>2026-04-08T10:33:25.999Z</time></trkpt><trkpt lat="39.44178182681302" lon="8.413453564969302"><ele>16.0</ele><time>2026-04-08T10:33:26.999Z</time></trkpt><trkpt lat="39.44181434468158" lon="8.413320282647474"><ele>16.0</ele><time>2026-04-08T10:33:27.999Z</time></trkpt><trkpt lat="39.44183783231005" lon="8.413196312878508"><ele>16.0</ele><time>2026-04-08T10:33:28.999Z</time></trkpt><trkpt lat="39.44184487069515" lon="8.413077347631425"><ele>16.0</ele><time>2026-04-08T10:33:29.999Z</time></trkpt><trkpt lat="39.44182861162359" lon="8.412946579663576"><ele>16.0</ele><time>2026-04-08T10:33:30.999Z</time></trkpt><trkpt lat="39.44179897894783" lon="8.412810266459958"><ele>16.0</ele><time>2026-04-08T10:33:31.999Z</time></trkpt><trkpt lat="39.44176304439093" lon="8.412690768427941"><ele>16.0</ele><time>2026-04-08T10:33:32.999Z</time></trkpt><trkpt lat="39.4417350482949" lon="8.412577400096259"><ele>16.0</ele><time>2026-04-08T10:33:33.999Z</time></trkpt><trkpt lat="39.441721802413994" lon="8.412443432507846"><ele>16.0</ele><time>2026-04-08T10:33:34.999Z</time></trkpt><trkpt lat="39.44174557631267" lon="8.412301750324511"><ele>15.999999999999998</ele><time>2026-04-08T10:33:35.999Z</time></trkpt><trkpt lat="39.441762723085674" lon="8.412187078542216"><ele>16.0</ele><time>2026-04-08T10:33:36.999Z</time></trkpt><trkpt lat="39.441778194654646" lon="8.412082697458278"><ele>16.0</ele><time>2026-04-08T10:33:37.999Z</time></trkpt><trkpt lat="39.44179156003943" lon="8.411973966335847"><ele>16.0</ele><time>2026-04-08T10:33:38.999Z</time></trkpt><trkpt lat="39.441800248729756" lon="8.411859221052572"><ele>15.999999999999998</ele><time>2026-04-08T10:33:39.999Z</time></trkpt><trkpt lat="39.44180339905739" lon="8.41174671771109"><ele>16.0</ele><time>2026-04-08T10:33:40.999Z</time></trkpt><trkpt lat="39.44180548771674" lon="8.41163685729647"><ele>15.499999999999998</ele><time>2026-04-08T10:33:41.999Z</time></trkpt><trkpt lat="39.44181103936163" lon="8.411535712053864"><ele>15.0</ele><time>2026-04-08T10:33:42.999Z</time></trkpt><trkpt lat="39.44182130768149" lon="8.41144320296309"><ele>14.5</ele><time>2026-04-08T10:33:43.999Z</time></trkpt><trkpt lat="39.441833861992436" lon="8.411356260526368"><ele>14.0</ele><time>2026-04-08T10:33:44.999Z</time></trkpt><trkpt lat="39.44186172240959" lon="8.411276507665296"><ele>13.499999999999998</ele><time>2026-04-08T10:33:45.999Z</time></trkpt><trkpt lat="39.4419098537067" lon="8.411138505333497"><ele>13.0</ele><time>2026-04-08T10:33:47.999Z</time></trkpt><trkpt lat="39.441981927957755" lon="8.411050530689886"><ele>9.0</ele><time>2026-04-08T10:33:49.999Z</time></trkpt><trkpt lat="39.44201466949429" lon="8.410974120355043"><ele>9.0</ele><time>2026-04-08T10:33:50.999Z</time></trkpt><trkpt lat="39.44204753771603" lon="8.410850305209408"><ele>9.0</ele><time>2026-04-08T10:33:52.999Z</time></trkpt></trkseg><trkseg><trkpt lat="39.44173851917536" lon="8.412798565095532"><ele>16.0</ele><time>2026-04-08T10:48:02.369Z</time></trkpt><trkpt lat="39.441778922480225" lon="8.412893686275348"><ele>16.0</ele><time>2026-04-08T10:48:05Z</time></trkpt><trkpt lat="39.4418040145199" lon="8.413000181056345"><ele>16.0</ele><time>2026-04-08T10:48:07Z</time></trkpt><trkpt lat="39.44180559412908" lon="8.413203732658445"><ele>16.0</ele><time>2026-04-08T10:48:09Z</time></trkpt><trkpt lat="39.441780389640265" lon="8.413288039658799"><ele>16.0</ele><time>2026-04-08T10:48:10Z</time></trkpt><trkpt lat="39.441755909030135" lon="8.413405033098979"><ele>16.0</ele><time>2026-04-08T10:48:11Z</time></trkpt><trkpt lat="39.441715372762516" lon="8.413540004269041"><ele>16.0</ele><time>2026-04-08T10:48:12Z</time></trkpt><trkpt lat="39.44168282576738" lon="8.413659500575916"><ele>16.0</ele><time>2026-04-08T10:48:13Z</time></trkpt><trkpt lat="39.44165182103841" lon="8.41377232013969"><ele>16.0</ele><time>2026-04-08T10:48:14Z</time></trkpt><trkpt lat="39.44162443443591" lon="8.413869910095029"><ele>16.0</ele><time>2026-04-08T10:48:15Z</time></trkpt><trkpt lat="39.441594993782545" lon="8.413974819405126"><ele>16.0</ele><time>2026-04-08T10:48:16Z</time></trkpt><trkpt lat="39.441573517574916" lon="8.414099329412247"><ele>16.0</ele><time>2026-04-08T10:48:17Z</time></trkpt><trkpt lat="39.44152260518664" lon="8.414199671356844"><ele>16.0</ele><time>2026-04-08T10:48:18Z</time></trkpt><trkpt lat="39.441423567426135" lon="8.414279644636304"><ele>16.0</ele><time>2026-04-08T10:48:19Z</time></trkpt><trkpt lat="39.44134363530243" lon="8.414376619813055"><ele>16.0</ele><time>2026-04-08T10:48:20Z</time></trkpt><trkpt lat="39.44125902728023" lon="8.414479267906739"><ele>16.0</ele><time>2026-04-08T10:48:21Z</time></trkpt><trkpt lat="39.44117438737119" lon="8.414581954418873"><ele>16.0</ele><time>2026-04-08T10:48:22Z</time></trkpt><trkpt lat="39.441084839181826" lon="8.414690595891678"><ele>16.0</ele><time>2026-04-08T10:48:23Z</time></trkpt><trkpt lat="39.441002948680065" lon="8.414790108868786"><ele>16.0</ele><time>2026-04-08T10:48:24Z</time></trkpt><trkpt lat="39.440929156776065" lon="8.414880630254382"><ele>14.8</ele><time>2026-04-08T10:48:25Z</time></trkpt><trkpt lat="39.4408561840713" lon="8.414970146726322"><ele>13.600000000000001</ele><time>2026-04-08T10:48:26Z</time></trkpt><trkpt lat="39.440777760227164" lon="8.415066350209853"><ele>12.4</ele><time>2026-04-08T10:48:27Z</time></trkpt><trkpt lat="39.440701100876446" lon="8.415160389112028"><ele>11.2</ele><time>2026-04-08T10:48:28Z</time></trkpt><trkpt lat="39.440629509601806" lon="8.415248210804899"><ele>10.0</ele><time>2026-04-08T10:48:29Z</time></trkpt><trkpt lat="39.440569975646504" lon="8.415321244189427"><ele>10.0</ele><time>2026-04-08T10:48:30Z</time></trkpt><trkpt lat="39.440494227398936" lon="8.415414461546147"><ele>10.0</ele><time>2026-04-08T10:48:31Z</time></trkpt><trkpt lat="39.44041569836921" lon="8.415511016058216"><ele>10.0</ele><time>2026-04-08T10:48:32Z</time></trkpt><trkpt lat="39.44034363096564" lon="8.415620053239829"><ele>10.0</ele><time>2026-04-08T10:48:33Z</time></trkpt><trkpt lat="39.44024522950806" lon="8.415741257317478"><ele>8.75</ele><time>2026-04-08T10:48:34Z</time></trkpt><trkpt lat="39.44014457543006" lon="8.41586608799929"><ele>7.5</ele><time>2026-04-08T10:48:35Z</time></trkpt><trkpt lat="39.440032321694325" lon="8.415979789192239"><ele>6.25</ele><time>2026-04-08T10:48:36Z</time></trkpt><trkpt lat="39.43992360367894" lon="8.416112756689882"><ele>5.0</ele><time>2026-04-08T10:48:37Z</time></trkpt><trkpt lat="39.4398134483576" lon="8.41624748988062"><ele>4.5</ele><time>2026-04-08T10:48:37.999Z</time></trkpt><trkpt lat="39.43971794279854" lon="8.416391733620387"><ele>4.0</ele><time>2026-04-08T10:48:38.999Z</time></trkpt><trkpt lat="39.439621447360565" lon="8.416502153173097"><ele>3.5</ele><time>2026-04-08T10:48:39.999Z</time></trkpt><trkpt lat="39.43953495244992" lon="8.416583162849788"><ele>3.0</ele><time>2026-04-08T10:48:40.999Z</time></trkpt><trkpt lat="39.43945619636993" lon="8.41667865939269"><ele>3.0</ele><time>2026-04-08T10:48:41.999Z</time></trkpt><trkpt lat="39.43939569028109" lon="8.41678258852064"><ele>3.0</ele><time>2026-04-08T10:48:42.999Z</time></trkpt><trkpt lat="39.439332299785605" lon="8.416852816721551"><ele>3.0</ele><time>2026-04-08T10:48:43.999Z</time></trkpt><trkpt lat="39.43926104607442" lon="8.416944502938035"><ele>3.0</ele><time>2026-04-08T10:48:45.999Z</time></trkpt><trkpt lat="39.43920316167407" lon="8.416994087361298"><ele>3.0</ele><time>2026-04-08T10:48:48.999Z</time></trkpt><trkpt lat="39.439189298895485" lon="8.41715621282487"><ele>3.8</ele><time>2026-04-08T10:48:51.999Z</time></trkpt><trkpt lat="39.439193963819164" lon="8.417254268291106"><ele>4.6</ele><time>2026-04-08T10:48:52.999Z</time></trkpt><trkpt lat="39.43920940163152" lon="8.417375587133353"><ele>5.3999999999999995</ele><time>2026-04-08T10:48:53.999Z</time></trkpt><trkpt lat="39.43923228298109" lon="8.417533872586281"><ele>6.199999999999999</ele><time>2026-04-08T10:48:54.999Z</time></trkpt><trkpt lat="39.43925538282451" lon="8.417712771154507"><ele>7.0</ele><time>2026-04-08T10:48:55.999Z</time></trkpt><trkpt lat="39.4392749248489" lon="8.417892031839358"><ele>7.0</ele><time>2026-04-08T10:48:56.999Z</time></trkpt><trkpt lat="39.43928923359818" lon="8.418058114198073"><ele>7.0</ele><time>2026-04-08T10:48:57.999Z</time></trkpt><trkpt lat="39.43930972566493" lon="8.418239568796691"><ele>7.0</ele><time>2026-04-08T10:48:58.999Z</time></trkpt><trkpt lat="39.43933702986765" lon="8.418430632470617"><ele>7.0</ele><time>2026-04-08T10:48:59.999Z</time></trkpt><trkpt lat="39.439368497277506" lon="8.418626329296409"><ele>7.333333333333334</ele><time>2026-04-08T10:49:00.999Z</time></trkpt><trkpt lat="39.43943577783326" lon="8.418837764392302"><ele>7.666666666666666</ele><time>2026-04-08T10:49:01.999Z</time></trkpt><trkpt lat="39.439524607419195" lon="8.419045825065783"><ele>8.0</ele><time>2026-04-08T10:49:02.999Z</time></trkpt><trkpt lat="39.43962970265518" lon="8.419251875520416"><ele>7.0</ele><time>2026-04-08T10:49:03.999Z</time></trkpt><trkpt lat="39.43973571836613" lon="8.41944984181014"><ele>6.0</ele><time>2026-04-08T10:49:04.999Z</time></trkpt><trkpt lat="39.439829365868434" lon="8.419635199548784"><ele>5.0</ele><time>2026-04-08T10:49:05.999Z</time></trkpt><trkpt lat="39.43990029412717" lon="8.41980401841094"><ele>5.0</ele><time>2026-04-08T10:49:06.999Z</time></trkpt><trkpt lat="39.43995837750277" lon="8.419974418471478"><ele>5.0</ele><time>2026-04-08T10:49:07.999Z</time></trkpt><trkpt lat="39.43999236180486" lon="8.420171509111452"><ele>5.0</ele><time>2026-04-08T10:49:08.999Z</time></trkpt><trkpt lat="39.439992970685374" lon="8.42038873609281"><ele>5.666666666666667</ele><time>2026-04-08T10:49:09.999Z</time></trkpt><trkpt lat="39.44000415362165" lon="8.420591997759107"><ele>6.333333333333334</ele><time>2026-04-08T10:49:10.999Z</time></trkpt><trkpt lat="39.44002872551672" lon="8.420811278081906"><ele>7.0</ele><time>2026-04-08T10:49:11.999Z</time></trkpt><trkpt lat="39.44003517767927" lon="8.421041082737316"><ele>7.0</ele><time>2026-04-08T10:49:12.999Z</time></trkpt><trkpt lat="39.44004434984466" lon="8.42127603971407"><ele>7.0</ele><time>2026-04-08T10:49:13.999Z</time></trkpt><trkpt lat="39.440057116570266" lon="8.421510060041246"><ele>7.0</ele><time>2026-04-08T10:49:14.999Z</time></trkpt><trkpt lat="39.44007411275775" lon="8.421745439018244"><ele>7.666666666666667</ele><time>2026-04-08T10:49:15.998Z</time></trkpt><trkpt lat="39.4401034401055" lon="8.421978825172419"><ele>8.333333333333334</ele><time>2026-04-08T10:49:16.998Z</time></trkpt><trkpt lat="39.44015480308551" lon="8.42220436646123"><ele>9.0</ele><time>2026-04-08T10:49:17.998Z</time></trkpt><trkpt lat="39.440222943385265" lon="8.422422807320233"><ele>8.666666666666666</ele><time>2026-04-08T10:49:18.998Z</time></trkpt><trkpt lat="39.44031683982379" lon="8.422634718681538"><ele>8.333333333333332</ele><time>2026-04-08T10:49:19.998Z</time></trkpt><trkpt lat="39.44043002781248" lon="8.422848586166912"><ele>8.0</ele><time>2026-04-08T10:49:20.998Z</time></trkpt><trkpt lat="39.44056934263381" lon="8.423081807162708"><ele>8.0</ele><time>2026-04-08T10:49:21.998Z</time></trkpt><trkpt lat="39.44071873909969" lon="8.423345539115857"><ele>8.0</ele><time>2026-04-08T10:49:22.998Z</time></trkpt><trkpt lat="39.440883627399344" lon="8.423653657895718"><ele>8.0</ele><time>2026-04-08T10:49:23.998Z</time></trkpt><trkpt lat="39.44104422610018" lon="8.423958564805071"><ele>8.0</ele><time>2026-04-08T10:49:24.998Z</time></trkpt><trkpt lat="39.44119072115943" lon="8.424225724662705"><ele>7.0</ele><time>2026-04-08T10:49:25.998Z</time></trkpt><trkpt lat="39.44133825674823" lon="8.424489550813027"><ele>6.0</ele><time>2026-04-08T10:49:26.998Z</time></trkpt><trkpt lat="39.44148555076279" lon="8.42475383172456"><ele>6.0</ele><time>2026-04-08T10:49:27.998Z</time></trkpt><trkpt lat="39.44162686784185" lon="8.425009004775907"><ele>6.0</ele><time>2026-04-08T10:49:28.998Z</time></trkpt><trkpt lat="39.441758824696706" lon="8.425227250619063"><ele>6.0</ele><time>2026-04-08T10:49:29.998Z</time></trkpt><trkpt lat="39.441876356261595" lon="8.425393485401898"><ele>6.0</ele><time>2026-04-08T10:49:30.998Z</time></trkpt><trkpt lat="39.44198510068808" lon="8.425548521785988"><ele>6.0</ele><time>2026-04-08T10:49:31.998Z</time></trkpt><trkpt lat="39.44207650256794" lon="8.425702340930156"><ele>6.0</ele><time>2026-04-08T10:49:32.998Z</time></trkpt><trkpt lat="39.4421542901713" lon="8.425884858068846"><ele>6.0</ele><time>2026-04-08T10:49:33.998Z</time></trkpt><trkpt lat="39.44219721531242" lon="8.42612170403634"><ele>6.0</ele><time>2026-04-08T10:49:34.998Z</time></trkpt><trkpt lat="39.4422259569167" lon="8.426385848115945"><ele>7.0</ele><time>2026-04-08T10:49:35.998Z</time></trkpt><trkpt lat="39.442253298171096" lon="8.42667328072577"><ele>8.0</ele><time>2026-04-08T10:49:36.998Z</time></trkpt><trkpt lat="39.44229308605821" lon="8.426997128807992"><ele>7.5</ele><time>2026-04-08T10:49:37.998Z</time></trkpt><trkpt lat="39.442331297856434" lon="8.427358718546378"><ele>7.0</ele><time>2026-04-08T10:49:38.998Z</time></trkpt><trkpt lat="39.44235571847857" lon="8.42774954168151"><ele>7.5</ele><time>2026-04-08T10:49:39.998Z</time></trkpt><trkpt lat="39.442396159338465" lon="8.428175581665565"><ele>8.0</ele><time>2026-04-08T10:49:40.998Z</time></trkpt><trkpt lat="39.44244688892895" lon="8.428619230569142"><ele>9.0</ele><time>2026-04-08T10:49:41.998Z</time></trkpt><trkpt lat="39.44248359177011" lon="8.429083428343942"><ele>10.0</ele><time>2026-04-08T10:49:42.998Z</time></trkpt><trkpt lat="39.44253018077273" lon="8.429561175251864"><ele>10.0</ele><time>2026-04-08T10:49:43.998Z</time></trkpt><trkpt lat="39.44258077408401" lon="8.43005478936476"><ele>10.0</ele><time>2026-04-08T10:49:44.998Z</time></trkpt><trkpt lat="39.442629252148265" lon="8.4305636889794"><ele>12.0</ele><time>2026-04-08T10:49:45.998Z</time></trkpt><trkpt lat="39.4426787834583" lon="8.431069670496376"><ele>14.0</ele><time>2026-04-08T10:49:46.998Z</time></trkpt><trkpt lat="39.442724390411236" lon="8.431527041273156"><ele>14.5</ele><time>2026-04-08T10:49:47.998Z</time></trkpt><trkpt lat="39.44276612132759" lon="8.431955559041228"><ele>15.0</ele><time>2026-04-08T10:49:48.998Z</time></trkpt><trkpt lat="39.44279845038394" lon="8.432366152324102"><ele>17.0</ele><time>2026-04-08T10:49:49.998Z</time></trkpt><trkpt lat="39.44283027176124" lon="8.432725592445927"><ele>19.0</ele><time>2026-04-08T10:49:50.998Z</time></trkpt><trkpt lat="39.44286169293034" lon="8.433057783059098"><ele>19.333333333333332</ele><time>2026-04-08T10:49:51.998Z</time></trkpt><trkpt lat="39.4428927716216" lon="8.433355875318652"><ele>19.666666666666668</ele><time>2026-04-08T10:49:52.998Z</time></trkpt><trkpt lat="39.44293484672165" lon="8.43361997693669"><ele>20.0</ele><time>2026-04-08T10:49:53.997Z</time></trkpt><trkpt lat="39.44301130975426" lon="8.433876994900912"><ele>16.5</ele><time>2026-04-08T10:49:54.997Z</time></trkpt><trkpt lat="39.44313216888289" lon="8.434160368189668"><ele>13.0</ele><time>2026-04-08T10:49:55.997Z</time></trkpt><trkpt lat="39.443290652044645" lon="8.434465170687071"><ele>13.0</ele><time>2026-04-08T10:49:56.997Z</time></trkpt><trkpt lat="39.443452958032964" lon="8.434799162023774"><ele>13.0</ele><time>2026-04-08T10:49:57.997Z</time></trkpt><trkpt lat="39.44357871479415" lon="8.43509571201127"><ele>13.0</ele><time>2026-04-08T10:49:58.997Z</time></trkpt><trkpt lat="39.44369277725133" lon="8.435352480106742"><ele>13.0</ele><time>2026-04-08T10:49:59.997Z</time></trkpt><trkpt lat="39.44380245131516" lon="8.435572622674991"><ele>13.0</ele><time>2026-04-08T10:50:00.997Z</time></trkpt><trkpt lat="39.443900239535054" lon="8.4357791330591"><ele>13.0</ele><time>2026-04-08T10:50:01.997Z</time></trkpt><trkpt lat="39.443979916423146" lon="8.435995756862209"><ele>13.0</ele><time>2026-04-08T10:50:02.997Z</time></trkpt><trkpt lat="39.44400538127294" lon="8.43626779821276"><ele>13.0</ele><time>2026-04-08T10:50:03.997Z</time></trkpt><trkpt lat="39.44403322091788" lon="8.436585143156021"><ele>13.0</ele><time>2026-04-08T10:50:04.997Z</time></trkpt><trkpt lat="39.444073150452326" lon="8.436955869304889"><ele>13.0</ele><time>2026-04-08T10:50:05.997Z</time></trkpt><trkpt lat="39.44410024063522" lon="8.437380503526391"><ele>12.0</ele><time>2026-04-08T10:50:06.997Z</time></trkpt><trkpt lat="39.44413987675295" lon="8.437843165089312"><ele>11.0</ele><time>2026-04-08T10:50:07.997Z</time></trkpt><trkpt lat="39.444185002989556" lon="8.438339685564586"><ele>11.5</ele><time>2026-04-08T10:50:09Z</time></trkpt><trkpt lat="39.44423005265812" lon="8.438843266359239"><ele>12.0</ele><time>2026-04-08T10:50:10Z</time></trkpt><trkpt lat="39.44427541977785" lon="8.439282602018167"><ele>14.0</ele><time>2026-04-08T10:50:11Z</time></trkpt><trkpt lat="39.444327280889084" lon="8.439667355493654"><ele>16.0</ele><time>2026-04-08T10:50:12Z</time></trkpt><trkpt lat="39.444392733499704" lon="8.440058347322054"><ele>16.0</ele><time>2026-04-08T10:50:13Z</time></trkpt><trkpt lat="39.44445520763609" lon="8.4404390679021"><ele>16.0</ele><time>2026-04-08T10:50:14Z</time></trkpt><trkpt lat="39.44450453988395" lon="8.440774138061716"><ele>18.333333333333332</ele><time>2026-04-08T10:50:15Z</time></trkpt><trkpt lat="39.444549102225935" lon="8.441068470474903"><ele>20.666666666666668</ele><time>2026-04-08T10:50:16Z</time></trkpt><trkpt lat="39.44458898959107" lon="8.441318530345463"><ele>23.0</ele><time>2026-04-08T10:50:17Z</time></trkpt><trkpt lat="39.444613134582816" lon="8.441515052761883"><ele>24.0</ele><time>2026-04-08T10:50:18Z</time></trkpt><trkpt lat="39.44459965725841" lon="8.441707346352567"><ele>25.0</ele><time>2026-04-08T10:50:19Z</time></trkpt><trkpt lat="39.444522009615696" lon="8.441904331648708"><ele>26.0</ele><time>2026-04-08T10:50:20Z</time></trkpt><trkpt lat="39.44439358681326" lon="8.442117691123888"><ele>21.5</ele><time>2026-04-08T10:50:21Z</time></trkpt><trkpt lat="39.44424181073661" lon="8.442368121930839"><ele>17.0</ele><time>2026-04-08T10:50:22Z</time></trkpt><trkpt lat="39.44409531227431" lon="8.442628966893254"><ele>17.0</ele><time>2026-04-08T10:50:23Z</time></trkpt><trkpt lat="39.44401562476472" lon="8.442838951066182"><ele>17.0</ele><time>2026-04-08T10:50:24Z</time></trkpt><trkpt lat="39.44392836076381" lon="8.443030572071915"><ele>17.0</ele><time>2026-04-08T10:50:25Z</time></trkpt><trkpt lat="39.44382566208246" lon="8.443215448288411"><ele>17.0</ele><time>2026-04-08T10:50:26Z</time></trkpt><trkpt lat="39.443790719054306" lon="8.443429129966542"><ele>17.0</ele><time>2026-04-08T10:50:27Z</time></trkpt><trkpt lat="39.44380498569759" lon="8.443661715842222"><ele>17.0</ele><time>2026-04-08T10:50:28Z</time></trkpt><trkpt lat="39.443887427904336" lon="8.443864485266694"><ele>16.0</ele><time>2026-04-08T10:50:29Z</time></trkpt><trkpt lat="39.44400706246192" lon="8.444073217789109"><ele>15.0</ele><time>2026-04-08T10:50:30Z</time></trkpt><trkpt lat="39.444144569946964" lon="8.444301943855981"><ele>14.0</ele><time>2026-04-08T10:50:31Z</time></trkpt><trkpt lat="39.44431462323518" lon="8.44456152411626"><ele>14.0</ele><time>2026-04-08T10:50:32Z</time></trkpt><trkpt lat="39.44448730395776" lon="8.444870444848391"><ele>14.0</ele><time>2026-04-08T10:50:33Z</time></trkpt><trkpt lat="39.444685946006715" lon="8.445154823956443"><ele>14.0</ele><time>2026-04-08T10:50:34Z</time></trkpt><trkpt lat="39.44487074490343" lon="8.445419142124484"><ele>14.0</ele><time>2026-04-08T10:50:35Z</time></trkpt><trkpt lat="39.445105060358316" lon="8.445641001307257"><ele>14.5</ele><time>2026-04-08T10:50:36Z</time></trkpt><trkpt lat="39.44535307549604" lon="8.445887733786769"><ele>15.0</ele><time>2026-04-08T10:50:37Z</time></trkpt><trkpt lat="39.44558594654419" lon="8.446136082034847"><ele>17.5</ele><time>2026-04-08T10:50:38Z</time></trkpt><trkpt lat="39.445775883919666" lon="8.446418745651723"><ele>20.0</ele><time>2026-04-08T10:50:38.999Z</time></trkpt><trkpt lat="39.445972392552214" lon="8.446708180369452"><ele>20.0</ele><time>2026-04-08T10:50:39.999Z</time></trkpt><trkpt lat="39.44617805981902" lon="8.446957576396002"><ele>20.0</ele><time>2026-04-08T10:50:40.999Z</time></trkpt><trkpt lat="39.446376821066394" lon="8.447160005371584"><ele>19.0</ele><time>2026-04-08T10:50:41.999Z</time></trkpt><trkpt lat="39.44654710484136" lon="8.447339322158317"><ele>18.0</ele><time>2026-04-08T10:50:42.999Z</time></trkpt><trkpt lat="39.44668515474459" lon="8.44750350210006"><ele>17.0</ele><time>2026-04-08T10:50:43.999Z</time></trkpt><trkpt lat="39.44681917287348" lon="8.447653968851826"><ele>17.0</ele><time>2026-04-08T10:50:44.999Z</time></trkpt><trkpt lat="39.446960418824446" lon="8.447802088446211"><ele>17.0</ele><time>2026-04-08T10:50:45.999Z</time></trkpt><trkpt lat="39.447117060024226" lon="8.447967405614097"><ele>17.0</ele><time>2026-04-08T10:50:46.999Z</time></trkpt><trkpt lat="39.44743542707264" lon="8.447930503995202"><ele>17.5</ele><time>2026-04-08T10:50:47.999Z</time></trkpt><trkpt lat="39.44769606309079" lon="8.448015764494068"><ele>18.0</ele><time>2026-04-08T10:50:48.999Z</time></trkpt><trkpt lat="39.447983310646336" lon="8.448126593496955"><ele>18.0</ele><time>2026-04-08T10:50:49.999Z</time></trkpt><trkpt lat="39.4482464043925" lon="8.448232267030416"><ele>18.0</ele><time>2026-04-08T10:50:50.999Z</time></trkpt><trkpt lat="39.448471460206896" lon="8.448317368675982"><ele>18.0</ele><time>2026-04-08T10:50:51.999Z</time></trkpt><trkpt lat="39.44868939083841" lon="8.448398983015085"><ele>18.0</ele><time>2026-04-08T10:50:52.999Z</time></trkpt><trkpt lat="39.44888612982219" lon="8.448478636717418"><ele>18.0</ele><time>2026-04-08T10:50:53.999Z</time></trkpt><trkpt lat="39.44907248874986" lon="8.448553486592724"><ele>17.333333333333332</ele><time>2026-04-08T10:50:54.999Z</time></trkpt><trkpt lat="39.449236253713224" lon="8.448651739810792"><ele>16.666666666666664</ele><time>2026-04-08T10:50:55.999Z</time></trkpt><trkpt lat="39.449375628173826" lon="8.448796181662544"><ele>16.0</ele><time>2026-04-08T10:50:56.999Z</time></trkpt><trkpt lat="39.44951013739937" lon="8.449003057971998"><ele>16.333333333333332</ele><time>2026-04-08T10:50:57.999Z</time></trkpt><trkpt lat="39.44964850072557" lon="8.449215135810066"><ele>16.666666666666668</ele><time>2026-04-08T10:50:58.999Z</time></trkpt><trkpt lat="39.44977751885802" lon="8.449394087622899"><ele>17.0</ele><time>2026-04-08T10:50:59.999Z</time></trkpt><trkpt lat="39.44988946723553" lon="8.44955505973683"><ele>18.0</ele><time>2026-04-08T10:51:00.999Z</time></trkpt><trkpt lat="39.44996922418745" lon="8.44972948372393"><ele>19.0</ele><time>2026-04-08T10:51:01.999Z</time></trkpt><trkpt lat="39.450002373958895" lon="8.449915367452887"><ele>20.0</ele><time>2026-04-08T10:51:02.999Z</time></trkpt><trkpt lat="39.44998229748269" lon="8.45011369171624"><ele>20.0</ele><time>2026-04-08T10:51:03.999Z</time></trkpt><trkpt lat="39.44991154229805" lon="8.450336409125049"><ele>20.0</ele><time>2026-04-08T10:51:04.999Z</time></trkpt><trkpt lat="39.449821258444175" lon="8.4505848719167"><ele>20.0</ele><time>2026-04-08T10:51:05.999Z</time></trkpt><trkpt lat="39.44973581950378" lon="8.450844005348268"><ele>19.666666666666668</ele><time>2026-04-08T10:51:06.999Z</time></trkpt><trkpt lat="39.44965989868841" lon="8.451075265738227"><ele>19.333333333333332</ele><time>2026-04-08T10:51:07.999Z</time></trkpt><trkpt lat="39.44958047745961" lon="8.45129981289342"><ele>19.0</ele><time>2026-04-08T10:51:08.999Z</time></trkpt><trkpt lat="39.449543458167454" lon="8.45149706876894"><ele>23.0</ele><time>2026-04-08T10:51:09.999Z</time></trkpt><trkpt lat="39.44949118254154" lon="8.45168315778181"><ele>27.0</ele><time>2026-04-08T10:51:10.999Z</time></trkpt><trkpt lat="39.4494916568615" lon="8.451917378196653"><ele>31.0</ele><time>2026-04-08T10:51:11.999Z</time></trkpt><trkpt lat="39.449517002385846" lon="8.452212151441802"><ele>33.0</ele><time>2026-04-08T10:51:12.999Z</time></trkpt><trkpt lat="39.44957448184157" lon="8.452536970905594"><ele>35.0</ele><time>2026-04-08T10:51:13.999Z</time></trkpt><trkpt lat="39.44960131316582" lon="8.45291656359493"><ele>37.5</ele><time>2026-04-08T10:51:14.999Z</time></trkpt><trkpt lat="39.44962317983128" lon="8.453310591358186"><ele>40.0</ele><time>2026-04-08T10:51:15.999Z</time></trkpt><trkpt lat="39.44965144183244" lon="8.453672886966427"><ele>31.0</ele><time>2026-04-08T10:51:16.999Z</time></trkpt><trkpt lat="39.44967995597606" lon="8.453987033776201"><ele>22.0</ele><time>2026-04-08T10:51:17.998Z</time></trkpt><trkpt lat="39.44969740221927" lon="8.454266279875586"><ele>22.0</ele><time>2026-04-08T10:51:18.998Z</time></trkpt><trkpt lat="39.44968276408661" lon="8.454563761140864"><ele>22.0</ele><time>2026-04-08T10:51:19.998Z</time></trkpt><trkpt lat="39.44963015343716" lon="8.45490073705888"><ele>28.0</ele><time>2026-04-08T10:51:20.998Z</time></trkpt><trkpt lat="39.44957556739831" lon="8.455179108471743"><ele>34.0</ele><time>2026-04-08T10:51:21.998Z</time></trkpt><trkpt lat="39.44954633823732" lon="8.455436897264436"><ele>40.0</ele><time>2026-04-08T10:51:22.998Z</time></trkpt><trkpt lat="39.449520902704776" lon="8.455672044723018"><ele>40.0</ele><time>2026-04-08T10:51:23.998Z</time></trkpt><trkpt lat="39.44945542045594" lon="8.455902741662541"><ele>40.0</ele><time>2026-04-08T10:51:24.998Z</time></trkpt><trkpt lat="39.44933966149005" lon="8.456133352695344"><ele>40.0</ele><time>2026-04-08T10:51:25.998Z</time></trkpt><trkpt lat="39.44918308118728" lon="8.456368357909492"><ele>34.0</ele><time>2026-04-08T10:51:26.998Z</time></trkpt><trkpt lat="39.44901033861165" lon="8.45663109905217"><ele>28.0</ele><time>2026-04-08T10:51:27.998Z</time></trkpt><trkpt lat="39.44884507165792" lon="8.456897348621842"><ele>30.5</ele><time>2026-04-08T10:51:28.998Z</time></trkpt><trkpt lat="39.44869739614683" lon="8.457131067825863"><ele>33.0</ele><time>2026-04-08T10:51:29.998Z</time></trkpt><trkpt lat="39.44855487440564" lon="8.457366708764095"><ele>33.0</ele><time>2026-04-08T10:51:30.998Z</time></trkpt><trkpt lat="39.44842964775802" lon="8.457650545283654"><ele>33.0</ele><time>2026-04-08T10:51:31.998Z</time></trkpt><trkpt lat="39.44835476172009" lon="8.457964868693146"><ele>31.0</ele><time>2026-04-08T10:51:32.998Z</time></trkpt><trkpt lat="39.44830973484988" lon="8.458301784451523"><ele>29.0</ele><time>2026-04-08T10:51:33.998Z</time></trkpt><trkpt lat="39.44825535715686" lon="8.458626586222728"><ele>27.5</ele><time>2026-04-08T10:51:34.998Z</time></trkpt><trkpt lat="39.448198953654384" lon="8.458951782364265"><ele>26.0</ele><time>2026-04-08T10:51:35.998Z</time></trkpt><trkpt lat="39.448067351166" lon="8.459244246816057"><ele>31.5</ele><time>2026-04-08T10:51:36.998Z</time></trkpt><trkpt lat="39.44791216786263" lon="8.459550893972096"><ele>37.0</ele><time>2026-04-08T10:51:37.998Z</time></trkpt><trkpt lat="39.447768249758994" lon="8.459869397443134"><ele>37.0</ele><time>2026-04-08T10:51:38.998Z</time></trkpt><trkpt lat="39.4476474844153" lon="8.460216132225762"><ele>37.0</ele><time>2026-04-08T10:51:39.998Z</time></trkpt><trkpt lat="39.447535594913354" lon="8.460590762475071"><ele>32.5</ele><time>2026-04-08T10:51:40.998Z</time></trkpt><trkpt lat="39.44742093392305" lon="8.460958866844477"><ele>28.0</ele><time>2026-04-08T10:51:41.998Z</time></trkpt><trkpt lat="39.44731454561464" lon="8.46128176927059"><ele>27.0</ele><time>2026-04-08T10:51:42.998Z</time></trkpt><trkpt lat="39.44721626040728" lon="8.461568144294034"><ele>26.0</ele><time>2026-04-08T10:51:43.998Z</time></trkpt><trkpt lat="39.447126379076344" lon="8.46182981370359"><ele>26.0</ele><time>2026-04-08T10:51:44.998Z</time></trkpt><trkpt lat="39.44704486715262" lon="8.462082192264356"><ele>26.0</ele><time>2026-04-08T10:51:45.998Z</time></trkpt><trkpt lat="39.44697473574741" lon="8.462318446075452"><ele>26.0</ele><time>2026-04-08T10:51:46.998Z</time></trkpt><trkpt lat="39.446931988104" lon="8.462570251871131"><ele>24.5</ele><time>2026-04-08T10:51:47.998Z</time></trkpt><trkpt lat="39.44694739469745" lon="8.462862635114286"><ele>23.0</ele><time>2026-04-08T10:51:48.998Z</time></trkpt><trkpt lat="39.447010616710976" lon="8.463167257528646"><ele>23.0</ele><time>2026-04-08T10:51:49.998Z</time></trkpt><trkpt lat="39.44708801302862" lon="8.463485204718271"><ele>23.0</ele><time>2026-04-08T10:51:50.998Z</time></trkpt><trkpt lat="39.447161403384634" lon="8.463846496883296"><ele>23.0</ele><time>2026-04-08T10:51:51.998Z</time></trkpt><trkpt lat="39.4472194197488" lon="8.46421695208163"><ele>23.0</ele><time>2026-04-08T10:51:52.998Z</time></trkpt><trkpt lat="39.44726388761507" lon="8.464552996433621"><ele>23.666666666666668</ele><time>2026-04-08T10:51:53.998Z</time></trkpt><trkpt lat="39.4473096855319" lon="8.464842786953284"><ele>24.333333333333336</ele><time>2026-04-08T10:51:54.998Z</time></trkpt><trkpt lat="39.4473592272655" lon="8.46511529477134"><ele>25.0</ele><time>2026-04-08T10:51:55.997Z</time></trkpt><trkpt lat="39.447381730223896" lon="8.465410348870964"><ele>26.0</ele><time>2026-04-08T10:51:56.997Z</time></trkpt><trkpt lat="39.44738575716508" lon="8.465724661223073"><ele>27.0</ele><time>2026-04-08T10:51:57.997Z</time></trkpt><trkpt lat="39.44739552991268" lon="8.46600912580958"><ele>27.0</ele><time>2026-04-08T10:51:58.997Z</time></trkpt><trkpt lat="39.44738674046035" lon="8.466252324415"><ele>27.0</ele><time>2026-04-08T10:51:59.997Z</time></trkpt><trkpt lat="39.44739174958961" lon="8.466477025401108"><ele>27.0</ele><time>2026-04-08T10:52:00.997Z</time></trkpt><trkpt lat="39.44744299355874" lon="8.46669037276188"><ele>27.666666666666664</ele><time>2026-04-08T10:52:01.997Z</time></trkpt><trkpt lat="39.44754833535285" lon="8.466904625490566"><ele>28.333333333333332</ele><time>2026-04-08T10:52:02.997Z</time></trkpt><trkpt lat="39.44770190149102" lon="8.46710835899875"><ele>29.0</ele><time>2026-04-08T10:52:03.997Z</time></trkpt><trkpt lat="39.447876492255695" lon="8.467282323392933"><ele>29.0</ele><time>2026-04-08T10:52:04.997Z</time></trkpt><trkpt lat="39.44803958539799" lon="8.467450787332114"><ele>29.0</ele><time>2026-04-08T10:52:05.997Z</time></trkpt><trkpt lat="39.448222043714615" lon="8.467589215416245"><ele>29.0</ele><time>2026-04-08T10:52:06.997Z</time></trkpt><trkpt lat="39.448441710109755" lon="8.467696322925882"><ele>29.0</ele><time>2026-04-08T10:52:07.997Z</time></trkpt><trkpt lat="39.44864866396214" lon="8.467768613485818"><ele>29.0</ele><time>2026-04-08T10:52:08.997Z</time></trkpt><trkpt lat="39.44882720009743" lon="8.467831122759822"><ele>29.0</ele><time>2026-04-08T10:52:09.997Z</time></trkpt><trkpt lat="39.448975196276464" lon="8.46791134962238"><ele>30.333333333333332</ele><time>2026-04-08T10:52:10.997Z</time></trkpt><trkpt lat="39.449128506398964" lon="8.467978828996495"><ele>31.666666666666664</ele><time>2026-04-08T10:52:11.997Z</time></trkpt><trkpt lat="39.44929392890309" lon="8.46800071452555"><ele>33.0</ele><time>2026-04-08T10:52:12.997Z</time></trkpt><trkpt lat="39.44947139957917" lon="8.467945166468677"><ele>31.333333333333336</ele><time>2026-04-08T10:52:14Z</time></trkpt><trkpt lat="39.449647927311375" lon="8.467897281221742"><ele>29.666666666666668</ele><time>2026-04-08T10:52:15Z</time></trkpt><trkpt lat="39.44980590331282" lon="8.467882191626595"><ele>28.0</ele><time>2026-04-08T10:52:16Z</time></trkpt><trkpt lat="39.449944381105865" lon="8.467892171835077"><ele>29.333333333333336</ele><time>2026-04-08T10:52:17Z</time></trkpt><trkpt lat="39.45005655370207" lon="8.467990929791453"><ele>30.666666666666664</ele><time>2026-04-08T10:52:18Z</time></trkpt><trkpt lat="39.45017552610394" lon="8.468112407450587"><ele>32.0</ele><time>2026-04-08T10:52:19Z</time></trkpt><trkpt lat="39.45024326853076" lon="8.46830493490926"><ele>32.0</ele><time>2026-04-08T10:52:20Z</time></trkpt><trkpt lat="39.45022073702369" lon="8.468530103471215"><ele>32.0</ele><time>2026-04-08T10:52:21Z</time></trkpt><trkpt lat="39.45020835662792" lon="8.468788583363665"><ele>32.0</ele><time>2026-04-08T10:52:22Z</time></trkpt><trkpt lat="39.45021527526357" lon="8.469089012088268"><ele>35.5</ele><time>2026-04-08T10:52:23Z</time></trkpt><trkpt lat="39.45024898779596" lon="8.469420870917613"><ele>39.0</ele><time>2026-04-08T10:52:24Z</time></trkpt><trkpt lat="39.45030910604436" lon="8.469795432037625"><ele>43.5</ele><time>2026-04-08T10:52:25Z</time></trkpt><trkpt lat="39.450358721797556" lon="8.470186901339762"><ele>48.0</ele><time>2026-04-08T10:52:26Z</time></trkpt><trkpt lat="39.45039331249674" lon="8.470602553763497"><ele>48.5</ele><time>2026-04-08T10:52:27Z</time></trkpt><trkpt lat="39.45040942726272" lon="8.471007827249927"><ele>49.0</ele><time>2026-04-08T10:52:28Z</time></trkpt><trkpt lat="39.45041972956782" lon="8.471349776130223"><ele>48.0</ele><time>2026-04-08T10:52:29Z</time></trkpt><trkpt lat="39.45043396023146" lon="8.471665666673953"><ele>47.0</ele><time>2026-04-08T10:52:30Z</time></trkpt><trkpt lat="39.450454935004934" lon="8.471956298820357"><ele>41.0</ele><time>2026-04-08T10:52:31Z</time></trkpt><trkpt lat="39.45047239480696" lon="8.472228669419879"><ele>35.0</ele><time>2026-04-08T10:52:32Z</time></trkpt><trkpt lat="39.45047956112744" lon="8.472481273741561"><ele>29.0</ele><time>2026-04-08T10:52:33Z</time></trkpt><trkpt lat="39.450465333751794" lon="8.472726014045126"><ele>35.0</ele><time>2026-04-08T10:52:34Z</time></trkpt><trkpt lat="39.450424886888676" lon="8.47294622991481"><ele>41.0</ele><time>2026-04-08T10:52:35Z</time></trkpt><trkpt lat="39.450377746471844" lon="8.473146329526918"><ele>47.0</ele><time>2026-04-08T10:52:36Z</time></trkpt><trkpt lat="39.4503344563552" lon="8.473346136058254"><ele>47.0</ele><time>2026-04-08T10:52:37Z</time></trkpt><trkpt lat="39.450318367164215" lon="8.473547943648155"><ele>47.0</ele><time>2026-04-08T10:52:38Z</time></trkpt><trkpt lat="39.450313757859746" lon="8.473752489259091"><ele>47.0</ele><time>2026-04-08T10:52:39Z</time></trkpt><trkpt lat="39.450317444494544" lon="8.473959549089335"><ele>46.0</ele><time>2026-04-08T10:52:40Z</time></trkpt><trkpt lat="39.45032607064905" lon="8.47416389955403"><ele>45.0</ele><time>2026-04-08T10:52:41Z</time></trkpt><trkpt lat="39.45030197812957" lon="8.474364880215846"><ele>44.0</ele><time>2026-04-08T10:52:42Z</time></trkpt><trkpt lat="39.45027204580338" lon="8.474573747083491"><ele>44.0</ele><time>2026-04-08T10:52:43Z</time></trkpt><trkpt lat="39.45023809419526" lon="8.474785971643437"><ele>44.0</ele><time>2026-04-08T10:52:44Z</time></trkpt><trkpt lat="39.45019507358316" lon="8.474994767045736"><ele>44.0</ele><time>2026-04-08T10:52:44.999Z</time></trkpt><trkpt lat="39.450165103169994" lon="8.47518901725502"><ele>44.0</ele><time>2026-04-08T10:52:45.999Z</time></trkpt><trkpt lat="39.450139613344156" lon="8.475377175365928"><ele>44.0</ele><time>2026-04-08T10:52:46.999Z</time></trkpt><trkpt lat="39.45011227791478" lon="8.475559809914754"><ele>44.0</ele><time>2026-04-08T10:52:47.999Z</time></trkpt><trkpt lat="39.45008542945396" lon="8.475736815323001"><ele>44.0</ele><time>2026-04-08T10:52:48.999Z</time></trkpt><trkpt lat="39.45007609233126" lon="8.47591686727311"><ele>42.5</ele><time>2026-04-08T10:52:49.999Z</time></trkpt><trkpt lat="39.4500995614437" lon="8.476099156409303"><ele>41.0</ele><time>2026-04-08T10:52:50.999Z</time></trkpt><trkpt lat="39.45014438244537" lon="8.47628915371723"><ele>39.5</ele><time>2026-04-08T10:52:51.999Z</time></trkpt><trkpt lat="39.45018530103466" lon="8.476477885507748"><ele>38.0</ele><time>2026-04-08T10:52:52.999Z</time></trkpt><trkpt lat="39.45022091592114" lon="8.476666754621826"><ele>38.0</ele><time>2026-04-08T10:52:53.999Z</time></trkpt><trkpt lat="39.450258464525945" lon="8.476850558441773"><ele>38.0</ele><time>2026-04-08T10:52:54.999Z</time></trkpt><trkpt lat="39.450302337192745" lon="8.477030927497447"><ele>38.0</ele><time>2026-04-08T10:52:55.999Z</time></trkpt><trkpt lat="39.45034177508033" lon="8.477220102321578"><ele>38.0</ele><time>2026-04-08T10:52:56.999Z</time></trkpt><trkpt lat="39.450378534048916" lon="8.477408901751508"><ele>38.0</ele><time>2026-04-08T10:52:57.999Z</time></trkpt><trkpt lat="39.45041508689291" lon="8.4775992720542"><ele>38.0</ele><time>2026-04-08T10:52:58.999Z</time></trkpt><trkpt lat="39.45045191186864" lon="8.477775643251327"><ele>38.0</ele><time>2026-04-08T10:52:59.999Z</time></trkpt><trkpt lat="39.450480751340336" lon="8.477944963158864"><ele>38.0</ele><time>2026-04-08T10:53:00.999Z</time></trkpt><trkpt lat="39.45051006639744" lon="8.478105677435023"><ele>38.0</ele><time>2026-04-08T10:53:01.999Z</time></trkpt><trkpt lat="39.45055206587143" lon="8.478245820523574"><ele>38.0</ele><time>2026-04-08T10:53:02.999Z</time></trkpt><trkpt lat="39.45063203766151" lon="8.478349842319425"><ele>38.0</ele><time>2026-04-08T10:53:03.999Z</time></trkpt><trkpt lat="39.45074215477973" lon="8.478423393993525"><ele>38.0</ele><time>2026-04-08T10:53:04.999Z</time></trkpt><trkpt lat="39.450859533217724" lon="8.478456724605497"><ele>38.0</ele><time>2026-04-08T10:53:05.999Z</time></trkpt><trkpt lat="39.45098138292034" lon="8.478448493585908"><ele>38.0</ele><time>2026-04-08T10:53:06.999Z</time></trkpt><trkpt lat="39.45110401397965" lon="8.478416186871193"><ele>38.0</ele><time>2026-04-08T10:53:07.999Z</time></trkpt><trkpt lat="39.4512238803099" lon="8.478420664470296"><ele>38.0</ele><time>2026-04-08T10:53:08.999Z</time></trkpt><trkpt lat="39.45133515032587" lon="8.478507186251145"><ele>37.25</ele><time>2026-04-08T10:53:09.999Z</time></trkpt><trkpt lat="39.4514641163791" lon="8.478568416139044"><ele>36.5</ele><time>2026-04-08T10:53:10.999Z</time></trkpt><trkpt lat="39.4515861555341" lon="8.478637999183935"><ele>35.75</ele><time>2026-04-08T10:53:11.999Z</time></trkpt><trkpt lat="39.45171271462292" lon="8.478702412822539"><ele>35.0</ele><time>2026-04-08T10:53:12.999Z</time></trkpt><trkpt lat="39.45183951069984" lon="8.478759709949506"><ele>35.0</ele><time>2026-04-08T10:53:13.999Z</time></trkpt><trkpt lat="39.45195793898089" lon="8.478804030135663"><ele>35.0</ele><time>2026-04-08T10:53:14.999Z</time></trkpt><trkpt lat="39.45206822209885" lon="8.478833322322162"><ele>35.0</ele><time>2026-04-08T10:53:15.999Z</time></trkpt><trkpt lat="39.45217186059194" lon="8.478850678936515"><ele>35.0</ele><time>2026-04-08T10:53:16.999Z</time></trkpt><trkpt lat="39.45228116115235" lon="8.478871941321083"><ele>35.0</ele><time>2026-04-08T10:53:17.999Z</time></trkpt><trkpt lat="39.45239183555409" lon="8.47889772295096"><ele>35.0</ele><time>2026-04-08T10:53:18.999Z</time></trkpt><trkpt lat="39.452502353424265" lon="8.478923271573137"><ele>35.0</ele><time>2026-04-08T10:53:19.999Z</time></trkpt><trkpt lat="39.452612278238945" lon="8.478944480436498"><ele>35.0</ele><time>2026-04-08T10:53:20.999Z</time></trkpt><trkpt lat="39.45271766475174" lon="8.478971299410478"><ele>35.0</ele><time>2026-04-08T10:53:21.999Z</time></trkpt><trkpt lat="39.45282036298923" lon="8.479010209498188"><ele>35.0</ele><time>2026-04-08T10:53:22.999Z</time></trkpt><trkpt lat="39.45290618088849" lon="8.479056103799428"><ele>35.0</ele><time>2026-04-08T10:53:23.999Z</time></trkpt><trkpt lat="39.452978937163664" lon="8.479118865061384"><ele>35.0</ele><time>2026-04-08T10:53:24.998Z</time></trkpt><trkpt lat="39.4530281449306" lon="8.479196821530588"><ele>35.0</ele><time>2026-04-08T10:53:25.998Z</time></trkpt><trkpt lat="39.45312170609239" lon="8.47927892130157"><ele>35.0</ele><time>2026-04-08T10:53:27.998Z</time></trkpt><trkpt lat="39.45321018471859" lon="8.479285199814367"><ele>35.2</ele><time>2026-04-08T10:53:34.998Z</time></trkpt><trkpt lat="39.45329133353201" lon="8.479171176851253"><ele>35.4</ele><time>2026-04-08T10:53:35.998Z</time></trkpt><trkpt lat="39.45334685081172" lon="8.479082239287157"><ele>35.6</ele><time>2026-04-08T10:53:36.998Z</time></trkpt><trkpt lat="39.45340830370415" lon="8.478994497048973"><ele>35.8</ele><time>2026-04-08T10:53:37.998Z</time></trkpt><trkpt lat="39.45348097431398" lon="8.47889051957723"><ele>36.0</ele><time>2026-04-08T10:53:38.998Z</time></trkpt><trkpt lat="39.45356300345131" lon="8.478766632131904"><ele>36.0</ele><time>2026-04-08T10:53:39.998Z</time></trkpt><trkpt lat="39.45363536612161" lon="8.478654224078149"><ele>36.0</ele><time>2026-04-08T10:53:40.998Z</time></trkpt><trkpt lat="39.45371492365128" lon="8.478561199524309"><ele>36.0</ele><time>2026-04-08T10:53:41.998Z</time></trkpt><trkpt lat="39.45382402034905" lon="8.47849157692478"><ele>36.0</ele><time>2026-04-08T10:53:42.998Z</time></trkpt><trkpt lat="39.45396070174572" lon="8.478497146675535"><ele>37.0</ele><time>2026-04-08T10:53:43.998Z</time></trkpt><trkpt lat="39.454106602091336" lon="8.478492721785269"><ele>38.0</ele><time>2026-04-08T10:53:44.998Z</time></trkpt><trkpt lat="39.45427175077017" lon="8.478474916386185"><ele>39.0</ele><time>2026-04-08T10:53:45.998Z</time></trkpt><trkpt lat="39.45446075787342" lon="8.478469287441955"><ele>39.0</ele><time>2026-04-08T10:53:46.998Z</time></trkpt><trkpt lat="39.4546494700099" lon="8.478462778665659"><ele>39.0</ele><time>2026-04-08T10:53:47.998Z</time></trkpt><trkpt lat="39.454818369510036" lon="8.478480749871846"><ele>39.0</ele><time>2026-04-08T10:53:48.998Z</time></trkpt><trkpt lat="39.45499184350935" lon="8.478477919555711"><ele>39.0</ele><time>2026-04-08T10:53:49.998Z</time></trkpt><trkpt lat="39.45516346220277" lon="8.478475092402205"><ele>39.0</ele><time>2026-04-08T10:53:50.998Z</time></trkpt><trkpt lat="39.45533208939847" lon="8.478472314527497"><ele>39.0</ele><time>2026-04-08T10:53:51.998Z</time></trkpt><trkpt lat="39.455496455654604" lon="8.478450480652626"><ele>40.0</ele><time>2026-04-08T10:53:52.998Z</time></trkpt><trkpt lat="39.45566623653158" lon="8.478456067637351"><ele>41.0</ele><time>2026-04-08T10:53:53.998Z</time></trkpt><trkpt lat="39.455839714464354" lon="8.478458170316765"><ele>42.0</ele><time>2026-04-08T10:53:54.998Z</time></trkpt><trkpt lat="39.456011357587826" lon="8.478492269048308"><ele>42.0</ele><time>2026-04-08T10:53:55.998Z</time></trkpt><trkpt lat="39.45618307855304" lon="8.478512571651388"><ele>42.0</ele><time>2026-04-08T10:53:56.998Z</time></trkpt><trkpt lat="39.45634698102602" lon="8.478519873195259"><ele>42.0</ele><time>2026-04-08T10:53:57.998Z</time></trkpt><trkpt lat="39.45649949150584" lon="8.478539726347568"><ele>43.333333333333336</ele><time>2026-04-08T10:53:58.998Z</time></trkpt><trkpt lat="39.45665323203434" lon="8.478525650392232"><ele>44.66666666666667</ele><time>2026-04-08T10:53:59.998Z</time></trkpt><trkpt lat="39.456815038626814" lon="8.47850353454922"><ele>46.0</ele><time>2026-04-08T10:54:00.998Z</time></trkpt><trkpt lat="39.45697106563576" lon="8.478440107071913"><ele>47.0</ele><time>2026-04-08T10:54:01.998Z</time></trkpt><trkpt lat="39.45712260218379" lon="8.47837377864263"><ele>48.0</ele><time>2026-04-08T10:54:02.997Z</time></trkpt><trkpt lat="39.45727712438189" lon="8.478311402152492"><ele>49.0</ele><time>2026-04-08T10:54:03.997Z</time></trkpt><trkpt lat="39.45744747781634" lon="8.47831256869931"><ele>49.0</ele><time>2026-04-08T10:54:04.997Z</time></trkpt><trkpt lat="39.457621652229435" lon="8.478370839776378"><ele>49.0</ele><time>2026-04-08T10:54:05.997Z</time></trkpt><trkpt lat="39.45779959543491" lon="8.478428459282538"><ele>49.0</ele><time>2026-04-08T10:54:06.997Z</time></trkpt><trkpt lat="39.45798635398938" lon="8.478470221445415"><ele>51.666666666666664</ele><time>2026-04-08T10:54:07.997Z</time></trkpt><trkpt lat="39.45817499313795" lon="8.478536285396016"><ele>54.33333333333333</ele><time>2026-04-08T10:54:08.997Z</time></trkpt><trkpt lat="39.458367628839326" lon="8.47860639186274"><ele>57.0</ele><time>2026-04-08T10:54:09.997Z</time></trkpt><trkpt lat="39.458559046063606" lon="8.478665841697673"><ele>57.0</ele><time>2026-04-08T10:54:10.997Z</time></trkpt><trkpt lat="39.45875588965066" lon="8.47870919026719"><ele>57.0</ele><time>2026-04-08T10:54:11.997Z</time></trkpt><trkpt lat="39.45895075754081" lon="8.478738590766348"><ele>57.0</ele><time>2026-04-08T10:54:12.997Z</time></trkpt><trkpt lat="39.45913789987669" lon="8.478758854457329"><ele>55.66666666666667</ele><time>2026-04-08T10:54:13.997Z</time></trkpt><trkpt lat="39.45931601658616" lon="8.478770077550335"><ele>54.333333333333336</ele><time>2026-04-08T10:54:14.997Z</time></trkpt><trkpt lat="39.459484311342855" lon="8.478768034418959"><ele>53.0</ele><time>2026-04-08T10:54:15.997Z</time></trkpt><trkpt lat="39.45963580765267" lon="8.478761518497379"><ele>55.25</ele><time>2026-04-08T10:54:16.997Z</time></trkpt><trkpt lat="39.459764027196776" lon="8.478763147971865"><ele>57.5</ele><time>2026-04-08T10:54:17.997Z</time></trkpt><trkpt lat="39.459873623360394" lon="8.478812668054804"><ele>59.75</ele><time>2026-04-08T10:54:18.997Z</time></trkpt><trkpt lat="39.45996242974734" lon="8.478936687214045"><ele>62.0</ele><time>2026-04-08T10:54:20Z</time></trkpt><trkpt lat="39.4600429179876" lon="8.479090824297112"><ele>62.0</ele><time>2026-04-08T10:54:21Z</time></trkpt><trkpt lat="39.460164351434116" lon="8.479221540998818"><ele>62.0</ele><time>2026-04-08T10:54:22Z</time></trkpt><trkpt lat="39.46031671491496" lon="8.47934080572177"><ele>62.0</ele><time>2026-04-08T10:54:23Z</time></trkpt><trkpt lat="39.46046122545382" lon="8.479464602017782"><ele>61.75</ele><time>2026-04-08T10:54:24Z</time></trkpt><trkpt lat="39.46058948300722" lon="8.479577484517213"><ele>61.5</ele><time>2026-04-08T10:54:25Z</time></trkpt><trkpt lat="39.460702443301685" lon="8.47967870866697"><ele>61.25</ele><time>2026-04-08T10:54:26Z</time></trkpt><trkpt lat="39.460823497584094" lon="8.479741913182108"><ele>61.0</ele><time>2026-04-08T10:54:27Z</time></trkpt><trkpt lat="39.46095521245393" lon="8.479750512972954"><ele>61.0</ele><time>2026-04-08T10:54:28Z</time></trkpt><trkpt lat="39.46107591794061" lon="8.479688474898355"><ele>61.0</ele><time>2026-04-08T10:54:29Z</time></trkpt><trkpt lat="39.46118741396557" lon="8.47956515189902"><ele>61.0</ele><time>2026-04-08T10:54:30Z</time></trkpt><trkpt lat="39.46128741372772" lon="8.479389947056694"><ele>61.0</ele><time>2026-04-08T10:54:31Z</time></trkpt><trkpt lat="39.46141933432626" lon="8.479217971094144"><ele>65.0</ele><time>2026-04-08T10:54:32Z</time></trkpt><trkpt lat="39.461542353130255" lon="8.479024180032585"><ele>69.0</ele><time>2026-04-08T10:54:33Z</time></trkpt><trkpt lat="39.46164488758528" lon="8.478811877076236"><ele>73.0</ele><time>2026-04-08T10:54:34Z</time></trkpt><trkpt lat="39.461747504219424" lon="8.478605382691923"><ele>77.66666666666666</ele><time>2026-04-08T10:54:35Z</time></trkpt><trkpt lat="39.46186312473274" lon="8.47841245736926"><ele>82.33333333333333</ele><time>2026-04-08T10:54:36Z</time></trkpt><trkpt lat="39.46197764415677" lon="8.478247715326452"><ele>87.0</ele><time>2026-04-08T10:54:37Z</time></trkpt><trkpt lat="39.46208487751322" lon="8.478121291028417"><ele>86.0</ele><time>2026-04-08T10:54:38Z</time></trkpt><trkpt lat="39.46222128931409" lon="8.478057373775574"><ele>85.0</ele><time>2026-04-08T10:54:39Z</time></trkpt><trkpt lat="39.462385194550905" lon="8.478039221591578"><ele>84.0</ele><time>2026-04-08T10:54:40Z</time></trkpt><trkpt lat="39.46254731154188" lon="8.478015778312196"><ele>89.33333333333334</ele><time>2026-04-08T10:54:41Z</time></trkpt><trkpt lat="39.46272770533705" lon="8.47789103933924"><ele>94.66666666666667</ele><time>2026-04-08T10:54:42Z</time></trkpt><trkpt lat="39.46288635651473" lon="8.47777090819632"><ele>100.0</ele><time>2026-04-08T10:54:43Z</time></trkpt><trkpt lat="39.46302419398361" lon="8.477656702873608"><ele>100.0</ele><time>2026-04-08T10:54:44Z</time></trkpt><trkpt lat="39.463131900278896" lon="8.477549382411448"><ele>100.0</ele><time>2026-04-08T10:54:45Z</time></trkpt><trkpt lat="39.46321343914796" lon="8.47745202872628"><ele>100.0</ele><time>2026-04-08T10:54:46Z</time></trkpt><trkpt lat="39.463293618877" lon="8.477402710874886"><ele>100.0</ele><time>2026-04-08T10:54:47Z</time></trkpt><trkpt lat="39.4633775099292" lon="8.47742555316487"><ele>100.0</ele><time>2026-04-08T10:54:48Z</time></trkpt><trkpt lat="39.46343862092687" lon="8.477508717322737"><ele>100.0</ele><time>2026-04-08T10:54:49Z</time></trkpt><trkpt lat="39.46343823047731" lon="8.477644966417946"><ele>100.0</ele><time>2026-04-08T10:54:50Z</time></trkpt><trkpt lat="39.46337865851603" lon="8.47778793087608"><ele>100.0</ele><time>2026-04-08T10:54:51Z</time></trkpt><trkpt lat="39.46327022131078" lon="8.477934432955555"><ele>100.0</ele><time>2026-04-08T10:54:52Z</time></trkpt><trkpt lat="39.46314423225133" lon="8.478113641391007"><ele>101.66666666666667</ele><time>2026-04-08T10:54:52.999Z</time></trkpt><trkpt lat="39.46300226763712" lon="8.478327892337559"><ele>103.33333333333334</ele><time>2026-04-08T10:54:53.999Z</time></trkpt><trkpt lat="39.46287639427533" lon="8.478501843322872"><ele>105.0</ele><time>2026-04-08T10:54:54.999Z</time></trkpt><trkpt lat="39.46276041254989" lon="8.478662580277142"><ele>101.0</ele><time>2026-04-08T10:54:55.999Z</time></trkpt><trkpt lat="39.462668884433825" lon="8.47879424624465"><ele>97.0</ele><time>2026-04-08T10:54:56.999Z</time></trkpt><trkpt lat="39.462628862060576" lon="8.478933194422044"><ele>93.0</ele><time>2026-04-08T10:54:57.999Z</time></trkpt><trkpt lat="39.462653947726395" lon="8.479083773570066"><ele>89.0</ele><time>2026-04-08T10:54:58.999Z</time></trkpt><trkpt lat="39.462733757382985" lon="8.479240333595541"><ele>89.0</ele><time>2026-04-08T10:54:59.999Z</time></trkpt><trkpt lat="39.46283186783029" lon="8.479441680286131"><ele>89.0</ele><time>2026-04-08T10:55:00.999Z</time></trkpt><trkpt lat="39.46295707873402" lon="8.47966276559072"><ele>89.0</ele><time>2026-04-08T10:55:01.999Z</time></trkpt><trkpt lat="39.463075083372374" lon="8.479928093449491"><ele>90.0</ele><time>2026-04-08T10:55:02.999Z</time></trkpt><trkpt lat="39.46317744014864" lon="8.4801546658025"><ele>91.0</ele><time>2026-04-08T10:55:03.999Z</time></trkpt><trkpt lat="39.46326106689188" lon="8.480334389527487"><ele>92.0</ele><time>2026-04-08T10:55:04.999Z</time></trkpt><trkpt lat="39.46334010004597" lon="8.480510387295437"><ele>92.0</ele><time>2026-04-08T10:55:05.999Z</time></trkpt><trkpt lat="39.46341270763878" lon="8.48061681210099"><ele>92.0</ele><time>2026-04-08T10:55:06.999Z</time></trkpt><trkpt lat="39.46352249263513" lon="8.480654766267879"><ele>92.0</ele><time>2026-04-08T10:55:07.999Z</time></trkpt><trkpt lat="39.46366754387693" lon="8.480643958356405"><ele>92.0</ele><time>2026-04-08T10:55:08.999Z</time></trkpt><trkpt lat="39.46383920319338" lon="8.480627127652674"><ele>98.0</ele><time>2026-04-08T10:55:09.999Z</time></trkpt><trkpt lat="39.46404551521968" lon="8.480631436858596"><ele>104.0</ele><time>2026-04-08T10:55:10.999Z</time></trkpt><trkpt lat="39.46418120966255" lon="8.4806391788186"><ele>110.0</ele><time>2026-04-08T10:55:11.999Z</time></trkpt><trkpt lat="39.46429999721157" lon="8.48065661184286"><ele>110.0</ele><time>2026-04-08T10:55:12.999Z</time></trkpt><trkpt lat="39.4643850322287" lon="8.480697503309676"><ele>110.0</ele><time>2026-04-08T10:55:13.999Z</time></trkpt><trkpt lat="39.46441726061457" lon="8.480813097941859"><ele>110.0</ele><time>2026-04-08T10:55:14.999Z</time></trkpt><trkpt lat="39.46438863727617" lon="8.480955514011695"><ele>110.0</ele><time>2026-04-08T10:55:15.999Z</time></trkpt><trkpt lat="39.4643443454239" lon="8.481144846775717"><ele>108.0</ele><time>2026-04-08T10:55:16.999Z</time></trkpt><trkpt lat="39.46432792534998" lon="8.481334933957832"><ele>106.0</ele><time>2026-04-08T10:55:17.999Z</time></trkpt><trkpt lat="39.46436009272385" lon="8.481471672277735"><ele>104.0</ele><time>2026-04-08T10:55:18.999Z</time></trkpt><trkpt lat="39.464464308928626" lon="8.481557606257237"><ele>102.0</ele><time>2026-04-08T10:55:19.999Z</time></trkpt><trkpt lat="39.46459983600293" lon="8.481586682833136"><ele>108.66666666666666</ele><time>2026-04-08T10:55:20.999Z</time></trkpt><trkpt lat="39.464743467043185" lon="8.481542210927415"><ele>115.33333333333333</ele><time>2026-04-08T10:55:21.999Z</time></trkpt><trkpt lat="39.46492581400768" lon="8.481464428970801"><ele>122.0</ele><time>2026-04-08T10:55:22.999Z</time></trkpt><trkpt lat="39.4651245171006" lon="8.481403981744899"><ele>122.0</ele><time>2026-04-08T10:55:23.999Z</time></trkpt><trkpt lat="39.46530865652443" lon="8.4814097132446"><ele>122.0</ele><time>2026-04-08T10:55:24.999Z</time></trkpt><trkpt lat="39.465468663604774" lon="8.481448295153111"><ele>122.0</ele><time>2026-04-08T10:55:25.999Z</time></trkpt><trkpt lat="39.46561600268874" lon="8.481505048271048"><ele>127.5</ele><time>2026-04-08T10:55:26.999Z</time></trkpt><trkpt lat="39.46571418311201" lon="8.48157044381503"><ele>133.0</ele><time>2026-04-08T10:55:27.999Z</time></trkpt><trkpt lat="39.465792352023584" lon="8.481645413798915"><ele>138.5</ele><time>2026-04-08T10:55:28.999Z</time></trkpt><trkpt lat="39.4657735194069" lon="8.481784003929173"><ele>144.0</ele><time>2026-04-08T10:55:29.999Z</time></trkpt><trkpt lat="39.465652870811056" lon="8.481916025218458"><ele>144.0</ele><time>2026-04-08T10:55:30.999Z</time></trkpt><trkpt lat="39.46553234791352" lon="8.48201069199933"><ele>144.0</ele><time>2026-04-08T10:55:31.998Z</time></trkpt><trkpt lat="39.46539528181419" lon="8.482125138957969"><ele>144.0</ele><time>2026-04-08T10:55:32.998Z</time></trkpt><trkpt lat="39.46524460926132" lon="8.482242475813653"><ele>139.0</ele><time>2026-04-08T10:55:33.998Z</time></trkpt><trkpt lat="39.46516460686767" lon="8.482385263530675"><ele>134.0</ele><time>2026-04-08T10:55:34.998Z</time></trkpt><trkpt lat="39.46514184934739" lon="8.48257329454579"><ele>129.0</ele><time>2026-04-08T10:55:35.998Z</time></trkpt><trkpt lat="39.46518225495876" lon="8.48276405787975"><ele>124.0</ele><time>2026-04-08T10:55:36.998Z</time></trkpt><trkpt lat="39.46527486770568" lon="8.48290163438947"><ele>127.5</ele><time>2026-04-08T10:55:37.998Z</time></trkpt><trkpt lat="39.465347472793326" lon="8.48302678368098"><ele>131.0</ele><time>2026-04-08T10:55:38.998Z</time></trkpt><trkpt lat="39.465277886313395" lon="8.483179272225255"><ele>134.5</ele><time>2026-04-08T10:55:39.998Z</time></trkpt><trkpt lat="39.465178750074294" lon="8.483253293602866"><ele>138.0</ele><time>2026-04-08T10:55:40.998Z</time></trkpt><trkpt lat="39.46506047275885" lon="8.483340007613497"><ele>138.0</ele><time>2026-04-08T10:55:41.998Z</time></trkpt><trkpt lat="39.46496081757287" lon="8.483438315990595"><ele>138.0</ele><time>2026-04-08T10:55:42.998Z</time></trkpt><trkpt lat="39.464903619166016" lon="8.483613586811146"><ele>138.0</ele><time>2026-04-08T10:55:43.998Z</time></trkpt><trkpt lat="39.4648273512191" lon="8.483794061815232"><ele>138.0</ele><time>2026-04-08T10:55:44.998Z</time></trkpt><trkpt lat="39.46480482123928" lon="8.483933283294386"><ele>139.75</ele><time>2026-04-08T10:55:45.998Z</time></trkpt><trkpt lat="39.464864168477796" lon="8.484100382664423"><ele>141.5</ele><time>2026-04-08T10:55:46.998Z</time></trkpt><trkpt lat="39.46496601300523" lon="8.484217179067262"><ele>143.25</ele><time>2026-04-08T10:55:47.998Z</time></trkpt><trkpt lat="39.46511783173008" lon="8.484293894768763"><ele>145.0</ele><time>2026-04-08T10:55:48.998Z</time></trkpt><trkpt lat="39.46529896446399" lon="8.484361346459588"><ele>148.0</ele><time>2026-04-08T10:55:49.998Z</time></trkpt><trkpt lat="39.46551323255007" lon="8.4845021617193"><ele>151.0</ele><time>2026-04-08T10:55:50.998Z</time></trkpt><trkpt lat="39.46567792160199" lon="8.484607111621658"><ele>154.0</ele><time>2026-04-08T10:55:51.998Z</time></trkpt><trkpt lat="39.46579789619223" lon="8.484729378998011"><ele>154.0</ele><time>2026-04-08T10:55:52.998Z</time></trkpt><trkpt lat="39.46587344371818" lon="8.484889372323519"><ele>154.0</ele><time>2026-04-08T10:55:53.998Z</time></trkpt><trkpt lat="39.465941198039346" lon="8.485104780407571"><ele>154.0</ele><time>2026-04-08T10:55:54.998Z</time></trkpt><trkpt lat="39.46602823350281" lon="8.485331677819893"><ele>151.5</ele><time>2026-04-08T10:55:55.998Z</time></trkpt><trkpt lat="39.466126179415795" lon="8.485500438040637"><ele>149.0</ele><time>2026-04-08T10:55:56.998Z</time></trkpt><trkpt lat="39.466243802644925" lon="8.48558368465654"><ele>146.5</ele><time>2026-04-08T10:55:57.998Z</time></trkpt><trkpt lat="39.4663387616029" lon="8.485650606129138"><ele>144.0</ele><time>2026-04-08T10:55:58.998Z</time></trkpt><trkpt lat="39.46633990619557" lon="8.485783386843641"><ele>149.4</ele><time>2026-04-08T10:55:59.998Z</time></trkpt><trkpt lat="39.46633189206623" lon="8.485947510591528"><ele>154.8</ele><time>2026-04-08T10:56:00.998Z</time></trkpt><trkpt lat="39.46634771785974" lon="8.486083896914897"><ele>160.20000000000002</ele><time>2026-04-08T10:56:01.998Z</time></trkpt><trkpt lat="39.46639820976999" lon="8.48618997165393"><ele>165.60000000000002</ele><time>2026-04-08T10:56:02.998Z</time></trkpt><trkpt lat="39.46651327419331" lon="8.486229305620075"><ele>171.0</ele><time>2026-04-08T10:56:03.998Z</time></trkpt><trkpt lat="39.46666371838335" lon="8.486215245481532"><ele>171.0</ele><time>2026-04-08T10:56:04.998Z</time></trkpt><trkpt lat="39.46678711004746" lon="8.48625244144927"><ele>171.0</ele><time>2026-04-08T10:56:05.998Z</time></trkpt><trkpt lat="39.466819370947015" lon="8.486428121910713"><ele>171.0</ele><time>2026-04-08T10:56:06.998Z</time></trkpt><trkpt lat="39.46674990509146" lon="8.486601887370194"><ele>171.0</ele><time>2026-04-08T10:56:07.998Z</time></trkpt><trkpt lat="39.466682594196634" lon="8.486781390824374"><ele>170.0</ele><time>2026-04-08T10:56:08.998Z</time></trkpt><trkpt lat="39.466624795213384" lon="8.486969149333667"><ele>169.0</ele><time>2026-04-08T10:56:09.998Z</time></trkpt><trkpt lat="39.46663363496184" lon="8.487114874270473"><ele>168.0</ele><time>2026-04-08T10:56:10.997Z</time></trkpt><trkpt lat="39.46672028982458" lon="8.48728483457544"><ele>167.0</ele><time>2026-04-08T10:56:11.997Z</time></trkpt><trkpt lat="39.466788193708354" lon="8.487444768262856"><ele>167.0</ele><time>2026-04-08T10:56:12.997Z</time></trkpt><trkpt lat="39.46679045139177" lon="8.487615865852066"><ele>167.0</ele><time>2026-04-08T10:56:13.997Z</time></trkpt><trkpt lat="39.466714446322456" lon="8.487738176537363"><ele>167.0</ele><time>2026-04-08T10:56:14.997Z</time></trkpt><trkpt lat="39.4666571139592" lon="8.487896029647327"><ele>167.0</ele><time>2026-04-08T10:56:15.997Z</time></trkpt><trkpt lat="39.46667730476177" lon="8.488059563881082"><ele>166.0</ele><time>2026-04-08T10:56:16.997Z</time></trkpt><trkpt lat="39.46674976337588" lon="8.488184993794835"><ele>165.0</ele><time>2026-04-08T10:56:17.997Z</time></trkpt><trkpt lat="39.46688063827932" lon="8.488254270844418"><ele>164.0</ele><time>2026-04-08T10:56:18.997Z</time></trkpt><trkpt lat="39.46702184569674" lon="8.488343638019119"><ele>163.0</ele><time>2026-04-08T10:56:19.997Z</time></trkpt><trkpt lat="39.46716263890278" lon="8.488371458438891"><ele>167.33333333333334</ele><time>2026-04-08T10:56:20.997Z</time></trkpt><trkpt lat="39.46729645445952" lon="8.488303304679654"><ele>171.66666666666666</ele><time>2026-04-08T10:56:21.997Z</time></trkpt><trkpt lat="39.46741583308927" lon="8.488183168302628"><ele>176.0</ele><time>2026-04-08T10:56:22.997Z</time></trkpt><trkpt lat="39.467585195513585" lon="8.48809202449113"><ele>176.0</ele><time>2026-04-08T10:56:23.997Z</time></trkpt><trkpt lat="39.467775695888186" lon="8.488024071914515"><ele>176.0</ele><time>2026-04-08T10:56:25Z</time></trkpt><trkpt lat="39.46798332956521" lon="8.487987941987566"><ele>176.0</ele><time>2026-04-08T10:56:26Z</time></trkpt><trkpt lat="39.468144143209805" lon="8.487950413653824"><ele>179.5</ele><time>2026-04-08T10:56:27Z</time></trkpt><trkpt lat="39.468260934858186" lon="8.487906284586503"><ele>183.0</ele><time>2026-04-08T10:56:28Z</time></trkpt><trkpt lat="39.468376422126276" lon="8.487915597470066"><ele>186.5</ele><time>2026-04-08T10:56:29Z</time></trkpt><trkpt lat="39.46845683524746" lon="8.4879485178224"><ele>190.0</ele><time>2026-04-08T10:56:30Z</time></trkpt><trkpt lat="39.46854316330257" lon="8.488079113864133"><ele>190.0</ele><time>2026-04-08T10:56:31Z</time></trkpt><trkpt lat="39.46854923237892" lon="8.48823786456485"><ele>190.0</ele><time>2026-04-08T10:56:32Z</time></trkpt><trkpt lat="39.468510385857634" lon="8.488367422977523"><ele>190.0</ele><time>2026-04-08T10:56:33Z</time></trkpt><trkpt lat="39.46849009877761" lon="8.48853854383701"><ele>190.0</ele><time>2026-04-08T10:56:34Z</time></trkpt><trkpt lat="39.46843732956036" lon="8.48877794748761"><ele>189.5</ele><time>2026-04-08T10:56:35Z</time></trkpt><trkpt lat="39.46841967599207" lon="8.488941056243469"><ele>189.0</ele><time>2026-04-08T10:56:36Z</time></trkpt><trkpt lat="39.46843304122102" lon="8.489120226232188"><ele>188.5</ele><time>2026-04-08T10:56:37Z</time></trkpt><trkpt lat="39.46850054470414" lon="8.489273606782097"><ele>188.0</ele><time>2026-04-08T10:56:38Z</time></trkpt><trkpt lat="39.46862209298512" lon="8.489391003596328"><ele>189.0</ele><time>2026-04-08T10:56:39Z</time></trkpt><trkpt lat="39.468794804323025" lon="8.489485635826794"><ele>190.0</ele><time>2026-04-08T10:56:40Z</time></trkpt><trkpt lat="39.46899989143911" lon="8.489600975977764"><ele>191.0</ele><time>2026-04-08T10:56:41Z</time></trkpt><trkpt lat="39.46922495581767" lon="8.489751445050262"><ele>191.0</ele><time>2026-04-08T10:56:42Z</time></trkpt><trkpt lat="39.469432881811166" lon="8.48991671483634"><ele>191.0</ele><time>2026-04-08T10:56:43Z</time></trkpt><trkpt lat="39.469620778487304" lon="8.490057048739683"><ele>196.0</ele><time>2026-04-08T10:56:44Z</time></trkpt><trkpt lat="39.469762233015814" lon="8.490225840510254"><ele>201.0</ele><time>2026-04-08T10:56:45Z</time></trkpt><trkpt lat="39.46986592230281" lon="8.490415733541482"><ele>206.0</ele><time>2026-04-08T10:56:46Z</time></trkpt><trkpt lat="39.469984310215395" lon="8.490630799035483"><ele>206.0</ele><time>2026-04-08T10:56:47Z</time></trkpt><trkpt lat="39.47008252457233" lon="8.490826353941475"><ele>206.0</ele><time>2026-04-08T10:56:48Z</time></trkpt><trkpt lat="39.470245151920416" lon="8.49095351163418"><ele>206.0</ele><time>2026-04-08T10:56:49Z</time></trkpt><trkpt lat="39.47044283299118" lon="8.491034573722905"><ele>211.66666666666669</ele><time>2026-04-08T10:56:50Z</time></trkpt><trkpt lat="39.470654450591994" lon="8.491090390562775"><ele>217.33333333333331</ele><time>2026-04-08T10:56:51Z</time></trkpt><trkpt lat="39.47084130623144" lon="8.49113295761325"><ele>223.0</ele><time>2026-04-08T10:56:52Z</time></trkpt><trkpt lat="39.471014430238476" lon="8.491116453178215"><ele>223.0</ele><time>2026-04-08T10:56:53Z</time></trkpt><trkpt lat="39.4711659568692" lon="8.491066503215508"><ele>223.0</ele><time>2026-04-08T10:56:54Z</time></trkpt><trkpt lat="39.471308535986495" lon="8.491046656697254"><ele>223.0</ele><time>2026-04-08T10:56:54.999Z</time></trkpt><trkpt lat="39.47146202943123" lon="8.491039398849328"><ele>223.66666666666666</ele><time>2026-04-08T10:56:55.999Z</time></trkpt><trkpt lat="39.47165342512685" lon="8.491056762263483"><ele>224.33333333333331</ele><time>2026-04-08T10:56:56.999Z</time></trkpt><trkpt lat="39.47185182162506" lon="8.491090925606118"><ele>225.0</ele><time>2026-04-08T10:56:57.999Z</time></trkpt><trkpt lat="39.472055189609584" lon="8.49112460560387"><ele>228.0</ele><time>2026-04-08T10:56:58.999Z</time></trkpt><trkpt lat="39.47224663661993" lon="8.49115539121938"><ele>231.0</ele><time>2026-04-08T10:56:59.999Z</time></trkpt><trkpt lat="39.472410244181184" lon="8.491185714862107"><ele>234.0</ele><time>2026-04-08T10:57:00.999Z</time></trkpt><trkpt lat="39.472551677161746" lon="8.491192650694726"><ele>234.0</ele><time>2026-04-08T10:57:01.999Z</time></trkpt><trkpt lat="39.47266429041784" lon="8.49123084821444"><ele>234.0</ele><time>2026-04-08T10:57:02.999Z</time></trkpt><trkpt lat="39.472749176817544" lon="8.491278947299293"><ele>234.0</ele><time>2026-04-08T10:57:03.999Z</time></trkpt><trkpt lat="39.47279083975757" lon="8.491391019971577"><ele>234.0</ele><time>2026-04-08T10:57:04.999Z</time></trkpt><trkpt lat="39.472770055026864" lon="8.491586636087579"><ele>227.66666666666669</ele><time>2026-04-08T10:57:05.999Z</time></trkpt><trkpt lat="39.47276958362124" lon="8.491809495411495"><ele>221.33333333333334</ele><time>2026-04-08T10:57:06.999Z</time></trkpt><trkpt lat="39.472771290063854" lon="8.492023208976613"><ele>215.0</ele><time>2026-04-08T10:57:07.999Z</time></trkpt><trkpt lat="39.472830078086794" lon="8.49222238365706"><ele>210.0</ele><time>2026-04-08T10:57:08.999Z</time></trkpt><trkpt lat="39.47292463907764" lon="8.492393610131415"><ele>205.0</ele><time>2026-04-08T10:57:09.999Z</time></trkpt><trkpt lat="39.47305563989318" lon="8.492528743371123"><ele>200.0</ele><time>2026-04-08T10:57:10.999Z</time></trkpt><trkpt lat="39.47317183114933" lon="8.49264667419573"><ele>206.5</ele><time>2026-04-08T10:57:11.999Z</time></trkpt><trkpt lat="39.47324048948245" lon="8.492776434659078"><ele>213.0</ele><time>2026-04-08T10:57:12.999Z</time></trkpt><trkpt lat="39.47322170597897" lon="8.49295022555734"><ele>219.5</ele><time>2026-04-08T10:57:13.999Z</time></trkpt><trkpt lat="39.473207534727386" lon="8.49317875338982"><ele>226.0</ele><time>2026-04-08T10:57:14.999Z</time></trkpt><trkpt lat="39.473178504254385" lon="8.493378943467004"><ele>226.0</ele><time>2026-04-08T10:57:15.999Z</time></trkpt><trkpt lat="39.473244958854984" lon="8.493514983782527"><ele>226.0</ele><time>2026-04-08T10:57:16.999Z</time></trkpt><trkpt lat="39.473361643801624" lon="8.493628530071113"><ele>226.0</ele><time>2026-04-08T10:57:17.999Z</time></trkpt><trkpt lat="39.47353799959768" lon="8.493716002147236"><ele>226.0</ele><time>2026-04-08T10:57:18.999Z</time></trkpt><trkpt lat="39.473702614704564" lon="8.493737303492527"><ele>226.0</ele><time>2026-04-08T10:57:19.999Z</time></trkpt><trkpt lat="39.47388050711049" lon="8.493748566839919"><ele>226.0</ele><time>2026-04-08T10:57:20.999Z</time></trkpt><trkpt lat="39.4740063518432" lon="8.493837610695053"><ele>227.0</ele><time>2026-04-08T10:57:21.999Z</time></trkpt><trkpt lat="39.47416343886326" lon="8.493965372347525"><ele>228.0</ele><time>2026-04-08T10:57:22.999Z</time></trkpt><trkpt lat="39.47430800526778" lon="8.494082825065298"><ele>229.0</ele><time>2026-04-08T10:57:23.999Z</time></trkpt><trkpt lat="39.47450271757189" lon="8.49415231688148"><ele>237.5</ele><time>2026-04-08T10:57:24.999Z</time></trkpt><trkpt lat="39.474704438637765" lon="8.494203897559117"><ele>246.0</ele><time>2026-04-08T10:57:25.999Z</time></trkpt><trkpt lat="39.47496355462801" lon="8.494290744600915"><ele>246.0</ele><time>2026-04-08T10:57:26.999Z</time></trkpt><trkpt lat="39.47517064496439" lon="8.4943757019167"><ele>246.0</ele><time>2026-04-08T10:57:27.999Z</time></trkpt><trkpt lat="39.47530795891038" lon="8.494431583749245"><ele>246.0</ele><time>2026-04-08T10:57:28.999Z</time></trkpt><trkpt lat="39.47546077996117" lon="8.494445187602658"><ele>245.25</ele><time>2026-04-08T10:57:29.999Z</time></trkpt><trkpt lat="39.47556931614481" lon="8.49437673723804"><ele>244.5</ele><time>2026-04-08T10:57:30.999Z</time></trkpt><trkpt lat="39.4756587671297" lon="8.494271818354843"><ele>243.75</ele><time>2026-04-08T10:57:31.999Z</time></trkpt><trkpt lat="39.475728291918024" lon="8.49411336933505"><ele>243.0</ele><time>2026-04-08T10:57:32.999Z</time></trkpt><trkpt lat="39.475805491366835" lon="8.493892737294074"><ele>249.75</ele><time>2026-04-08T10:57:33.999Z</time></trkpt><trkpt lat="39.475883403128684" lon="8.493710780805515"><ele>256.5</ele><time>2026-04-08T10:57:34.998Z</time></trkpt><trkpt lat="39.47597987533929" lon="8.493589676901506"><ele>263.25</ele><time>2026-04-08T10:57:35.998Z</time></trkpt><trkpt lat="39.47608718249746" lon="8.493564094955586"><ele>270.0</ele><time>2026-04-08T10:57:36.998Z</time></trkpt><trkpt lat="39.47621014767228" lon="8.493607937689713"><ele>270.5</ele><time>2026-04-08T10:57:37.998Z</time></trkpt><trkpt lat="39.47632689574422" lon="8.493721218507627"><ele>271.0</ele><time>2026-04-08T10:57:38.998Z</time></trkpt><trkpt lat="39.476425766750275" lon="8.49381708488587"><ele>271.5</ele><time>2026-04-08T10:57:39.998Z</time></trkpt><trkpt lat="39.47654636664026" lon="8.4938017571415"><ele>272.0</ele><time>2026-04-08T10:57:40.998Z</time></trkpt><trkpt lat="39.476671544606795" lon="8.493708302899577"><ele>272.0</ele><time>2026-04-08T10:57:41.998Z</time></trkpt><trkpt lat="39.47681211957668" lon="8.493606494940705"><ele>272.0</ele><time>2026-04-08T10:57:42.998Z</time></trkpt><trkpt lat="39.476917957237056" lon="8.493554872792364"><ele>272.0</ele><time>2026-04-08T10:57:43.998Z</time></trkpt><trkpt lat="39.47700892261133" lon="8.49358250021811"><ele>272.0</ele><time>2026-04-08T10:57:44.998Z</time></trkpt><trkpt lat="39.4770371610676" lon="8.493717891435294"><ele>263.6666666666667</ele><time>2026-04-08T10:57:45.998Z</time></trkpt><trkpt lat="39.477097093712665" lon="8.493801025973722"><ele>255.33333333333331</ele><time>2026-04-08T10:57:46.998Z</time></trkpt><trkpt lat="39.47702087066881" lon="8.494111481631734"><ele>247.0</ele><time>2026-04-08T10:57:47.998Z</time></trkpt><trkpt lat="39.47697682502413" lon="8.49430378276709"><ele>247.0</ele><time>2026-04-08T10:57:48.998Z</time></trkpt><trkpt lat="39.47696457486668" lon="8.494456261065114"><ele>247.0</ele><time>2026-04-08T10:57:49.998Z</time></trkpt><trkpt lat="39.476973368886334" lon="8.494584747080562"><ele>247.0</ele><time>2026-04-08T10:57:50.998Z</time></trkpt><trkpt lat="39.477013920499466" lon="8.494749282776365"><ele>247.0</ele><time>2026-04-08T10:57:51.998Z</time></trkpt><trkpt lat="39.47710101951361" lon="8.494877755996674"><ele>253.75</ele><time>2026-04-08T10:57:52.998Z</time></trkpt><trkpt lat="39.47721987210759" lon="8.494978692316774"><ele>260.5</ele><time>2026-04-08T10:57:53.998Z</time></trkpt><trkpt lat="39.47735860984698" lon="8.49503470388883"><ele>267.25</ele><time>2026-04-08T10:57:54.998Z</time></trkpt><trkpt lat="39.47744271464151" lon="8.495130773532642"><ele>274.0</ele><time>2026-04-08T10:57:55.998Z</time></trkpt><trkpt lat="39.477465942444" lon="8.495281460434109"><ele>274.0</ele><time>2026-04-08T10:57:56.998Z</time></trkpt><trkpt lat="39.47746873771598" lon="8.495452321707386"><ele>274.0</ele><time>2026-04-08T10:57:57.998Z</time></trkpt><trkpt lat="39.47742200671319" lon="8.495581496135944"><ele>274.0</ele><time>2026-04-08T10:57:58.998Z</time></trkpt><trkpt lat="39.47729769803541" lon="8.495611632873496"><ele>274.0</ele><time>2026-04-08T10:57:59.998Z</time></trkpt><trkpt lat="39.47718221280527" lon="8.495697125325723"><ele>274.0</ele><time>2026-04-08T10:58:00.998Z</time></trkpt><trkpt lat="39.477111189117" lon="8.495810395860206"><ele>274.0</ele><time>2026-04-08T10:58:01.998Z</time></trkpt><trkpt lat="39.47712178354566" lon="8.495969646229442"><ele>274.0</ele><time>2026-04-08T10:58:02.998Z</time></trkpt><trkpt lat="39.47721055335772" lon="8.496152522845689"><ele>274.0</ele><time>2026-04-08T10:58:03.998Z</time></trkpt><trkpt lat="39.477301204278696" lon="8.496289375803943"><ele>275.75</ele><time>2026-04-08T10:58:04.998Z</time></trkpt><trkpt lat="39.47729600882517" lon="8.496439336998346"><ele>277.5</ele><time>2026-04-08T10:58:05.998Z</time></trkpt><trkpt lat="39.47722059864712" lon="8.496567684700398"><ele>279.25</ele><time>2026-04-08T10:58:06.998Z</time></trkpt><trkpt lat="39.47714506792948" lon="8.496760562303576"><ele>281.0</ele><time>2026-04-08T10:58:07.998Z</time></trkpt><trkpt lat="39.47712616380447" lon="8.496942672661824"><ele>278.25</ele><time>2026-04-08T10:58:08.998Z</time></trkpt><trkpt lat="39.4771568435746" lon="8.497105025860089"><ele>275.5</ele><time>2026-04-08T10:58:09.998Z</time></trkpt><trkpt lat="39.47722154296106" lon="8.497268475549694"><ele>272.75</ele><time>2026-04-08T10:58:10.998Z</time></trkpt><trkpt lat="39.47733168750622" lon="8.497378100234654"><ele>270.0</ele><time>2026-04-08T10:58:11.998Z</time></trkpt><trkpt lat="39.47747979318043" lon="8.497431736761161"><ele>270.0</ele><time>2026-04-08T10:58:12.998Z</time></trkpt><trkpt lat="39.4776452986915" lon="8.497432461749625"><ele>270.0</ele><time>2026-04-08T10:58:13.998Z</time></trkpt><trkpt lat="39.47780878241708" lon="8.497399365760295"><ele>270.0</ele><time>2026-04-08T10:58:14.997Z</time></trkpt><trkpt lat="39.47795595321547" lon="8.497305477409142"><ele>266.0</ele><time>2026-04-08T10:58:15.997Z</time></trkpt><trkpt lat="39.47811988699108" lon="8.497184638514842"><ele>262.0</ele><time>2026-04-08T10:58:16.997Z</time></trkpt><trkpt lat="39.478282488281984" lon="8.497024942083076"><ele>258.0</ele><time>2026-04-08T10:58:17.997Z</time></trkpt><trkpt lat="39.47847577238803" lon="8.496838854116257"><ele>267.5</ele><time>2026-04-08T10:58:18.997Z</time></trkpt><trkpt lat="39.47868066575805" lon="8.496625593019624"><ele>277.0</ele><time>2026-04-08T10:58:19.997Z</time></trkpt><trkpt lat="39.478882600086635" lon="8.496447780473801"><ele>277.0</ele><time>2026-04-08T10:58:20.997Z</time></trkpt><trkpt lat="39.4790520516259" lon="8.496258608219096"><ele>277.0</ele><time>2026-04-08T10:58:21.997Z</time></trkpt><trkpt lat="39.47920602096051" lon="8.496117196886251"><ele>277.0</ele><time>2026-04-08T10:58:22.997Z</time></trkpt><trkpt lat="39.47936368061294" lon="8.496011795001627"><ele>284.75</ele><time>2026-04-08T10:58:23.997Z</time></trkpt><trkpt lat="39.47949861197751" lon="8.495903616605045"><ele>292.5</ele><time>2026-04-08T10:58:24.997Z</time></trkpt><trkpt lat="39.479609343267164" lon="8.495829833258142"><ele>300.25</ele><time>2026-04-08T10:58:25.997Z</time></trkpt><trkpt lat="39.47971453840191" lon="8.495836688634196"><ele>308.0</ele><time>2026-04-08T10:58:26.997Z</time></trkpt><trkpt lat="39.479810482071386" lon="8.495924999131745"><ele>309.5</ele><time>2026-04-08T10:58:27.997Z</time></trkpt><trkpt lat="39.479923019561085" lon="8.496060927826122"><ele>311.0</ele><time>2026-04-08T10:58:28.997Z</time></trkpt><trkpt lat="39.479982228451114" lon="8.496242446634456"><ele>312.5</ele><time>2026-04-08T10:58:29.997Z</time></trkpt><trkpt lat="39.479985811738196" lon="8.496427247988445"><ele>314.0</ele><time>2026-04-08T10:58:31Z</time></trkpt><trkpt lat="39.47991207458955" lon="8.496609216815509"><ele>309.0</ele><time>2026-04-08T10:58:32Z</time></trkpt><trkpt lat="39.47983962359991" lon="8.496813540154024"><ele>304.0</ele><time>2026-04-08T10:58:33Z</time></trkpt><trkpt lat="39.47977727374953" lon="8.496998526793416"><ele>299.0</ele><time>2026-04-08T10:58:34Z</time></trkpt><trkpt lat="39.479764858775354" lon="8.4971748885403"><ele>298.6666666666667</ele><time>2026-04-08T10:58:35Z</time></trkpt><trkpt lat="39.47981675766698" lon="8.497376665280957"><ele>298.3333333333333</ele><time>2026-04-08T10:58:36Z</time></trkpt><trkpt lat="39.479914588982545" lon="8.497535681915197"><ele>298.0</ele><time>2026-04-08T10:58:37Z</time></trkpt><trkpt lat="39.48003129820037" lon="8.497642284180698"><ele>298.0</ele><time>2026-04-08T10:58:38Z</time></trkpt><trkpt lat="39.48017523783194" lon="8.497688556403052"><ele>298.0</ele><time>2026-04-08T10:58:39Z</time></trkpt><trkpt lat="39.480342260683415" lon="8.49770026960967"><ele>298.0</ele><time>2026-04-08T10:58:40Z</time></trkpt><trkpt lat="39.48054205081732" lon="8.497667618989064"><ele>303.5</ele><time>2026-04-08T10:58:41Z</time></trkpt><trkpt lat="39.48076634227139" lon="8.497647992874334"><ele>309.0</ele><time>2026-04-08T10:58:42Z</time></trkpt><trkpt lat="39.4809901903144" lon="8.497612531655939"><ele>309.0</ele><time>2026-04-08T10:58:43Z</time></trkpt><trkpt lat="39.48120946533291" lon="8.497619143951157"><ele>309.0</ele><time>2026-04-08T10:58:44Z</time></trkpt><trkpt lat="39.481417324881086" lon="8.497613900714718"><ele>309.0</ele><time>2026-04-08T10:58:45Z</time></trkpt><trkpt lat="39.481525147175596" lon="8.497633569118857"><ele>306.25</ele><time>2026-04-08T10:58:46Z</time></trkpt><trkpt lat="39.48162273456944" lon="8.497672593204504"><ele>303.5</ele><time>2026-04-08T10:58:47Z</time></trkpt><trkpt lat="39.48171410652892" lon="8.497842690375014"><ele>300.75</ele><time>2026-04-08T10:58:48Z</time></trkpt><trkpt lat="39.48180406660732" lon="8.498013427715016"><ele>298.0</ele><time>2026-04-08T10:58:49Z</time></trkpt><trkpt lat="39.481859708675344" lon="8.498236802422749"><ele>298.0</ele><time>2026-04-08T10:58:50Z</time></trkpt><trkpt lat="39.48192523211036" lon="8.4984224788488"><ele>298.0</ele><time>2026-04-08T10:58:51Z</time></trkpt><trkpt lat="39.48199639096825" lon="8.498581161922848"><ele>298.0</ele><time>2026-04-08T10:58:52Z</time></trkpt><trkpt lat="39.48214856397237" lon="8.498681926551129"><ele>298.0</ele><time>2026-04-08T10:58:53Z</time></trkpt><trkpt lat="39.4823656406732" lon="8.498755988744328"><ele>298.0</ele><time>2026-04-08T10:58:54Z</time></trkpt><trkpt lat="39.482559104361584" lon="8.498860826758133"><ele>298.0</ele><time>2026-04-08T10:58:55Z</time></trkpt><trkpt lat="39.48270361598013" lon="8.498928263375705"><ele>298.0</ele><time>2026-04-08T10:58:56Z</time></trkpt><trkpt lat="39.48284166817166" lon="8.499021309565899"><ele>298.0</ele><time>2026-04-08T10:58:57Z</time></trkpt><trkpt lat="39.482979591318866" lon="8.499091186054205"><ele>298.0</ele><time>2026-04-08T10:58:57.999Z</time></trkpt><trkpt lat="39.48314725545101" lon="8.499077018423518"><ele>304.3333333333333</ele><time>2026-04-08T10:58:58.999Z</time></trkpt><trkpt lat="39.483332717225714" lon="8.49898549335887"><ele>310.6666666666667</ele><time>2026-04-08T10:58:59.999Z</time></trkpt><trkpt lat="39.48349590991089" lon="8.498893158612344"><ele>317.0</ele><time>2026-04-08T10:59:00.999Z</time></trkpt><trkpt lat="39.48364396910079" lon="8.498889374238844"><ele>317.0</ele><time>2026-04-08T10:59:01.999Z</time></trkpt><trkpt lat="39.48375069916353" lon="8.498893269228269"><ele>317.0</ele><time>2026-04-08T10:59:02.999Z</time></trkpt><trkpt lat="39.483818220034095" lon="8.49894867744368"><ele>317.0</ele><time>2026-04-08T10:59:03.999Z</time></trkpt><trkpt lat="39.48389039510381" lon="8.499007667318573"><ele>317.0</ele><time>2026-04-08T10:59:04.999Z</time></trkpt><trkpt lat="39.483877576608904" lon="8.499169328821006"><ele>317.0</ele><time>2026-04-08T10:59:05.999Z</time></trkpt><trkpt lat="39.48385573393062" lon="8.499258763159204"><ele>328.5</ele><time>2026-04-08T10:59:06.999Z</time></trkpt><trkpt lat="39.48386997373523" lon="8.499693013052376"><ele>340.0</ele><time>2026-04-08T10:59:07.999Z</time></trkpt><trkpt lat="39.483866520380346" lon="8.499901920380994"><ele>331.0</ele><time>2026-04-08T10:59:08.999Z</time></trkpt><trkpt lat="39.4837559056377" lon="8.500055014178796"><ele>322.0</ele><time>2026-04-08T10:59:09.999Z</time></trkpt><trkpt lat="39.48370013898404" lon="8.500213367397977"><ele>313.0</ele><time>2026-04-08T10:59:10.999Z</time></trkpt><trkpt lat="39.48367962479171" lon="8.500372549508677"><ele>304.0</ele><time>2026-04-08T10:59:11.999Z</time></trkpt><trkpt lat="39.48370829491744" lon="8.500567002228593"><ele>313.75</ele><time>2026-04-08T10:59:12.999Z</time></trkpt><trkpt lat="39.48379636035377" lon="8.500734636331245"><ele>323.5</ele><time>2026-04-08T10:59:13.999Z</time></trkpt><trkpt lat="39.483914119690695" lon="8.500857162581916"><ele>333.25</ele><time>2026-04-08T10:59:14.999Z</time></trkpt><trkpt lat="39.48401023900591" lon="8.500968887452453"><ele>343.0</ele><time>2026-04-08T10:59:15.999Z</time></trkpt><trkpt lat="39.48402473353142" lon="8.50108253369512"><ele>343.0</ele><time>2026-04-08T10:59:16.999Z</time></trkpt><trkpt lat="39.483939364604794" lon="8.501194613019319"><ele>343.0</ele><time>2026-04-08T10:59:17.999Z</time></trkpt><trkpt lat="39.48383837248372" lon="8.501246722821849"><ele>343.0</ele><time>2026-04-08T10:59:18.999Z</time></trkpt><trkpt lat="39.48369785285334" lon="8.501383240562419"><ele>343.0</ele><time>2026-04-08T10:59:19.999Z</time></trkpt><trkpt lat="39.483554008211854" lon="8.50152624798599"><ele>337.0</ele><time>2026-04-08T10:59:20.999Z</time></trkpt><trkpt lat="39.48349592505334" lon="8.501651289421286"><ele>331.0</ele><time>2026-04-08T10:59:21.999Z</time></trkpt><trkpt lat="39.4834759147661" lon="8.501796862263939"><ele>325.0</ele><time>2026-04-08T10:59:22.999Z</time></trkpt><trkpt lat="39.4835823569468" lon="8.501907491628813"><ele>319.0</ele><time>2026-04-08T10:59:23.999Z</time></trkpt><trkpt lat="39.48370977243435" lon="8.501993173707678"><ele>332.0</ele><time>2026-04-08T10:59:24.999Z</time></trkpt><trkpt lat="39.48383066965325" lon="8.502154322047817"><ele>345.0</ele><time>2026-04-08T10:59:25.999Z</time></trkpt><trkpt lat="39.48395164966868" lon="8.502365498398653"><ele>358.0</ele><time>2026-04-08T10:59:26.999Z</time></trkpt><trkpt lat="39.484048352012586" lon="8.50253932874792"><ele>358.0</ele><time>2026-04-08T10:59:27.999Z</time></trkpt><trkpt lat="39.484105889349436" lon="8.502669743489694"><ele>358.0</ele><time>2026-04-08T10:59:28.999Z</time></trkpt><trkpt lat="39.48410773275277" lon="8.502782680866694"><ele>358.0</ele><time>2026-04-08T10:59:29.999Z</time></trkpt><trkpt lat="39.48407220307795" lon="8.502891343995605"><ele>358.0</ele><time>2026-04-08T10:59:30.999Z</time></trkpt><trkpt lat="39.48396362553175" lon="8.50292874721226"><ele>358.0</ele><time>2026-04-08T10:59:31.999Z</time></trkpt><trkpt lat="39.48383009067602" lon="8.502897925566518"><ele>357.0</ele><time>2026-04-08T10:59:32.999Z</time></trkpt><trkpt lat="39.48368634379558" lon="8.502928388573292"><ele>356.0</ele><time>2026-04-08T10:59:33.999Z</time></trkpt><trkpt lat="39.48348000072911" lon="8.502934094127585"><ele>355.0</ele><time>2026-04-08T10:59:34.999Z</time></trkpt><trkpt lat="39.48330940511783" lon="8.502946660757935"><ele>355.0</ele><time>2026-04-08T10:59:35.999Z</time></trkpt><trkpt lat="39.483192813313416" lon="8.502981383640014"><ele>355.0</ele><time>2026-04-08T10:59:36.999Z</time></trkpt><trkpt lat="39.48307026890091" lon="8.503075697419305"><ele>355.0</ele><time>2026-04-08T10:59:37.999Z</time></trkpt><trkpt lat="39.48296514114594" lon="8.503244158030258"><ele>355.0</ele><time>2026-04-08T10:59:38.999Z</time></trkpt><trkpt lat="39.482835483135645" lon="8.50344506343016"><ele>349.0</ele><time>2026-04-08T10:59:39.998Z</time></trkpt><trkpt lat="39.482724488730454" lon="8.503596452259961"><ele>343.0</ele><time>2026-04-08T10:59:40.998Z</time></trkpt><trkpt lat="39.482671397569526" lon="8.503727375538137"><ele>337.0</ele><time>2026-04-08T10:59:41.998Z</time></trkpt><trkpt lat="39.48267044084181" lon="8.503918339137792"><ele>331.0</ele><time>2026-04-08T10:59:42.998Z</time></trkpt><trkpt lat="39.48270073623234" lon="8.504113036276047"><ele>331.0</ele><time>2026-04-08T10:59:43.998Z</time></trkpt><trkpt lat="39.482787568827696" lon="8.504349910508488"><ele>331.0</ele><time>2026-04-08T10:59:44.998Z</time></trkpt><trkpt lat="39.48287820259493" lon="8.504580006975065"><ele>331.0</ele><time>2026-04-08T10:59:45.998Z</time></trkpt><trkpt lat="39.4829619778402" lon="8.504758117551562"><ele>333.75</ele><time>2026-04-08T10:59:46.998Z</time></trkpt><trkpt lat="39.48301039966371" lon="8.504900521771335"><ele>336.5</ele><time>2026-04-08T10:59:47.998Z</time></trkpt><trkpt lat="39.48301419426053" lon="8.505000140966663"><ele>339.25</ele><time>2026-04-08T10:59:48.998Z</time></trkpt><trkpt lat="39.482880294748156" lon="8.505097753107755"><ele>342.0</ele><time>2026-04-08T10:59:49.998Z</time></trkpt><trkpt lat="39.4827588891634" lon="8.50520318157592"><ele>342.0</ele><time>2026-04-08T10:59:50.998Z</time></trkpt><trkpt lat="39.48261639549517" lon="8.505350728840892"><ele>342.0</ele><time>2026-04-08T10:59:51.998Z</time></trkpt><trkpt lat="39.48251579022422" lon="8.505562479613944"><ele>342.0</ele><time>2026-04-08T10:59:52.998Z</time></trkpt><trkpt lat="39.482414451728" lon="8.505747117922692"><ele>348.5</ele><time>2026-04-08T10:59:53.998Z</time></trkpt><trkpt lat="39.482337001364286" lon="8.505918804880183"><ele>355.0</ele><time>2026-04-08T10:59:54.998Z</time></trkpt><trkpt lat="39.48229721255226" lon="8.506062851568402"><ele>361.5</ele><time>2026-04-08T10:59:55.998Z</time></trkpt><trkpt lat="39.482282625894314" lon="8.506181199792424"><ele>368.0</ele><time>2026-04-08T10:59:56.998Z</time></trkpt><trkpt lat="39.482338018447166" lon="8.506323966921121"><ele>368.6666666666667</ele><time>2026-04-08T10:59:57.998Z</time></trkpt><trkpt lat="39.48244474716855" lon="8.506362167526133"><ele>369.3333333333333</ele><time>2026-04-08T10:59:58.998Z</time></trkpt><trkpt lat="39.48260540029846" lon="8.506322151526666"><ele>370.0</ele><time>2026-04-08T10:59:59.998Z</time></trkpt><trkpt lat="39.48279596382732" lon="8.506292563041754"><ele>372.3333333333333</ele><time>2026-04-08T11:00:00.998Z</time></trkpt><trkpt lat="39.48301455767173" lon="8.506257186511444"><ele>374.6666666666667</ele><time>2026-04-08T11:00:01.998Z</time></trkpt><trkpt lat="39.483229835399264" lon="8.506175038622489"><ele>377.0</ele><time>2026-04-08T11:00:02.998Z</time></trkpt><trkpt lat="39.483442931686355" lon="8.506101468821202"><ele>378.33333333333337</ele><time>2026-04-08T11:00:03.998Z</time></trkpt><trkpt lat="39.48363337846719" lon="8.505995860617421"><ele>379.6666666666667</ele><time>2026-04-08T11:00:04.998Z</time></trkpt><trkpt lat="39.48377597307573" lon="8.505856769431123"><ele>381.0</ele><time>2026-04-08T11:00:05.998Z</time></trkpt><trkpt lat="39.483909646741324" lon="8.50564940581579"><ele>382.33333333333337</ele><time>2026-04-08T11:00:06.998Z</time></trkpt><trkpt lat="39.484033195636144" lon="8.505416606422745"><ele>383.6666666666667</ele><time>2026-04-08T11:00:07.998Z</time></trkpt><trkpt lat="39.48415965761721" lon="8.50524643911851"><ele>385.0</ele><time>2026-04-08T11:00:08.998Z</time></trkpt><trkpt lat="39.48424765836949" lon="8.50509542884528"><ele>385.25</ele><time>2026-04-08T11:00:09.998Z</time></trkpt><trkpt lat="39.484335927343764" lon="8.504986700879273"><ele>385.5</ele><time>2026-04-08T11:00:10.998Z</time></trkpt><trkpt lat="39.484445986536606" lon="8.504961400991679"><ele>385.75</ele><time>2026-04-08T11:00:11.998Z</time></trkpt><trkpt lat="39.484552646839205" lon="8.504986830400956"><ele>386.0</ele><time>2026-04-08T11:00:12.998Z</time></trkpt><trkpt lat="39.48465555181228" lon="8.505071005914385"><ele>385.66666666666663</ele><time>2026-04-08T11:00:13.998Z</time></trkpt><trkpt lat="39.48467393433436" lon="8.505254704379542"><ele>385.33333333333337</ele><time>2026-04-08T11:00:14.998Z</time></trkpt><trkpt lat="39.484655498595295" lon="8.505434631477216"><ele>385.0</ele><time>2026-04-08T11:00:15.998Z</time></trkpt><trkpt lat="39.48453756363052" lon="8.505608083131"><ele>385.0</ele><time>2026-04-08T11:00:16.998Z</time></trkpt><trkpt lat="39.484472939742346" lon="8.505834342574087"><ele>385.0</ele><time>2026-04-08T11:00:17.998Z</time></trkpt><trkpt lat="39.484460352421735" lon="8.506087549894506"><ele>385.0</ele><time>2026-04-08T11:00:18.998Z</time></trkpt><trkpt lat="39.4844834927828" lon="8.506389460921781"><ele>386.5</ele><time>2026-04-08T11:00:19.997Z</time></trkpt><trkpt lat="39.48447357929838" lon="8.506722915097917"><ele>388.0</ele><time>2026-04-08T11:00:20.997Z</time></trkpt><trkpt lat="39.48444860569246" lon="8.507083292927433"><ele>391.5</ele><time>2026-04-08T11:00:21.997Z</time></trkpt><trkpt lat="39.48442781716189" lon="8.507463669760307"><ele>395.0</ele><time>2026-04-08T11:00:22.997Z</time></trkpt><trkpt lat="39.48440165259455" lon="8.5078535464034"><ele>397.0</ele><time>2026-04-08T11:00:23.997Z</time></trkpt><trkpt lat="39.48438042113793" lon="8.508193352875713"><ele>399.0</ele><time>2026-04-08T11:00:24.997Z</time></trkpt><trkpt lat="39.48435924904886" lon="8.508494140958835"><ele>402.0</ele><time>2026-04-08T11:00:25.997Z</time></trkpt><trkpt lat="39.48434534809461" lon="8.50876171777606"><ele>405.0</ele><time>2026-04-08T11:00:26.997Z</time></trkpt><trkpt lat="39.48431745065813" lon="8.508991646972401"><ele>408.0</ele><time>2026-04-08T11:00:27.997Z</time></trkpt><trkpt lat="39.484233599705455" lon="8.509178849222453"><ele>408.0</ele><time>2026-04-08T11:00:28.997Z</time></trkpt><trkpt lat="39.48411140403025" lon="8.50934953258788"><ele>408.0</ele><time>2026-04-08T11:00:29.997Z</time></trkpt><trkpt lat="39.483989845682714" lon="8.509547224914451"><ele>408.0</ele><time>2026-04-08T11:00:30.997Z</time></trkpt><trkpt lat="39.483897952125034" lon="8.50976306486777"><ele>412.33333333333337</ele><time>2026-04-08T11:00:31.997Z</time></trkpt><trkpt lat="39.48386240928457" lon="8.510052138914396"><ele>416.6666666666667</ele><time>2026-04-08T11:00:32.997Z</time></trkpt><trkpt lat="39.48385917265196" lon="8.510322070337219"><ele>421.0</ele><time>2026-04-08T11:00:33.997Z</time></trkpt><trkpt lat="39.48388698332168" lon="8.510555124237891"><ele>422.0</ele><time>2026-04-08T11:00:34.997Z</time></trkpt><trkpt lat="39.4839463711744" lon="8.51077238625284"><ele>423.0</ele><time>2026-04-08T11:00:35.997Z</time></trkpt><trkpt lat="39.484053747849416" lon="8.510981394607338"><ele>424.0</ele><time>2026-04-08T11:00:37Z</time></trkpt><trkpt lat="39.48421541787102" lon="8.511189497788182"><ele>418.5</ele><time>2026-04-08T11:00:38Z</time></trkpt><trkpt lat="39.48440211624769" lon="8.51138301197037"><ele>413.0</ele><time>2026-04-08T11:00:39Z</time></trkpt><trkpt lat="39.484617208430386" lon="8.511580224313926"><ele>425.0</ele><time>2026-04-08T11:00:40Z</time></trkpt><trkpt lat="39.48482971315575" lon="8.511824071610867"><ele>437.0</ele><time>2026-04-08T11:00:41Z</time></trkpt><trkpt lat="39.485020668353705" lon="8.51202384615542"><ele>432.66666666666663</ele><time>2026-04-08T11:00:42Z</time></trkpt><trkpt lat="39.485179785964576" lon="8.51220650975917"><ele>428.33333333333337</ele><time>2026-04-08T11:00:43Z</time></trkpt><trkpt lat="39.48530009896008" lon="8.512384478477816"><ele>424.0</ele><time>2026-04-08T11:00:44Z</time></trkpt><trkpt lat="39.48542045842627" lon="8.512543006853402"><ele>428.75</ele><time>2026-04-08T11:00:45Z</time></trkpt><trkpt lat="39.48552389812052" lon="8.512667395989494"><ele>433.5</ele><time>2026-04-08T11:00:46Z</time></trkpt><trkpt lat="39.48565737951792" lon="8.51274062124452"><ele>438.25</ele><time>2026-04-08T11:00:47Z</time></trkpt><trkpt lat="39.48576016410255" lon="8.512833055577696"><ele>443.0</ele><time>2026-04-08T11:00:48Z</time></trkpt><trkpt lat="39.48580450080066" lon="8.512959849228476"><ele>443.0</ele><time>2026-04-08T11:00:49Z</time></trkpt><trkpt lat="39.48578900663499" lon="8.513135043998032"><ele>443.0</ele><time>2026-04-08T11:00:50Z</time></trkpt><trkpt lat="39.485730071519505" lon="8.51335014484651"><ele>443.0</ele><time>2026-04-08T11:00:51Z</time></trkpt><trkpt lat="39.4856711166994" lon="8.513580609747141"><ele>444.3333333333333</ele><time>2026-04-08T11:00:52Z</time></trkpt><trkpt lat="39.48563556786638" lon="8.513768170715771"><ele>445.66666666666663</ele><time>2026-04-08T11:00:53Z</time></trkpt><trkpt lat="39.48565913383134" lon="8.513960776401372"><ele>447.0</ele><time>2026-04-08T11:00:54Z</time></trkpt><trkpt lat="39.48573554459556" lon="8.514167471984358"><ele>447.0</ele><time>2026-04-08T11:00:55Z</time></trkpt><trkpt lat="39.48577053980396" lon="8.514392859052904"><ele>447.0</ele><time>2026-04-08T11:00:56Z</time></trkpt><trkpt lat="39.48578754579008" lon="8.514661767070843"><ele>447.0</ele><time>2026-04-08T11:00:57Z</time></trkpt><trkpt lat="39.485854347554344" lon="8.514944211848803"><ele>448.5</ele><time>2026-04-08T11:00:58Z</time></trkpt><trkpt lat="39.48594176964552" lon="8.515236766435377"><ele>450.0</ele><time>2026-04-08T11:00:59Z</time></trkpt><trkpt lat="39.486042697942516" lon="8.515576067776006"><ele>451.5</ele><time>2026-04-08T11:01:00Z</time></trkpt><trkpt lat="39.48613737205947" lon="8.515893685233152"><ele>453.0</ele><time>2026-04-08T11:01:01Z</time></trkpt><trkpt lat="39.48623187188142" lon="8.516141480378272"><ele>456.33333333333337</ele><time>2026-04-08T11:01:02Z</time></trkpt><trkpt lat="39.48631600057707" lon="8.516371087818019"><ele>459.6666666666667</ele><time>2026-04-08T11:01:03Z</time></trkpt><trkpt lat="39.48640914388141" lon="8.516581935623083"><ele>463.0</ele><time>2026-04-08T11:01:04Z</time></trkpt><trkpt lat="39.486511096284566" lon="8.516773912757223"><ele>463.0</ele><time>2026-04-08T11:01:04.999Z</time></trkpt><trkpt lat="39.486631646128814" lon="8.516940738935327"><ele>463.0</ele><time>2026-04-08T11:01:05.999Z</time></trkpt><trkpt lat="39.48679963813638" lon="8.517082860801265"><ele>463.0</ele><time>2026-04-08T11:01:06.999Z</time></trkpt><trkpt lat="39.48699681827874" lon="8.517223061450338"><ele>462.33333333333337</ele><time>2026-04-08T11:01:07.999Z</time></trkpt><trkpt lat="39.48719324289747" lon="8.517393820482594"><ele>461.66666666666663</ele><time>2026-04-08T11:01:08.999Z</time></trkpt><trkpt lat="39.48737719855937" lon="8.517515898832555"><ele>461.0</ele><time>2026-04-08T11:01:09.999Z</time></trkpt><trkpt lat="39.48753919549435" lon="8.517647453569671"><ele>461.0</ele><time>2026-04-08T11:01:10.999Z</time></trkpt><trkpt lat="39.4876859910096" lon="8.517763760557871"><ele>461.0</ele><time>2026-04-08T11:01:11.999Z</time></trkpt><trkpt lat="39.48782583500345" lon="8.517851941626029"><ele>461.0</ele><time>2026-04-08T11:01:12.999Z</time></trkpt><trkpt lat="39.48798510639455" lon="8.517909153581401"><ele>460.66666666666663</ele><time>2026-04-08T11:01:13.999Z</time></trkpt><trkpt lat="39.488175812104124" lon="8.517923431533696"><ele>460.33333333333337</ele><time>2026-04-08T11:01:14.999Z</time></trkpt><trkpt lat="39.488377484357045" lon="8.517887546888371"><ele>460.0</ele><time>2026-04-08T11:01:15.999Z</time></trkpt><trkpt lat="39.48858173744567" lon="8.517798218732404"><ele>456.5</ele><time>2026-04-08T11:01:16.999Z</time></trkpt><trkpt lat="39.488797054597576" lon="8.517663849601666"><ele>453.0</ele><time>2026-04-08T11:01:17.999Z</time></trkpt><trkpt lat="39.489049835916695" lon="8.517487112056275"><ele>453.0</ele><time>2026-04-08T11:01:18.999Z</time></trkpt><trkpt lat="39.489345857916874" lon="8.517305497773354"><ele>453.0</ele><time>2026-04-08T11:01:19.999Z</time></trkpt><trkpt lat="39.4896767853611" lon="8.517161201231033"><ele>453.0</ele><time>2026-04-08T11:01:20.999Z</time></trkpt><trkpt lat="39.48996677287182" lon="8.517011721349187"><ele>453.0</ele><time>2026-04-08T11:01:21.999Z</time></trkpt><trkpt lat="39.490209831997916" lon="8.516908037702532"><ele>453.0</ele><time>2026-04-08T11:01:22.999Z</time></trkpt><trkpt lat="39.490417684492634" lon="8.516817240998428"><ele>453.0</ele><time>2026-04-08T11:01:23.999Z</time></trkpt><trkpt lat="39.49061114232159" lon="8.516789402456197"><ele>453.0</ele><time>2026-04-08T11:01:24.999Z</time></trkpt><trkpt lat="39.4908353009241" lon="8.516787048137244"><ele>450.0</ele><time>2026-04-08T11:01:25.999Z</time></trkpt><trkpt lat="39.49106470684478" lon="8.516840393480496"><ele>447.0</ele><time>2026-04-08T11:01:26.999Z</time></trkpt><trkpt lat="39.49128231186061" lon="8.516950503238018"><ele>444.5</ele><time>2026-04-08T11:01:27.999Z</time></trkpt><trkpt lat="39.4915027939781" lon="8.517116633446449"><ele>442.0</ele><time>2026-04-08T11:01:28.999Z</time></trkpt><trkpt lat="39.49173883291332" lon="8.517312101929734"><ele>442.0</ele><time>2026-04-08T11:01:29.999Z</time></trkpt><trkpt lat="39.49196542601662" lon="8.517484399027266"><ele>442.0</ele><time>2026-04-08T11:01:30.999Z</time></trkpt><trkpt lat="39.49215510667427" lon="8.517645222550717"><ele>442.6666666666667</ele><time>2026-04-08T11:01:31.999Z</time></trkpt><trkpt lat="39.49230939229475" lon="8.517825267637756"><ele>443.33333333333337</ele><time>2026-04-08T11:01:32.999Z</time></trkpt><trkpt lat="39.492453451265824" lon="8.518042776287547"><ele>444.0</ele><time>2026-04-08T11:01:33.999Z</time></trkpt><trkpt lat="39.49258705207224" lon="8.51833130018692"><ele>442.0</ele><time>2026-04-08T11:01:34.999Z</time></trkpt><trkpt lat="39.49272215288341" lon="8.518657573214254"><ele>440.0</ele><time>2026-04-08T11:01:35.999Z</time></trkpt><trkpt lat="39.492882395107834" lon="8.519004500392217"><ele>440.0</ele><time>2026-04-08T11:01:36.999Z</time></trkpt><trkpt lat="39.4930344484314" lon="8.519376037132911"><ele>440.0</ele><time>2026-04-08T11:01:37.999Z</time></trkpt><trkpt lat="39.493190954311274" lon="8.519740525764652"><ele>439.0</ele><time>2026-04-08T11:01:38.999Z</time></trkpt><trkpt lat="39.493329215646824" lon="8.520111072787829"><ele>438.0</ele><time>2026-04-08T11:01:39.999Z</time></trkpt><trkpt lat="39.49347971337455" lon="8.520437100518436"><ele>438.0</ele><time>2026-04-08T11:01:40.999Z</time></trkpt><trkpt lat="39.49359856650217" lon="8.520734768641745"><ele>438.0</ele><time>2026-04-08T11:01:41.999Z</time></trkpt><trkpt lat="39.49371177291837" lon="8.521021092067024"><ele>439.0</ele><time>2026-04-08T11:01:42.999Z</time></trkpt><trkpt lat="39.49381626651261" lon="8.52126427123395"><ele>440.0</ele><time>2026-04-08T11:01:43.999Z</time></trkpt><trkpt lat="39.49390670044007" lon="8.521472273088044"><ele>441.0</ele><time>2026-04-08T11:01:44.999Z</time></trkpt><trkpt lat="39.49400673944788" lon="8.5216540158119"><ele>441.0</ele><time>2026-04-08T11:01:45.999Z</time></trkpt><trkpt lat="39.49414131324211" lon="8.521825758555062"><ele>441.0</ele><time>2026-04-08T11:01:46.999Z</time></trkpt><trkpt lat="39.49431722631769" lon="8.521978211317943"><ele>441.0</ele><time>2026-04-08T11:01:47.998Z</time></trkpt><trkpt lat="39.494482753217774" lon="8.522115607148725"><ele>440.0</ele><time>2026-04-08T11:01:48.998Z</time></trkpt><trkpt lat="39.494645263036546" lon="8.522229841122817"><ele>439.0</ele><time>2026-04-08T11:01:49.998Z</time></trkpt><trkpt lat="39.49484923061615" lon="8.522315292911447"><ele>438.0</ele><time>2026-04-08T11:01:50.998Z</time></trkpt><trkpt lat="39.49509813965582" lon="8.522378421987838"><ele>438.0</ele><time>2026-04-08T11:01:51.998Z</time></trkpt><trkpt lat="39.49537255453366" lon="8.522438615675766"><ele>438.0</ele><time>2026-04-08T11:01:52.998Z</time></trkpt><trkpt lat="39.495670603365376" lon="8.522511764792394"><ele>436.5</ele><time>2026-04-08T11:01:53.998Z</time></trkpt><trkpt lat="39.49597160619775" lon="8.522602859096418"><ele>435.0</ele><time>2026-04-08T11:01:54.998Z</time></trkpt><trkpt lat="39.496272864554925" lon="8.522690908356033"><ele>433.0</ele><time>2026-04-08T11:01:55.998Z</time></trkpt><trkpt lat="39.496559344095196" lon="8.522766882570235"><ele>431.0</ele><time>2026-04-08T11:01:56.998Z</time></trkpt><trkpt lat="39.49681126088458" lon="8.522839844460359"><ele>430.5</ele><time>2026-04-08T11:01:57.998Z</time></trkpt><trkpt lat="39.497044367068575" lon="8.522909478967007"><ele>430.0</ele><time>2026-04-08T11:01:58.998Z</time></trkpt><trkpt lat="39.49726371800037" lon="8.522973276287363"><ele>429.33333333333337</ele><time>2026-04-08T11:01:59.998Z</time></trkpt><trkpt lat="39.497461487244166" lon="8.523026762053057"><ele>428.66666666666663</ele><time>2026-04-08T11:02:00.998Z</time></trkpt><trkpt lat="39.49764670219774" lon="8.523071384037676"><ele>428.0</ele><time>2026-04-08T11:02:01.998Z</time></trkpt><trkpt lat="39.497813333922345" lon="8.523115010628192"><ele>428.0</ele><time>2026-04-08T11:02:02.998Z</time></trkpt><trkpt lat="39.497945274840866" lon="8.523192270882358"><ele>428.0</ele><time>2026-04-08T11:02:03.998Z</time></trkpt><trkpt lat="39.4980537147634" lon="8.52333215785568"><ele>428.0</ele><time>2026-04-08T11:02:04.998Z</time></trkpt><trkpt lat="39.49813737128828" lon="8.523537681339157"><ele>426.0</ele><time>2026-04-08T11:02:05.998Z</time></trkpt><trkpt lat="39.49818758993272" lon="8.523784740002712"><ele>424.0</ele><time>2026-04-08T11:02:06.998Z</time></trkpt><trkpt lat="39.498212648586176" lon="8.524001567039"><ele>422.0</ele><time>2026-04-08T11:02:07.998Z</time></trkpt><trkpt lat="39.498170188426194" lon="8.524249791455993"><ele>422.0</ele><time>2026-04-08T11:02:08.998Z</time></trkpt><trkpt lat="39.498068983789054" lon="8.524548746707627"><ele>422.0</ele><time>2026-04-08T11:02:09.998Z</time></trkpt><trkpt lat="39.49796173720072" lon="8.524879251509175"><ele>420.0</ele><time>2026-04-08T11:02:10.998Z</time></trkpt><trkpt lat="39.4978611414419" lon="8.525212705634514"><ele>418.0</ele><time>2026-04-08T11:02:11.998Z</time></trkpt><trkpt lat="39.49777452485334" lon="8.525503909669522"><ele>417.5</ele><time>2026-04-08T11:02:12.998Z</time></trkpt><trkpt lat="39.497684881116584" lon="8.525779205079147"><ele>417.0</ele><time>2026-04-08T11:02:13.998Z</time></trkpt><trkpt lat="39.49761179958847" lon="8.52605029128621"><ele>417.33333333333337</ele><time>2026-04-08T11:02:14.998Z</time></trkpt><trkpt lat="39.49757763241488" lon="8.526331550900538"><ele>417.6666666666667</ele><time>2026-04-08T11:02:15.998Z</time></trkpt><trkpt lat="39.497579310160454" lon="8.52659588600495"><ele>418.0</ele><time>2026-04-08T11:02:16.998Z</time></trkpt><trkpt lat="39.49756629896166" lon="8.52686900926191"><ele>417.33333333333337</ele><time>2026-04-08T11:02:17.998Z</time></trkpt><trkpt lat="39.49761176352568" lon="8.527081399562562"><ele>416.66666666666663</ele><time>2026-04-08T11:02:18.998Z</time></trkpt><trkpt lat="39.49768487038214" lon="8.527240045955113"><ele>416.0</ele><time>2026-04-08T11:02:19.998Z</time></trkpt><trkpt lat="39.49781368122781" lon="8.527361530305587"><ele>417.66666666666663</ele><time>2026-04-08T11:02:20.998Z</time></trkpt><trkpt lat="39.498006051871634" lon="8.527433572531207"><ele>419.33333333333337</ele><time>2026-04-08T11:02:21.998Z</time></trkpt><trkpt lat="39.498229824775336" lon="8.527493341468624"><ele>421.0</ele><time>2026-04-08T11:02:22.998Z</time></trkpt><trkpt lat="39.49841985124368" lon="8.52757060536906"><ele>421.0</ele><time>2026-04-08T11:02:23.998Z</time></trkpt><trkpt lat="39.498571230050295" lon="8.52763866029816"><ele>421.0</ele><time>2026-04-08T11:02:24.998Z</time></trkpt><trkpt lat="39.49873375710362" lon="8.527615623498656"><ele>421.0</ele><time>2026-04-08T11:02:25.998Z</time></trkpt><trkpt lat="39.498898376897436" lon="8.52750805401348"><ele>420.0</ele><time>2026-04-08T11:02:26.998Z</time></trkpt><trkpt lat="39.49907345689886" lon="8.527353326962961"><ele>419.0</ele><time>2026-04-08T11:02:27.998Z</time></trkpt><trkpt lat="39.499210350380594" lon="8.52723493592541"><ele>418.0</ele><time>2026-04-08T11:02:28.998Z</time></trkpt><trkpt lat="39.49932887334042" lon="8.52720192945373"><ele>418.0</ele><time>2026-04-08T11:02:29.997Z</time></trkpt><trkpt lat="39.49943934275622" lon="8.5272441837714"><ele>418.0</ele><time>2026-04-08T11:02:30.997Z</time></trkpt><trkpt lat="39.49951068439454" lon="8.527359491318895"><ele>418.0</ele><time>2026-04-08T11:02:31.997Z</time></trkpt><trkpt lat="39.49952729673859" lon="8.527508855373657"><ele>418.0</ele><time>2026-04-08T11:02:32.997Z</time></trkpt><trkpt lat="39.49961232404875" lon="8.527725810942533"><ele>418.5</ele><time>2026-04-08T11:02:33.997Z</time></trkpt><trkpt lat="39.49972937997921" lon="8.528007652992734"><ele>419.0</ele><time>2026-04-08T11:02:34.997Z</time></trkpt><trkpt lat="39.49985543811301" lon="8.528330060016652"><ele>419.0</ele><time>2026-04-08T11:02:35.997Z</time></trkpt><trkpt lat="39.499987502927794" lon="8.528665659575164"><ele>419.0</ele><time>2026-04-08T11:02:36.997Z</time></trkpt><trkpt lat="39.50008114897832" lon="8.528932230100473"><ele>419.0</ele><time>2026-04-08T11:02:37.997Z</time></trkpt><trkpt lat="39.50015445213894" lon="8.529130984024075"><ele>419.0</ele><time>2026-04-08T11:02:38.997Z</time></trkpt><trkpt lat="39.500229925110126" lon="8.529258601534337"><ele>419.0</ele><time>2026-04-08T11:02:39.997Z</time></trkpt><trkpt lat="39.500352187180795" lon="8.529318034698786"><ele>419.0</ele><time>2026-04-08T11:02:40.997Z</time></trkpt><trkpt lat="39.50051938711181" lon="8.529359454111423"><ele>419.0</ele><time>2026-04-08T11:02:41.997Z</time></trkpt><trkpt lat="39.500613597153624" lon="8.529525954147225"><ele>419.0</ele><time>2026-04-08T11:02:43Z</time></trkpt><trkpt lat="39.500747199339784" lon="8.529747336992369"><ele>419.0</ele><time>2026-04-08T11:02:44Z</time></trkpt><trkpt lat="39.500908946152016" lon="8.529981913546196"><ele>415.5</ele><time>2026-04-08T11:02:45Z</time></trkpt><trkpt lat="39.5010522942276" lon="8.530220338308439"><ele>412.0</ele><time>2026-04-08T11:02:46Z</time></trkpt><trkpt lat="39.501190623183916" lon="8.530446810458656"><ele>414.0</ele><time>2026-04-08T11:02:47Z</time></trkpt><trkpt lat="39.5012810485063" lon="8.530692761855384"><ele>416.0</ele><time>2026-04-08T11:02:48Z</time></trkpt><trkpt lat="39.50133291931483" lon="8.530898424529441"><ele>418.0</ele><time>2026-04-08T11:02:49Z</time></trkpt><trkpt lat="39.50139299552769" lon="8.531074193933641"><ele>416.5</ele><time>2026-04-08T11:02:50Z</time></trkpt><trkpt lat="39.50144511233824" lon="8.531225633959025"><ele>415.0</ele><time>2026-04-08T11:02:51Z</time></trkpt><trkpt lat="39.50156092172651" lon="8.531317745454416"><ele>413.5</ele><time>2026-04-08T11:02:52Z</time></trkpt><trkpt lat="39.501739906429115" lon="8.531353009800664"><ele>412.0</ele><time>2026-04-08T11:02:53Z</time></trkpt><trkpt lat="39.50196940372417" lon="8.531393967040012"><ele>413.0</ele><time>2026-04-08T11:02:54Z</time></trkpt><trkpt lat="39.50221591362148" lon="8.531455847699808"><ele>414.0</ele><time>2026-04-08T11:02:55Z</time></trkpt><trkpt lat="39.50246920604736" lon="8.531535734286233"><ele>414.0</ele><time>2026-04-08T11:02:56Z</time></trkpt><trkpt lat="39.50267632040487" lon="8.531608186975783"><ele>414.0</ele><time>2026-04-08T11:02:57Z</time></trkpt><trkpt lat="39.502865620449434" lon="8.53165996437995"><ele>414.0</ele><time>2026-04-08T11:02:58Z</time></trkpt><trkpt lat="39.50303353414649" lon="8.531763224201544"><ele>413.0</ele><time>2026-04-08T11:02:59Z</time></trkpt><trkpt lat="39.50319272402766" lon="8.531881916970004"><ele>412.0</ele><time>2026-04-08T11:03:00Z</time></trkpt><trkpt lat="39.5033688968092" lon="8.532023777338127"><ele>411.0</ele><time>2026-04-08T11:03:01Z</time></trkpt><trkpt lat="39.503542747154476" lon="8.532165941438175"><ele>410.0</ele><time>2026-04-08T11:03:02Z</time></trkpt><trkpt lat="39.50369845031497" lon="8.532294806178868"><ele>409.0</ele><time>2026-04-08T11:03:03Z</time></trkpt><trkpt lat="39.503835250128105" lon="8.532413057143275"><ele>408.0</ele><time>2026-04-08T11:03:04Z</time></trkpt><trkpt lat="39.50392024449549" lon="8.532530467931277"><ele>408.0</ele><time>2026-04-08T11:03:05Z</time></trkpt><trkpt lat="39.50398944072059" lon="8.532705960196582"><ele>408.0</ele><time>2026-04-08T11:03:06Z</time></trkpt><trkpt lat="39.50405270818914" lon="8.532865630220725"><ele>408.0</ele><time>2026-04-08T11:03:07Z</time></trkpt><trkpt lat="39.50408820367848" lon="8.532992419874887"><ele>408.0</ele><time>2026-04-08T11:03:08Z</time></trkpt><trkpt lat="39.504080163555514" lon="8.533114717865649"><ele>409.33333333333337</ele><time>2026-04-08T11:03:09Z</time></trkpt><trkpt lat="39.504008506779066" lon="8.533262393629133"><ele>410.6666666666667</ele><time>2026-04-08T11:03:10Z</time></trkpt><trkpt lat="39.50388744795412" lon="8.533408930659348"><ele>412.0</ele><time>2026-04-08T11:03:11Z</time></trkpt><trkpt lat="39.50375801838498" lon="8.533585311069677"><ele>411.25</ele><time>2026-04-08T11:03:12Z</time></trkpt><trkpt lat="39.50363421264764" lon="8.533711283886442"><ele>410.5</ele><time>2026-04-08T11:03:13Z</time></trkpt><trkpt lat="39.50354362521002" lon="8.533837340885151"><ele>409.75</ele><time>2026-04-08T11:03:14Z</time></trkpt><trkpt lat="39.503481275611946" lon="8.533994095082132"><ele>409.0</ele><time>2026-04-08T11:03:15Z</time></trkpt><trkpt lat="39.5034709427935" lon="8.534170308729138"><ele>409.0</ele><time>2026-04-08T11:03:15.999Z</time></trkpt><trkpt lat="39.503499754957225" lon="8.534350595646828"><ele>409.0</ele><time>2026-04-08T11:03:16.999Z</time></trkpt><trkpt lat="39.50354616819983" lon="8.534508802641337"><ele>409.0</ele><time>2026-04-08T11:03:17.999Z</time></trkpt><trkpt lat="39.50358100377414" lon="8.534644013178594"><ele>409.0</ele><time>2026-04-08T11:03:18.999Z</time></trkpt><trkpt lat="39.50359617457841" lon="8.534773005846754"><ele>409.79999999999995</ele><time>2026-04-08T11:03:19.999Z</time></trkpt><trkpt lat="39.503586591439976" lon="8.534906361802431"><ele>410.59999999999997</ele><time>2026-04-08T11:03:20.999Z</time></trkpt><trkpt lat="39.50355887842846" lon="8.535051187051458"><ele>411.4</ele><time>2026-04-08T11:03:21.999Z</time></trkpt><trkpt lat="39.50351078128244" lon="8.535192954786874"><ele>412.2</ele><time>2026-04-08T11:03:22.999Z</time></trkpt><trkpt lat="39.503450410107895" lon="8.53531361294482"><ele>413.0</ele><time>2026-04-08T11:03:23.999Z</time></trkpt><trkpt lat="39.503397922336724" lon="8.535427186572537"><ele>413.66666666666663</ele><time>2026-04-08T11:03:24.999Z</time></trkpt><trkpt lat="39.50336291082383" lon="8.535556125885932"><ele>414.33333333333337</ele><time>2026-04-08T11:03:25.999Z</time></trkpt><trkpt lat="39.50335444171518" lon="8.535753402330062"><ele>415.0</ele><time>2026-04-08T11:03:26.999Z</time></trkpt><trkpt lat="39.50331560911489" lon="8.53602779076353"><ele>415.0</ele><time>2026-04-08T11:03:27.999Z</time></trkpt><trkpt lat="39.503285588030764" lon="8.536348468438987"><ele>415.0</ele><time>2026-04-08T11:03:28.999Z</time></trkpt><trkpt lat="39.503243041607426" lon="8.536642572616163"><ele>415.0</ele><time>2026-04-08T11:03:29.999Z</time></trkpt><trkpt lat="39.50318925940318" lon="8.536913831629642"><ele>415.0</ele><time>2026-04-08T11:03:30.999Z</time></trkpt><trkpt lat="39.50320471382503" lon="8.537101909436283"><ele>415.0</ele><time>2026-04-08T11:03:31.999Z</time></trkpt><trkpt lat="39.50319394204239" lon="8.537295148117604"><ele>413.6666666666667</ele><time>2026-04-08T11:03:32.999Z</time></trkpt><trkpt lat="39.503231599352276" lon="8.53748937788813"><ele>412.33333333333337</ele><time>2026-04-08T11:03:33.999Z</time></trkpt><trkpt lat="39.50336024160219" lon="8.537754115423482"><ele>411.0</ele><time>2026-04-08T11:03:34.999Z</time></trkpt><trkpt lat="39.50349668827982" lon="8.53799704572166"><ele>411.0</ele><time>2026-04-08T11:03:35.999Z</time></trkpt><trkpt lat="39.50358027749693" lon="8.538174330837702"><ele>411.0</ele><time>2026-04-08T11:03:36.999Z</time></trkpt><trkpt lat="39.5036483177539" lon="8.538346751616938"><ele>411.0</ele><time>2026-04-08T11:03:37.999Z</time></trkpt><trkpt lat="39.503737323158795" lon="8.53848036394839"><ele>411.0</ele><time>2026-04-08T11:03:38.999Z</time></trkpt><trkpt lat="39.503894586616994" lon="8.53857982415159"><ele>411.0</ele><time>2026-04-08T11:03:39.999Z</time></trkpt><trkpt lat="39.50411559859616" lon="8.538665709223439"><ele>411.0</ele><time>2026-04-08T11:03:40.999Z</time></trkpt><trkpt lat="39.50436666759966" lon="8.538762699507222"><ele>409.33333333333337</ele><time>2026-04-08T11:03:41.999Z</time></trkpt><trkpt lat="39.50457602056915" lon="8.53885731523648"><ele>407.6666666666667</ele><time>2026-04-08T11:03:42.999Z</time></trkpt><trkpt lat="39.504736766606065" lon="8.538970048762998"><ele>406.0</ele><time>2026-04-08T11:03:43.999Z</time></trkpt><trkpt lat="39.50485721130651" lon="8.539083005894705"><ele>406.0</ele><time>2026-04-08T11:03:44.999Z</time></trkpt><trkpt lat="39.50495276532376" lon="8.539219073372717"><ele>406.0</ele><time>2026-04-08T11:03:45.999Z</time></trkpt><trkpt lat="39.50502364045637" lon="8.539436158661843"><ele>406.0</ele><time>2026-04-08T11:03:46.999Z</time></trkpt><trkpt lat="39.505123303147805" lon="8.53971643089422"><ele>404.0</ele><time>2026-04-08T11:03:47.999Z</time></trkpt><trkpt lat="39.5052411600708" lon="8.540047143536706"><ele>402.0</ele><time>2026-04-08T11:03:48.999Z</time></trkpt><trkpt lat="39.50538182091242" lon="8.540404379496144"><ele>401.0</ele><time>2026-04-08T11:03:49.999Z</time></trkpt><trkpt lat="39.50550500348736" lon="8.540766070453062"><ele>400.0</ele><time>2026-04-08T11:03:50.999Z</time></trkpt><trkpt lat="39.50562597532374" lon="8.541125522822698"><ele>399.0</ele><time>2026-04-08T11:03:51.999Z</time></trkpt><trkpt lat="39.50574690019818" lon="8.541478202766928"><ele>398.0</ele><time>2026-04-08T11:03:52.999Z</time></trkpt><trkpt lat="39.505849277596276" lon="8.541789637187758"><ele>397.66666666666663</ele><time>2026-04-08T11:03:53.999Z</time></trkpt><trkpt lat="39.50594906890145" lon="8.54206951511367"><ele>397.33333333333337</ele><time>2026-04-08T11:03:54.999Z</time></trkpt><trkpt lat="39.50603169021015" lon="8.542305582777546"><ele>397.0</ele><time>2026-04-08T11:03:55.999Z</time></trkpt><trkpt lat="39.506062324054604" lon="8.54252402615459"><ele>397.0</ele><time>2026-04-08T11:03:56.999Z</time></trkpt><trkpt lat="39.50602175943624" lon="8.542726798219022"><ele>397.0</ele><time>2026-04-08T11:03:57.999Z</time></trkpt><trkpt lat="39.505980131990064" lon="8.542920060498506"><ele>397.0</ele><time>2026-04-08T11:03:58.998Z</time></trkpt><trkpt lat="39.505930061867105" lon="8.543151651564989"><ele>396.6666666666667</ele><time>2026-04-08T11:03:59.998Z</time></trkpt><trkpt lat="39.50587901059154" lon="8.543386516813934"><ele>396.33333333333337</ele><time>2026-04-08T11:04:00.998Z</time></trkpt><trkpt lat="39.50584455426725" lon="8.543607969856092"><ele>396.0</ele><time>2026-04-08T11:04:01.998Z</time></trkpt><trkpt lat="39.50586763711574" lon="8.543827091354679"><ele>395.5</ele><time>2026-04-08T11:04:02.998Z</time></trkpt><trkpt lat="39.505940947973016" lon="8.54409445848365"><ele>395.0</ele><time>2026-04-08T11:04:03.998Z</time></trkpt><trkpt lat="39.506028072749984" lon="8.544387386123336"><ele>395.0</ele><time>2026-04-08T11:04:04.998Z</time></trkpt><trkpt lat="39.50610387869669" lon="8.544696683708056"><ele>395.0</ele><time>2026-04-08T11:04:05.998Z</time></trkpt><trkpt lat="39.506172742553304" lon="8.545001168266305"><ele>395.0</ele><time>2026-04-08T11:04:06.998Z</time></trkpt><trkpt lat="39.50623564644248" lon="8.545263491479739"><ele>395.0</ele><time>2026-04-08T11:04:07.998Z</time></trkpt><trkpt lat="39.50632669762626" lon="8.545522040230376"><ele>395.0</ele><time>2026-04-08T11:04:08.998Z</time></trkpt><trkpt lat="39.506453749938146" lon="8.545781222094266"><ele>396.0</ele><time>2026-04-08T11:04:09.998Z</time></trkpt><trkpt lat="39.50660689099608" lon="8.546027208541618"><ele>397.0</ele><time>2026-04-08T11:04:10.998Z</time></trkpt><trkpt lat="39.50673519476309" lon="8.546259080159397"><ele>395.33333333333337</ele><time>2026-04-08T11:04:11.998Z</time></trkpt><trkpt lat="39.50684828633051" lon="8.546471212412213"><ele>393.66666666666663</ele><time>2026-04-08T11:04:12.998Z</time></trkpt><trkpt lat="39.506919466459784" lon="8.546710558439703"><ele>392.0</ele><time>2026-04-08T11:04:13.998Z</time></trkpt><trkpt lat="39.50695826241619" lon="8.546995208187484"><ele>390.3333333333333</ele><time>2026-04-08T11:04:14.998Z</time></trkpt><trkpt lat="39.50697430446887" lon="8.54729499058338"><ele>388.66666666666663</ele><time>2026-04-08T11:04:15.998Z</time></trkpt><trkpt lat="39.507003905365664" lon="8.547547346294163"><ele>387.0</ele><time>2026-04-08T11:04:16.998Z</time></trkpt><trkpt lat="39.50703772285985" lon="8.547776674839984"><ele>387.0</ele><time>2026-04-08T11:04:17.998Z</time></trkpt><trkpt lat="39.50706461272527" lon="8.5479674537251"><ele>387.0</ele><time>2026-04-08T11:04:18.998Z</time></trkpt><trkpt lat="39.50710982961024" lon="8.548119200647188"><ele>387.0</ele><time>2026-04-08T11:04:19.998Z</time></trkpt><trkpt lat="39.50720204742726" lon="8.54821371902663"><ele>387.0</ele><time>2026-04-08T11:04:20.998Z</time></trkpt><trkpt lat="39.50735063685954" lon="8.548263484297614"><ele>387.0</ele><time>2026-04-08T11:04:21.998Z</time></trkpt><trkpt lat="39.50752358369821" lon="8.54829608853435"><ele>387.0</ele><time>2026-04-08T11:04:22.998Z</time></trkpt><trkpt lat="39.507703174015546" lon="8.548328510734994"><ele>387.0</ele><time>2026-04-08T11:04:23.998Z</time></trkpt><trkpt lat="39.50785865911998" lon="8.548371277894462"><ele>387.0</ele><time>2026-04-08T11:04:24.998Z</time></trkpt><trkpt lat="39.50797959861274" lon="8.548453524940406"><ele>387.0</ele><time>2026-04-08T11:04:25.998Z</time></trkpt><trkpt lat="39.50807138072909" lon="8.548590702575593"><ele>387.0</ele><time>2026-04-08T11:04:26.998Z</time></trkpt><trkpt lat="39.50815537830463" lon="8.548795493567248"><ele>385.6666666666667</ele><time>2026-04-08T11:04:27.998Z</time></trkpt><trkpt lat="39.50824112068341" lon="8.549048438331148"><ele>384.33333333333337</ele><time>2026-04-08T11:04:28.998Z</time></trkpt><trkpt lat="39.50832203055017" lon="8.54926624197432"><ele>383.0</ele><time>2026-04-08T11:04:29.998Z</time></trkpt><trkpt lat="39.5083933885486" lon="8.549447072789468"><ele>381.25</ele><time>2026-04-08T11:04:30.998Z</time></trkpt><trkpt lat="39.508454452474496" lon="8.549612337915729"><ele>379.5</ele><time>2026-04-08T11:04:31.998Z</time></trkpt><trkpt lat="39.50853861492989" lon="8.549731895248325"><ele>377.75</ele><time>2026-04-08T11:04:32.998Z</time></trkpt><trkpt lat="39.50866291059752" lon="8.549783201211087"><ele>376.0</ele><time>2026-04-08T11:04:33.998Z</time></trkpt><trkpt lat="39.50883439284044" lon="8.549765692673146"><ele>375.66666666666663</ele><time>2026-04-08T11:04:34.998Z</time></trkpt><trkpt lat="39.50902581010554" lon="8.549721150172843"><ele>375.3333333333333</ele><time>2026-04-08T11:04:35.998Z</time></trkpt><trkpt lat="39.50923003607098" lon="8.549677245034307"><ele>375.0</ele><time>2026-04-08T11:04:36.998Z</time></trkpt><trkpt lat="39.50939726156865" lon="8.54966121157135"><ele>375.0</ele><time>2026-04-08T11:04:37.998Z</time></trkpt><trkpt lat="39.50954180857596" lon="8.549647277208706"><ele>375.0</ele><time>2026-04-08T11:04:38.998Z</time></trkpt><trkpt lat="39.50966778645096" lon="8.549634506732183"><ele>375.0</ele><time>2026-04-08T11:04:39.998Z</time></trkpt><trkpt lat="39.5097744933027" lon="8.54968786939772"><ele>375.0</ele><time>2026-04-08T11:04:40.997Z</time></trkpt><trkpt lat="39.50985334934649" lon="8.549824561809928"><ele>374.6666666666667</ele><time>2026-04-08T11:04:41.997Z</time></trkpt><trkpt lat="39.509891880333" lon="8.550032796004176"><ele>374.33333333333337</ele><time>2026-04-08T11:04:42.997Z</time></trkpt><trkpt lat="39.50991677967038" lon="8.550293901351939"><ele>374.0</ele><time>2026-04-08T11:04:43.997Z</time></trkpt><trkpt lat="39.509949889313724" lon="8.550564049127011"><ele>373.6666666666667</ele><time>2026-04-08T11:04:44.997Z</time></trkpt><trkpt lat="39.50998971749216" lon="8.550800958707239"><ele>373.3333333333333</ele><time>2026-04-08T11:04:45.997Z</time></trkpt><trkpt lat="39.51000019865374" lon="8.551001420195641"><ele>373.0</ele><time>2026-04-08T11:04:46.997Z</time></trkpt><trkpt lat="39.50996044838199" lon="8.551216048500091"><ele>375.5</ele><time>2026-04-08T11:04:47.997Z</time></trkpt><trkpt lat="39.50987355857162" lon="8.551479470533906"><ele>378.0</ele><time>2026-04-08T11:04:49Z</time></trkpt><trkpt lat="39.5097750496703" lon="8.551769308678665"><ele>381.5</ele><time>2026-04-08T11:04:50Z</time></trkpt><trkpt lat="39.50967226485" lon="8.55208836732301"><ele>385.0</ele><time>2026-04-08T11:04:51Z</time></trkpt><trkpt lat="39.509586283779946" lon="8.552412114603039"><ele>384.33333333333337</ele><time>2026-04-08T11:04:52Z</time></trkpt><trkpt lat="39.509509815774166" lon="8.552683455493447"><ele>383.6666666666667</ele><time>2026-04-08T11:04:53Z</time></trkpt><trkpt lat="39.50942789441632" lon="8.552916807902909"><ele>383.0</ele><time>2026-04-08T11:04:54Z</time></trkpt><trkpt lat="39.50933243779075" lon="8.553117931565023"><ele>383.0</ele><time>2026-04-08T11:04:55Z</time></trkpt><trkpt lat="39.509222734841984" lon="8.553299314986285"><ele>383.0</ele><time>2026-04-08T11:04:56Z</time></trkpt><trkpt lat="39.50912441244245" lon="8.553454520280964"><ele>383.0</ele><time>2026-04-08T11:04:57Z</time></trkpt><trkpt lat="39.509063870558904" lon="8.55363512898077"><ele>384.0</ele><time>2026-04-08T11:04:58Z</time></trkpt><trkpt lat="39.50906119456657" lon="8.5538685892371"><ele>385.0</ele><time>2026-04-08T11:04:59Z</time></trkpt><trkpt lat="39.50908146824105" lon="8.55415052696837"><ele>386.0</ele><time>2026-04-08T11:05:00Z</time></trkpt><trkpt lat="39.50909997538986" lon="8.554473963060572"><ele>388.5</ele><time>2026-04-08T11:05:01Z</time></trkpt><trkpt lat="39.5091118978157" lon="8.55481883493938"><ele>391.0</ele><time>2026-04-08T11:05:02Z</time></trkpt><trkpt lat="39.50912706484058" lon="8.555163806398566"><ele>391.6666666666667</ele><time>2026-04-08T11:05:03Z</time></trkpt><trkpt lat="39.50913764871889" lon="8.555459054715406"><ele>392.33333333333337</ele><time>2026-04-08T11:05:04Z</time></trkpt><trkpt lat="39.50914396312934" lon="8.555729188466257"><ele>393.0</ele><time>2026-04-08T11:05:05Z</time></trkpt><trkpt lat="39.50914990037368" lon="8.555976494380525"><ele>393.0</ele><time>2026-04-08T11:05:06Z</time></trkpt><trkpt lat="39.509155472675" lon="8.556193433293199"><ele>393.0</ele><time>2026-04-08T11:05:07Z</time></trkpt><trkpt lat="39.50917776977448" lon="8.556369097426531"><ele>393.0</ele><time>2026-04-08T11:05:08Z</time></trkpt><trkpt lat="39.50923638880876" lon="8.556527491497171"><ele>393.0</ele><time>2026-04-08T11:05:09Z</time></trkpt><trkpt lat="39.509341480398746" lon="8.556682424382593"><ele>393.33333333333337</ele><time>2026-04-08T11:05:10Z</time></trkpt><trkpt lat="39.509493507202976" lon="8.556857908807267"><ele>393.6666666666667</ele><time>2026-04-08T11:05:11Z</time></trkpt><trkpt lat="39.509671096328375" lon="8.557058715075101"><ele>394.0</ele><time>2026-04-08T11:05:12Z</time></trkpt><trkpt lat="39.50985527412987" lon="8.557285300376174"><ele>392.33333333333337</ele><time>2026-04-08T11:05:13Z</time></trkpt><trkpt lat="39.510018030172134" lon="8.557495664054517"><ele>390.66666666666663</ele><time>2026-04-08T11:05:14Z</time></trkpt><trkpt lat="39.510176295343356" lon="8.557688786891822"><ele>389.0</ele><time>2026-04-08T11:05:15Z</time></trkpt><trkpt lat="39.51032338798483" lon="8.55787325040726"><ele>386.0</ele><time>2026-04-08T11:05:16Z</time></trkpt><trkpt lat="39.51046210185034" lon="8.558047160367714"><ele>383.0</ele><time>2026-04-08T11:05:17Z</time></trkpt><trkpt lat="39.51060082190028" lon="8.55819249138645"><ele>380.0</ele><time>2026-04-08T11:05:18Z</time></trkpt><trkpt lat="39.51076007695424" lon="8.558281441528198"><ele>380.0</ele><time>2026-04-08T11:05:19Z</time></trkpt><trkpt lat="39.51093336400945" lon="8.558329240227168"><ele>380.0</ele><time>2026-04-08T11:05:20Z</time></trkpt><trkpt lat="39.51107173468573" lon="8.558393360482995"><ele>380.0</ele><time>2026-04-08T11:05:21Z</time></trkpt><trkpt lat="39.511172301196126" lon="8.558483286364616"><ele>380.0</ele><time>2026-04-08T11:05:22Z</time></trkpt><trkpt lat="39.51124508136002" lon="8.558643939971388"><ele>376.6666666666667</ele><time>2026-04-08T11:05:23Z</time></trkpt><trkpt lat="39.51131559746956" lon="8.558868478227534"><ele>373.3333333333333</ele><time>2026-04-08T11:05:24Z</time></trkpt><trkpt lat="39.511391457315995" lon="8.559075550799015"><ele>370.0</ele><time>2026-04-08T11:05:25Z</time></trkpt><trkpt lat="39.51144958522071" lon="8.559256415537615"><ele>370.0</ele><time>2026-04-08T11:05:26Z</time></trkpt><trkpt lat="39.51154195249656" lon="8.559394054198098"><ele>370.0</ele><time>2026-04-08T11:05:26.999Z</time></trkpt><trkpt lat="39.511683465849934" lon="8.559491149310846"><ele>370.0</ele><time>2026-04-08T11:05:27.999Z</time></trkpt><trkpt lat="39.511845082078956" lon="8.559529702140802"><ele>367.75</ele><time>2026-04-08T11:05:28.999Z</time></trkpt><trkpt lat="39.51200449472627" lon="8.559552405415074"><ele>365.5</ele><time>2026-04-08T11:05:29.999Z</time></trkpt><trkpt lat="39.512132316438155" lon="8.559521700753828"><ele>363.25</ele><time>2026-04-08T11:05:30.999Z</time></trkpt><trkpt lat="39.512260383067904" lon="8.559420113374548"><ele>361.0</ele><time>2026-04-08T11:05:31.999Z</time></trkpt><trkpt lat="39.512391381142955" lon="8.559257055927837"><ele>361.0</ele><time>2026-04-08T11:05:32.999Z</time></trkpt><trkpt lat="39.51250972327017" lon="8.559070695908296"><ele>361.0</ele><time>2026-04-08T11:05:33.999Z</time></trkpt><trkpt lat="39.512619384409206" lon="8.55887502375791"><ele>361.0</ele><time>2026-04-08T11:05:34.999Z</time></trkpt><trkpt lat="39.51270605761131" lon="8.558704830236103"><ele>360.25</ele><time>2026-04-08T11:05:35.999Z</time></trkpt><trkpt lat="39.512789511844076" lon="8.558568275031014"><ele>359.5</ele><time>2026-04-08T11:05:36.999Z</time></trkpt><trkpt lat="39.512896504650165" lon="8.55850545478752"><ele>358.75</ele><time>2026-04-08T11:05:37.999Z</time></trkpt><trkpt lat="39.51301226472099" lon="8.55852001034414"><ele>358.0</ele><time>2026-04-08T11:05:38.999Z</time></trkpt><trkpt lat="39.51315673882091" lon="8.558576464650251"><ele>358.0</ele><time>2026-04-08T11:05:39.999Z</time></trkpt><trkpt lat="39.513304757773604" lon="8.558607204460966"><ele>358.0</ele><time>2026-04-08T11:05:40.999Z</time></trkpt><trkpt lat="39.513452721538485" lon="8.558559089398548"><ele>358.0</ele><time>2026-04-08T11:05:41.999Z</time></trkpt><trkpt lat="39.51359487766836" lon="8.558411666425009"><ele>358.0</ele><time>2026-04-08T11:05:42.999Z</time></trkpt><trkpt lat="39.51373720098015" lon="8.558331045994024"><ele>358.0</ele><time>2026-04-08T11:05:43.999Z</time></trkpt><trkpt lat="39.513871471743116" lon="8.558327725547214"><ele>358.0</ele><time>2026-04-08T11:05:44.999Z</time></trkpt><trkpt lat="39.51405760385047" lon="8.558359400241185"><ele>354.0</ele><time>2026-04-08T11:05:45.999Z</time></trkpt><trkpt lat="39.514232613055206" lon="8.558431631991553"><ele>350.0</ele><time>2026-04-08T11:05:46.999Z</time></trkpt><trkpt lat="39.51439529471077" lon="8.5584063419198"><ele>346.0</ele><time>2026-04-08T11:05:47.999Z</time></trkpt><trkpt lat="39.5145402656422" lon="8.558343379629763"><ele>345.5</ele><time>2026-04-08T11:05:48.999Z</time></trkpt><trkpt lat="39.514677731378484" lon="8.558269274029923"><ele>345.0</ele><time>2026-04-08T11:05:49.999Z</time></trkpt><trkpt lat="39.51477904723882" lon="8.558195530689742"><ele>344.5</ele><time>2026-04-08T11:05:50.999Z</time></trkpt><trkpt lat="39.51485826200768" lon="8.55804449485202"><ele>344.0</ele><time>2026-04-08T11:05:51.999Z</time></trkpt><trkpt lat="39.51489778228044" lon="8.557845252440503"><ele>344.0</ele><time>2026-04-08T11:05:52.999Z</time></trkpt><trkpt lat="39.51490426620452" lon="8.55766748065384"><ele>344.0</ele><time>2026-04-08T11:05:53.999Z</time></trkpt><trkpt lat="39.51493039575129" lon="8.557553530446862"><ele>344.0</ele><time>2026-04-08T11:05:54.999Z</time></trkpt><trkpt lat="39.51498973239813" lon="8.55750000380598"><ele>344.0</ele><time>2026-04-08T11:05:55.999Z</time></trkpt><trkpt lat="39.51508664919531" lon="8.557472757871757"><ele>344.0</ele><time>2026-04-08T11:05:56.999Z</time></trkpt><trkpt lat="39.51520410299133" lon="8.557497307772884"><ele>344.0</ele><time>2026-04-08T11:05:57.999Z</time></trkpt><trkpt lat="39.515274848894265" lon="8.557633401077846"><ele>344.0</ele><time>2026-04-08T11:05:58.999Z</time></trkpt><trkpt lat="39.51538177608939" lon="8.557734262636833"><ele>344.0</ele><time>2026-04-08T11:05:59.999Z</time></trkpt><trkpt lat="39.51548107209893" lon="8.55788096670637"><ele>344.0</ele><time>2026-04-08T11:06:00.999Z</time></trkpt><trkpt lat="39.51557895485761" lon="8.557989212579068"><ele>339.75</ele><time>2026-04-08T11:06:01.999Z</time></trkpt><trkpt lat="39.5156746703085" lon="8.55806817070168"><ele>335.5</ele><time>2026-04-08T11:06:02.999Z</time></trkpt><trkpt lat="39.515778359306374" lon="8.558115626535754"><ele>331.25</ele><time>2026-04-08T11:06:03.999Z</time></trkpt><trkpt lat="39.515914994505934" lon="8.558088633504372"><ele>327.0</ele><time>2026-04-08T11:06:04.999Z</time></trkpt><trkpt lat="39.516077208789945" lon="8.557997392651922"><ele>324.0</ele><time>2026-04-08T11:06:05.999Z</time></trkpt><trkpt lat="39.51626295201799" lon="8.5579027956524"><ele>321.0</ele><time>2026-04-08T11:06:06.999Z</time></trkpt><trkpt lat="39.51646926495782" lon="8.557851645440877"><ele>318.0</ele><time>2026-04-08T11:06:07.999Z</time></trkpt><trkpt lat="39.516665185037645" lon="8.557827464162102"><ele>319.3333333333333</ele><time>2026-04-08T11:06:08.998Z</time></trkpt><trkpt lat="39.51684436970102" lon="8.557758795760595"><ele>320.66666666666663</ele><time>2026-04-08T11:06:09.998Z</time></trkpt><trkpt lat="39.51703643172593" lon="8.557634034097964"><ele>322.0</ele><time>2026-04-08T11:06:10.998Z</time></trkpt><trkpt lat="39.51723089482804" lon="8.557524454921552"><ele>322.0</ele><time>2026-04-08T11:06:11.998Z</time></trkpt><trkpt lat="39.51742396673957" lon="8.557488228974432"><ele>322.0</ele><time>2026-04-08T11:06:12.998Z</time></trkpt><trkpt lat="39.517600927205635" lon="8.557438212401616"><ele>322.0</ele><time>2026-04-08T11:06:13.998Z</time></trkpt><trkpt lat="39.51775270265041" lon="8.55744301198745"><ele>322.0</ele><time>2026-04-08T11:06:14.998Z</time></trkpt><trkpt lat="39.5178692997124" lon="8.557463456815512"><ele>322.0</ele><time>2026-04-08T11:06:15.998Z</time></trkpt><trkpt lat="39.51795944268148" lon="8.55754205198102"><ele>322.0</ele><time>2026-04-08T11:06:16.998Z</time></trkpt><trkpt lat="39.518019023666234" lon="8.557682160285825"><ele>322.0</ele><time>2026-04-08T11:06:17.998Z</time></trkpt><trkpt lat="39.5180615726386" lon="8.557869720525966"><ele>321.5</ele><time>2026-04-08T11:06:18.998Z</time></trkpt><trkpt lat="39.51806099940122" lon="8.558023442892903"><ele>321.0</ele><time>2026-04-08T11:06:19.998Z</time></trkpt><trkpt lat="39.51803008371455" lon="8.558152435483963"><ele>320.5</ele><time>2026-04-08T11:06:20.998Z</time></trkpt><trkpt lat="39.517870560421095" lon="8.558226035141624"><ele>320.0</ele><time>2026-04-08T11:06:21.998Z</time></trkpt><trkpt lat="39.51769595906259" lon="8.558362460161094"><ele>320.0</ele><time>2026-04-08T11:06:22.998Z</time></trkpt><trkpt lat="39.517490634386434" lon="8.558480750763167"><ele>320.0</ele><time>2026-04-08T11:06:23.998Z</time></trkpt><trkpt lat="39.51729939440805" lon="8.558628621397025"><ele>320.0</ele><time>2026-04-08T11:06:24.998Z</time></trkpt><trkpt lat="39.51711760024462" lon="8.55878342618304"><ele>318.0</ele><time>2026-04-08T11:06:25.998Z</time></trkpt><trkpt lat="39.516946866728276" lon="8.558967901802014"><ele>316.0</ele><time>2026-04-08T11:06:26.998Z</time></trkpt><trkpt lat="39.51675204056103" lon="8.559175015784737"><ele>316.0</ele><time>2026-04-08T11:06:27.998Z</time></trkpt><trkpt lat="39.516563565185784" lon="8.559419951953751"><ele>316.0</ele><time>2026-04-08T11:06:28.998Z</time></trkpt><trkpt lat="39.5163873590769" lon="8.559659044382464"><ele>313.0</ele><time>2026-04-08T11:06:29.998Z</time></trkpt><trkpt lat="39.51623188377403" lon="8.559919101576131"><ele>310.0</ele><time>2026-04-08T11:06:30.998Z</time></trkpt><trkpt lat="39.516104277860606" lon="8.560171332222202"><ele>311.66666666666663</ele><time>2026-04-08T11:06:31.998Z</time></trkpt><trkpt lat="39.515983558986775" lon="8.560381274371533"><ele>313.3333333333333</ele><time>2026-04-08T11:06:32.998Z</time></trkpt><trkpt lat="39.51586941143033" lon="8.560562248743773"><ele>315.0</ele><time>2026-04-08T11:06:33.998Z</time></trkpt><trkpt lat="39.51579522567541" lon="8.560719847592623"><ele>315.0</ele><time>2026-04-08T11:06:34.998Z</time></trkpt><trkpt lat="39.51576554843902" lon="8.560907899296293"><ele>315.0</ele><time>2026-04-08T11:06:35.998Z</time></trkpt><trkpt lat="39.5157553482135" lon="8.561125115584154"><ele>315.0</ele><time>2026-04-08T11:06:36.998Z</time></trkpt><trkpt lat="39.515797346128785" lon="8.561378369834873"><ele>314.6666666666667</ele><time>2026-04-08T11:06:37.998Z</time></trkpt><trkpt lat="39.51585641430544" lon="8.561558686788656"><ele>314.33333333333337</ele><time>2026-04-08T11:06:38.998Z</time></trkpt><trkpt lat="39.51594371675521" lon="8.561706363748526"><ele>314.0</ele><time>2026-04-08T11:06:39.998Z</time></trkpt><trkpt lat="39.516131495936875" lon="8.561893156990426"><ele>314.5</ele><time>2026-04-08T11:06:40.998Z</time></trkpt><trkpt lat="39.51633669406834" lon="8.562082838225132"><ele>315.0</ele><time>2026-04-08T11:06:41.998Z</time></trkpt><trkpt lat="39.51648605079087" lon="8.562275365366482"><ele>315.0</ele><time>2026-04-08T11:06:42.998Z</time></trkpt><trkpt lat="39.51660102942244" lon="8.562459796600288"><ele>315.0</ele><time>2026-04-08T11:06:43.998Z</time></trkpt><trkpt lat="39.51668150911724" lon="8.562676033347394"><ele>315.0</ele><time>2026-04-08T11:06:44.998Z</time></trkpt><trkpt lat="39.51673855781507" lon="8.562962475540985"><ele>312.5</ele><time>2026-04-08T11:06:45.998Z</time></trkpt><trkpt lat="39.51682343246271" lon="8.563299433880687"><ele>310.0</ele><time>2026-04-08T11:06:46.998Z</time></trkpt><trkpt lat="39.51689766926787" lon="8.563600250613076"><ele>310.66666666666663</ele><time>2026-04-08T11:06:47.998Z</time></trkpt><trkpt lat="39.51699534814776" lon="8.56383392484067"><ele>311.3333333333333</ele><time>2026-04-08T11:06:48.998Z</time></trkpt><trkpt lat="39.51707387930278" lon="8.564041546599412"><ele>312.0</ele><time>2026-04-08T11:06:49.998Z</time></trkpt><trkpt lat="39.51715247946066" lon="8.564204768108002"><ele>312.0</ele><time>2026-04-08T11:06:50.997Z</time></trkpt><trkpt lat="39.51726504144676" lon="8.56433585664328"><ele>312.0</ele><time>2026-04-08T11:06:51.997Z</time></trkpt><trkpt lat="39.517426196276176" lon="8.564410765178826"><ele>312.0</ele><time>2026-04-08T11:06:52.997Z</time></trkpt><trkpt lat="39.5176429447745" lon="8.5644794248674"><ele>309.0</ele><time>2026-04-08T11:06:53.997Z</time></trkpt><trkpt lat="39.5178760439078" lon="8.56457516924536"><ele>306.0</ele><time>2026-04-08T11:06:55Z</time></trkpt><trkpt lat="39.51807192596531" lon="8.564673805488466"><ele>306.0</ele><time>2026-04-08T11:06:56Z</time></trkpt><trkpt lat="39.5182431567108" lon="8.56475920659064"><ele>306.0</ele><time>2026-04-08T11:06:57Z</time></trkpt><trkpt lat="39.51839513388191" lon="8.56482211801764"><ele>306.0</ele><time>2026-04-08T11:06:58Z</time></trkpt><trkpt lat="39.51850087308406" lon="8.564922173983073"><ele>306.0</ele><time>2026-04-08T11:06:59Z</time></trkpt><trkpt lat="39.51855100264451" lon="8.565015212397581"><ele>306.0</ele><time>2026-04-08T11:07:00Z</time></trkpt><trkpt lat="39.51854162502677" lon="8.56516057434994"><ele>306.0</ele><time>2026-04-08T11:07:01Z</time></trkpt><trkpt lat="39.51847551817398" lon="8.565333166787346"><ele>306.0</ele><time>2026-04-08T11:07:02Z</time></trkpt><trkpt lat="39.51845103106487" lon="8.565559468991198"><ele>305.0</ele><time>2026-04-08T11:07:03Z</time></trkpt><trkpt lat="39.51844239866116" lon="8.565808482744735"><ele>304.0</ele><time>2026-04-08T11:07:04Z</time></trkpt><trkpt lat="39.51848701541533" lon="8.56610191151963"><ele>303.0</ele><time>2026-04-08T11:07:05Z</time></trkpt><trkpt lat="39.518514169583206" lon="8.56640728171475"><ele>302.6666666666667</ele><time>2026-04-08T11:07:06Z</time></trkpt><trkpt lat="39.51852989298642" lon="8.566662408366353"><ele>302.33333333333337</ele><time>2026-04-08T11:07:07Z</time></trkpt><trkpt lat="39.518538295238606" lon="8.566883300904234"><ele>302.0</ele><time>2026-04-08T11:07:08Z</time></trkpt><trkpt lat="39.51848621370774" lon="8.567106756766599"><ele>303.33333333333337</ele><time>2026-04-08T11:07:09Z</time></trkpt><trkpt lat="39.51840681174771" lon="8.567350163458428"><ele>304.6666666666667</ele><time>2026-04-08T11:07:10Z</time></trkpt><trkpt lat="39.51828628509628" lon="8.567580763693416"><ele>306.0</ele><time>2026-04-08T11:07:11Z</time></trkpt><trkpt lat="39.51816765997256" lon="8.567817040449631"><ele>307.0</ele><time>2026-04-08T11:07:12Z</time></trkpt><trkpt lat="39.51805637613788" lon="8.568033820827143"><ele>308.0</ele><time>2026-04-08T11:07:13Z</time></trkpt><trkpt lat="39.51800541375198" lon="8.568261296022866"><ele>309.0</ele><time>2026-04-08T11:07:14Z</time></trkpt><trkpt lat="39.51798655253772" lon="8.568521599378236"><ele>309.0</ele><time>2026-04-08T11:07:15Z</time></trkpt><trkpt lat="39.517986259828085" lon="8.568802167020857"><ele>309.0</ele><time>2026-04-08T11:07:16Z</time></trkpt><trkpt lat="39.51801142605196" lon="8.569097764969603"><ele>309.0</ele><time>2026-04-08T11:07:17Z</time></trkpt><trkpt lat="39.518064402380354" lon="8.56941969544901"><ele>310.0</ele><time>2026-04-08T11:07:18Z</time></trkpt><trkpt lat="39.51811781775075" lon="8.569773372326997"><ele>311.0</ele><time>2026-04-08T11:07:19Z</time></trkpt><trkpt lat="39.51813548832636" lon="8.570131383203936"><ele>311.0</ele><time>2026-04-08T11:07:20Z</time></trkpt><trkpt lat="39.51817923874225" lon="8.570403429784008"><ele>311.0</ele><time>2026-04-08T11:07:21Z</time></trkpt><trkpt lat="39.5182067263528" lon="8.570650428539999"><ele>311.0</ele><time>2026-04-08T11:07:22Z</time></trkpt><trkpt lat="39.518220610149655" lon="8.570846997580297"><ele>311.0</ele><time>2026-04-08T11:07:23Z</time></trkpt><trkpt lat="39.51824338749891" lon="8.571008618401065"><ele>311.0</ele><time>2026-04-08T11:07:24Z</time></trkpt><trkpt lat="39.51829529436289" lon="8.57112805555012"><ele>311.0</ele><time>2026-04-08T11:07:25Z</time></trkpt><trkpt lat="39.518393342094434" lon="8.57120582284889"><ele>311.0</ele><time>2026-04-08T11:07:26Z</time></trkpt><trkpt lat="39.51853741938195" lon="8.57123233668889"><ele>310.25</ele><time>2026-04-08T11:07:27Z</time></trkpt><trkpt lat="39.518670380132576" lon="8.57127255578892"><ele>309.5</ele><time>2026-04-08T11:07:28Z</time></trkpt><trkpt lat="39.51875944485845" lon="8.571346353662282"><ele>308.75</ele><time>2026-04-08T11:07:29Z</time></trkpt><trkpt lat="39.51880793907809" lon="8.57145223223999"><ele>308.0</ele><time>2026-04-08T11:07:30Z</time></trkpt><trkpt lat="39.51878035690354" lon="8.571645655369213"><ele>308.0</ele><time>2026-04-08T11:07:31Z</time></trkpt><trkpt lat="39.518787315612656" lon="8.571827788736202"><ele>308.0</ele><time>2026-04-08T11:07:32Z</time></trkpt><trkpt lat="39.51881861925117" lon="8.571938185114385"><ele>308.0</ele><time>2026-04-08T11:07:33Z</time></trkpt><trkpt lat="39.51889242818585" lon="8.571968566542928"><ele>308.0</ele><time>2026-04-08T11:07:33.999Z</time></trkpt><trkpt lat="39.51899079503151" lon="8.571954463103205"><ele>308.0</ele><time>2026-04-08T11:07:34.999Z</time></trkpt><trkpt lat="39.51912520487221" lon="8.571921114193827"><ele>308.0</ele><time>2026-04-08T11:07:35.999Z</time></trkpt><trkpt lat="39.51926578312882" lon="8.571906794173161"><ele>308.0</ele><time>2026-04-08T11:07:36.999Z</time></trkpt><trkpt lat="39.51940098698162" lon="8.571947986555397"><ele>308.0</ele><time>2026-04-08T11:07:37.999Z</time></trkpt><trkpt lat="39.51953788498779" lon="8.572009686320172"><ele>308.0</ele><time>2026-04-08T11:07:38.999Z</time></trkpt><trkpt lat="39.519680455515996" lon="8.572037486730425"><ele>306.75</ele><time>2026-04-08T11:07:39.999Z</time></trkpt><trkpt lat="39.51982894651983" lon="8.572019016009623"><ele>305.5</ele><time>2026-04-08T11:07:40.999Z</time></trkpt><trkpt lat="39.519975006884444" lon="8.571994149637232"><ele>304.25</ele><time>2026-04-08T11:07:41.999Z</time></trkpt><trkpt lat="39.52012031299372" lon="8.571954167866382"><ele>303.0</ele><time>2026-04-08T11:07:42.999Z</time></trkpt><trkpt lat="39.52026924763237" lon="8.571860352167798"><ele>303.0</ele><time>2026-04-08T11:07:43.999Z</time></trkpt><trkpt lat="39.5203910246649" lon="8.571763327226567"><ele>303.0</ele><time>2026-04-08T11:07:44.999Z</time></trkpt><trkpt lat="39.520507396472915" lon="8.571690835414232"><ele>303.0</ele><time>2026-04-08T11:07:45.999Z</time></trkpt><trkpt lat="39.52060906768637" lon="8.571640859642525"><ele>303.0</ele><time>2026-04-08T11:07:46.999Z</time></trkpt><trkpt lat="39.52069472232096" lon="8.571629736414732"><ele>302.0</ele><time>2026-04-08T11:07:47.999Z</time></trkpt><trkpt lat="39.52077484439536" lon="8.571662002702523"><ele>301.0</ele><time>2026-04-08T11:07:48.999Z</time></trkpt><trkpt lat="39.52083043563728" lon="8.571755390593284"><ele>300.0</ele><time>2026-04-08T11:07:49.999Z</time></trkpt><trkpt lat="39.520828352271664" lon="8.57187916824081"><ele>299.0</ele><time>2026-04-08T11:07:50.999Z</time></trkpt><trkpt lat="39.52076953411308" lon="8.572004164889762"><ele>298.0</ele><time>2026-04-08T11:07:51.999Z</time></trkpt><trkpt lat="39.52067949796619" lon="8.572137282526956"><ele>298.0</ele><time>2026-04-08T11:07:52.999Z</time></trkpt><trkpt lat="39.52055812853321" lon="8.57232052273182"><ele>298.0</ele><time>2026-04-08T11:07:53.999Z</time></trkpt><trkpt lat="39.52042774194383" lon="8.57254388712094"><ele>298.0</ele><time>2026-04-08T11:07:54.999Z</time></trkpt><trkpt lat="39.520292647541424" lon="8.572776453846691"><ele>294.66666666666663</ele><time>2026-04-08T11:07:55.999Z</time></trkpt><trkpt lat="39.52016176207623" lon="8.572985034533788"><ele>291.3333333333333</ele><time>2026-04-08T11:07:56.999Z</time></trkpt><trkpt lat="39.52006288787649" lon="8.57317141571237"><ele>288.0</ele><time>2026-04-08T11:07:57.999Z</time></trkpt><trkpt lat="39.520000366185116" lon="8.57338369671155"><ele>288.0</ele><time>2026-04-08T11:07:58.999Z</time></trkpt><trkpt lat="39.519966876087054" lon="8.573593519625076"><ele>288.0</ele><time>2026-04-08T11:07:59.999Z</time></trkpt><trkpt lat="39.519959895335745" lon="8.57379788829839"><ele>288.0</ele><time>2026-04-08T11:08:00.999Z</time></trkpt><trkpt lat="39.51998477729833" lon="8.573984200440256"><ele>290.25</ele><time>2026-04-08T11:08:01.999Z</time></trkpt><trkpt lat="39.51998363707977" lon="8.574143300398674"><ele>292.5</ele><time>2026-04-08T11:08:02.999Z</time></trkpt><trkpt lat="39.51989508666844" lon="8.574257954227"><ele>294.75</ele><time>2026-04-08T11:08:03.999Z</time></trkpt><trkpt lat="39.51976260423403" lon="8.574379056081261"><ele>297.0</ele><time>2026-04-08T11:08:04.999Z</time></trkpt><trkpt lat="39.5196626770766" lon="8.57449493411766"><ele>298.6666666666667</ele><time>2026-04-08T11:08:05.999Z</time></trkpt><trkpt lat="39.51963704077303" lon="8.574672870436805"><ele>300.33333333333337</ele><time>2026-04-08T11:08:06.999Z</time></trkpt><trkpt lat="39.519679996405955" lon="8.574881714569099"><ele>302.0</ele><time>2026-04-08T11:08:07.999Z</time></trkpt><trkpt lat="39.51977379521102" lon="8.575092813891787"><ele>302.0</ele><time>2026-04-08T11:08:08.999Z</time></trkpt><trkpt lat="39.51990262296978" lon="8.57529331234082"><ele>302.0</ele><time>2026-04-08T11:08:09.999Z</time></trkpt><trkpt lat="39.52005739530166" lon="8.575513230530236"><ele>302.0</ele><time>2026-04-08T11:08:10.999Z</time></trkpt><trkpt lat="39.52018885834646" lon="8.57574562268567"><ele>298.33333333333337</ele><time>2026-04-08T11:08:11.999Z</time></trkpt><trkpt lat="39.52030711495408" lon="8.575911956434915"><ele>294.6666666666667</ele><time>2026-04-08T11:08:12.999Z</time></trkpt><trkpt lat="39.52036257453986" lon="8.576095744853548"><ele>291.0</ele><time>2026-04-08T11:08:13.999Z</time></trkpt><trkpt lat="39.52036351393014" lon="8.576266153670513"><ele>290.3333333333333</ele><time>2026-04-08T11:08:14.999Z</time></trkpt><trkpt lat="39.52032403767559" lon="8.576481067518541"><ele>289.66666666666663</ele><time>2026-04-08T11:08:15.998Z</time></trkpt><trkpt lat="39.52028067062098" lon="8.576774453975169"><ele>289.0</ele><time>2026-04-08T11:08:16.998Z</time></trkpt><trkpt lat="39.52025276776354" lon="8.577098653203679"><ele>291.0</ele><time>2026-04-08T11:08:17.998Z</time></trkpt><trkpt lat="39.52021923059717" lon="8.57737884917991"><ele>293.0</ele><time>2026-04-08T11:08:18.998Z</time></trkpt><trkpt lat="39.52017831832254" lon="8.577609370755232"><ele>295.0</ele><time>2026-04-08T11:08:19.998Z</time></trkpt><trkpt lat="39.52008079585909" lon="8.577789072431537"><ele>299.0</ele><time>2026-04-08T11:08:20.998Z</time></trkpt><trkpt lat="39.51995632352404" lon="8.577974114178048"><ele>303.0</ele><time>2026-04-08T11:08:21.998Z</time></trkpt><trkpt lat="39.5198549118273" lon="8.578129173724307"><ele>307.0</ele><time>2026-04-08T11:08:22.998Z</time></trkpt><trkpt lat="39.519837500853306" lon="8.57828683833471"><ele>307.0</ele><time>2026-04-08T11:08:23.998Z</time></trkpt><trkpt lat="39.519887326432304" lon="8.578483172480999"><ele>307.0</ele><time>2026-04-08T11:08:24.998Z</time></trkpt><trkpt lat="39.51996334245838" lon="8.57873004682382"><ele>307.0</ele><time>2026-04-08T11:08:25.998Z</time></trkpt><trkpt lat="39.5200143827964" lon="8.579014729547401"><ele>307.0</ele><time>2026-04-08T11:08:26.998Z</time></trkpt><trkpt lat="39.520033767901815" lon="8.579306754965204"><ele>307.0</ele><time>2026-04-08T11:08:27.998Z</time></trkpt><trkpt lat="39.5200489336825" lon="8.579593146014805"><ele>307.0</ele><time>2026-04-08T11:08:28.998Z</time></trkpt><trkpt lat="39.520050436091445" lon="8.579843512994517"><ele>307.3333333333333</ele><time>2026-04-08T11:08:29.998Z</time></trkpt><trkpt lat="39.520061987664974" lon="8.580069850794482"><ele>307.6666666666667</ele><time>2026-04-08T11:08:30.998Z</time></trkpt><trkpt lat="39.5201190534699" lon="8.580300718526678"><ele>308.0</ele><time>2026-04-08T11:08:31.998Z</time></trkpt><trkpt lat="39.52021841722778" lon="8.58055706096308"><ele>305.33333333333337</ele><time>2026-04-08T11:08:32.998Z</time></trkpt><trkpt lat="39.5202893624431" lon="8.580817397853501"><ele>302.6666666666667</ele><time>2026-04-08T11:08:33.998Z</time></trkpt><trkpt lat="39.520320698008355" lon="8.581050460566866"><ele>300.0</ele><time>2026-04-08T11:08:34.998Z</time></trkpt><trkpt lat="39.520297353616435" lon="8.581294620349562"><ele>297.0</ele><time>2026-04-08T11:08:35.998Z</time></trkpt><trkpt lat="39.52027458654909" lon="8.581553414688603"><ele>294.0</ele><time>2026-04-08T11:08:36.998Z</time></trkpt><trkpt lat="39.52024388006787" lon="8.581761483368245"><ele>291.0</ele><time>2026-04-08T11:08:37.998Z</time></trkpt><trkpt lat="39.52025279924679" lon="8.581920822609112"><ele>289.3333333333333</ele><time>2026-04-08T11:08:38.998Z</time></trkpt><trkpt lat="39.52030627017645" lon="8.58204686537951"><ele>287.66666666666663</ele><time>2026-04-08T11:08:39.998Z</time></trkpt><trkpt lat="39.52043276718011" lon="8.58217826697266"><ele>286.0</ele><time>2026-04-08T11:08:40.998Z</time></trkpt><trkpt lat="39.52062149277552" lon="8.582373243952974"><ele>286.0</ele><time>2026-04-08T11:08:41.998Z</time></trkpt><trkpt lat="39.52080895812696" lon="8.582636637627512"><ele>286.0</ele><time>2026-04-08T11:08:42.998Z</time></trkpt><trkpt lat="39.52103232490537" lon="8.582888411936166"><ele>285.5</ele><time>2026-04-08T11:08:43.998Z</time></trkpt><trkpt lat="39.5212418962295" lon="8.583154313494045"><ele>285.0</ele><time>2026-04-08T11:08:44.998Z</time></trkpt><trkpt lat="39.52142874078198" lon="8.583387893198173"><ele>285.0</ele><time>2026-04-08T11:08:45.998Z</time></trkpt><trkpt lat="39.52160198652554" lon="8.583608083263249"><ele>285.0</ele><time>2026-04-08T11:08:46.998Z</time></trkpt><trkpt lat="39.521768258062465" lon="8.583820624532223"><ele>284.6666666666667</ele><time>2026-04-08T11:08:47.998Z</time></trkpt><trkpt lat="39.52191936213083" lon="8.584024457874703"><ele>284.33333333333337</ele><time>2026-04-08T11:08:48.998Z</time></trkpt><trkpt lat="39.522048121570556" lon="8.58418469393209"><ele>284.0</ele><time>2026-04-08T11:08:49.998Z</time></trkpt><trkpt lat="39.52213673186136" lon="8.584333933192989"><ele>284.0</ele><time>2026-04-08T11:08:50.998Z</time></trkpt><trkpt lat="39.52221173407087" lon="8.584467415888364"><ele>284.0</ele><time>2026-04-08T11:08:51.998Z</time></trkpt><trkpt lat="39.52219478549466" lon="8.584641602559476"><ele>284.0</ele><time>2026-04-08T11:08:52.998Z</time></trkpt><trkpt lat="39.52214565949064" lon="8.58479467808505"><ele>284.0</ele><time>2026-04-08T11:08:53.998Z</time></trkpt><trkpt lat="39.52209261518709" lon="8.585009635305568"><ele>279.6666666666667</ele><time>2026-04-08T11:08:54.998Z</time></trkpt><trkpt lat="39.521996364153495" lon="8.585246888717318"><ele>275.3333333333333</ele><time>2026-04-08T11:08:55.998Z</time></trkpt><trkpt lat="39.521911520633545" lon="8.585480193563422"><ele>271.0</ele><time>2026-04-08T11:08:56.998Z</time></trkpt><trkpt lat="39.52185742451358" lon="8.585676828513721"><ele>269.25</ele><time>2026-04-08T11:08:57.997Z</time></trkpt><trkpt lat="39.5217931418901" lon="8.585843918854346"><ele>267.5</ele><time>2026-04-08T11:08:58.997Z</time></trkpt><trkpt lat="39.52174112585499" lon="8.585986732919649"><ele>265.75</ele><time>2026-04-08T11:09:00Z</time></trkpt><trkpt lat="39.52173830995667" lon="8.586126042342082"><ele>264.0</ele><time>2026-04-08T11:09:01Z</time></trkpt><trkpt lat="39.521834934444705" lon="8.586250989084363"><ele>262.75</ele><time>2026-04-08T11:09:02Z</time></trkpt><trkpt lat="39.52196100895127" lon="8.586373426496268"><ele>261.5</ele><time>2026-04-08T11:09:03Z</time></trkpt><trkpt lat="39.52208645288467" lon="8.586466653651305"><ele>260.25</ele><time>2026-04-08T11:09:04Z</time></trkpt><trkpt lat="39.52221572131944" lon="8.586511340471073"><ele>259.0</ele><time>2026-04-08T11:09:05Z</time></trkpt><trkpt lat="39.5223590423896" lon="8.586499194321474"><ele>258.5</ele><time>2026-04-08T11:09:06Z</time></trkpt><trkpt lat="39.52249971191733" lon="8.586430543482049"><ele>258.0</ele><time>2026-04-08T11:09:07Z</time></trkpt><trkpt lat="39.5226323260462" lon="8.586392291176692"><ele>257.5</ele><time>2026-04-08T11:09:08Z</time></trkpt><trkpt lat="39.522741065125004" lon="8.586370722456609"><ele>257.0</ele><time>2026-04-08T11:09:09Z</time></trkpt><trkpt lat="39.522821542389416" lon="8.58646129413483"><ele>257.0</ele><time>2026-04-08T11:09:10Z</time></trkpt><trkpt lat="39.522861275333824" lon="8.586576162785406"><ele>257.0</ele><time>2026-04-08T11:09:11Z</time></trkpt><trkpt lat="39.522871720056905" lon="8.586707770954954"><ele>257.0</ele><time>2026-04-08T11:09:12Z</time></trkpt><trkpt lat="39.522846581076955" lon="8.586878009718664"><ele>257.0</ele><time>2026-04-08T11:09:13Z</time></trkpt><trkpt lat="39.52282509661132" lon="8.587054833259838"><ele>256.25</ele><time>2026-04-08T11:09:14Z</time></trkpt><trkpt lat="39.52283562331575" lon="8.587225333517686"><ele>255.5</ele><time>2026-04-08T11:09:15Z</time></trkpt><trkpt lat="39.52287871606488" lon="8.587391493998773"><ele>254.75</ele><time>2026-04-08T11:09:16Z</time></trkpt><trkpt lat="39.52292649581139" lon="8.587558120741681"><ele>254.0</ele><time>2026-04-08T11:09:17Z</time></trkpt><trkpt lat="39.522965127255965" lon="8.58771971101275"><ele>252.0</ele><time>2026-04-08T11:09:18Z</time></trkpt><trkpt lat="39.523007853686124" lon="8.587864415706688"><ele>250.0</ele><time>2026-04-08T11:09:19Z</time></trkpt><trkpt lat="39.52308791248519" lon="8.587981192452176"><ele>248.0</ele><time>2026-04-08T11:09:20Z</time></trkpt><trkpt lat="39.523200655609614" lon="8.588064814969087"><ele>246.0</ele><time>2026-04-08T11:09:21Z</time></trkpt><trkpt lat="39.52335215497693" lon="8.588102747950426"><ele>246.0</ele><time>2026-04-08T11:09:22Z</time></trkpt><trkpt lat="39.52352903337378" lon="8.588131804226721"><ele>246.0</ele><time>2026-04-08T11:09:23Z</time></trkpt><trkpt lat="39.52369415119261" lon="8.588166549712938"><ele>246.0</ele><time>2026-04-08T11:09:24Z</time></trkpt><trkpt lat="39.52383870645542" lon="8.588201690211477"><ele>244.25</ele><time>2026-04-08T11:09:25Z</time></trkpt><trkpt lat="39.523969882497425" lon="8.588209459849693"><ele>242.5</ele><time>2026-04-08T11:09:26Z</time></trkpt><trkpt lat="39.52408789529578" lon="8.588157506470564"><ele>240.75</ele><time>2026-04-08T11:09:27Z</time></trkpt><trkpt lat="39.52419155300763" lon="8.588043390812633"><ele>239.0</ele><time>2026-04-08T11:09:28Z</time></trkpt><trkpt lat="39.52427276006795" lon="8.587932163741046"><ele>239.00000000000003</ele><time>2026-04-08T11:09:29Z</time></trkpt><trkpt lat="39.52434376457099" lon="8.587874509292822"><ele>239.0</ele><time>2026-04-08T11:09:30Z</time></trkpt><trkpt lat="39.52442354963233" lon="8.587859239642901"><ele>239.0</ele><time>2026-04-08T11:09:31Z</time></trkpt><trkpt lat="39.52450718871512" lon="8.587874044572434"><ele>239.0</ele><time>2026-04-08T11:09:32Z</time></trkpt><trkpt lat="39.52458800626739" lon="8.587916866577114"><ele>239.00000000000003</ele><time>2026-04-08T11:09:33Z</time></trkpt><trkpt lat="39.5246559369181" lon="8.587986458579273"><ele>239.0</ele><time>2026-04-08T11:09:34Z</time></trkpt><trkpt lat="39.524699626787374" lon="8.588087848450177"><ele>242.0</ele><time>2026-04-08T11:09:35Z</time></trkpt><trkpt lat="39.524727383753834" lon="8.588201613611279"><ele>245.0</ele><time>2026-04-08T11:09:36Z</time></trkpt><trkpt lat="39.52470147696161" lon="8.588335777166566"><ele>248.0</ele><time>2026-04-08T11:09:37Z</time></trkpt><trkpt lat="39.52466934223652" lon="8.588517664175436"><ele>251.0</ele><time>2026-04-08T11:09:38Z</time></trkpt><trkpt lat="39.52463787087586" lon="8.588744021353374"><ele>251.0</ele><time>2026-04-08T11:09:39Z</time></trkpt><trkpt lat="39.5246005930812" lon="8.58894470912815"><ele>251.0</ele><time>2026-04-08T11:09:39.999Z</time></trkpt><trkpt lat="39.5246116487943" lon="8.589128718499927"><ele>251.0</ele><time>2026-04-08T11:09:40.999Z</time></trkpt><trkpt lat="39.52466230246839" lon="8.589290217241183"><ele>251.0</ele><time>2026-04-08T11:09:41.999Z</time></trkpt><trkpt lat="39.524753451716876" lon="8.589415019133126"><ele>251.0</ele><time>2026-04-08T11:09:42.999Z</time></trkpt><trkpt lat="39.52487922262171" lon="8.589502318308895"><ele>251.0</ele><time>2026-04-08T11:09:43.999Z</time></trkpt><trkpt lat="39.525017696672904" lon="8.58957122512817"><ele>251.0</ele><time>2026-04-08T11:09:44.999Z</time></trkpt><trkpt lat="39.5251212177478" lon="8.589679940992275"><ele>251.0</ele><time>2026-04-08T11:09:45.999Z</time></trkpt><trkpt lat="39.52517166102198" lon="8.589801244134403"><ele>251.0</ele><time>2026-04-08T11:09:46.999Z</time></trkpt><trkpt lat="39.5251560443439" lon="8.589967729391425"><ele>251.0</ele><time>2026-04-08T11:09:47.999Z</time></trkpt><trkpt lat="39.52511577674385" lon="8.59015283284665"><ele>251.0</ele><time>2026-04-08T11:09:48.999Z</time></trkpt><trkpt lat="39.52508939698085" lon="8.590315144609361"><ele>251.0</ele><time>2026-04-08T11:09:49.999Z</time></trkpt><trkpt lat="39.525075574035306" lon="8.590455319577272"><ele>251.50000000000003</ele><time>2026-04-08T11:09:50.999Z</time></trkpt><trkpt lat="39.52504414332403" lon="8.590573901002237"><ele>252.0</ele><time>2026-04-08T11:09:51.999Z</time></trkpt><trkpt lat="39.525027561380774" lon="8.59068058398797"><ele>252.5</ele><time>2026-04-08T11:09:52.999Z</time></trkpt><trkpt lat="39.52502897696708" lon="8.590788342345569"><ele>253.0</ele><time>2026-04-08T11:09:53.999Z</time></trkpt><trkpt lat="39.525057456507405" lon="8.59090009576445"><ele>253.50000000000003</ele><time>2026-04-08T11:09:54.999Z</time></trkpt><trkpt lat="39.52511191857286" lon="8.590987694163948"><ele>254.0</ele><time>2026-04-08T11:09:55.999Z</time></trkpt><trkpt lat="39.52517348418595" lon="8.591063307283527"><ele>254.00000000000003</ele><time>2026-04-08T11:09:56.999Z</time></trkpt><trkpt lat="39.525201773095034" lon="8.591149753751104"><ele>254.0</ele><time>2026-04-08T11:09:57.999Z</time></trkpt><trkpt lat="39.52522688006762" lon="8.591237211542312"><ele>254.0</ele><time>2026-04-08T11:09:58.999Z</time></trkpt><trkpt lat="39.52528959461814" lon="8.591292952982938"><ele>254.0</ele><time>2026-04-08T11:09:59.999Z</time></trkpt><trkpt lat="39.52533440395043" lon="8.591385848750413"><ele>254.00000000000003</ele><time>2026-04-08T11:10:01.999Z</time></trkpt><trkpt lat="39.52542802826571" lon="8.591420897106548"><ele>254.0</ele><time>2026-04-08T11:14:10.999Z</time></trkpt><trkpt lat="39.52549649072955" lon="8.591513320414123"><ele>255.79999999999998</ele><time>2026-04-08T11:14:12.999Z</time></trkpt><trkpt lat="39.52555776965385" lon="8.59159743000086"><ele>257.59999999999997</ele><time>2026-04-08T11:14:14.999Z</time></trkpt><trkpt lat="39.52561649846621" lon="8.591685717594348"><ele>259.4</ele><time>2026-04-08T11:14:16.999Z</time></trkpt><trkpt lat="39.525676402204205" lon="8.5917782372141"><ele>261.2</ele><time>2026-04-08T11:14:18.999Z</time></trkpt><trkpt lat="39.52573727049792" lon="8.591875315635917"><ele>263.0</ele><time>2026-04-08T11:14:20.999Z</time></trkpt><trkpt lat="39.52579233466186" lon="8.591983190857482"><ele>262.6666666666667</ele><time>2026-04-08T11:14:22.999Z</time></trkpt><trkpt lat="39.5258127221329" lon="8.592082977679622"><ele>262.33333333333337</ele><time>2026-04-08T11:14:24.999Z</time></trkpt><trkpt lat="39.52582040694913" lon="8.592191848781503"><ele>262.0</ele><time>2026-04-08T11:14:26.999Z</time></trkpt><trkpt lat="39.525797956066604" lon="8.59234451975041"><ele>261.6666666666667</ele><time>2026-04-08T11:14:28.999Z</time></trkpt><trkpt lat="39.52577041575962" lon="8.592428463912466"><ele>261.3333333333333</ele><time>2026-04-08T11:14:29.999Z</time></trkpt><trkpt lat="39.52573633451542" lon="8.59252806526251"><ele>261.0</ele><time>2026-04-08T11:14:30.999Z</time></trkpt><trkpt lat="39.52567615596956" lon="8.592697075007079"><ele>261.0</ele><time>2026-04-08T11:14:32.998Z</time></trkpt><trkpt lat="39.52563107442867" lon="8.592817893528592"><ele>261.0</ele><time>2026-04-08T11:14:33.998Z</time></trkpt><trkpt lat="39.52558653208865" lon="8.592925676240922"><ele>261.0</ele><time>2026-04-08T11:14:34.998Z</time></trkpt><trkpt lat="39.525542787551196" lon="8.593029566884502"><ele>261.0</ele><time>2026-04-08T11:14:35.998Z</time></trkpt><trkpt lat="39.52550270911966" lon="8.59312399541272"><ele>261.0</ele><time>2026-04-08T11:14:36.998Z</time></trkpt><trkpt lat="39.525471048552944" lon="8.593217800280206"><ele>260.5</ele><time>2026-04-08T11:14:37.998Z</time></trkpt><trkpt lat="39.525447547783884" lon="8.593318291096102"><ele>260.0</ele><time>2026-04-08T11:14:38.998Z</time></trkpt><trkpt lat="39.525424796878085" lon="8.593420435178189"><ele>259.5</ele><time>2026-04-08T11:14:39.998Z</time></trkpt><trkpt lat="39.525388851396826" lon="8.59352426130317"><ele>259.0</ele><time>2026-04-08T11:14:40.998Z</time></trkpt><trkpt lat="39.52537165065939" lon="8.593631851828848"><ele>258.5</ele><time>2026-04-08T11:14:41.998Z</time></trkpt><trkpt lat="39.525376794407144" lon="8.593734927681462"><ele>258.0</ele><time>2026-04-08T11:14:42.998Z</time></trkpt><trkpt lat="39.52537370398312" lon="8.593827635549752"><ele>258.0</ele><time>2026-04-08T11:14:43.998Z</time></trkpt><trkpt lat="39.525377737396624" lon="8.593920912388338"><ele>258.0</ele><time>2026-04-08T11:14:44.998Z</time></trkpt><trkpt lat="39.52534778095047" lon="8.594005454406586"><ele>258.0</ele><time>2026-04-08T11:14:45.998Z</time></trkpt><trkpt lat="39.52530209313556" lon="8.594071543023288"><ele>258.0</ele><time>2026-04-08T11:14:46.998Z</time></trkpt><trkpt lat="39.52523384298352" lon="8.594110762861414"><ele>258.0</ele><time>2026-04-08T11:14:47.998Z</time></trkpt><trkpt lat="39.52514538233954" lon="8.594081250918231"><ele>258.0</ele><time>2026-04-08T11:14:48.998Z</time></trkpt><trkpt lat="39.52505882666014" lon="8.594075050431172"><ele>258.0</ele><time>2026-04-08T11:14:49.998Z</time></trkpt><trkpt lat="39.52496963334676" lon="8.5940654138378"><ele>258.0</ele><time>2026-04-08T11:14:50.998Z</time></trkpt><trkpt lat="39.52487730874914" lon="8.594053188222226"><ele>258.0</ele><time>2026-04-08T11:14:51.998Z</time></trkpt><trkpt lat="39.524782943566166" lon="8.59405322375768"><ele>258.0</ele><time>2026-04-08T11:14:52.998Z</time></trkpt><trkpt lat="39.524694326739144" lon="8.59404605174459"><ele>258.0</ele><time>2026-04-08T11:14:53.998Z</time></trkpt><trkpt lat="39.5246040459471" lon="8.594056941750791"><ele>258.0</ele><time>2026-04-08T11:14:54.998Z</time></trkpt><trkpt lat="39.52451415572298" lon="8.594075765619317"><ele>258.0</ele><time>2026-04-08T11:14:55.998Z</time></trkpt><trkpt lat="39.52441860029073" lon="8.59410760584793"><ele>258.0</ele><time>2026-04-08T11:14:56.998Z</time></trkpt><trkpt lat="39.52432701297139" lon="8.59415306444694"><ele>258.0</ele><time>2026-04-08T11:14:57.998Z</time></trkpt><trkpt lat="39.52423927337166" lon="8.594198204975019"><ele>258.0</ele><time>2026-04-08T11:14:58.998Z</time></trkpt><trkpt lat="39.5241500322056" lon="8.594221266030406"><ele>258.0</ele><time>2026-04-08T11:14:59.998Z</time></trkpt><trkpt lat="39.524050713701875" lon="8.59425178062829"><ele>258.0</ele><time>2026-04-08T11:15:00.998Z</time></trkpt><trkpt lat="39.52396019827228" lon="8.59429608688136"><ele>258.0</ele><time>2026-04-08T11:15:01.998Z</time></trkpt><trkpt lat="39.52386895229366" lon="8.594341245486527"><ele>258.0</ele><time>2026-04-08T11:15:02.998Z</time></trkpt><trkpt lat="39.52379108084474" lon="8.594400605405554"><ele>258.0</ele><time>2026-04-08T11:15:03.998Z</time></trkpt><trkpt lat="39.52371780291375" lon="8.594485340658455"><ele>259.1666666666667</ele><time>2026-04-08T11:15:04.998Z</time></trkpt><trkpt lat="39.52365226138302" lon="8.594588557237103"><ele>260.3333333333333</ele><time>2026-04-08T11:15:05.998Z</time></trkpt><trkpt lat="39.52360488420704" lon="8.594701749595563"><ele>261.5</ele><time>2026-04-08T11:15:06.998Z</time></trkpt><trkpt lat="39.52357849178987" lon="8.594803993718953"><ele>262.66666666666663</ele><time>2026-04-08T11:15:07.998Z</time></trkpt><trkpt lat="39.52356533736863" lon="8.594907022878045"><ele>263.8333333333333</ele><time>2026-04-08T11:15:08.998Z</time></trkpt><trkpt lat="39.52355217857813" lon="8.595007471693423"><ele>265.0</ele><time>2026-04-08T11:15:09.998Z</time></trkpt><trkpt lat="39.52352154351125" lon="8.595098380127945"><ele>265.0</ele><time>2026-04-08T11:15:10.998Z</time></trkpt><trkpt lat="39.52351659300526" lon="8.595185921282212"><ele>265.0</ele><time>2026-04-08T11:15:11.998Z</time></trkpt><trkpt lat="39.523452917907115" lon="8.595284802424844"><ele>265.0</ele><time>2026-04-08T11:15:13.997Z</time></trkpt><trkpt lat="39.52336379976379" lon="8.59530834308721"><ele>265.0</ele><time>2026-04-08T11:15:15.997Z</time></trkpt><trkpt lat="39.52325885497532" lon="8.595337200761202"><ele>265.0</ele><time>2026-04-08T11:15:18Z</time></trkpt><trkpt lat="39.52315543957544" lon="8.595391651011807"><ele>265.3333333333333</ele><time>2026-04-08T11:15:20Z</time></trkpt><trkpt lat="39.523101127770865" lon="8.595434080533257"><ele>265.66666666666663</ele><time>2026-04-08T11:15:21Z</time></trkpt><trkpt lat="39.523050294746" lon="8.595486505282963"><ele>266.0</ele><time>2026-04-08T11:15:22Z</time></trkpt><trkpt lat="39.52298288102935" lon="8.595596698579605"><ele>266.3333333333333</ele><time>2026-04-08T11:15:24Z</time></trkpt><trkpt lat="39.5229167673826" lon="8.595690043038491"><ele>266.6666666666667</ele><time>2026-04-08T11:15:26Z</time></trkpt><trkpt lat="39.52285461709682" lon="8.595774860080732"><ele>267.0</ele><time>2026-04-08T11:15:28Z</time></trkpt><trkpt lat="39.52277977370623" lon="8.595855034467434"><ele>267.0</ele><time>2026-04-08T11:15:30Z</time></trkpt><trkpt lat="39.52271114684954" lon="8.59594199175317"><ele>267.0</ele><time>2026-04-08T11:15:32Z</time></trkpt><trkpt lat="39.522648156729176" lon="8.595928999030221"><ele>267.0</ele><time>2026-04-08T11:15:33Z</time></trkpt><trkpt lat="39.522580148967826" lon="8.595946416986365"><ele>267.0</ele><time>2026-04-08T11:15:34Z</time></trkpt><trkpt lat="39.52249499840574" lon="8.595966046177864"><ele>267.0</ele><time>2026-04-08T11:15:35Z</time></trkpt><trkpt lat="39.52241192137158" lon="8.595985197378283"><ele>267.0</ele><time>2026-04-08T11:15:36Z</time></trkpt><trkpt lat="39.52233432867068" lon="8.596016663431854"><ele>267.0</ele><time>2026-04-08T11:15:37Z</time></trkpt><trkpt lat="39.52224909446209" lon="8.59603833970287"><ele>267.0</ele><time>2026-04-08T11:15:38Z</time></trkpt><trkpt lat="39.522165357628126" lon="8.59606206055252"><ele>267.0</ele><time>2026-04-08T11:15:39Z</time></trkpt><trkpt lat="39.52210889662763" lon="8.59611051409411"><ele>267.0</ele><time>2026-04-08T11:15:40Z</time></trkpt><trkpt lat="39.522062018321776" lon="8.59618262941314"><ele>267.0</ele><time>2026-04-08T11:15:41Z</time></trkpt><trkpt lat="39.52203154312224" lon="8.59633897906646"><ele>267.0</ele><time>2026-04-08T11:15:43Z</time></trkpt><trkpt lat="39.522052161255175" lon="8.596447632718228"><ele>267.1666666666667</ele><time>2026-04-08T11:15:44Z</time></trkpt><trkpt lat="39.522077439187555" lon="8.59655875326407"><ele>267.3333333333333</ele><time>2026-04-08T11:15:45Z</time></trkpt><trkpt lat="39.52209650750088" lon="8.596668222948061"><ele>267.5</ele><time>2026-04-08T11:15:46Z</time></trkpt><trkpt lat="39.522114060083496" lon="8.596777502562915"><ele>267.66666666666663</ele><time>2026-04-08T11:15:47Z</time></trkpt><trkpt lat="39.52215150911617" lon="8.596879189471746"><ele>267.8333333333333</ele><time>2026-04-08T11:15:48Z</time></trkpt><trkpt lat="39.522196805372474" lon="8.596975281824413"><ele>268.0</ele><time>2026-04-08T11:15:49Z</time></trkpt><trkpt lat="39.522262852116256" lon="8.597045866239835"><ele>267.0</ele><time>2026-04-08T11:15:50Z</time></trkpt><trkpt lat="39.522327787030015" lon="8.597108522500108"><ele>266.0</ele><time>2026-04-08T11:15:51Z</time></trkpt><trkpt lat="39.522387167777424" lon="8.597171251561765"><ele>265.0</ele><time>2026-04-08T11:15:52Z</time></trkpt><trkpt lat="39.52243033173538" lon="8.59724310593729"><ele>264.0</ele><time>2026-04-08T11:15:53Z</time></trkpt><trkpt lat="39.52245806538707" lon="8.59731747918757"><ele>263.0</ele><time>2026-04-08T11:15:54Z</time></trkpt><trkpt lat="39.52243249160409" lon="8.597417067611458"><ele>262.0</ele><time>2026-04-08T11:15:55Z</time></trkpt><trkpt lat="39.522437367889566" lon="8.597537052887146"><ele>262.0</ele><time>2026-04-08T11:15:55.999Z</time></trkpt><trkpt lat="39.522430445188455" lon="8.597649005447764"><ele>262.0</ele><time>2026-04-08T11:15:56.999Z</time></trkpt><trkpt lat="39.5224303872129" lon="8.597765195927007"><ele>262.0</ele><time>2026-04-08T11:15:57.999Z</time></trkpt><trkpt lat="39.52242848359708" lon="8.597873829954203"><ele>262.0</ele><time>2026-04-08T11:15:58.999Z</time></trkpt><trkpt lat="39.52242824437933" lon="8.59797371487903"><ele>262.0</ele><time>2026-04-08T11:15:59.999Z</time></trkpt><trkpt lat="39.52243378106514" lon="8.598062568877573"><ele>262.0</ele><time>2026-04-08T11:16:00.999Z</time></trkpt><trkpt lat="39.52243840023477" lon="8.59815368523078"><ele>261.16666666666663</ele><time>2026-04-08T11:16:01.999Z</time></trkpt><trkpt lat="39.522498616172335" lon="8.598226547235365"><ele>260.3333333333333</ele><time>2026-04-08T11:16:02.999Z</time></trkpt><trkpt lat="39.52254713458211" lon="8.598317329690715"><ele>259.5</ele><time>2026-04-08T11:16:03.999Z</time></trkpt><trkpt lat="39.522608571154585" lon="8.598397177935265"><ele>258.6666666666667</ele><time>2026-04-08T11:16:04.999Z</time></trkpt><trkpt lat="39.52265917715299" lon="8.598470394080218"><ele>257.83333333333337</ele><time>2026-04-08T11:16:05.999Z</time></trkpt><trkpt lat="39.52270650483372" lon="8.598534871244292"><ele>257.0</ele><time>2026-04-08T11:16:06.999Z</time></trkpt><trkpt lat="39.522700944057576" lon="8.598632636955855"><ele>257.6666666666667</ele><time>2026-04-08T11:16:07.999Z</time></trkpt><trkpt lat="39.522660007107504" lon="8.598719363912245"><ele>258.33333333333337</ele><time>2026-04-08T11:16:08.999Z</time></trkpt><trkpt lat="39.52258266722357" lon="8.598773174058431"><ele>259.0</ele><time>2026-04-08T11:16:09.999Z</time></trkpt><trkpt lat="39.52248975642504" lon="8.598760873996047"><ele>259.6666666666667</ele><time>2026-04-08T11:16:10.999Z</time></trkpt><trkpt lat="39.522401027683415" lon="8.598764052862327"><ele>260.3333333333333</ele><time>2026-04-08T11:16:11.999Z</time></trkpt><trkpt lat="39.52231176672736" lon="8.598752892659881"><ele>261.0</ele><time>2026-04-08T11:16:12.999Z</time></trkpt><trkpt lat="39.522223622481604" lon="8.598779389153986"><ele>261.0</ele><time>2026-04-08T11:16:13.999Z</time></trkpt><trkpt lat="39.52214751666346" lon="8.598834985466487"><ele>261.0</ele><time>2026-04-08T11:16:14.999Z</time></trkpt><trkpt lat="39.52208100465546" lon="8.59891917145432"><ele>261.0</ele><time>2026-04-08T11:16:15.999Z</time></trkpt><trkpt lat="39.522019411294885" lon="8.599012162126959"><ele>261.0</ele><time>2026-04-08T11:16:16.999Z</time></trkpt><trkpt lat="39.52194882889357" lon="8.59908524699079"><ele>261.0</ele><time>2026-04-08T11:16:17.999Z</time></trkpt><trkpt lat="39.521853270521945" lon="8.599115910191255"><ele>260.75</ele><time>2026-04-08T11:16:18.999Z</time></trkpt><trkpt lat="39.5217497807587" lon="8.599105413772891"><ele>260.5</ele><time>2026-04-08T11:16:19.999Z</time></trkpt><trkpt lat="39.521647625979426" lon="8.599069146243343"><ele>260.25</ele><time>2026-04-08T11:16:20.999Z</time></trkpt><trkpt lat="39.52153070051678" lon="8.599022780500563"><ele>260.0</ele><time>2026-04-08T11:16:21.999Z</time></trkpt><trkpt lat="39.52139395577668" lon="8.598966256842898"><ele>260.0</ele><time>2026-04-08T11:16:22.999Z</time></trkpt><trkpt lat="39.521256275727346" lon="8.598911889481233"><ele>260.0</ele><time>2026-04-08T11:16:23.999Z</time></trkpt><trkpt lat="39.52112837015471" lon="8.598844207033991"><ele>260.0</ele><time>2026-04-08T11:16:24.999Z</time></trkpt><trkpt lat="39.52099668166705" lon="8.598782840602192"><ele>260.0</ele><time>2026-04-08T11:16:25.999Z</time></trkpt><trkpt lat="39.520851774820336" lon="8.598755396523606"><ele>260.6666666666667</ele><time>2026-04-08T11:16:26.999Z</time></trkpt><trkpt lat="39.520687223414534" lon="8.598741481099383"><ele>261.3333333333333</ele><time>2026-04-08T11:16:27.999Z</time></trkpt><trkpt lat="39.52050755459281" lon="8.598751850105451"><ele>262.0</ele><time>2026-04-08T11:16:28.999Z</time></trkpt><trkpt lat="39.520329157706975" lon="8.59877263025157"><ele>262.3333333333333</ele><time>2026-04-08T11:16:29.999Z</time></trkpt><trkpt lat="39.5201556638274" lon="8.598799561792461"><ele>262.6666666666667</ele><time>2026-04-08T11:16:30.999Z</time></trkpt><trkpt lat="39.51998633730847" lon="8.598812857332979"><ele>263.0</ele><time>2026-04-08T11:16:31.999Z</time></trkpt><trkpt lat="39.51982429455501" lon="8.598814293462603"><ele>263.0</ele><time>2026-04-08T11:16:32.999Z</time></trkpt><trkpt lat="39.519662724595065" lon="8.598816391181119"><ele>263.0</ele><time>2026-04-08T11:16:33.999Z</time></trkpt><trkpt lat="39.51950242012213" lon="8.59878518285474"><ele>263.0</ele><time>2026-04-08T11:16:34.999Z</time></trkpt><trkpt lat="39.51934227670684" lon="8.59869843592372"><ele>254.33333333333334</ele><time>2026-04-08T11:16:35.999Z</time></trkpt><trkpt lat="39.519182495443346" lon="8.598578457055442"><ele>245.66666666666669</ele><time>2026-04-08T11:16:36.998Z</time></trkpt><trkpt lat="39.51902296238423" lon="8.598445249991615"><ele>237.0</ele><time>2026-04-08T11:16:37.998Z</time></trkpt><trkpt lat="39.51886343502809" lon="8.598318798818514"><ele>239.0</ele><time>2026-04-08T11:16:38.998Z</time></trkpt><trkpt lat="39.5187049276515" lon="8.59820263784697"><ele>241.0</ele><time>2026-04-08T11:16:39.998Z</time></trkpt><trkpt lat="39.51855085210831" lon="8.598085879951325"><ele>243.0</ele><time>2026-04-08T11:16:40.998Z</time></trkpt><trkpt lat="39.51840237820259" lon="8.597970577022755"><ele>243.0</ele><time>2026-04-08T11:16:41.998Z</time></trkpt><trkpt lat="39.51825575412454" lon="8.5978559359819"><ele>243.0</ele><time>2026-04-08T11:16:42.998Z</time></trkpt><trkpt lat="39.51812585284503" lon="8.597719679413075"><ele>243.0</ele><time>2026-04-08T11:16:43.998Z</time></trkpt><trkpt lat="39.51802978984115" lon="8.59754933848168"><ele>240.25</ele><time>2026-04-08T11:16:44.998Z</time></trkpt><trkpt lat="39.517948997127604" lon="8.59739101295567"><ele>237.5</ele><time>2026-04-08T11:16:45.998Z</time></trkpt><trkpt lat="39.51784430150638" lon="8.59727907158184"><ele>234.75</ele><time>2026-04-08T11:16:46.998Z</time></trkpt><trkpt lat="39.51771195039539" lon="8.597228671512998"><ele>232.0</ele><time>2026-04-08T11:16:47.998Z</time></trkpt><trkpt lat="39.5175653020045" lon="8.597248489821817"><ele>232.0</ele><time>2026-04-08T11:16:48.998Z</time></trkpt><trkpt lat="39.51743256045841" lon="8.59732379203062"><ele>232.0</ele><time>2026-04-08T11:16:49.998Z</time></trkpt><trkpt lat="39.517305631241804" lon="8.597465662056491"><ele>232.0</ele><time>2026-04-08T11:16:50.998Z</time></trkpt><trkpt lat="39.517173941089304" lon="8.597622060759578"><ele>231.5</ele><time>2026-04-08T11:16:51.998Z</time></trkpt><trkpt lat="39.51703123866214" lon="8.59771352738809"><ele>231.0</ele><time>2026-04-08T11:16:52.998Z</time></trkpt><trkpt lat="39.51689118798831" lon="8.597750305852395"><ele>230.5</ele><time>2026-04-08T11:16:53.998Z</time></trkpt><trkpt lat="39.51677662476867" lon="8.597835353133249"><ele>230.0</ele><time>2026-04-08T11:16:54.998Z</time></trkpt><trkpt lat="39.51669521094752" lon="8.597993107081594"><ele>230.0</ele><time>2026-04-08T11:16:55.998Z</time></trkpt><trkpt lat="39.5166460302788" lon="8.598193819032689"><ele>230.0</ele><time>2026-04-08T11:16:56.998Z</time></trkpt><trkpt lat="39.51663749580098" lon="8.598407850493896"><ele>230.0</ele><time>2026-04-08T11:16:57.998Z</time></trkpt><trkpt lat="39.51665969890774" lon="8.59862627927812"><ele>232.0</ele><time>2026-04-08T11:16:58.998Z</time></trkpt><trkpt lat="39.516607724184624" lon="8.598818086448915"><ele>234.0</ele><time>2026-04-08T11:16:59.998Z</time></trkpt><trkpt lat="39.51652536772699" lon="8.598973500945243"><ele>236.0</ele><time>2026-04-08T11:17:00.998Z</time></trkpt><trkpt lat="39.51640528764934" lon="8.599123452422743"><ele>236.0</ele><time>2026-04-08T11:17:01.998Z</time></trkpt><trkpt lat="39.516277792505264" lon="8.599294459133795"><ele>236.0</ele><time>2026-04-08T11:17:02.998Z</time></trkpt><trkpt lat="39.51617426821952" lon="8.599471199668564"><ele>236.0</ele><time>2026-04-08T11:17:03.998Z</time></trkpt><trkpt lat="39.51610867273948" lon="8.599689316489458"><ele>233.33333333333334</ele><time>2026-04-08T11:17:04.998Z</time></trkpt><trkpt lat="39.51602852224856" lon="8.59989589069125"><ele>230.66666666666669</ele><time>2026-04-08T11:17:05.998Z</time></trkpt><trkpt lat="39.51591325809981" lon="8.600035964071445"><ele>228.0</ele><time>2026-04-08T11:17:06.998Z</time></trkpt><trkpt lat="39.51577048602929" lon="8.600176821469237"><ele>228.0</ele><time>2026-04-08T11:17:07.998Z</time></trkpt><trkpt lat="39.51559994861553" lon="8.600298805169036"><ele>228.0</ele><time>2026-04-08T11:17:08.998Z</time></trkpt><trkpt lat="39.51544466805124" lon="8.600426380694222"><ele>228.0</ele><time>2026-04-08T11:17:09.998Z</time></trkpt><trkpt lat="39.51531557713074" lon="8.600555900227613"><ele>227.5</ele><time>2026-04-08T11:17:10.998Z</time></trkpt><trkpt lat="39.515198610231366" lon="8.600688486562543"><ele>227.0</ele><time>2026-04-08T11:17:11.998Z</time></trkpt><trkpt lat="39.515109649543824" lon="8.60083198685497"><ele>226.5</ele><time>2026-04-08T11:17:12.998Z</time></trkpt><trkpt lat="39.51507272310274" lon="8.60098403971579"><ele>226.0</ele><time>2026-04-08T11:17:13.998Z</time></trkpt><trkpt lat="39.515089139298965" lon="8.601166876089192"><ele>224.75</ele><time>2026-04-08T11:17:14.998Z</time></trkpt><trkpt lat="39.51512286665727" lon="8.601350663422602"><ele>223.5</ele><time>2026-04-08T11:17:15.998Z</time></trkpt><trkpt lat="39.51517384352411" lon="8.601526724644943"><ele>222.25</ele><time>2026-04-08T11:17:16.997Z</time></trkpt><trkpt lat="39.51526046400426" lon="8.60167720591775"><ele>221.0</ele><time>2026-04-08T11:17:17.997Z</time></trkpt><trkpt lat="39.515381869010525" lon="8.601782182744888"><ele>222.25</ele><time>2026-04-08T11:17:18.997Z</time></trkpt><trkpt lat="39.51552160141343" lon="8.601858044943256"><ele>223.5</ele><time>2026-04-08T11:17:19.997Z</time></trkpt><trkpt lat="39.51561432108304" lon="8.601992720719272"><ele>224.75</ele><time>2026-04-08T11:17:20.997Z</time></trkpt><trkpt lat="39.51566210764905" lon="8.602169472892008"><ele>226.0</ele><time>2026-04-08T11:17:21.997Z</time></trkpt><trkpt lat="39.5156742945133" lon="8.602375952763829"><ele>226.0</ele><time>2026-04-08T11:17:23Z</time></trkpt><trkpt lat="39.51568271392446" lon="8.602606802250644"><ele>226.0</ele><time>2026-04-08T11:17:24Z</time></trkpt><trkpt lat="39.5157099062404" lon="8.602844064881308"><ele>226.0</ele><time>2026-04-08T11:17:25Z</time></trkpt><trkpt lat="39.51574395220002" lon="8.603083082554441"><ele>224.33333333333331</ele><time>2026-04-08T11:17:26Z</time></trkpt><trkpt lat="39.515793448904134" lon="8.603304664580659"><ele>222.66666666666669</ele><time>2026-04-08T11:17:27Z</time></trkpt><trkpt lat="39.51577415051002" lon="8.603510270181811"><ele>221.0</ele><time>2026-04-08T11:17:28Z</time></trkpt><trkpt lat="39.51575056627634" lon="8.603715124622017"><ele>220.33333333333334</ele><time>2026-04-08T11:17:29Z</time></trkpt><trkpt lat="39.51573685161318" lon="8.603911418049362"><ele>219.66666666666669</ele><time>2026-04-08T11:17:30Z</time></trkpt><trkpt lat="39.51573864135272" lon="8.604104829152417"><ele>219.0</ele><time>2026-04-08T11:17:31Z</time></trkpt><trkpt lat="39.51576699735443" lon="8.60431816391599"><ele>217.33333333333331</ele><time>2026-04-08T11:17:32Z</time></trkpt><trkpt lat="39.515814126186726" lon="8.604541278872562"><ele>215.66666666666666</ele><time>2026-04-08T11:17:33Z</time></trkpt><trkpt lat="39.51582881692518" lon="8.604773328158283"><ele>214.0</ele><time>2026-04-08T11:17:34Z</time></trkpt><trkpt lat="39.51582054886239" lon="8.605007501495166"><ele>214.0</ele><time>2026-04-08T11:17:35Z</time></trkpt><trkpt lat="39.515811057289405" lon="8.605253365952725"><ele>214.0</ele><time>2026-04-08T11:17:36Z</time></trkpt><trkpt lat="39.51581448328044" lon="8.605495210805497"><ele>214.0</ele><time>2026-04-08T11:17:37Z</time></trkpt><trkpt lat="39.515804241928116" lon="8.60571202990805"><ele>213.5</ele><time>2026-04-08T11:17:38Z</time></trkpt><trkpt lat="39.51579254844022" lon="8.605916825128137"><ele>213.0</ele><time>2026-04-08T11:17:39Z</time></trkpt><trkpt lat="39.51578276534266" lon="8.606105552313112"><ele>212.5</ele><time>2026-04-08T11:17:40Z</time></trkpt><trkpt lat="39.51579635552507" lon="8.606268956145332"><ele>212.0</ele><time>2026-04-08T11:17:41Z</time></trkpt><trkpt lat="39.515856288030776" lon="8.606428739837218"><ele>210.5</ele><time>2026-04-08T11:17:42Z</time></trkpt><trkpt lat="39.51594398862027" lon="8.60658356636035"><ele>209.0</ele><time>2026-04-08T11:17:43Z</time></trkpt><trkpt lat="39.516031077443955" lon="8.606727120760672"><ele>207.5</ele><time>2026-04-08T11:17:44Z</time></trkpt><trkpt lat="39.51609963452061" lon="8.606857944815317"><ele>206.0</ele><time>2026-04-08T11:17:45Z</time></trkpt><trkpt lat="39.51615386121716" lon="8.606984395973079"><ele>205.5</ele><time>2026-04-08T11:17:46Z</time></trkpt><trkpt lat="39.5161611645917" lon="8.60711803472766"><ele>205.0</ele><time>2026-04-08T11:17:47Z</time></trkpt><trkpt lat="39.516142206355156" lon="8.6072506258906"><ele>204.5</ele><time>2026-04-08T11:17:48Z</time></trkpt><trkpt lat="39.51609276377705" lon="8.60739339911595"><ele>204.0</ele><time>2026-04-08T11:17:49Z</time></trkpt><trkpt lat="39.51604745164398" lon="8.607542983308292"><ele>204.0</ele><time>2026-04-08T11:17:50Z</time></trkpt><trkpt lat="39.51598073716788" lon="8.607683110121696"><ele>204.0</ele><time>2026-04-08T11:17:51Z</time></trkpt><trkpt lat="39.515923517534176" lon="8.607832928957523"><ele>204.0</ele><time>2026-04-08T11:17:52Z</time></trkpt><trkpt lat="39.51586118154847" lon="8.607997889850196"><ele>204.0</ele><time>2026-04-08T11:17:53Z</time></trkpt><trkpt lat="39.51578641300153" lon="8.608168783187141"><ele>204.33333333333331</ele><time>2026-04-08T11:17:54Z</time></trkpt><trkpt lat="39.51569282515192" lon="8.608325802109116"><ele>204.66666666666666</ele><time>2026-04-08T11:17:55Z</time></trkpt><trkpt lat="39.51558503744883" lon="8.608481353509108"><ele>205.0</ele><time>2026-04-08T11:17:56Z</time></trkpt><trkpt lat="39.515478848762676" lon="8.608633788914869"><ele>202.66666666666666</ele><time>2026-04-08T11:17:56.999Z</time></trkpt><trkpt lat="39.515392225543266" lon="8.608801443348685"><ele>200.33333333333331</ele><time>2026-04-08T11:17:57.999Z</time></trkpt><trkpt lat="39.51531624374245" lon="8.608977821346196"><ele>198.0</ele><time>2026-04-08T11:17:58.999Z</time></trkpt><trkpt lat="39.515239245580695" lon="8.609157983380538"><ele>198.0</ele><time>2026-04-08T11:17:59.999Z</time></trkpt><trkpt lat="39.51516254834469" lon="8.609337208736243"><ele>198.0</ele><time>2026-04-08T11:18:00.999Z</time></trkpt><trkpt lat="39.51508658985581" lon="8.609507517248217"><ele>198.0</ele><time>2026-04-08T11:18:01.999Z</time></trkpt><trkpt lat="39.51501182151994" lon="8.609667373333044"><ele>199.0</ele><time>2026-04-08T11:18:02.999Z</time></trkpt><trkpt lat="39.51493744723175" lon="8.609818839659056"><ele>200.0</ele><time>2026-04-08T11:18:03.999Z</time></trkpt><trkpt lat="39.51485432096728" lon="8.609956972412489"><ele>201.0</ele><time>2026-04-08T11:18:04.999Z</time></trkpt><trkpt lat="39.51473192327786" lon="8.610049655617063"><ele>202.0</ele><time>2026-04-08T11:18:05.999Z</time></trkpt><trkpt lat="39.51458532019057" lon="8.61009596339795"><ele>200.0</ele><time>2026-04-08T11:18:06.999Z</time></trkpt><trkpt lat="39.51442434787936" lon="8.610104311449476"><ele>198.0</ele><time>2026-04-08T11:18:07.999Z</time></trkpt><trkpt lat="39.51427123182283" lon="8.61010201817813"><ele>196.0</ele><time>2026-04-08T11:18:08.999Z</time></trkpt><trkpt lat="39.5141088780472" lon="8.610101073636825"><ele>196.0</ele><time>2026-04-08T11:18:09.999Z</time></trkpt><trkpt lat="39.51395036366135" lon="8.61009728163845"><ele>196.0</ele><time>2026-04-08T11:18:10.999Z</time></trkpt><trkpt lat="39.513789134288444" lon="8.610098022688696"><ele>196.0</ele><time>2026-04-08T11:18:11.999Z</time></trkpt><trkpt lat="39.513635018647804" lon="8.610094561588358"><ele>195.0</ele><time>2026-04-08T11:18:12.999Z</time></trkpt><trkpt lat="39.51348581927987" lon="8.610117494353968"><ele>194.0</ele><time>2026-04-08T11:18:13.999Z</time></trkpt><trkpt lat="39.513345943333206" lon="8.610186937345595"><ele>193.0</ele><time>2026-04-08T11:18:14.999Z</time></trkpt><trkpt lat="39.513219933231326" lon="8.61029922261184"><ele>194.0</ele><time>2026-04-08T11:18:15.999Z</time></trkpt><trkpt lat="39.513113512034835" lon="8.610444967086881"><ele>195.0</ele><time>2026-04-08T11:18:16.999Z</time></trkpt><trkpt lat="39.513029288460736" lon="8.61064893546039"><ele>196.0</ele><time>2026-04-08T11:18:17.999Z</time></trkpt><trkpt lat="39.512979003900355" lon="8.610865634003863"><ele>196.0</ele><time>2026-04-08T11:18:18.999Z</time></trkpt><trkpt lat="39.512965201321734" lon="8.610990931622577"><ele>196.0</ele><time>2026-04-08T11:18:19.999Z</time></trkpt><trkpt lat="39.512940136913755" lon="8.611199221544755"><ele>196.0</ele><time>2026-04-08T11:18:20.999Z</time></trkpt><trkpt lat="39.51290670192217" lon="8.61139546058225"><ele>196.0</ele><time>2026-04-08T11:18:21.999Z</time></trkpt><trkpt lat="39.512911376557405" lon="8.611583909005596"><ele>196.5</ele><time>2026-04-08T11:18:22.999Z</time></trkpt><trkpt lat="39.51295415251131" lon="8.611752958614694"><ele>197.0</ele><time>2026-04-08T11:18:23.999Z</time></trkpt><trkpt lat="39.51293656864504" lon="8.611911127499216"><ele>197.5</ele><time>2026-04-08T11:18:24.999Z</time></trkpt><trkpt lat="39.51285270685808" lon="8.612053250163001"><ele>198.0</ele><time>2026-04-08T11:18:25.999Z</time></trkpt><trkpt lat="39.51273497255553" lon="8.61216677714265"><ele>198.0</ele><time>2026-04-08T11:18:26.999Z</time></trkpt><trkpt lat="39.512577424187604" lon="8.612249353078786"><ele>198.0</ele><time>2026-04-08T11:18:27.999Z</time></trkpt><trkpt lat="39.512374356453385" lon="8.612347232268014"><ele>198.0</ele><time>2026-04-08T11:18:28.999Z</time></trkpt><trkpt lat="39.51213938236295" lon="8.612462188040217"><ele>191.5</ele><time>2026-04-08T11:18:29.999Z</time></trkpt><trkpt lat="39.51189580650994" lon="8.612594117067554"><ele>185.0</ele><time>2026-04-08T11:18:30.999Z</time></trkpt><trkpt lat="39.51164963540837" lon="8.612718898772084"><ele>187.5</ele><time>2026-04-08T11:18:31.999Z</time></trkpt><trkpt lat="39.51142434456757" lon="8.612847350725783"><ele>190.0</ele><time>2026-04-08T11:18:32.999Z</time></trkpt><trkpt lat="39.511214041352744" lon="8.61293748249423"><ele>190.0</ele><time>2026-04-08T11:18:33.999Z</time></trkpt><trkpt lat="39.51100283295029" lon="8.612966539117076"><ele>190.0</ele><time>2026-04-08T11:18:34.999Z</time></trkpt><trkpt lat="39.51077800720888" lon="8.61301681744766"><ele>190.0</ele><time>2026-04-08T11:18:35.999Z</time></trkpt><trkpt lat="39.51057766111055" lon="8.613029702813789"><ele>183.66666666666669</ele><time>2026-04-08T11:18:36.999Z</time></trkpt><trkpt lat="39.51038936844968" lon="8.613103463535909"><ele>177.33333333333334</ele><time>2026-04-08T11:18:37.999Z</time></trkpt><trkpt lat="39.51019782534995" lon="8.613244002084084"><ele>171.0</ele><time>2026-04-08T11:18:38.998Z</time></trkpt><trkpt lat="39.51002333369156" lon="8.613359795054937"><ele>171.0</ele><time>2026-04-08T11:18:39.998Z</time></trkpt><trkpt lat="39.5098942623933" lon="8.613505541005154"><ele>171.0</ele><time>2026-04-08T11:18:40.998Z</time></trkpt><trkpt lat="39.509790201462785" lon="8.61368531391878"><ele>171.0</ele><time>2026-04-08T11:18:41.998Z</time></trkpt><trkpt lat="39.50975279298582" lon="8.613907513216594"><ele>173.0</ele><time>2026-04-08T11:18:42.998Z</time></trkpt><trkpt lat="39.50972420430402" lon="8.61414603971721"><ele>175.0</ele><time>2026-04-08T11:18:43.998Z</time></trkpt><trkpt lat="39.509707084146484" lon="8.614395825770393"><ele>177.0</ele><time>2026-04-08T11:18:44.998Z</time></trkpt><trkpt lat="39.50968881283505" lon="8.614614291790808"><ele>177.0</ele><time>2026-04-08T11:18:45.998Z</time></trkpt><trkpt lat="39.50964448938459" lon="8.61479652332545"><ele>177.0</ele><time>2026-04-08T11:18:46.998Z</time></trkpt><trkpt lat="39.509570787065854" lon="8.614963044068872"><ele>177.0</ele><time>2026-04-08T11:18:47.998Z</time></trkpt><trkpt lat="39.50944856049645" lon="8.615110610470785"><ele>172.66666666666666</ele><time>2026-04-08T11:18:48.998Z</time></trkpt><trkpt lat="39.509325917395145" lon="8.615291783916623"><ele>168.33333333333331</ele><time>2026-04-08T11:18:49.998Z</time></trkpt><trkpt lat="39.50917767853791" lon="8.615461040812214"><ele>164.0</ele><time>2026-04-08T11:18:50.998Z</time></trkpt><trkpt lat="39.50903112421746" lon="8.615640944393434"><ele>164.0</ele><time>2026-04-08T11:18:51.998Z</time></trkpt><trkpt lat="39.50888932500032" lon="8.615824562437783"><ele>164.0</ele><time>2026-04-08T11:18:52.998Z</time></trkpt><trkpt lat="39.508748146915686" lon="8.616014345915993"><ele>164.0</ele><time>2026-04-08T11:18:53.998Z</time></trkpt><trkpt lat="39.50860441872214" lon="8.616204978377107"><ele>165.33333333333331</ele><time>2026-04-08T11:18:54.998Z</time></trkpt><trkpt lat="39.50845250022631" lon="8.616396133220135"><ele>166.66666666666666</ele><time>2026-04-08T11:18:55.998Z</time></trkpt><trkpt lat="39.50829607368683" lon="8.616586210126554"><ele>168.0</ele><time>2026-04-08T11:18:56.998Z</time></trkpt><trkpt lat="39.50813949495009" lon="8.616780720133828"><ele>168.0</ele><time>2026-04-08T11:18:57.998Z</time></trkpt><trkpt lat="39.50798550209185" lon="8.616980288378635"><ele>168.0</ele><time>2026-04-08T11:18:58.998Z</time></trkpt><trkpt lat="39.507810684394734" lon="8.617145134344241"><ele>168.0</ele><time>2026-04-08T11:18:59.998Z</time></trkpt><trkpt lat="39.50762324470144" lon="8.617299524975328"><ele>167.66666666666666</ele><time>2026-04-08T11:19:00.998Z</time></trkpt><trkpt lat="39.507440453548554" lon="8.61746638749775"><ele>167.33333333333331</ele><time>2026-04-08T11:19:01.998Z</time></trkpt><trkpt lat="39.50724820774151" lon="8.617607388267079"><ele>167.0</ele><time>2026-04-08T11:19:02.998Z</time></trkpt><trkpt lat="39.50707486905412" lon="8.617757678938084"><ele>167.33333333333331</ele><time>2026-04-08T11:19:03.998Z</time></trkpt><trkpt lat="39.50690649257007" lon="8.61787967227114"><ele>167.66666666666666</ele><time>2026-04-08T11:19:04.998Z</time></trkpt><trkpt lat="39.50670929633491" lon="8.617956926659984"><ele>168.0</ele><time>2026-04-08T11:19:05.998Z</time></trkpt><trkpt lat="39.5064908436968" lon="8.617975537839229"><ele>168.0</ele><time>2026-04-08T11:19:06.998Z</time></trkpt><trkpt lat="39.50627490423013" lon="8.617969516769188"><ele>168.0</ele><time>2026-04-08T11:19:07.998Z</time></trkpt><trkpt lat="39.50605597205714" lon="8.617965237279064"><ele>168.0</ele><time>2026-04-08T11:19:08.998Z</time></trkpt><trkpt lat="39.50585074675863" lon="8.61793265105233"><ele>167.33333333333334</ele><time>2026-04-08T11:19:09.998Z</time></trkpt><trkpt lat="39.50566704862242" lon="8.617942319286067"><ele>166.66666666666669</ele><time>2026-04-08T11:19:10.998Z</time></trkpt><trkpt lat="39.50549561124581" lon="8.61800297998027"><ele>166.0</ele><time>2026-04-08T11:19:11.998Z</time></trkpt><trkpt lat="39.505329736064986" lon="8.618117567916187"><ele>163.66666666666669</ele><time>2026-04-08T11:19:12.998Z</time></trkpt><trkpt lat="39.50517526733246" lon="8.618270078181716"><ele>161.33333333333334</ele><time>2026-04-08T11:19:13.998Z</time></trkpt><trkpt lat="39.505043898535725" lon="8.618470814569212"><ele>159.0</ele><time>2026-04-08T11:19:14.998Z</time></trkpt><trkpt lat="39.50494156362406" lon="8.618698945393765"><ele>159.0</ele><time>2026-04-08T11:19:15.998Z</time></trkpt><trkpt lat="39.50485662083546" lon="8.618945140780172"><ele>159.0</ele><time>2026-04-08T11:19:16.998Z</time></trkpt><trkpt lat="39.50478123991779" lon="8.619201497269852"><ele>159.0</ele><time>2026-04-08T11:19:17.998Z</time></trkpt><trkpt lat="39.5047241521178" lon="8.619472684921305"><ele>159.0</ele><time>2026-04-08T11:19:18.998Z</time></trkpt><trkpt lat="39.504680808820844" lon="8.61973251667597"><ele>159.0</ele><time>2026-04-08T11:19:19.997Z</time></trkpt><trkpt lat="39.50462801811852" lon="8.619996939806093"><ele>159.0</ele><time>2026-04-08T11:19:20.997Z</time></trkpt><trkpt lat="39.504570819874886" lon="8.620243666763969"><ele>154.0</ele><time>2026-04-08T11:19:21.997Z</time></trkpt><trkpt lat="39.50451467476456" lon="8.620474375322905"><ele>149.0</ele><time>2026-04-08T11:19:22.997Z</time></trkpt><trkpt lat="39.504464321063054" lon="8.620693198135696"><ele>144.0</ele><time>2026-04-08T11:19:23.997Z</time></trkpt><trkpt lat="39.50442505200978" lon="8.620913621709809"><ele>144.0</ele><time>2026-04-08T11:19:24.997Z</time></trkpt><trkpt lat="39.50441062586147" lon="8.621144812847723"><ele>144.0</ele><time>2026-04-08T11:19:25.997Z</time></trkpt><trkpt lat="39.504433579368985" lon="8.621377399212985"><ele>144.0</ele><time>2026-04-08T11:19:26.997Z</time></trkpt><trkpt lat="39.50446867736381" lon="8.621633346543764"><ele>144.0</ele><time>2026-04-08T11:19:27.997Z</time></trkpt><trkpt lat="39.50450079188433" lon="8.621938448666329"><ele>144.0</ele><time>2026-04-08T11:19:29Z</time></trkpt><trkpt lat="39.504640384319956" lon="8.622254644927876"><ele>142.5</ele><time>2026-04-08T11:19:30Z</time></trkpt><trkpt lat="39.50469671873193" lon="8.622594614864633"><ele>141.0</ele><time>2026-04-08T11:19:31Z</time></trkpt><trkpt lat="39.504752261564214" lon="8.622898111444835"><ele>140.66666666666666</ele><time>2026-04-08T11:19:32Z</time></trkpt><trkpt lat="39.504811218445184" lon="8.62317293494834"><ele>140.33333333333331</ele><time>2026-04-08T11:19:33Z</time></trkpt><trkpt lat="39.504869878974525" lon="8.623443290807115"><ele>140.0</ele><time>2026-04-08T11:19:34Z</time></trkpt><trkpt lat="39.504925561100904" lon="8.62371650099172"><ele>139.66666666666666</ele><time>2026-04-08T11:19:35Z</time></trkpt><trkpt lat="39.50498067251725" lon="8.623983793697041"><ele>139.33333333333334</ele><time>2026-04-08T11:19:36Z</time></trkpt><trkpt lat="39.505036251553726" lon="8.624235671211844"><ele>139.0</ele><time>2026-04-08T11:19:37Z</time></trkpt><trkpt lat="39.50508457193455" lon="8.624459184058837"><ele>139.0</ele><time>2026-04-08T11:19:38Z</time></trkpt><trkpt lat="39.505121641291844" lon="8.624666821728713"><ele>139.0</ele><time>2026-04-08T11:19:39Z</time></trkpt><trkpt lat="39.50515568352071" lon="8.624863123847984"><ele>139.0</ele><time>2026-04-08T11:19:40Z</time></trkpt><trkpt lat="39.50519063422214" lon="8.625050363312992"><ele>139.0</ele><time>2026-04-08T11:19:41Z</time></trkpt><trkpt lat="39.50522969249043" lon="8.62522786565937"><ele>139.0</ele><time>2026-04-08T11:19:42Z</time></trkpt><trkpt lat="39.50527685641612" lon="8.625407728437414"><ele>139.0</ele><time>2026-04-08T11:19:43Z</time></trkpt><trkpt lat="39.505327359573755" lon="8.62560535899258"><ele>139.0</ele><time>2026-04-08T11:19:44Z</time></trkpt><trkpt lat="39.50537717974586" lon="8.625833671073421"><ele>139.0</ele><time>2026-04-08T11:19:45Z</time></trkpt><trkpt lat="39.505439612313936" lon="8.62611383623817"><ele>139.0</ele><time>2026-04-08T11:19:46Z</time></trkpt><trkpt lat="39.50552213037141" lon="8.62647092067868"><ele>138.5</ele><time>2026-04-08T11:19:47Z</time></trkpt><trkpt lat="39.50560303952487" lon="8.6268829779372"><ele>138.0</ele><time>2026-04-08T11:19:48Z</time></trkpt><trkpt lat="39.5056796187865" lon="8.627332901474599"><ele>137.0</ele><time>2026-04-08T11:19:49Z</time></trkpt><trkpt lat="39.50575595275891" lon="8.6277970148791"><ele>136.0</ele><time>2026-04-08T11:19:50Z</time></trkpt><trkpt lat="39.50582597452394" lon="8.628212003552333"><ele>136.0</ele><time>2026-04-08T11:19:51Z</time></trkpt><trkpt lat="39.50589741473753" lon="8.628607338803212"><ele>136.0</ele><time>2026-04-08T11:19:52Z</time></trkpt><trkpt lat="39.5059688770455" lon="8.628971079882032"><ele>136.0</ele><time>2026-04-08T11:19:53Z</time></trkpt><trkpt lat="39.50603177278824" lon="8.629302323508435"><ele>136.0</ele><time>2026-04-08T11:19:54Z</time></trkpt><trkpt lat="39.506084950459076" lon="8.629600853308038"><ele>137.0</ele><time>2026-04-08T11:19:55Z</time></trkpt><trkpt lat="39.50612698875982" lon="8.629893619407278"><ele>138.0</ele><time>2026-04-08T11:19:56Z</time></trkpt><trkpt lat="39.50614441802186" lon="8.630184966914179"><ele>138.0</ele><time>2026-04-08T11:19:57Z</time></trkpt><trkpt lat="39.50612447112118" lon="8.630495709667805"><ele>138.0</ele><time>2026-04-08T11:19:58Z</time></trkpt><trkpt lat="39.50607998393252" lon="8.630814329120403"><ele>138.0</ele><time>2026-04-08T11:19:58.999Z</time></trkpt><trkpt lat="39.50603024707493" lon="8.631101132239108"><ele>138.0</ele><time>2026-04-08T11:19:59.999Z</time></trkpt><trkpt lat="39.50597776452595" lon="8.631392039795521"><ele>137.0</ele><time>2026-04-08T11:20:00.999Z</time></trkpt><trkpt lat="39.50589360211743" lon="8.631699765356371"><ele>136.0</ele><time>2026-04-08T11:20:01.999Z</time></trkpt><trkpt lat="39.50578539191982" lon="8.632006457205973"><ele>135.5</ele><time>2026-04-08T11:20:02.999Z</time></trkpt><trkpt lat="39.505678890719174" lon="8.632297325139469"><ele>135.0</ele><time>2026-04-08T11:20:03.999Z</time></trkpt><trkpt lat="39.505589925749696" lon="8.63257866062165"><ele>135.0</ele><time>2026-04-08T11:20:04.999Z</time></trkpt><trkpt lat="39.505526650662745" lon="8.632882549107405"><ele>135.0</ele><time>2026-04-08T11:20:05.999Z</time></trkpt><trkpt lat="39.505484739027246" lon="8.633218361006945"><ele>135.0</ele><time>2026-04-08T11:20:06.999Z</time></trkpt><trkpt lat="39.505448695247985" lon="8.633555538361092"><ele>135.0</ele><time>2026-04-08T11:20:07.999Z</time></trkpt><trkpt lat="39.505413469322214" lon="8.633850878416121"><ele>135.0</ele><time>2026-04-08T11:20:08.999Z</time></trkpt><trkpt lat="39.50536925399767" lon="8.634110947349159"><ele>135.0</ele><time>2026-04-08T11:20:09.999Z</time></trkpt><trkpt lat="39.50533557421524" lon="8.63435206236094"><ele>135.0</ele><time>2026-04-08T11:20:10.999Z</time></trkpt><trkpt lat="39.50533845589006" lon="8.634581103196027"><ele>134.66666666666666</ele><time>2026-04-08T11:20:11.999Z</time></trkpt><trkpt lat="39.50538934357266" lon="8.634797796510199"><ele>134.33333333333331</ele><time>2026-04-08T11:20:12.999Z</time></trkpt><trkpt lat="39.50549258782933" lon="8.634993410005478"><ele>134.0</ele><time>2026-04-08T11:20:13.999Z</time></trkpt><trkpt lat="39.50563347418931" lon="8.635181120517382"><ele>133.5</ele><time>2026-04-08T11:20:14.999Z</time></trkpt><trkpt lat="39.505797461788866" lon="8.635384281778155"><ele>133.0</ele><time>2026-04-08T11:20:15.999Z</time></trkpt><trkpt lat="39.50595854440478" lon="8.635605792369907"><ele>133.0</ele><time>2026-04-08T11:20:16.999Z</time></trkpt><trkpt lat="39.506105001141684" lon="8.635831893404038"><ele>133.0</ele><time>2026-04-08T11:20:17.999Z</time></trkpt><trkpt lat="39.50622548187446" lon="8.636066895040612"><ele>133.0</ele><time>2026-04-08T11:20:18.999Z</time></trkpt><trkpt lat="39.50631850406417" lon="8.636337863621062"><ele>132.5</ele><time>2026-04-08T11:20:19.999Z</time></trkpt><trkpt lat="39.50638915663206" lon="8.636635457040022"><ele>132.0</ele><time>2026-04-08T11:20:20.999Z</time></trkpt><trkpt lat="39.506453863333114" lon="8.636955477592931"><ele>131.0</ele><time>2026-04-08T11:20:21.999Z</time></trkpt><trkpt lat="39.506527174782434" lon="8.63728840709502"><ele>130.0</ele><time>2026-04-08T11:20:22.999Z</time></trkpt><trkpt lat="39.50660879214666" lon="8.637629253949465"><ele>130.0</ele><time>2026-04-08T11:20:23.999Z</time></trkpt><trkpt lat="39.506685176515845" lon="8.637973179858799"><ele>130.0</ele><time>2026-04-08T11:20:24.999Z</time></trkpt><trkpt lat="39.506773969495434" lon="8.638319180404409"><ele>130.0</ele><time>2026-04-08T11:20:25.999Z</time></trkpt><trkpt lat="39.50689428561055" lon="8.638668987975796"><ele>130.0</ele><time>2026-04-08T11:20:26.999Z</time></trkpt><trkpt lat="39.5070496041019" lon="8.639027695847663"><ele>130.0</ele><time>2026-04-08T11:20:27.999Z</time></trkpt><trkpt lat="39.5072210230569" lon="8.639394174131233"><ele>130.0</ele><time>2026-04-08T11:20:28.999Z</time></trkpt><trkpt lat="39.50738285521753" lon="8.639780190701197"><ele>130.5</ele><time>2026-04-08T11:20:29.999Z</time></trkpt><trkpt lat="39.50752158683783" lon="8.6401967314572"><ele>131.0</ele><time>2026-04-08T11:20:30.999Z</time></trkpt><trkpt lat="39.50764503629203" lon="8.640638663684767"><ele>132.0</ele><time>2026-04-08T11:20:31.999Z</time></trkpt><trkpt lat="39.50775702835994" lon="8.641087594163398"><ele>133.0</ele><time>2026-04-08T11:20:32.999Z</time></trkpt><trkpt lat="39.50787516361137" lon="8.64153278629224"><ele>134.0</ele><time>2026-04-08T11:20:33.999Z</time></trkpt><trkpt lat="39.507992946563796" lon="8.641944825605437"><ele>135.0</ele><time>2026-04-08T11:20:34.999Z</time></trkpt><trkpt lat="39.508104053788266" lon="8.642340670742561"><ele>136.0</ele><time>2026-04-08T11:20:35.999Z</time></trkpt><trkpt lat="39.50821322888017" lon="8.642724154264386"><ele>137.0</ele><time>2026-04-08T11:20:36.999Z</time></trkpt><trkpt lat="39.50832108643575" lon="8.643110053167943"><ele>137.0</ele><time>2026-04-08T11:20:37.999Z</time></trkpt><trkpt lat="39.508432383216594" lon="8.643508510822059"><ele>137.0</ele><time>2026-04-08T11:20:38.999Z</time></trkpt><trkpt lat="39.50853835942755" lon="8.643919076580485"><ele>138.0</ele><time>2026-04-08T11:20:39.999Z</time></trkpt><trkpt lat="39.508616734343185" lon="8.64433430116879"><ele>139.0</ele><time>2026-04-08T11:20:40.999Z</time></trkpt><trkpt lat="39.508676499565624" lon="8.644702974126282"><ele>139.5</ele><time>2026-04-08T11:20:41.999Z</time></trkpt><trkpt lat="39.50872155962451" lon="8.64502080933681"><ele>140.0</ele><time>2026-04-08T11:20:42.998Z</time></trkpt><trkpt lat="39.50876553913153" lon="8.645298832958526"><ele>140.0</ele><time>2026-04-08T11:20:43.998Z</time></trkpt><trkpt lat="39.50881407477023" lon="8.645538105704714"><ele>140.0</ele><time>2026-04-08T11:20:44.998Z</time></trkpt><trkpt lat="39.50884731978379" lon="8.645758495749662"><ele>140.0</ele><time>2026-04-08T11:20:45.998Z</time></trkpt><trkpt lat="39.50881711961266" lon="8.645990977107921"><ele>140.5</ele><time>2026-04-08T11:20:46.998Z</time></trkpt><trkpt lat="39.50876753507509" lon="8.64626464059185"><ele>141.0</ele><time>2026-04-08T11:20:47.998Z</time></trkpt><trkpt lat="39.508717089854414" lon="8.646572217751729"><ele>143.0</ele><time>2026-04-08T11:20:48.998Z</time></trkpt><trkpt lat="39.508643279948146" lon="8.646876618391724"><ele>145.0</ele><time>2026-04-08T11:20:49.998Z</time></trkpt><trkpt lat="39.50859207981453" lon="8.647147592549906"><ele>145.33333333333334</ele><time>2026-04-08T11:20:50.998Z</time></trkpt><trkpt lat="39.50854544835772" lon="8.647404146722069"><ele>145.66666666666666</ele><time>2026-04-08T11:20:51.998Z</time></trkpt><trkpt lat="39.50848967174372" lon="8.647670555036331"><ele>146.0</ele><time>2026-04-08T11:20:52.998Z</time></trkpt><trkpt lat="39.50841483224013" lon="8.647934653346798"><ele>146.0</ele><time>2026-04-08T11:20:53.998Z</time></trkpt><trkpt lat="39.50833031034284" lon="8.648191048235965"><ele>146.0</ele><time>2026-04-08T11:20:54.998Z</time></trkpt><trkpt lat="39.508237861311386" lon="8.648432923121153"><ele>146.0</ele><time>2026-04-08T11:20:55.998Z</time></trkpt><trkpt lat="39.50814587246393" lon="8.648651018552007"><ele>146.0</ele><time>2026-04-08T11:20:56.998Z</time></trkpt><trkpt lat="39.508063432659675" lon="8.648857200658178"><ele>146.0</ele><time>2026-04-08T11:20:57.998Z</time></trkpt><trkpt lat="39.50798271387156" lon="8.649045327304542"><ele>146.0</ele><time>2026-04-08T11:20:58.998Z</time></trkpt><trkpt lat="39.507887008170954" lon="8.649199183389925"><ele>146.5</ele><time>2026-04-08T11:20:59.998Z</time></trkpt><trkpt lat="39.50779718693566" lon="8.649328946556972"><ele>147.0</ele><time>2026-04-08T11:21:00.998Z</time></trkpt><trkpt lat="39.50772681701267" lon="8.649439350168429"><ele>147.5</ele><time>2026-04-08T11:21:01.998Z</time></trkpt><trkpt lat="39.50769510349748" lon="8.649561428165555"><ele>148.0</ele><time>2026-04-08T11:21:02.998Z</time></trkpt><trkpt lat="39.50771815396901" lon="8.649696095886782"><ele>148.0</ele><time>2026-04-08T11:21:03.998Z</time></trkpt><trkpt lat="39.50778544911229" lon="8.64984900388455"><ele>148.0</ele><time>2026-04-08T11:21:04.998Z</time></trkpt><trkpt lat="39.507871117709435" lon="8.650016051930509"><ele>148.0</ele><time>2026-04-08T11:21:05.998Z</time></trkpt><trkpt lat="39.50795561154234" lon="8.650200386682597"><ele>148.0</ele><time>2026-04-08T11:21:06.998Z</time></trkpt><trkpt lat="39.50803662243742" lon="8.650392827539582"><ele>148.0</ele><time>2026-04-08T11:21:07.998Z</time></trkpt><trkpt lat="39.50812315346436" lon="8.650591856468582"><ele>148.0</ele><time>2026-04-08T11:21:08.998Z</time></trkpt><trkpt lat="39.508215493250376" lon="8.650790893644274"><ele>148.0</ele><time>2026-04-08T11:21:09.998Z</time></trkpt><trkpt lat="39.50829855185394" lon="8.650970940616675"><ele>148.0</ele><time>2026-04-08T11:21:10.998Z</time></trkpt><trkpt lat="39.50837346845135" lon="8.651136362121553"><ele>148.0</ele><time>2026-04-08T11:21:11.998Z</time></trkpt><trkpt lat="39.508439697573166" lon="8.651291871619826"><ele>148.0</ele><time>2026-04-08T11:21:12.998Z</time></trkpt><trkpt lat="39.508503415253834" lon="8.651437012935151"><ele>147.8</ele><time>2026-04-08T11:21:13.998Z</time></trkpt><trkpt lat="39.50855512533493" lon="8.65155696863023"><ele>147.60000000000002</ele><time>2026-04-08T11:21:14.998Z</time></trkpt><trkpt lat="39.508585461568096" lon="8.651666844499493"><ele>147.39999999999998</ele><time>2026-04-08T11:21:15.998Z</time></trkpt><trkpt lat="39.50858491448692" lon="8.651777800063265"><ele>147.2</ele><time>2026-04-08T11:21:16.998Z</time></trkpt><trkpt lat="39.50858879744558" lon="8.651886893908763"><ele>147.0</ele><time>2026-04-08T11:21:17.998Z</time></trkpt><trkpt lat="39.5085409737711" lon="8.6519835330395"><ele>146.79999999999998</ele><time>2026-04-08T11:21:19.998Z</time></trkpt><trkpt lat="39.50848965861341" lon="8.652068996158706"><ele>146.6</ele><time>2026-04-08T11:21:21.998Z</time></trkpt><trkpt lat="39.50841645868295" lon="8.652138070416093"><ele>146.39999999999998</ele><time>2026-04-08T11:21:22.998Z</time></trkpt><trkpt lat="39.50831025378772" lon="8.6522108428004"><ele>146.2</ele><time>2026-04-08T11:21:23.998Z</time></trkpt><trkpt lat="39.50818146858159" lon="8.652307493286987"><ele>146.0</ele><time>2026-04-08T11:21:24.998Z</time></trkpt><trkpt lat="39.508021216418875" lon="8.652415204099958"><ele>148.0</ele><time>2026-04-08T11:21:25.997Z</time></trkpt><trkpt lat="39.50783225908859" lon="8.652553216102694"><ele>150.0</ele><time>2026-04-08T11:21:26.997Z</time></trkpt><trkpt lat="39.50761329071394" lon="8.65272828497638"><ele>150.5</ele><time>2026-04-08T11:21:27.997Z</time></trkpt><trkpt lat="39.50735811005164" lon="8.652907778188649"><ele>151.0</ele><time>2026-04-08T11:21:28.997Z</time></trkpt><trkpt lat="39.50708555115304" lon="8.653105842269694"><ele>151.5</ele><time>2026-04-08T11:21:29.997Z</time></trkpt><trkpt lat="39.50681005483898" lon="8.653306094471077"><ele>152.0</ele><time>2026-04-08T11:21:30.997Z</time></trkpt><trkpt lat="39.50652289404372" lon="8.653513587406747"><ele>153.0</ele><time>2026-04-08T11:21:31.997Z</time></trkpt><trkpt lat="39.50623810297813" lon="8.653723390482927"><ele>154.0</ele><time>2026-04-08T11:21:32.997Z</time></trkpt><trkpt lat="39.50598325271896" lon="8.65391871773345"><ele>154.0</ele><time>2026-04-08T11:21:33.997Z</time></trkpt><trkpt lat="39.50574355700498" lon="8.654099673455805"><ele>154.0</ele><time>2026-04-08T11:21:35Z</time></trkpt><trkpt lat="39.50549943001755" lon="8.65427073720732"><ele>154.5</ele><time>2026-04-08T11:21:36Z</time></trkpt><trkpt lat="39.50526757718363" lon="8.654433160089734"><ele>155.0</ele><time>2026-04-08T11:21:37Z</time></trkpt><trkpt lat="39.50504312448879" lon="8.654599517453065"><ele>155.5</ele><time>2026-04-08T11:21:38Z</time></trkpt><trkpt lat="39.50481919906533" lon="8.654766655956392"><ele>156.0</ele><time>2026-04-08T11:21:39Z</time></trkpt><trkpt lat="39.50459486145107" lon="8.654930485213507"><ele>157.0</ele><time>2026-04-08T11:21:40Z</time></trkpt><trkpt lat="39.50436798194183" lon="8.655094471225075"><ele>158.0</ele><time>2026-04-08T11:21:41Z</time></trkpt><trkpt lat="39.504142018309324" lon="8.655257028410308"><ele>159.0</ele><time>2026-04-08T11:21:42Z</time></trkpt><trkpt lat="39.50391911026153" lon="8.655416111417901"><ele>160.0</ele><time>2026-04-08T11:21:43Z</time></trkpt><trkpt lat="39.50370313023923" lon="8.655579364397342"><ele>160.5</ele><time>2026-04-08T11:21:44Z</time></trkpt><trkpt lat="39.50348876874796" lon="8.655743816608322"><ele>161.0</ele><time>2026-04-08T11:21:45Z</time></trkpt><trkpt lat="39.50327325473957" lon="8.655898551544116"><ele>161.0</ele><time>2026-04-08T11:21:46Z</time></trkpt><trkpt lat="39.50306168256532" lon="8.656057318577394"><ele>161.0</ele><time>2026-04-08T11:21:47Z</time></trkpt><trkpt lat="39.50285334771235" lon="8.656207073133796"><ele>161.66666666666666</ele><time>2026-04-08T11:21:48Z</time></trkpt><trkpt lat="39.50265040290373" lon="8.656347904462498"><ele>162.33333333333334</ele><time>2026-04-08T11:21:49Z</time></trkpt><trkpt lat="39.502472642911755" lon="8.656475608149831"><ele>163.0</ele><time>2026-04-08T11:21:50Z</time></trkpt><trkpt lat="39.50230918264386" lon="8.656594538039927"><ele>163.0</ele><time>2026-04-08T11:21:51Z</time></trkpt><trkpt lat="39.50214378171475" lon="8.656715940550406"><ele>163.0</ele><time>2026-04-08T11:21:52Z</time></trkpt><trkpt lat="39.50197964545033" lon="8.656832337403202"><ele>163.0</ele><time>2026-04-08T11:21:53Z</time></trkpt><trkpt lat="39.5018246853559" lon="8.656950459638711"><ele>164.0</ele><time>2026-04-08T11:21:54Z</time></trkpt><trkpt lat="39.501673608032384" lon="8.6570626560237"><ele>165.0</ele><time>2026-04-08T11:21:55Z</time></trkpt><trkpt lat="39.50153140515909" lon="8.65716601255687"><ele>166.0</ele><time>2026-04-08T11:21:56Z</time></trkpt><trkpt lat="39.501410338451024" lon="8.657257457708749"><ele>166.0</ele><time>2026-04-08T11:21:57Z</time></trkpt><trkpt lat="39.50128514348141" lon="8.65735590236316"><ele>166.0</ele><time>2026-04-08T11:21:58Z</time></trkpt><trkpt lat="39.501153033519934" lon="8.657457295166266"><ele>166.0</ele><time>2026-04-08T11:21:59Z</time></trkpt><trkpt lat="39.501019261559094" lon="8.657553554593616"><ele>167.0</ele><time>2026-04-08T11:22:00Z</time></trkpt><trkpt lat="39.50088554524279" lon="8.65764621636426"><ele>168.0</ele><time>2026-04-08T11:22:01Z</time></trkpt><trkpt lat="39.500745901110484" lon="8.657742280835715"><ele>169.0</ele><time>2026-04-08T11:22:01.999Z</time></trkpt><trkpt lat="39.50060710420039" lon="8.657844621637754"><ele>169.0</ele><time>2026-04-08T11:22:02.999Z</time></trkpt><trkpt lat="39.500473041413606" lon="8.657942446072362"><ele>169.0</ele><time>2026-04-08T11:22:03.999Z</time></trkpt><trkpt lat="39.50034415344221" lon="8.658031984364376"><ele>169.0</ele><time>2026-04-08T11:22:04.999Z</time></trkpt><trkpt lat="39.50020866892078" lon="8.658128024169622"><ele>169.66666666666669</ele><time>2026-04-08T11:22:05.999Z</time></trkpt><trkpt lat="39.50006799110389" lon="8.658233494788643"><ele>170.33333333333334</ele><time>2026-04-08T11:22:06.999Z</time></trkpt><trkpt lat="39.49992472538847" lon="8.658341395413421"><ele>171.0</ele><time>2026-04-08T11:22:07.999Z</time></trkpt><trkpt lat="39.49977947055737" lon="8.658447816937235"><ele>171.0</ele><time>2026-04-08T11:22:08.999Z</time></trkpt><trkpt lat="39.499628289513055" lon="8.658552845157827"><ele>171.0</ele><time>2026-04-08T11:22:09.999Z</time></trkpt><trkpt lat="39.499484488441134" lon="8.658655664375532"><ele>171.0</ele><time>2026-04-08T11:22:10.999Z</time></trkpt><trkpt lat="39.49933892443448" lon="8.658764118364656"><ele>172.33333333333334</ele><time>2026-04-08T11:22:11.999Z</time></trkpt><trkpt lat="39.49919241230328" lon="8.658873617468169"><ele>173.66666666666669</ele><time>2026-04-08T11:22:12.999Z</time></trkpt><trkpt lat="39.49904657244784" lon="8.658986419496284"><ele>175.0</ele><time>2026-04-08T11:22:13.999Z</time></trkpt><trkpt lat="39.49889748980574" lon="8.65909300498435"><ele>175.33333333333334</ele><time>2026-04-08T11:22:14.999Z</time></trkpt><trkpt lat="39.498749859297945" lon="8.659197706262582"><ele>175.66666666666666</ele><time>2026-04-08T11:22:15.999Z</time></trkpt><trkpt lat="39.49860579575714" lon="8.659295387678796"><ele>176.0</ele><time>2026-04-08T11:22:16.999Z</time></trkpt><trkpt lat="39.49846455673226" lon="8.659395805906804"><ele>176.0</ele><time>2026-04-08T11:22:17.999Z</time></trkpt><trkpt lat="39.49832880289145" lon="8.659497029077855"><ele>176.0</ele><time>2026-04-08T11:22:18.999Z</time></trkpt><trkpt lat="39.49818864555398" lon="8.659605290226391"><ele>176.0</ele><time>2026-04-08T11:22:19.999Z</time></trkpt><trkpt lat="39.49805422491519" lon="8.659703304395224"><ele>176.0</ele><time>2026-04-08T11:22:20.999Z</time></trkpt><trkpt lat="39.49792174066558" lon="8.659806516103362"><ele>176.0</ele><time>2026-04-08T11:22:21.999Z</time></trkpt><trkpt lat="39.49779391722444" lon="8.659897950283812"><ele>176.0</ele><time>2026-04-08T11:22:22.999Z</time></trkpt><trkpt lat="39.497661025941554" lon="8.659992130616203"><ele>176.5</ele><time>2026-04-08T11:22:23.999Z</time></trkpt><trkpt lat="39.49752915879836" lon="8.66008597321025"><ele>177.0</ele><time>2026-04-08T11:22:24.999Z</time></trkpt><trkpt lat="39.49739609686557" lon="8.660180753759818"><ele>177.5</ele><time>2026-04-08T11:22:25.999Z</time></trkpt><trkpt lat="39.49726697679889" lon="8.660269756560876"><ele>178.0</ele><time>2026-04-08T11:22:26.999Z</time></trkpt><trkpt lat="39.497139546362824" lon="8.660365504167475"><ele>178.5</ele><time>2026-04-08T11:22:27.999Z</time></trkpt><trkpt lat="39.49701414110857" lon="8.660454680470549"><ele>179.0</ele><time>2026-04-08T11:22:28.999Z</time></trkpt><trkpt lat="39.4968889025938" lon="8.66054485879089"><ele>179.5</ele><time>2026-04-08T11:22:29.999Z</time></trkpt><trkpt lat="39.49676761771282" lon="8.660643593504336"><ele>180.0</ele><time>2026-04-08T11:22:30.999Z</time></trkpt><trkpt lat="39.496646918431104" lon="8.660755598462238"><ele>180.0</ele><time>2026-04-08T11:22:31.999Z</time></trkpt><trkpt lat="39.49653628521963" lon="8.660878549241247"><ele>180.0</ele><time>2026-04-08T11:22:32.999Z</time></trkpt><trkpt lat="39.496447933557654" lon="8.661010934922833"><ele>180.0</ele><time>2026-04-08T11:22:33.999Z</time></trkpt><trkpt lat="39.496369809377306" lon="8.661168010969599"><ele>180.0</ele><time>2026-04-08T11:22:34.999Z</time></trkpt><trkpt lat="39.49630473230864" lon="8.66132275645151"><ele>180.33333333333334</ele><time>2026-04-08T11:22:35.999Z</time></trkpt><trkpt lat="39.49626929148469" lon="8.661524093781832"><ele>180.66666666666669</ele><time>2026-04-08T11:22:36.999Z</time></trkpt><trkpt lat="39.49623162345949" lon="8.661730257527461"><ele>181.0</ele><time>2026-04-08T11:22:37.999Z</time></trkpt><trkpt lat="39.49619062230703" lon="8.661931865719444"><ele>182.0</ele><time>2026-04-08T11:22:38.999Z</time></trkpt><trkpt lat="39.496149469660274" lon="8.662125974315378"><ele>183.0</ele><time>2026-04-08T11:22:39.999Z</time></trkpt><trkpt lat="39.49610671881728" lon="8.662321907838614"><ele>184.0</ele><time>2026-04-08T11:22:40.999Z</time></trkpt><trkpt lat="39.49606401758834" lon="8.66251708275915"><ele>184.0</ele><time>2026-04-08T11:22:41.999Z</time></trkpt><trkpt lat="39.49602208997555" lon="8.662701922782842"><ele>184.0</ele><time>2026-04-08T11:22:42.999Z</time></trkpt><trkpt lat="39.49599177397905" lon="8.66286746587936"><ele>184.0</ele><time>2026-04-08T11:22:43.999Z</time></trkpt><trkpt lat="39.49597622137601" lon="8.66299986991549"><ele>184.0</ele><time>2026-04-08T11:22:44.999Z</time></trkpt><trkpt lat="39.49597531857324" lon="8.663127851444418"><ele>183.83333333333334</ele><time>2026-04-08T11:22:45.999Z</time></trkpt><trkpt lat="39.49598273506942" lon="8.66325763563656"><ele>183.66666666666669</ele><time>2026-04-08T11:22:46.999Z</time></trkpt><trkpt lat="39.49597038459076" lon="8.66336778466608"><ele>183.5</ele><time>2026-04-08T11:22:48.998Z</time></trkpt><trkpt lat="39.49598159103867" lon="8.663466032864182"><ele>183.33333333333334</ele><time>2026-04-08T11:22:50.998Z</time></trkpt><trkpt lat="39.49599905001405" lon="8.663562704061079"><ele>183.16666666666666</ele><time>2026-04-08T11:22:52.998Z</time></trkpt><trkpt lat="39.49603712910537" lon="8.663665148840563"><ele>183.0</ele><time>2026-04-08T11:22:55.998Z</time></trkpt><trkpt lat="39.49607243340713" lon="8.663773873203642"><ele>182.83333333333334</ele><time>2026-04-08T11:22:57.998Z</time></trkpt><trkpt lat="39.496100962377945" lon="8.66385106376587"><ele>182.66666666666666</ele><time>2026-04-08T11:23:00.998Z</time></trkpt><trkpt lat="39.49612687553652" lon="8.663959517808491"><ele>182.5</ele><time>2026-04-08T11:23:05.998Z</time></trkpt><trkpt lat="39.496155233621096" lon="8.664067088255155"><ele>182.33333333333331</ele><time>2026-04-08T11:23:08.998Z</time></trkpt><trkpt lat="39.49620916689653" lon="8.664209761151282"><ele>182.16666666666666</ele><time>2026-04-08T11:23:10.998Z</time></trkpt><trkpt lat="39.49623900474296" lon="8.664294256559199"><ele>182.0</ele><time>2026-04-08T11:23:11.998Z</time></trkpt><trkpt lat="39.4962664531096" lon="8.664377733100942"><ele>181.2</ele><time>2026-04-08T11:23:12.998Z</time></trkpt><trkpt lat="39.496294978097964" lon="8.664458950750713"><ele>180.39999999999998</ele><time>2026-04-08T11:23:13.998Z</time></trkpt><trkpt lat="39.49632667074864" lon="8.664555341518556"><ele>179.60000000000002</ele><time>2026-04-08T11:23:14.998Z</time></trkpt><trkpt lat="39.49636544846606" lon="8.664665433256342"><ele>178.8</ele><time>2026-04-08T11:23:15.998Z</time></trkpt><trkpt lat="39.496409295900094" lon="8.664787026584246"><ele>178.0</ele><time>2026-04-08T11:23:16.998Z</time></trkpt><trkpt lat="39.49645219360396" lon="8.664908216303642"><ele>178.0</ele><time>2026-04-08T11:23:17.998Z</time></trkpt><trkpt lat="39.496496811368466" lon="8.66503072120044"><ele>178.0</ele><time>2026-04-08T11:23:18.998Z</time></trkpt><trkpt lat="39.496543322064106" lon="8.66515499732022"><ele>178.0</ele><time>2026-04-08T11:23:19.998Z</time></trkpt><trkpt lat="39.496588656984976" lon="8.665285301974732"><ele>178.0</ele><time>2026-04-08T11:23:20.998Z</time></trkpt><trkpt lat="39.496632966523265" lon="8.66541318853217"><ele>178.0</ele><time>2026-04-08T11:23:21.998Z</time></trkpt><trkpt lat="39.49667925770864" lon="8.665542963957604"><ele>178.60000000000002</ele><time>2026-04-08T11:23:22.998Z</time></trkpt><trkpt lat="39.49672576630434" lon="8.665674933353381"><ele>179.20000000000002</ele><time>2026-04-08T11:23:23.998Z</time></trkpt><trkpt lat="39.4967720742333" lon="8.66580538265959"><ele>179.8</ele><time>2026-04-08T11:23:24.998Z</time></trkpt><trkpt lat="39.49682214226355" lon="8.665937390592608"><ele>180.4</ele><time>2026-04-08T11:23:25.998Z</time></trkpt><trkpt lat="39.49686847570853" lon="8.666071075168214"><ele>181.0</ele><time>2026-04-08T11:23:26.998Z</time></trkpt><trkpt lat="39.49691540577481" lon="8.666206559062246"><ele>181.25</ele><time>2026-04-08T11:23:27.998Z</time></trkpt><trkpt lat="39.49696372107384" lon="8.666341389999587"><ele>181.5</ele><time>2026-04-08T11:23:28.998Z</time></trkpt><trkpt lat="39.497010694474135" lon="8.666474338157542"><ele>181.75</ele><time>2026-04-08T11:23:29.998Z</time></trkpt><trkpt lat="39.49705610825162" lon="8.666606905827958"><ele>182.0</ele><time>2026-04-08T11:23:30.998Z</time></trkpt><trkpt lat="39.49710325608019" lon="8.666740571110324"><ele>182.0</ele><time>2026-04-08T11:23:31.998Z</time></trkpt><trkpt lat="39.497155760988946" lon="8.666885769425674"><ele>182.0</ele><time>2026-04-08T11:23:32.997Z</time></trkpt><trkpt lat="39.49721125297517" lon="8.667041286601478"><ele>182.0</ele><time>2026-04-08T11:23:33.997Z</time></trkpt><trkpt lat="39.49726665259771" lon="8.667199978451288"><ele>182.0</ele><time>2026-04-08T11:23:34.997Z</time></trkpt><trkpt lat="39.497323472885164" lon="8.667359193019012"><ele>182.75</ele><time>2026-04-08T11:23:35.997Z</time></trkpt><trkpt lat="39.49738463621421" lon="8.667521362698007"><ele>183.5</ele><time>2026-04-08T11:23:36.997Z</time></trkpt><trkpt lat="39.497439487281795" lon="8.667680599913618"><ele>184.25</ele><time>2026-04-08T11:23:37.997Z</time></trkpt><trkpt lat="39.49749525852821" lon="8.667846673156948"><ele>185.0</ele><time>2026-04-08T11:23:38.997Z</time></trkpt><trkpt lat="39.497554739870985" lon="8.668016737890923"><ele>185.0</ele><time>2026-04-08T11:23:40Z</time></trkpt><trkpt lat="39.49761477608241" lon="8.668186710449868"><ele>185.0</ele><time>2026-04-08T11:23:41Z</time></trkpt><trkpt lat="39.497674628843974" lon="8.668357751291762"><ele>185.0</ele><time>2026-04-08T11:23:42Z</time></trkpt><trkpt lat="39.497737867901215" lon="8.668529562318946"><ele>185.0</ele><time>2026-04-08T11:23:43Z</time></trkpt><trkpt lat="39.49779908742092" lon="8.668712282373917"><ele>185.0</ele><time>2026-04-08T11:23:44Z</time></trkpt><trkpt lat="39.49785930953984" lon="8.66890466034013"><ele>185.0</ele><time>2026-04-08T11:23:45Z</time></trkpt><trkpt lat="39.49792360450005" lon="8.669113618988664"><ele>185.0</ele><time>2026-04-08T11:23:46Z</time></trkpt><trkpt lat="39.49800377557227" lon="8.669339908007226"><ele>185.0</ele><time>2026-04-08T11:23:47Z</time></trkpt><trkpt lat="39.49807216401255" lon="8.669565726654406"><ele>185.0</ele><time>2026-04-08T11:23:48Z</time></trkpt><trkpt lat="39.49811631817952" lon="8.669813808388907"><ele>185.0</ele><time>2026-04-08T11:23:49Z</time></trkpt><trkpt lat="39.49814016256797" lon="8.670072937267292"><ele>184.66666666666666</ele><time>2026-04-08T11:23:50Z</time></trkpt><trkpt lat="39.49815717257792" lon="8.670337420533455"><ele>184.33333333333334</ele><time>2026-04-08T11:23:51Z</time></trkpt><trkpt lat="39.49817285424706" lon="8.670605348955323"><ele>184.0</ele><time>2026-04-08T11:23:52Z</time></trkpt><trkpt lat="39.49818386582605" lon="8.670879881853137"><ele>184.0</ele><time>2026-04-08T11:23:53Z</time></trkpt><trkpt lat="39.49819881182304" lon="8.67115508548366"><ele>184.0</ele><time>2026-04-08T11:23:54Z</time></trkpt><trkpt lat="39.49821818521624" lon="8.671451662982891"><ele>184.0</ele><time>2026-04-08T11:23:55Z</time></trkpt><trkpt lat="39.4982355001736" lon="8.671763016342153"><ele>185.5</ele><time>2026-04-08T11:23:56Z</time></trkpt><trkpt lat="39.49824601436386" lon="8.672100429397476"><ele>187.0</ele><time>2026-04-08T11:23:57Z</time></trkpt><trkpt lat="39.49826007359114" lon="8.672440905568326"><ele>188.0</ele><time>2026-04-08T11:23:58Z</time></trkpt><trkpt lat="39.49827811355327" lon="8.672783947540937"><ele>189.0</ele><time>2026-04-08T11:23:59Z</time></trkpt><trkpt lat="39.498300841392364" lon="8.673124837711224"><ele>189.0</ele><time>2026-04-08T11:24:00Z</time></trkpt><trkpt lat="39.49832292498466" lon="8.673460759480587"><ele>189.0</ele><time>2026-04-08T11:24:01Z</time></trkpt><trkpt lat="39.498341916178646" lon="8.673798292113442"><ele>190.5</ele><time>2026-04-08T11:24:02Z</time></trkpt><trkpt lat="39.498362990722285" lon="8.674131601969497"><ele>192.0</ele><time>2026-04-08T11:24:03Z</time></trkpt><trkpt lat="39.498385302692505" lon="8.674465976079333"><ele>192.5</ele><time>2026-04-08T11:24:04Z</time></trkpt><trkpt lat="39.498407277312815" lon="8.674796417732786"><ele>193.0</ele><time>2026-04-08T11:24:05Z</time></trkpt><trkpt lat="39.49842833319333" lon="8.675121401390504"><ele>194.0</ele><time>2026-04-08T11:24:06Z</time></trkpt><trkpt lat="39.49844814524865" lon="8.675441564580275"><ele>195.0</ele><time>2026-04-08T11:24:07Z</time></trkpt><trkpt lat="39.49846047067873" lon="8.675756130989189"><ele>195.0</ele><time>2026-04-08T11:24:08Z</time></trkpt><trkpt lat="39.49847693186145" lon="8.676077615144179"><ele>195.0</ele><time>2026-04-08T11:24:09Z</time></trkpt><trkpt lat="39.49849293477371" lon="8.6763719331072"><ele>195.0</ele><time>2026-04-08T11:24:10Z</time></trkpt><trkpt lat="39.49851269443926" lon="8.676663776445686"><ele>195.0</ele><time>2026-04-08T11:24:11Z</time></trkpt><trkpt lat="39.498529753879765" lon="8.67695639066602"><ele>195.0</ele><time>2026-04-08T11:24:12Z</time></trkpt><trkpt lat="39.49854429890696" lon="8.677238587761416"><ele>195.0</ele><time>2026-04-08T11:24:12.999Z</time></trkpt><trkpt lat="39.498560147022594" lon="8.677514012366128"><ele>195.0</ele><time>2026-04-08T11:24:13.999Z</time></trkpt><trkpt lat="39.49857310435289" lon="8.67778920740659"><ele>196.0</ele><time>2026-04-08T11:24:14.999Z</time></trkpt><trkpt lat="39.498584048915966" lon="8.678061416937709"><ele>197.0</ele><time>2026-04-08T11:24:15.999Z</time></trkpt><trkpt lat="39.49859536205884" lon="8.678332072053156"><ele>198.0</ele><time>2026-04-08T11:24:16.999Z</time></trkpt><trkpt lat="39.498612393298295" lon="8.678614521378087"><ele>198.33333333333331</ele><time>2026-04-08T11:24:17.999Z</time></trkpt><trkpt lat="39.49862900943702" lon="8.678884156125472"><ele>198.66666666666666</ele><time>2026-04-08T11:24:18.999Z</time></trkpt><trkpt lat="39.498640081140024" lon="8.679137216685346"><ele>199.0</ele><time>2026-04-08T11:24:19.999Z</time></trkpt><trkpt lat="39.49865458620912" lon="8.679403427777697"><ele>198.5</ele><time>2026-04-08T11:24:20.999Z</time></trkpt><trkpt lat="39.49866785976957" lon="8.679687492006682"><ele>198.0</ele><time>2026-04-08T11:24:21.999Z</time></trkpt><trkpt lat="39.498681267976636" lon="8.679993530493897"><ele>197.0</ele><time>2026-04-08T11:24:22.999Z</time></trkpt><trkpt lat="39.4987033268695" lon="8.680301534549836"><ele>196.0</ele><time>2026-04-08T11:24:23.999Z</time></trkpt><trkpt lat="39.498736331011784" lon="8.680647948745312"><ele>193.5</ele><time>2026-04-08T11:24:24.999Z</time></trkpt><trkpt lat="39.49875976499445" lon="8.681041616525555"><ele>191.0</ele><time>2026-04-08T11:24:25.999Z</time></trkpt><trkpt lat="39.498772552241604" lon="8.68145799303215"><ele>189.0</ele><time>2026-04-08T11:24:26.999Z</time></trkpt><trkpt lat="39.49878777507394" lon="8.68188991019571"><ele>187.0</ele><time>2026-04-08T11:24:27.999Z</time></trkpt><trkpt lat="39.49880968941166" lon="8.682321646461277"><ele>186.5</ele><time>2026-04-08T11:24:28.999Z</time></trkpt><trkpt lat="39.49883093172959" lon="8.682718104400912"><ele>186.0</ele><time>2026-04-08T11:24:29.999Z</time></trkpt><trkpt lat="39.4988567778196" lon="8.683125505585107"><ele>186.0</ele><time>2026-04-08T11:24:30.999Z</time></trkpt><trkpt lat="39.4988819987679" lon="8.683543249953551"><ele>186.0</ele><time>2026-04-08T11:24:31.999Z</time></trkpt><trkpt lat="39.49888765585048" lon="8.683874748238724"><ele>185.5</ele><time>2026-04-08T11:24:32.999Z</time></trkpt><trkpt lat="39.49891065252588" lon="8.684225526774679"><ele>185.0</ele><time>2026-04-08T11:24:33.999Z</time></trkpt><trkpt lat="39.49893335846006" lon="8.684550854627755"><ele>184.33333333333331</ele><time>2026-04-08T11:24:34.999Z</time></trkpt><trkpt lat="39.4989409716178" lon="8.684849449822169"><ele>183.66666666666666</ele><time>2026-04-08T11:24:35.999Z</time></trkpt><trkpt lat="39.49893526588425" lon="8.685124146639577"><ele>183.0</ele><time>2026-04-08T11:24:36.999Z</time></trkpt><trkpt lat="39.498907211837675" lon="8.685401661629808"><ele>183.0</ele><time>2026-04-08T11:24:37.999Z</time></trkpt><trkpt lat="39.4988657212082" lon="8.685660820345513"><ele>183.0</ele><time>2026-04-08T11:24:38.999Z</time></trkpt><trkpt lat="39.498792107117325" lon="8.685923967836592"><ele>183.0</ele><time>2026-04-08T11:24:39.999Z</time></trkpt><trkpt lat="39.49868255632716" lon="8.686188366301101"><ele>183.5</ele><time>2026-04-08T11:24:40.999Z</time></trkpt><trkpt lat="39.498548175181455" lon="8.686436029969897"><ele>184.0</ele><time>2026-04-08T11:24:41.999Z</time></trkpt><trkpt lat="39.498375214269814" lon="8.686698824702132"><ele>181.0</ele><time>2026-04-08T11:24:42.999Z</time></trkpt><trkpt lat="39.49819153100141" lon="8.686964514111375"><ele>178.0</ele><time>2026-04-08T11:24:43.999Z</time></trkpt><trkpt lat="39.49804670122961" lon="8.687196308462559"><ele>178.0</ele><time>2026-04-08T11:24:44.999Z</time></trkpt><trkpt lat="39.49792159278678" lon="8.68739981340546"><ele>178.0</ele><time>2026-04-08T11:24:45.999Z</time></trkpt><trkpt lat="39.4978180683781" lon="8.687574492518136"><ele>178.0</ele><time>2026-04-08T11:24:46.999Z</time></trkpt><trkpt lat="39.49776182184193" lon="8.687713568817271"><ele>180.33333333333334</ele><time>2026-04-08T11:24:47.999Z</time></trkpt><trkpt lat="39.497736334589845" lon="8.687940769264973"><ele>182.66666666666666</ele><time>2026-04-08T11:24:48.999Z</time></trkpt><trkpt lat="39.49776171585077" lon="8.688164593256184"><ele>185.0</ele><time>2026-04-08T11:24:49.999Z</time></trkpt><trkpt lat="39.49783703136219" lon="8.688379840046812"><ele>185.0</ele><time>2026-04-08T11:24:50.999Z</time></trkpt><trkpt lat="39.49791624260456" lon="8.688573003378357"><ele>185.0</ele><time>2026-04-08T11:24:51.999Z</time></trkpt><trkpt lat="39.4978838188617" lon="8.688732164279573"><ele>185.0</ele><time>2026-04-08T11:24:52.999Z</time></trkpt><trkpt lat="39.49778455137811" lon="8.688911914138888"><ele>183.0</ele><time>2026-04-08T11:24:53.999Z</time></trkpt><trkpt lat="39.49758993821038" lon="8.68908599762476"><ele>181.0</ele><time>2026-04-08T11:24:54.999Z</time></trkpt><trkpt lat="39.49741652088003" lon="8.689260193604131"><ele>181.0</ele><time>2026-04-08T11:24:55.999Z</time></trkpt><trkpt lat="39.49727875333362" lon="8.6894235350719"><ele>181.0</ele><time>2026-04-08T11:24:56.999Z</time></trkpt><trkpt lat="39.4971790258049" lon="8.68959120047247"><ele>181.0</ele><time>2026-04-08T11:24:57.999Z</time></trkpt><trkpt lat="39.49712513544755" lon="8.689798596443069"><ele>180.0</ele><time>2026-04-08T11:24:58.998Z</time></trkpt><trkpt lat="39.49712732545975" lon="8.690049815631216"><ele>179.0</ele><time>2026-04-08T11:24:59.998Z</time></trkpt><trkpt lat="39.497148460128514" lon="8.690312028250595"><ele>178.0</ele><time>2026-04-08T11:25:00.998Z</time></trkpt><trkpt lat="39.49717061296046" lon="8.690540440844964"><ele>178.0</ele><time>2026-04-08T11:25:01.998Z</time></trkpt><trkpt lat="39.49717346550767" lon="8.690737252566583"><ele>178.0</ele><time>2026-04-08T11:25:02.998Z</time></trkpt><trkpt lat="39.49713011442639" lon="8.6909097567049"><ele>178.0</ele><time>2026-04-08T11:25:03.998Z</time></trkpt><trkpt lat="39.497086415368976" lon="8.691101484449232"><ele>178.0</ele><time>2026-04-08T11:25:04.998Z</time></trkpt><trkpt lat="39.496991325518344" lon="8.69127847474673"><ele>179.0</ele><time>2026-04-08T11:25:05.998Z</time></trkpt><trkpt lat="39.49686584362578" lon="8.691426906846068"><ele>180.0</ele><time>2026-04-08T11:25:06.998Z</time></trkpt><trkpt lat="39.496698468113024" lon="8.691527968365556"><ele>181.0</ele><time>2026-04-08T11:25:07.998Z</time></trkpt><trkpt lat="39.49652014904387" lon="8.691625946488763"><ele>181.0</ele><time>2026-04-08T11:25:08.998Z</time></trkpt><trkpt lat="39.49634737089455" lon="8.691723124362861"><ele>181.0</ele><time>2026-04-08T11:25:09.998Z</time></trkpt><trkpt lat="39.49619373756412" lon="8.691827497204088"><ele>181.0</ele><time>2026-04-08T11:25:10.998Z</time></trkpt><trkpt lat="39.49604036589954" lon="8.691927695081455"><ele>182.0</ele><time>2026-04-08T11:25:11.998Z</time></trkpt><trkpt lat="39.49589323200853" lon="8.692041059261829"><ele>183.0</ele><time>2026-04-08T11:25:12.998Z</time></trkpt><trkpt lat="39.49575011575016" lon="8.692188530546908"><ele>184.0</ele><time>2026-04-08T11:25:13.998Z</time></trkpt><trkpt lat="39.495614423063344" lon="8.692365305428776"><ele>184.0</ele><time>2026-04-08T11:25:14.998Z</time></trkpt><trkpt lat="39.4954934662962" lon="8.692573662024925"><ele>184.0</ele><time>2026-04-08T11:25:15.998Z</time></trkpt><trkpt lat="39.49539052218484" lon="8.692810403167567"><ele>184.0</ele><time>2026-04-08T11:25:16.998Z</time></trkpt><trkpt lat="39.49531157233815" lon="8.693066014304874"><ele>184.5</ele><time>2026-04-08T11:25:17.998Z</time></trkpt><trkpt lat="39.49525294895017" lon="8.693358996345433"><ele>185.0</ele><time>2026-04-08T11:25:18.998Z</time></trkpt><trkpt lat="39.49517934671138" lon="8.693704511447564"><ele>185.0</ele><time>2026-04-08T11:25:19.998Z</time></trkpt><trkpt lat="39.49510656656134" lon="8.69408297651614"><ele>185.0</ele><time>2026-04-08T11:25:20.998Z</time></trkpt><trkpt lat="39.495034102980235" lon="8.694475159122206"><ele>184.0</ele><time>2026-04-08T11:25:21.998Z</time></trkpt><trkpt lat="39.4949555133591" lon="8.694896746320413"><ele>183.0</ele><time>2026-04-08T11:25:22.998Z</time></trkpt><trkpt lat="39.49488146960625" lon="8.695347135777082"><ele>182.0</ele><time>2026-04-08T11:25:23.998Z</time></trkpt><trkpt lat="39.494791587798744" lon="8.695811133242326"><ele>181.0</ele><time>2026-04-08T11:25:24.998Z</time></trkpt><trkpt lat="39.4947013982946" lon="8.696290544162627"><ele>180.0</ele><time>2026-04-08T11:25:25.998Z</time></trkpt><trkpt lat="39.49460784717508" lon="8.696777217974985"><ele>179.0</ele><time>2026-04-08T11:25:26.998Z</time></trkpt><trkpt lat="39.49451448906002" lon="8.697269901652987"><ele>181.0</ele><time>2026-04-08T11:25:27.998Z</time></trkpt><trkpt lat="39.49442523491798" lon="8.697736051898776"><ele>183.0</ele><time>2026-04-08T11:25:28.998Z</time></trkpt><trkpt lat="39.49433870180568" lon="8.698175556245658"><ele>184.0</ele><time>2026-04-08T11:25:29.998Z</time></trkpt><trkpt lat="39.49424958751361" lon="8.698643465399813"><ele>185.0</ele><time>2026-04-08T11:25:30.998Z</time></trkpt><trkpt lat="39.494144102754916" lon="8.699136719001988"><ele>185.0</ele><time>2026-04-08T11:25:31.998Z</time></trkpt><trkpt lat="39.49407132963325" lon="8.69965518734461"><ele>185.0</ele><time>2026-04-08T11:25:32.998Z</time></trkpt><trkpt lat="39.493973275354435" lon="8.700112573598702"><ele>184.0</ele><time>2026-04-08T11:25:33.998Z</time></trkpt><trkpt lat="39.49388770722202" lon="8.70050337577613"><ele>183.0</ele><time>2026-04-08T11:25:34.998Z</time></trkpt><trkpt lat="39.493815955691545" lon="8.700858977127975"><ele>186.0</ele><time>2026-04-08T11:25:35.998Z</time></trkpt><trkpt lat="39.4937464405447" lon="8.701223493935437"><ele>189.0</ele><time>2026-04-08T11:25:36.998Z</time></trkpt><trkpt lat="39.49367508884472" lon="8.701573089823935"><ele>189.0</ele><time>2026-04-08T11:25:37.998Z</time></trkpt><trkpt lat="39.49360885875749" lon="8.70188084439351"><ele>189.0</ele><time>2026-04-08T11:25:38.998Z</time></trkpt><trkpt lat="39.493536812503955" lon="8.702147084513488"><ele>190.33333333333331</ele><time>2026-04-08T11:25:39.998Z</time></trkpt><trkpt lat="39.49346146923246" lon="8.702390716623881"><ele>191.66666666666666</ele><time>2026-04-08T11:25:40.998Z</time></trkpt><trkpt lat="39.493373224610046" lon="8.702663808727714"><ele>193.0</ele><time>2026-04-08T11:25:41.998Z</time></trkpt><trkpt lat="39.49326759819652" lon="8.70296674392537"><ele>193.0</ele><time>2026-04-08T11:25:42.998Z</time></trkpt><trkpt lat="39.49315671054736" lon="8.703297953424725"><ele>193.0</ele><time>2026-04-08T11:25:43.997Z</time></trkpt><trkpt lat="39.493036961460696" lon="8.703636148875654"><ele>195.5</ele><time>2026-04-08T11:25:45Z</time></trkpt><trkpt lat="39.492898527515486" lon="8.703981866433484"><ele>198.0</ele><time>2026-04-08T11:25:46Z</time></trkpt><trkpt lat="39.49274487298998" lon="8.704342659748749"><ele>200.0</ele><time>2026-04-08T11:25:47Z</time></trkpt><trkpt lat="39.49259602940569" lon="8.704721019257535"><ele>202.0</ele><time>2026-04-08T11:25:48Z</time></trkpt><trkpt lat="39.492450858731885" lon="8.705122380288225"><ele>202.0</ele><time>2026-04-08T11:25:49Z</time></trkpt><trkpt lat="39.49230541278291" lon="8.705526556183667"><ele>202.0</ele><time>2026-04-08T11:25:50Z</time></trkpt><trkpt lat="39.49215790443782" lon="8.705925655911347"><ele>203.0</ele><time>2026-04-08T11:25:51Z</time></trkpt><trkpt lat="39.49200998414923" lon="8.706324648734663"><ele>204.0</ele><time>2026-04-08T11:25:52Z</time></trkpt><trkpt lat="39.491861124986464" lon="8.706725760336287"><ele>203.0</ele><time>2026-04-08T11:25:53Z</time></trkpt><trkpt lat="39.491714638434836" lon="8.707128026184987"><ele>202.0</ele><time>2026-04-08T11:25:54Z</time></trkpt><trkpt lat="39.491567676700974" lon="8.707527208840558"><ele>201.0</ele><time>2026-04-08T11:25:55Z</time></trkpt><trkpt lat="39.491422856038675" lon="8.707917036418566"><ele>200.0</ele><time>2026-04-08T11:25:56Z</time></trkpt><trkpt lat="39.49127832666329" lon="8.708299991390138"><ele>202.0</ele><time>2026-04-08T11:25:57Z</time></trkpt><trkpt lat="39.491137407861494" lon="8.708680675306722"><ele>204.0</ele><time>2026-04-08T11:25:58Z</time></trkpt><trkpt lat="39.49099967476317" lon="8.709056678880591"><ele>204.0</ele><time>2026-04-08T11:25:59Z</time></trkpt><trkpt lat="39.49087610023211" lon="8.709390131372395"><ele>204.0</ele><time>2026-04-08T11:26:00Z</time></trkpt><trkpt lat="39.49076154350068" lon="8.709692211999572"><ele>204.0</ele><time>2026-04-08T11:26:01Z</time></trkpt><trkpt lat="39.49065338864952" lon="8.7099725097161"><ele>204.0</ele><time>2026-04-08T11:26:02Z</time></trkpt><trkpt lat="39.490558705535186" lon="8.710234727105613"><ele>203.0</ele><time>2026-04-08T11:26:03Z</time></trkpt><trkpt lat="39.49048590442417" lon="8.710508052281872"><ele>202.0</ele><time>2026-04-08T11:26:04Z</time></trkpt><trkpt lat="39.49042754307808" lon="8.710797788598176"><ele>202.0</ele><time>2026-04-08T11:26:05Z</time></trkpt><trkpt lat="39.49039220298159" lon="8.711073497321149"><ele>202.0</ele><time>2026-04-08T11:26:06Z</time></trkpt><trkpt lat="39.49033499409285" lon="8.711325122272568"><ele>202.0</ele><time>2026-04-08T11:26:07Z</time></trkpt><trkpt lat="39.49025134424385" lon="8.71155626130706"><ele>202.0</ele><time>2026-04-08T11:26:08Z</time></trkpt><trkpt lat="39.490169151671154" lon="8.711766583959081"><ele>202.0</ele><time>2026-04-08T11:26:09Z</time></trkpt><trkpt lat="39.4901257056874" lon="8.711989452189222"><ele>202.0</ele><time>2026-04-08T11:26:10Z</time></trkpt><trkpt lat="39.49012863588623" lon="8.712236770621077"><ele>201.66666666666666</ele><time>2026-04-08T11:26:11Z</time></trkpt><trkpt lat="39.490174695431904" lon="8.712486502017024"><ele>201.33333333333331</ele><time>2026-04-08T11:26:12Z</time></trkpt><trkpt lat="39.49026427413293" lon="8.712725412296544"><ele>201.0</ele><time>2026-04-08T11:26:13Z</time></trkpt><trkpt lat="39.49038232294962" lon="8.71296097577735"><ele>198.0</ele><time>2026-04-08T11:26:14Z</time></trkpt><trkpt lat="39.49048931463438" lon="8.71319574315349"><ele>195.0</ele><time>2026-04-08T11:26:15Z</time></trkpt><trkpt lat="39.490554634535386" lon="8.713435429728275"><ele>192.0</ele><time>2026-04-08T11:26:16Z</time></trkpt><trkpt lat="39.49059275127871" lon="8.713701194645875"><ele>192.0</ele><time>2026-04-08T11:26:17Z</time></trkpt><trkpt lat="39.4906092458589" lon="8.713991214412577"><ele>192.0</ele><time>2026-04-08T11:26:18Z</time></trkpt><trkpt lat="39.49059806142744" lon="8.714273533759783"><ele>192.0</ele><time>2026-04-08T11:26:19Z</time></trkpt><trkpt lat="39.49056155628933" lon="8.71453868197958"><ele>190.5</ele><time>2026-04-08T11:26:20Z</time></trkpt><trkpt lat="39.490491785128334" lon="8.7148118801463"><ele>189.0</ele><time>2026-04-08T11:26:21Z</time></trkpt><trkpt lat="39.49038762993847" lon="8.71510936415629"><ele>189.5</ele><time>2026-04-08T11:26:21.999Z</time></trkpt><trkpt lat="39.4902637231415" lon="8.715425578392608"><ele>190.0</ele><time>2026-04-08T11:26:22.999Z</time></trkpt><trkpt lat="39.49013263075554" lon="8.715764706849626"><ele>187.5</ele><time>2026-04-08T11:26:23.999Z</time></trkpt><trkpt lat="39.49000959871136" lon="8.716118661364098"><ele>185.0</ele><time>2026-04-08T11:26:24.999Z</time></trkpt><trkpt lat="39.48988660449483" lon="8.716477315224669"><ele>185.0</ele><time>2026-04-08T11:26:25.999Z</time></trkpt><trkpt lat="39.48975686703773" lon="8.71683527721667"><ele>185.0</ele><time>2026-04-08T11:26:26.999Z</time></trkpt><trkpt lat="39.48962759452379" lon="8.717179330636482"><ele>183.5</ele><time>2026-04-08T11:26:27.999Z</time></trkpt><trkpt lat="39.48951153726406" lon="8.71749156561081"><ele>182.0</ele><time>2026-04-08T11:26:28.999Z</time></trkpt><trkpt lat="39.48941026761055" lon="8.717780504474602"><ele>181.0</ele><time>2026-04-08T11:26:29.999Z</time></trkpt><trkpt lat="39.48931970852212" lon="8.718073618479442"><ele>180.0</ele><time>2026-04-08T11:26:30.999Z</time></trkpt><trkpt lat="39.48926118131489" lon="8.718395768654672"><ele>178.0</ele><time>2026-04-08T11:26:31.999Z</time></trkpt><trkpt lat="39.489232240030645" lon="8.718751288783293"><ele>176.0</ele><time>2026-04-08T11:26:32.999Z</time></trkpt><trkpt lat="39.48921259611418" lon="8.719144573318854"><ele>175.5</ele><time>2026-04-08T11:26:33.999Z</time></trkpt><trkpt lat="39.4891869029718" lon="8.71954415301435"><ele>175.0</ele><time>2026-04-08T11:26:34.999Z</time></trkpt><trkpt lat="39.48915809681311" lon="8.719957280564666"><ele>175.0</ele><time>2026-04-08T11:26:35.999Z</time></trkpt><trkpt lat="39.48912653501102" lon="8.720395525572528"><ele>175.0</ele><time>2026-04-08T11:26:36.999Z</time></trkpt><trkpt lat="39.48909221835931" lon="8.720841195348251"><ele>173.5</ele><time>2026-04-08T11:26:37.999Z</time></trkpt><trkpt lat="39.48905809809324" lon="8.721286414114827"><ele>172.0</ele><time>2026-04-08T11:26:38.999Z</time></trkpt><trkpt lat="39.4890258290571" lon="8.721728850811154"><ele>170.0</ele><time>2026-04-08T11:26:39.999Z</time></trkpt><trkpt lat="39.48899488372531" lon="8.72216181724299"><ele>168.0</ele><time>2026-04-08T11:26:40.999Z</time></trkpt><trkpt lat="39.48896530098301" lon="8.722583711577462"><ele>165.5</ele><time>2026-04-08T11:26:41.999Z</time></trkpt><trkpt lat="39.48893442354705" lon="8.722980564959284"><ele>163.0</ele><time>2026-04-08T11:26:42.999Z</time></trkpt><trkpt lat="39.48890541506555" lon="8.723349446721564"><ele>162.0</ele><time>2026-04-08T11:26:43.999Z</time></trkpt><trkpt lat="39.48887699783394" lon="8.723707632534765"><ele>161.0</ele><time>2026-04-08T11:26:44.999Z</time></trkpt><trkpt lat="39.48883296300177" lon="8.724047738388922"><ele>160.0</ele><time>2026-04-08T11:26:45.999Z</time></trkpt><trkpt lat="39.48874042156633" lon="8.724386815587946"><ele>159.0</ele><time>2026-04-08T11:26:46.999Z</time></trkpt><trkpt lat="39.488641192668084" lon="8.724732780235973"><ele>158.0</ele><time>2026-04-08T11:26:47.999Z</time></trkpt><trkpt lat="39.488520778515785" lon="8.725070425902114"><ele>157.0</ele><time>2026-04-08T11:26:48.999Z</time></trkpt><trkpt lat="39.488377914496326" lon="8.72538836236614"><ele>156.0</ele><time>2026-04-08T11:26:49.999Z</time></trkpt><trkpt lat="39.48823480996603" lon="8.72567879407072"><ele>155.0</ele><time>2026-04-08T11:26:50.999Z</time></trkpt><trkpt lat="39.488097552175574" lon="8.725972637400847"><ele>154.5</ele><time>2026-04-08T11:26:51.999Z</time></trkpt><trkpt lat="39.487963133625655" lon="8.72623184316183"><ele>154.0</ele><time>2026-04-08T11:26:52.999Z</time></trkpt><trkpt lat="39.48784550275273" lon="8.726471008681385"><ele>155.33333333333334</ele><time>2026-04-08T11:26:53.999Z</time></trkpt><trkpt lat="39.487734662297555" lon="8.72669957008956"><ele>156.66666666666666</ele><time>2026-04-08T11:26:54.999Z</time></trkpt><trkpt lat="39.487617220069744" lon="8.726914840225998"><ele>158.0</ele><time>2026-04-08T11:26:55.999Z</time></trkpt><trkpt lat="39.487477654212384" lon="8.727116381407138"><ele>158.0</ele><time>2026-04-08T11:26:56.999Z</time></trkpt><trkpt lat="39.487307787638755" lon="8.72728020877937"><ele>158.0</ele><time>2026-04-08T11:26:57.999Z</time></trkpt><trkpt lat="39.48710687974503" lon="8.72741799973919"><ele>158.0</ele><time>2026-04-08T11:26:58.999Z</time></trkpt><trkpt lat="39.486894513032716" lon="8.727537951505091"><ele>158.66666666666666</ele><time>2026-04-08T11:26:59.999Z</time></trkpt><trkpt lat="39.48670431740614" lon="8.727645936912234"><ele>159.33333333333334</ele><time>2026-04-08T11:27:00.999Z</time></trkpt><trkpt lat="39.48652640685825" lon="8.727753866481073"><ele>160.0</ele><time>2026-04-08T11:27:01.999Z</time></trkpt><trkpt lat="39.48635624666625" lon="8.72782496963192"><ele>158.66666666666669</ele><time>2026-04-08T11:27:02.999Z</time></trkpt><trkpt lat="39.48619029660599" lon="8.727856046418378"><ele>157.33333333333334</ele><time>2026-04-08T11:27:03.999Z</time></trkpt><trkpt lat="39.486023726480404" lon="8.727856522920654"><ele>156.0</ele><time>2026-04-08T11:27:04.999Z</time></trkpt><trkpt lat="39.48585579363794" lon="8.72780840958727"><ele>156.0</ele><time>2026-04-08T11:27:05.999Z</time></trkpt><trkpt lat="39.48568266618471" lon="8.72775329951244"><ele>156.0</ele><time>2026-04-08T11:27:06.999Z</time></trkpt><trkpt lat="39.48551718833217" lon="8.727706147837045"><ele>156.0</ele><time>2026-04-08T11:27:07.999Z</time></trkpt><trkpt lat="39.485370525488435" lon="8.727654669971788"><ele>157.25</ele><time>2026-04-08T11:27:08.998Z</time></trkpt><trkpt lat="39.48523370580788" lon="8.727609899143395"><ele>158.5</ele><time>2026-04-08T11:27:09.998Z</time></trkpt><trkpt lat="39.48511584805035" lon="8.727569579875983"><ele>159.75</ele><time>2026-04-08T11:27:10.998Z</time></trkpt><trkpt lat="39.48501343918405" lon="8.72756994820043"><ele>161.0</ele><time>2026-04-08T11:27:11.998Z</time></trkpt><trkpt lat="39.48492025764701" lon="8.727636051536704"><ele>160.0</ele><time>2026-04-08T11:27:12.998Z</time></trkpt><trkpt lat="39.48484465286233" lon="8.727787124324225"><ele>159.0</ele><time>2026-04-08T11:27:13.998Z</time></trkpt><trkpt lat="39.4847861463161" lon="8.727981402682042"><ele>158.0</ele><time>2026-04-08T11:27:14.998Z</time></trkpt><trkpt lat="39.48471463204394" lon="8.728150880208089"><ele>157.0</ele><time>2026-04-08T11:27:15.998Z</time></trkpt><trkpt lat="39.484645435341456" lon="8.728280305972392"><ele>158.0</ele><time>2026-04-08T11:27:16.998Z</time></trkpt><trkpt lat="39.48456490100458" lon="8.728370320321483"><ele>159.0</ele><time>2026-04-08T11:27:17.998Z</time></trkpt><trkpt lat="39.48445120547703" lon="8.728413309537729"><ele>160.0</ele><time>2026-04-08T11:27:18.998Z</time></trkpt><trkpt lat="39.484334683909324" lon="8.728383451934429"><ele>161.0</ele><time>2026-04-08T11:27:19.998Z</time></trkpt><trkpt lat="39.48419662267472" lon="8.728335418752614"><ele>161.0</ele><time>2026-04-08T11:27:20.998Z</time></trkpt><trkpt lat="39.484034964169545" lon="8.728257370049102"><ele>161.0</ele><time>2026-04-08T11:27:21.998Z</time></trkpt><trkpt lat="39.48388609118893" lon="8.728199803289959"><ele>161.0</ele><time>2026-04-08T11:27:22.998Z</time></trkpt><trkpt lat="39.48376588205149" lon="8.728138417811993"><ele>162.0</ele><time>2026-04-08T11:27:23.998Z</time></trkpt><trkpt lat="39.48365373189205" lon="8.728101433652874"><ele>163.0</ele><time>2026-04-08T11:27:24.998Z</time></trkpt><trkpt lat="39.483534597716286" lon="8.728108982681249"><ele>164.0</ele><time>2026-04-08T11:27:25.998Z</time></trkpt><trkpt lat="39.48341701010684" lon="8.728170979804714"><ele>165.0</ele><time>2026-04-08T11:27:26.998Z</time></trkpt><trkpt lat="39.48331229353419" lon="8.728283841290436"><ele>165.0</ele><time>2026-04-08T11:27:27.998Z</time></trkpt><trkpt lat="39.48324400084223" lon="8.728436922635424"><ele>165.0</ele><time>2026-04-08T11:27:28.998Z</time></trkpt><trkpt lat="39.48321506786066" lon="8.728616965671375"><ele>165.0</ele><time>2026-04-08T11:27:29.998Z</time></trkpt><trkpt lat="39.48322538725201" lon="8.728824229833899"><ele>165.0</ele><time>2026-04-08T11:27:30.998Z</time></trkpt><trkpt lat="39.48324907385687" lon="8.72905264604683"><ele>164.33333333333334</ele><time>2026-04-08T11:27:31.998Z</time></trkpt><trkpt lat="39.483236137154826" lon="8.729238779379326"><ele>163.66666666666669</ele><time>2026-04-08T11:27:32.998Z</time></trkpt><trkpt lat="39.48320171913172" lon="8.72944714911446"><ele>163.0</ele><time>2026-04-08T11:27:33.998Z</time></trkpt><trkpt lat="39.483126579176876" lon="8.729635083636015"><ele>163.0</ele><time>2026-04-08T11:27:34.998Z</time></trkpt><trkpt lat="39.48304431792278" lon="8.72980834355767"><ele>163.0</ele><time>2026-04-08T11:27:35.998Z</time></trkpt><trkpt lat="39.48294172059407" lon="8.729951960554484"><ele>163.0</ele><time>2026-04-08T11:27:36.998Z</time></trkpt><trkpt lat="39.482820533928546" lon="8.730091605621963"><ele>163.33333333333334</ele><time>2026-04-08T11:27:37.998Z</time></trkpt><trkpt lat="39.48268844735399" lon="8.730218999713813"><ele>163.66666666666666</ele><time>2026-04-08T11:27:38.998Z</time></trkpt><trkpt lat="39.48252474297014" lon="8.730299733882518"><ele>164.0</ele><time>2026-04-08T11:27:39.998Z</time></trkpt><trkpt lat="39.4823483255701" lon="8.730380730959892"><ele>164.0</ele><time>2026-04-08T11:27:40.998Z</time></trkpt><trkpt lat="39.48215711395301" lon="8.73042978743258"><ele>164.0</ele><time>2026-04-08T11:27:41.998Z</time></trkpt><trkpt lat="39.481933231107114" lon="8.730484890512725"><ele>164.0</ele><time>2026-04-08T11:27:42.998Z</time></trkpt><trkpt lat="39.48168642696886" lon="8.73049360207304"><ele>166.0</ele><time>2026-04-08T11:27:43.998Z</time></trkpt><trkpt lat="39.48143406312008" lon="8.730522833654735"><ele>168.0</ele><time>2026-04-08T11:27:44.998Z</time></trkpt><trkpt lat="39.481170840849266" lon="8.730559886569031"><ele>168.5</ele><time>2026-04-08T11:27:45.998Z</time></trkpt><trkpt lat="39.480898492817154" lon="8.730599706416122"><ele>169.0</ele><time>2026-04-08T11:27:46.998Z</time></trkpt><trkpt lat="39.48060704489468" lon="8.730644690770378"><ele>169.0</ele><time>2026-04-08T11:27:47.998Z</time></trkpt><trkpt lat="39.4802985625966" lon="8.730686044707959"><ele>169.0</ele><time>2026-04-08T11:27:48.998Z</time></trkpt><trkpt lat="39.47998304472858" lon="8.730728574280734"><ele>169.0</ele><time>2026-04-08T11:27:50Z</time></trkpt><trkpt lat="39.47966551704946" lon="8.730792587155376"><ele>169.0</ele><time>2026-04-08T11:27:51Z</time></trkpt><trkpt lat="39.479347065459244" lon="8.730835419840629"><ele>169.5</ele><time>2026-04-08T11:27:52Z</time></trkpt><trkpt lat="39.47902566499103" lon="8.730857703268006"><ele>170.0</ele><time>2026-04-08T11:27:53Z</time></trkpt><trkpt lat="39.47869730059317" lon="8.730902008629812"><ele>170.0</ele><time>2026-04-08T11:27:54Z</time></trkpt><trkpt lat="39.47836395713716" lon="8.730947024900829"><ele>170.0</ele><time>2026-04-08T11:27:55Z</time></trkpt><trkpt lat="39.4780262007161" lon="8.730992652547982"><ele>172.0</ele><time>2026-04-08T11:27:56Z</time></trkpt><trkpt lat="39.47768018349046" lon="8.731062067341098"><ele>174.0</ele><time>2026-04-08T11:27:57Z</time></trkpt><trkpt lat="39.47732506686332" lon="8.731088909411282"><ele>174.5</ele><time>2026-04-08T11:27:58Z</time></trkpt><trkpt lat="39.476976682038305" lon="8.731159389380414"><ele>175.0</ele><time>2026-04-08T11:27:59Z</time></trkpt><trkpt lat="39.47662839511753" lon="8.731206771489145"><ele>175.0</ele><time>2026-04-08T11:28:00Z</time></trkpt><trkpt lat="39.47627812797653" lon="8.731231384351151"><ele>175.0</ele><time>2026-04-08T11:28:01Z</time></trkpt><trkpt lat="39.47592826356823" lon="8.73127801958218"><ele>175.5</ele><time>2026-04-08T11:28:02Z</time></trkpt><trkpt lat="39.475578130703745" lon="8.731326310902235"><ele>176.0</ele><time>2026-04-08T11:28:03Z</time></trkpt><trkpt lat="39.47523007511861" lon="8.731376349998726"><ele>176.0</ele><time>2026-04-08T11:28:04Z</time></trkpt><trkpt lat="39.47488409698212" lon="8.73144538963791"><ele>176.0</ele><time>2026-04-08T11:28:05Z</time></trkpt><trkpt lat="39.47455904535491" lon="8.73146469502685"><ele>178.0</ele><time>2026-04-08T11:28:06Z</time></trkpt><trkpt lat="39.47427620826971" lon="8.731521708726882"><ele>180.0</ele><time>2026-04-08T11:28:07Z</time></trkpt><trkpt lat="39.473999089459255" lon="8.731554689686492"><ele>181.5</ele><time>2026-04-08T11:28:08Z</time></trkpt><trkpt lat="39.4737364941131" lon="8.731585790695103"><ele>183.0</ele><time>2026-04-08T11:28:09Z</time></trkpt><trkpt lat="39.473487712182404" lon="8.731620744532268"><ele>183.0</ele><time>2026-04-08T11:28:10Z</time></trkpt><trkpt lat="39.47324375457821" lon="8.731677116238286"><ele>183.0</ele><time>2026-04-08T11:28:11Z</time></trkpt><trkpt lat="39.47301913844782" lon="8.731771642589141"><ele>183.5</ele><time>2026-04-08T11:28:12Z</time></trkpt><trkpt lat="39.47280289617368" lon="8.731908218544609"><ele>184.0</ele><time>2026-04-08T11:28:13Z</time></trkpt><trkpt lat="39.472601467992995" lon="8.732050705702369"><ele>184.0</ele><time>2026-04-08T11:28:14Z</time></trkpt><trkpt lat="39.47239289113303" lon="8.732210886060367"><ele>184.0</ele><time>2026-04-08T11:28:15Z</time></trkpt><trkpt lat="39.472173706342076" lon="8.732394322548412"><ele>183.66666666666669</ele><time>2026-04-08T11:28:16Z</time></trkpt><trkpt lat="39.47197897258035" lon="8.73255620972239"><ele>183.33333333333334</ele><time>2026-04-08T11:28:17Z</time></trkpt><trkpt lat="39.47180469377583" lon="8.732697619674852"><ele>183.0</ele><time>2026-04-08T11:28:18Z</time></trkpt><trkpt lat="39.47164388179272" lon="8.732826109055171"><ele>182.75</ele><time>2026-04-08T11:28:19Z</time></trkpt><trkpt lat="39.47150566400382" lon="8.73293519433087"><ele>182.5</ele><time>2026-04-08T11:28:20Z</time></trkpt><trkpt lat="39.47139532142064" lon="8.733021376029711"><ele>182.25</ele><time>2026-04-08T11:28:21Z</time></trkpt><trkpt lat="39.47130010069721" lon="8.73309605627467"><ele>182.0</ele><time>2026-04-08T11:28:22Z</time></trkpt><trkpt lat="39.47122621085558" lon="8.73318391518952"><ele>184.33333333333331</ele><time>2026-04-08T11:28:23Z</time></trkpt><trkpt lat="39.471180038676486" lon="8.733301000026293"><ele>186.66666666666666</ele><time>2026-04-08T11:28:24Z</time></trkpt><trkpt lat="39.47115168100794" lon="8.733485446863963"><ele>189.0</ele><time>2026-04-08T11:28:25Z</time></trkpt><trkpt lat="39.47109046401422" lon="8.733754976215405"><ele>189.0</ele><time>2026-04-08T11:28:26Z</time></trkpt><trkpt lat="39.4710432934481" lon="8.734025951802135"><ele>189.0</ele><time>2026-04-08T11:28:27Z</time></trkpt><trkpt lat="39.47099989511963" lon="8.734294295092958"><ele>189.0</ele><time>2026-04-08T11:28:28Z</time></trkpt><trkpt lat="39.47095547289529" lon="8.73453400107215"><ele>189.66666666666666</ele><time>2026-04-08T11:28:29Z</time></trkpt><trkpt lat="39.4709090641271" lon="8.734761051621902"><ele>190.33333333333331</ele><time>2026-04-08T11:28:30Z</time></trkpt><trkpt lat="39.470817908728804" lon="8.734993730608542"><ele>191.0</ele><time>2026-04-08T11:28:31Z</time></trkpt><trkpt lat="39.47066908462621" lon="8.735189552235061"><ele>190.0</ele><time>2026-04-08T11:28:32Z</time></trkpt><trkpt lat="39.47051296338696" lon="8.735422474724805"><ele>189.0</ele><time>2026-04-08T11:28:33Z</time></trkpt><trkpt lat="39.47033117874036" lon="8.735666262128774"><ele>190.0</ele><time>2026-04-08T11:28:33.999Z</time></trkpt><trkpt lat="39.47015300921526" lon="8.735908039003455"><ele>191.0</ele><time>2026-04-08T11:28:34.999Z</time></trkpt><trkpt lat="39.46998575583572" lon="8.736125633205011"><ele>191.0</ele><time>2026-04-08T11:28:35.999Z</time></trkpt><trkpt lat="39.46982661402619" lon="8.736335471049943"><ele>191.0</ele><time>2026-04-08T11:28:36.999Z</time></trkpt><trkpt lat="39.46968055211502" lon="8.736547081316845"><ele>191.0</ele><time>2026-04-08T11:28:37.999Z</time></trkpt><trkpt lat="39.46953931418311" lon="8.736727993805665"><ele>191.0</ele><time>2026-04-08T11:28:38.999Z</time></trkpt><trkpt lat="39.469405693274474" lon="8.736848348328529"><ele>191.0</ele><time>2026-04-08T11:28:39.999Z</time></trkpt><trkpt lat="39.46926427823556" lon="8.736924331502536"><ele>191.0</ele><time>2026-04-08T11:28:40.999Z</time></trkpt><trkpt lat="39.46906175514429" lon="8.736991717365925"><ele>191.0</ele><time>2026-04-08T11:28:41.999Z</time></trkpt><trkpt lat="39.46885380709196" lon="8.736998432251461"><ele>191.0</ele><time>2026-04-08T11:28:42.999Z</time></trkpt><trkpt lat="39.46860068859844" lon="8.737002820868334"><ele>192.5</ele><time>2026-04-08T11:28:43.999Z</time></trkpt><trkpt lat="39.46832541709631" lon="8.737003046805317"><ele>194.0</ele><time>2026-04-08T11:28:44.999Z</time></trkpt><trkpt lat="39.46803499666421" lon="8.737021568792073"><ele>194.5</ele><time>2026-04-08T11:28:45.999Z</time></trkpt><trkpt lat="39.46774000244882" lon="8.736996208164618"><ele>195.0</ele><time>2026-04-08T11:28:46.999Z</time></trkpt><trkpt lat="39.46746488750038" lon="8.7370150867571"><ele>195.0</ele><time>2026-04-08T11:28:47.999Z</time></trkpt><trkpt lat="39.46723906847474" lon="8.73700868846365"><ele>195.0</ele><time>2026-04-08T11:28:48.999Z</time></trkpt><trkpt lat="39.46701829859707" lon="8.73706132541889"><ele>195.66666666666669</ele><time>2026-04-08T11:28:49.999Z</time></trkpt><trkpt lat="39.46682350846967" lon="8.73715131126273"><ele>196.33333333333334</ele><time>2026-04-08T11:28:50.999Z</time></trkpt><trkpt lat="39.46664108385919" lon="8.737145430523078"><ele>197.0</ele><time>2026-04-08T11:28:51.999Z</time></trkpt><trkpt lat="39.466469942090555" lon="8.737095469031923"><ele>197.0</ele><time>2026-04-08T11:28:52.999Z</time></trkpt><trkpt lat="39.46628066846988" lon="8.736953013420974"><ele>197.0</ele><time>2026-04-08T11:28:53.999Z</time></trkpt><trkpt lat="39.466058981313154" lon="8.736859042309183"><ele>200.66666666666669</ele><time>2026-04-08T11:28:54.999Z</time></trkpt><trkpt lat="39.4658820237411" lon="8.736769828737248"><ele>204.33333333333331</ele><time>2026-04-08T11:28:55.999Z</time></trkpt><trkpt lat="39.465680549978636" lon="8.736741128531037"><ele>208.0</ele><time>2026-04-08T11:28:56.999Z</time></trkpt><trkpt lat="39.46547055292413" lon="8.736733720879968"><ele>208.33333333333331</ele><time>2026-04-08T11:28:57.999Z</time></trkpt><trkpt lat="39.46525579231014" lon="8.736765103823291"><ele>208.66666666666669</ele><time>2026-04-08T11:28:58.999Z</time></trkpt><trkpt lat="39.465043913455055" lon="8.736831165455182"><ele>209.0</ele><time>2026-04-08T11:28:59.999Z</time></trkpt><trkpt lat="39.464832727584536" lon="8.7369474749946"><ele>208.5</ele><time>2026-04-08T11:29:00.999Z</time></trkpt><trkpt lat="39.46461634344595" lon="8.73709744528091"><ele>208.0</ele><time>2026-04-08T11:29:01.999Z</time></trkpt><trkpt lat="39.46439060532856" lon="8.737222407791515"><ele>208.0</ele><time>2026-04-08T11:29:02.999Z</time></trkpt><trkpt lat="39.46415538341285" lon="8.73733680076109"><ele>208.0</ele><time>2026-04-08T11:29:03.999Z</time></trkpt><trkpt lat="39.46395451207372" lon="8.737409111652218"><ele>209.33333333333331</ele><time>2026-04-08T11:29:04.999Z</time></trkpt><trkpt lat="39.463764543132044" lon="8.737441728042674"><ele>210.66666666666669</ele><time>2026-04-08T11:29:05.999Z</time></trkpt><trkpt lat="39.4635909954007" lon="8.737421533873894"><ele>212.0</ele><time>2026-04-08T11:29:06.999Z</time></trkpt><trkpt lat="39.46342218350268" lon="8.737361304122864"><ele>212.0</ele><time>2026-04-08T11:29:07.999Z</time></trkpt><trkpt lat="39.46326153278856" lon="8.737317738750951"><ele>212.0</ele><time>2026-04-08T11:29:08.999Z</time></trkpt><trkpt lat="39.46312654522256" lon="8.73729203408361"><ele>212.0</ele><time>2026-04-08T11:29:09.999Z</time></trkpt><trkpt lat="39.46300520839403" lon="8.73734631172831"><ele>212.0</ele><time>2026-04-08T11:29:10.999Z</time></trkpt><trkpt lat="39.4629145911595" lon="8.737468897716395"><ele>213.25</ele><time>2026-04-08T11:29:11.999Z</time></trkpt><trkpt lat="39.462861703961494" lon="8.73762983964667"><ele>214.5</ele><time>2026-04-08T11:29:12.999Z</time></trkpt><trkpt lat="39.462818451995574" lon="8.737786542839723"><ele>215.75</ele><time>2026-04-08T11:29:13.999Z</time></trkpt><trkpt lat="39.46278338035173" lon="8.737896650774033"><ele>217.0</ele><time>2026-04-08T11:29:14.999Z</time></trkpt><trkpt lat="39.463105589168805" lon="8.738174101473401"><ele>217.0</ele><time>2026-04-08T11:29:15.999Z</time></trkpt><trkpt lat="39.46325930273002" lon="8.738334134178013"><ele>217.0</ele><time>2026-04-08T11:29:16.999Z</time></trkpt><trkpt lat="39.463425740393134" lon="8.738524236383006"><ele>217.0</ele><time>2026-04-08T11:29:17.999Z</time></trkpt><trkpt lat="39.463559060782835" lon="8.73870369407755"><ele>217.8</ele><time>2026-04-08T11:29:18.998Z</time></trkpt><trkpt lat="39.46366287619081" lon="8.738836833218423"><ele>218.6</ele><time>2026-04-08T11:29:19.998Z</time></trkpt><trkpt lat="39.463703916701064" lon="8.738982928523482"><ele>219.40000000000003</ele><time>2026-04-08T11:29:20.998Z</time></trkpt><trkpt lat="39.463717678173786" lon="8.739102479371564"><ele>220.20000000000002</ele><time>2026-04-08T11:29:21.998Z</time></trkpt><trkpt lat="39.46372111308411" lon="8.739212044536169"><ele>221.0</ele><time>2026-04-08T11:29:22.998Z</time></trkpt><trkpt lat="39.46368436633051" lon="8.739301689275901"><ele>219.60000000000002</ele><time>2026-04-08T11:29:24.998Z</time></trkpt><trkpt lat="39.46379285525863" lon="8.739321685791735"><ele>218.20000000000002</ele><time>2026-04-08T11:29:26.998Z</time></trkpt><trkpt lat="39.46387127017771" lon="8.739316141662291"><ele>216.79999999999998</ele><time>2026-04-08T11:29:28.998Z</time></trkpt><trkpt lat="39.46394442936858" lon="8.73934893095849"><ele>215.39999999999998</ele><time>2026-04-08T11:29:30.998Z</time></trkpt><trkpt lat="39.46401232306888" lon="8.739370528620915"><ele>214.0</ele><time>2026-04-08T11:29:32.998Z</time></trkpt><trkpt lat="39.46403539005957" lon="8.739528437978736"><ele>214.0</ele><time>2026-04-08T11:29:34.998Z</time></trkpt><trkpt lat="39.46407441840744" lon="8.739667086532643"><ele>213.99999999999997</ele><time>2026-04-08T11:29:36.998Z</time></trkpt><trkpt lat="39.46411118810636" lon="8.73981287542356"><ele>213.99999999999997</ele><time>2026-04-08T11:29:38.998Z</time></trkpt><trkpt lat="39.46415265343751" lon="8.739957714637857"><ele>214.0</ele><time>2026-04-08T11:29:40.998Z</time></trkpt><trkpt lat="39.46416946014975" lon="8.740036839059036"><ele>214.0</ele><time>2026-04-08T11:29:41.998Z</time></trkpt><trkpt lat="39.46418887647968" lon="8.74017092326571"><ele>213.49999999999997</ele><time>2026-04-08T11:29:43.998Z</time></trkpt><trkpt lat="39.46421859095915" lon="8.740288557145671"><ele>213.0</ele><time>2026-04-08T11:29:45.998Z</time></trkpt><trkpt lat="39.464243669610326" lon="8.740384197443223"><ele>212.5</ele><time>2026-04-08T11:29:47.998Z</time></trkpt><trkpt lat="39.464281210547796" lon="8.740456004479073"><ele>212.0</ele><time>2026-04-08T11:29:49.998Z</time></trkpt><trkpt lat="39.46435849736278" lon="8.74051481699262"><ele>211.49999999999997</ele><time>2026-04-08T11:29:51.998Z</time></trkpt><trkpt lat="39.464439372223445" lon="8.740588938832904"><ele>211.0</ele><time>2026-04-08T11:29:53.998Z</time></trkpt><trkpt lat="39.46451345707566" lon="8.74065103148071"><ele>211.0</ele><time>2026-04-08T11:29:56Z</time></trkpt><trkpt lat="39.46457247471007" lon="8.74068328235941"><ele>211.0</ele><time>2026-04-08T11:29:58Z</time></trkpt></trkseg></trk></gpx>